<?xml version='1.0' encoding='UTF-8'?><gpx version="1.1" creator="JPX - https://github.com/jenetics/jpx" xmlns="http://www.topografix.com/GPX/1/1"><trk><trkseg><trkpt lat="45.6100344" lon="9.4272628"><ele>200.00000000000003</ele><time>2026-03-29T10:04:22.625Z</time></trkpt><trkpt lat="45.6099964" lon="9.4273474"><ele>200.0</ele><time>2026-03-29T10:04:30.618Z</time></trkpt><trkpt lat="45.6100514" lon="9.4272882"><ele>200.0</ele><time>2026-03-29T10:06:18.618Z</time></trkpt><trkpt lat="45.6100407" lon="9.4271962"><ele>200.0</ele><time>2026-03-29T10:07:38.585Z</time></trkpt><trkpt lat="45.6100508" lon="9.4271017"><ele>200.00000000000003</ele><time>2026-03-29T10:09:26.615Z</time></trkpt><trkpt lat="45.6100237" lon="9.4271836"><ele>200.0</ele><time>2026-03-29T10:12:00.593Z</time></trkpt><trkpt lat="45.6099882" lon="9.4268672"><ele>200.33333333333334</ele><time>2026-03-29T10:12:18.615Z</time></trkpt><trkpt lat="45.6099798" lon="9.4267496"><ele>200.66666666666669</ele><time>2026-03-29T10:12:21.615Z</time></trkpt><trkpt lat="45.6098995" lon="9.4267038"><ele>201.0</ele><time>2026-03-29T10:12:24.615Z</time></trkpt><trkpt lat="45.6098316" lon="9.42668"><ele>201.33333333333331</ele><time>2026-03-29T10:12:26.615Z</time></trkpt><trkpt lat="45.6097718" lon="9.4266264"><ele>201.66666666666666</ele><time>2026-03-29T10:12:28.615Z</time></trkpt><trkpt lat="45.609767" lon="9.4265244"><ele>202.0</ele><time>2026-03-29T10:12:30.615Z</time></trkpt><trkpt lat="45.6097699" lon="9.4263715"><ele>201.99999999999997</ele><time>2026-03-29T10:12:33.615Z</time></trkpt><trkpt lat="45.6097641" lon="9.4262533"><ele>202.0</ele><time>2026-03-29T10:12:35.615Z</time></trkpt><trkpt lat="45.6097309" lon="9.4261551"><ele>202.0</ele><time>2026-03-29T10:12:37.615Z</time></trkpt><trkpt lat="45.609688" lon="9.4260853"><ele>202.0</ele><time>2026-03-29T10:12:41.615Z</time></trkpt><trkpt lat="45.6095703" lon="9.4260449"><ele>201.99999999999997</ele><time>2026-03-29T10:12:51.614Z</time></trkpt><trkpt lat="45.6094908" lon="9.426036"><ele>202.0</ele><time>2026-03-29T10:12:53.615Z</time></trkpt><trkpt lat="45.6094083" lon="9.4260292"><ele>201.49999999999997</ele><time>2026-03-29T10:12:55.623Z</time></trkpt><trkpt lat="45.6093242" lon="9.4260225"><ele>201.0</ele><time>2026-03-29T10:12:57.623Z</time></trkpt><trkpt lat="45.609241" lon="9.4260185"><ele>200.5</ele><time>2026-03-29T10:12:59.623Z</time></trkpt><trkpt lat="45.6091592" lon="9.4260166"><ele>200.0</ele><time>2026-03-29T10:13:01.623Z</time></trkpt><trkpt lat="45.6090641" lon="9.4260206"><ele>199.49999999999997</ele><time>2026-03-29T10:13:03.623Z</time></trkpt><trkpt lat="45.6089667" lon="9.4260251"><ele>199.0</ele><time>2026-03-29T10:13:05.623Z</time></trkpt><trkpt lat="45.6088704" lon="9.4260322"><ele>199.0</ele><time>2026-03-29T10:13:07.622Z</time></trkpt><trkpt lat="45.6087623" lon="9.426035"><ele>199.0</ele><time>2026-03-29T10:13:09.623Z</time></trkpt><trkpt lat="45.6086627" lon="9.4260317"><ele>199.0</ele><time>2026-03-29T10:13:11.623Z</time></trkpt><trkpt lat="45.608587" lon="9.4260206"><ele>199.0</ele><time>2026-03-29T10:13:13.623Z</time></trkpt><trkpt lat="45.6084908" lon="9.4260192"><ele>199.0</ele><time>2026-03-29T10:13:15.622Z</time></trkpt><trkpt lat="45.6083833" lon="9.4260109"><ele>198.39999999999998</ele><time>2026-03-29T10:13:17.623Z</time></trkpt><trkpt lat="45.608291" lon="9.4260056"><ele>197.8</ele><time>2026-03-29T10:13:19.623Z</time></trkpt><trkpt lat="45.6081927" lon="9.4260047"><ele>197.2</ele><time>2026-03-29T10:13:21.622Z</time></trkpt><trkpt lat="45.6080858" lon="9.4260054"><ele>196.60000000000002</ele><time>2026-03-29T10:13:23.623Z</time></trkpt><trkpt lat="45.6079947" lon="9.4260029"><ele>196.0</ele><time>2026-03-29T10:13:25.623Z</time></trkpt><trkpt lat="45.6078889" lon="9.4260004"><ele>195.8</ele><time>2026-03-29T10:13:27.622Z</time></trkpt><trkpt lat="45.6077838" lon="9.4259937"><ele>195.60000000000002</ele><time>2026-03-29T10:13:29.623Z</time></trkpt><trkpt lat="45.6076763" lon="9.4259859"><ele>195.4</ele><time>2026-03-29T10:13:31.623Z</time></trkpt><trkpt lat="45.6075774" lon="9.425977"><ele>195.2</ele><time>2026-03-29T10:13:33.623Z</time></trkpt><trkpt lat="45.6074909" lon="9.4259673"><ele>195.0</ele><time>2026-03-29T10:13:35.623Z</time></trkpt><trkpt lat="45.6074402" lon="9.426076"><ele>195.0</ele><time>2026-03-29T10:13:38.623Z</time></trkpt><trkpt lat="45.60744" lon="9.4261806"><ele>195.0</ele><time>2026-03-29T10:13:40.623Z</time></trkpt><trkpt lat="45.607434" lon="9.4262861"><ele>195.0</ele><time>2026-03-29T10:13:42.623Z</time></trkpt><trkpt lat="45.6074263" lon="9.426406"><ele>195.0</ele><time>2026-03-29T10:13:44.622Z</time></trkpt><trkpt lat="45.6074248" lon="9.4265214"><ele>195.0</ele><time>2026-03-29T10:13:46.623Z</time></trkpt><trkpt lat="45.6074126" lon="9.4266399"><ele>195.0</ele><time>2026-03-29T10:13:48.623Z</time></trkpt><trkpt lat="45.6074121" lon="9.4267615"><ele>195.0</ele><time>2026-03-29T10:13:50.623Z</time></trkpt><trkpt lat="45.6074129" lon="9.4268904"><ele>195.0</ele><time>2026-03-29T10:13:52.623Z</time></trkpt><trkpt lat="45.6074094" lon="9.4270254"><ele>195.0</ele><time>2026-03-29T10:13:54.623Z</time></trkpt><trkpt lat="45.60741" lon="9.4271543"><ele>195.0</ele><time>2026-03-29T10:13:56.623Z</time></trkpt><trkpt lat="45.607405" lon="9.4272852"><ele>195.0</ele><time>2026-03-29T10:13:58.623Z</time></trkpt><trkpt lat="45.6073848" lon="9.4274047"><ele>195.0</ele><time>2026-03-29T10:14:00.623Z</time></trkpt><trkpt lat="45.6073618" lon="9.4275426"><ele>195.0</ele><time>2026-03-29T10:14:02.623Z</time></trkpt><trkpt lat="45.6073419" lon="9.4276802"><ele>195.0</ele><time>2026-03-29T10:14:04.623Z</time></trkpt><trkpt lat="45.6073449" lon="9.4277883"><ele>195.0</ele><time>2026-03-29T10:14:06.623Z</time></trkpt><trkpt lat="45.6073509" lon="9.4279095"><ele>195.0</ele><time>2026-03-29T10:14:08.623Z</time></trkpt><trkpt lat="45.6073496" lon="9.4280459"><ele>195.0</ele><time>2026-03-29T10:14:10.623Z</time></trkpt><trkpt lat="45.6073357" lon="9.4281831"><ele>195.0</ele><time>2026-03-29T10:14:12.623Z</time></trkpt><trkpt lat="45.6073391" lon="9.4283135"><ele>195.0</ele><time>2026-03-29T10:14:14.623Z</time></trkpt><trkpt lat="45.6073198" lon="9.4284617"><ele>195.0</ele><time>2026-03-29T10:14:16.623Z</time></trkpt><trkpt lat="45.6073156" lon="9.4286004"><ele>195.0</ele><time>2026-03-29T10:14:18.623Z</time></trkpt><trkpt lat="45.6073039" lon="9.4287207"><ele>195.0</ele><time>2026-03-29T10:14:20.623Z</time></trkpt><trkpt lat="45.6072976" lon="9.4288611"><ele>195.0</ele><time>2026-03-29T10:14:22.623Z</time></trkpt><trkpt lat="45.6072945" lon="9.4290037"><ele>195.0</ele><time>2026-03-29T10:14:24.623Z</time></trkpt><trkpt lat="45.6072885" lon="9.4291408"><ele>195.0</ele><time>2026-03-29T10:14:26.623Z</time></trkpt><trkpt lat="45.6072843" lon="9.4292794"><ele>195.0</ele><time>2026-03-29T10:14:28.623Z</time></trkpt><trkpt lat="45.6072757" lon="9.4294202"><ele>195.0</ele><time>2026-03-29T10:14:30.623Z</time></trkpt><trkpt lat="45.6072721" lon="9.4295342"><ele>195.0</ele><time>2026-03-29T10:14:32.623Z</time></trkpt><trkpt lat="45.6072615" lon="9.4296647"><ele>195.0</ele><time>2026-03-29T10:14:34.623Z</time></trkpt><trkpt lat="45.6072455" lon="9.4298194"><ele>195.0</ele><time>2026-03-29T10:14:36.623Z</time></trkpt><trkpt lat="45.6072286" lon="9.4299109"><ele>195.0</ele><time>2026-03-29T10:14:37.623Z</time></trkpt><trkpt lat="45.607175" lon="9.4300236"><ele>195.0</ele><time>2026-03-29T10:14:39.623Z</time></trkpt><trkpt lat="45.6071133" lon="9.4301303"><ele>195.2</ele><time>2026-03-29T10:14:41.623Z</time></trkpt><trkpt lat="45.6070234" lon="9.4302468"><ele>195.4</ele><time>2026-03-29T10:14:43.623Z</time></trkpt><trkpt lat="45.6070053" lon="9.4304228"><ele>195.60000000000002</ele><time>2026-03-29T10:14:45.623Z</time></trkpt><trkpt lat="45.6070012" lon="9.4305387"><ele>195.8</ele><time>2026-03-29T10:14:46.623Z</time></trkpt><trkpt lat="45.6069888" lon="9.4306433"><ele>196.0</ele><time>2026-03-29T10:14:47.623Z</time></trkpt><trkpt lat="45.6069938" lon="9.4307448"><ele>196.16666666666666</ele><time>2026-03-29T10:14:48.623Z</time></trkpt><trkpt lat="45.606973" lon="9.4308317"><ele>196.33333333333331</ele><time>2026-03-29T10:14:49.623Z</time></trkpt><trkpt lat="45.6069448" lon="9.4309827"><ele>196.5</ele><time>2026-03-29T10:14:51.622Z</time></trkpt><trkpt lat="45.6069538" lon="9.4311341"><ele>196.66666666666669</ele><time>2026-03-29T10:14:53.623Z</time></trkpt><trkpt lat="45.607019" lon="9.431229"><ele>196.83333333333334</ele><time>2026-03-29T10:14:55.623Z</time></trkpt><trkpt lat="45.6070882" lon="9.4312593"><ele>197.0</ele><time>2026-03-29T10:14:57.623Z</time></trkpt><trkpt lat="45.6071742" lon="9.4312872"><ele>197.00000000000003</ele><time>2026-03-29T10:14:59.623Z</time></trkpt><trkpt lat="45.6072531" lon="9.4313312"><ele>197.0</ele><time>2026-03-29T10:15:01.623Z</time></trkpt><trkpt lat="45.6073071" lon="9.4314393"><ele>197.0</ele><time>2026-03-29T10:15:03.623Z</time></trkpt><trkpt lat="45.6073163" lon="9.4315532"><ele>197.0</ele><time>2026-03-29T10:15:05.622Z</time></trkpt><trkpt lat="45.6073253" lon="9.4316587"><ele>197.00000000000003</ele><time>2026-03-29T10:15:07.623Z</time></trkpt><trkpt lat="45.6073547" lon="9.4317713"><ele>197.0</ele><time>2026-03-29T10:15:09.622Z</time></trkpt><trkpt lat="45.6074271" lon="9.431823"><ele>197.0</ele><time>2026-03-29T10:15:11.623Z</time></trkpt><trkpt lat="45.6075207" lon="9.4318888"><ele>197.0</ele><time>2026-03-29T10:15:13.623Z</time></trkpt><trkpt lat="45.6076246" lon="9.4319305"><ele>197.0</ele><time>2026-03-29T10:15:15.623Z</time></trkpt><trkpt lat="45.6077339" lon="9.4319754"><ele>197.0</ele><time>2026-03-29T10:15:17.623Z</time></trkpt><trkpt lat="45.6078295" lon="9.4319951"><ele>197.0</ele><time>2026-03-29T10:15:19.623Z</time></trkpt><trkpt lat="45.6079328" lon="9.4320034"><ele>197.2</ele><time>2026-03-29T10:15:21.623Z</time></trkpt><trkpt lat="45.6080381" lon="9.431977"><ele>197.39999999999998</ele><time>2026-03-29T10:15:23.623Z</time></trkpt><trkpt lat="45.6081365" lon="9.4319174"><ele>197.60000000000002</ele><time>2026-03-29T10:15:25.622Z</time></trkpt><trkpt lat="45.6082399" lon="9.4318537"><ele>197.8</ele><time>2026-03-29T10:15:27.623Z</time></trkpt><trkpt lat="45.6083434" lon="9.4318289"><ele>198.0</ele><time>2026-03-29T10:15:29.623Z</time></trkpt><trkpt lat="45.6084117" lon="9.4318307"><ele>198.0</ele><time>2026-03-29T10:15:30.623Z</time></trkpt><trkpt lat="45.6084786" lon="9.4318287"><ele>198.0</ele><time>2026-03-29T10:15:31.623Z</time></trkpt><trkpt lat="45.6085789" lon="9.431831"><ele>198.0</ele><time>2026-03-29T10:15:33.623Z</time></trkpt><trkpt lat="45.6086666" lon="9.4318474"><ele>198.0</ele><time>2026-03-29T10:15:35.623Z</time></trkpt><trkpt lat="45.6087604" lon="9.4318959"><ele>198.0</ele><time>2026-03-29T10:15:37.623Z</time></trkpt><trkpt lat="45.6088685" lon="9.4319362"><ele>197.60000000000002</ele><time>2026-03-29T10:15:39.623Z</time></trkpt><trkpt lat="45.6089735" lon="9.4319792"><ele>197.20000000000002</ele><time>2026-03-29T10:15:41.623Z</time></trkpt><trkpt lat="45.6090779" lon="9.4320275"><ele>196.8</ele><time>2026-03-29T10:15:43.623Z</time></trkpt><trkpt lat="45.60919" lon="9.4320714"><ele>196.4</ele><time>2026-03-29T10:15:45.623Z</time></trkpt><trkpt lat="45.6093004" lon="9.4321114"><ele>196.0</ele><time>2026-03-29T10:15:47.623Z</time></trkpt><trkpt lat="45.6094101" lon="9.4321653"><ele>196.0</ele><time>2026-03-29T10:15:49.623Z</time></trkpt><trkpt lat="45.6095143" lon="9.4322063"><ele>196.0</ele><time>2026-03-29T10:15:51.623Z</time></trkpt><trkpt lat="45.609622" lon="9.4322526"><ele>196.0</ele><time>2026-03-29T10:15:53.622Z</time></trkpt><trkpt lat="45.6097301" lon="9.4322861"><ele>196.0</ele><time>2026-03-29T10:15:55.623Z</time></trkpt><trkpt lat="45.6098275" lon="9.4322969"><ele>196.0</ele><time>2026-03-29T10:15:57.623Z</time></trkpt><trkpt lat="45.6099319" lon="9.4322627"><ele>196.0</ele><time>2026-03-29T10:15:59.623Z</time></trkpt><trkpt lat="45.6100471" lon="9.43224"><ele>196.0</ele><time>2026-03-29T10:16:01.623Z</time></trkpt><trkpt lat="45.6101517" lon="9.4322521"><ele>196.0</ele><time>2026-03-29T10:16:03.623Z</time></trkpt><trkpt lat="45.6102389" lon="9.4322591"><ele>196.0</ele><time>2026-03-29T10:16:05.623Z</time></trkpt><trkpt lat="45.6103383" lon="9.4322369"><ele>196.0</ele><time>2026-03-29T10:16:07.622Z</time></trkpt><trkpt lat="45.610421" lon="9.432155"><ele>196.60000000000002</ele><time>2026-03-29T10:16:09.623Z</time></trkpt><trkpt lat="45.6105065" lon="9.4320686"><ele>197.2</ele><time>2026-03-29T10:16:11.623Z</time></trkpt><trkpt lat="45.6106004" lon="9.4320105"><ele>197.8</ele><time>2026-03-29T10:16:13.623Z</time></trkpt><trkpt lat="45.6106926" lon="9.4319756"><ele>198.39999999999998</ele><time>2026-03-29T10:16:15.623Z</time></trkpt><trkpt lat="45.6107898" lon="9.4319677"><ele>199.0</ele><time>2026-03-29T10:16:17.623Z</time></trkpt><trkpt lat="45.6108922" lon="9.4319958"><ele>199.0</ele><time>2026-03-29T10:16:19.623Z</time></trkpt><trkpt lat="45.6109975" lon="9.4320132"><ele>199.0</ele><time>2026-03-29T10:16:21.623Z</time></trkpt><trkpt lat="45.6110986" lon="9.4320038"><ele>199.0</ele><time>2026-03-29T10:16:23.623Z</time></trkpt><trkpt lat="45.6111909" lon="9.4319963"><ele>199.0</ele><time>2026-03-29T10:16:25.622Z</time></trkpt><trkpt lat="45.61129" lon="9.4319845"><ele>199.0</ele><time>2026-03-29T10:16:27.623Z</time></trkpt><trkpt lat="45.6113879" lon="9.4319912"><ele>199.6</ele><time>2026-03-29T10:16:29.623Z</time></trkpt><trkpt lat="45.6114655" lon="9.4320051"><ele>200.2</ele><time>2026-03-29T10:16:31.623Z</time></trkpt><trkpt lat="45.6115688" lon="9.432038"><ele>200.79999999999998</ele><time>2026-03-29T10:16:33.622Z</time></trkpt><trkpt lat="45.6116731" lon="9.4321181"><ele>201.39999999999998</ele><time>2026-03-29T10:16:35.623Z</time></trkpt><trkpt lat="45.6117545" lon="9.4322246"><ele>202.0</ele><time>2026-03-29T10:16:37.623Z</time></trkpt><trkpt lat="45.6118576" lon="9.4322773"><ele>202.0</ele><time>2026-03-29T10:16:39.623Z</time></trkpt><trkpt lat="45.6119761" lon="9.4322944"><ele>202.0</ele><time>2026-03-29T10:16:41.623Z</time></trkpt><trkpt lat="45.612095" lon="9.4323143"><ele>202.0</ele><time>2026-03-29T10:16:43.623Z</time></trkpt><trkpt lat="45.6122055" lon="9.4323273"><ele>202.0</ele><time>2026-03-29T10:16:45.623Z</time></trkpt><trkpt lat="45.6123234" lon="9.4323432"><ele>202.25</ele><time>2026-03-29T10:16:47.623Z</time></trkpt><trkpt lat="45.6124348" lon="9.4323668"><ele>202.5</ele><time>2026-03-29T10:16:49.623Z</time></trkpt><trkpt lat="45.6125524" lon="9.4323812"><ele>202.75</ele><time>2026-03-29T10:16:51.623Z</time></trkpt><trkpt lat="45.6126664" lon="9.4324011"><ele>203.0</ele><time>2026-03-29T10:16:53.623Z</time></trkpt><trkpt lat="45.6127725" lon="9.4324334"><ele>203.0</ele><time>2026-03-29T10:16:55.622Z</time></trkpt><trkpt lat="45.6128815" lon="9.4324829"><ele>203.0</ele><time>2026-03-29T10:16:57.623Z</time></trkpt><trkpt lat="45.6129875" lon="9.4325328"><ele>203.0</ele><time>2026-03-29T10:16:59.623Z</time></trkpt><trkpt lat="45.6130977" lon="9.432593"><ele>203.0</ele><time>2026-03-29T10:17:01.623Z</time></trkpt><trkpt lat="45.6132011" lon="9.4326469"><ele>203.0</ele><time>2026-03-29T10:17:03.623Z</time></trkpt><trkpt lat="45.6133038" lon="9.4327103"><ele>203.0</ele><time>2026-03-29T10:17:05.622Z</time></trkpt><trkpt lat="45.6134084" lon="9.432762"><ele>203.0</ele><time>2026-03-29T10:17:07.623Z</time></trkpt><trkpt lat="45.6135199" lon="9.4328216"><ele>203.0</ele><time>2026-03-29T10:17:09.623Z</time></trkpt><trkpt lat="45.613628" lon="9.4328593"><ele>203.0</ele><time>2026-03-29T10:17:11.623Z</time></trkpt><trkpt lat="45.6137353" lon="9.4328728"><ele>203.0</ele><time>2026-03-29T10:17:13.623Z</time></trkpt><trkpt lat="45.6138388" lon="9.4328367"><ele>203.0</ele><time>2026-03-29T10:17:15.623Z</time></trkpt><trkpt lat="45.6139347" lon="9.4327749"><ele>203.0</ele><time>2026-03-29T10:17:17.623Z</time></trkpt><trkpt lat="45.614039" lon="9.4327961"><ele>203.0</ele><time>2026-03-29T10:17:19.622Z</time></trkpt><trkpt lat="45.6141461" lon="9.4328451"><ele>203.0</ele><time>2026-03-29T10:17:21.623Z</time></trkpt><trkpt lat="45.6142547" lon="9.432901"><ele>203.0</ele><time>2026-03-29T10:17:23.623Z</time></trkpt><trkpt lat="45.6143602" lon="9.4329583"><ele>203.0</ele><time>2026-03-29T10:17:25.623Z</time></trkpt><trkpt lat="45.6144621" lon="9.4330072"><ele>203.0</ele><time>2026-03-29T10:17:27.622Z</time></trkpt><trkpt lat="45.6145638" lon="9.4330597"><ele>203.0</ele><time>2026-03-29T10:17:29.623Z</time></trkpt><trkpt lat="45.6146647" lon="9.4331166"><ele>203.4</ele><time>2026-03-29T10:17:31.623Z</time></trkpt><trkpt lat="45.6147604" lon="9.4331602"><ele>203.8</ele><time>2026-03-29T10:17:33.623Z</time></trkpt><trkpt lat="45.6148625" lon="9.433209"><ele>204.2</ele><time>2026-03-29T10:17:35.623Z</time></trkpt><trkpt lat="45.6149616" lon="9.4332616"><ele>204.6</ele><time>2026-03-29T10:17:37.622Z</time></trkpt><trkpt lat="45.6150646" lon="9.4333024"><ele>205.0</ele><time>2026-03-29T10:17:39.623Z</time></trkpt><trkpt lat="45.6151682" lon="9.4333517"><ele>205.0</ele><time>2026-03-29T10:17:41.623Z</time></trkpt><trkpt lat="45.6152695" lon="9.4333955"><ele>205.0</ele><time>2026-03-29T10:17:43.623Z</time></trkpt><trkpt lat="45.6153741" lon="9.4334404"><ele>205.0</ele><time>2026-03-29T10:17:45.623Z</time></trkpt><trkpt lat="45.6154797" lon="9.4334834"><ele>205.0</ele><time>2026-03-29T10:17:47.622Z</time></trkpt><trkpt lat="45.6155765" lon="9.4335097"><ele>205.0</ele><time>2026-03-29T10:17:49.623Z</time></trkpt><trkpt lat="45.6156273" lon="9.4334494"><ele>204.83333333333331</ele><time>2026-03-29T10:17:51.623Z</time></trkpt><trkpt lat="45.6156168" lon="9.4333291"><ele>204.66666666666666</ele><time>2026-03-29T10:17:53.623Z</time></trkpt><trkpt lat="45.6156148" lon="9.4331971"><ele>204.5</ele><time>2026-03-29T10:17:55.623Z</time></trkpt><trkpt lat="45.6156174" lon="9.4330753"><ele>204.33333333333331</ele><time>2026-03-29T10:17:57.623Z</time></trkpt><trkpt lat="45.6156583" lon="9.4329893"><ele>204.16666666666666</ele><time>2026-03-29T10:17:59.622Z</time></trkpt><trkpt lat="45.6157171" lon="9.4329291"><ele>204.0</ele><time>2026-03-29T10:18:01.623Z</time></trkpt><trkpt lat="45.6158768" lon="9.4326805"><ele>204.0</ele><time>2026-03-29T10:18:09.621Z</time></trkpt><trkpt lat="45.6159115" lon="9.4325315"><ele>204.0</ele><time>2026-03-29T10:18:11.619Z</time></trkpt><trkpt lat="45.6159334" lon="9.4324083"><ele>204.0</ele><time>2026-03-29T10:18:13.624Z</time></trkpt><trkpt lat="45.6159472" lon="9.432293"><ele>204.0</ele><time>2026-03-29T10:18:15.619Z</time></trkpt><trkpt lat="45.615962" lon="9.432173"><ele>204.0</ele><time>2026-03-29T10:18:17.619Z</time></trkpt><trkpt lat="45.6159885" lon="9.4320586"><ele>204.0</ele><time>2026-03-29T10:18:19.618Z</time></trkpt><trkpt lat="45.6160609" lon="9.4320122"><ele>204.0</ele><time>2026-03-29T10:18:21.619Z</time></trkpt><trkpt lat="45.616129" lon="9.4320421"><ele>204.0</ele><time>2026-03-29T10:18:23.619Z</time></trkpt><trkpt lat="45.6161588" lon="9.4321335"><ele>204.0</ele><time>2026-03-29T10:18:25.619Z</time></trkpt><trkpt lat="45.6161474" lon="9.432244"><ele>204.0</ele><time>2026-03-29T10:18:27.619Z</time></trkpt><trkpt lat="45.6161445" lon="9.4323469"><ele>204.0</ele><time>2026-03-29T10:18:29.619Z</time></trkpt><trkpt lat="45.6161558" lon="9.4324434"><ele>204.0</ele><time>2026-03-29T10:18:31.619Z</time></trkpt><trkpt lat="45.6161726" lon="9.4325548"><ele>204.25</ele><time>2026-03-29T10:18:33.619Z</time></trkpt><trkpt lat="45.6161846" lon="9.4326536"><ele>204.5</ele><time>2026-03-29T10:18:35.619Z</time></trkpt><trkpt lat="45.6162071" lon="9.4329114"><ele>204.75</ele><time>2026-03-29T10:18:37.619Z</time></trkpt><trkpt lat="45.6162184" lon="9.4330567"><ele>205.0</ele><time>2026-03-29T10:18:39.619Z</time></trkpt><trkpt lat="45.6162341" lon="9.4332105"><ele>205.0</ele><time>2026-03-29T10:18:41.618Z</time></trkpt><trkpt lat="45.6162669" lon="9.4333636"><ele>205.0</ele><time>2026-03-29T10:18:43.619Z</time></trkpt><trkpt lat="45.6163126" lon="9.4335271"><ele>205.0</ele><time>2026-03-29T10:18:45.619Z</time></trkpt><trkpt lat="45.6163699" lon="9.4336731"><ele>205.0</ele><time>2026-03-29T10:18:47.618Z</time></trkpt><trkpt lat="45.6164447" lon="9.433806"><ele>205.0</ele><time>2026-03-29T10:18:49.619Z</time></trkpt><trkpt lat="45.6165346" lon="9.4338804"><ele>205.0</ele><time>2026-03-29T10:18:51.619Z</time></trkpt><trkpt lat="45.6166393" lon="9.433897"><ele>205.0</ele><time>2026-03-29T10:18:53.619Z</time></trkpt><trkpt lat="45.6167359" lon="9.4338374"><ele>205.0</ele><time>2026-03-29T10:18:55.619Z</time></trkpt><trkpt lat="45.6168061" lon="9.4337345"><ele>205.0</ele><time>2026-03-29T10:18:57.619Z</time></trkpt><trkpt lat="45.6168806" lon="9.4336157"><ele>205.0</ele><time>2026-03-29T10:18:59.619Z</time></trkpt><trkpt lat="45.6169657" lon="9.4334905"><ele>205.0</ele><time>2026-03-29T10:19:01.619Z</time></trkpt><trkpt lat="45.6170474" lon="9.4333753"><ele>205.0</ele><time>2026-03-29T10:19:03.619Z</time></trkpt><trkpt lat="45.617124" lon="9.4332523"><ele>205.0</ele><time>2026-03-29T10:19:05.619Z</time></trkpt><trkpt lat="45.6172017" lon="9.4331369"><ele>205.2</ele><time>2026-03-29T10:19:07.619Z</time></trkpt><trkpt lat="45.6172792" lon="9.4330191"><ele>205.4</ele><time>2026-03-29T10:19:09.619Z</time></trkpt><trkpt lat="45.6173555" lon="9.4329006"><ele>205.60000000000002</ele><time>2026-03-29T10:19:11.619Z</time></trkpt><trkpt lat="45.6174294" lon="9.432781"><ele>205.8</ele><time>2026-03-29T10:19:13.618Z</time></trkpt><trkpt lat="45.6175052" lon="9.4326642"><ele>206.0</ele><time>2026-03-29T10:19:15.619Z</time></trkpt><trkpt lat="45.6175712" lon="9.4325221"><ele>206.0</ele><time>2026-03-29T10:19:17.619Z</time></trkpt><trkpt lat="45.6176292" lon="9.4323825"><ele>206.0</ele><time>2026-03-29T10:19:19.619Z</time></trkpt><trkpt lat="45.6176872" lon="9.4322433"><ele>206.0</ele><time>2026-03-29T10:19:21.618Z</time></trkpt><trkpt lat="45.6177343" lon="9.4321067"><ele>206.0</ele><time>2026-03-29T10:19:23.619Z</time></trkpt><trkpt lat="45.6177821" lon="9.4319685"><ele>206.0</ele><time>2026-03-29T10:19:25.618Z</time></trkpt><trkpt lat="45.6178363" lon="9.4318171"><ele>206.25</ele><time>2026-03-29T10:19:27.619Z</time></trkpt><trkpt lat="45.6178895" lon="9.4316668"><ele>206.5</ele><time>2026-03-29T10:19:29.619Z</time></trkpt><trkpt lat="45.6179455" lon="9.4315278"><ele>206.75</ele><time>2026-03-29T10:19:31.619Z</time></trkpt><trkpt lat="45.6179968" lon="9.4313711"><ele>207.0</ele><time>2026-03-29T10:19:33.619Z</time></trkpt><trkpt lat="45.618051" lon="9.4312169"><ele>207.25</ele><time>2026-03-29T10:19:35.619Z</time></trkpt><trkpt lat="45.6181106" lon="9.431074"><ele>207.5</ele><time>2026-03-29T10:19:37.619Z</time></trkpt><trkpt lat="45.6181844" lon="9.4309423"><ele>207.75</ele><time>2026-03-29T10:19:39.619Z</time></trkpt><trkpt lat="45.6182639" lon="9.4308152"><ele>208.0</ele><time>2026-03-29T10:19:41.619Z</time></trkpt><trkpt lat="45.618356" lon="9.4307061"><ele>208.0</ele><time>2026-03-29T10:19:43.619Z</time></trkpt><trkpt lat="45.6184118" lon="9.4306615"><ele>208.0</ele><time>2026-03-29T10:19:44.619Z</time></trkpt><trkpt lat="45.6184727" lon="9.4306338"><ele>208.0</ele><time>2026-03-29T10:19:45.618Z</time></trkpt><trkpt lat="45.6185829" lon="9.4305913"><ele>208.0</ele><time>2026-03-29T10:19:47.619Z</time></trkpt><trkpt lat="45.6186904" lon="9.4305407"><ele>208.0</ele><time>2026-03-29T10:19:49.619Z</time></trkpt><trkpt lat="45.6188042" lon="9.4304874"><ele>208.0</ele><time>2026-03-29T10:19:51.618Z</time></trkpt><trkpt lat="45.6188646" lon="9.430461"><ele>208.0</ele><time>2026-03-29T10:19:52.619Z</time></trkpt><trkpt lat="45.6189779" lon="9.4304081"><ele>208.0</ele><time>2026-03-29T10:19:54.619Z</time></trkpt><trkpt lat="45.6190885" lon="9.4303646"><ele>208.0</ele><time>2026-03-29T10:19:56.619Z</time></trkpt><trkpt lat="45.619197" lon="9.4303491"><ele>208.0</ele><time>2026-03-29T10:19:58.619Z</time></trkpt><trkpt lat="45.6193032" lon="9.4303682"><ele>208.0</ele><time>2026-03-29T10:20:00.619Z</time></trkpt><trkpt lat="45.6194079" lon="9.4303922"><ele>208.0</ele><time>2026-03-29T10:20:02.618Z</time></trkpt><trkpt lat="45.6195136" lon="9.4304127"><ele>208.0</ele><time>2026-03-29T10:20:04.619Z</time></trkpt><trkpt lat="45.6196228" lon="9.4304408"><ele>208.0</ele><time>2026-03-29T10:20:06.618Z</time></trkpt><trkpt lat="45.619727" lon="9.430459"><ele>208.0</ele><time>2026-03-29T10:20:08.619Z</time></trkpt><trkpt lat="45.6198315" lon="9.430469"><ele>208.75</ele><time>2026-03-29T10:20:10.619Z</time></trkpt><trkpt lat="45.6199401" lon="9.4305007"><ele>209.5</ele><time>2026-03-29T10:20:12.619Z</time></trkpt><trkpt lat="45.6200492" lon="9.4305197"><ele>210.25</ele><time>2026-03-29T10:20:14.619Z</time></trkpt><trkpt lat="45.6201623" lon="9.4305346"><ele>211.0</ele><time>2026-03-29T10:20:16.619Z</time></trkpt><trkpt lat="45.6202781" lon="9.430557"><ele>210.75</ele><time>2026-03-29T10:20:18.619Z</time></trkpt><trkpt lat="45.6203952" lon="9.4305743"><ele>210.5</ele><time>2026-03-29T10:20:20.619Z</time></trkpt><trkpt lat="45.6205161" lon="9.4305947"><ele>210.25</ele><time>2026-03-29T10:20:22.618Z</time></trkpt><trkpt lat="45.6206257" lon="9.4306148"><ele>210.0</ele><time>2026-03-29T10:20:24.619Z</time></trkpt><trkpt lat="45.620742" lon="9.4306282"><ele>210.0</ele><time>2026-03-29T10:20:26.619Z</time></trkpt><trkpt lat="45.6208436" lon="9.4306662"><ele>210.0</ele><time>2026-03-29T10:20:28.619Z</time></trkpt><trkpt lat="45.6208923" lon="9.4307825"><ele>210.0</ele><time>2026-03-29T10:20:30.619Z</time></trkpt><trkpt lat="45.620878" lon="9.4309216"><ele>210.0</ele><time>2026-03-29T10:20:32.619Z</time></trkpt><trkpt lat="45.6208521" lon="9.4310633"><ele>210.0</ele><time>2026-03-29T10:20:34.619Z</time></trkpt><trkpt lat="45.6208257" lon="9.4312055"><ele>210.25</ele><time>2026-03-29T10:20:36.619Z</time></trkpt><trkpt lat="45.620809" lon="9.4313616"><ele>210.5</ele><time>2026-03-29T10:20:38.619Z</time></trkpt><trkpt lat="45.6207887" lon="9.4315163"><ele>210.75</ele><time>2026-03-29T10:20:40.618Z</time></trkpt><trkpt lat="45.6207651" lon="9.4316748"><ele>211.0</ele><time>2026-03-29T10:20:42.619Z</time></trkpt><trkpt lat="45.6207425" lon="9.4318371"><ele>211.0</ele><time>2026-03-29T10:20:44.619Z</time></trkpt><trkpt lat="45.6207163" lon="9.4319961"><ele>211.0</ele><time>2026-03-29T10:20:46.619Z</time></trkpt><trkpt lat="45.620689" lon="9.4321652"><ele>211.0</ele><time>2026-03-29T10:20:48.619Z</time></trkpt><trkpt lat="45.6206593" lon="9.4323244"><ele>211.0</ele><time>2026-03-29T10:20:50.619Z</time></trkpt><trkpt lat="45.6206339" lon="9.4324789"><ele>211.25</ele><time>2026-03-29T10:20:52.618Z</time></trkpt><trkpt lat="45.6206067" lon="9.4326407"><ele>211.5</ele><time>2026-03-29T10:20:54.619Z</time></trkpt><trkpt lat="45.6205846" lon="9.4328099"><ele>211.75</ele><time>2026-03-29T10:20:56.619Z</time></trkpt><trkpt lat="45.6205652" lon="9.4329675"><ele>212.0</ele><time>2026-03-29T10:20:58.619Z</time></trkpt><trkpt lat="45.620543" lon="9.4331302"><ele>212.0</ele><time>2026-03-29T10:21:00.618Z</time></trkpt><trkpt lat="45.6205139" lon="9.4333029"><ele>212.0</ele><time>2026-03-29T10:21:02.619Z</time></trkpt><trkpt lat="45.6204963" lon="9.4333914"><ele>212.0</ele><time>2026-03-29T10:21:03.619Z</time></trkpt><trkpt lat="45.6204619" lon="9.4335553"><ele>212.0</ele><time>2026-03-29T10:21:05.619Z</time></trkpt><trkpt lat="45.6204321" lon="9.4337151"><ele>212.0</ele><time>2026-03-29T10:21:07.619Z</time></trkpt><trkpt lat="45.6204021" lon="9.4338797"><ele>212.0</ele><time>2026-03-29T10:21:09.619Z</time></trkpt><trkpt lat="45.6203707" lon="9.4340428"><ele>212.0</ele><time>2026-03-29T10:21:11.619Z</time></trkpt><trkpt lat="45.6203426" lon="9.4342043"><ele>212.0</ele><time>2026-03-29T10:21:13.619Z</time></trkpt><trkpt lat="45.6203163" lon="9.4343487"><ele>212.0</ele><time>2026-03-29T10:21:15.619Z</time></trkpt><trkpt lat="45.6202875" lon="9.4345123"><ele>211.6</ele><time>2026-03-29T10:21:17.619Z</time></trkpt><trkpt lat="45.6202883" lon="9.4346646"><ele>211.2</ele><time>2026-03-29T10:21:19.619Z</time></trkpt><trkpt lat="45.6203449" lon="9.4347993"><ele>210.8</ele><time>2026-03-29T10:21:21.619Z</time></trkpt><trkpt lat="45.6204372" lon="9.4349083"><ele>210.4</ele><time>2026-03-29T10:21:23.619Z</time></trkpt><trkpt lat="45.6205445" lon="9.434956"><ele>210.0</ele><time>2026-03-29T10:21:25.619Z</time></trkpt><trkpt lat="45.6206603" lon="9.4350029"><ele>211.0</ele><time>2026-03-29T10:21:27.618Z</time></trkpt><trkpt lat="45.6207773" lon="9.4350318"><ele>212.0</ele><time>2026-03-29T10:21:29.619Z</time></trkpt><trkpt lat="45.6208969" lon="9.4350743"><ele>213.0</ele><time>2026-03-29T10:21:31.619Z</time></trkpt><trkpt lat="45.6210154" lon="9.4351146"><ele>214.0</ele><time>2026-03-29T10:21:33.619Z</time></trkpt><trkpt lat="45.6211292" lon="9.4351507"><ele>213.25</ele><time>2026-03-29T10:21:35.619Z</time></trkpt><trkpt lat="45.621239" lon="9.4351913"><ele>212.5</ele><time>2026-03-29T10:21:37.618Z</time></trkpt><trkpt lat="45.6213573" lon="9.4352288"><ele>211.75</ele><time>2026-03-29T10:21:39.619Z</time></trkpt><trkpt lat="45.62147" lon="9.4352642"><ele>211.0</ele><time>2026-03-29T10:21:41.619Z</time></trkpt><trkpt lat="45.6215835" lon="9.4353083"><ele>211.0</ele><time>2026-03-29T10:21:43.618Z</time></trkpt><trkpt lat="45.6216996" lon="9.4353521"><ele>211.0</ele><time>2026-03-29T10:21:45.619Z</time></trkpt><trkpt lat="45.6218102" lon="9.4353946"><ele>211.0</ele><time>2026-03-29T10:21:47.619Z</time></trkpt><trkpt lat="45.6219217" lon="9.4354209"><ele>211.0</ele><time>2026-03-29T10:21:49.619Z</time></trkpt><trkpt lat="45.6220253" lon="9.4354579"><ele>211.0</ele><time>2026-03-29T10:21:51.619Z</time></trkpt><trkpt lat="45.6220737" lon="9.4355703"><ele>211.0</ele><time>2026-03-29T10:21:53.618Z</time></trkpt><trkpt lat="45.622058" lon="9.4357123"><ele>211.0</ele><time>2026-03-29T10:21:55.619Z</time></trkpt><trkpt lat="45.6220311" lon="9.4358641"><ele>211.0</ele><time>2026-03-29T10:21:57.619Z</time></trkpt><trkpt lat="45.6220026" lon="9.4360151"><ele>211.0</ele><time>2026-03-29T10:21:59.619Z</time></trkpt><trkpt lat="45.6219761" lon="9.4361753"><ele>210.5</ele><time>2026-03-29T10:22:01.619Z</time></trkpt><trkpt lat="45.621948" lon="9.4363291"><ele>210.0</ele><time>2026-03-29T10:22:03.619Z</time></trkpt><trkpt lat="45.621922" lon="9.4364891"><ele>209.5</ele><time>2026-03-29T10:22:05.619Z</time></trkpt><trkpt lat="45.6218984" lon="9.43665"><ele>209.0</ele><time>2026-03-29T10:22:07.619Z</time></trkpt><trkpt lat="45.6218708" lon="9.4368086"><ele>209.0</ele><time>2026-03-29T10:22:09.619Z</time></trkpt><trkpt lat="45.6218447" lon="9.4369652"><ele>209.0</ele><time>2026-03-29T10:22:11.619Z</time></trkpt><trkpt lat="45.6218209" lon="9.4371205"><ele>209.0</ele><time>2026-03-29T10:22:13.619Z</time></trkpt><trkpt lat="45.6217933" lon="9.4372707"><ele>209.0</ele><time>2026-03-29T10:22:15.619Z</time></trkpt><trkpt lat="45.6217651" lon="9.4374324"><ele>209.0</ele><time>2026-03-29T10:22:17.619Z</time></trkpt><trkpt lat="45.6217495" lon="9.4375238"><ele>209.39999999999998</ele><time>2026-03-29T10:22:18.619Z</time></trkpt><trkpt lat="45.6217243" lon="9.437675"><ele>209.8</ele><time>2026-03-29T10:22:20.618Z</time></trkpt><trkpt lat="45.6217109" lon="9.437771"><ele>210.2</ele><time>2026-03-29T10:22:21.619Z</time></trkpt><trkpt lat="45.6216882" lon="9.4379217"><ele>210.60000000000002</ele><time>2026-03-29T10:22:23.619Z</time></trkpt><trkpt lat="45.6216687" lon="9.4380794"><ele>211.0</ele><time>2026-03-29T10:22:25.619Z</time></trkpt><trkpt lat="45.621634" lon="9.4382512"><ele>211.20000000000002</ele><time>2026-03-29T10:22:27.619Z</time></trkpt><trkpt lat="45.6216203" lon="9.4384137"><ele>211.4</ele><time>2026-03-29T10:22:29.619Z</time></trkpt><trkpt lat="45.6216536" lon="9.4385467"><ele>211.6</ele><time>2026-03-29T10:22:31.619Z</time></trkpt><trkpt lat="45.6216768" lon="9.4386834"><ele>211.8</ele><time>2026-03-29T10:22:33.619Z</time></trkpt><trkpt lat="45.6216429" lon="9.4388229"><ele>212.0</ele><time>2026-03-29T10:22:35.618Z</time></trkpt><trkpt lat="45.6216021" lon="9.4389791"><ele>212.0</ele><time>2026-03-29T10:22:37.619Z</time></trkpt><trkpt lat="45.6215697" lon="9.4391358"><ele>212.0</ele><time>2026-03-29T10:22:39.619Z</time></trkpt><trkpt lat="45.62154" lon="9.4392884"><ele>212.0</ele><time>2026-03-29T10:22:41.619Z</time></trkpt><trkpt lat="45.6215154" lon="9.4394484"><ele>212.0</ele><time>2026-03-29T10:22:43.619Z</time></trkpt><trkpt lat="45.6214813" lon="9.4396142"><ele>212.0</ele><time>2026-03-29T10:22:45.618Z</time></trkpt><trkpt lat="45.6214472" lon="9.4397753"><ele>212.0</ele><time>2026-03-29T10:22:47.619Z</time></trkpt><trkpt lat="45.6213956" lon="9.4399338"><ele>212.0</ele><time>2026-03-29T10:22:49.619Z</time></trkpt><trkpt lat="45.6213482" lon="9.4400711"><ele>212.0</ele><time>2026-03-29T10:22:51.619Z</time></trkpt><trkpt lat="45.6213679" lon="9.4402208"><ele>212.0</ele><time>2026-03-29T10:22:53.619Z</time></trkpt><trkpt lat="45.6214605" lon="9.4402567"><ele>212.0</ele><time>2026-03-29T10:22:55.619Z</time></trkpt><trkpt lat="45.6215698" lon="9.4402196"><ele>212.0</ele><time>2026-03-29T10:22:57.619Z</time></trkpt><trkpt lat="45.6216809" lon="9.4402385"><ele>212.0</ele><time>2026-03-29T10:22:59.619Z</time></trkpt><trkpt lat="45.6217947" lon="9.4402718"><ele>212.0</ele><time>2026-03-29T10:23:01.619Z</time></trkpt><trkpt lat="45.6219148" lon="9.4403057"><ele>212.0</ele><time>2026-03-29T10:23:03.619Z</time></trkpt><trkpt lat="45.621979" lon="9.4403209"><ele>212.0</ele><time>2026-03-29T10:23:04.619Z</time></trkpt><trkpt lat="45.622095" lon="9.4403711"><ele>212.0</ele><time>2026-03-29T10:23:06.619Z</time></trkpt><trkpt lat="45.6222076" lon="9.4404157"><ele>212.0</ele><time>2026-03-29T10:23:08.618Z</time></trkpt><trkpt lat="45.6223271" lon="9.4404491"><ele>212.0</ele><time>2026-03-29T10:23:10.619Z</time></trkpt><trkpt lat="45.6224477" lon="9.4404847"><ele>212.0</ele><time>2026-03-29T10:23:12.619Z</time></trkpt><trkpt lat="45.622563" lon="9.4405191"><ele>212.0</ele><time>2026-03-29T10:23:14.619Z</time></trkpt><trkpt lat="45.6226857" lon="9.440552"><ele>212.0</ele><time>2026-03-29T10:23:16.619Z</time></trkpt><trkpt lat="45.6228067" lon="9.4405808"><ele>212.0</ele><time>2026-03-29T10:23:18.619Z</time></trkpt><trkpt lat="45.6229283" lon="9.4406244"><ele>212.0</ele><time>2026-03-29T10:23:20.619Z</time></trkpt><trkpt lat="45.6230483" lon="9.4406585"><ele>212.0</ele><time>2026-03-29T10:23:22.619Z</time></trkpt><trkpt lat="45.6231678" lon="9.4406923"><ele>212.0</ele><time>2026-03-29T10:23:24.619Z</time></trkpt><trkpt lat="45.6232865" lon="9.4407104"><ele>212.0</ele><time>2026-03-29T10:23:26.619Z</time></trkpt><trkpt lat="45.6233991" lon="9.4407494"><ele>212.0</ele><time>2026-03-29T10:23:28.619Z</time></trkpt><trkpt lat="45.6235164" lon="9.440784"><ele>212.0</ele><time>2026-03-29T10:23:30.619Z</time></trkpt><trkpt lat="45.6236328" lon="9.4408188"><ele>212.0</ele><time>2026-03-29T10:23:32.619Z</time></trkpt><trkpt lat="45.6237436" lon="9.4408581"><ele>212.0</ele><time>2026-03-29T10:23:34.619Z</time></trkpt><trkpt lat="45.6238572" lon="9.4408819"><ele>212.39999999999998</ele><time>2026-03-29T10:23:36.619Z</time></trkpt><trkpt lat="45.6239634" lon="9.4409092"><ele>212.79999999999998</ele><time>2026-03-29T10:23:38.619Z</time></trkpt><trkpt lat="45.6240281" lon="9.4409292"><ele>213.2</ele><time>2026-03-29T10:23:39.619Z</time></trkpt><trkpt lat="45.624142" lon="9.4409575"><ele>213.6</ele><time>2026-03-29T10:23:41.619Z</time></trkpt><trkpt lat="45.6242474" lon="9.4409859"><ele>214.0</ele><time>2026-03-29T10:23:43.619Z</time></trkpt><trkpt lat="45.6243551" lon="9.4410328"><ele>214.0</ele><time>2026-03-29T10:23:45.619Z</time></trkpt><trkpt lat="45.6244755" lon="9.4410962"><ele>213.99999999999997</ele><time>2026-03-29T10:23:47.619Z</time></trkpt><trkpt lat="45.6245332" lon="9.4411371"><ele>213.99999999999997</ele><time>2026-03-29T10:23:48.619Z</time></trkpt><trkpt lat="45.6246283" lon="9.4412451"><ele>214.0</ele><time>2026-03-29T10:23:50.619Z</time></trkpt><trkpt lat="45.62468" lon="9.4413119"><ele>214.0</ele><time>2026-03-29T10:23:51.618Z</time></trkpt><trkpt lat="45.6247705" lon="9.4414303"><ele>214.5</ele><time>2026-03-29T10:23:53.619Z</time></trkpt><trkpt lat="45.6248726" lon="9.441536"><ele>215.0</ele><time>2026-03-29T10:23:55.618Z</time></trkpt><trkpt lat="45.624992" lon="9.4415987"><ele>215.5</ele><time>2026-03-29T10:23:57.619Z</time></trkpt><trkpt lat="45.6251121" lon="9.4416398"><ele>216.0</ele><time>2026-03-29T10:23:59.619Z</time></trkpt><trkpt lat="45.6252302" lon="9.4416817"><ele>216.20000000000002</ele><time>2026-03-29T10:24:01.619Z</time></trkpt><trkpt lat="45.6253365" lon="9.4417363"><ele>216.40000000000003</ele><time>2026-03-29T10:24:03.619Z</time></trkpt><trkpt lat="45.6253888" lon="9.4418728"><ele>216.6</ele><time>2026-03-29T10:24:05.619Z</time></trkpt><trkpt lat="45.6253836" lon="9.4419645"><ele>216.8</ele><time>2026-03-29T10:24:06.619Z</time></trkpt><trkpt lat="45.6253648" lon="9.4420932"><ele>217.0</ele><time>2026-03-29T10:24:08.618Z</time></trkpt><trkpt lat="45.6253311" lon="9.442253"><ele>217.0</ele><time>2026-03-29T10:24:10.618Z</time></trkpt><trkpt lat="45.6253139" lon="9.4424096"><ele>217.0</ele><time>2026-03-29T10:24:12.619Z</time></trkpt><trkpt lat="45.6253015" lon="9.4425014"><ele>217.0</ele><time>2026-03-29T10:24:13.619Z</time></trkpt><trkpt lat="45.6252783" lon="9.4426511"><ele>217.0</ele><time>2026-03-29T10:24:15.619Z</time></trkpt><trkpt lat="45.6252544" lon="9.4427977"><ele>217.0</ele><time>2026-03-29T10:24:17.619Z</time></trkpt><trkpt lat="45.6252374" lon="9.4428856"><ele>216.8</ele><time>2026-03-29T10:24:18.619Z</time></trkpt><trkpt lat="45.6252153" lon="9.4429787"><ele>216.6</ele><time>2026-03-29T10:24:19.619Z</time></trkpt><trkpt lat="45.6251834" lon="9.4431459"><ele>216.40000000000003</ele><time>2026-03-29T10:24:21.619Z</time></trkpt><trkpt lat="45.6251617" lon="9.4432998"><ele>216.20000000000002</ele><time>2026-03-29T10:24:23.619Z</time></trkpt><trkpt lat="45.625162" lon="9.443455"><ele>216.0</ele><time>2026-03-29T10:24:25.619Z</time></trkpt><trkpt lat="45.6252607" lon="9.4435366"><ele>216.4</ele><time>2026-03-29T10:24:27.619Z</time></trkpt><trkpt lat="45.625384" lon="9.4435677"><ele>216.8</ele><time>2026-03-29T10:24:29.619Z</time></trkpt><trkpt lat="45.625448" lon="9.4435892"><ele>217.20000000000002</ele><time>2026-03-29T10:24:30.619Z</time></trkpt><trkpt lat="45.6255612" lon="9.4436329"><ele>217.60000000000002</ele><time>2026-03-29T10:24:32.619Z</time></trkpt><trkpt lat="45.6256247" lon="9.4436509"><ele>218.0</ele><time>2026-03-29T10:24:33.619Z</time></trkpt><trkpt lat="45.625744" lon="9.4436934"><ele>218.0</ele><time>2026-03-29T10:24:35.619Z</time></trkpt><trkpt lat="45.6258599" lon="9.4437209"><ele>218.0</ele><time>2026-03-29T10:24:37.619Z</time></trkpt><trkpt lat="45.6259792" lon="9.4437558"><ele>218.0</ele><time>2026-03-29T10:24:39.619Z</time></trkpt><trkpt lat="45.6260912" lon="9.4437916"><ele>218.0</ele><time>2026-03-29T10:24:41.619Z</time></trkpt><trkpt lat="45.6262059" lon="9.4438295"><ele>218.0</ele><time>2026-03-29T10:24:43.619Z</time></trkpt><trkpt lat="45.626268" lon="9.4438464"><ele>218.0</ele><time>2026-03-29T10:24:44.619Z</time></trkpt><trkpt lat="45.6263798" lon="9.443874"><ele>218.0</ele><time>2026-03-29T10:24:46.619Z</time></trkpt><trkpt lat="45.6264621" lon="9.443959"><ele>218.0</ele><time>2026-03-29T10:24:48.619Z</time></trkpt><trkpt lat="45.6264774" lon="9.4440854"><ele>218.0</ele><time>2026-03-29T10:24:50.619Z</time></trkpt><trkpt lat="45.6264362" lon="9.4442523"><ele>218.0</ele><time>2026-03-29T10:24:52.619Z</time></trkpt><trkpt lat="45.6264194" lon="9.4443402"><ele>218.0</ele><time>2026-03-29T10:24:53.619Z</time></trkpt><trkpt lat="45.626399" lon="9.4444893"><ele>218.0</ele><time>2026-03-29T10:24:55.619Z</time></trkpt><trkpt lat="45.6263725" lon="9.4446132"><ele>218.0</ele><time>2026-03-29T10:24:57.618Z</time></trkpt><trkpt lat="45.6263613" lon="9.4447167"><ele>218.0</ele><time>2026-03-29T10:24:58.619Z</time></trkpt><trkpt lat="45.6263372" lon="9.4448878"><ele>218.0</ele><time>2026-03-29T10:25:00.619Z</time></trkpt><trkpt lat="45.6263096" lon="9.4450713"><ele>218.0</ele><time>2026-03-29T10:25:02.619Z</time></trkpt><trkpt lat="45.6262868" lon="9.4452379"><ele>218.0</ele><time>2026-03-29T10:25:04.619Z</time></trkpt><trkpt lat="45.6262699" lon="9.445415"><ele>218.0</ele><time>2026-03-29T10:25:06.619Z</time></trkpt><trkpt lat="45.6262216" lon="9.4455329"><ele>217.60000000000002</ele><time>2026-03-29T10:25:08.619Z</time></trkpt><trkpt lat="45.626135" lon="9.4455611"><ele>217.20000000000002</ele><time>2026-03-29T10:25:10.619Z</time></trkpt><trkpt lat="45.6260427" lon="9.4455421"><ele>216.8</ele><time>2026-03-29T10:25:12.619Z</time></trkpt><trkpt lat="45.6259404" lon="9.4455185"><ele>216.4</ele><time>2026-03-29T10:25:14.619Z</time></trkpt><trkpt lat="45.6258259" lon="9.4454818"><ele>216.0</ele><time>2026-03-29T10:25:16.619Z</time></trkpt><trkpt lat="45.6257102" lon="9.4454714"><ele>216.0</ele><time>2026-03-29T10:25:18.618Z</time></trkpt><trkpt lat="45.6256139" lon="9.4454392"><ele>216.00000000000003</ele><time>2026-03-29T10:25:20.618Z</time></trkpt><trkpt lat="45.6255234" lon="9.4454314"><ele>216.00000000000003</ele><time>2026-03-29T10:25:22.618Z</time></trkpt><trkpt lat="45.6254499" lon="9.4455105"><ele>216.0</ele><time>2026-03-29T10:25:24.619Z</time></trkpt><trkpt lat="45.6254186" lon="9.4456433"><ele>216.0</ele><time>2026-03-29T10:25:26.619Z</time></trkpt><trkpt lat="45.625397" lon="9.445785"><ele>216.0</ele><time>2026-03-29T10:25:28.619Z</time></trkpt><trkpt lat="45.6253794" lon="9.4459299"><ele>216.00000000000003</ele><time>2026-03-29T10:25:30.618Z</time></trkpt><trkpt lat="45.6253642" lon="9.4460903"><ele>216.00000000000003</ele><time>2026-03-29T10:25:32.619Z</time></trkpt><trkpt lat="45.6253505" lon="9.4462442"><ele>216.0</ele><time>2026-03-29T10:25:34.619Z</time></trkpt><trkpt lat="45.6253345" lon="9.4464026"><ele>216.0</ele><time>2026-03-29T10:25:36.619Z</time></trkpt><trkpt lat="45.625324" lon="9.4465632"><ele>215.8</ele><time>2026-03-29T10:25:38.619Z</time></trkpt><trkpt lat="45.6253129" lon="9.4467188"><ele>215.60000000000002</ele><time>2026-03-29T10:25:40.619Z</time></trkpt><trkpt lat="45.6253034" lon="9.446881"><ele>215.4</ele><time>2026-03-29T10:25:42.619Z</time></trkpt><trkpt lat="45.6252963" lon="9.4470304"><ele>215.2</ele><time>2026-03-29T10:25:44.619Z</time></trkpt><trkpt lat="45.6252933" lon="9.4471712"><ele>215.0</ele><time>2026-03-29T10:25:46.619Z</time></trkpt><trkpt lat="45.6252732" lon="9.4473043"><ele>215.0</ele><time>2026-03-29T10:25:48.619Z</time></trkpt><trkpt lat="45.6252618" lon="9.4474293"><ele>215.0</ele><time>2026-03-29T10:25:50.619Z</time></trkpt><trkpt lat="45.6252661" lon="9.4475604"><ele>215.0</ele><time>2026-03-29T10:25:52.619Z</time></trkpt><trkpt lat="45.6252539" lon="9.4477191"><ele>215.0</ele><time>2026-03-29T10:25:54.619Z</time></trkpt><trkpt lat="45.6252363" lon="9.4478648"><ele>215.0</ele><time>2026-03-29T10:25:56.619Z</time></trkpt><trkpt lat="45.6252337" lon="9.4480167"><ele>215.2</ele><time>2026-03-29T10:25:58.619Z</time></trkpt><trkpt lat="45.6252152" lon="9.4481653"><ele>215.4</ele><time>2026-03-29T10:26:00.618Z</time></trkpt><trkpt lat="45.6251994" lon="9.4483148"><ele>215.60000000000002</ele><time>2026-03-29T10:26:02.619Z</time></trkpt><trkpt lat="45.6251849" lon="9.4484635"><ele>215.8</ele><time>2026-03-29T10:26:04.618Z</time></trkpt><trkpt lat="45.6251659" lon="9.4485905"><ele>216.0</ele><time>2026-03-29T10:26:06.619Z</time></trkpt><trkpt lat="45.625152" lon="9.4487248"><ele>216.0</ele><time>2026-03-29T10:26:08.619Z</time></trkpt><trkpt lat="45.6251362" lon="9.448876"><ele>216.00000000000003</ele><time>2026-03-29T10:26:10.619Z</time></trkpt><trkpt lat="45.6251206" lon="9.4490471"><ele>216.00000000000003</ele><time>2026-03-29T10:26:12.619Z</time></trkpt><trkpt lat="45.6251117" lon="9.4491876"><ele>216.0</ele><time>2026-03-29T10:26:14.619Z</time></trkpt><trkpt lat="45.625106" lon="9.4493316"><ele>216.0</ele><time>2026-03-29T10:26:16.618Z</time></trkpt><trkpt lat="45.6251027" lon="9.4494727"><ele>216.0</ele><time>2026-03-29T10:26:18.619Z</time></trkpt><trkpt lat="45.6250955" lon="9.4496231"><ele>216.00000000000003</ele><time>2026-03-29T10:26:20.619Z</time></trkpt><trkpt lat="45.625075" lon="9.4497628"><ele>216.00000000000003</ele><time>2026-03-29T10:26:22.619Z</time></trkpt><trkpt lat="45.6250459" lon="9.4498869"><ele>216.0</ele><time>2026-03-29T10:26:24.619Z</time></trkpt><trkpt lat="45.6250212" lon="9.4500289"><ele>216.0</ele><time>2026-03-29T10:26:26.619Z</time></trkpt><trkpt lat="45.6250303" lon="9.4501619"><ele>215.66666666666666</ele><time>2026-03-29T10:26:28.618Z</time></trkpt><trkpt lat="45.6250621" lon="9.4502742"><ele>215.33333333333331</ele><time>2026-03-29T10:26:30.619Z</time></trkpt><trkpt lat="45.6250755" lon="9.4504254"><ele>215.0</ele><time>2026-03-29T10:26:32.618Z</time></trkpt><trkpt lat="45.6250923" lon="9.4505451"><ele>214.66666666666666</ele><time>2026-03-29T10:26:34.619Z</time></trkpt><trkpt lat="45.6251505" lon="9.4505828"><ele>214.33333333333331</ele><time>2026-03-29T10:26:36.618Z</time></trkpt><trkpt lat="45.6252434" lon="9.4505444"><ele>214.0</ele><time>2026-03-29T10:26:39.619Z</time></trkpt><trkpt lat="45.625314" lon="9.4504998"><ele>214.00000000000003</ele><time>2026-03-29T10:26:41.619Z</time></trkpt><trkpt lat="45.6253747" lon="9.4504525"><ele>214.0</ele><time>2026-03-29T10:26:43.619Z</time></trkpt><trkpt lat="45.6254362" lon="9.4504105"><ele>214.0</ele><time>2026-03-29T10:26:45.618Z</time></trkpt><trkpt lat="45.6255107" lon="9.4503678"><ele>214.0</ele><time>2026-03-29T10:26:47.619Z</time></trkpt><trkpt lat="45.6255875" lon="9.4503366"><ele>214.0</ele><time>2026-03-29T10:26:50.619Z</time></trkpt><trkpt lat="45.6256512" lon="9.4503143"><ele>214.00000000000003</ele><time>2026-03-29T10:26:52.619Z</time></trkpt><trkpt lat="45.6257256" lon="9.4502793"><ele>214.0</ele><time>2026-03-29T10:26:54.619Z</time></trkpt><trkpt lat="45.625811" lon="9.4502718"><ele>214.0</ele><time>2026-03-29T10:26:56.619Z</time></trkpt><trkpt lat="45.6259077" lon="9.4502849"><ele>213.99999999999997</ele><time>2026-03-29T10:26:58.619Z</time></trkpt><trkpt lat="45.6259846" lon="9.4502855"><ele>213.99999999999997</ele><time>2026-03-29T10:26:59.619Z</time></trkpt><trkpt lat="45.626098" lon="9.4502423"><ele>214.0</ele><time>2026-03-29T10:27:01.619Z</time></trkpt><trkpt lat="45.6261886" lon="9.4503135"><ele>214.0</ele><time>2026-03-29T10:27:03.619Z</time></trkpt><trkpt lat="45.6262711" lon="9.4503411"><ele>214.16666666666666</ele><time>2026-03-29T10:27:05.618Z</time></trkpt><trkpt lat="45.626365" lon="9.4503646"><ele>214.33333333333331</ele><time>2026-03-29T10:27:07.619Z</time></trkpt><trkpt lat="45.6264603" lon="9.4503939"><ele>214.5</ele><time>2026-03-29T10:27:09.619Z</time></trkpt><trkpt lat="45.6265427" lon="9.4504264"><ele>214.66666666666669</ele><time>2026-03-29T10:27:11.619Z</time></trkpt><trkpt lat="45.6266162" lon="9.4504612"><ele>214.83333333333334</ele><time>2026-03-29T10:27:13.619Z</time></trkpt><trkpt lat="45.6266892" lon="9.4504903"><ele>215.0</ele><time>2026-03-29T10:27:15.619Z</time></trkpt><trkpt lat="45.6267687" lon="9.4505162"><ele>215.0</ele><time>2026-03-29T10:27:18.619Z</time></trkpt><trkpt lat="45.626871" lon="9.4505482"><ele>215.0</ele><time>2026-03-29T10:27:21.619Z</time></trkpt><trkpt lat="45.6269645" lon="9.4505862"><ele>215.0</ele><time>2026-03-29T10:27:23.619Z</time></trkpt><trkpt lat="45.6270702" lon="9.4506304"><ele>215.0</ele><time>2026-03-29T10:27:25.619Z</time></trkpt><trkpt lat="45.6271635" lon="9.4506696"><ele>215.0</ele><time>2026-03-29T10:27:27.619Z</time></trkpt><trkpt lat="45.6272643" lon="9.4507262"><ele>215.6</ele><time>2026-03-29T10:27:29.619Z</time></trkpt><trkpt lat="45.6273636" lon="9.4507722"><ele>216.2</ele><time>2026-03-29T10:27:31.619Z</time></trkpt><trkpt lat="45.6274503" lon="9.4508063"><ele>216.8</ele><time>2026-03-29T10:27:33.619Z</time></trkpt><trkpt lat="45.6275464" lon="9.4508596"><ele>217.4</ele><time>2026-03-29T10:27:35.619Z</time></trkpt><trkpt lat="45.6276321" lon="9.4508937"><ele>218.0</ele><time>2026-03-29T10:27:37.619Z</time></trkpt><trkpt lat="45.6277227" lon="9.4509287"><ele>218.0</ele><time>2026-03-29T10:27:39.619Z</time></trkpt><trkpt lat="45.6278075" lon="9.4510193"><ele>218.0</ele><time>2026-03-29T10:27:41.619Z</time></trkpt><trkpt lat="45.6278718" lon="9.4511496"><ele>218.0</ele><time>2026-03-29T10:27:43.619Z</time></trkpt><trkpt lat="45.6279333" lon="9.4512986"><ele>218.0</ele><time>2026-03-29T10:27:45.619Z</time></trkpt><trkpt lat="45.6279612" lon="9.4513823"><ele>218.0</ele><time>2026-03-29T10:27:46.619Z</time></trkpt><trkpt lat="45.6280376" lon="9.4514952"><ele>218.28571428571428</ele><time>2026-03-29T10:27:48.618Z</time></trkpt><trkpt lat="45.6281239" lon="9.4515082"><ele>218.57142857142858</ele><time>2026-03-29T10:27:51.619Z</time></trkpt><trkpt lat="45.6281958" lon="9.451507"><ele>218.85714285714283</ele><time>2026-03-29T10:27:53.618Z</time></trkpt><trkpt lat="45.6282669" lon="9.4515032"><ele>219.14285714285714</ele><time>2026-03-29T10:27:56.619Z</time></trkpt><trkpt lat="45.6283348" lon="9.4515038"><ele>219.42857142857142</ele><time>2026-03-29T10:27:59.619Z</time></trkpt><trkpt lat="45.6284071" lon="9.4515266"><ele>219.7142857142857</ele><time>2026-03-29T10:28:02.618Z</time></trkpt><trkpt lat="45.6284825" lon="9.4515516"><ele>220.0</ele><time>2026-03-29T10:28:05.619Z</time></trkpt><trkpt lat="45.6285487" lon="9.4515626"><ele>219.99999999999997</ele><time>2026-03-29T10:28:07.619Z</time></trkpt><trkpt lat="45.628618" lon="9.4515837"><ele>220.0</ele><time>2026-03-29T10:28:09.619Z</time></trkpt><trkpt lat="45.6286869" lon="9.451614"><ele>220.0</ele><time>2026-03-29T10:28:11.619Z</time></trkpt><trkpt lat="45.6287529" lon="9.4516291"><ele>220.0</ele><time>2026-03-29T10:28:13.619Z</time></trkpt><trkpt lat="45.6288435" lon="9.4516272"><ele>219.99999999999997</ele><time>2026-03-29T10:28:16.618Z</time></trkpt><trkpt lat="45.6289377" lon="9.4516307"><ele>220.0</ele><time>2026-03-29T10:28:19.619Z</time></trkpt><trkpt lat="45.6290151" lon="9.4516408"><ele>220.66666666666666</ele><time>2026-03-29T10:28:21.619Z</time></trkpt><trkpt lat="45.6290888" lon="9.4516401"><ele>221.33333333333331</ele><time>2026-03-29T10:28:23.619Z</time></trkpt><trkpt lat="45.6291759" lon="9.4516458"><ele>222.0</ele><time>2026-03-29T10:28:25.619Z</time></trkpt><trkpt lat="45.6292481" lon="9.4516617"><ele>222.66666666666669</ele><time>2026-03-29T10:28:27.619Z</time></trkpt><trkpt lat="45.6293268" lon="9.451656"><ele>223.33333333333334</ele><time>2026-03-29T10:28:29.619Z</time></trkpt><trkpt lat="45.6293982" lon="9.4516476"><ele>224.0</ele><time>2026-03-29T10:28:31.619Z</time></trkpt><trkpt lat="45.629475" lon="9.451642"><ele>223.66666666666669</ele><time>2026-03-29T10:28:33.619Z</time></trkpt><trkpt lat="45.6295607" lon="9.451663"><ele>223.33333333333334</ele><time>2026-03-29T10:28:35.619Z</time></trkpt><trkpt lat="45.6296569" lon="9.4517077"><ele>223.0</ele><time>2026-03-29T10:28:37.619Z</time></trkpt><trkpt lat="45.6297331" lon="9.4517496"><ele>222.66666666666669</ele><time>2026-03-29T10:28:39.618Z</time></trkpt><trkpt lat="45.6298112" lon="9.451775"><ele>222.33333333333334</ele><time>2026-03-29T10:28:41.619Z</time></trkpt><trkpt lat="45.6299069" lon="9.4517979"><ele>222.0</ele><time>2026-03-29T10:28:43.619Z</time></trkpt><trkpt lat="45.6299908" lon="9.4518065"><ele>222.0</ele><time>2026-03-29T10:28:46.619Z</time></trkpt><trkpt lat="45.6300752" lon="9.4518294"><ele>222.0</ele><time>2026-03-29T10:28:49.619Z</time></trkpt><trkpt lat="45.6301559" lon="9.4518553"><ele>222.0</ele><time>2026-03-29T10:28:52.618Z</time></trkpt><trkpt lat="45.6302414" lon="9.4518663"><ele>222.0</ele><time>2026-03-29T10:28:55.619Z</time></trkpt><trkpt lat="45.6303034" lon="9.4519131"><ele>222.0</ele><time>2026-03-29T10:28:57.619Z</time></trkpt><trkpt lat="45.6305166" lon="9.4521616"><ele>222.0</ele><time>2026-03-29T10:29:00.619Z</time></trkpt><trkpt lat="45.6305123" lon="9.452266"><ele>222.0</ele><time>2026-03-29T10:29:02.618Z</time></trkpt><trkpt lat="45.6304888" lon="9.4523733"><ele>222.0</ele><time>2026-03-29T10:29:04.619Z</time></trkpt><trkpt lat="45.6305099" lon="9.4524791"><ele>222.0</ele><time>2026-03-29T10:29:06.619Z</time></trkpt><trkpt lat="45.630497" lon="9.4526296"><ele>222.0</ele><time>2026-03-29T10:29:07.619Z</time></trkpt><trkpt lat="45.6305206" lon="9.4527488"><ele>222.0</ele><time>2026-03-29T10:29:08.619Z</time></trkpt><trkpt lat="45.6304843" lon="9.4528227"><ele>222.0</ele><time>2026-03-29T10:29:09.619Z</time></trkpt><trkpt lat="45.6304319" lon="9.4528957"><ele>222.0</ele><time>2026-03-29T10:29:10.619Z</time></trkpt><trkpt lat="45.6304124" lon="9.4530502"><ele>222.0</ele><time>2026-03-29T10:29:12.618Z</time></trkpt><trkpt lat="45.6304024" lon="9.4531532"><ele>222.0</ele><time>2026-03-29T10:29:14.619Z</time></trkpt><trkpt lat="45.6304272" lon="9.4532556"><ele>222.0</ele><time>2026-03-29T10:29:16.619Z</time></trkpt><trkpt lat="45.6304588" lon="9.453379"><ele>222.0</ele><time>2026-03-29T10:29:18.619Z</time></trkpt><trkpt lat="45.6304924" lon="9.4535106"><ele>222.0</ele><time>2026-03-29T10:29:20.619Z</time></trkpt><trkpt lat="45.6305448" lon="9.4536032"><ele>222.0</ele><time>2026-03-29T10:29:22.619Z</time></trkpt><trkpt lat="45.6306116" lon="9.4537071"><ele>222.0</ele><time>2026-03-29T10:29:24.619Z</time></trkpt><trkpt lat="45.6306486" lon="9.4538274"><ele>222.0</ele><time>2026-03-29T10:29:27.619Z</time></trkpt><trkpt lat="45.6306447" lon="9.4539389"><ele>222.0</ele><time>2026-03-29T10:29:29.619Z</time></trkpt><trkpt lat="45.6306211" lon="9.4540582"><ele>222.0</ele><time>2026-03-29T10:29:32.619Z</time></trkpt><trkpt lat="45.6306069" lon="9.4541569"><ele>221.83333333333334</ele><time>2026-03-29T10:29:35.619Z</time></trkpt><trkpt lat="45.6305756" lon="9.4542386"><ele>221.66666666666669</ele><time>2026-03-29T10:29:38.619Z</time></trkpt><trkpt lat="45.63057" lon="9.4543521"><ele>221.5</ele><time>2026-03-29T10:29:41.619Z</time></trkpt><trkpt lat="45.6305675" lon="9.4544793"><ele>221.33333333333334</ele><time>2026-03-29T10:29:44.619Z</time></trkpt><trkpt lat="45.6306042" lon="9.4545637"><ele>221.16666666666669</ele><time>2026-03-29T10:29:46.622Z</time></trkpt><trkpt lat="45.6306716" lon="9.4546197"><ele>221.0</ele><time>2026-03-29T10:29:48.631Z</time></trkpt><trkpt lat="45.6307479" lon="9.4546659"><ele>221.33333333333334</ele><time>2026-03-29T10:29:51.623Z</time></trkpt><trkpt lat="45.6308368" lon="9.4547204"><ele>221.66666666666669</ele><time>2026-03-29T10:29:54.622Z</time></trkpt><trkpt lat="45.6309289" lon="9.4547614"><ele>222.0</ele><time>2026-03-29T10:29:56.623Z</time></trkpt><trkpt lat="45.6309932" lon="9.4547848"><ele>222.33333333333331</ele><time>2026-03-29T10:29:57.623Z</time></trkpt><trkpt lat="45.6310668" lon="9.4548092"><ele>222.66666666666666</ele><time>2026-03-29T10:29:58.623Z</time></trkpt><trkpt lat="45.631129" lon="9.4549182"><ele>223.0</ele><time>2026-03-29T10:30:00.623Z</time></trkpt><trkpt lat="45.6312161" lon="9.4549923"><ele>223.0</ele><time>2026-03-29T10:30:02.623Z</time></trkpt><trkpt lat="45.6312997" lon="9.4550339"><ele>223.0</ele><time>2026-03-29T10:30:04.622Z</time></trkpt><trkpt lat="45.6313776" lon="9.4550815"><ele>223.0</ele><time>2026-03-29T10:30:06.623Z</time></trkpt><trkpt lat="45.6314626" lon="9.4551488"><ele>223.0</ele><time>2026-03-29T10:30:08.623Z</time></trkpt><trkpt lat="45.6315487" lon="9.455214"><ele>223.0</ele><time>2026-03-29T10:30:10.623Z</time></trkpt><trkpt lat="45.6316347" lon="9.4552651"><ele>222.99999999999997</ele><time>2026-03-29T10:30:12.623Z</time></trkpt><trkpt lat="45.6317313" lon="9.4552831"><ele>223.0</ele><time>2026-03-29T10:30:14.623Z</time></trkpt><trkpt lat="45.6318186" lon="9.45532"><ele>223.0</ele><time>2026-03-29T10:30:16.623Z</time></trkpt><trkpt lat="45.6318698" lon="9.4553861"><ele>223.0</ele><time>2026-03-29T10:30:17.623Z</time></trkpt><trkpt lat="45.6319048" lon="9.4554676"><ele>222.99999999999997</ele><time>2026-03-29T10:30:19.623Z</time></trkpt><trkpt lat="45.6319141" lon="9.455584"><ele>223.0</ele><time>2026-03-29T10:30:21.623Z</time></trkpt><trkpt lat="45.631969" lon="9.4556647"><ele>223.33333333333331</ele><time>2026-03-29T10:30:23.623Z</time></trkpt><trkpt lat="45.632035" lon="9.4556859"><ele>223.66666666666666</ele><time>2026-03-29T10:30:25.623Z</time></trkpt><trkpt lat="45.6321063" lon="9.4557198"><ele>224.0</ele><time>2026-03-29T10:30:27.623Z</time></trkpt><trkpt lat="45.6321869" lon="9.4557482"><ele>224.33333333333331</ele><time>2026-03-29T10:30:29.623Z</time></trkpt><trkpt lat="45.6322647" lon="9.4557942"><ele>224.66666666666666</ele><time>2026-03-29T10:30:31.623Z</time></trkpt><trkpt lat="45.6323715" lon="9.4558326"><ele>225.0</ele><time>2026-03-29T10:30:33.623Z</time></trkpt><trkpt lat="45.6324649" lon="9.4558436"><ele>225.0</ele><time>2026-03-29T10:30:35.623Z</time></trkpt><trkpt lat="45.6325513" lon="9.4558604"><ele>225.0</ele><time>2026-03-29T10:30:37.623Z</time></trkpt><trkpt lat="45.6326512" lon="9.4558951"><ele>225.0</ele><time>2026-03-29T10:30:39.623Z</time></trkpt><trkpt lat="45.6327484" lon="9.4559323"><ele>225.0</ele><time>2026-03-29T10:30:41.623Z</time></trkpt><trkpt lat="45.6328414" lon="9.4559696"><ele>225.0</ele><time>2026-03-29T10:30:43.623Z</time></trkpt><trkpt lat="45.6329305" lon="9.4560188"><ele>224.8</ele><time>2026-03-29T10:30:45.623Z</time></trkpt><trkpt lat="45.6330141" lon="9.4560759"><ele>224.6</ele><time>2026-03-29T10:30:47.623Z</time></trkpt><trkpt lat="45.6330954" lon="9.4561382"><ele>224.39999999999998</ele><time>2026-03-29T10:30:49.623Z</time></trkpt><trkpt lat="45.6331815" lon="9.4562024"><ele>224.2</ele><time>2026-03-29T10:30:51.623Z</time></trkpt><trkpt lat="45.6332591" lon="9.4562691"><ele>224.0</ele><time>2026-03-29T10:30:53.623Z</time></trkpt><trkpt lat="45.6333318" lon="9.4563447"><ele>224.39999999999998</ele><time>2026-03-29T10:30:55.623Z</time></trkpt><trkpt lat="45.6334153" lon="9.4564204"><ele>224.79999999999998</ele><time>2026-03-29T10:30:57.623Z</time></trkpt><trkpt lat="45.6334922" lon="9.4564999"><ele>225.20000000000002</ele><time>2026-03-29T10:30:59.623Z</time></trkpt><trkpt lat="45.633576" lon="9.4565536"><ele>225.60000000000002</ele><time>2026-03-29T10:31:01.623Z</time></trkpt><trkpt lat="45.6336605" lon="9.4566231"><ele>226.0</ele><time>2026-03-29T10:31:03.623Z</time></trkpt><trkpt lat="45.6337416" lon="9.4566941"><ele>226.4</ele><time>2026-03-29T10:31:05.622Z</time></trkpt><trkpt lat="45.6338224" lon="9.4567615"><ele>226.8</ele><time>2026-03-29T10:31:07.623Z</time></trkpt><trkpt lat="45.633904" lon="9.4568186"><ele>227.20000000000002</ele><time>2026-03-29T10:31:09.623Z</time></trkpt><trkpt lat="45.6339903" lon="9.456879"><ele>227.60000000000002</ele><time>2026-03-29T10:31:11.623Z</time></trkpt><trkpt lat="45.6340804" lon="9.4569425"><ele>228.0</ele><time>2026-03-29T10:31:13.623Z</time></trkpt><trkpt lat="45.6341644" lon="9.4570064"><ele>228.0</ele><time>2026-03-29T10:31:15.623Z</time></trkpt><trkpt lat="45.6342486" lon="9.4570775"><ele>228.0</ele><time>2026-03-29T10:31:17.623Z</time></trkpt><trkpt lat="45.6343348" lon="9.4571438"><ele>228.0</ele><time>2026-03-29T10:31:19.623Z</time></trkpt><trkpt lat="45.6344168" lon="9.457196"><ele>228.0</ele><time>2026-03-29T10:31:21.623Z</time></trkpt><trkpt lat="45.6344866" lon="9.4572439"><ele>228.0</ele><time>2026-03-29T10:31:23.623Z</time></trkpt><trkpt lat="45.6345613" lon="9.4572982"><ele>228.0</ele><time>2026-03-29T10:31:25.623Z</time></trkpt><trkpt lat="45.6346468" lon="9.4573342"><ele>228.16666666666666</ele><time>2026-03-29T10:31:27.623Z</time></trkpt><trkpt lat="45.6347076" lon="9.4573723"><ele>228.33333333333331</ele><time>2026-03-29T10:31:29.623Z</time></trkpt><trkpt lat="45.6347055" lon="9.4574697"><ele>228.5</ele><time>2026-03-29T10:31:33.623Z</time></trkpt><trkpt lat="45.634677" lon="9.4575717"><ele>228.66666666666666</ele><time>2026-03-29T10:31:35.623Z</time></trkpt><trkpt lat="45.6346419" lon="9.457735"><ele>228.83333333333331</ele><time>2026-03-29T10:31:37.623Z</time></trkpt><trkpt lat="45.634624" lon="9.4578734"><ele>229.0</ele><time>2026-03-29T10:31:38.623Z</time></trkpt><trkpt lat="45.6345858" lon="9.4580138"><ele>228.6</ele><time>2026-03-29T10:31:40.623Z</time></trkpt><trkpt lat="45.6345445" lon="9.4581565"><ele>228.2</ele><time>2026-03-29T10:31:42.623Z</time></trkpt><trkpt lat="45.6345098" lon="9.4583106"><ele>227.79999999999998</ele><time>2026-03-29T10:31:44.623Z</time></trkpt><trkpt lat="45.6344656" lon="9.4584588"><ele>227.39999999999998</ele><time>2026-03-29T10:31:46.623Z</time></trkpt><trkpt lat="45.6344217" lon="9.4586025"><ele>227.0</ele><time>2026-03-29T10:31:48.623Z</time></trkpt><trkpt lat="45.6343768" lon="9.4587452"><ele>226.8</ele><time>2026-03-29T10:31:50.623Z</time></trkpt><trkpt lat="45.6343058" lon="9.4589081"><ele>226.6</ele><time>2026-03-29T10:31:52.623Z</time></trkpt><trkpt lat="45.6342808" lon="9.4590608"><ele>226.40000000000003</ele><time>2026-03-29T10:31:54.623Z</time></trkpt><trkpt lat="45.6342628" lon="9.4592099"><ele>226.20000000000002</ele><time>2026-03-29T10:31:56.623Z</time></trkpt><trkpt lat="45.6342286" lon="9.45934"><ele>226.0</ele><time>2026-03-29T10:31:58.623Z</time></trkpt><trkpt lat="45.6341868" lon="9.4594879"><ele>226.25</ele><time>2026-03-29T10:32:00.623Z</time></trkpt><trkpt lat="45.6341487" lon="9.4596416"><ele>226.5</ele><time>2026-03-29T10:32:02.623Z</time></trkpt><trkpt lat="45.6341032" lon="9.4598016"><ele>226.75</ele><time>2026-03-29T10:32:04.623Z</time></trkpt><trkpt lat="45.6340678" lon="9.4599569"><ele>227.0</ele><time>2026-03-29T10:32:06.623Z</time></trkpt><trkpt lat="45.6340242" lon="9.4601072"><ele>227.0</ele><time>2026-03-29T10:32:08.622Z</time></trkpt><trkpt lat="45.633999" lon="9.4601927"><ele>227.0</ele><time>2026-03-29T10:32:09.623Z</time></trkpt><trkpt lat="45.6339648" lon="9.4603444"><ele>227.0</ele><time>2026-03-29T10:32:11.623Z</time></trkpt><trkpt lat="45.6339441" lon="9.460433"><ele>227.0</ele><time>2026-03-29T10:32:12.623Z</time></trkpt><trkpt lat="45.6339078" lon="9.4605877"><ele>227.0</ele><time>2026-03-29T10:32:14.623Z</time></trkpt><trkpt lat="45.6338618" lon="9.4607319"><ele>227.0</ele><time>2026-03-29T10:32:16.623Z</time></trkpt><trkpt lat="45.6338156" lon="9.460892"><ele>227.0</ele><time>2026-03-29T10:32:18.623Z</time></trkpt><trkpt lat="45.6337646" lon="9.4610456"><ele>227.0</ele><time>2026-03-29T10:32:20.623Z</time></trkpt><trkpt lat="45.6337215" lon="9.4611206"><ele>227.0</ele><time>2026-03-29T10:32:21.623Z</time></trkpt><trkpt lat="45.633644" lon="9.4612437"><ele>227.0</ele><time>2026-03-29T10:32:23.623Z</time></trkpt><trkpt lat="45.6335754" lon="9.4613769"><ele>226.83333333333334</ele><time>2026-03-29T10:32:25.623Z</time></trkpt><trkpt lat="45.6335278" lon="9.4614452"><ele>226.66666666666669</ele><time>2026-03-29T10:32:26.623Z</time></trkpt><trkpt lat="45.6334927" lon="9.461526"><ele>226.5</ele><time>2026-03-29T10:32:27.623Z</time></trkpt><trkpt lat="45.6334657" lon="9.4616099"><ele>226.33333333333331</ele><time>2026-03-29T10:32:28.623Z</time></trkpt><trkpt lat="45.6334577" lon="9.4617843"><ele>226.16666666666666</ele><time>2026-03-29T10:32:30.623Z</time></trkpt><trkpt lat="45.6334654" lon="9.4618738"><ele>226.0</ele><time>2026-03-29T10:32:31.623Z</time></trkpt><trkpt lat="45.6334615" lon="9.4619707"><ele>226.20000000000002</ele><time>2026-03-29T10:32:32.623Z</time></trkpt><trkpt lat="45.6334622" lon="9.4621414"><ele>226.40000000000003</ele><time>2026-03-29T10:32:34.623Z</time></trkpt><trkpt lat="45.6334445" lon="9.4622363"><ele>226.6</ele><time>2026-03-29T10:32:35.623Z</time></trkpt><trkpt lat="45.6334156" lon="9.4623999"><ele>226.8</ele><time>2026-03-29T10:32:37.622Z</time></trkpt><trkpt lat="45.6333717" lon="9.4625659"><ele>227.0</ele><time>2026-03-29T10:32:39.623Z</time></trkpt><trkpt lat="45.6333358" lon="9.462722"><ele>227.00000000000003</ele><time>2026-03-29T10:32:41.622Z</time></trkpt><trkpt lat="45.6333088" lon="9.4628119"><ele>227.0</ele><time>2026-03-29T10:32:42.622Z</time></trkpt><trkpt lat="45.6332899" lon="9.4629072"><ele>227.0</ele><time>2026-03-29T10:32:43.623Z</time></trkpt><trkpt lat="45.6332694" lon="9.4630012"><ele>227.0</ele><time>2026-03-29T10:32:44.622Z</time></trkpt><trkpt lat="45.6332503" lon="9.4630899"><ele>227.00000000000003</ele><time>2026-03-29T10:32:45.623Z</time></trkpt><trkpt lat="45.6332153" lon="9.4632517"><ele>227.0</ele><time>2026-03-29T10:32:47.623Z</time></trkpt><trkpt lat="45.6331965" lon="9.4633435"><ele>227.33333333333334</ele><time>2026-03-29T10:32:48.623Z</time></trkpt><trkpt lat="45.6331775" lon="9.463432"><ele>227.66666666666669</ele><time>2026-03-29T10:32:49.623Z</time></trkpt><trkpt lat="45.6331554" lon="9.4635191"><ele>228.0</ele><time>2026-03-29T10:32:50.623Z</time></trkpt><trkpt lat="45.6331321" lon="9.4636046"><ele>228.33333333333331</ele><time>2026-03-29T10:32:51.623Z</time></trkpt><trkpt lat="45.6331106" lon="9.4636898"><ele>228.66666666666666</ele><time>2026-03-29T10:32:52.623Z</time></trkpt><trkpt lat="45.6330901" lon="9.463786"><ele>229.0</ele><time>2026-03-29T10:32:53.623Z</time></trkpt><trkpt lat="45.633051" lon="9.4639547"><ele>228.99999999999997</ele><time>2026-03-29T10:32:55.623Z</time></trkpt><trkpt lat="45.6330314" lon="9.4640428"><ele>229.0</ele><time>2026-03-29T10:32:56.623Z</time></trkpt><trkpt lat="45.6329897" lon="9.4642003"><ele>229.0</ele><time>2026-03-29T10:32:58.623Z</time></trkpt><trkpt lat="45.6329444" lon="9.4643591"><ele>229.0</ele><time>2026-03-29T10:33:00.623Z</time></trkpt><trkpt lat="45.632918" lon="9.464448"><ele>228.99999999999997</ele><time>2026-03-29T10:33:01.623Z</time></trkpt><trkpt lat="45.6329017" lon="9.4645366"><ele>229.0</ele><time>2026-03-29T10:33:02.623Z</time></trkpt><trkpt lat="45.6328714" lon="9.4646166"><ele>228.99999999999997</ele><time>2026-03-29T10:33:03.623Z</time></trkpt><trkpt lat="45.6328311" lon="9.4647829"><ele>229.0</ele><time>2026-03-29T10:33:05.623Z</time></trkpt><trkpt lat="45.6328038" lon="9.4648815"><ele>229.0</ele><time>2026-03-29T10:33:06.622Z</time></trkpt><trkpt lat="45.6327856" lon="9.4649711"><ele>229.0</ele><time>2026-03-29T10:33:07.623Z</time></trkpt><trkpt lat="45.6327561" lon="9.465062"><ele>228.99999999999997</ele><time>2026-03-29T10:33:08.623Z</time></trkpt><trkpt lat="45.6327274" lon="9.4651465"><ele>229.0</ele><time>2026-03-29T10:33:09.622Z</time></trkpt><trkpt lat="45.6326773" lon="9.465316"><ele>229.2</ele><time>2026-03-29T10:33:11.622Z</time></trkpt><trkpt lat="45.632628" lon="9.4654849"><ele>229.39999999999998</ele><time>2026-03-29T10:33:13.622Z</time></trkpt><trkpt lat="45.6326018" lon="9.4655723"><ele>229.6</ele><time>2026-03-29T10:33:14.623Z</time></trkpt><trkpt lat="45.6325781" lon="9.465663"><ele>229.8</ele><time>2026-03-29T10:33:15.623Z</time></trkpt><trkpt lat="45.6325535" lon="9.465746"><ele>230.0</ele><time>2026-03-29T10:33:16.622Z</time></trkpt><trkpt lat="45.6325176" lon="9.4659189"><ele>230.00000000000003</ele><time>2026-03-29T10:33:18.623Z</time></trkpt><trkpt lat="45.6324983" lon="9.4660094"><ele>230.0</ele><time>2026-03-29T10:33:19.623Z</time></trkpt><trkpt lat="45.6324657" lon="9.466176"><ele>230.0</ele><time>2026-03-29T10:33:21.623Z</time></trkpt><trkpt lat="45.632425" lon="9.4663504"><ele>230.0</ele><time>2026-03-29T10:33:23.623Z</time></trkpt><trkpt lat="45.6324068" lon="9.4664381"><ele>230.00000000000003</ele><time>2026-03-29T10:33:24.623Z</time></trkpt><trkpt lat="45.632393" lon="9.4665329"><ele>230.0</ele><time>2026-03-29T10:33:25.623Z</time></trkpt><trkpt lat="45.6323619" lon="9.4666259"><ele>229.66666666666669</ele><time>2026-03-29T10:33:26.623Z</time></trkpt><trkpt lat="45.6323375" lon="9.4667157"><ele>229.33333333333334</ele><time>2026-03-29T10:33:27.622Z</time></trkpt><trkpt lat="45.6323156" lon="9.4668121"><ele>229.0</ele><time>2026-03-29T10:33:28.623Z</time></trkpt><trkpt lat="45.6322663" lon="9.4669775"><ele>228.66666666666669</ele><time>2026-03-29T10:33:30.623Z</time></trkpt><trkpt lat="45.6322484" lon="9.4670664"><ele>228.33333333333334</ele><time>2026-03-29T10:33:31.622Z</time></trkpt><trkpt lat="45.6322152" lon="9.4671555"><ele>228.0</ele><time>2026-03-29T10:33:32.623Z</time></trkpt><trkpt lat="45.6321886" lon="9.4672378"><ele>227.7142857142857</ele><time>2026-03-29T10:33:33.623Z</time></trkpt><trkpt lat="45.6321889" lon="9.4673358"><ele>227.4285714285714</ele><time>2026-03-29T10:33:34.623Z</time></trkpt><trkpt lat="45.6321613" lon="9.467428"><ele>227.14285714285714</ele><time>2026-03-29T10:33:35.623Z</time></trkpt><trkpt lat="45.6321265" lon="9.4675143"><ele>226.85714285714283</ele><time>2026-03-29T10:33:36.623Z</time></trkpt><trkpt lat="45.6321057" lon="9.4676103"><ele>226.57142857142856</ele><time>2026-03-29T10:33:37.623Z</time></trkpt><trkpt lat="45.6320786" lon="9.4677046"><ele>226.28571428571428</ele><time>2026-03-29T10:33:38.623Z</time></trkpt><trkpt lat="45.6320485" lon="9.4677871"><ele>226.0</ele><time>2026-03-29T10:33:39.623Z</time></trkpt><trkpt lat="45.6320312" lon="9.4678964"><ele>226.0</ele><time>2026-03-29T10:33:40.623Z</time></trkpt><trkpt lat="45.632002" lon="9.4679931"><ele>226.0</ele><time>2026-03-29T10:33:41.623Z</time></trkpt><trkpt lat="45.6319805" lon="9.4681068"><ele>226.0</ele><time>2026-03-29T10:33:42.623Z</time></trkpt><trkpt lat="45.6319494" lon="9.4681983"><ele>226.0</ele><time>2026-03-29T10:33:43.623Z</time></trkpt><trkpt lat="45.6319138" lon="9.4682928"><ele>226.0</ele><time>2026-03-29T10:33:44.623Z</time></trkpt><trkpt lat="45.6318913" lon="9.4683936"><ele>226.0</ele><time>2026-03-29T10:33:45.623Z</time></trkpt><trkpt lat="45.6318779" lon="9.468492"><ele>226.0</ele><time>2026-03-29T10:33:46.623Z</time></trkpt><trkpt lat="45.6318584" lon="9.4685917"><ele>226.14285714285717</ele><time>2026-03-29T10:33:47.623Z</time></trkpt><trkpt lat="45.6318354" lon="9.4686826"><ele>226.28571428571428</ele><time>2026-03-29T10:33:48.623Z</time></trkpt><trkpt lat="45.631802" lon="9.4687798"><ele>226.42857142857144</ele><time>2026-03-29T10:33:49.623Z</time></trkpt><trkpt lat="45.631776" lon="9.4688735"><ele>226.57142857142858</ele><time>2026-03-29T10:33:50.623Z</time></trkpt><trkpt lat="45.6317509" lon="9.468979"><ele>226.71428571428572</ele><time>2026-03-29T10:33:51.623Z</time></trkpt><trkpt lat="45.6317324" lon="9.4690806"><ele>226.85714285714286</ele><time>2026-03-29T10:33:52.623Z</time></trkpt><trkpt lat="45.6317044" lon="9.469174"><ele>227.0</ele><time>2026-03-29T10:33:53.622Z</time></trkpt><trkpt lat="45.6316747" lon="9.469267"><ele>226.71428571428572</ele><time>2026-03-29T10:33:54.623Z</time></trkpt><trkpt lat="45.6316513" lon="9.4693665"><ele>226.42857142857144</ele><time>2026-03-29T10:33:55.623Z</time></trkpt><trkpt lat="45.6316251" lon="9.4694642"><ele>226.14285714285717</ele><time>2026-03-29T10:33:56.623Z</time></trkpt><trkpt lat="45.6315887" lon="9.4695513"><ele>225.8571428571429</ele><time>2026-03-29T10:33:57.623Z</time></trkpt><trkpt lat="45.6315583" lon="9.4696347"><ele>225.57142857142858</ele><time>2026-03-29T10:33:58.623Z</time></trkpt><trkpt lat="45.6315353" lon="9.4697293"><ele>225.28571428571433</ele><time>2026-03-29T10:33:59.623Z</time></trkpt><trkpt lat="45.6315032" lon="9.4698172"><ele>225.00000000000003</ele><time>2026-03-29T10:34:00.623Z</time></trkpt><trkpt lat="45.6314648" lon="9.4698996"><ele>225.0</ele><time>2026-03-29T10:34:01.623Z</time></trkpt><trkpt lat="45.6314213" lon="9.469991"><ele>225.0</ele><time>2026-03-29T10:34:02.623Z</time></trkpt><trkpt lat="45.6313955" lon="9.4700853"><ele>225.0</ele><time>2026-03-29T10:34:03.623Z</time></trkpt><trkpt lat="45.6313449" lon="9.4702126"><ele>225.0</ele><time>2026-03-29T10:34:05.623Z</time></trkpt><trkpt lat="45.6313039" lon="9.4703211"><ele>225.0</ele><time>2026-03-29T10:34:08.622Z</time></trkpt><trkpt lat="45.6312271" lon="9.470284"><ele>225.0</ele><time>2026-03-29T10:34:10.622Z</time></trkpt><trkpt lat="45.6311391" lon="9.4701982"><ele>224.66666666666666</ele><time>2026-03-29T10:34:12.623Z</time></trkpt><trkpt lat="45.6310786" lon="9.4701592"><ele>224.33333333333331</ele><time>2026-03-29T10:34:13.622Z</time></trkpt><trkpt lat="45.630974" lon="9.4700764"><ele>224.0</ele><time>2026-03-29T10:34:15.623Z</time></trkpt><trkpt lat="45.6308536" lon="9.4700639"><ele>223.66666666666666</ele><time>2026-03-29T10:34:17.623Z</time></trkpt><trkpt lat="45.6307906" lon="9.4700743"><ele>223.33333333333331</ele><time>2026-03-29T10:34:18.622Z</time></trkpt><trkpt lat="45.6307226" lon="9.4700924"><ele>223.0</ele><time>2026-03-29T10:34:19.623Z</time></trkpt><trkpt lat="45.6306169" lon="9.4701579"><ele>223.0</ele><time>2026-03-29T10:34:21.623Z</time></trkpt><trkpt lat="45.6305664" lon="9.4702144"><ele>223.0</ele><time>2026-03-29T10:34:22.623Z</time></trkpt><trkpt lat="45.6304951" lon="9.4703542"><ele>223.0</ele><time>2026-03-29T10:34:24.623Z</time></trkpt><trkpt lat="45.6304723" lon="9.4704487"><ele>223.0</ele><time>2026-03-29T10:34:25.623Z</time></trkpt><trkpt lat="45.630432" lon="9.4705984"><ele>223.0</ele><time>2026-03-29T10:34:27.623Z</time></trkpt><trkpt lat="45.6303861" lon="9.4707393"><ele>222.99999999999997</ele><time>2026-03-29T10:34:29.622Z</time></trkpt><trkpt lat="45.630372" lon="9.47084"><ele>223.0</ele><time>2026-03-29T10:34:30.623Z</time></trkpt><trkpt lat="45.630379" lon="9.4709896"><ele>223.0</ele><time>2026-03-29T10:34:32.623Z</time></trkpt><trkpt lat="45.630369" lon="9.4711501"><ele>223.0</ele><time>2026-03-29T10:34:34.623Z</time></trkpt><trkpt lat="45.6303641" lon="9.4712431"><ele>222.99999999999997</ele><time>2026-03-29T10:34:35.623Z</time></trkpt><trkpt lat="45.6303664" lon="9.4713363"><ele>223.0</ele><time>2026-03-29T10:34:36.623Z</time></trkpt><trkpt lat="45.6303809" lon="9.4715071"><ele>223.2</ele><time>2026-03-29T10:34:38.622Z</time></trkpt><trkpt lat="45.6303818" lon="9.4716141"><ele>223.4</ele><time>2026-03-29T10:34:39.623Z</time></trkpt><trkpt lat="45.6303998" lon="9.4717752"><ele>223.59999999999997</ele><time>2026-03-29T10:34:41.622Z</time></trkpt><trkpt lat="45.6303748" lon="9.4719495"><ele>223.79999999999998</ele><time>2026-03-29T10:34:43.623Z</time></trkpt><trkpt lat="45.6303104" lon="9.4720946"><ele>224.0</ele><time>2026-03-29T10:34:45.623Z</time></trkpt><trkpt lat="45.6302833" lon="9.4722667"><ele>224.0</ele><time>2026-03-29T10:34:47.623Z</time></trkpt><trkpt lat="45.6303139" lon="9.472356"><ele>224.0</ele><time>2026-03-29T10:34:48.622Z</time></trkpt><trkpt lat="45.6303421" lon="9.4724486"><ele>224.0</ele><time>2026-03-29T10:34:49.623Z</time></trkpt><trkpt lat="45.6303852" lon="9.4725213"><ele>224.0</ele><time>2026-03-29T10:34:50.623Z</time></trkpt><trkpt lat="45.6304307" lon="9.4725999"><ele>224.0</ele><time>2026-03-29T10:34:51.623Z</time></trkpt><trkpt lat="45.6304707" lon="9.4726874"><ele>224.0</ele><time>2026-03-29T10:34:52.623Z</time></trkpt><trkpt lat="45.6304964" lon="9.4727748"><ele>224.0</ele><time>2026-03-29T10:34:53.623Z</time></trkpt><trkpt lat="45.630504" lon="9.4728645"><ele>223.79999999999998</ele><time>2026-03-29T10:34:54.623Z</time></trkpt><trkpt lat="45.630431" lon="9.4730102"><ele>223.59999999999997</ele><time>2026-03-29T10:34:56.623Z</time></trkpt><trkpt lat="45.6303465" lon="9.4731291"><ele>223.4</ele><time>2026-03-29T10:34:58.622Z</time></trkpt><trkpt lat="45.6303005" lon="9.4732293"><ele>223.2</ele><time>2026-03-29T10:34:59.623Z</time></trkpt><trkpt lat="45.6302217" lon="9.4733582"><ele>223.0</ele><time>2026-03-29T10:35:01.623Z</time></trkpt><trkpt lat="45.6301803" lon="9.4734282"><ele>223.0</ele><time>2026-03-29T10:35:02.623Z</time></trkpt><trkpt lat="45.6300998" lon="9.4735599"><ele>223.0</ele><time>2026-03-29T10:35:04.623Z</time></trkpt><trkpt lat="45.6300297" lon="9.4736855"><ele>223.0</ele><time>2026-03-29T10:35:06.623Z</time></trkpt><trkpt lat="45.6299527" lon="9.4738242"><ele>223.0</ele><time>2026-03-29T10:35:08.623Z</time></trkpt><trkpt lat="45.6298704" lon="9.4739578"><ele>223.75</ele><time>2026-03-29T10:35:10.623Z</time></trkpt><trkpt lat="45.629804" lon="9.4740864"><ele>224.5</ele><time>2026-03-29T10:35:12.623Z</time></trkpt><trkpt lat="45.6297248" lon="9.4742129"><ele>225.25</ele><time>2026-03-29T10:35:14.623Z</time></trkpt><trkpt lat="45.6296501" lon="9.4743397"><ele>226.0</ele><time>2026-03-29T10:35:16.623Z</time></trkpt><trkpt lat="45.6295716" lon="9.4744618"><ele>225.75</ele><time>2026-03-29T10:35:18.623Z</time></trkpt><trkpt lat="45.6295328" lon="9.4746088"><ele>225.5</ele><time>2026-03-29T10:35:20.623Z</time></trkpt><trkpt lat="45.6294752" lon="9.4747708"><ele>225.25</ele><time>2026-03-29T10:35:22.623Z</time></trkpt><trkpt lat="45.6294367" lon="9.4749255"><ele>225.0</ele><time>2026-03-29T10:35:24.623Z</time></trkpt><trkpt lat="45.6294013" lon="9.4750782"><ele>225.0</ele><time>2026-03-29T10:35:26.623Z</time></trkpt><trkpt lat="45.6293571" lon="9.4752312"><ele>225.0</ele><time>2026-03-29T10:35:28.623Z</time></trkpt><trkpt lat="45.6293386" lon="9.4753219"><ele>225.0</ele><time>2026-03-29T10:35:29.622Z</time></trkpt><trkpt lat="45.6293167" lon="9.4754183"><ele>225.0</ele><time>2026-03-29T10:35:30.623Z</time></trkpt><trkpt lat="45.6292943" lon="9.4755173"><ele>225.0</ele><time>2026-03-29T10:35:31.623Z</time></trkpt><trkpt lat="45.6292541" lon="9.4756966"><ele>225.33333333333334</ele><time>2026-03-29T10:35:33.623Z</time></trkpt><trkpt lat="45.6292157" lon="9.4758787"><ele>225.66666666666669</ele><time>2026-03-29T10:35:35.623Z</time></trkpt><trkpt lat="45.6291896" lon="9.4759791"><ele>226.0</ele><time>2026-03-29T10:35:36.623Z</time></trkpt><trkpt lat="45.629168" lon="9.4760662"><ele>226.33333333333334</ele><time>2026-03-29T10:35:37.623Z</time></trkpt><trkpt lat="45.6291375" lon="9.4761574"><ele>226.66666666666669</ele><time>2026-03-29T10:35:38.623Z</time></trkpt><trkpt lat="45.6291102" lon="9.4762529"><ele>227.0</ele><time>2026-03-29T10:35:39.623Z</time></trkpt><trkpt lat="45.6290845" lon="9.4763519"><ele>227.16666666666669</ele><time>2026-03-29T10:35:40.623Z</time></trkpt><trkpt lat="45.6290386" lon="9.4765302"><ele>227.33333333333334</ele><time>2026-03-29T10:35:42.623Z</time></trkpt><trkpt lat="45.6290078" lon="9.476615"><ele>227.5</ele><time>2026-03-29T10:35:43.623Z</time></trkpt><trkpt lat="45.6289806" lon="9.4767005"><ele>227.66666666666669</ele><time>2026-03-29T10:35:44.623Z</time></trkpt><trkpt lat="45.6289556" lon="9.4768049"><ele>227.83333333333334</ele><time>2026-03-29T10:35:45.623Z</time></trkpt><trkpt lat="45.6289271" lon="9.4768981"><ele>228.0</ele><time>2026-03-29T10:35:46.623Z</time></trkpt><trkpt lat="45.6288936" lon="9.4770043"><ele>228.0</ele><time>2026-03-29T10:35:47.623Z</time></trkpt><trkpt lat="45.6288623" lon="9.477105"><ele>227.99999999999997</ele><time>2026-03-29T10:35:48.623Z</time></trkpt><trkpt lat="45.62883" lon="9.4772105"><ele>228.0</ele><time>2026-03-29T10:35:49.622Z</time></trkpt><trkpt lat="45.6288031" lon="9.4773"><ele>228.0</ele><time>2026-03-29T10:35:50.623Z</time></trkpt><trkpt lat="45.6287791" lon="9.4773982"><ele>227.99999999999997</ele><time>2026-03-29T10:35:51.623Z</time></trkpt><trkpt lat="45.6287482" lon="9.4774873"><ele>228.0</ele><time>2026-03-29T10:35:52.623Z</time></trkpt><trkpt lat="45.6287149" lon="9.477579"><ele>228.0</ele><time>2026-03-29T10:35:53.623Z</time></trkpt><trkpt lat="45.6286804" lon="9.477671"><ele>228.0</ele><time>2026-03-29T10:35:54.623Z</time></trkpt><trkpt lat="45.62865" lon="9.4777635"><ele>227.99999999999997</ele><time>2026-03-29T10:35:55.623Z</time></trkpt><trkpt lat="45.6286175" lon="9.4778486"><ele>228.0</ele><time>2026-03-29T10:35:56.623Z</time></trkpt><trkpt lat="45.6285785" lon="9.4779345"><ele>228.0</ele><time>2026-03-29T10:35:57.623Z</time></trkpt><trkpt lat="45.6285531" lon="9.4780338"><ele>227.99999999999997</ele><time>2026-03-29T10:35:58.623Z</time></trkpt><trkpt lat="45.6285205" lon="9.4781208"><ele>228.0</ele><time>2026-03-29T10:35:59.623Z</time></trkpt><trkpt lat="45.628496" lon="9.4782194"><ele>228.0</ele><time>2026-03-29T10:36:00.623Z</time></trkpt><trkpt lat="45.6284594" lon="9.4783066"><ele>226.7142857142857</ele><time>2026-03-29T10:36:01.623Z</time></trkpt><trkpt lat="45.6284188" lon="9.4783989"><ele>225.4285714285714</ele><time>2026-03-29T10:36:02.623Z</time></trkpt><trkpt lat="45.6283941" lon="9.478498"><ele>224.14285714285714</ele><time>2026-03-29T10:36:03.623Z</time></trkpt><trkpt lat="45.628361" lon="9.4785809"><ele>222.85714285714283</ele><time>2026-03-29T10:36:04.623Z</time></trkpt><trkpt lat="45.6283251" lon="9.4786786"><ele>221.57142857142856</ele><time>2026-03-29T10:36:05.623Z</time></trkpt><trkpt lat="45.628289" lon="9.4787689"><ele>220.28571428571428</ele><time>2026-03-29T10:36:06.623Z</time></trkpt><trkpt lat="45.6282623" lon="9.4788628"><ele>219.0</ele><time>2026-03-29T10:36:07.622Z</time></trkpt><trkpt lat="45.6282212" lon="9.4789552"><ele>219.0</ele><time>2026-03-29T10:36:08.623Z</time></trkpt><trkpt lat="45.6281803" lon="9.4790454"><ele>219.0</ele><time>2026-03-29T10:36:09.623Z</time></trkpt><trkpt lat="45.6281439" lon="9.4791412"><ele>219.0</ele><time>2026-03-29T10:36:10.623Z</time></trkpt><trkpt lat="45.6281127" lon="9.47923"><ele>219.0</ele><time>2026-03-29T10:36:11.622Z</time></trkpt><trkpt lat="45.6280863" lon="9.479317"><ele>219.0</ele><time>2026-03-29T10:36:12.622Z</time></trkpt><trkpt lat="45.6280563" lon="9.4793968"><ele>219.0</ele><time>2026-03-29T10:36:13.623Z</time></trkpt><trkpt lat="45.6280266" lon="9.4794859"><ele>219.0</ele><time>2026-03-29T10:36:14.623Z</time></trkpt><trkpt lat="45.6279909" lon="9.4795664"><ele>219.14285714285714</ele><time>2026-03-29T10:36:15.623Z</time></trkpt><trkpt lat="45.6279605" lon="9.4796535"><ele>219.28571428571428</ele><time>2026-03-29T10:36:16.622Z</time></trkpt><trkpt lat="45.6279356" lon="9.4797386"><ele>219.42857142857142</ele><time>2026-03-29T10:36:17.622Z</time></trkpt><trkpt lat="45.6279073" lon="9.4798379"><ele>219.57142857142856</ele><time>2026-03-29T10:36:18.623Z</time></trkpt><trkpt lat="45.6278806" lon="9.4799239"><ele>219.71428571428572</ele><time>2026-03-29T10:36:19.622Z</time></trkpt><trkpt lat="45.6278503" lon="9.4800177"><ele>219.85714285714283</ele><time>2026-03-29T10:36:20.623Z</time></trkpt><trkpt lat="45.6278211" lon="9.4801101"><ele>220.0</ele><time>2026-03-29T10:36:21.622Z</time></trkpt><trkpt lat="45.6277867" lon="9.4801972"><ele>219.99999999999997</ele><time>2026-03-29T10:36:22.623Z</time></trkpt><trkpt lat="45.6277541" lon="9.4802835"><ele>220.0</ele><time>2026-03-29T10:36:23.623Z</time></trkpt><trkpt lat="45.6277224" lon="9.4803669"><ele>220.0</ele><time>2026-03-29T10:36:24.623Z</time></trkpt><trkpt lat="45.6276887" lon="9.4804619"><ele>220.0</ele><time>2026-03-29T10:36:25.623Z</time></trkpt><trkpt lat="45.6276602" lon="9.4805507"><ele>220.0</ele><time>2026-03-29T10:36:26.623Z</time></trkpt><trkpt lat="45.6276263" lon="9.4806426"><ele>219.99999999999997</ele><time>2026-03-29T10:36:27.623Z</time></trkpt><trkpt lat="45.6275849" lon="9.4807335"><ele>220.0</ele><time>2026-03-29T10:36:28.622Z</time></trkpt><trkpt lat="45.6275503" lon="9.4808235"><ele>219.83333333333331</ele><time>2026-03-29T10:36:29.623Z</time></trkpt><trkpt lat="45.6275124" lon="9.4809149"><ele>219.66666666666666</ele><time>2026-03-29T10:36:30.623Z</time></trkpt><trkpt lat="45.6274798" lon="9.4810026"><ele>219.5</ele><time>2026-03-29T10:36:31.623Z</time></trkpt><trkpt lat="45.6274437" lon="9.4810919"><ele>219.33333333333331</ele><time>2026-03-29T10:36:32.623Z</time></trkpt><trkpt lat="45.6273839" lon="9.4812551"><ele>219.16666666666666</ele><time>2026-03-29T10:36:34.623Z</time></trkpt><trkpt lat="45.6273432" lon="9.4813464"><ele>219.0</ele><time>2026-03-29T10:36:35.623Z</time></trkpt><trkpt lat="45.6273053" lon="9.4814429"><ele>218.83333333333334</ele><time>2026-03-29T10:36:36.623Z</time></trkpt><trkpt lat="45.6272521" lon="9.4816146"><ele>218.66666666666669</ele><time>2026-03-29T10:36:38.622Z</time></trkpt><trkpt lat="45.6272159" lon="9.4817123"><ele>218.5</ele><time>2026-03-29T10:36:39.623Z</time></trkpt><trkpt lat="45.6271875" lon="9.4818064"><ele>218.33333333333334</ele><time>2026-03-29T10:36:40.623Z</time></trkpt><trkpt lat="45.6271568" lon="9.4818948"><ele>218.16666666666669</ele><time>2026-03-29T10:36:41.623Z</time></trkpt><trkpt lat="45.6271361" lon="9.4819838"><ele>218.0</ele><time>2026-03-29T10:36:42.622Z</time></trkpt><trkpt lat="45.6271113" lon="9.4820724"><ele>218.14285714285714</ele><time>2026-03-29T10:36:43.623Z</time></trkpt><trkpt lat="45.6270796" lon="9.4821533"><ele>218.28571428571428</ele><time>2026-03-29T10:36:44.623Z</time></trkpt><trkpt lat="45.6270511" lon="9.4822374"><ele>218.42857142857144</ele><time>2026-03-29T10:36:45.623Z</time></trkpt><trkpt lat="45.6270233" lon="9.4823295"><ele>218.57142857142856</ele><time>2026-03-29T10:36:46.622Z</time></trkpt><trkpt lat="45.6270001" lon="9.48242"><ele>218.7142857142857</ele><time>2026-03-29T10:36:47.622Z</time></trkpt><trkpt lat="45.6269667" lon="9.4825048"><ele>218.85714285714286</ele><time>2026-03-29T10:36:48.623Z</time></trkpt><trkpt lat="45.6269323" lon="9.4825919"><ele>219.0</ele><time>2026-03-29T10:36:49.623Z</time></trkpt><trkpt lat="45.6269018" lon="9.4826808"><ele>219.0</ele><time>2026-03-29T10:36:50.623Z</time></trkpt><trkpt lat="45.6268776" lon="9.4827695"><ele>219.0</ele><time>2026-03-29T10:36:51.623Z</time></trkpt><trkpt lat="45.6268434" lon="9.4828644"><ele>219.0</ele><time>2026-03-29T10:36:52.623Z</time></trkpt><trkpt lat="45.6268126" lon="9.4829553"><ele>219.0</ele><time>2026-03-29T10:36:53.623Z</time></trkpt><trkpt lat="45.6267819" lon="9.4830477"><ele>219.0</ele><time>2026-03-29T10:36:54.623Z</time></trkpt><trkpt lat="45.626742" lon="9.4831468"><ele>219.0</ele><time>2026-03-29T10:36:55.623Z</time></trkpt><trkpt lat="45.6266789" lon="9.4833262"><ele>219.0</ele><time>2026-03-29T10:36:57.623Z</time></trkpt><trkpt lat="45.6266405" lon="9.4834164"><ele>219.0</ele><time>2026-03-29T10:36:58.623Z</time></trkpt><trkpt lat="45.6266176" lon="9.4835106"><ele>219.0</ele><time>2026-03-29T10:36:59.623Z</time></trkpt><trkpt lat="45.6265899" lon="9.4835999"><ele>219.0</ele><time>2026-03-29T10:37:00.623Z</time></trkpt><trkpt lat="45.6265643" lon="9.4836868"><ele>219.0</ele><time>2026-03-29T10:37:01.623Z</time></trkpt><trkpt lat="45.6265338" lon="9.4837863"><ele>219.0</ele><time>2026-03-29T10:37:02.623Z</time></trkpt><trkpt lat="45.6264978" lon="9.4838667"><ele>219.0</ele><time>2026-03-29T10:37:03.623Z</time></trkpt><trkpt lat="45.6264724" lon="9.4839677"><ele>219.0</ele><time>2026-03-29T10:37:04.622Z</time></trkpt><trkpt lat="45.6264332" lon="9.4840572"><ele>219.0</ele><time>2026-03-29T10:37:05.623Z</time></trkpt><trkpt lat="45.626406" lon="9.4841527"><ele>219.0</ele><time>2026-03-29T10:37:06.623Z</time></trkpt><trkpt lat="45.6263766" lon="9.4842462"><ele>219.0</ele><time>2026-03-29T10:37:07.623Z</time></trkpt><trkpt lat="45.6263368" lon="9.4843301"><ele>219.0</ele><time>2026-03-29T10:37:08.623Z</time></trkpt><trkpt lat="45.6263016" lon="9.4844152"><ele>219.0</ele><time>2026-03-29T10:37:09.623Z</time></trkpt><trkpt lat="45.6262633" lon="9.4844975"><ele>219.0</ele><time>2026-03-29T10:37:10.623Z</time></trkpt><trkpt lat="45.6262259" lon="9.484596"><ele>218.85714285714286</ele><time>2026-03-29T10:37:11.623Z</time></trkpt><trkpt lat="45.6261952" lon="9.484691"><ele>218.7142857142857</ele><time>2026-03-29T10:37:12.623Z</time></trkpt><trkpt lat="45.626161" lon="9.4847864"><ele>218.57142857142856</ele><time>2026-03-29T10:37:13.623Z</time></trkpt><trkpt lat="45.6261255" lon="9.4848796"><ele>218.42857142857144</ele><time>2026-03-29T10:37:14.623Z</time></trkpt><trkpt lat="45.6260907" lon="9.4849783"><ele>218.28571428571428</ele><time>2026-03-29T10:37:15.623Z</time></trkpt><trkpt lat="45.6260548" lon="9.4850781"><ele>218.14285714285714</ele><time>2026-03-29T10:37:16.623Z</time></trkpt><trkpt lat="45.6260271" lon="9.4851655"><ele>218.0</ele><time>2026-03-29T10:37:17.623Z</time></trkpt><trkpt lat="45.6259927" lon="9.4852524"><ele>217.85714285714286</ele><time>2026-03-29T10:37:18.622Z</time></trkpt><trkpt lat="45.6259616" lon="9.4853437"><ele>217.71428571428572</ele><time>2026-03-29T10:37:19.623Z</time></trkpt><trkpt lat="45.6259253" lon="9.4854333"><ele>217.57142857142856</ele><time>2026-03-29T10:37:20.623Z</time></trkpt><trkpt lat="45.6258982" lon="9.4855229"><ele>217.42857142857144</ele><time>2026-03-29T10:37:21.623Z</time></trkpt><trkpt lat="45.6258652" lon="9.4856106"><ele>217.28571428571428</ele><time>2026-03-29T10:37:22.623Z</time></trkpt><trkpt lat="45.6258383" lon="9.4856963"><ele>217.14285714285714</ele><time>2026-03-29T10:37:23.623Z</time></trkpt><trkpt lat="45.6258113" lon="9.4857876"><ele>217.0</ele><time>2026-03-29T10:37:24.623Z</time></trkpt><trkpt lat="45.6257742" lon="9.4858724"><ele>217.0</ele><time>2026-03-29T10:37:25.623Z</time></trkpt><trkpt lat="45.6257438" lon="9.4859633"><ele>217.0</ele><time>2026-03-29T10:37:26.623Z</time></trkpt><trkpt lat="45.6257164" lon="9.4860529"><ele>217.0</ele><time>2026-03-29T10:37:27.623Z</time></trkpt><trkpt lat="45.625685" lon="9.4861394"><ele>217.0</ele><time>2026-03-29T10:37:28.623Z</time></trkpt><trkpt lat="45.6256527" lon="9.486225"><ele>217.0</ele><time>2026-03-29T10:37:29.623Z</time></trkpt><trkpt lat="45.6256269" lon="9.4863173"><ele>217.0</ele><time>2026-03-29T10:37:30.623Z</time></trkpt><trkpt lat="45.6255942" lon="9.4864139"><ele>217.0</ele><time>2026-03-29T10:37:31.623Z</time></trkpt><trkpt lat="45.6255609" lon="9.4865041"><ele>216.85714285714286</ele><time>2026-03-29T10:37:32.623Z</time></trkpt><trkpt lat="45.625527" lon="9.4865844"><ele>216.71428571428572</ele><time>2026-03-29T10:37:33.623Z</time></trkpt><trkpt lat="45.6254869" lon="9.48667"><ele>216.57142857142856</ele><time>2026-03-29T10:37:34.623Z</time></trkpt><trkpt lat="45.6254455" lon="9.4867613"><ele>216.42857142857144</ele><time>2026-03-29T10:37:35.623Z</time></trkpt><trkpt lat="45.6254059" lon="9.4868398"><ele>216.28571428571428</ele><time>2026-03-29T10:37:36.622Z</time></trkpt><trkpt lat="45.6253659" lon="9.4869181"><ele>216.14285714285714</ele><time>2026-03-29T10:37:37.623Z</time></trkpt><trkpt lat="45.6253322" lon="9.4870034"><ele>216.0</ele><time>2026-03-29T10:37:38.623Z</time></trkpt><trkpt lat="45.6252894" lon="9.4870798"><ele>215.85714285714286</ele><time>2026-03-29T10:37:39.623Z</time></trkpt><trkpt lat="45.6252401" lon="9.4871599"><ele>215.71428571428572</ele><time>2026-03-29T10:37:40.622Z</time></trkpt><trkpt lat="45.6252019" lon="9.4872433"><ele>215.57142857142856</ele><time>2026-03-29T10:37:41.623Z</time></trkpt><trkpt lat="45.6251603" lon="9.487327"><ele>215.42857142857144</ele><time>2026-03-29T10:37:42.623Z</time></trkpt><trkpt lat="45.6251102" lon="9.4874135"><ele>215.2857142857143</ele><time>2026-03-29T10:37:43.623Z</time></trkpt><trkpt lat="45.625072" lon="9.4874937"><ele>215.14285714285714</ele><time>2026-03-29T10:37:44.623Z</time></trkpt><trkpt lat="45.6250269" lon="9.4875789"><ele>215.0</ele><time>2026-03-29T10:37:45.623Z</time></trkpt><trkpt lat="45.6249904" lon="9.487664"><ele>215.0</ele><time>2026-03-29T10:37:46.622Z</time></trkpt><trkpt lat="45.6249568" lon="9.4877525"><ele>215.0</ele><time>2026-03-29T10:37:47.623Z</time></trkpt><trkpt lat="45.6249185" lon="9.4878359"><ele>215.0</ele><time>2026-03-29T10:37:48.623Z</time></trkpt><trkpt lat="45.6248875" lon="9.4879234"><ele>215.0</ele><time>2026-03-29T10:37:49.623Z</time></trkpt><trkpt lat="45.6248554" lon="9.4880149"><ele>215.0</ele><time>2026-03-29T10:37:50.623Z</time></trkpt><trkpt lat="45.6248235" lon="9.4881046"><ele>215.0</ele><time>2026-03-29T10:37:51.623Z</time></trkpt><trkpt lat="45.6247858" lon="9.4882026"><ele>215.0</ele><time>2026-03-29T10:37:52.622Z</time></trkpt><trkpt lat="45.6247527" lon="9.4882803"><ele>215.0</ele><time>2026-03-29T10:37:53.623Z</time></trkpt><trkpt lat="45.6247189" lon="9.4883667"><ele>215.0</ele><time>2026-03-29T10:37:54.623Z</time></trkpt><trkpt lat="45.6246628" lon="9.4885335"><ele>215.0</ele><time>2026-03-29T10:37:56.623Z</time></trkpt><trkpt lat="45.6246302" lon="9.4886179"><ele>215.0</ele><time>2026-03-29T10:37:57.623Z</time></trkpt><trkpt lat="45.6245807" lon="9.4887611"><ele>215.0</ele><time>2026-03-29T10:37:59.623Z</time></trkpt><trkpt lat="45.6245402" lon="9.4888784"><ele>215.0</ele><time>2026-03-29T10:38:01.623Z</time></trkpt><trkpt lat="45.6245409" lon="9.4889947"><ele>215.0</ele><time>2026-03-29T10:38:03.623Z</time></trkpt><trkpt lat="45.6246183" lon="9.4891003"><ele>215.0</ele><time>2026-03-29T10:38:05.623Z</time></trkpt><trkpt lat="45.6247174" lon="9.4891678"><ele>215.0</ele><time>2026-03-29T10:38:07.623Z</time></trkpt><trkpt lat="45.6248169" lon="9.4892113"><ele>215.0</ele><time>2026-03-29T10:38:09.623Z</time></trkpt><trkpt lat="45.6248725" lon="9.4892561"><ele>215.0</ele><time>2026-03-29T10:38:10.623Z</time></trkpt><trkpt lat="45.6249732" lon="9.4893267"><ele>215.0</ele><time>2026-03-29T10:38:12.623Z</time></trkpt><trkpt lat="45.6250805" lon="9.4894004"><ele>215.0</ele><time>2026-03-29T10:38:14.623Z</time></trkpt><trkpt lat="45.6251853" lon="9.4894836"><ele>215.0</ele><time>2026-03-29T10:38:16.623Z</time></trkpt><trkpt lat="45.6252968" lon="9.4895504"><ele>216.25</ele><time>2026-03-29T10:38:18.623Z</time></trkpt><trkpt lat="45.6254073" lon="9.4896208"><ele>217.5</ele><time>2026-03-29T10:38:20.623Z</time></trkpt><trkpt lat="45.6255205" lon="9.4896917"><ele>218.75</ele><time>2026-03-29T10:38:22.622Z</time></trkpt><trkpt lat="45.6256273" lon="9.4897678"><ele>220.0</ele><time>2026-03-29T10:38:24.623Z</time></trkpt><trkpt lat="45.6257281" lon="9.4898365"><ele>220.0</ele><time>2026-03-29T10:38:26.623Z</time></trkpt><trkpt lat="45.6258293" lon="9.4899011"><ele>220.0</ele><time>2026-03-29T10:38:28.623Z</time></trkpt><trkpt lat="45.6259331" lon="9.4899682"><ele>220.0</ele><time>2026-03-29T10:38:30.623Z</time></trkpt><trkpt lat="45.6260272" lon="9.4900507"><ele>220.0</ele><time>2026-03-29T10:38:32.623Z</time></trkpt><trkpt lat="45.6260552" lon="9.4901912"><ele>220.0</ele><time>2026-03-29T10:38:34.623Z</time></trkpt><trkpt lat="45.6260308" lon="9.490334"><ele>219.2</ele><time>2026-03-29T10:38:36.623Z</time></trkpt><trkpt lat="45.6259743" lon="9.4904599"><ele>218.4</ele><time>2026-03-29T10:38:38.623Z</time></trkpt><trkpt lat="45.6258998" lon="9.4905762"><ele>217.60000000000002</ele><time>2026-03-29T10:38:40.622Z</time></trkpt><trkpt lat="45.6258279" lon="9.4906664"><ele>216.8</ele><time>2026-03-29T10:38:42.623Z</time></trkpt><trkpt lat="45.6257606" lon="9.4907679"><ele>216.0</ele><time>2026-03-29T10:38:44.623Z</time></trkpt><trkpt lat="45.6256909" lon="9.4908901"><ele>216.0</ele><time>2026-03-29T10:38:46.623Z</time></trkpt><trkpt lat="45.6256204" lon="9.4910019"><ele>216.00000000000003</ele><time>2026-03-29T10:38:48.623Z</time></trkpt><trkpt lat="45.6255541" lon="9.4911084"><ele>216.00000000000003</ele><time>2026-03-29T10:38:50.623Z</time></trkpt><trkpt lat="45.6254879" lon="9.4912162"><ele>216.0</ele><time>2026-03-29T10:38:52.623Z</time></trkpt><trkpt lat="45.625432" lon="9.491335"><ele>216.0</ele><time>2026-03-29T10:38:54.623Z</time></trkpt><trkpt lat="45.6253758" lon="9.4914571"><ele>216.0</ele><time>2026-03-29T10:38:56.623Z</time></trkpt><trkpt lat="45.6253454" lon="9.4915928"><ele>216.00000000000003</ele><time>2026-03-29T10:38:58.623Z</time></trkpt><trkpt lat="45.6253112" lon="9.491714"><ele>216.00000000000003</ele><time>2026-03-29T10:39:00.623Z</time></trkpt><trkpt lat="45.6252645" lon="9.4918318"><ele>216.0</ele><time>2026-03-29T10:39:02.623Z</time></trkpt><trkpt lat="45.6252112" lon="9.4919686"><ele>216.0</ele><time>2026-03-29T10:39:04.622Z</time></trkpt><trkpt lat="45.6251587" lon="9.4921028"><ele>215.83333333333334</ele><time>2026-03-29T10:39:06.623Z</time></trkpt><trkpt lat="45.625107" lon="9.4922306"><ele>215.66666666666669</ele><time>2026-03-29T10:39:08.623Z</time></trkpt><trkpt lat="45.6250616" lon="9.492349"><ele>215.5</ele><time>2026-03-29T10:39:10.623Z</time></trkpt><trkpt lat="45.6250175" lon="9.4924581"><ele>215.33333333333334</ele><time>2026-03-29T10:39:12.623Z</time></trkpt><trkpt lat="45.6250023" lon="9.4925596"><ele>215.16666666666669</ele><time>2026-03-29T10:39:14.623Z</time></trkpt><trkpt lat="45.6250559" lon="9.492642"><ele>215.0</ele><time>2026-03-29T10:39:16.623Z</time></trkpt><trkpt lat="45.6251295" lon="9.4926952"><ele>215.0</ele><time>2026-03-29T10:39:18.623Z</time></trkpt><trkpt lat="45.6252056" lon="9.4927739"><ele>215.0</ele><time>2026-03-29T10:39:20.623Z</time></trkpt><trkpt lat="45.6252922" lon="9.4928703"><ele>215.0</ele><time>2026-03-29T10:39:22.623Z</time></trkpt><trkpt lat="45.6253715" lon="9.4929688"><ele>215.0</ele><time>2026-03-29T10:39:24.623Z</time></trkpt><trkpt lat="45.6254574" lon="9.4930509"><ele>215.0</ele><time>2026-03-29T10:39:26.623Z</time></trkpt><trkpt lat="45.6255367" lon="9.4931476"><ele>215.4</ele><time>2026-03-29T10:39:28.623Z</time></trkpt><trkpt lat="45.6256187" lon="9.4932202"><ele>215.8</ele><time>2026-03-29T10:39:30.622Z</time></trkpt><trkpt lat="45.6256988" lon="9.4933003"><ele>216.2</ele><time>2026-03-29T10:39:32.623Z</time></trkpt><trkpt lat="45.6257846" lon="9.493377"><ele>216.6</ele><time>2026-03-29T10:39:34.623Z</time></trkpt><trkpt lat="45.6258552" lon="9.4934669"><ele>217.0</ele><time>2026-03-29T10:39:36.623Z</time></trkpt><trkpt lat="45.6259261" lon="9.4935653"><ele>217.0</ele><time>2026-03-29T10:39:38.623Z</time></trkpt><trkpt lat="45.6259968" lon="9.4936579"><ele>217.0</ele><time>2026-03-29T10:39:40.623Z</time></trkpt><trkpt lat="45.6260695" lon="9.4937538"><ele>217.0</ele><time>2026-03-29T10:39:42.623Z</time></trkpt><trkpt lat="45.6261396" lon="9.4938408"><ele>217.0</ele><time>2026-03-29T10:39:44.623Z</time></trkpt><trkpt lat="45.6262163" lon="9.4939376"><ele>217.0</ele><time>2026-03-29T10:39:46.623Z</time></trkpt><trkpt lat="45.6263011" lon="9.4940357"><ele>217.2</ele><time>2026-03-29T10:39:48.623Z</time></trkpt><trkpt lat="45.6263767" lon="9.4941338"><ele>217.39999999999998</ele><time>2026-03-29T10:39:50.623Z</time></trkpt><trkpt lat="45.6264601" lon="9.4942234"><ele>217.60000000000002</ele><time>2026-03-29T10:39:52.623Z</time></trkpt><trkpt lat="45.6265479" lon="9.4943225"><ele>217.8</ele><time>2026-03-29T10:39:54.623Z</time></trkpt><trkpt lat="45.6266301" lon="9.4944216"><ele>218.0</ele><time>2026-03-29T10:39:56.623Z</time></trkpt><trkpt lat="45.6267054" lon="9.4945299"><ele>217.8</ele><time>2026-03-29T10:39:58.623Z</time></trkpt><trkpt lat="45.6267635" lon="9.4946537"><ele>217.60000000000002</ele><time>2026-03-29T10:40:00.623Z</time></trkpt><trkpt lat="45.6268039" lon="9.4947794"><ele>217.39999999999998</ele><time>2026-03-29T10:40:02.622Z</time></trkpt><trkpt lat="45.6267973" lon="9.4949184"><ele>217.2</ele><time>2026-03-29T10:40:04.622Z</time></trkpt><trkpt lat="45.6267561" lon="9.4950457"><ele>217.0</ele><time>2026-03-29T10:40:06.623Z</time></trkpt><trkpt lat="45.6266991" lon="9.4951751"><ele>217.0</ele><time>2026-03-29T10:40:08.623Z</time></trkpt><trkpt lat="45.626638" lon="9.4953059"><ele>217.0</ele><time>2026-03-29T10:40:10.623Z</time></trkpt><trkpt lat="45.6265698" lon="9.495444"><ele>217.0</ele><time>2026-03-29T10:40:12.623Z</time></trkpt><trkpt lat="45.6265145" lon="9.4955744"><ele>217.0</ele><time>2026-03-29T10:40:14.623Z</time></trkpt><trkpt lat="45.6264586" lon="9.4957042"><ele>217.0</ele><time>2026-03-29T10:40:16.623Z</time></trkpt><trkpt lat="45.6263975" lon="9.4958447"><ele>216.8</ele><time>2026-03-29T10:40:18.623Z</time></trkpt><trkpt lat="45.6263343" lon="9.4959889"><ele>216.6</ele><time>2026-03-29T10:40:20.623Z</time></trkpt><trkpt lat="45.6262846" lon="9.4961241"><ele>216.40000000000003</ele><time>2026-03-29T10:40:22.623Z</time></trkpt><trkpt lat="45.6262237" lon="9.4962542"><ele>216.20000000000002</ele><time>2026-03-29T10:40:24.623Z</time></trkpt><trkpt lat="45.626175" lon="9.4963883"><ele>216.0</ele><time>2026-03-29T10:40:26.623Z</time></trkpt><trkpt lat="45.6261231" lon="9.4965139"><ele>216.0</ele><time>2026-03-29T10:40:28.623Z</time></trkpt><trkpt lat="45.626077" lon="9.4965755"><ele>216.00000000000003</ele><time>2026-03-29T10:40:29.622Z</time></trkpt><trkpt lat="45.6259965" lon="9.4966745"><ele>216.00000000000003</ele><time>2026-03-29T10:40:31.623Z</time></trkpt><trkpt lat="45.6259078" lon="9.4967581"><ele>216.0</ele><time>2026-03-29T10:40:33.622Z</time></trkpt><trkpt lat="45.6258212" lon="9.4968444"><ele>216.0</ele><time>2026-03-29T10:40:35.623Z</time></trkpt><trkpt lat="45.6257346" lon="9.4969083"><ele>216.0</ele><time>2026-03-29T10:40:37.623Z</time></trkpt><trkpt lat="45.6256532" lon="9.4969893"><ele>216.00000000000003</ele><time>2026-03-29T10:40:39.623Z</time></trkpt><trkpt lat="45.6255838" lon="9.4970914"><ele>216.00000000000003</ele><time>2026-03-29T10:40:41.622Z</time></trkpt><trkpt lat="45.6255102" lon="9.4971912"><ele>216.0</ele><time>2026-03-29T10:40:43.623Z</time></trkpt><trkpt lat="45.6254339" lon="9.4972802"><ele>216.0</ele><time>2026-03-29T10:40:45.623Z</time></trkpt><trkpt lat="45.6253654" lon="9.4973534"><ele>216.4</ele><time>2026-03-29T10:40:47.623Z</time></trkpt><trkpt lat="45.6252931" lon="9.4974271"><ele>216.8</ele><time>2026-03-29T10:40:49.622Z</time></trkpt><trkpt lat="45.6252304" lon="9.4975318"><ele>217.20000000000002</ele><time>2026-03-29T10:40:51.623Z</time></trkpt><trkpt lat="45.6251443" lon="9.4976163"><ele>217.60000000000002</ele><time>2026-03-29T10:40:53.623Z</time></trkpt><trkpt lat="45.6250858" lon="9.497714"><ele>218.0</ele><time>2026-03-29T10:40:55.623Z</time></trkpt><trkpt lat="45.6250051" lon="9.4978045"><ele>218.0</ele><time>2026-03-29T10:40:57.623Z</time></trkpt><trkpt lat="45.6249328" lon="9.4979134"><ele>218.0</ele><time>2026-03-29T10:40:59.622Z</time></trkpt><trkpt lat="45.6248579" lon="9.4980469"><ele>218.0</ele><time>2026-03-29T10:41:01.623Z</time></trkpt><trkpt lat="45.6247839" lon="9.498149"><ele>218.0</ele><time>2026-03-29T10:41:03.623Z</time></trkpt><trkpt lat="45.6247293" lon="9.4982034"><ele>218.0</ele><time>2026-03-29T10:41:04.622Z</time></trkpt><trkpt lat="45.6246492" lon="9.4983205"><ele>218.16666666666669</ele><time>2026-03-29T10:41:06.622Z</time></trkpt><trkpt lat="45.6246074" lon="9.4983886"><ele>218.33333333333334</ele><time>2026-03-29T10:41:07.623Z</time></trkpt><trkpt lat="45.6245597" lon="9.4984532"><ele>218.5</ele><time>2026-03-29T10:41:08.622Z</time></trkpt><trkpt lat="45.6245055" lon="9.498516"><ele>218.66666666666669</ele><time>2026-03-29T10:41:09.622Z</time></trkpt><trkpt lat="45.6244112" lon="9.4986076"><ele>218.83333333333334</ele><time>2026-03-29T10:41:11.623Z</time></trkpt><trkpt lat="45.6243247" lon="9.4987298"><ele>219.0</ele><time>2026-03-29T10:41:13.623Z</time></trkpt><trkpt lat="45.6242712" lon="9.4987869"><ele>218.39999999999998</ele><time>2026-03-29T10:41:14.623Z</time></trkpt><trkpt lat="45.6241977" lon="9.4988686"><ele>217.79999999999998</ele><time>2026-03-29T10:41:16.622Z</time></trkpt><trkpt lat="45.6241146" lon="9.498975"><ele>217.20000000000002</ele><time>2026-03-29T10:41:18.623Z</time></trkpt><trkpt lat="45.6240466" lon="9.4990669"><ele>216.60000000000002</ele><time>2026-03-29T10:41:20.623Z</time></trkpt><trkpt lat="45.6239708" lon="9.4991894"><ele>216.0</ele><time>2026-03-29T10:41:22.623Z</time></trkpt><trkpt lat="45.6239023" lon="9.4992999"><ele>216.0</ele><time>2026-03-29T10:41:24.623Z</time></trkpt><trkpt lat="45.6238309" lon="9.4994155"><ele>216.00000000000003</ele><time>2026-03-29T10:41:26.622Z</time></trkpt><trkpt lat="45.6237528" lon="9.4995433"><ele>216.00000000000003</ele><time>2026-03-29T10:41:28.622Z</time></trkpt><trkpt lat="45.6236966" lon="9.4996682"><ele>216.0</ele><time>2026-03-29T10:41:30.623Z</time></trkpt><trkpt lat="45.6236266" lon="9.4997792"><ele>216.0</ele><time>2026-03-29T10:41:32.623Z</time></trkpt><trkpt lat="45.6235743" lon="9.499841"><ele>216.0</ele><time>2026-03-29T10:41:33.623Z</time></trkpt><trkpt lat="45.6234975" lon="9.4999411"><ele>216.00000000000003</ele><time>2026-03-29T10:41:35.623Z</time></trkpt><trkpt lat="45.6234232" lon="9.500035"><ele>216.00000000000003</ele><time>2026-03-29T10:41:37.623Z</time></trkpt><trkpt lat="45.6233459" lon="9.5001317"><ele>216.0</ele><time>2026-03-29T10:41:39.623Z</time></trkpt><trkpt lat="45.6232618" lon="9.500234"><ele>216.0</ele><time>2026-03-29T10:41:41.622Z</time></trkpt><trkpt lat="45.6231817" lon="9.5003269"><ele>216.0</ele><time>2026-03-29T10:41:43.623Z</time></trkpt><trkpt lat="45.6231224" lon="9.500422"><ele>216.00000000000003</ele><time>2026-03-29T10:41:45.622Z</time></trkpt><trkpt lat="45.6231312" lon="9.5005603"><ele>216.00000000000003</ele><time>2026-03-29T10:41:47.623Z</time></trkpt><trkpt lat="45.6231538" lon="9.5006978"><ele>216.0</ele><time>2026-03-29T10:41:49.623Z</time></trkpt><trkpt lat="45.6231332" lon="9.5008788"><ele>216.0</ele><time>2026-03-29T10:41:51.623Z</time></trkpt><trkpt lat="45.623111" lon="9.500968"><ele>216.0</ele><time>2026-03-29T10:41:52.623Z</time></trkpt><trkpt lat="45.6230731" lon="9.5010724"><ele>216.00000000000003</ele><time>2026-03-29T10:41:54.623Z</time></trkpt><trkpt lat="45.6230255" lon="9.5011883"><ele>216.00000000000003</ele><time>2026-03-29T10:41:56.623Z</time></trkpt><trkpt lat="45.6229567" lon="9.5012898"><ele>216.0</ele><time>2026-03-29T10:41:58.623Z</time></trkpt><trkpt lat="45.6228677" lon="9.5014105"><ele>216.0</ele><time>2026-03-29T10:42:00.622Z</time></trkpt><trkpt lat="45.6227805" lon="9.5015383"><ele>215.60000000000002</ele><time>2026-03-29T10:42:02.622Z</time></trkpt><trkpt lat="45.6227425" lon="9.5016145"><ele>215.20000000000002</ele><time>2026-03-29T10:42:03.622Z</time></trkpt><trkpt lat="45.6226651" lon="9.5017056"><ele>214.79999999999998</ele><time>2026-03-29T10:42:05.622Z</time></trkpt><trkpt lat="45.6225987" lon="9.5018197"><ele>214.39999999999998</ele><time>2026-03-29T10:42:07.622Z</time></trkpt><trkpt lat="45.6225066" lon="9.5019374"><ele>214.0</ele><time>2026-03-29T10:42:09.622Z</time></trkpt><trkpt lat="45.6224608" lon="9.5020008"><ele>213.99999999999997</ele><time>2026-03-29T10:42:10.623Z</time></trkpt><trkpt lat="45.6224148" lon="9.5020713"><ele>214.0</ele><time>2026-03-29T10:42:11.623Z</time></trkpt><trkpt lat="45.6223378" lon="9.5021636"><ele>214.0</ele><time>2026-03-29T10:42:13.623Z</time></trkpt><trkpt lat="45.6222679" lon="9.5022367"><ele>214.0</ele><time>2026-03-29T10:42:14.623Z</time></trkpt><trkpt lat="45.6222111" lon="9.5023204"><ele>213.99999999999997</ele><time>2026-03-29T10:42:16.623Z</time></trkpt><trkpt lat="45.6221849" lon="9.5024347"><ele>214.0</ele><time>2026-03-29T10:42:18.623Z</time></trkpt><trkpt lat="45.6222295" lon="9.5025434"><ele>213.79999999999998</ele><time>2026-03-29T10:42:20.623Z</time></trkpt><trkpt lat="45.6222757" lon="9.5026408"><ele>213.59999999999997</ele><time>2026-03-29T10:42:22.623Z</time></trkpt><trkpt lat="45.6222628" lon="9.5027427"><ele>213.4</ele><time>2026-03-29T10:42:24.623Z</time></trkpt><trkpt lat="45.6222085" lon="9.5028594"><ele>213.2</ele><time>2026-03-29T10:42:26.623Z</time></trkpt><trkpt lat="45.6221383" lon="9.5029757"><ele>213.0</ele><time>2026-03-29T10:42:28.623Z</time></trkpt><trkpt lat="45.622068" lon="9.5030957"><ele>213.0</ele><time>2026-03-29T10:42:30.622Z</time></trkpt><trkpt lat="45.6219854" lon="9.5032325"><ele>213.0</ele><time>2026-03-29T10:42:32.623Z</time></trkpt><trkpt lat="45.6219334" lon="9.5033063"><ele>213.0</ele><time>2026-03-29T10:42:33.623Z</time></trkpt><trkpt lat="45.6218912" lon="9.5033852"><ele>213.0</ele><time>2026-03-29T10:42:34.623Z</time></trkpt><trkpt lat="45.6218339" lon="9.5034381"><ele>213.0</ele><time>2026-03-29T10:42:35.623Z</time></trkpt><trkpt lat="45.6217884" lon="9.5035107"><ele>213.0</ele><time>2026-03-29T10:42:36.623Z</time></trkpt><trkpt lat="45.6217475" lon="9.503581"><ele>213.0</ele><time>2026-03-29T10:42:37.623Z</time></trkpt><trkpt lat="45.6216922" lon="9.5036552"><ele>213.0</ele><time>2026-03-29T10:42:38.622Z</time></trkpt><trkpt lat="45.6216073" lon="9.5037724"><ele>213.0</ele><time>2026-03-29T10:42:40.623Z</time></trkpt><trkpt lat="45.621559" lon="9.5038403"><ele>213.0</ele><time>2026-03-29T10:42:41.622Z</time></trkpt><trkpt lat="45.6215065" lon="9.5039092"><ele>213.0</ele><time>2026-03-29T10:42:42.623Z</time></trkpt><trkpt lat="45.6214636" lon="9.5039795"><ele>213.0</ele><time>2026-03-29T10:42:43.623Z</time></trkpt><trkpt lat="45.6214205" lon="9.5040459"><ele>213.0</ele><time>2026-03-29T10:42:44.623Z</time></trkpt><trkpt lat="45.621367" lon="9.5041186"><ele>213.0</ele><time>2026-03-29T10:42:45.623Z</time></trkpt><trkpt lat="45.6213226" lon="9.5041859"><ele>213.0</ele><time>2026-03-29T10:42:46.623Z</time></trkpt><trkpt lat="45.6212426" lon="9.5043128"><ele>213.0</ele><time>2026-03-29T10:42:48.623Z</time></trkpt><trkpt lat="45.6211774" lon="9.5044449"><ele>213.0</ele><time>2026-03-29T10:42:50.622Z</time></trkpt><trkpt lat="45.6211206" lon="9.5045535"><ele>212.83333333333334</ele><time>2026-03-29T10:42:52.623Z</time></trkpt><trkpt lat="45.6210792" lon="9.5046217"><ele>212.66666666666669</ele><time>2026-03-29T10:42:53.623Z</time></trkpt><trkpt lat="45.6210298" lon="9.5047506"><ele>212.5</ele><time>2026-03-29T10:42:55.622Z</time></trkpt><trkpt lat="45.6210344" lon="9.5048797"><ele>212.33333333333334</ele><time>2026-03-29T10:42:57.623Z</time></trkpt><trkpt lat="45.6210756" lon="9.504958"><ele>212.16666666666669</ele><time>2026-03-29T10:42:58.623Z</time></trkpt><trkpt lat="45.6211343" lon="9.5050763"><ele>212.0</ele><time>2026-03-29T10:43:00.623Z</time></trkpt><trkpt lat="45.6212054" lon="9.5051915"><ele>212.0</ele><time>2026-03-29T10:43:02.623Z</time></trkpt><trkpt lat="45.6212723" lon="9.5053087"><ele>212.0</ele><time>2026-03-29T10:43:04.623Z</time></trkpt><trkpt lat="45.6213081" lon="9.5053836"><ele>212.0</ele><time>2026-03-29T10:43:05.623Z</time></trkpt><trkpt lat="45.6213944" lon="9.5054998"><ele>212.0</ele><time>2026-03-29T10:43:07.623Z</time></trkpt><trkpt lat="45.6214551" lon="9.5056339"><ele>212.0</ele><time>2026-03-29T10:43:09.623Z</time></trkpt><trkpt lat="45.6214457" lon="9.5057481"><ele>212.0</ele><time>2026-03-29T10:43:11.623Z</time></trkpt><trkpt lat="45.6213923" lon="9.5058375"><ele>212.0</ele><time>2026-03-29T10:43:13.623Z</time></trkpt><trkpt lat="45.6213261" lon="9.5059579"><ele>212.0</ele><time>2026-03-29T10:43:15.623Z</time></trkpt><trkpt lat="45.6212625" lon="9.5060657"><ele>212.0</ele><time>2026-03-29T10:43:17.623Z</time></trkpt><trkpt lat="45.6211767" lon="9.50618"><ele>212.0</ele><time>2026-03-29T10:43:19.623Z</time></trkpt><trkpt lat="45.6211027" lon="9.5062705"><ele>211.6</ele><time>2026-03-29T10:43:21.623Z</time></trkpt><trkpt lat="45.6209996" lon="9.5063604"><ele>211.2</ele><time>2026-03-29T10:43:23.623Z</time></trkpt><trkpt lat="45.6209047" lon="9.5064347"><ele>210.8</ele><time>2026-03-29T10:43:25.623Z</time></trkpt><trkpt lat="45.6208172" lon="9.5065203"><ele>210.4</ele><time>2026-03-29T10:43:27.623Z</time></trkpt><trkpt lat="45.6207635" lon="9.5065691"><ele>210.0</ele><time>2026-03-29T10:43:28.623Z</time></trkpt><trkpt lat="45.6206737" lon="9.5066441"><ele>210.0</ele><time>2026-03-29T10:43:30.623Z</time></trkpt><trkpt lat="45.6206126" lon="9.5066813"><ele>210.0</ele><time>2026-03-29T10:43:31.623Z</time></trkpt><trkpt lat="45.6205093" lon="9.50675"><ele>210.0</ele><time>2026-03-29T10:43:33.623Z</time></trkpt><trkpt lat="45.6203922" lon="9.5068203"><ele>210.0</ele><time>2026-03-29T10:43:35.623Z</time></trkpt><trkpt lat="45.6202677" lon="9.5069002"><ele>210.0</ele><time>2026-03-29T10:43:37.623Z</time></trkpt><trkpt lat="45.62016" lon="9.5069805"><ele>209.8</ele><time>2026-03-29T10:43:39.623Z</time></trkpt><trkpt lat="45.6200166" lon="9.5070473"><ele>209.6</ele><time>2026-03-29T10:43:41.623Z</time></trkpt><trkpt lat="45.6199349" lon="9.5070892"><ele>209.39999999999998</ele><time>2026-03-29T10:43:42.622Z</time></trkpt><trkpt lat="45.6198706" lon="9.5071384"><ele>209.2</ele><time>2026-03-29T10:43:43.623Z</time></trkpt><trkpt lat="45.6198019" lon="9.5071706"><ele>209.0</ele><time>2026-03-29T10:43:44.623Z</time></trkpt><trkpt lat="45.6197304" lon="9.5072052"><ele>209.00000000000003</ele><time>2026-03-29T10:43:45.623Z</time></trkpt><trkpt lat="45.6196351" lon="9.5072708"><ele>209.0</ele><time>2026-03-29T10:43:47.622Z</time></trkpt><trkpt lat="45.6195801" lon="9.5073161"><ele>209.0</ele><time>2026-03-29T10:43:48.623Z</time></trkpt><trkpt lat="45.6195131" lon="9.5073639"><ele>209.0</ele><time>2026-03-29T10:43:49.623Z</time></trkpt><trkpt lat="45.6194472" lon="9.507415"><ele>209.00000000000003</ele><time>2026-03-29T10:43:50.623Z</time></trkpt><trkpt lat="45.6193896" lon="9.5074637"><ele>209.0</ele><time>2026-03-29T10:43:51.623Z</time></trkpt><trkpt lat="45.6193377" lon="9.5075193"><ele>208.79999999999998</ele><time>2026-03-29T10:43:52.623Z</time></trkpt><trkpt lat="45.6192309" lon="9.507623"><ele>208.6</ele><time>2026-03-29T10:43:54.623Z</time></trkpt><trkpt lat="45.6191705" lon="9.5076707"><ele>208.4</ele><time>2026-03-29T10:43:55.623Z</time></trkpt><trkpt lat="45.6190996" lon="9.5077324"><ele>208.2</ele><time>2026-03-29T10:43:56.623Z</time></trkpt><trkpt lat="45.6190028" lon="9.5077592"><ele>208.0</ele><time>2026-03-29T10:43:57.622Z</time></trkpt><trkpt lat="45.6189177" lon="9.5078598"><ele>207.49999999999997</ele><time>2026-03-29T10:43:59.623Z</time></trkpt><trkpt lat="45.6188501" lon="9.5079428"><ele>207.0</ele><time>2026-03-29T10:44:00.623Z</time></trkpt><trkpt lat="45.618817" lon="9.5080312"><ele>206.5</ele><time>2026-03-29T10:44:01.623Z</time></trkpt><trkpt lat="45.6187755" lon="9.5081132"><ele>206.0</ele><time>2026-03-29T10:44:02.623Z</time></trkpt><trkpt lat="45.6187301" lon="9.508196"><ele>205.49999999999997</ele><time>2026-03-29T10:44:03.623Z</time></trkpt><trkpt lat="45.6186684" lon="9.5082557"><ele>205.0</ele><time>2026-03-29T10:44:04.622Z</time></trkpt><trkpt lat="45.618546" lon="9.5083831"><ele>204.99999999999997</ele><time>2026-03-29T10:44:06.623Z</time></trkpt><trkpt lat="45.6185073" lon="9.5084619"><ele>205.0</ele><time>2026-03-29T10:44:07.623Z</time></trkpt><trkpt lat="45.6184262" lon="9.5085356"><ele>205.0</ele><time>2026-03-29T10:44:08.622Z</time></trkpt><trkpt lat="45.6183417" lon="9.508608"><ele>205.0</ele><time>2026-03-29T10:44:09.623Z</time></trkpt><trkpt lat="45.6182621" lon="9.5086838"><ele>204.99999999999997</ele><time>2026-03-29T10:44:10.623Z</time></trkpt><trkpt lat="45.6181974" lon="9.5087527"><ele>205.0</ele><time>2026-03-29T10:44:11.623Z</time></trkpt><trkpt lat="45.6181354" lon="9.508833"><ele>204.66666666666666</ele><time>2026-03-29T10:44:12.623Z</time></trkpt><trkpt lat="45.6180734" lon="9.5089083"><ele>204.33333333333331</ele><time>2026-03-29T10:44:13.623Z</time></trkpt><trkpt lat="45.6180171" lon="9.5089731"><ele>204.0</ele><time>2026-03-29T10:44:14.623Z</time></trkpt><trkpt lat="45.6179006" lon="9.5090714"><ele>203.66666666666669</ele><time>2026-03-29T10:44:16.623Z</time></trkpt><trkpt lat="45.6178452" lon="9.5091228"><ele>203.33333333333334</ele><time>2026-03-29T10:44:17.623Z</time></trkpt><trkpt lat="45.6177761" lon="9.5091681"><ele>203.0</ele><time>2026-03-29T10:44:18.623Z</time></trkpt><trkpt lat="45.6176837" lon="9.5092713"><ele>203.0</ele><time>2026-03-29T10:44:20.623Z</time></trkpt><trkpt lat="45.6176079" lon="9.5093334"><ele>203.0</ele><time>2026-03-29T10:44:21.623Z</time></trkpt><trkpt lat="45.6175023" lon="9.5094332"><ele>203.0</ele><time>2026-03-29T10:44:23.622Z</time></trkpt><trkpt lat="45.6174487" lon="9.5094835"><ele>203.0</ele><time>2026-03-29T10:44:24.623Z</time></trkpt><trkpt lat="45.6173564" lon="9.509582"><ele>203.0</ele><time>2026-03-29T10:44:26.623Z</time></trkpt><trkpt lat="45.6172819" lon="9.5096415"><ele>202.50000000000003</ele><time>2026-03-29T10:44:27.623Z</time></trkpt><trkpt lat="45.617228" lon="9.5096922"><ele>202.0</ele><time>2026-03-29T10:44:28.623Z</time></trkpt><trkpt lat="45.6171689" lon="9.509749"><ele>201.5</ele><time>2026-03-29T10:44:29.623Z</time></trkpt><trkpt lat="45.6170774" lon="9.5098173"><ele>201.0</ele><time>2026-03-29T10:44:30.623Z</time></trkpt><trkpt lat="45.6170199" lon="9.5098947"><ele>200.50000000000003</ele><time>2026-03-29T10:44:31.623Z</time></trkpt><trkpt lat="45.6169445" lon="9.5099934"><ele>200.0</ele><time>2026-03-29T10:44:33.623Z</time></trkpt><trkpt lat="45.6168503" lon="9.5100585"><ele>200.0</ele><time>2026-03-29T10:44:34.623Z</time></trkpt><trkpt lat="45.6167465" lon="9.5101744"><ele>200.0</ele><time>2026-03-29T10:44:36.623Z</time></trkpt><trkpt lat="45.616688" lon="9.5102199"><ele>200.0</ele><time>2026-03-29T10:44:37.623Z</time></trkpt><trkpt lat="45.6166006" lon="9.5102355"><ele>200.0</ele><time>2026-03-29T10:44:38.623Z</time></trkpt><trkpt lat="45.6165104" lon="9.5102628"><ele>200.0</ele><time>2026-03-29T10:44:39.623Z</time></trkpt><trkpt lat="45.6163912" lon="9.510304"><ele>200.00000000000003</ele><time>2026-03-29T10:44:41.622Z</time></trkpt><trkpt lat="45.616317" lon="9.5103251"><ele>200.0</ele><time>2026-03-29T10:44:42.622Z</time></trkpt><trkpt lat="45.6162426" lon="9.5103322"><ele>200.0</ele><time>2026-03-29T10:44:43.623Z</time></trkpt><trkpt lat="45.6161608" lon="9.5103537"><ele>200.0</ele><time>2026-03-29T10:44:44.622Z</time></trkpt><trkpt lat="45.6160896" lon="9.5103988"><ele>200.00000000000003</ele><time>2026-03-29T10:44:45.623Z</time></trkpt><trkpt lat="45.6160177" lon="9.5104544"><ele>200.0</ele><time>2026-03-29T10:44:46.623Z</time></trkpt><trkpt lat="45.6159705" lon="9.5105178"><ele>198.6</ele><time>2026-03-29T10:44:47.623Z</time></trkpt><trkpt lat="45.6159269" lon="9.5105891"><ele>197.2</ele><time>2026-03-29T10:44:48.623Z</time></trkpt><trkpt lat="45.6158744" lon="9.5107168"><ele>195.8</ele><time>2026-03-29T10:44:50.622Z</time></trkpt><trkpt lat="45.6158536" lon="9.5108125"><ele>194.4</ele><time>2026-03-29T10:44:51.623Z</time></trkpt><trkpt lat="45.6157825" lon="9.5109749"><ele>193.0</ele><time>2026-03-29T10:44:53.623Z</time></trkpt><trkpt lat="45.6156996" lon="9.5111036"><ele>193.0</ele><time>2026-03-29T10:44:55.622Z</time></trkpt><trkpt lat="45.6156435" lon="9.5111652"><ele>193.0</ele><time>2026-03-29T10:44:56.623Z</time></trkpt><trkpt lat="45.6155537" lon="9.5112771"><ele>193.0</ele><time>2026-03-29T10:44:58.623Z</time></trkpt><trkpt lat="45.6155128" lon="9.5113562"><ele>193.0</ele><time>2026-03-29T10:44:59.623Z</time></trkpt><trkpt lat="45.6154275" lon="9.511493"><ele>193.0</ele><time>2026-03-29T10:45:01.623Z</time></trkpt><trkpt lat="45.6153719" lon="9.5115721"><ele>192.66666666666666</ele><time>2026-03-29T10:45:02.623Z</time></trkpt><trkpt lat="45.615342" lon="9.511688"><ele>192.33333333333331</ele><time>2026-03-29T10:45:03.623Z</time></trkpt><trkpt lat="45.6153159" lon="9.5117788"><ele>192.0</ele><time>2026-03-29T10:45:04.623Z</time></trkpt><trkpt lat="45.6152804" lon="9.5118888"><ele>191.66666666666666</ele><time>2026-03-29T10:45:05.622Z</time></trkpt><trkpt lat="45.6152715" lon="9.5119928"><ele>191.33333333333331</ele><time>2026-03-29T10:45:06.623Z</time></trkpt><trkpt lat="45.6152392" lon="9.5121093"><ele>191.0</ele><time>2026-03-29T10:45:07.623Z</time></trkpt><trkpt lat="45.6152469" lon="9.5122019"><ele>190.4</ele><time>2026-03-29T10:45:08.623Z</time></trkpt><trkpt lat="45.6152225" lon="9.5123251"><ele>189.8</ele><time>2026-03-29T10:45:09.623Z</time></trkpt><trkpt lat="45.6151965" lon="9.5125036"><ele>189.20000000000002</ele><time>2026-03-29T10:45:11.623Z</time></trkpt><trkpt lat="45.6151726" lon="9.5126015"><ele>188.60000000000002</ele><time>2026-03-29T10:45:12.622Z</time></trkpt><trkpt lat="45.6151544" lon="9.5127685"><ele>188.0</ele><time>2026-03-29T10:45:14.623Z</time></trkpt><trkpt lat="45.6151392" lon="9.5128607"><ele>188.0</ele><time>2026-03-29T10:45:15.623Z</time></trkpt><trkpt lat="45.6151205" lon="9.5129739"><ele>188.0</ele><time>2026-03-29T10:45:16.622Z</time></trkpt><trkpt lat="45.6151025" lon="9.513068"><ele>188.0</ele><time>2026-03-29T10:45:17.622Z</time></trkpt><trkpt lat="45.6150877" lon="9.5131616"><ele>188.0</ele><time>2026-03-29T10:45:18.623Z</time></trkpt><trkpt lat="45.6150693" lon="9.5132604"><ele>188.0</ele><time>2026-03-29T10:45:19.623Z</time></trkpt><trkpt lat="45.615056" lon="9.5133542"><ele>188.0</ele><time>2026-03-29T10:45:20.623Z</time></trkpt><trkpt lat="45.6150308" lon="9.5135265"><ele>188.0</ele><time>2026-03-29T10:45:22.623Z</time></trkpt><trkpt lat="45.6150129" lon="9.513691"><ele>188.0</ele><time>2026-03-29T10:45:24.623Z</time></trkpt><trkpt lat="45.6150049" lon="9.5137925"><ele>188.0</ele><time>2026-03-29T10:45:25.623Z</time></trkpt><trkpt lat="45.6149852" lon="9.5138907"><ele>188.0</ele><time>2026-03-29T10:45:26.623Z</time></trkpt><trkpt lat="45.6149653" lon="9.5139785"><ele>188.0</ele><time>2026-03-29T10:45:27.623Z</time></trkpt><trkpt lat="45.6149499" lon="9.5140675"><ele>188.0</ele><time>2026-03-29T10:45:28.623Z</time></trkpt><trkpt lat="45.6149334" lon="9.5141633"><ele>187.2</ele><time>2026-03-29T10:45:29.622Z</time></trkpt><trkpt lat="45.6148825" lon="9.51435"><ele>186.4</ele><time>2026-03-29T10:45:31.623Z</time></trkpt><trkpt lat="45.6148513" lon="9.5144569"><ele>185.6</ele><time>2026-03-29T10:45:32.623Z</time></trkpt><trkpt lat="45.6148221" lon="9.5145499"><ele>184.79999999999998</ele><time>2026-03-29T10:45:33.623Z</time></trkpt><trkpt lat="45.6147825" lon="9.5146514"><ele>184.0</ele><time>2026-03-29T10:45:34.623Z</time></trkpt><trkpt lat="45.6147337" lon="9.514737"><ele>184.5</ele><time>2026-03-29T10:45:35.623Z</time></trkpt><trkpt lat="45.6146793" lon="9.5147949"><ele>185.0</ele><time>2026-03-29T10:45:36.622Z</time></trkpt><trkpt lat="45.6146233" lon="9.5148635"><ele>185.5</ele><time>2026-03-29T10:45:37.623Z</time></trkpt><trkpt lat="45.6145606" lon="9.5149117"><ele>186.0</ele><time>2026-03-29T10:45:38.623Z</time></trkpt><trkpt lat="45.6145047" lon="9.5149736"><ele>186.5</ele><time>2026-03-29T10:45:39.623Z</time></trkpt><trkpt lat="45.6144399" lon="9.5150411"><ele>187.0</ele><time>2026-03-29T10:45:41.623Z</time></trkpt><trkpt lat="45.6145437" lon="9.5150796"><ele>184.2</ele><time>2026-03-29T10:45:46.623Z</time></trkpt><trkpt lat="45.6146395" lon="9.5150145"><ele>181.39999999999998</ele><time>2026-03-29T10:45:48.622Z</time></trkpt><trkpt lat="45.6147237" lon="9.5149244"><ele>178.60000000000002</ele><time>2026-03-29T10:45:50.623Z</time></trkpt><trkpt lat="45.6147959" lon="9.5148219"><ele>175.8</ele><time>2026-03-29T10:45:52.623Z</time></trkpt><trkpt lat="45.6148852" lon="9.5146833"><ele>173.0</ele><time>2026-03-29T10:45:54.623Z</time></trkpt><trkpt lat="45.6149286" lon="9.5146047"><ele>175.75</ele><time>2026-03-29T10:45:55.623Z</time></trkpt><trkpt lat="45.6150019" lon="9.5144206"><ele>178.5</ele><time>2026-03-29T10:45:57.623Z</time></trkpt><trkpt lat="45.615057" lon="9.5142499"><ele>181.25</ele><time>2026-03-29T10:45:59.623Z</time></trkpt><trkpt lat="45.6150613" lon="9.5140256"><ele>184.0</ele><time>2026-03-29T10:46:02.003Z</time></trkpt><trkpt lat="45.6151078" lon="9.5137884"><ele>184.79999999999998</ele><time>2026-03-29T10:46:03.618Z</time></trkpt><trkpt lat="45.6151517" lon="9.5136068"><ele>185.6</ele><time>2026-03-29T10:46:05.616Z</time></trkpt><trkpt lat="45.6152077" lon="9.5134789"><ele>186.4</ele><time>2026-03-29T10:46:06.618Z</time></trkpt><trkpt lat="45.6152519" lon="9.5133728"><ele>187.2</ele><time>2026-03-29T10:46:08.615Z</time></trkpt><trkpt lat="45.6153249" lon="9.5132994"><ele>188.0</ele><time>2026-03-29T10:46:10.615Z</time></trkpt><trkpt lat="45.6153846" lon="9.5132229"><ele>188.0</ele><time>2026-03-29T10:46:11.615Z</time></trkpt><trkpt lat="45.6153348" lon="9.5133259"><ele>188.0</ele><time>2026-03-29T10:46:12.615Z</time></trkpt><trkpt lat="45.615313" lon="9.5134751"><ele>188.0</ele><time>2026-03-29T10:46:14.614Z</time></trkpt><trkpt lat="45.6152969" lon="9.5135687"><ele>188.0</ele><time>2026-03-29T10:46:15.615Z</time></trkpt><trkpt lat="45.6152706" lon="9.5136938"><ele>188.0</ele><time>2026-03-29T10:46:17.615Z</time></trkpt><trkpt lat="45.6152637" lon="9.5137914"><ele>188.0</ele><time>2026-03-29T10:46:19.615Z</time></trkpt><trkpt lat="45.6152594" lon="9.5139236"><ele>187.33333333333331</ele><time>2026-03-29T10:46:21.615Z</time></trkpt><trkpt lat="45.6152629" lon="9.5140193"><ele>186.66666666666666</ele><time>2026-03-29T10:46:22.614Z</time></trkpt><trkpt lat="45.6152705" lon="9.5141979"><ele>186.0</ele><time>2026-03-29T10:46:24.615Z</time></trkpt><trkpt lat="45.6152681" lon="9.5142924"><ele>185.33333333333334</ele><time>2026-03-29T10:46:25.615Z</time></trkpt><trkpt lat="45.6152745" lon="9.514387"><ele>184.66666666666669</ele><time>2026-03-29T10:46:26.615Z</time></trkpt><trkpt lat="45.6152335" lon="9.514495"><ele>184.0</ele><time>2026-03-29T10:46:27.615Z</time></trkpt><trkpt lat="45.6152236" lon="9.5146096"><ele>182.16666666666669</ele><time>2026-03-29T10:46:28.615Z</time></trkpt><trkpt lat="45.6152231" lon="9.5147318"><ele>180.33333333333334</ele><time>2026-03-29T10:46:29.615Z</time></trkpt><trkpt lat="45.6152239" lon="9.5148632"><ele>178.5</ele><time>2026-03-29T10:46:30.615Z</time></trkpt><trkpt lat="45.6152244" lon="9.5149729"><ele>176.66666666666666</ele><time>2026-03-29T10:46:31.615Z</time></trkpt><trkpt lat="45.6152067" lon="9.5150691"><ele>174.83333333333331</ele><time>2026-03-29T10:46:32.615Z</time></trkpt><trkpt lat="45.6152169" lon="9.515188"><ele>173.0</ele><time>2026-03-29T10:46:33.615Z</time></trkpt><trkpt lat="45.615178" lon="9.5153087"><ele>170.5</ele><time>2026-03-29T10:46:34.615Z</time></trkpt><trkpt lat="45.6151454" lon="9.5154128"><ele>168.0</ele><time>2026-03-29T10:46:35.615Z</time></trkpt><trkpt lat="45.6151448" lon="9.5155125"><ele>165.5</ele><time>2026-03-29T10:46:36.615Z</time></trkpt><trkpt lat="45.6151557" lon="9.515681"><ele>163.0</ele><time>2026-03-29T10:46:38.615Z</time></trkpt><trkpt lat="45.6151182" lon="9.5157585"><ele>160.5</ele><time>2026-03-29T10:46:40.615Z</time></trkpt><trkpt lat="45.615032" lon="9.515848"><ele>158.0</ele><time>2026-03-29T10:46:43.615Z</time></trkpt><trkpt lat="45.6149325" lon="9.5158685"><ele>158.0</ele><time>2026-03-29T10:46:45.615Z</time></trkpt><trkpt lat="45.6148079" lon="9.5158915"><ele>158.0</ele><time>2026-03-29T10:46:47.615Z</time></trkpt><trkpt lat="45.6146908" lon="9.5159247"><ele>158.0</ele><time>2026-03-29T10:46:49.615Z</time></trkpt><trkpt lat="45.6145749" lon="9.5159577"><ele>158.0</ele><time>2026-03-29T10:46:51.615Z</time></trkpt><trkpt lat="45.6144588" lon="9.5159914"><ele>161.25</ele><time>2026-03-29T10:46:53.615Z</time></trkpt><trkpt lat="45.6143404" lon="9.5160262"><ele>164.5</ele><time>2026-03-29T10:46:55.615Z</time></trkpt><trkpt lat="45.6142343" lon="9.5160642"><ele>167.75</ele><time>2026-03-29T10:46:57.615Z</time></trkpt><trkpt lat="45.6141194" lon="9.5160952"><ele>171.0</ele><time>2026-03-29T10:46:59.615Z</time></trkpt><trkpt lat="45.6140028" lon="9.5161449"><ele>171.0</ele><time>2026-03-29T10:47:01.615Z</time></trkpt><trkpt lat="45.6139047" lon="9.5162152"><ele>171.0</ele><time>2026-03-29T10:47:03.615Z</time></trkpt><trkpt lat="45.6138023" lon="9.5162743"><ele>171.0</ele><time>2026-03-29T10:47:05.615Z</time></trkpt><trkpt lat="45.6137028" lon="9.5163337"><ele>171.0</ele><time>2026-03-29T10:47:07.615Z</time></trkpt><trkpt lat="45.6135964" lon="9.5164044"><ele>171.0</ele><time>2026-03-29T10:47:09.615Z</time></trkpt><trkpt lat="45.6135227" lon="9.5164669"><ele>169.25</ele><time>2026-03-29T10:47:11.615Z</time></trkpt><trkpt lat="45.6134373" lon="9.5165574"><ele>167.5</ele><time>2026-03-29T10:47:13.615Z</time></trkpt><trkpt lat="45.6133421" lon="9.516642"><ele>165.75</ele><time>2026-03-29T10:47:15.615Z</time></trkpt><trkpt lat="45.6132448" lon="9.5167394"><ele>164.0</ele><time>2026-03-29T10:47:17.614Z</time></trkpt><trkpt lat="45.6131452" lon="9.5168359"><ele>164.0</ele><time>2026-03-29T10:47:19.615Z</time></trkpt><trkpt lat="45.6130621" lon="9.5169248"><ele>164.0</ele><time>2026-03-29T10:47:21.615Z</time></trkpt><trkpt lat="45.6130109" lon="9.5169857"><ele>164.0</ele><time>2026-03-29T10:47:22.615Z</time></trkpt><trkpt lat="45.6129221" lon="9.517051"><ele>164.0</ele><time>2026-03-29T10:47:23.615Z</time></trkpt><trkpt lat="45.6128264" lon="9.5171522"><ele>164.0</ele><time>2026-03-29T10:47:25.615Z</time></trkpt><trkpt lat="45.6127575" lon="9.5172153"><ele>162.33333333333331</ele><time>2026-03-29T10:47:26.615Z</time></trkpt><trkpt lat="45.6127076" lon="9.5172733"><ele>160.66666666666666</ele><time>2026-03-29T10:47:27.615Z</time></trkpt><trkpt lat="45.6126206" lon="9.517385"><ele>159.0</ele><time>2026-03-29T10:47:29.615Z</time></trkpt><trkpt lat="45.6125707" lon="9.5174564"><ele>157.33333333333334</ele><time>2026-03-29T10:47:30.615Z</time></trkpt><trkpt lat="45.6125115" lon="9.5175873"><ele>155.66666666666669</ele><time>2026-03-29T10:47:32.615Z</time></trkpt><trkpt lat="45.6124718" lon="9.5176601"><ele>154.0</ele><time>2026-03-29T10:47:33.615Z</time></trkpt><trkpt lat="45.6123907" lon="9.5177946"><ele>153.0</ele><time>2026-03-29T10:47:35.614Z</time></trkpt><trkpt lat="45.6123397" lon="9.5179463"><ele>152.0</ele><time>2026-03-29T10:47:37.615Z</time></trkpt><trkpt lat="45.6123078" lon="9.5180275"><ele>151.0</ele><time>2026-03-29T10:47:38.615Z</time></trkpt><trkpt lat="45.6122364" lon="9.5181677"><ele>150.0</ele><time>2026-03-29T10:47:40.615Z</time></trkpt><trkpt lat="45.6121803" lon="9.5183162"><ele>149.0</ele><time>2026-03-29T10:47:42.615Z</time></trkpt><trkpt lat="45.6121216" lon="9.5183965"><ele>149.0</ele><time>2026-03-29T10:47:44.615Z</time></trkpt><trkpt lat="45.6120991" lon="9.5185289"><ele>149.0</ele><time>2026-03-29T10:47:47.615Z</time></trkpt><trkpt lat="45.6120927" lon="9.5186503"><ele>149.0</ele><time>2026-03-29T10:47:49.615Z</time></trkpt><trkpt lat="45.6120858" lon="9.5187676"><ele>149.0</ele><time>2026-03-29T10:47:51.615Z</time></trkpt><trkpt lat="45.6120734" lon="9.5188979"><ele>149.0</ele><time>2026-03-29T10:47:53.615Z</time></trkpt><trkpt lat="45.6120418" lon="9.5190446"><ele>149.0</ele><time>2026-03-29T10:47:55.615Z</time></trkpt><trkpt lat="45.6120046" lon="9.5192038"><ele>149.0</ele><time>2026-03-29T10:47:57.615Z</time></trkpt><trkpt lat="45.6119575" lon="9.5193442"><ele>149.0</ele><time>2026-03-29T10:47:59.615Z</time></trkpt><trkpt lat="45.6119189" lon="9.5194886"><ele>149.0</ele><time>2026-03-29T10:48:01.615Z</time></trkpt><trkpt lat="45.6118697" lon="9.5196176"><ele>149.0</ele><time>2026-03-29T10:48:03.615Z</time></trkpt><trkpt lat="45.6118251" lon="9.5197483"><ele>150.83333333333331</ele><time>2026-03-29T10:48:05.614Z</time></trkpt><trkpt lat="45.6117824" lon="9.5198727"><ele>152.66666666666666</ele><time>2026-03-29T10:48:07.614Z</time></trkpt><trkpt lat="45.6117357" lon="9.5199754"><ele>154.5</ele><time>2026-03-29T10:48:09.614Z</time></trkpt><trkpt lat="45.61168" lon="9.5200645"><ele>156.33333333333334</ele><time>2026-03-29T10:48:11.615Z</time></trkpt><trkpt lat="45.6116329" lon="9.5201461"><ele>158.16666666666669</ele><time>2026-03-29T10:48:13.615Z</time></trkpt><trkpt lat="45.6116061" lon="9.5202378"><ele>160.0</ele><time>2026-03-29T10:48:15.615Z</time></trkpt><trkpt lat="45.6115578" lon="9.5203373"><ele>159.33333333333334</ele><time>2026-03-29T10:48:18.615Z</time></trkpt><trkpt lat="45.6115197" lon="9.52041"><ele>158.66666666666669</ele><time>2026-03-29T10:48:20.615Z</time></trkpt><trkpt lat="45.6114664" lon="9.5205109"><ele>158.0</ele><time>2026-03-29T10:48:23.615Z</time></trkpt><trkpt lat="45.6114147" lon="9.5206054"><ele>157.33333333333334</ele><time>2026-03-29T10:48:26.614Z</time></trkpt><trkpt lat="45.611354" lon="9.5206945"><ele>156.66666666666666</ele><time>2026-03-29T10:48:33.616Z</time></trkpt><trkpt lat="45.611317" lon="9.5207879"><ele>156.0</ele><time>2026-03-29T10:48:36.572Z</time></trkpt><trkpt lat="45.6112586" lon="9.5209059"><ele>156.0</ele><time>2026-03-29T10:48:39.531Z</time></trkpt><trkpt lat="45.6112098" lon="9.5209721"><ele>156.0</ele><time>2026-03-29T10:48:41.561Z</time></trkpt><trkpt lat="45.6111505" lon="9.5210148"><ele>156.0</ele><time>2026-03-29T10:48:43.55Z</time></trkpt><trkpt lat="45.6110873" lon="9.5210496"><ele>156.0</ele><time>2026-03-29T10:48:45.549Z</time></trkpt><trkpt lat="45.6110092" lon="9.521095"><ele>156.0</ele><time>2026-03-29T10:48:48.475Z</time></trkpt><trkpt lat="45.6109392" lon="9.5211333"><ele>156.0</ele><time>2026-03-29T10:48:50.472Z</time></trkpt><trkpt lat="45.6108608" lon="9.5211878"><ele>156.0</ele><time>2026-03-29T10:48:53.43Z</time></trkpt><trkpt lat="45.6108191" lon="9.5212605"><ele>159.16666666666666</ele><time>2026-03-29T10:48:55.35Z</time></trkpt><trkpt lat="45.6107917" lon="9.5213514"><ele>162.33333333333334</ele><time>2026-03-29T10:48:57.253Z</time></trkpt><trkpt lat="45.6107603" lon="9.521463"><ele>165.5</ele><time>2026-03-29T10:49:00.153Z</time></trkpt><trkpt lat="45.6107221" lon="9.5215835"><ele>168.66666666666669</ele><time>2026-03-29T10:49:02.99Z</time></trkpt><trkpt lat="45.6106962" lon="9.5217084"><ele>171.83333333333334</ele><time>2026-03-29T10:49:05.832Z</time></trkpt><trkpt lat="45.6106779" lon="9.5218085"><ele>175.0</ele><time>2026-03-29T10:49:08.631Z</time></trkpt><trkpt lat="45.6106617" lon="9.5219356"><ele>175.0</ele><time>2026-03-29T10:49:11.618Z</time></trkpt><trkpt lat="45.6106852" lon="9.5220421"><ele>175.0</ele><time>2026-03-29T10:49:14.556Z</time></trkpt><trkpt lat="45.6107745" lon="9.5221168"><ele>175.0</ele><time>2026-03-29T10:49:16.495Z</time></trkpt><trkpt lat="45.6108603" lon="9.5221286"><ele>175.0</ele><time>2026-03-29T10:49:18.592Z</time></trkpt><trkpt lat="45.6109269" lon="9.5221531"><ele>175.0</ele><time>2026-03-29T10:49:20.571Z</time></trkpt><trkpt lat="45.6109827" lon="9.5222167"><ele>175.0</ele><time>2026-03-29T10:49:22.618Z</time></trkpt><trkpt lat="45.6109867" lon="9.5223349"><ele>175.16666666666669</ele><time>2026-03-29T10:49:24.617Z</time></trkpt><trkpt lat="45.6109785" lon="9.5224394"><ele>175.33333333333334</ele><time>2026-03-29T10:49:26.618Z</time></trkpt><trkpt lat="45.6109848" lon="9.5225501"><ele>175.5</ele><time>2026-03-29T10:49:28.63Z</time></trkpt><trkpt lat="45.6109883" lon="9.522666"><ele>175.66666666666666</ele><time>2026-03-29T10:49:30.618Z</time></trkpt><trkpt lat="45.6109696" lon="9.5227725"><ele>175.83333333333331</ele><time>2026-03-29T10:49:31.617Z</time></trkpt><trkpt lat="45.6110025" lon="9.522891"><ele>176.0</ele><time>2026-03-29T10:49:33.618Z</time></trkpt><trkpt lat="45.611043" lon="9.5229654"><ele>174.4</ele><time>2026-03-29T10:49:35.618Z</time></trkpt><trkpt lat="45.6112253" lon="9.5229266"><ele>172.8</ele><time>2026-03-29T10:49:40.618Z</time></trkpt><trkpt lat="45.6112938" lon="9.5228935"><ele>171.20000000000002</ele><time>2026-03-29T10:49:41.618Z</time></trkpt><trkpt lat="45.6113982" lon="9.5228392"><ele>169.60000000000002</ele><time>2026-03-29T10:49:43.618Z</time></trkpt><trkpt lat="45.6114668" lon="9.5228146"><ele>168.0</ele><time>2026-03-29T10:49:45.618Z</time></trkpt><trkpt lat="45.6113852" lon="9.5228994"><ele>166.4</ele><time>2026-03-29T10:49:50.617Z</time></trkpt><trkpt lat="45.6112783" lon="9.5229528"><ele>164.8</ele><time>2026-03-29T10:49:52.618Z</time></trkpt><trkpt lat="45.6112175" lon="9.522984"><ele>163.2</ele><time>2026-03-29T10:49:53.618Z</time></trkpt><trkpt lat="45.6111074" lon="9.5230338"><ele>161.6</ele><time>2026-03-29T10:49:55.617Z</time></trkpt><trkpt lat="45.6110355" lon="9.5230719"><ele>160.0</ele><time>2026-03-29T10:49:57.618Z</time></trkpt><trkpt lat="45.6111277" lon="9.5230462"><ele>158.83333333333334</ele><time>2026-03-29T10:50:01.618Z</time></trkpt><trkpt lat="45.6112263" lon="9.5230264"><ele>157.66666666666669</ele><time>2026-03-29T10:50:03.617Z</time></trkpt><trkpt lat="45.6113591" lon="9.5229866"><ele>156.5</ele><time>2026-03-29T10:50:05.618Z</time></trkpt><trkpt lat="45.6114259" lon="9.5229572"><ele>155.33333333333334</ele><time>2026-03-29T10:50:06.618Z</time></trkpt><trkpt lat="45.6114942" lon="9.5229247"><ele>154.16666666666666</ele><time>2026-03-29T10:50:07.618Z</time></trkpt><trkpt lat="45.6115648" lon="9.5229062"><ele>153.0</ele><time>2026-03-29T10:50:08.618Z</time></trkpt><trkpt lat="45.6116533" lon="9.5228939"><ele>153.0</ele><time>2026-03-29T10:50:10.618Z</time></trkpt><trkpt lat="45.6115568" lon="9.5229854"><ele>153.0</ele><time>2026-03-29T10:50:15.617Z</time></trkpt><trkpt lat="45.611438" lon="9.5230515"><ele>153.0</ele><time>2026-03-29T10:50:17.618Z</time></trkpt><trkpt lat="45.6113712" lon="9.5230965"><ele>153.0</ele><time>2026-03-29T10:50:18.618Z</time></trkpt><trkpt lat="45.6113048" lon="9.5231366"><ele>153.0</ele><time>2026-03-29T10:50:19.618Z</time></trkpt><trkpt lat="45.6112353" lon="9.5231757"><ele>153.0</ele><time>2026-03-29T10:50:20.618Z</time></trkpt><trkpt lat="45.6111697" lon="9.5231982"><ele>153.0</ele><time>2026-03-29T10:50:21.618Z</time></trkpt><trkpt lat="45.6110901" lon="9.5232517"><ele>153.0</ele><time>2026-03-29T10:50:22.618Z</time></trkpt><trkpt lat="45.6110169" lon="9.5232997"><ele>153.0</ele><time>2026-03-29T10:50:23.618Z</time></trkpt><trkpt lat="45.6109348" lon="9.5233457"><ele>153.0</ele><time>2026-03-29T10:50:24.618Z</time></trkpt><trkpt lat="45.6108518" lon="9.5233933"><ele>153.0</ele><time>2026-03-29T10:50:25.618Z</time></trkpt><trkpt lat="45.6107692" lon="9.5234405"><ele>153.66666666666666</ele><time>2026-03-29T10:50:26.618Z</time></trkpt><trkpt lat="45.6106838" lon="9.5234935"><ele>154.33333333333334</ele><time>2026-03-29T10:50:27.618Z</time></trkpt><trkpt lat="45.6105986" lon="9.5235577"><ele>155.0</ele><time>2026-03-29T10:50:28.618Z</time></trkpt><trkpt lat="45.6105089" lon="9.5236044"><ele>155.66666666666669</ele><time>2026-03-29T10:50:29.618Z</time></trkpt><trkpt lat="45.6104327" lon="9.523654"><ele>156.33333333333334</ele><time>2026-03-29T10:50:30.618Z</time></trkpt><trkpt lat="45.6103667" lon="9.5236974"><ele>157.0</ele><time>2026-03-29T10:50:31.618Z</time></trkpt><trkpt lat="45.6102996" lon="9.5237384"><ele>157.0</ele><time>2026-03-29T10:50:32.618Z</time></trkpt><trkpt lat="45.6102404" lon="9.5237811"><ele>157.0</ele><time>2026-03-29T10:50:33.618Z</time></trkpt><trkpt lat="45.6101797" lon="9.5238247"><ele>157.0</ele><time>2026-03-29T10:50:34.618Z</time></trkpt><trkpt lat="45.6101107" lon="9.5239393"><ele>157.0</ele><time>2026-03-29T10:50:36.618Z</time></trkpt><trkpt lat="45.6100394" lon="9.5240066"><ele>157.0</ele><time>2026-03-29T10:50:38.618Z</time></trkpt><trkpt lat="45.6099432" lon="9.524059"><ele>157.0</ele><time>2026-03-29T10:50:40.618Z</time></trkpt><trkpt lat="45.6098624" lon="9.5241042"><ele>157.0</ele><time>2026-03-29T10:50:42.617Z</time></trkpt><trkpt lat="45.6097887" lon="9.5241501"><ele>157.0</ele><time>2026-03-29T10:50:44.618Z</time></trkpt><trkpt lat="45.6097112" lon="9.5241903"><ele>157.0</ele><time>2026-03-29T10:50:46.618Z</time></trkpt><trkpt lat="45.609644" lon="9.5242163"><ele>157.0</ele><time>2026-03-29T10:50:47.618Z</time></trkpt><trkpt lat="45.60954" lon="9.524281"><ele>157.0</ele><time>2026-03-29T10:50:49.618Z</time></trkpt><trkpt lat="45.6094369" lon="9.5243047"><ele>155.6</ele><time>2026-03-29T10:50:51.618Z</time></trkpt><trkpt lat="45.6093464" lon="9.5244014"><ele>154.2</ele><time>2026-03-29T10:50:53.618Z</time></trkpt><trkpt lat="45.6092382" lon="9.5244763"><ele>152.8</ele><time>2026-03-29T10:50:55.618Z</time></trkpt><trkpt lat="45.6091855" lon="9.5245276"><ele>151.4</ele><time>2026-03-29T10:50:56.618Z</time></trkpt><trkpt lat="45.6090857" lon="9.5246033"><ele>150.0</ele><time>2026-03-29T10:50:58.618Z</time></trkpt><trkpt lat="45.609001" lon="9.5246858"><ele>150.0</ele><time>2026-03-29T10:51:00.618Z</time></trkpt><trkpt lat="45.6089371" lon="9.5247219"><ele>150.0</ele><time>2026-03-29T10:51:01.618Z</time></trkpt><trkpt lat="45.6088745" lon="9.5247589"><ele>150.0</ele><time>2026-03-29T10:51:02.617Z</time></trkpt><trkpt lat="45.6087605" lon="9.5248387"><ele>150.0</ele><time>2026-03-29T10:51:04.618Z</time></trkpt><trkpt lat="45.6086444" lon="9.5249174"><ele>150.0</ele><time>2026-03-29T10:51:06.618Z</time></trkpt><trkpt lat="45.6085854" lon="9.5249545"><ele>153.6</ele><time>2026-03-29T10:51:07.617Z</time></trkpt><trkpt lat="45.6084878" lon="9.5250365"><ele>157.2</ele><time>2026-03-29T10:51:09.618Z</time></trkpt><trkpt lat="45.6083839" lon="9.5251358"><ele>160.8</ele><time>2026-03-29T10:51:11.618Z</time></trkpt><trkpt lat="45.6083217" lon="9.5252037"><ele>164.4</ele><time>2026-03-29T10:51:12.618Z</time></trkpt><trkpt lat="45.608265" lon="9.5252547"><ele>168.0</ele><time>2026-03-29T10:51:13.617Z</time></trkpt><trkpt lat="45.608217" lon="9.5253434"><ele>167.57142857142858</ele><time>2026-03-29T10:51:14.618Z</time></trkpt><trkpt lat="45.6081402" lon="9.5254544"><ele>167.14285714285714</ele><time>2026-03-29T10:51:16.618Z</time></trkpt><trkpt lat="45.6081051" lon="9.5255359"><ele>166.71428571428572</ele><time>2026-03-29T10:51:17.618Z</time></trkpt><trkpt lat="45.6080646" lon="9.5256078"><ele>166.28571428571428</ele><time>2026-03-29T10:51:18.618Z</time></trkpt><trkpt lat="45.6080093" lon="9.5256806"><ele>165.85714285714286</ele><time>2026-03-29T10:51:19.618Z</time></trkpt><trkpt lat="45.6079503" lon="9.5257282"><ele>165.42857142857144</ele><time>2026-03-29T10:51:20.618Z</time></trkpt><trkpt lat="45.607904" lon="9.5257947"><ele>165.0</ele><time>2026-03-29T10:51:21.618Z</time></trkpt><trkpt lat="45.6077835" lon="9.525905"><ele>165.0</ele><time>2026-03-29T10:51:23.618Z</time></trkpt><trkpt lat="45.6077038" lon="9.5259591"><ele>165.0</ele><time>2026-03-29T10:51:24.618Z</time></trkpt><trkpt lat="45.6076276" lon="9.5260226"><ele>165.0</ele><time>2026-03-29T10:51:25.618Z</time></trkpt><trkpt lat="45.6075649" lon="9.5260825"><ele>165.0</ele><time>2026-03-29T10:51:26.617Z</time></trkpt><trkpt lat="45.607542" lon="9.5261689"><ele>165.0</ele><time>2026-03-29T10:51:27.618Z</time></trkpt><trkpt lat="45.6074525" lon="9.5262294"><ele>165.0</ele><time>2026-03-29T10:51:29.618Z</time></trkpt><trkpt lat="45.6074052" lon="9.5262897"><ele>162.6</ele><time>2026-03-29T10:51:30.618Z</time></trkpt><trkpt lat="45.6073214" lon="9.5263733"><ele>160.2</ele><time>2026-03-29T10:51:32.618Z</time></trkpt><trkpt lat="45.6072684" lon="9.5264301"><ele>157.8</ele><time>2026-03-29T10:51:33.618Z</time></trkpt><trkpt lat="45.6071872" lon="9.5265225"><ele>155.4</ele><time>2026-03-29T10:51:35.618Z</time></trkpt><trkpt lat="45.6071088" lon="9.5265548"><ele>153.0</ele><time>2026-03-29T10:51:36.618Z</time></trkpt><trkpt lat="45.6070222" lon="9.5266171"><ele>154.0</ele><time>2026-03-29T10:51:38.618Z</time></trkpt><trkpt lat="45.6069691" lon="9.5266707"><ele>155.0</ele><time>2026-03-29T10:51:39.618Z</time></trkpt><trkpt lat="45.6069085" lon="9.5267135"><ele>156.0</ele><time>2026-03-29T10:51:40.617Z</time></trkpt><trkpt lat="45.6068475" lon="9.526757"><ele>157.0</ele><time>2026-03-29T10:51:42.617Z</time></trkpt><trkpt lat="45.6067763" lon="9.5267975"><ele>158.0</ele><time>2026-03-29T10:51:44.618Z</time></trkpt><trkpt lat="45.6066747" lon="9.5268487"><ele>159.0</ele><time>2026-03-29T10:51:46.618Z</time></trkpt><trkpt lat="45.6065937" lon="9.526917"><ele>159.0</ele><time>2026-03-29T10:51:48.617Z</time></trkpt><trkpt lat="45.606516" lon="9.527005"><ele>159.0</ele><time>2026-03-29T10:51:50.617Z</time></trkpt><trkpt lat="45.6064572" lon="9.5270428"><ele>159.0</ele><time>2026-03-29T10:51:51.618Z</time></trkpt><trkpt lat="45.6063813" lon="9.5270539"><ele>159.0</ele><time>2026-03-29T10:51:52.618Z</time></trkpt><trkpt lat="45.6062914" lon="9.5270975"><ele>159.0</ele><time>2026-03-29T10:51:54.618Z</time></trkpt><trkpt lat="45.6062183" lon="9.5271634"><ele>159.0</ele><time>2026-03-29T10:51:58.618Z</time></trkpt><trkpt lat="45.6061332" lon="9.5272072"><ele>160.8</ele><time>2026-03-29T10:52:01.618Z</time></trkpt><trkpt lat="45.6060256" lon="9.5272746"><ele>162.60000000000002</ele><time>2026-03-29T10:52:03.618Z</time></trkpt><trkpt lat="45.6059451" lon="9.5273171"><ele>164.4</ele><time>2026-03-29T10:52:05.618Z</time></trkpt><trkpt lat="45.6058555" lon="9.5273963"><ele>166.20000000000002</ele><time>2026-03-29T10:52:07.618Z</time></trkpt><trkpt lat="45.6057757" lon="9.5274473"><ele>168.0</ele><time>2026-03-29T10:52:08.618Z</time></trkpt><trkpt lat="45.6056992" lon="9.5274645"><ele>168.0</ele><time>2026-03-29T10:52:09.618Z</time></trkpt><trkpt lat="45.60563" lon="9.5274982"><ele>168.0</ele><time>2026-03-29T10:52:10.618Z</time></trkpt><trkpt lat="45.6055538" lon="9.5275359"><ele>168.0</ele><time>2026-03-29T10:52:11.618Z</time></trkpt><trkpt lat="45.6054911" lon="9.5275526"><ele>168.0</ele><time>2026-03-29T10:52:12.618Z</time></trkpt><trkpt lat="45.6054296" lon="9.5275838"><ele>168.0</ele><time>2026-03-29T10:52:13.618Z</time></trkpt><trkpt lat="45.6053669" lon="9.5276097"><ele>168.0</ele><time>2026-03-29T10:52:14.617Z</time></trkpt><trkpt lat="45.6052473" lon="9.5276794"><ele>167.28571428571428</ele><time>2026-03-29T10:52:16.618Z</time></trkpt><trkpt lat="45.6051855" lon="9.5277192"><ele>166.57142857142856</ele><time>2026-03-29T10:52:17.618Z</time></trkpt><trkpt lat="45.6051309" lon="9.5277642"><ele>165.85714285714286</ele><time>2026-03-29T10:52:18.618Z</time></trkpt><trkpt lat="45.6050313" lon="9.5278361"><ele>165.14285714285714</ele><time>2026-03-29T10:52:20.618Z</time></trkpt><trkpt lat="45.6049681" lon="9.5278609"><ele>164.42857142857142</ele><time>2026-03-29T10:52:21.618Z</time></trkpt><trkpt lat="45.6049075" lon="9.5278857"><ele>163.71428571428572</ele><time>2026-03-29T10:52:22.617Z</time></trkpt><trkpt lat="45.6048429" lon="9.5278993"><ele>163.0</ele><time>2026-03-29T10:52:23.617Z</time></trkpt><trkpt lat="45.6047318" lon="9.5279707"><ele>159.75</ele><time>2026-03-29T10:52:25.618Z</time></trkpt><trkpt lat="45.6046499" lon="9.528013"><ele>156.5</ele><time>2026-03-29T10:52:27.618Z</time></trkpt><trkpt lat="45.6046782" lon="9.5281883"><ele>153.25</ele><time>2026-03-29T10:52:29.618Z</time></trkpt><trkpt lat="45.6045392" lon="9.5282096"><ele>150.0</ele><time>2026-03-29T10:52:34.618Z</time></trkpt><trkpt lat="45.6044394" lon="9.5282254"><ele>149.6</ele><time>2026-03-29T10:52:35.618Z</time></trkpt><trkpt lat="45.6043479" lon="9.528263"><ele>149.2</ele><time>2026-03-29T10:52:36.618Z</time></trkpt><trkpt lat="45.6042734" lon="9.5283185"><ele>148.8</ele><time>2026-03-29T10:52:37.618Z</time></trkpt><trkpt lat="45.604187" lon="9.52838"><ele>148.4</ele><time>2026-03-29T10:52:38.618Z</time></trkpt><trkpt lat="45.6041226" lon="9.5284241"><ele>148.0</ele><time>2026-03-29T10:52:39.618Z</time></trkpt><trkpt lat="45.6039986" lon="9.5284996"><ele>148.0</ele><time>2026-03-29T10:52:41.617Z</time></trkpt><trkpt lat="45.6038941" lon="9.5285602"><ele>148.0</ele><time>2026-03-29T10:52:43.618Z</time></trkpt><trkpt lat="45.6037892" lon="9.5286158"><ele>148.0</ele><time>2026-03-29T10:52:45.618Z</time></trkpt><trkpt lat="45.603728" lon="9.5286457"><ele>148.0</ele><time>2026-03-29T10:52:46.618Z</time></trkpt><trkpt lat="45.6036663" lon="9.5286864"><ele>148.0</ele><time>2026-03-29T10:52:47.618Z</time></trkpt><trkpt lat="45.603558" lon="9.5287912"><ele>147.33333333333334</ele><time>2026-03-29T10:52:49.618Z</time></trkpt><trkpt lat="45.6034812" lon="9.5289083"><ele>146.66666666666669</ele><time>2026-03-29T10:52:51.618Z</time></trkpt><trkpt lat="45.6034178" lon="9.5289508"><ele>146.0</ele><time>2026-03-29T10:52:52.618Z</time></trkpt><trkpt lat="45.6033531" lon="9.5289902"><ele>145.33333333333334</ele><time>2026-03-29T10:52:53.618Z</time></trkpt><trkpt lat="45.6032376" lon="9.5290683"><ele>144.66666666666666</ele><time>2026-03-29T10:52:55.618Z</time></trkpt><trkpt lat="45.6031732" lon="9.5290873"><ele>144.0</ele><time>2026-03-29T10:52:56.617Z</time></trkpt><trkpt lat="45.6030994" lon="9.5291233"><ele>144.0</ele><time>2026-03-29T10:52:57.617Z</time></trkpt><trkpt lat="45.6030335" lon="9.5291487"><ele>144.0</ele><time>2026-03-29T10:52:58.618Z</time></trkpt><trkpt lat="45.602908" lon="9.5291921"><ele>144.0</ele><time>2026-03-29T10:53:00.618Z</time></trkpt><trkpt lat="45.6028423" lon="9.529214"><ele>144.0</ele><time>2026-03-29T10:53:01.618Z</time></trkpt><trkpt lat="45.6027256" lon="9.5292548"><ele>144.0</ele><time>2026-03-29T10:53:03.617Z</time></trkpt><trkpt lat="45.6026604" lon="9.5292794"><ele>144.33333333333334</ele><time>2026-03-29T10:53:04.618Z</time></trkpt><trkpt lat="45.6025478" lon="9.529306"><ele>144.66666666666666</ele><time>2026-03-29T10:53:06.618Z</time></trkpt><trkpt lat="45.6024606" lon="9.5293178"><ele>145.0</ele><time>2026-03-29T10:53:08.618Z</time></trkpt><trkpt lat="45.602379" lon="9.5293425"><ele>145.33333333333331</ele><time>2026-03-29T10:53:10.618Z</time></trkpt><trkpt lat="45.6023281" lon="9.5294233"><ele>145.66666666666666</ele><time>2026-03-29T10:53:13.617Z</time></trkpt><trkpt lat="45.6022875" lon="9.5295053"><ele>146.0</ele><time>2026-03-29T10:53:17.618Z</time></trkpt><trkpt lat="45.6023565" lon="9.5295057"><ele>144.16666666666666</ele><time>2026-03-29T10:53:24.618Z</time></trkpt><trkpt lat="45.6023106" lon="9.5295679"><ele>142.33333333333331</ele><time>2026-03-29T10:53:36.616Z</time></trkpt><trkpt lat="45.6023255" lon="9.5296944"><ele>140.5</ele><time>2026-03-29T10:53:39.615Z</time></trkpt><trkpt lat="45.6023363" lon="9.5297891"><ele>138.66666666666666</ele><time>2026-03-29T10:53:41.616Z</time></trkpt><trkpt lat="45.6023566" lon="9.5299132"><ele>136.83333333333334</ele><time>2026-03-29T10:53:44.616Z</time></trkpt><trkpt lat="45.6023789" lon="9.5300325"><ele>135.0</ele><time>2026-03-29T10:53:47.616Z</time></trkpt><trkpt lat="45.6024032" lon="9.5301592"><ele>135.0</ele><time>2026-03-29T10:53:50.616Z</time></trkpt><trkpt lat="45.6024267" lon="9.5302738"><ele>135.0</ele><time>2026-03-29T10:53:53.616Z</time></trkpt><trkpt lat="45.602391" lon="9.5303483"><ele>135.0</ele><time>2026-03-29T10:53:57.616Z</time></trkpt><trkpt lat="45.6023359" lon="9.5304052"><ele>135.0</ele><time>2026-03-29T10:54:00.615Z</time></trkpt><trkpt lat="45.6023008" lon="9.5304814"><ele>135.0</ele><time>2026-03-29T10:54:04.616Z</time></trkpt><trkpt lat="45.6023264" lon="9.5305825"><ele>135.0</ele><time>2026-03-29T10:54:07.616Z</time></trkpt><trkpt lat="45.602309" lon="9.5307039"><ele>135.0</ele><time>2026-03-29T10:54:10.615Z</time></trkpt><trkpt lat="45.6022379" lon="9.53077"><ele>136.0</ele><time>2026-03-29T10:54:12.616Z</time></trkpt><trkpt lat="45.6021482" lon="9.5308499"><ele>137.0</ele><time>2026-03-29T10:54:14.616Z</time></trkpt><trkpt lat="45.6020566" lon="9.5309131"><ele>138.0</ele><time>2026-03-29T10:54:16.615Z</time></trkpt><trkpt lat="45.6019693" lon="9.5309703"><ele>139.0</ele><time>2026-03-29T10:54:18.616Z</time></trkpt><trkpt lat="45.6018758" lon="9.5310432"><ele>140.0</ele><time>2026-03-29T10:54:20.615Z</time></trkpt><trkpt lat="45.60178" lon="9.5311263"><ele>140.0</ele><time>2026-03-29T10:54:22.616Z</time></trkpt><trkpt lat="45.6017011" lon="9.531205"><ele>140.0</ele><time>2026-03-29T10:54:24.615Z</time></trkpt><trkpt lat="45.601615" lon="9.531266"><ele>140.0</ele><time>2026-03-29T10:54:26.615Z</time></trkpt><trkpt lat="45.6015171" lon="9.5313343"><ele>140.0</ele><time>2026-03-29T10:54:28.615Z</time></trkpt><trkpt lat="45.6014121" lon="9.5314025"><ele>140.0</ele><time>2026-03-29T10:54:30.616Z</time></trkpt><trkpt lat="45.6013316" lon="9.5314801"><ele>140.83333333333331</ele><time>2026-03-29T10:54:32.616Z</time></trkpt><trkpt lat="45.6012705" lon="9.5315106"><ele>141.66666666666666</ele><time>2026-03-29T10:54:33.616Z</time></trkpt><trkpt lat="45.6011649" lon="9.5315857"><ele>142.5</ele><time>2026-03-29T10:54:35.616Z</time></trkpt><trkpt lat="45.6011008" lon="9.5316174"><ele>143.33333333333334</ele><time>2026-03-29T10:54:36.616Z</time></trkpt><trkpt lat="45.6010197" lon="9.5316853"><ele>144.16666666666669</ele><time>2026-03-29T10:54:38.616Z</time></trkpt><trkpt lat="45.6009525" lon="9.5317422"><ele>145.0</ele><time>2026-03-29T10:54:40.616Z</time></trkpt><trkpt lat="45.6008376" lon="9.5317995"><ele>145.0</ele><time>2026-03-29T10:54:42.616Z</time></trkpt><trkpt lat="45.6007219" lon="9.5318436"><ele>145.0</ele><time>2026-03-29T10:54:44.616Z</time></trkpt><trkpt lat="45.6006482" lon="9.5319159"><ele>145.0</ele><time>2026-03-29T10:54:46.616Z</time></trkpt><trkpt lat="45.6005458" lon="9.5320072"><ele>145.0</ele><time>2026-03-29T10:54:48.616Z</time></trkpt><trkpt lat="45.6005066" lon="9.5320803"><ele>145.0</ele><time>2026-03-29T10:54:50.616Z</time></trkpt><trkpt lat="45.6004368" lon="9.5321526"><ele>145.16666666666669</ele><time>2026-03-29T10:54:53.616Z</time></trkpt><trkpt lat="45.600371" lon="9.5321754"><ele>145.33333333333334</ele><time>2026-03-29T10:54:55.616Z</time></trkpt><trkpt lat="45.6003171" lon="9.5322245"><ele>145.5</ele><time>2026-03-29T10:54:57.616Z</time></trkpt><trkpt lat="45.6002269" lon="9.5322603"><ele>145.66666666666666</ele><time>2026-03-29T10:54:59.616Z</time></trkpt><trkpt lat="45.6001473" lon="9.5323087"><ele>145.83333333333331</ele><time>2026-03-29T10:55:01.616Z</time></trkpt><trkpt lat="45.6000675" lon="9.5323719"><ele>146.0</ele><time>2026-03-29T10:55:04.616Z</time></trkpt><trkpt lat="45.6000058" lon="9.5324399"><ele>146.0</ele><time>2026-03-29T10:55:06.616Z</time></trkpt><trkpt lat="45.5999315" lon="9.5325067"><ele>146.0</ele><time>2026-03-29T10:55:08.616Z</time></trkpt><trkpt lat="45.5998558" lon="9.5325601"><ele>146.0</ele><time>2026-03-29T10:55:10.616Z</time></trkpt><trkpt lat="45.5997879" lon="9.532608"><ele>146.0</ele><time>2026-03-29T10:55:12.616Z</time></trkpt><trkpt lat="45.5996795" lon="9.5326433"><ele>146.0</ele><time>2026-03-29T10:55:14.616Z</time></trkpt><trkpt lat="45.5995794" lon="9.5326857"><ele>145.6</ele><time>2026-03-29T10:55:16.616Z</time></trkpt><trkpt lat="45.5994841" lon="9.5326965"><ele>145.2</ele><time>2026-03-29T10:55:18.616Z</time></trkpt><trkpt lat="45.599404" lon="9.5327186"><ele>144.8</ele><time>2026-03-29T10:55:20.616Z</time></trkpt><trkpt lat="45.5993144" lon="9.532744"><ele>144.4</ele><time>2026-03-29T10:55:22.615Z</time></trkpt><trkpt lat="45.5992114" lon="9.5327681"><ele>144.0</ele><time>2026-03-29T10:55:24.616Z</time></trkpt><trkpt lat="45.5991278" lon="9.5328067"><ele>144.66666666666666</ele><time>2026-03-29T10:55:26.616Z</time></trkpt><trkpt lat="45.5990672" lon="9.5328957"><ele>145.33333333333334</ele><time>2026-03-29T10:55:28.616Z</time></trkpt><trkpt lat="45.5990448" lon="9.5330103"><ele>146.0</ele><time>2026-03-29T10:55:30.615Z</time></trkpt><trkpt lat="45.5990385" lon="9.5331545"><ele>146.66666666666669</ele><time>2026-03-29T10:55:32.616Z</time></trkpt><trkpt lat="45.5990413" lon="9.5332632"><ele>147.33333333333334</ele><time>2026-03-29T10:55:34.616Z</time></trkpt><trkpt lat="45.5990462" lon="9.5333795"><ele>148.0</ele><time>2026-03-29T10:55:36.616Z</time></trkpt><trkpt lat="45.599067" lon="9.5335109"><ele>148.0</ele><time>2026-03-29T10:55:38.616Z</time></trkpt><trkpt lat="45.5990792" lon="9.533637"><ele>148.0</ele><time>2026-03-29T10:55:40.615Z</time></trkpt><trkpt lat="45.599104" lon="9.5337723"><ele>148.0</ele><time>2026-03-29T10:55:42.616Z</time></trkpt><trkpt lat="45.5991309" lon="9.533911"><ele>148.0</ele><time>2026-03-29T10:55:44.616Z</time></trkpt><trkpt lat="45.5991534" lon="9.5340482"><ele>148.0</ele><time>2026-03-29T10:55:46.616Z</time></trkpt><trkpt lat="45.5991491" lon="9.5341855"><ele>148.6</ele><time>2026-03-29T10:55:48.616Z</time></trkpt><trkpt lat="45.5990811" lon="9.5342797"><ele>149.20000000000002</ele><time>2026-03-29T10:55:51.616Z</time></trkpt><trkpt lat="45.5990134" lon="9.5343087"><ele>149.8</ele><time>2026-03-29T10:55:53.616Z</time></trkpt><trkpt lat="45.5989232" lon="9.5343242"><ele>150.4</ele><time>2026-03-29T10:55:55.616Z</time></trkpt><trkpt lat="45.5988204" lon="9.5343622"><ele>151.0</ele><time>2026-03-29T10:55:57.616Z</time></trkpt><trkpt lat="45.5987318" lon="9.5344132"><ele>151.0</ele><time>2026-03-29T10:55:59.616Z</time></trkpt><trkpt lat="45.5986851" lon="9.5345359"><ele>151.0</ele><time>2026-03-29T10:56:01.616Z</time></trkpt><trkpt lat="45.5986455" lon="9.5346525"><ele>151.0</ele><time>2026-03-29T10:56:03.615Z</time></trkpt><trkpt lat="45.5986287" lon="9.5347541"><ele>151.0</ele><time>2026-03-29T10:56:05.616Z</time></trkpt><trkpt lat="45.5985896" lon="9.5348375"><ele>151.0</ele><time>2026-03-29T10:56:07.616Z</time></trkpt><trkpt lat="45.5985048" lon="9.5349135"><ele>151.0</ele><time>2026-03-29T10:56:09.616Z</time></trkpt><trkpt lat="45.5984087" lon="9.5349595"><ele>151.6</ele><time>2026-03-29T10:56:11.616Z</time></trkpt><trkpt lat="45.5982906" lon="9.5349894"><ele>152.2</ele><time>2026-03-29T10:56:13.616Z</time></trkpt><trkpt lat="45.5981823" lon="9.5350048"><ele>152.8</ele><time>2026-03-29T10:56:15.616Z</time></trkpt><trkpt lat="45.5980648" lon="9.5350305"><ele>153.4</ele><time>2026-03-29T10:56:17.616Z</time></trkpt><trkpt lat="45.5979689" lon="9.5350613"><ele>154.0</ele><time>2026-03-29T10:56:19.616Z</time></trkpt><trkpt lat="45.5978541" lon="9.5351"><ele>153.2</ele><time>2026-03-29T10:56:21.616Z</time></trkpt><trkpt lat="45.5977371" lon="9.5351334"><ele>152.4</ele><time>2026-03-29T10:56:23.616Z</time></trkpt><trkpt lat="45.5976197" lon="9.5351537"><ele>151.6</ele><time>2026-03-29T10:56:25.616Z</time></trkpt><trkpt lat="45.597516" lon="9.5351619"><ele>150.8</ele><time>2026-03-29T10:56:27.616Z</time></trkpt><trkpt lat="45.5974417" lon="9.5351793"><ele>150.0</ele><time>2026-03-29T10:56:28.616Z</time></trkpt><trkpt lat="45.5973192" lon="9.5352026"><ele>150.0</ele><time>2026-03-29T10:56:30.616Z</time></trkpt><trkpt lat="45.5972254" lon="9.5352054"><ele>150.0</ele><time>2026-03-29T10:56:32.615Z</time></trkpt><trkpt lat="45.5971611" lon="9.5352269"><ele>150.0</ele><time>2026-03-29T10:56:33.616Z</time></trkpt><trkpt lat="45.5970694" lon="9.5352494"><ele>150.0</ele><time>2026-03-29T10:56:35.616Z</time></trkpt><trkpt lat="45.5969517" lon="9.5352674"><ele>150.0</ele><time>2026-03-29T10:56:37.615Z</time></trkpt><trkpt lat="45.5968348" lon="9.5353157"><ele>150.0</ele><time>2026-03-29T10:56:39.616Z</time></trkpt><trkpt lat="45.5967173" lon="9.5353318"><ele>150.0</ele><time>2026-03-29T10:56:41.616Z</time></trkpt><trkpt lat="45.5966476" lon="9.5353457"><ele>150.0</ele><time>2026-03-29T10:56:42.616Z</time></trkpt><trkpt lat="45.5965836" lon="9.535362"><ele>150.0</ele><time>2026-03-29T10:56:43.615Z</time></trkpt><trkpt lat="45.5965161" lon="9.5353583"><ele>150.0</ele><time>2026-03-29T10:56:44.616Z</time></trkpt><trkpt lat="45.5964342" lon="9.5353761"><ele>150.0</ele><time>2026-03-29T10:56:45.616Z</time></trkpt><trkpt lat="45.5963204" lon="9.5354027"><ele>150.0</ele><time>2026-03-29T10:56:47.616Z</time></trkpt><trkpt lat="45.5962527" lon="9.5354237"><ele>150.0</ele><time>2026-03-29T10:56:48.616Z</time></trkpt><trkpt lat="45.596129" lon="9.5354444"><ele>150.0</ele><time>2026-03-29T10:56:50.616Z</time></trkpt><trkpt lat="45.5960658" lon="9.5354599"><ele>150.0</ele><time>2026-03-29T10:56:51.616Z</time></trkpt><trkpt lat="45.5959485" lon="9.5354873"><ele>150.0</ele><time>2026-03-29T10:56:53.616Z</time></trkpt><trkpt lat="45.5958133" lon="9.5355146"><ele>150.0</ele><time>2026-03-29T10:56:55.616Z</time></trkpt><trkpt lat="45.5957362" lon="9.5355354"><ele>150.0</ele><time>2026-03-29T10:56:56.616Z</time></trkpt><trkpt lat="45.5956322" lon="9.5355496"><ele>150.0</ele><time>2026-03-29T10:56:58.616Z</time></trkpt><trkpt lat="45.5955181" lon="9.5355699"><ele>150.0</ele><time>2026-03-29T10:57:00.615Z</time></trkpt><trkpt lat="45.5953944" lon="9.5356026"><ele>150.0</ele><time>2026-03-29T10:57:02.615Z</time></trkpt><trkpt lat="45.5952839" lon="9.535623"><ele>150.2</ele><time>2026-03-29T10:57:04.616Z</time></trkpt><trkpt lat="45.5951587" lon="9.5356505"><ele>150.4</ele><time>2026-03-29T10:57:06.616Z</time></trkpt><trkpt lat="45.5950958" lon="9.5356728"><ele>150.6</ele><time>2026-03-29T10:57:07.616Z</time></trkpt><trkpt lat="45.5949789" lon="9.5357035"><ele>150.8</ele><time>2026-03-29T10:57:09.616Z</time></trkpt><trkpt lat="45.5948494" lon="9.5357218"><ele>151.0</ele><time>2026-03-29T10:57:11.616Z</time></trkpt><trkpt lat="45.5947809" lon="9.5357436"><ele>151.0</ele><time>2026-03-29T10:57:12.616Z</time></trkpt><trkpt lat="45.5947183" lon="9.5357568"><ele>151.0</ele><time>2026-03-29T10:57:13.616Z</time></trkpt><trkpt lat="45.5945927" lon="9.5357827"><ele>151.0</ele><time>2026-03-29T10:57:15.616Z</time></trkpt><trkpt lat="45.5945269" lon="9.5357853"><ele>151.0</ele><time>2026-03-29T10:57:16.616Z</time></trkpt><trkpt lat="45.594407" lon="9.5358198"><ele>151.0</ele><time>2026-03-29T10:57:18.616Z</time></trkpt><trkpt lat="45.5943443" lon="9.5358378"><ele>151.0</ele><time>2026-03-29T10:57:19.616Z</time></trkpt><trkpt lat="45.594278" lon="9.5358428"><ele>151.0</ele><time>2026-03-29T10:57:20.616Z</time></trkpt><trkpt lat="45.594159" lon="9.5358668"><ele>151.0</ele><time>2026-03-29T10:57:22.616Z</time></trkpt><trkpt lat="45.5940334" lon="9.5358845"><ele>151.0</ele><time>2026-03-29T10:57:24.616Z</time></trkpt><trkpt lat="45.5939125" lon="9.5359044"><ele>151.0</ele><time>2026-03-29T10:57:26.616Z</time></trkpt><trkpt lat="45.5937857" lon="9.5359312"><ele>151.0</ele><time>2026-03-29T10:57:28.616Z</time></trkpt><trkpt lat="45.5936622" lon="9.535955"><ele>151.0</ele><time>2026-03-29T10:57:30.616Z</time></trkpt><trkpt lat="45.5935539" lon="9.5359705"><ele>151.0</ele><time>2026-03-29T10:57:32.615Z</time></trkpt><trkpt lat="45.5934388" lon="9.5360046"><ele>151.0</ele><time>2026-03-29T10:57:34.615Z</time></trkpt><trkpt lat="45.5933107" lon="9.5360459"><ele>151.0</ele><time>2026-03-29T10:57:36.616Z</time></trkpt><trkpt lat="45.5932068" lon="9.536072"><ele>151.0</ele><time>2026-03-29T10:57:38.616Z</time></trkpt><trkpt lat="45.593098" lon="9.5360667"><ele>151.0</ele><time>2026-03-29T10:57:40.616Z</time></trkpt><trkpt lat="45.5930317" lon="9.5360913"><ele>151.0</ele><time>2026-03-29T10:57:41.616Z</time></trkpt><trkpt lat="45.5929196" lon="9.5361347"><ele>151.0</ele><time>2026-03-29T10:57:43.616Z</time></trkpt><trkpt lat="45.5928309" lon="9.5361748"><ele>151.2</ele><time>2026-03-29T10:57:45.616Z</time></trkpt><trkpt lat="45.5927089" lon="9.5361867"><ele>151.39999999999998</ele><time>2026-03-29T10:57:47.615Z</time></trkpt><trkpt lat="45.5926436" lon="9.5361996"><ele>151.6</ele><time>2026-03-29T10:57:48.616Z</time></trkpt><trkpt lat="45.5925791" lon="9.5362127"><ele>151.79999999999998</ele><time>2026-03-29T10:57:49.616Z</time></trkpt><trkpt lat="45.5924715" lon="9.5362398"><ele>152.0</ele><time>2026-03-29T10:57:51.616Z</time></trkpt><trkpt lat="45.5923504" lon="9.5362619"><ele>152.2</ele><time>2026-03-29T10:57:53.616Z</time></trkpt><trkpt lat="45.5922256" lon="9.5363022"><ele>152.39999999999998</ele><time>2026-03-29T10:57:55.616Z</time></trkpt><trkpt lat="45.5921546" lon="9.5363236"><ele>152.60000000000002</ele><time>2026-03-29T10:57:56.616Z</time></trkpt><trkpt lat="45.5920848" lon="9.5363489"><ele>152.8</ele><time>2026-03-29T10:57:57.616Z</time></trkpt><trkpt lat="45.5919641" lon="9.5363822"><ele>153.0</ele><time>2026-03-29T10:57:59.616Z</time></trkpt><trkpt lat="45.5918947" lon="9.5363877"><ele>152.71428571428572</ele><time>2026-03-29T10:58:00.616Z</time></trkpt><trkpt lat="45.5918247" lon="9.536387"><ele>152.42857142857144</ele><time>2026-03-29T10:58:01.616Z</time></trkpt><trkpt lat="45.5917571" lon="9.5364021"><ele>152.14285714285717</ele><time>2026-03-29T10:58:02.616Z</time></trkpt><trkpt lat="45.5916855" lon="9.5364106"><ele>151.85714285714286</ele><time>2026-03-29T10:58:03.616Z</time></trkpt><trkpt lat="45.5916146" lon="9.5364145"><ele>151.57142857142858</ele><time>2026-03-29T10:58:04.616Z</time></trkpt><trkpt lat="45.5915428" lon="9.5364238"><ele>151.2857142857143</ele><time>2026-03-29T10:58:05.616Z</time></trkpt><trkpt lat="45.5914772" lon="9.5364366"><ele>151.0</ele><time>2026-03-29T10:58:06.616Z</time></trkpt><trkpt lat="45.5914081" lon="9.5364518"><ele>151.0</ele><time>2026-03-29T10:58:07.616Z</time></trkpt><trkpt lat="45.5912853" lon="9.5364895"><ele>151.0</ele><time>2026-03-29T10:58:09.616Z</time></trkpt><trkpt lat="45.5912214" lon="9.5365088"><ele>151.0</ele><time>2026-03-29T10:58:10.615Z</time></trkpt><trkpt lat="45.5910974" lon="9.536522"><ele>151.0</ele><time>2026-03-29T10:58:12.616Z</time></trkpt><trkpt lat="45.5909561" lon="9.5365546"><ele>149.83333333333334</ele><time>2026-03-29T10:58:14.616Z</time></trkpt><trkpt lat="45.5908929" lon="9.5365612"><ele>148.66666666666669</ele><time>2026-03-29T10:58:15.616Z</time></trkpt><trkpt lat="45.590773" lon="9.5365849"><ele>147.5</ele><time>2026-03-29T10:58:17.616Z</time></trkpt><trkpt lat="45.5907093" lon="9.5365975"><ele>146.33333333333334</ele><time>2026-03-29T10:58:18.616Z</time></trkpt><trkpt lat="45.5906362" lon="9.5366273"><ele>145.16666666666666</ele><time>2026-03-29T10:58:19.615Z</time></trkpt><trkpt lat="45.5905727" lon="9.5366487"><ele>144.0</ele><time>2026-03-29T10:58:20.616Z</time></trkpt><trkpt lat="45.5905053" lon="9.5366588"><ele>144.0</ele><time>2026-03-29T10:58:21.615Z</time></trkpt><trkpt lat="45.5904317" lon="9.5366711"><ele>144.0</ele><time>2026-03-29T10:58:22.616Z</time></trkpt><trkpt lat="45.5903458" lon="9.5367478"><ele>144.0</ele><time>2026-03-29T10:58:24.616Z</time></trkpt><trkpt lat="45.5902679" lon="9.5368605"><ele>144.0</ele><time>2026-03-29T10:58:26.616Z</time></trkpt><trkpt lat="45.5902434" lon="9.536967"><ele>144.0</ele><time>2026-03-29T10:58:28.616Z</time></trkpt><trkpt lat="45.5902425" lon="9.5370784"><ele>144.0</ele><time>2026-03-29T10:58:30.616Z</time></trkpt><trkpt lat="45.5902584" lon="9.5371698"><ele>144.0</ele><time>2026-03-29T10:58:32.616Z</time></trkpt><trkpt lat="45.5903148" lon="9.5372432"><ele>144.0</ele><time>2026-03-29T10:58:36.615Z</time></trkpt><trkpt lat="45.5902395" lon="9.5373234"><ele>144.0</ele><time>2026-03-29T10:58:41.615Z</time></trkpt><trkpt lat="45.5901536" lon="9.5373506"><ele>144.0</ele><time>2026-03-29T10:58:43.616Z</time></trkpt><trkpt lat="45.5900537" lon="9.537403"><ele>144.0</ele><time>2026-03-29T10:58:45.616Z</time></trkpt><trkpt lat="45.5899542" lon="9.5374305"><ele>144.0</ele><time>2026-03-29T10:58:47.616Z</time></trkpt><trkpt lat="45.5898673" lon="9.5374911"><ele>144.0</ele><time>2026-03-29T10:58:49.616Z</time></trkpt><trkpt lat="45.5898085" lon="9.5375731"><ele>144.0</ele><time>2026-03-29T10:58:51.616Z</time></trkpt><trkpt lat="45.5898028" lon="9.5376982"><ele>144.0</ele><time>2026-03-29T10:58:53.615Z</time></trkpt><trkpt lat="45.5898213" lon="9.5378497"><ele>144.0</ele><time>2026-03-29T10:58:55.616Z</time></trkpt><trkpt lat="45.589846" lon="9.5379969"><ele>143.2</ele><time>2026-03-29T10:58:57.616Z</time></trkpt><trkpt lat="45.5898646" lon="9.5380879"><ele>142.4</ele><time>2026-03-29T10:58:58.616Z</time></trkpt><trkpt lat="45.5898773" lon="9.5382082"><ele>141.6</ele><time>2026-03-29T10:59:00.615Z</time></trkpt><trkpt lat="45.5899052" lon="9.5383711"><ele>140.8</ele><time>2026-03-29T10:59:02.615Z</time></trkpt><trkpt lat="45.5899592" lon="9.5385225"><ele>140.0</ele><time>2026-03-29T10:59:04.616Z</time></trkpt><trkpt lat="45.589987" lon="9.5386179"><ele>139.66666666666666</ele><time>2026-03-29T10:59:05.616Z</time></trkpt><trkpt lat="45.5900026" lon="9.53872"><ele>139.33333333333331</ele><time>2026-03-29T10:59:06.615Z</time></trkpt><trkpt lat="45.5900397" lon="9.5388004"><ele>139.0</ele><time>2026-03-29T10:59:07.616Z</time></trkpt><trkpt lat="45.5900682" lon="9.5388816"><ele>138.66666666666666</ele><time>2026-03-29T10:59:08.616Z</time></trkpt><trkpt lat="45.5900964" lon="9.5389632"><ele>138.33333333333334</ele><time>2026-03-29T10:59:09.616Z</time></trkpt><trkpt lat="45.5901384" lon="9.5391178"><ele>138.0</ele><time>2026-03-29T10:59:11.616Z</time></trkpt><trkpt lat="45.5901561" lon="9.5392084"><ele>138.0</ele><time>2026-03-29T10:59:12.615Z</time></trkpt><trkpt lat="45.5901949" lon="9.5393673"><ele>138.0</ele><time>2026-03-29T10:59:14.616Z</time></trkpt><trkpt lat="45.5902274" lon="9.539516"><ele>138.0</ele><time>2026-03-29T10:59:16.616Z</time></trkpt><trkpt lat="45.5902294" lon="9.5396545"><ele>138.0</ele><time>2026-03-29T10:59:18.616Z</time></trkpt><trkpt lat="45.5901815" lon="9.5397827"><ele>138.0</ele><time>2026-03-29T10:59:20.616Z</time></trkpt><trkpt lat="45.5901228" lon="9.5398404"><ele>137.6</ele><time>2026-03-29T10:59:21.616Z</time></trkpt><trkpt lat="45.590058" lon="9.5398669"><ele>137.20000000000002</ele><time>2026-03-29T10:59:22.616Z</time></trkpt><trkpt lat="45.5899931" lon="9.5398815"><ele>136.8</ele><time>2026-03-29T10:59:23.616Z</time></trkpt><trkpt lat="45.5898806" lon="9.5398356"><ele>136.4</ele><time>2026-03-29T10:59:25.616Z</time></trkpt><trkpt lat="45.5897897" lon="9.5397574"><ele>136.0</ele><time>2026-03-29T10:59:27.616Z</time></trkpt><trkpt lat="45.5897173" lon="9.5396235"><ele>136.0</ele><time>2026-03-29T10:59:29.616Z</time></trkpt><trkpt lat="45.5896342" lon="9.5395106"><ele>136.0</ele><time>2026-03-29T10:59:31.616Z</time></trkpt><trkpt lat="45.5895416" lon="9.5394652"><ele>136.0</ele><time>2026-03-29T10:59:33.615Z</time></trkpt><trkpt lat="45.5894603" lon="9.539495"><ele>136.0</ele><time>2026-03-29T10:59:35.615Z</time></trkpt><trkpt lat="45.5893501" lon="9.5395579"><ele>136.0</ele><time>2026-03-29T10:59:37.616Z</time></trkpt><trkpt lat="45.5892907" lon="9.5395921"><ele>136.2</ele><time>2026-03-29T10:59:38.616Z</time></trkpt><trkpt lat="45.5891883" lon="9.5396427"><ele>136.39999999999998</ele><time>2026-03-29T10:59:40.616Z</time></trkpt><trkpt lat="45.5890994" lon="9.5396797"><ele>136.6</ele><time>2026-03-29T10:59:42.616Z</time></trkpt><trkpt lat="45.5890231" lon="9.5397666"><ele>136.79999999999998</ele><time>2026-03-29T10:59:44.616Z</time></trkpt><trkpt lat="45.5889283" lon="9.5398129"><ele>137.0</ele><time>2026-03-29T10:59:46.616Z</time></trkpt><trkpt lat="45.5888242" lon="9.539878"><ele>137.0</ele><time>2026-03-29T10:59:48.616Z</time></trkpt><trkpt lat="45.5887518" lon="9.5399318"><ele>137.0</ele><time>2026-03-29T10:59:50.615Z</time></trkpt><trkpt lat="45.5887025" lon="9.5399896"><ele>137.0</ele><time>2026-03-29T10:59:51.616Z</time></trkpt><trkpt lat="45.5886293" lon="9.5400179"><ele>137.0</ele><time>2026-03-29T10:59:52.616Z</time></trkpt><trkpt lat="45.5885464" lon="9.5400932"><ele>137.0</ele><time>2026-03-29T10:59:54.616Z</time></trkpt><trkpt lat="45.5884677" lon="9.5401891"><ele>137.0</ele><time>2026-03-29T10:59:56.616Z</time></trkpt><trkpt lat="45.5883943" lon="9.5402988"><ele>136.4</ele><time>2026-03-29T10:59:58.616Z</time></trkpt><trkpt lat="45.5883378" lon="9.5403829"><ele>135.79999999999998</ele><time>2026-03-29T11:00:00.616Z</time></trkpt><trkpt lat="45.5882611" lon="9.5405021"><ele>135.2</ele><time>2026-03-29T11:00:02.616Z</time></trkpt><trkpt lat="45.5881967" lon="9.5406167"><ele>134.6</ele><time>2026-03-29T11:00:04.616Z</time></trkpt><trkpt lat="45.5882296" lon="9.5407581"><ele>134.0</ele><time>2026-03-29T11:00:06.616Z</time></trkpt><trkpt lat="45.5882303" lon="9.5409106"><ele>134.0</ele><time>2026-03-29T11:00:08.616Z</time></trkpt><trkpt lat="45.5882635" lon="9.5410526"><ele>134.0</ele><time>2026-03-29T11:00:10.616Z</time></trkpt><trkpt lat="45.5883106" lon="9.5411886"><ele>134.0</ele><time>2026-03-29T11:00:12.615Z</time></trkpt><trkpt lat="45.5883581" lon="9.5413272"><ele>134.0</ele><time>2026-03-29T11:00:14.616Z</time></trkpt><trkpt lat="45.5884192" lon="9.5414545"><ele>134.0</ele><time>2026-03-29T11:00:16.616Z</time></trkpt><trkpt lat="45.5884721" lon="9.5415935"><ele>134.0</ele><time>2026-03-29T11:00:18.616Z</time></trkpt><trkpt lat="45.5885037" lon="9.5416756"><ele>134.0</ele><time>2026-03-29T11:00:19.616Z</time></trkpt><trkpt lat="45.5885291" lon="9.5417605"><ele>134.0</ele><time>2026-03-29T11:00:20.616Z</time></trkpt><trkpt lat="45.5885788" lon="9.5419055"><ele>134.0</ele><time>2026-03-29T11:00:22.616Z</time></trkpt><trkpt lat="45.5886" lon="9.541993"><ele>134.0</ele><time>2026-03-29T11:00:23.616Z</time></trkpt><trkpt lat="45.5886549" lon="9.5421395"><ele>134.0</ele><time>2026-03-29T11:00:25.616Z</time></trkpt><trkpt lat="45.5886797" lon="9.542224"><ele>134.0</ele><time>2026-03-29T11:00:26.615Z</time></trkpt><trkpt lat="45.5887353" lon="9.5423739"><ele>134.0</ele><time>2026-03-29T11:00:28.616Z</time></trkpt><trkpt lat="45.5887958" lon="9.542526"><ele>134.0</ele><time>2026-03-29T11:00:30.616Z</time></trkpt><trkpt lat="45.5888483" lon="9.5426659"><ele>134.0</ele><time>2026-03-29T11:00:32.615Z</time></trkpt><trkpt lat="45.5888932" lon="9.5428247"><ele>133.5</ele><time>2026-03-29T11:00:34.615Z</time></trkpt><trkpt lat="45.5889469" lon="9.5430001"><ele>133.0</ele><time>2026-03-29T11:00:36.616Z</time></trkpt><trkpt lat="45.5889904" lon="9.5431382"><ele>132.5</ele><time>2026-03-29T11:00:38.616Z</time></trkpt><trkpt lat="45.5890464" lon="9.5433102"><ele>132.0</ele><time>2026-03-29T11:00:40.616Z</time></trkpt><trkpt lat="45.589098" lon="9.5434768"><ele>132.0</ele><time>2026-03-29T11:00:42.615Z</time></trkpt><trkpt lat="45.5891599" lon="9.5436124"><ele>132.0</ele><time>2026-03-29T11:00:44.616Z</time></trkpt><trkpt lat="45.5892162" lon="9.5437574"><ele>132.0</ele><time>2026-03-29T11:00:46.616Z</time></trkpt><trkpt lat="45.5892509" lon="9.5438367"><ele>132.0</ele><time>2026-03-29T11:00:47.616Z</time></trkpt><trkpt lat="45.5892792" lon="9.5439249"><ele>132.0</ele><time>2026-03-29T11:00:48.616Z</time></trkpt><trkpt lat="45.5893186" lon="9.5440703"><ele>132.66666666666666</ele><time>2026-03-29T11:00:50.616Z</time></trkpt><trkpt lat="45.5893572" lon="9.5441566"><ele>133.33333333333334</ele><time>2026-03-29T11:00:51.616Z</time></trkpt><trkpt lat="45.589406" lon="9.5443075"><ele>134.0</ele><time>2026-03-29T11:00:53.616Z</time></trkpt><trkpt lat="45.5894387" lon="9.5443926"><ele>134.66666666666669</ele><time>2026-03-29T11:00:54.616Z</time></trkpt><trkpt lat="45.5894601" lon="9.5444775"><ele>135.33333333333334</ele><time>2026-03-29T11:00:55.616Z</time></trkpt><trkpt lat="45.5894867" lon="9.5445699"><ele>136.0</ele><time>2026-03-29T11:00:56.616Z</time></trkpt><trkpt lat="45.589515" lon="9.5447128"><ele>136.2</ele><time>2026-03-29T11:00:58.615Z</time></trkpt><trkpt lat="45.5895781" lon="9.5448484"><ele>136.39999999999998</ele><time>2026-03-29T11:01:00.616Z</time></trkpt><trkpt lat="45.5896217" lon="9.5449222"><ele>136.6</ele><time>2026-03-29T11:01:01.616Z</time></trkpt><trkpt lat="45.5896996" lon="9.5450557"><ele>136.79999999999998</ele><time>2026-03-29T11:01:03.616Z</time></trkpt><trkpt lat="45.5897721" lon="9.5452038"><ele>137.0</ele><time>2026-03-29T11:01:05.616Z</time></trkpt><trkpt lat="45.5897789" lon="9.5453006"><ele>137.0</ele><time>2026-03-29T11:01:06.616Z</time></trkpt><trkpt lat="45.5898122" lon="9.5453786"><ele>137.0</ele><time>2026-03-29T11:01:07.616Z</time></trkpt><trkpt lat="45.5898248" lon="9.5454723"><ele>137.0</ele><time>2026-03-29T11:01:08.616Z</time></trkpt><trkpt lat="45.5898445" lon="9.5455703"><ele>137.0</ele><time>2026-03-29T11:01:09.616Z</time></trkpt><trkpt lat="45.5898888" lon="9.5457387"><ele>137.0</ele><time>2026-03-29T11:01:11.616Z</time></trkpt><trkpt lat="45.5899142" lon="9.5459071"><ele>137.0</ele><time>2026-03-29T11:01:13.616Z</time></trkpt><trkpt lat="45.5899059" lon="9.5460012"><ele>137.2</ele><time>2026-03-29T11:01:14.616Z</time></trkpt><trkpt lat="45.5899423" lon="9.5461692"><ele>137.39999999999998</ele><time>2026-03-29T11:01:16.615Z</time></trkpt><trkpt lat="45.5899509" lon="9.546266"><ele>137.60000000000002</ele><time>2026-03-29T11:01:17.616Z</time></trkpt><trkpt lat="45.5899877" lon="9.5464415"><ele>137.8</ele><time>2026-03-29T11:01:19.616Z</time></trkpt><trkpt lat="45.590013" lon="9.5465307"><ele>138.0</ele><time>2026-03-29T11:01:20.616Z</time></trkpt><trkpt lat="45.5900451" lon="9.5467146"><ele>138.0</ele><time>2026-03-29T11:01:22.616Z</time></trkpt><trkpt lat="45.5900572" lon="9.5468049"><ele>138.0</ele><time>2026-03-29T11:01:23.616Z</time></trkpt><trkpt lat="45.590081" lon="9.546971"><ele>138.0</ele><time>2026-03-29T11:01:25.616Z</time></trkpt><trkpt lat="45.5901069" lon="9.5471621"><ele>138.0</ele><time>2026-03-29T11:01:27.616Z</time></trkpt><trkpt lat="45.5901438" lon="9.5473171"><ele>138.0</ele><time>2026-03-29T11:01:29.616Z</time></trkpt><trkpt lat="45.5901684" lon="9.5474467"><ele>138.0</ele><time>2026-03-29T11:01:30.616Z</time></trkpt><trkpt lat="45.5901991" lon="9.547548"><ele>138.0</ele><time>2026-03-29T11:01:31.615Z</time></trkpt><trkpt lat="45.5902307" lon="9.5476991"><ele>138.0</ele><time>2026-03-29T11:01:33.616Z</time></trkpt><trkpt lat="45.5902189" lon="9.547798"><ele>138.0</ele><time>2026-03-29T11:01:34.616Z</time></trkpt><trkpt lat="45.5902226" lon="9.5478888"><ele>138.0</ele><time>2026-03-29T11:01:35.616Z</time></trkpt><trkpt lat="45.5902334" lon="9.5480704"><ele>138.0</ele><time>2026-03-29T11:01:37.616Z</time></trkpt><trkpt lat="45.5902551" lon="9.548242"><ele>137.8</ele><time>2026-03-29T11:01:39.616Z</time></trkpt><trkpt lat="45.5902661" lon="9.5483806"><ele>137.60000000000002</ele><time>2026-03-29T11:01:41.616Z</time></trkpt><trkpt lat="45.5902747" lon="9.5485516"><ele>137.39999999999998</ele><time>2026-03-29T11:01:43.616Z</time></trkpt><trkpt lat="45.590289" lon="9.5486566"><ele>137.2</ele><time>2026-03-29T11:01:44.616Z</time></trkpt><trkpt lat="45.5903084" lon="9.5487463"><ele>137.0</ele><time>2026-03-29T11:01:45.616Z</time></trkpt><trkpt lat="45.5903393" lon="9.5489228"><ele>137.0</ele><time>2026-03-29T11:01:47.616Z</time></trkpt><trkpt lat="45.590327" lon="9.5490922"><ele>137.0</ele><time>2026-03-29T11:01:49.616Z</time></trkpt><trkpt lat="45.5903169" lon="9.5492449"><ele>137.0</ele><time>2026-03-29T11:01:51.616Z</time></trkpt><trkpt lat="45.590314" lon="9.5493351"><ele>137.0</ele><time>2026-03-29T11:01:52.616Z</time></trkpt><trkpt lat="45.5903071" lon="9.5494981"><ele>137.0</ele><time>2026-03-29T11:01:54.616Z</time></trkpt><trkpt lat="45.5903247" lon="9.5496387"><ele>137.6</ele><time>2026-03-29T11:01:56.616Z</time></trkpt><trkpt lat="45.5903862" lon="9.5497887"><ele>138.2</ele><time>2026-03-29T11:01:58.616Z</time></trkpt><trkpt lat="45.5904315" lon="9.5499356"><ele>138.8</ele><time>2026-03-29T11:02:00.616Z</time></trkpt><trkpt lat="45.5904847" lon="9.550063"><ele>139.4</ele><time>2026-03-29T11:02:02.616Z</time></trkpt><trkpt lat="45.5905408" lon="9.5501987"><ele>140.0</ele><time>2026-03-29T11:02:04.616Z</time></trkpt><trkpt lat="45.5905871" lon="9.55031"><ele>139.8</ele><time>2026-03-29T11:02:06.616Z</time></trkpt><trkpt lat="45.5906257" lon="9.5504341"><ele>139.6</ele><time>2026-03-29T11:02:08.615Z</time></trkpt><trkpt lat="45.590665" lon="9.5505673"><ele>139.4</ele><time>2026-03-29T11:02:10.616Z</time></trkpt><trkpt lat="45.5907066" lon="9.5507106"><ele>139.2</ele><time>2026-03-29T11:02:12.616Z</time></trkpt><trkpt lat="45.590736" lon="9.5508678"><ele>139.0</ele><time>2026-03-29T11:02:14.616Z</time></trkpt><trkpt lat="45.5907738" lon="9.5510326"><ele>139.0</ele><time>2026-03-29T11:02:16.616Z</time></trkpt><trkpt lat="45.590817" lon="9.5511618"><ele>139.0</ele><time>2026-03-29T11:02:18.616Z</time></trkpt><trkpt lat="45.5908478" lon="9.5513163"><ele>139.0</ele><time>2026-03-29T11:02:20.616Z</time></trkpt><trkpt lat="45.5908788" lon="9.5513989"><ele>139.0</ele><time>2026-03-29T11:02:21.616Z</time></trkpt><trkpt lat="45.5909336" lon="9.5515398"><ele>139.0</ele><time>2026-03-29T11:02:23.616Z</time></trkpt><trkpt lat="45.5909948" lon="9.551701"><ele>139.0</ele><time>2026-03-29T11:02:25.616Z</time></trkpt><trkpt lat="45.591066" lon="9.551796"><ele>139.0</ele><time>2026-03-29T11:02:27.616Z</time></trkpt><trkpt lat="45.5911495" lon="9.5519121"><ele>139.0</ele><time>2026-03-29T11:02:29.616Z</time></trkpt><trkpt lat="45.5911924" lon="9.5519884"><ele>139.0</ele><time>2026-03-29T11:02:30.616Z</time></trkpt><trkpt lat="45.5912814" lon="9.5520978"><ele>139.0</ele><time>2026-03-29T11:02:32.616Z</time></trkpt><trkpt lat="45.5913268" lon="9.5521622"><ele>139.0</ele><time>2026-03-29T11:02:33.616Z</time></trkpt><trkpt lat="45.5914152" lon="9.5522447"><ele>139.0</ele><time>2026-03-29T11:02:35.616Z</time></trkpt><trkpt lat="45.5915309" lon="9.5523078"><ele>139.0</ele><time>2026-03-29T11:02:37.616Z</time></trkpt><trkpt lat="45.5916039" lon="9.5523369"><ele>139.0</ele><time>2026-03-29T11:02:38.616Z</time></trkpt><trkpt lat="45.5917255" lon="9.5524267"><ele>139.0</ele><time>2026-03-29T11:02:40.616Z</time></trkpt><trkpt lat="45.5918444" lon="9.5525488"><ele>139.0</ele><time>2026-03-29T11:02:42.616Z</time></trkpt><trkpt lat="45.5919268" lon="9.5525794"><ele>139.0</ele><time>2026-03-29T11:02:44.616Z</time></trkpt><trkpt lat="45.5921445" lon="9.5525619"><ele>139.0</ele><time>2026-03-29T11:02:48.616Z</time></trkpt><trkpt lat="45.5922542" lon="9.5526165"><ele>139.0</ele><time>2026-03-29T11:02:50.616Z</time></trkpt><trkpt lat="45.5923571" lon="9.5527038"><ele>139.2</ele><time>2026-03-29T11:02:53.616Z</time></trkpt><trkpt lat="45.5924215" lon="9.5527372"><ele>139.4</ele><time>2026-03-29T11:02:54.616Z</time></trkpt><trkpt lat="45.59251" lon="9.5527993"><ele>139.6</ele><time>2026-03-29T11:02:56.616Z</time></trkpt><trkpt lat="45.5925705" lon="9.5528252"><ele>139.8</ele><time>2026-03-29T11:02:57.616Z</time></trkpt><trkpt lat="45.5926916" lon="9.5528829"><ele>140.0</ele><time>2026-03-29T11:02:59.616Z</time></trkpt><trkpt lat="45.5928076" lon="9.5529288"><ele>140.0</ele><time>2026-03-29T11:03:01.616Z</time></trkpt><trkpt lat="45.5929124" lon="9.5529863"><ele>140.0</ele><time>2026-03-29T11:03:03.616Z</time></trkpt><trkpt lat="45.5930263" lon="9.5530374"><ele>140.0</ele><time>2026-03-29T11:03:05.615Z</time></trkpt><trkpt lat="45.5931418" lon="9.5531058"><ele>140.0</ele><time>2026-03-29T11:03:07.615Z</time></trkpt><trkpt lat="45.5932618" lon="9.5531498"><ele>140.0</ele><time>2026-03-29T11:03:09.616Z</time></trkpt><trkpt lat="45.593321" lon="9.5531853"><ele>140.0</ele><time>2026-03-29T11:03:10.616Z</time></trkpt><trkpt lat="45.5933856" lon="9.5532295"><ele>140.0</ele><time>2026-03-29T11:03:11.616Z</time></trkpt><trkpt lat="45.5934541" lon="9.5532488"><ele>140.0</ele><time>2026-03-29T11:03:12.616Z</time></trkpt><trkpt lat="45.5935644" lon="9.5532193"><ele>140.0</ele><time>2026-03-29T11:03:14.616Z</time></trkpt><trkpt lat="45.5936713" lon="9.5531637"><ele>140.0</ele><time>2026-03-29T11:03:16.616Z</time></trkpt><trkpt lat="45.5937703" lon="9.5531159"><ele>139.8</ele><time>2026-03-29T11:03:18.616Z</time></trkpt><trkpt lat="45.593891" lon="9.5531347"><ele>139.6</ele><time>2026-03-29T11:03:20.616Z</time></trkpt><trkpt lat="45.5940001" lon="9.5531755"><ele>139.4</ele><time>2026-03-29T11:03:22.616Z</time></trkpt><trkpt lat="45.5940667" lon="9.5531949"><ele>139.2</ele><time>2026-03-29T11:03:23.616Z</time></trkpt><trkpt lat="45.5941674" lon="9.5532493"><ele>139.0</ele><time>2026-03-29T11:03:25.616Z</time></trkpt><trkpt lat="45.5942643" lon="9.5533117"><ele>139.0</ele><time>2026-03-29T11:03:27.616Z</time></trkpt><trkpt lat="45.5943266" lon="9.553349"><ele>139.0</ele><time>2026-03-29T11:03:28.616Z</time></trkpt><trkpt lat="45.594423" lon="9.5534167"><ele>139.0</ele><time>2026-03-29T11:03:30.616Z</time></trkpt><trkpt lat="45.5945198" lon="9.5534437"><ele>139.0</ele><time>2026-03-29T11:03:32.616Z</time></trkpt><trkpt lat="45.5946306" lon="9.5534626"><ele>139.0</ele><time>2026-03-29T11:03:34.616Z</time></trkpt><trkpt lat="45.5947255" lon="9.5534237"><ele>139.0</ele><time>2026-03-29T11:03:36.616Z</time></trkpt><trkpt lat="45.5948481" lon="9.5534267"><ele>139.0</ele><time>2026-03-29T11:03:38.616Z</time></trkpt><trkpt lat="45.5949678" lon="9.5534403"><ele>139.0</ele><time>2026-03-29T11:03:40.615Z</time></trkpt><trkpt lat="45.5951325" lon="9.5534367"><ele>139.0</ele><time>2026-03-29T11:03:43.616Z</time></trkpt><trkpt lat="45.5952878" lon="9.5534587"><ele>139.6</ele><time>2026-03-29T11:03:46.616Z</time></trkpt><trkpt lat="45.595388" lon="9.5534076"><ele>140.2</ele><time>2026-03-29T11:03:48.616Z</time></trkpt><trkpt lat="45.595424" lon="9.553266"><ele>140.79999999999998</ele><time>2026-03-29T11:03:50.616Z</time></trkpt><trkpt lat="45.5954896" lon="9.553176"><ele>141.4</ele><time>2026-03-29T11:03:52.616Z</time></trkpt><trkpt lat="45.5955646" lon="9.5531326"><ele>142.0</ele><time>2026-03-29T11:03:54.616Z</time></trkpt><trkpt lat="45.595647" lon="9.5531377"><ele>142.0</ele><time>2026-03-29T11:03:55.616Z</time></trkpt><trkpt lat="45.5957165" lon="9.553179"><ele>142.0</ele><time>2026-03-29T11:03:57.616Z</time></trkpt><trkpt lat="45.5957809" lon="9.5532208"><ele>142.0</ele><time>2026-03-29T11:03:59.616Z</time></trkpt><trkpt lat="45.5958478" lon="9.5532078"><ele>142.0</ele><time>2026-03-29T11:04:02.615Z</time></trkpt><trkpt lat="45.5958935" lon="9.5530959"><ele>142.0</ele><time>2026-03-29T11:04:05.616Z</time></trkpt><trkpt lat="45.5959497" lon="9.5530489"><ele>142.0</ele><time>2026-03-29T11:04:07.616Z</time></trkpt><trkpt lat="45.59602" lon="9.5530841"><ele>142.0</ele><time>2026-03-29T11:04:09.616Z</time></trkpt><trkpt lat="45.596075" lon="9.5531423"><ele>142.0</ele><time>2026-03-29T11:04:11.616Z</time></trkpt><trkpt lat="45.5961415" lon="9.5532032"><ele>142.0</ele><time>2026-03-29T11:04:13.616Z</time></trkpt><trkpt lat="45.5961972" lon="9.5532684"><ele>142.0</ele><time>2026-03-29T11:04:15.616Z</time></trkpt><trkpt lat="45.5962595" lon="9.5533312"><ele>142.0</ele><time>2026-03-29T11:04:17.616Z</time></trkpt><trkpt lat="45.5963383" lon="9.5533966"><ele>142.0</ele><time>2026-03-29T11:04:19.616Z</time></trkpt><trkpt lat="45.5964203" lon="9.5534478"><ele>142.0</ele><time>2026-03-29T11:04:21.616Z</time></trkpt><trkpt lat="45.5965036" lon="9.5534486"><ele>142.5</ele><time>2026-03-29T11:04:23.616Z</time></trkpt><trkpt lat="45.596598" lon="9.5534389"><ele>143.0</ele><time>2026-03-29T11:04:25.616Z</time></trkpt><trkpt lat="45.5966951" lon="9.5534221"><ele>143.5</ele><time>2026-03-29T11:04:27.615Z</time></trkpt><trkpt lat="45.5967758" lon="9.5534072"><ele>144.0</ele><time>2026-03-29T11:04:29.616Z</time></trkpt><trkpt lat="45.5968655" lon="9.5534015"><ele>144.5</ele><time>2026-03-29T11:04:32.615Z</time></trkpt><trkpt lat="45.5969286" lon="9.5533952"><ele>145.0</ele><time>2026-03-29T11:04:34.616Z</time></trkpt><trkpt lat="45.5970178" lon="9.5533818"><ele>148.5</ele><time>2026-03-29T11:04:37.616Z</time></trkpt><trkpt lat="45.5970896" lon="9.5533832"><ele>152.0</ele><time>2026-03-29T11:04:43.616Z</time></trkpt><trkpt lat="45.597157" lon="9.5534111"><ele>155.5</ele><time>2026-03-29T11:04:46.702Z</time></trkpt><trkpt lat="45.5973597" lon="9.55357"><ele>159.0</ele><time>2026-03-29T11:04:49.616Z</time></trkpt><trkpt lat="45.5974127" lon="9.5536514"><ele>157.66666666666666</ele><time>2026-03-29T11:04:51.615Z</time></trkpt><trkpt lat="45.5974573" lon="9.5537325"><ele>156.33333333333334</ele><time>2026-03-29T11:04:53.616Z</time></trkpt><trkpt lat="45.5975004" lon="9.553822"><ele>155.0</ele><time>2026-03-29T11:04:55.616Z</time></trkpt><trkpt lat="45.5975385" lon="9.5539093"><ele>153.66666666666669</ele><time>2026-03-29T11:04:57.616Z</time></trkpt><trkpt lat="45.597586" lon="9.5539962"><ele>152.33333333333334</ele><time>2026-03-29T11:04:59.616Z</time></trkpt><trkpt lat="45.5976417" lon="9.5540807"><ele>151.0</ele><time>2026-03-29T11:05:01.616Z</time></trkpt><trkpt lat="45.5976968" lon="9.5541581"><ele>151.0</ele><time>2026-03-29T11:05:03.616Z</time></trkpt><trkpt lat="45.5977624" lon="9.5542161"><ele>151.0</ele><time>2026-03-29T11:05:05.616Z</time></trkpt><trkpt lat="45.5978368" lon="9.5542601"><ele>151.0</ele><time>2026-03-29T11:05:07.616Z</time></trkpt><trkpt lat="45.5979091" lon="9.5542949"><ele>151.0</ele><time>2026-03-29T11:05:09.616Z</time></trkpt><trkpt lat="45.5979734" lon="9.5543264"><ele>151.0</ele><time>2026-03-29T11:05:11.616Z</time></trkpt><trkpt lat="45.5980591" lon="9.5543499"><ele>151.0</ele><time>2026-03-29T11:05:14.616Z</time></trkpt><trkpt lat="45.5981529" lon="9.5543722"><ele>151.4</ele><time>2026-03-29T11:05:17.616Z</time></trkpt><trkpt lat="45.5982719" lon="9.5544917"><ele>151.8</ele><time>2026-03-29T11:05:26.615Z</time></trkpt><trkpt lat="45.598337" lon="9.5545383"><ele>152.20000000000002</ele><time>2026-03-29T11:05:29.616Z</time></trkpt><trkpt lat="45.59842" lon="9.5545895"><ele>152.6</ele><time>2026-03-29T11:05:32.616Z</time></trkpt><trkpt lat="45.5985006" lon="9.5546445"><ele>153.0</ele><time>2026-03-29T11:05:35.616Z</time></trkpt><trkpt lat="45.5985656" lon="9.5546801"><ele>153.0</ele><time>2026-03-29T11:05:41.352Z</time></trkpt><trkpt lat="45.5986318" lon="9.5547266"><ele>153.0</ele><time>2026-03-29T11:05:44.25Z</time></trkpt><trkpt lat="45.5987041" lon="9.5547713"><ele>153.0</ele><time>2026-03-29T11:05:47.117Z</time></trkpt><trkpt lat="45.5987843" lon="9.5548188"><ele>153.0</ele><time>2026-03-29T11:05:49.993Z</time></trkpt><trkpt lat="45.5988441" lon="9.5548606"><ele>153.0</ele><time>2026-03-29T11:05:52.616Z</time></trkpt><trkpt lat="45.5989225" lon="9.554918"><ele>153.0</ele><time>2026-03-29T11:05:56.028Z</time></trkpt><trkpt lat="45.5989982" lon="9.5549636"><ele>154.8</ele><time>2026-03-29T11:05:59.248Z</time></trkpt><trkpt lat="45.5990594" lon="9.5549896"><ele>156.60000000000002</ele><time>2026-03-29T11:06:01.615Z</time></trkpt><trkpt lat="45.5991223" lon="9.5550104"><ele>158.39999999999998</ele><time>2026-03-29T11:06:03.616Z</time></trkpt><trkpt lat="45.5991944" lon="9.5550248"><ele>160.2</ele><time>2026-03-29T11:06:05.616Z</time></trkpt><trkpt lat="45.5992777" lon="9.5550369"><ele>162.0</ele><time>2026-03-29T11:06:07.616Z</time></trkpt><trkpt lat="45.5994795" lon="9.5550681"><ele>163.33333333333334</ele><time>2026-03-29T11:06:08.616Z</time></trkpt><trkpt lat="45.5995832" lon="9.5550986"><ele>164.66666666666666</ele><time>2026-03-29T11:06:10.615Z</time></trkpt><trkpt lat="45.599648" lon="9.5551176"><ele>166.0</ele><time>2026-03-29T11:06:12.616Z</time></trkpt><trkpt lat="45.5997178" lon="9.5551274"><ele>167.33333333333331</ele><time>2026-03-29T11:06:14.616Z</time></trkpt><trkpt lat="45.5997935" lon="9.55514"><ele>168.66666666666666</ele><time>2026-03-29T11:06:16.616Z</time></trkpt><trkpt lat="45.5998656" lon="9.5551707"><ele>170.0</ele><time>2026-03-29T11:06:18.615Z</time></trkpt><trkpt lat="45.5999402" lon="9.5551927"><ele>170.0</ele><time>2026-03-29T11:06:20.616Z</time></trkpt><trkpt lat="45.6000045" lon="9.5552109"><ele>170.0</ele><time>2026-03-29T11:06:22.616Z</time></trkpt><trkpt lat="45.6000902" lon="9.5552283"><ele>170.0</ele><time>2026-03-29T11:06:24.616Z</time></trkpt><trkpt lat="45.600172" lon="9.5552633"><ele>170.0</ele><time>2026-03-29T11:06:26.616Z</time></trkpt><trkpt lat="45.6002555" lon="9.5553047"><ele>170.0</ele><time>2026-03-29T11:06:28.616Z</time></trkpt><trkpt lat="45.6003446" lon="9.5553557"><ele>170.0</ele><time>2026-03-29T11:06:30.616Z</time></trkpt><trkpt lat="45.6004314" lon="9.5554049"><ele>169.6</ele><time>2026-03-29T11:06:32.616Z</time></trkpt><trkpt lat="45.6005115" lon="9.5554601"><ele>169.2</ele><time>2026-03-29T11:06:34.616Z</time></trkpt><trkpt lat="45.6005834" lon="9.5555147"><ele>168.8</ele><time>2026-03-29T11:06:36.616Z</time></trkpt><trkpt lat="45.6006759" lon="9.5555851"><ele>168.4</ele><time>2026-03-29T11:06:38.616Z</time></trkpt><trkpt lat="45.6007697" lon="9.5556509"><ele>168.0</ele><time>2026-03-29T11:06:40.616Z</time></trkpt><trkpt lat="45.6008593" lon="9.5556963"><ele>168.0</ele><time>2026-03-29T11:06:42.615Z</time></trkpt><trkpt lat="45.6009461" lon="9.5557446"><ele>168.0</ele><time>2026-03-29T11:06:44.616Z</time></trkpt><trkpt lat="45.6010343" lon="9.5557944"><ele>168.0</ele><time>2026-03-29T11:06:46.615Z</time></trkpt><trkpt lat="45.6011445" lon="9.5558371"><ele>168.0</ele><time>2026-03-29T11:06:48.616Z</time></trkpt><trkpt lat="45.6012429" lon="9.5558967"><ele>168.0</ele><time>2026-03-29T11:06:50.616Z</time></trkpt><trkpt lat="45.6013277" lon="9.5559485"><ele>168.4</ele><time>2026-03-29T11:06:52.615Z</time></trkpt><trkpt lat="45.6014151" lon="9.5559809"><ele>168.8</ele><time>2026-03-29T11:06:54.616Z</time></trkpt><trkpt lat="45.6014914" lon="9.5560049"><ele>169.2</ele><time>2026-03-29T11:06:56.616Z</time></trkpt><trkpt lat="45.6015781" lon="9.5560341"><ele>169.6</ele><time>2026-03-29T11:06:58.616Z</time></trkpt><trkpt lat="45.6016846" lon="9.5560559"><ele>170.0</ele><time>2026-03-29T11:07:01.616Z</time></trkpt><trkpt lat="45.6017832" lon="9.5560768"><ele>170.0</ele><time>2026-03-29T11:07:03.615Z</time></trkpt><trkpt lat="45.601864" lon="9.5560874"><ele>170.0</ele><time>2026-03-29T11:07:05.616Z</time></trkpt><trkpt lat="45.6019835" lon="9.555987"><ele>170.0</ele><time>2026-03-29T11:07:08.616Z</time></trkpt><trkpt lat="45.6020434" lon="9.5559369"><ele>170.0</ele><time>2026-03-29T11:07:09.616Z</time></trkpt><trkpt lat="45.6020982" lon="9.5558911"><ele>170.0</ele><time>2026-03-29T11:07:10.616Z</time></trkpt><trkpt lat="45.6021941" lon="9.5558265"><ele>170.66666666666666</ele><time>2026-03-29T11:07:12.616Z</time></trkpt><trkpt lat="45.6022623" lon="9.5557843"><ele>171.33333333333331</ele><time>2026-03-29T11:07:14.616Z</time></trkpt><trkpt lat="45.6023461" lon="9.5557631"><ele>172.0</ele><time>2026-03-29T11:07:16.616Z</time></trkpt><trkpt lat="45.6024309" lon="9.5557438"><ele>172.66666666666666</ele><time>2026-03-29T11:07:18.616Z</time></trkpt><trkpt lat="45.6025088" lon="9.5557074"><ele>173.33333333333334</ele><time>2026-03-29T11:07:20.616Z</time></trkpt><trkpt lat="45.6025796" lon="9.5556209"><ele>174.0</ele><time>2026-03-29T11:07:22.616Z</time></trkpt><trkpt lat="45.6026484" lon="9.555524"><ele>174.0</ele><time>2026-03-29T11:07:23.616Z</time></trkpt><trkpt lat="45.6026631" lon="9.5553793"><ele>174.0</ele><time>2026-03-29T11:07:25.616Z</time></trkpt><trkpt lat="45.6026668" lon="9.5552373"><ele>174.0</ele><time>2026-03-29T11:07:27.615Z</time></trkpt><trkpt lat="45.6026609" lon="9.5551037"><ele>174.0</ele><time>2026-03-29T11:07:29.616Z</time></trkpt><trkpt lat="45.6026568" lon="9.554974"><ele>174.0</ele><time>2026-03-29T11:07:31.616Z</time></trkpt><trkpt lat="45.6026611" lon="9.5548253"><ele>174.2</ele><time>2026-03-29T11:07:33.616Z</time></trkpt><trkpt lat="45.6026645" lon="9.5547025"><ele>174.39999999999998</ele><time>2026-03-29T11:07:35.616Z</time></trkpt><trkpt lat="45.602662" lon="9.5545704"><ele>174.6</ele><time>2026-03-29T11:07:37.616Z</time></trkpt><trkpt lat="45.6026579" lon="9.5544414"><ele>174.8</ele><time>2026-03-29T11:07:39.615Z</time></trkpt><trkpt lat="45.6026151" lon="9.5543274"><ele>175.0</ele><time>2026-03-29T11:07:41.616Z</time></trkpt><trkpt lat="45.6026235" lon="9.5541938"><ele>175.0</ele><time>2026-03-29T11:07:43.616Z</time></trkpt><trkpt lat="45.6026279" lon="9.5540781"><ele>175.0</ele><time>2026-03-29T11:07:45.615Z</time></trkpt><trkpt lat="45.6026739" lon="9.5539849"><ele>175.0</ele><time>2026-03-29T11:07:47.616Z</time></trkpt><trkpt lat="45.6027799" lon="9.5539462"><ele>175.0</ele><time>2026-03-29T11:07:50.616Z</time></trkpt><trkpt lat="45.6028818" lon="9.553936"><ele>175.0</ele><time>2026-03-29T11:07:52.616Z</time></trkpt><trkpt lat="45.6029758" lon="9.5539188"><ele>175.0</ele><time>2026-03-29T11:07:54.615Z</time></trkpt><trkpt lat="45.6030743" lon="9.553905"><ele>175.0</ele><time>2026-03-29T11:07:56.615Z</time></trkpt><trkpt lat="45.6031762" lon="9.5539179"><ele>175.0</ele><time>2026-03-29T11:07:58.616Z</time></trkpt><trkpt lat="45.6032411" lon="9.5539793"><ele>175.0</ele><time>2026-03-29T11:08:00.616Z</time></trkpt><trkpt lat="45.6032778" lon="9.5540569"><ele>175.0</ele><time>2026-03-29T11:08:01.615Z</time></trkpt><trkpt lat="45.603306" lon="9.5541772"><ele>175.0</ele><time>2026-03-29T11:08:03.616Z</time></trkpt><trkpt lat="45.6033287" lon="9.5543164"><ele>175.0</ele><time>2026-03-29T11:08:05.616Z</time></trkpt><trkpt lat="45.6033468" lon="9.5544805"><ele>175.0</ele><time>2026-03-29T11:08:07.616Z</time></trkpt><trkpt lat="45.6033892" lon="9.5545991"><ele>175.0</ele><time>2026-03-29T11:08:09.616Z</time></trkpt><trkpt lat="45.6034251" lon="9.5546748"><ele>175.0</ele><time>2026-03-29T11:08:10.616Z</time></trkpt><trkpt lat="45.6034481" lon="9.5548315"><ele>175.0</ele><time>2026-03-29T11:08:12.616Z</time></trkpt><trkpt lat="45.6034838" lon="9.5549901"><ele>175.0</ele><time>2026-03-29T11:08:14.615Z</time></trkpt><trkpt lat="45.603511" lon="9.5550897"><ele>175.0</ele><time>2026-03-29T11:08:16.616Z</time></trkpt><trkpt lat="45.6035434" lon="9.5551748"><ele>175.0</ele><time>2026-03-29T11:08:24.616Z</time></trkpt><trkpt lat="45.6030082" lon="9.5549254"><ele>175.0</ele><time>2026-03-29T11:11:04.618Z</time></trkpt><trkpt lat="45.6028645" lon="9.5551165"><ele>175.0</ele><time>2026-03-29T11:11:07.621Z</time></trkpt><trkpt lat="45.6028021" lon="9.5550975"><ele>175.0</ele><time>2026-03-29T11:11:09.621Z</time></trkpt><trkpt lat="45.6026111" lon="9.5550857"><ele>175.0</ele><time>2026-03-29T11:11:10.62Z</time></trkpt><trkpt lat="45.6032707" lon="9.5549619"><ele>175.0</ele><time>2026-03-29T11:11:16.621Z</time></trkpt><trkpt lat="45.6035713" lon="9.5551031"><ele>175.0</ele><time>2026-03-29T11:11:54.618Z</time></trkpt><trkpt lat="45.6036257" lon="9.5552052"><ele>175.0</ele><time>2026-03-29T11:14:43.618Z</time></trkpt><trkpt lat="45.6036229" lon="9.5553219"><ele>175.16666666666669</ele><time>2026-03-29T11:14:45.618Z</time></trkpt><trkpt lat="45.6036243" lon="9.5554354"><ele>175.33333333333334</ele><time>2026-03-29T11:14:47.617Z</time></trkpt><trkpt lat="45.6036391" lon="9.5555478"><ele>175.5</ele><time>2026-03-29T11:14:49.618Z</time></trkpt><trkpt lat="45.603658" lon="9.5556566"><ele>175.66666666666666</ele><time>2026-03-29T11:14:51.618Z</time></trkpt><trkpt lat="45.6037141" lon="9.5557331"><ele>175.83333333333331</ele><time>2026-03-29T11:14:54.617Z</time></trkpt><trkpt lat="45.6037917" lon="9.555728"><ele>176.0</ele><time>2026-03-29T11:14:56.618Z</time></trkpt><trkpt lat="45.6038628" lon="9.5557684"><ele>175.20000000000002</ele><time>2026-03-29T11:14:58.617Z</time></trkpt><trkpt lat="45.6039503" lon="9.5558786"><ele>174.4</ele><time>2026-03-29T11:15:00.618Z</time></trkpt><trkpt lat="45.6039841" lon="9.5559565"><ele>173.6</ele><time>2026-03-29T11:15:01.618Z</time></trkpt><trkpt lat="45.6040422" lon="9.5561001"><ele>172.8</ele><time>2026-03-29T11:15:03.618Z</time></trkpt><trkpt lat="45.6041132" lon="9.5562448"><ele>172.0</ele><time>2026-03-29T11:15:05.618Z</time></trkpt><trkpt lat="45.6041725" lon="9.5563861"><ele>171.5</ele><time>2026-03-29T11:15:07.618Z</time></trkpt><trkpt lat="45.6042379" lon="9.5565205"><ele>171.0</ele><time>2026-03-29T11:15:09.618Z</time></trkpt><trkpt lat="45.60427" lon="9.5566038"><ele>170.5</ele><time>2026-03-29T11:15:10.618Z</time></trkpt><trkpt lat="45.6043173" lon="9.556693"><ele>170.0</ele><time>2026-03-29T11:15:11.618Z</time></trkpt><trkpt lat="45.6043523" lon="9.5567727"><ele>169.5</ele><time>2026-03-29T11:15:12.618Z</time></trkpt><trkpt lat="45.6043892" lon="9.5568564"><ele>169.0</ele><time>2026-03-29T11:15:13.617Z</time></trkpt><trkpt lat="45.6044326" lon="9.5569397"><ele>169.0</ele><time>2026-03-29T11:15:14.618Z</time></trkpt><trkpt lat="45.6044729" lon="9.5570204"><ele>169.0</ele><time>2026-03-29T11:15:15.617Z</time></trkpt><trkpt lat="45.6045117" lon="9.5571071"><ele>169.0</ele><time>2026-03-29T11:15:16.618Z</time></trkpt><trkpt lat="45.6045457" lon="9.5571897"><ele>169.0</ele><time>2026-03-29T11:15:17.618Z</time></trkpt><trkpt lat="45.6045897" lon="9.5572684"><ele>169.0</ele><time>2026-03-29T11:15:18.618Z</time></trkpt><trkpt lat="45.604631" lon="9.5573567"><ele>169.0</ele><time>2026-03-29T11:15:19.618Z</time></trkpt><trkpt lat="45.6046663" lon="9.5574364"><ele>169.0</ele><time>2026-03-29T11:15:20.618Z</time></trkpt><trkpt lat="45.6047329" lon="9.5575941"><ele>168.66666666666669</ele><time>2026-03-29T11:15:22.617Z</time></trkpt><trkpt lat="45.6047761" lon="9.5576863"><ele>168.33333333333334</ele><time>2026-03-29T11:15:23.618Z</time></trkpt><trkpt lat="45.6047977" lon="9.5578515"><ele>168.0</ele><time>2026-03-29T11:15:25.618Z</time></trkpt><trkpt lat="45.6047876" lon="9.5579415"><ele>167.66666666666666</ele><time>2026-03-29T11:15:26.618Z</time></trkpt><trkpt lat="45.6047534" lon="9.5580236"><ele>167.33333333333331</ele><time>2026-03-29T11:15:27.618Z</time></trkpt><trkpt lat="45.6047274" lon="9.558127"><ele>167.0</ele><time>2026-03-29T11:15:28.618Z</time></trkpt><trkpt lat="45.6047064" lon="9.558222"><ele>165.66666666666666</ele><time>2026-03-29T11:15:29.618Z</time></trkpt><trkpt lat="45.604684" lon="9.5583112"><ele>164.33333333333331</ele><time>2026-03-29T11:15:30.617Z</time></trkpt><trkpt lat="45.6046585" lon="9.5584021"><ele>163.0</ele><time>2026-03-29T11:15:31.618Z</time></trkpt><trkpt lat="45.6046052" lon="9.5585618"><ele>161.66666666666666</ele><time>2026-03-29T11:15:33.618Z</time></trkpt><trkpt lat="45.6045751" lon="9.5586485"><ele>160.33333333333334</ele><time>2026-03-29T11:15:34.618Z</time></trkpt><trkpt lat="45.6045537" lon="9.5587406"><ele>159.0</ele><time>2026-03-29T11:15:35.617Z</time></trkpt><trkpt lat="45.6045258" lon="9.5588291"><ele>159.2</ele><time>2026-03-29T11:15:36.618Z</time></trkpt><trkpt lat="45.6044696" lon="9.55899"><ele>159.4</ele><time>2026-03-29T11:15:38.618Z</time></trkpt><trkpt lat="45.6044222" lon="9.5591656"><ele>159.6</ele><time>2026-03-29T11:15:40.618Z</time></trkpt><trkpt lat="45.6043765" lon="9.5593263"><ele>159.8</ele><time>2026-03-29T11:15:42.618Z</time></trkpt><trkpt lat="45.6043512" lon="9.5594116"><ele>160.0</ele><time>2026-03-29T11:15:43.618Z</time></trkpt><trkpt lat="45.60433" lon="9.5594976"><ele>160.66666666666669</ele><time>2026-03-29T11:15:44.618Z</time></trkpt><trkpt lat="45.6043098" lon="9.5596794"><ele>161.33333333333334</ele><time>2026-03-29T11:15:46.618Z</time></trkpt><trkpt lat="45.6043029" lon="9.5597689"><ele>162.0</ele><time>2026-03-29T11:15:47.618Z</time></trkpt><trkpt lat="45.6043046" lon="9.5598646"><ele>162.66666666666666</ele><time>2026-03-29T11:15:48.618Z</time></trkpt><trkpt lat="45.60431" lon="9.5599602"><ele>163.33333333333331</ele><time>2026-03-29T11:15:49.618Z</time></trkpt><trkpt lat="45.6043205" lon="9.5600511"><ele>164.0</ele><time>2026-03-29T11:15:50.617Z</time></trkpt><trkpt lat="45.6043332" lon="9.5601421"><ele>164.0</ele><time>2026-03-29T11:15:51.618Z</time></trkpt><trkpt lat="45.6043618" lon="9.5603146"><ele>164.0</ele><time>2026-03-29T11:15:53.617Z</time></trkpt><trkpt lat="45.6043961" lon="9.5604827"><ele>164.0</ele><time>2026-03-29T11:15:55.618Z</time></trkpt><trkpt lat="45.6044233" lon="9.560641"><ele>164.0</ele><time>2026-03-29T11:15:57.618Z</time></trkpt><trkpt lat="45.6044754" lon="9.5607481"><ele>164.39999999999998</ele><time>2026-03-29T11:15:59.618Z</time></trkpt><trkpt lat="45.6045504" lon="9.5606929"><ele>164.8</ele><time>2026-03-29T11:16:01.618Z</time></trkpt><trkpt lat="45.6046416" lon="9.5605999"><ele>165.2</ele><time>2026-03-29T11:16:03.617Z</time></trkpt><trkpt lat="45.6047524" lon="9.5605285"><ele>165.60000000000002</ele><time>2026-03-29T11:16:05.618Z</time></trkpt><trkpt lat="45.6048686" lon="9.5605008"><ele>166.0</ele><time>2026-03-29T11:16:07.617Z</time></trkpt><trkpt lat="45.6049914" lon="9.5605044"><ele>166.0</ele><time>2026-03-29T11:16:09.618Z</time></trkpt><trkpt lat="45.6051193" lon="9.5605044"><ele>166.0</ele><time>2026-03-29T11:16:11.618Z</time></trkpt><trkpt lat="45.6052149" lon="9.5605226"><ele>166.0</ele><time>2026-03-29T11:16:13.618Z</time></trkpt><trkpt lat="45.6052819" lon="9.5605054"><ele>166.0</ele><time>2026-03-29T11:16:14.618Z</time></trkpt><trkpt lat="45.6053503" lon="9.5604822"><ele>166.0</ele><time>2026-03-29T11:16:15.618Z</time></trkpt><trkpt lat="45.6054275" lon="9.5604619"><ele>166.0</ele><time>2026-03-29T11:16:16.618Z</time></trkpt><trkpt lat="45.6055511" lon="9.5604901"><ele>165.5</ele><time>2026-03-29T11:16:18.618Z</time></trkpt><trkpt lat="45.6056218" lon="9.5605196"><ele>165.0</ele><time>2026-03-29T11:16:19.618Z</time></trkpt><trkpt lat="45.6056855" lon="9.5605591"><ele>164.5</ele><time>2026-03-29T11:16:20.618Z</time></trkpt><trkpt lat="45.6057421" lon="9.5606019"><ele>164.0</ele><time>2026-03-29T11:16:21.618Z</time></trkpt><trkpt lat="45.6058017" lon="9.5606425"><ele>163.5</ele><time>2026-03-29T11:16:22.618Z</time></trkpt><trkpt lat="45.6059203" lon="9.5607428"><ele>163.0</ele><time>2026-03-29T11:16:24.618Z</time></trkpt><trkpt lat="45.6059792" lon="9.5607981"><ele>163.0</ele><time>2026-03-29T11:16:25.618Z</time></trkpt><trkpt lat="45.6060342" lon="9.5608525"><ele>163.0</ele><time>2026-03-29T11:16:26.618Z</time></trkpt><trkpt lat="45.6060991" lon="9.5609087"><ele>163.0</ele><time>2026-03-29T11:16:27.618Z</time></trkpt><trkpt lat="45.6061634" lon="9.5609754"><ele>163.0</ele><time>2026-03-29T11:16:28.618Z</time></trkpt><trkpt lat="45.6062266" lon="9.5610311"><ele>163.0</ele><time>2026-03-29T11:16:29.618Z</time></trkpt><trkpt lat="45.60629" lon="9.5610845"><ele>163.0</ele><time>2026-03-29T11:16:30.617Z</time></trkpt><trkpt lat="45.6063585" lon="9.561142"><ele>163.0</ele><time>2026-03-29T11:16:31.617Z</time></trkpt><trkpt lat="45.6064173" lon="9.5611995"><ele>162.33333333333334</ele><time>2026-03-29T11:16:32.618Z</time></trkpt><trkpt lat="45.6064738" lon="9.5612733"><ele>161.66666666666669</ele><time>2026-03-29T11:16:33.618Z</time></trkpt><trkpt lat="45.6065228" lon="9.5613455"><ele>161.0</ele><time>2026-03-29T11:16:34.618Z</time></trkpt><trkpt lat="45.6065592" lon="9.561424"><ele>160.33333333333334</ele><time>2026-03-29T11:16:35.618Z</time></trkpt><trkpt lat="45.6065924" lon="9.5615057"><ele>159.66666666666666</ele><time>2026-03-29T11:16:36.617Z</time></trkpt><trkpt lat="45.6066355" lon="9.5616622"><ele>159.0</ele><time>2026-03-29T11:16:38.618Z</time></trkpt><trkpt lat="45.6066589" lon="9.5618014"><ele>159.0</ele><time>2026-03-29T11:16:40.618Z</time></trkpt><trkpt lat="45.6066864" lon="9.5619141"><ele>159.0</ele><time>2026-03-29T11:16:42.617Z</time></trkpt><trkpt lat="45.6067235" lon="9.5620194"><ele>159.0</ele><time>2026-03-29T11:16:44.618Z</time></trkpt><trkpt lat="45.6067495" lon="9.5621259"><ele>159.0</ele><time>2026-03-29T11:16:46.618Z</time></trkpt><trkpt lat="45.6067688" lon="9.5622191"><ele>159.0</ele><time>2026-03-29T11:16:48.618Z</time></trkpt><trkpt lat="45.6067875" lon="9.5623075"><ele>159.0</ele><time>2026-03-29T11:16:50.618Z</time></trkpt><trkpt lat="45.6068073" lon="9.5623945"><ele>159.0</ele><time>2026-03-29T11:16:52.618Z</time></trkpt><trkpt lat="45.606835" lon="9.5624765"><ele>159.5</ele><time>2026-03-29T11:16:54.618Z</time></trkpt><trkpt lat="45.6068736" lon="9.5625483"><ele>160.0</ele><time>2026-03-29T11:16:56.618Z</time></trkpt><trkpt lat="45.6069457" lon="9.5626065"><ele>160.5</ele><time>2026-03-29T11:16:59.618Z</time></trkpt><trkpt lat="45.6070111" lon="9.5626183"><ele>161.0</ele><time>2026-03-29T11:17:09.618Z</time></trkpt><trkpt lat="45.6070955" lon="9.5626789"><ele>161.5</ele><time>2026-03-29T11:17:12.617Z</time></trkpt><trkpt lat="45.6071727" lon="9.5627325"><ele>162.0</ele><time>2026-03-29T11:17:14.618Z</time></trkpt><trkpt lat="45.6072555" lon="9.562778"><ele>162.0</ele><time>2026-03-29T11:17:16.618Z</time></trkpt><trkpt lat="45.6073317" lon="9.5628041"><ele>162.0</ele><time>2026-03-29T11:17:18.618Z</time></trkpt><trkpt lat="45.6074158" lon="9.5628117"><ele>162.0</ele><time>2026-03-29T11:17:20.618Z</time></trkpt><trkpt lat="45.6075007" lon="9.5628126"><ele>162.0</ele><time>2026-03-29T11:17:22.617Z</time></trkpt><trkpt lat="45.6076124" lon="9.5628159"><ele>162.0</ele><time>2026-03-29T11:17:24.618Z</time></trkpt><trkpt lat="45.6077045" lon="9.5628161"><ele>162.0</ele><time>2026-03-29T11:17:26.618Z</time></trkpt><trkpt lat="45.6077981" lon="9.562814"><ele>162.0</ele><time>2026-03-29T11:17:28.618Z</time></trkpt><trkpt lat="45.6078908" lon="9.5628163"><ele>162.0</ele><time>2026-03-29T11:17:30.618Z</time></trkpt><trkpt lat="45.6079841" lon="9.5628234"><ele>162.0</ele><time>2026-03-29T11:17:32.618Z</time></trkpt><trkpt lat="45.6080823" lon="9.5628429"><ele>162.0</ele><time>2026-03-29T11:17:34.618Z</time></trkpt><trkpt lat="45.6081745" lon="9.5628644"><ele>162.83333333333334</ele><time>2026-03-29T11:17:36.618Z</time></trkpt><trkpt lat="45.6082656" lon="9.562886"><ele>163.66666666666666</ele><time>2026-03-29T11:17:38.618Z</time></trkpt><trkpt lat="45.6083657" lon="9.5628995"><ele>164.5</ele><time>2026-03-29T11:17:40.617Z</time></trkpt><trkpt lat="45.6084512" lon="9.5629058"><ele>165.33333333333331</ele><time>2026-03-29T11:17:42.618Z</time></trkpt><trkpt lat="45.6085213" lon="9.5629078"><ele>166.16666666666666</ele><time>2026-03-29T11:17:44.618Z</time></trkpt><trkpt lat="45.608605" lon="9.5628934"><ele>167.0</ele><time>2026-03-29T11:17:47.618Z</time></trkpt><trkpt lat="45.6086797" lon="9.5629014"><ele>167.6</ele><time>2026-03-29T11:17:50.618Z</time></trkpt><trkpt lat="45.6087625" lon="9.5629212"><ele>168.2</ele><time>2026-03-29T11:17:52.618Z</time></trkpt><trkpt lat="45.6088455" lon="9.5629426"><ele>168.8</ele><time>2026-03-29T11:17:54.618Z</time></trkpt><trkpt lat="45.6089477" lon="9.5629546"><ele>169.4</ele><time>2026-03-29T11:17:56.618Z</time></trkpt><trkpt lat="45.6090701" lon="9.5629475"><ele>170.0</ele><time>2026-03-29T11:17:58.618Z</time></trkpt><trkpt lat="45.6091759" lon="9.562903"><ele>168.66666666666666</ele><time>2026-03-29T11:18:00.618Z</time></trkpt><trkpt lat="45.6092549" lon="9.5628332"><ele>167.33333333333331</ele><time>2026-03-29T11:18:02.618Z</time></trkpt><trkpt lat="45.6093207" lon="9.5627522"><ele>166.0</ele><time>2026-03-29T11:18:04.618Z</time></trkpt><trkpt lat="45.6093879" lon="9.5626584"><ele>164.66666666666666</ele><time>2026-03-29T11:18:06.618Z</time></trkpt><trkpt lat="45.6094673" lon="9.562597"><ele>163.33333333333334</ele><time>2026-03-29T11:18:08.618Z</time></trkpt><trkpt lat="45.6095426" lon="9.5625669"><ele>162.0</ele><time>2026-03-29T11:18:10.618Z</time></trkpt><trkpt lat="45.6096182" lon="9.5625618"><ele>162.0</ele><time>2026-03-29T11:18:12.618Z</time></trkpt><trkpt lat="45.6097089" lon="9.5625431"><ele>162.0</ele><time>2026-03-29T11:18:14.618Z</time></trkpt><trkpt lat="45.6097812" lon="9.5625232"><ele>162.0</ele><time>2026-03-29T11:18:16.617Z</time></trkpt><trkpt lat="45.6098495" lon="9.5625363"><ele>162.0</ele><time>2026-03-29T11:18:19.618Z</time></trkpt><trkpt lat="45.6099406" lon="9.5625247"><ele>162.0</ele><time>2026-03-29T11:18:22.617Z</time></trkpt><trkpt lat="45.6100119" lon="9.5625128"><ele>162.0</ele><time>2026-03-29T11:18:24.618Z</time></trkpt><trkpt lat="45.6100783" lon="9.5624925"><ele>162.0</ele><time>2026-03-29T11:18:26.618Z</time></trkpt><trkpt lat="45.6101706" lon="9.5624737"><ele>162.0</ele><time>2026-03-29T11:18:29.617Z</time></trkpt><trkpt lat="45.6102417" lon="9.5624617"><ele>162.0</ele><time>2026-03-29T11:18:31.618Z</time></trkpt><trkpt lat="45.6103111" lon="9.5624644"><ele>162.0</ele><time>2026-03-29T11:18:33.617Z</time></trkpt><trkpt lat="45.6103956" lon="9.5624503"><ele>162.0</ele><time>2026-03-29T11:18:35.618Z</time></trkpt><trkpt lat="45.6104801" lon="9.5624186"><ele>162.0</ele><time>2026-03-29T11:18:37.618Z</time></trkpt><trkpt lat="45.6105566" lon="9.5623845"><ele>162.16666666666666</ele><time>2026-03-29T11:18:39.617Z</time></trkpt><trkpt lat="45.6106241" lon="9.5623607"><ele>162.33333333333334</ele><time>2026-03-29T11:18:41.618Z</time></trkpt><trkpt lat="45.610681" lon="9.5623206"><ele>162.5</ele><time>2026-03-29T11:18:43.618Z</time></trkpt><trkpt lat="45.6107553" lon="9.5622804"><ele>162.66666666666669</ele><time>2026-03-29T11:18:45.618Z</time></trkpt><trkpt lat="45.6108452" lon="9.5622124"><ele>162.83333333333334</ele><time>2026-03-29T11:18:47.618Z</time></trkpt><trkpt lat="45.6109352" lon="9.5621525"><ele>163.0</ele><time>2026-03-29T11:18:49.618Z</time></trkpt><trkpt lat="45.6110193" lon="9.5620895"><ele>162.20000000000002</ele><time>2026-03-29T11:18:51.618Z</time></trkpt><trkpt lat="45.6110981" lon="9.5620193"><ele>161.4</ele><time>2026-03-29T11:18:53.618Z</time></trkpt><trkpt lat="45.6111825" lon="9.5619639"><ele>160.60000000000002</ele><time>2026-03-29T11:18:55.617Z</time></trkpt><trkpt lat="45.611271" lon="9.5619127"><ele>159.8</ele><time>2026-03-29T11:18:57.618Z</time></trkpt><trkpt lat="45.6113657" lon="9.5618727"><ele>159.0</ele><time>2026-03-29T11:18:59.618Z</time></trkpt><trkpt lat="45.6114642" lon="9.5618458"><ele>159.0</ele><time>2026-03-29T11:19:01.618Z</time></trkpt><trkpt lat="45.6115744" lon="9.5617974"><ele>159.0</ele><time>2026-03-29T11:19:03.618Z</time></trkpt><trkpt lat="45.6116919" lon="9.5617638"><ele>159.0</ele><time>2026-03-29T11:19:05.618Z</time></trkpt><trkpt lat="45.6117981" lon="9.5617283"><ele>159.0</ele><time>2026-03-29T11:19:07.618Z</time></trkpt><trkpt lat="45.6118849" lon="9.5616751"><ele>159.0</ele><time>2026-03-29T11:19:09.618Z</time></trkpt><trkpt lat="45.611967" lon="9.5616072"><ele>161.0</ele><time>2026-03-29T11:19:11.618Z</time></trkpt><trkpt lat="45.6120508" lon="9.5615306"><ele>163.0</ele><time>2026-03-29T11:19:13.617Z</time></trkpt><trkpt lat="45.6121351" lon="9.5614566"><ele>165.0</ele><time>2026-03-29T11:19:15.618Z</time></trkpt><trkpt lat="45.6122247" lon="9.5614001"><ele>167.0</ele><time>2026-03-29T11:19:17.618Z</time></trkpt><trkpt lat="45.6123118" lon="9.5613367"><ele>169.0</ele><time>2026-03-29T11:19:19.618Z</time></trkpt><trkpt lat="45.6124104" lon="9.5612894"><ele>169.0</ele><time>2026-03-29T11:19:21.618Z</time></trkpt><trkpt lat="45.6125062" lon="9.5612222"><ele>169.0</ele><time>2026-03-29T11:19:23.618Z</time></trkpt><trkpt lat="45.6125716" lon="9.5611776"><ele>169.0</ele><time>2026-03-29T11:19:25.618Z</time></trkpt><trkpt lat="45.6126611" lon="9.561114"><ele>169.0</ele><time>2026-03-29T11:19:27.618Z</time></trkpt><trkpt lat="45.6127631" lon="9.5610292"><ele>169.0</ele><time>2026-03-29T11:19:29.618Z</time></trkpt><trkpt lat="45.6128675" lon="9.5609509"><ele>168.79999999999998</ele><time>2026-03-29T11:19:31.618Z</time></trkpt><trkpt lat="45.6129795" lon="9.5608889"><ele>168.6</ele><time>2026-03-29T11:19:33.618Z</time></trkpt><trkpt lat="45.6131029" lon="9.5608282"><ele>168.4</ele><time>2026-03-29T11:19:35.618Z</time></trkpt><trkpt lat="45.6131683" lon="9.5607977"><ele>168.2</ele><time>2026-03-29T11:19:36.618Z</time></trkpt><trkpt lat="45.6132851" lon="9.5607323"><ele>168.0</ele><time>2026-03-29T11:19:38.617Z</time></trkpt><trkpt lat="45.6133949" lon="9.5606738"><ele>168.0</ele><time>2026-03-29T11:19:40.618Z</time></trkpt><trkpt lat="45.6135061" lon="9.5606286"><ele>168.0</ele><time>2026-03-29T11:19:42.618Z</time></trkpt><trkpt lat="45.6136139" lon="9.5605949"><ele>168.0</ele><time>2026-03-29T11:19:44.618Z</time></trkpt><trkpt lat="45.6137262" lon="9.5605706"><ele>168.0</ele><time>2026-03-29T11:19:46.618Z</time></trkpt><trkpt lat="45.6138098" lon="9.5605438"><ele>168.0</ele><time>2026-03-29T11:19:50.618Z</time></trkpt><trkpt lat="45.6139021" lon="9.5605171"><ele>168.2</ele><time>2026-03-29T11:19:53.618Z</time></trkpt><trkpt lat="45.614017" lon="9.5604784"><ele>168.4</ele><time>2026-03-29T11:19:55.617Z</time></trkpt><trkpt lat="45.6141316" lon="9.56046"><ele>168.6</ele><time>2026-03-29T11:19:57.617Z</time></trkpt><trkpt lat="45.614216" lon="9.5604588"><ele>168.79999999999998</ele><time>2026-03-29T11:19:59.618Z</time></trkpt><trkpt lat="45.6143072" lon="9.5604577"><ele>169.0</ele><time>2026-03-29T11:20:02.617Z</time></trkpt><trkpt lat="45.614365" lon="9.5604179"><ele>166.0</ele><time>2026-03-29T11:20:04.618Z</time></trkpt><trkpt lat="45.614896" lon="9.5603241"><ele>166.0</ele><time>2026-03-29T11:20:07.618Z</time></trkpt><trkpt lat="45.6149818" lon="9.5602319"><ele>166.0</ele><time>2026-03-29T11:20:09.618Z</time></trkpt><trkpt lat="45.6150818" lon="9.5601681"><ele>166.0</ele><time>2026-03-29T11:20:11.618Z</time></trkpt><trkpt lat="45.6151798" lon="9.5601206"><ele>166.0</ele><time>2026-03-29T11:20:13.618Z</time></trkpt><trkpt lat="45.6152543" lon="9.5600805"><ele>166.0</ele><time>2026-03-29T11:20:15.618Z</time></trkpt><trkpt lat="45.6153355" lon="9.560028"><ele>167.66666666666669</ele><time>2026-03-29T11:20:18.617Z</time></trkpt><trkpt lat="45.6154308" lon="9.5600143"><ele>169.33333333333334</ele><time>2026-03-29T11:20:21.618Z</time></trkpt><trkpt lat="45.615496" lon="9.5600137"><ele>171.0</ele><time>2026-03-29T11:20:26.676Z</time></trkpt><trkpt lat="45.6158253" lon="9.5600342"><ele>171.0</ele><time>2026-03-29T11:20:30.688Z</time></trkpt><trkpt lat="45.6158903" lon="9.5600948"><ele>171.0</ele><time>2026-03-29T11:20:33.619Z</time></trkpt><trkpt lat="45.6159765" lon="9.5601618"><ele>171.0</ele><time>2026-03-29T11:20:35.615Z</time></trkpt><trkpt lat="45.61606" lon="9.5602272"><ele>171.0</ele><time>2026-03-29T11:20:37.615Z</time></trkpt><trkpt lat="45.616134" lon="9.5602667"><ele>171.0</ele><time>2026-03-29T11:20:39.614Z</time></trkpt><trkpt lat="45.6162076" lon="9.5603097"><ele>171.0</ele><time>2026-03-29T11:20:41.615Z</time></trkpt><trkpt lat="45.616281" lon="9.5603294"><ele>171.20000000000002</ele><time>2026-03-29T11:20:43.615Z</time></trkpt><trkpt lat="45.6163663" lon="9.5603382"><ele>171.4</ele><time>2026-03-29T11:20:45.615Z</time></trkpt><trkpt lat="45.6164457" lon="9.5603481"><ele>171.6</ele><time>2026-03-29T11:20:47.615Z</time></trkpt><trkpt lat="45.6165216" lon="9.560364"><ele>171.8</ele><time>2026-03-29T11:20:49.614Z</time></trkpt><trkpt lat="45.6166094" lon="9.5603857"><ele>172.0</ele><time>2026-03-29T11:20:51.615Z</time></trkpt><trkpt lat="45.6167478" lon="9.5604094"><ele>172.0</ele><time>2026-03-29T11:20:53.615Z</time></trkpt><trkpt lat="45.6168379" lon="9.5604315"><ele>172.0</ele><time>2026-03-29T11:20:55.615Z</time></trkpt><trkpt lat="45.6169323" lon="9.5604585"><ele>172.0</ele><time>2026-03-29T11:20:57.615Z</time></trkpt><trkpt lat="45.617032" lon="9.5604513"><ele>172.0</ele><time>2026-03-29T11:20:59.615Z</time></trkpt><trkpt lat="45.6171263" lon="9.5604894"><ele>172.0</ele><time>2026-03-29T11:21:01.615Z</time></trkpt><trkpt lat="45.6171938" lon="9.5605419"><ele>172.5</ele><time>2026-03-29T11:21:03.615Z</time></trkpt><trkpt lat="45.6172788" lon="9.5605965"><ele>173.0</ele><time>2026-03-29T11:21:06.615Z</time></trkpt><trkpt lat="45.6173585" lon="9.5606481"><ele>173.5</ele><time>2026-03-29T11:21:08.615Z</time></trkpt><trkpt lat="45.617429" lon="9.5607164"><ele>174.0</ele><time>2026-03-29T11:21:10.615Z</time></trkpt><trkpt lat="45.617507" lon="9.5607704"><ele>174.5</ele><time>2026-03-29T11:21:12.615Z</time></trkpt><trkpt lat="45.6175834" lon="9.5607721"><ele>175.0</ele><time>2026-03-29T11:21:13.615Z</time></trkpt><trkpt lat="45.6176532" lon="9.5607762"><ele>175.0</ele><time>2026-03-29T11:21:14.615Z</time></trkpt><trkpt lat="45.6177226" lon="9.5607749"><ele>175.0</ele><time>2026-03-29T11:21:15.615Z</time></trkpt><trkpt lat="45.6177995" lon="9.5607971"><ele>175.0</ele><time>2026-03-29T11:21:16.614Z</time></trkpt><trkpt lat="45.6178666" lon="9.5608249"><ele>175.0</ele><time>2026-03-29T11:21:17.615Z</time></trkpt><trkpt lat="45.6179342" lon="9.5608599"><ele>175.0</ele><time>2026-03-29T11:21:18.615Z</time></trkpt><trkpt lat="45.6180473" lon="9.5609281"><ele>175.0</ele><time>2026-03-29T11:21:20.615Z</time></trkpt><trkpt lat="45.618156" lon="9.5610069"><ele>174.6</ele><time>2026-03-29T11:21:22.615Z</time></trkpt><trkpt lat="45.6182176" lon="9.5610535"><ele>174.2</ele><time>2026-03-29T11:21:23.615Z</time></trkpt><trkpt lat="45.6183138" lon="9.5611539"><ele>173.8</ele><time>2026-03-29T11:21:25.615Z</time></trkpt><trkpt lat="45.6184221" lon="9.5612386"><ele>173.4</ele><time>2026-03-29T11:21:27.615Z</time></trkpt><trkpt lat="45.618489" lon="9.5612859"><ele>173.0</ele><time>2026-03-29T11:21:28.615Z</time></trkpt><trkpt lat="45.6185934" lon="9.5613377"><ele>173.0</ele><time>2026-03-29T11:21:30.615Z</time></trkpt><trkpt lat="45.618711" lon="9.5614378"><ele>173.0</ele><time>2026-03-29T11:21:32.615Z</time></trkpt><trkpt lat="45.6188105" lon="9.5615257"><ele>173.0</ele><time>2026-03-29T11:21:34.615Z</time></trkpt><trkpt lat="45.6189163" lon="9.5616197"><ele>173.0</ele><time>2026-03-29T11:21:36.615Z</time></trkpt><trkpt lat="45.61901" lon="9.5616968"><ele>173.0</ele><time>2026-03-29T11:21:38.615Z</time></trkpt><trkpt lat="45.6191159" lon="9.5617773"><ele>173.0</ele><time>2026-03-29T11:21:40.615Z</time></trkpt><trkpt lat="45.6192142" lon="9.5618695"><ele>173.0</ele><time>2026-03-29T11:21:42.615Z</time></trkpt><trkpt lat="45.6193082" lon="9.5619503"><ele>173.0</ele><time>2026-03-29T11:21:44.615Z</time></trkpt><trkpt lat="45.6194103" lon="9.5620282"><ele>174.25</ele><time>2026-03-29T11:21:46.615Z</time></trkpt><trkpt lat="45.6195081" lon="9.562109"><ele>175.5</ele><time>2026-03-29T11:21:48.615Z</time></trkpt><trkpt lat="45.6196068" lon="9.5621855"><ele>176.75</ele><time>2026-03-29T11:21:50.615Z</time></trkpt><trkpt lat="45.6197022" lon="9.5622763"><ele>178.0</ele><time>2026-03-29T11:21:52.615Z</time></trkpt><trkpt lat="45.6198052" lon="9.5623413"><ele>178.0</ele><time>2026-03-29T11:21:54.615Z</time></trkpt><trkpt lat="45.6199033" lon="9.562371"><ele>178.0</ele><time>2026-03-29T11:21:56.615Z</time></trkpt><trkpt lat="45.6200108" lon="9.5623941"><ele>178.0</ele><time>2026-03-29T11:21:58.615Z</time></trkpt><trkpt lat="45.6201214" lon="9.5624045"><ele>178.0</ele><time>2026-03-29T11:22:00.615Z</time></trkpt><trkpt lat="45.6201885" lon="9.5624222"><ele>178.0</ele><time>2026-03-29T11:22:01.615Z</time></trkpt><trkpt lat="45.6203056" lon="9.5624423"><ele>177.5</ele><time>2026-03-29T11:22:03.615Z</time></trkpt><trkpt lat="45.6204067" lon="9.562494"><ele>177.0</ele><time>2026-03-29T11:22:05.615Z</time></trkpt><trkpt lat="45.6205101" lon="9.5625419"><ele>176.5</ele><time>2026-03-29T11:22:07.615Z</time></trkpt><trkpt lat="45.6206216" lon="9.562571"><ele>176.0</ele><time>2026-03-29T11:22:09.615Z</time></trkpt><trkpt lat="45.6207367" lon="9.5626441"><ele>176.0</ele><time>2026-03-29T11:22:11.615Z</time></trkpt><trkpt lat="45.6208436" lon="9.5627092"><ele>176.0</ele><time>2026-03-29T11:22:13.615Z</time></trkpt><trkpt lat="45.6209517" lon="9.5627704"><ele>176.0</ele><time>2026-03-29T11:22:15.615Z</time></trkpt><trkpt lat="45.6210704" lon="9.5628161"><ele>176.0</ele><time>2026-03-29T11:22:17.615Z</time></trkpt><trkpt lat="45.6211781" lon="9.5628458"><ele>176.5</ele><time>2026-03-29T11:22:19.615Z</time></trkpt><trkpt lat="45.6212845" lon="9.5628704"><ele>177.0</ele><time>2026-03-29T11:22:21.615Z</time></trkpt><trkpt lat="45.621396" lon="9.5628977"><ele>177.5</ele><time>2026-03-29T11:22:23.614Z</time></trkpt><trkpt lat="45.6215131" lon="9.5629255"><ele>178.0</ele><time>2026-03-29T11:22:25.615Z</time></trkpt><trkpt lat="45.6216293" lon="9.5629576"><ele>178.0</ele><time>2026-03-29T11:22:27.615Z</time></trkpt><trkpt lat="45.6217504" lon="9.5629763"><ele>178.0</ele><time>2026-03-29T11:22:29.615Z</time></trkpt><trkpt lat="45.6218635" lon="9.5630144"><ele>178.0</ele><time>2026-03-29T11:22:31.614Z</time></trkpt><trkpt lat="45.6219797" lon="9.5630626"><ele>178.0</ele><time>2026-03-29T11:22:33.615Z</time></trkpt><trkpt lat="45.6221017" lon="9.5630858"><ele>177.60000000000002</ele><time>2026-03-29T11:22:35.615Z</time></trkpt><trkpt lat="45.6222107" lon="9.5630827"><ele>177.20000000000002</ele><time>2026-03-29T11:22:37.615Z</time></trkpt><trkpt lat="45.6222729" lon="9.5630652"><ele>176.8</ele><time>2026-03-29T11:22:38.615Z</time></trkpt><trkpt lat="45.6223714" lon="9.5630143"><ele>176.4</ele><time>2026-03-29T11:22:40.615Z</time></trkpt><trkpt lat="45.6224837" lon="9.5629585"><ele>176.0</ele><time>2026-03-29T11:22:42.614Z</time></trkpt><trkpt lat="45.6226036" lon="9.5629103"><ele>176.0</ele><time>2026-03-29T11:22:44.615Z</time></trkpt><trkpt lat="45.622666" lon="9.5628864"><ele>176.0</ele><time>2026-03-29T11:22:45.614Z</time></trkpt><trkpt lat="45.6227647" lon="9.5628395"><ele>176.0</ele><time>2026-03-29T11:22:47.615Z</time></trkpt><trkpt lat="45.6228739" lon="9.5627815"><ele>176.0</ele><time>2026-03-29T11:22:49.615Z</time></trkpt><trkpt lat="45.6229785" lon="9.5627392"><ele>176.0</ele><time>2026-03-29T11:22:51.615Z</time></trkpt><trkpt lat="45.6230916" lon="9.5626739"><ele>176.0</ele><time>2026-03-29T11:22:53.615Z</time></trkpt><trkpt lat="45.6231997" lon="9.5626158"><ele>176.0</ele><time>2026-03-29T11:22:55.615Z</time></trkpt><trkpt lat="45.6233062" lon="9.5625753"><ele>176.0</ele><time>2026-03-29T11:22:57.614Z</time></trkpt><trkpt lat="45.6233751" lon="9.5625571"><ele>176.0</ele><time>2026-03-29T11:22:58.615Z</time></trkpt><trkpt lat="45.6234905" lon="9.5625191"><ele>176.0</ele><time>2026-03-29T11:23:00.615Z</time></trkpt><trkpt lat="45.6236085" lon="9.5624826"><ele>176.0</ele><time>2026-03-29T11:23:02.615Z</time></trkpt><trkpt lat="45.6237193" lon="9.5624705"><ele>176.0</ele><time>2026-03-29T11:23:04.615Z</time></trkpt><trkpt lat="45.6237896" lon="9.5624568"><ele>176.0</ele><time>2026-03-29T11:23:05.615Z</time></trkpt><trkpt lat="45.6239019" lon="9.5624457"><ele>176.0</ele><time>2026-03-29T11:23:07.615Z</time></trkpt><trkpt lat="45.6239649" lon="9.5624327"><ele>176.0</ele><time>2026-03-29T11:23:08.615Z</time></trkpt><trkpt lat="45.6240898" lon="9.5624067"><ele>176.0</ele><time>2026-03-29T11:23:10.615Z</time></trkpt><trkpt lat="45.6242156" lon="9.5623859"><ele>176.0</ele><time>2026-03-29T11:23:12.614Z</time></trkpt><trkpt lat="45.6243365" lon="9.5623608"><ele>176.0</ele><time>2026-03-29T11:23:14.615Z</time></trkpt><trkpt lat="45.6244543" lon="9.5623322"><ele>176.0</ele><time>2026-03-29T11:23:16.615Z</time></trkpt><trkpt lat="45.6245689" lon="9.5623307"><ele>175.8</ele><time>2026-03-29T11:23:18.615Z</time></trkpt><trkpt lat="45.6246348" lon="9.5623181"><ele>175.60000000000002</ele><time>2026-03-29T11:23:19.615Z</time></trkpt><trkpt lat="45.6247528" lon="9.5623045"><ele>175.4</ele><time>2026-03-29T11:23:21.615Z</time></trkpt><trkpt lat="45.6248651" lon="9.5622921"><ele>175.2</ele><time>2026-03-29T11:23:23.615Z</time></trkpt><trkpt lat="45.6249703" lon="9.5622653"><ele>175.0</ele><time>2026-03-29T11:23:25.615Z</time></trkpt><trkpt lat="45.6250782" lon="9.5622654"><ele>175.0</ele><time>2026-03-29T11:23:27.615Z</time></trkpt><trkpt lat="45.6251948" lon="9.5622435"><ele>175.0</ele><time>2026-03-29T11:23:29.615Z</time></trkpt><trkpt lat="45.625311" lon="9.5622236"><ele>175.0</ele><time>2026-03-29T11:23:31.615Z</time></trkpt><trkpt lat="45.6254305" lon="9.5622056"><ele>175.0</ele><time>2026-03-29T11:23:33.615Z</time></trkpt><trkpt lat="45.6255548" lon="9.5621923"><ele>175.33333333333334</ele><time>2026-03-29T11:23:35.615Z</time></trkpt><trkpt lat="45.625663" lon="9.5621727"><ele>175.66666666666669</ele><time>2026-03-29T11:23:37.614Z</time></trkpt><trkpt lat="45.6257263" lon="9.5621693"><ele>176.0</ele><time>2026-03-29T11:23:38.615Z</time></trkpt><trkpt lat="45.6258211" lon="9.5621523"><ele>176.33333333333334</ele><time>2026-03-29T11:23:40.615Z</time></trkpt><trkpt lat="45.6259349" lon="9.562122"><ele>176.66666666666666</ele><time>2026-03-29T11:23:42.615Z</time></trkpt><trkpt lat="45.6259983" lon="9.562114"><ele>177.0</ele><time>2026-03-29T11:23:43.614Z</time></trkpt><trkpt lat="45.6260639" lon="9.5620968"><ele>177.0</ele><time>2026-03-29T11:23:44.614Z</time></trkpt><trkpt lat="45.6261845" lon="9.5620755"><ele>177.0</ele><time>2026-03-29T11:23:46.615Z</time></trkpt><trkpt lat="45.6263021" lon="9.5620643"><ele>177.0</ele><time>2026-03-29T11:23:48.615Z</time></trkpt><trkpt lat="45.6264042" lon="9.5620486"><ele>177.0</ele><time>2026-03-29T11:23:50.615Z</time></trkpt><trkpt lat="45.6265148" lon="9.5620648"><ele>177.0</ele><time>2026-03-29T11:23:52.615Z</time></trkpt><trkpt lat="45.6266091" lon="9.5621605"><ele>177.0</ele><time>2026-03-29T11:23:54.615Z</time></trkpt><trkpt lat="45.6266424" lon="9.5622806"><ele>177.0</ele><time>2026-03-29T11:23:56.615Z</time></trkpt><trkpt lat="45.626643" lon="9.5624132"><ele>177.0</ele><time>2026-03-29T11:23:58.615Z</time></trkpt><trkpt lat="45.6266559" lon="9.5625561"><ele>177.0</ele><time>2026-03-29T11:24:00.615Z</time></trkpt><trkpt lat="45.6266545" lon="9.5626945"><ele>177.0</ele><time>2026-03-29T11:24:02.615Z</time></trkpt><trkpt lat="45.626663" lon="9.5628435"><ele>177.0</ele><time>2026-03-29T11:24:04.614Z</time></trkpt><trkpt lat="45.6266795" lon="9.5629869"><ele>177.0</ele><time>2026-03-29T11:24:06.615Z</time></trkpt><trkpt lat="45.6266859" lon="9.5631428"><ele>177.0</ele><time>2026-03-29T11:24:08.615Z</time></trkpt><trkpt lat="45.6266936" lon="9.5633026"><ele>177.0</ele><time>2026-03-29T11:24:10.615Z</time></trkpt><trkpt lat="45.6266852" lon="9.5634641"><ele>176.8</ele><time>2026-03-29T11:24:12.615Z</time></trkpt><trkpt lat="45.6266744" lon="9.5636147"><ele>176.6</ele><time>2026-03-29T11:24:14.614Z</time></trkpt><trkpt lat="45.6266434" lon="9.5637703"><ele>176.4</ele><time>2026-03-29T11:24:16.615Z</time></trkpt><trkpt lat="45.6265966" lon="9.5638984"><ele>176.20000000000002</ele><time>2026-03-29T11:24:18.615Z</time></trkpt><trkpt lat="45.6265653" lon="9.5640271"><ele>176.0</ele><time>2026-03-29T11:24:20.614Z</time></trkpt><trkpt lat="45.6265822" lon="9.5641443"><ele>176.0</ele><time>2026-03-29T11:24:22.615Z</time></trkpt><trkpt lat="45.6266327" lon="9.5642029"><ele>176.0</ele><time>2026-03-29T11:24:24.615Z</time></trkpt><trkpt lat="45.6267258" lon="9.5642522"><ele>176.0</ele><time>2026-03-29T11:24:26.615Z</time></trkpt><trkpt lat="45.6268035" lon="9.5643014"><ele>176.0</ele><time>2026-03-29T11:24:28.615Z</time></trkpt><trkpt lat="45.6268954" lon="9.5643585"><ele>176.0</ele><time>2026-03-29T11:24:30.615Z</time></trkpt><trkpt lat="45.6269912" lon="9.5644174"><ele>176.0</ele><time>2026-03-29T11:24:32.615Z</time></trkpt><trkpt lat="45.6270874" lon="9.56448"><ele>176.0</ele><time>2026-03-29T11:24:34.615Z</time></trkpt><trkpt lat="45.6271792" lon="9.5645381"><ele>176.0</ele><time>2026-03-29T11:24:36.615Z</time></trkpt><trkpt lat="45.6272782" lon="9.5645937"><ele>176.0</ele><time>2026-03-29T11:24:38.614Z</time></trkpt><trkpt lat="45.6273716" lon="9.5646546"><ele>176.0</ele><time>2026-03-29T11:24:40.615Z</time></trkpt><trkpt lat="45.62747" lon="9.5647147"><ele>176.60000000000002</ele><time>2026-03-29T11:24:42.615Z</time></trkpt><trkpt lat="45.6275771" lon="9.56477"><ele>177.2</ele><time>2026-03-29T11:24:44.615Z</time></trkpt><trkpt lat="45.6276838" lon="9.5648232"><ele>177.8</ele><time>2026-03-29T11:24:46.615Z</time></trkpt><trkpt lat="45.6277823" lon="9.5648772"><ele>178.39999999999998</ele><time>2026-03-29T11:24:48.614Z</time></trkpt><trkpt lat="45.6278848" lon="9.5649392"><ele>179.0</ele><time>2026-03-29T11:24:50.615Z</time></trkpt><trkpt lat="45.6279855" lon="9.5649866"><ele>179.0</ele><time>2026-03-29T11:24:52.615Z</time></trkpt><trkpt lat="45.6280883" lon="9.5650208"><ele>179.0</ele><time>2026-03-29T11:24:54.615Z</time></trkpt><trkpt lat="45.6281465" lon="9.5649837"><ele>179.0</ele><time>2026-03-29T11:24:55.614Z</time></trkpt><trkpt lat="45.6282343" lon="9.5648715"><ele>179.0</ele><time>2026-03-29T11:24:57.615Z</time></trkpt><trkpt lat="45.6283243" lon="9.5647682"><ele>179.0</ele><time>2026-03-29T11:24:59.615Z</time></trkpt><trkpt lat="45.6284229" lon="9.564681"><ele>179.0</ele><time>2026-03-29T11:25:01.615Z</time></trkpt><trkpt lat="45.6285381" lon="9.5646099"><ele>179.0</ele><time>2026-03-29T11:25:03.615Z</time></trkpt><trkpt lat="45.6286005" lon="9.5645838"><ele>179.0</ele><time>2026-03-29T11:25:04.615Z</time></trkpt><trkpt lat="45.6287101" lon="9.564534"><ele>179.0</ele><time>2026-03-29T11:25:06.615Z</time></trkpt><trkpt lat="45.6288236" lon="9.5644812"><ele>179.0</ele><time>2026-03-29T11:25:08.615Z</time></trkpt><trkpt lat="45.6289329" lon="9.5644223"><ele>178.75</ele><time>2026-03-29T11:25:10.615Z</time></trkpt><trkpt lat="45.6290432" lon="9.5643716"><ele>178.5</ele><time>2026-03-29T11:25:12.615Z</time></trkpt><trkpt lat="45.6291551" lon="9.5643385"><ele>178.25</ele><time>2026-03-29T11:25:14.615Z</time></trkpt><trkpt lat="45.629266" lon="9.5643016"><ele>178.0</ele><time>2026-03-29T11:25:16.615Z</time></trkpt><trkpt lat="45.6293767" lon="9.5642604"><ele>178.5</ele><time>2026-03-29T11:25:18.615Z</time></trkpt><trkpt lat="45.6294926" lon="9.5642167"><ele>179.0</ele><time>2026-03-29T11:25:20.614Z</time></trkpt><trkpt lat="45.6296128" lon="9.5641813"><ele>179.5</ele><time>2026-03-29T11:25:22.615Z</time></trkpt><trkpt lat="45.6297295" lon="9.5641329"><ele>180.0</ele><time>2026-03-29T11:25:24.615Z</time></trkpt><trkpt lat="45.6298544" lon="9.5640991"><ele>180.0</ele><time>2026-03-29T11:25:26.615Z</time></trkpt><trkpt lat="45.6299705" lon="9.5640763"><ele>180.0</ele><time>2026-03-29T11:25:28.615Z</time></trkpt><trkpt lat="45.6300806" lon="9.5640564"><ele>180.0</ele><time>2026-03-29T11:25:30.615Z</time></trkpt><trkpt lat="45.6301945" lon="9.5640496"><ele>180.0</ele><time>2026-03-29T11:25:32.615Z</time></trkpt><trkpt lat="45.6303047" lon="9.5640303"><ele>180.6</ele><time>2026-03-29T11:25:34.615Z</time></trkpt><trkpt lat="45.6304149" lon="9.5640279"><ele>181.2</ele><time>2026-03-29T11:25:36.615Z</time></trkpt><trkpt lat="45.6305213" lon="9.5640206"><ele>181.8</ele><time>2026-03-29T11:25:38.615Z</time></trkpt><trkpt lat="45.6306051" lon="9.5640127"><ele>182.4</ele><time>2026-03-29T11:25:40.615Z</time></trkpt><trkpt lat="45.6307205" lon="9.5639893"><ele>183.0</ele><time>2026-03-29T11:25:42.615Z</time></trkpt><trkpt lat="45.6308261" lon="9.5639675"><ele>183.0</ele><time>2026-03-29T11:25:44.615Z</time></trkpt><trkpt lat="45.6309354" lon="9.5639538"><ele>183.0</ele><time>2026-03-29T11:25:46.615Z</time></trkpt><trkpt lat="45.6310461" lon="9.5639391"><ele>183.0</ele><time>2026-03-29T11:25:48.615Z</time></trkpt><trkpt lat="45.6311551" lon="9.5639211"><ele>183.0</ele><time>2026-03-29T11:25:50.615Z</time></trkpt><trkpt lat="45.6312748" lon="9.5638969"><ele>182.83333333333334</ele><time>2026-03-29T11:25:52.615Z</time></trkpt><trkpt lat="45.6313427" lon="9.5638847"><ele>182.66666666666666</ele><time>2026-03-29T11:25:53.615Z</time></trkpt><trkpt lat="45.6314554" lon="9.5638592"><ele>182.5</ele><time>2026-03-29T11:25:55.615Z</time></trkpt><trkpt lat="45.6315267" lon="9.5638516"><ele>182.33333333333331</ele><time>2026-03-29T11:25:56.615Z</time></trkpt><trkpt lat="45.6315926" lon="9.5638412"><ele>182.16666666666666</ele><time>2026-03-29T11:25:57.615Z</time></trkpt><trkpt lat="45.6317093" lon="9.5638292"><ele>182.0</ele><time>2026-03-29T11:25:59.615Z</time></trkpt><trkpt lat="45.6317784" lon="9.563817"><ele>182.0</ele><time>2026-03-29T11:26:00.614Z</time></trkpt><trkpt lat="45.6318943" lon="9.5638077"><ele>182.0</ele><time>2026-03-29T11:26:02.615Z</time></trkpt><trkpt lat="45.6319604" lon="9.5638022"><ele>182.0</ele><time>2026-03-29T11:26:03.615Z</time></trkpt><trkpt lat="45.632031" lon="9.5638003"><ele>182.0</ele><time>2026-03-29T11:26:04.615Z</time></trkpt><trkpt lat="45.632153" lon="9.5637877"><ele>182.0</ele><time>2026-03-29T11:26:06.614Z</time></trkpt><trkpt lat="45.6322817" lon="9.563748"><ele>182.0</ele><time>2026-03-29T11:26:08.615Z</time></trkpt><trkpt lat="45.6323952" lon="9.5637069"><ele>182.0</ele><time>2026-03-29T11:26:10.615Z</time></trkpt><trkpt lat="45.6325071" lon="9.5636811"><ele>182.0</ele><time>2026-03-29T11:26:12.615Z</time></trkpt><trkpt lat="45.6326181" lon="9.5636834"><ele>182.0</ele><time>2026-03-29T11:26:14.615Z</time></trkpt><trkpt lat="45.6327361" lon="9.5637466"><ele>182.0</ele><time>2026-03-29T11:26:16.615Z</time></trkpt><trkpt lat="45.6327993" lon="9.5637741"><ele>182.0</ele><time>2026-03-29T11:26:17.615Z</time></trkpt><trkpt lat="45.6329145" lon="9.5638353"><ele>182.0</ele><time>2026-03-29T11:26:19.615Z</time></trkpt><trkpt lat="45.633026" lon="9.5638923"><ele>182.0</ele><time>2026-03-29T11:26:21.615Z</time></trkpt><trkpt lat="45.6331412" lon="9.5639513"><ele>182.0</ele><time>2026-03-29T11:26:23.615Z</time></trkpt><trkpt lat="45.6332031" lon="9.5639781"><ele>182.0</ele><time>2026-03-29T11:26:24.614Z</time></trkpt><trkpt lat="45.6332657" lon="9.5640057"><ele>182.0</ele><time>2026-03-29T11:26:25.615Z</time></trkpt><trkpt lat="45.6333635" lon="9.5640837"><ele>182.0</ele><time>2026-03-29T11:26:27.614Z</time></trkpt><trkpt lat="45.633461" lon="9.564165"><ele>182.0</ele><time>2026-03-29T11:26:29.615Z</time></trkpt><trkpt lat="45.633516" lon="9.564216"><ele>182.0</ele><time>2026-03-29T11:26:30.615Z</time></trkpt><trkpt lat="45.6336097" lon="9.5642937"><ele>181.6</ele><time>2026-03-29T11:26:32.615Z</time></trkpt><trkpt lat="45.6336638" lon="9.5643418"><ele>181.2</ele><time>2026-03-29T11:26:33.615Z</time></trkpt><trkpt lat="45.6337708" lon="9.5644058"><ele>180.8</ele><time>2026-03-29T11:26:35.615Z</time></trkpt><trkpt lat="45.6338725" lon="9.5644676"><ele>180.4</ele><time>2026-03-29T11:26:37.615Z</time></trkpt><trkpt lat="45.6339311" lon="9.5645075"><ele>180.0</ele><time>2026-03-29T11:26:38.615Z</time></trkpt><trkpt lat="45.6340436" lon="9.5645568"><ele>180.5</ele><time>2026-03-29T11:26:40.615Z</time></trkpt><trkpt lat="45.6341049" lon="9.564598"><ele>181.0</ele><time>2026-03-29T11:26:41.615Z</time></trkpt><trkpt lat="45.6342037" lon="9.5646485"><ele>181.5</ele><time>2026-03-29T11:26:43.614Z</time></trkpt><trkpt lat="45.6343096" lon="9.5647177"><ele>182.0</ele><time>2026-03-29T11:26:45.615Z</time></trkpt><trkpt lat="45.6343714" lon="9.5647563"><ele>182.5</ele><time>2026-03-29T11:26:46.615Z</time></trkpt><trkpt lat="45.6344331" lon="9.5648017"><ele>183.0</ele><time>2026-03-29T11:26:47.614Z</time></trkpt><trkpt lat="45.6345384" lon="9.5648725"><ele>183.0</ele><time>2026-03-29T11:26:49.615Z</time></trkpt><trkpt lat="45.6346315" lon="9.5649271"><ele>183.0</ele><time>2026-03-29T11:26:51.615Z</time></trkpt><trkpt lat="45.6347328" lon="9.5649816"><ele>183.0</ele><time>2026-03-29T11:26:53.615Z</time></trkpt><trkpt lat="45.6348261" lon="9.5650626"><ele>183.0</ele><time>2026-03-29T11:26:55.614Z</time></trkpt><trkpt lat="45.634912" lon="9.5651095"><ele>183.0</ele><time>2026-03-29T11:26:57.615Z</time></trkpt><trkpt lat="45.6350095" lon="9.5651659"><ele>183.0</ele><time>2026-03-29T11:26:59.615Z</time></trkpt><trkpt lat="45.635111" lon="9.5652335"><ele>183.0</ele><time>2026-03-29T11:27:01.615Z</time></trkpt><trkpt lat="45.6351681" lon="9.5652806"><ele>183.0</ele><time>2026-03-29T11:27:02.615Z</time></trkpt><trkpt lat="45.6352682" lon="9.5653634"><ele>183.0</ele><time>2026-03-29T11:27:04.615Z</time></trkpt><trkpt lat="45.635374" lon="9.5654353"><ele>183.0</ele><time>2026-03-29T11:27:06.615Z</time></trkpt><trkpt lat="45.6354658" lon="9.565522"><ele>182.5</ele><time>2026-03-29T11:27:08.615Z</time></trkpt><trkpt lat="45.6355421" lon="9.565638"><ele>182.0</ele><time>2026-03-29T11:27:10.615Z</time></trkpt><trkpt lat="45.6356195" lon="9.5657842"><ele>181.5</ele><time>2026-03-29T11:27:12.615Z</time></trkpt><trkpt lat="45.6356627" lon="9.5659428"><ele>181.0</ele><time>2026-03-29T11:27:14.614Z</time></trkpt><trkpt lat="45.6356957" lon="9.5660892"><ele>181.20000000000002</ele><time>2026-03-29T11:27:16.615Z</time></trkpt><trkpt lat="45.6357111" lon="9.5662658"><ele>181.4</ele><time>2026-03-29T11:27:18.615Z</time></trkpt><trkpt lat="45.6357208" lon="9.5663686"><ele>181.6</ele><time>2026-03-29T11:27:19.615Z</time></trkpt><trkpt lat="45.6357305" lon="9.5664627"><ele>181.8</ele><time>2026-03-29T11:27:20.615Z</time></trkpt><trkpt lat="45.635739" lon="9.5665628"><ele>182.0</ele><time>2026-03-29T11:27:21.615Z</time></trkpt><trkpt lat="45.6357631" lon="9.5667267"><ele>182.0</ele><time>2026-03-29T11:27:23.615Z</time></trkpt><trkpt lat="45.6357952" lon="9.5668817"><ele>182.0</ele><time>2026-03-29T11:27:25.615Z</time></trkpt><trkpt lat="45.6358293" lon="9.5670348"><ele>182.0</ele><time>2026-03-29T11:27:27.615Z</time></trkpt><trkpt lat="45.6358691" lon="9.5671807"><ele>182.0</ele><time>2026-03-29T11:27:29.615Z</time></trkpt><trkpt lat="45.6358892" lon="9.5673003"><ele>182.0</ele><time>2026-03-29T11:27:31.615Z</time></trkpt><trkpt lat="45.6359121" lon="9.5674106"><ele>181.5</ele><time>2026-03-29T11:27:33.615Z</time></trkpt><trkpt lat="45.6359457" lon="9.5675058"><ele>181.0</ele><time>2026-03-29T11:27:35.615Z</time></trkpt><trkpt lat="45.6359867" lon="9.5675783"><ele>180.5</ele><time>2026-03-29T11:27:37.615Z</time></trkpt><trkpt lat="45.6360427" lon="9.5676323"><ele>180.0</ele><time>2026-03-29T11:27:39.614Z</time></trkpt><trkpt lat="45.6361141" lon="9.5676804"><ele>179.5</ele><time>2026-03-29T11:27:41.614Z</time></trkpt><trkpt lat="45.6361871" lon="9.5677449"><ele>179.0</ele><time>2026-03-29T11:27:43.615Z</time></trkpt><trkpt lat="45.636255" lon="9.5678202"><ele>180.2</ele><time>2026-03-29T11:27:45.615Z</time></trkpt><trkpt lat="45.6363338" lon="9.5679108"><ele>181.39999999999998</ele><time>2026-03-29T11:27:47.615Z</time></trkpt><trkpt lat="45.6364124" lon="9.5679897"><ele>182.6</ele><time>2026-03-29T11:27:49.615Z</time></trkpt><trkpt lat="45.6364923" lon="9.5680702"><ele>183.8</ele><time>2026-03-29T11:27:51.615Z</time></trkpt><trkpt lat="45.6365641" lon="9.5681673"><ele>185.0</ele><time>2026-03-29T11:27:53.614Z</time></trkpt><trkpt lat="45.6366398" lon="9.5682563"><ele>185.0</ele><time>2026-03-29T11:27:55.615Z</time></trkpt><trkpt lat="45.6367191" lon="9.5683453"><ele>185.0</ele><time>2026-03-29T11:27:57.615Z</time></trkpt><trkpt lat="45.6367879" lon="9.5684539"><ele>185.0</ele><time>2026-03-29T11:27:59.615Z</time></trkpt><trkpt lat="45.6368601" lon="9.5685501"><ele>185.0</ele><time>2026-03-29T11:28:01.615Z</time></trkpt><trkpt lat="45.6369239" lon="9.5686542"><ele>185.0</ele><time>2026-03-29T11:28:03.615Z</time></trkpt><trkpt lat="45.6369823" lon="9.5687613"><ele>185.4</ele><time>2026-03-29T11:28:05.615Z</time></trkpt><trkpt lat="45.6370389" lon="9.5688695"><ele>185.8</ele><time>2026-03-29T11:28:07.614Z</time></trkpt><trkpt lat="45.6370931" lon="9.5689736"><ele>186.2</ele><time>2026-03-29T11:28:09.615Z</time></trkpt><trkpt lat="45.6371583" lon="9.569072"><ele>186.6</ele><time>2026-03-29T11:28:11.615Z</time></trkpt><trkpt lat="45.6372452" lon="9.5691552"><ele>187.0</ele><time>2026-03-29T11:28:13.615Z</time></trkpt><trkpt lat="45.6373347" lon="9.56923"><ele>187.0</ele><time>2026-03-29T11:28:15.614Z</time></trkpt><trkpt lat="45.6374246" lon="9.5693069"><ele>187.0</ele><time>2026-03-29T11:28:17.615Z</time></trkpt><trkpt lat="45.637514" lon="9.5693775"><ele>187.0</ele><time>2026-03-29T11:28:19.614Z</time></trkpt><trkpt lat="45.6376045" lon="9.569443"><ele>187.0</ele><time>2026-03-29T11:28:21.615Z</time></trkpt><trkpt lat="45.6377018" lon="9.5695094"><ele>187.0</ele><time>2026-03-29T11:28:23.615Z</time></trkpt><trkpt lat="45.6377927" lon="9.5695742"><ele>187.6</ele><time>2026-03-29T11:28:25.615Z</time></trkpt><trkpt lat="45.6378867" lon="9.5696387"><ele>188.2</ele><time>2026-03-29T11:28:27.615Z</time></trkpt><trkpt lat="45.637988" lon="9.5696911"><ele>188.8</ele><time>2026-03-29T11:28:29.615Z</time></trkpt><trkpt lat="45.6380854" lon="9.5697166"><ele>189.4</ele><time>2026-03-29T11:28:31.615Z</time></trkpt><trkpt lat="45.6381947" lon="9.5697189"><ele>190.0</ele><time>2026-03-29T11:28:33.615Z</time></trkpt><trkpt lat="45.63829" lon="9.5697218"><ele>190.0</ele><time>2026-03-29T11:28:35.614Z</time></trkpt><trkpt lat="45.6383952" lon="9.569746"><ele>190.0</ele><time>2026-03-29T11:28:37.615Z</time></trkpt><trkpt lat="45.6384835" lon="9.5697602"><ele>190.0</ele><time>2026-03-29T11:28:39.615Z</time></trkpt><trkpt lat="45.6385624" lon="9.5697593"><ele>190.0</ele><time>2026-03-29T11:28:41.614Z</time></trkpt><trkpt lat="45.6386469" lon="9.5697614"><ele>190.0</ele><time>2026-03-29T11:28:43.615Z</time></trkpt><trkpt lat="45.6387285" lon="9.5697754"><ele>190.0</ele><time>2026-03-29T11:28:45.615Z</time></trkpt><trkpt lat="45.6388057" lon="9.5698345"><ele>190.2</ele><time>2026-03-29T11:28:47.614Z</time></trkpt><trkpt lat="45.638861" lon="9.5699279"><ele>190.4</ele><time>2026-03-29T11:28:49.614Z</time></trkpt><trkpt lat="45.6389153" lon="9.5700277"><ele>190.60000000000002</ele><time>2026-03-29T11:28:51.615Z</time></trkpt><trkpt lat="45.6389745" lon="9.5701415"><ele>190.8</ele><time>2026-03-29T11:28:53.615Z</time></trkpt><trkpt lat="45.6390344" lon="9.5702659"><ele>191.0</ele><time>2026-03-29T11:28:55.615Z</time></trkpt><trkpt lat="45.6390887" lon="9.5703872"><ele>191.0</ele><time>2026-03-29T11:28:57.615Z</time></trkpt><trkpt lat="45.639142" lon="9.5705044"><ele>191.0</ele><time>2026-03-29T11:28:59.615Z</time></trkpt><trkpt lat="45.6392021" lon="9.5706272"><ele>191.0</ele><time>2026-03-29T11:29:01.615Z</time></trkpt><trkpt lat="45.6392487" lon="9.5707537"><ele>191.0</ele><time>2026-03-29T11:29:03.615Z</time></trkpt><trkpt lat="45.6392855" lon="9.5708842"><ele>191.0</ele><time>2026-03-29T11:29:05.615Z</time></trkpt><trkpt lat="45.6393246" lon="9.5710098"><ele>191.0</ele><time>2026-03-29T11:29:07.615Z</time></trkpt><trkpt lat="45.6393702" lon="9.5711223"><ele>191.0</ele><time>2026-03-29T11:29:09.615Z</time></trkpt><trkpt lat="45.6394228" lon="9.5712212"><ele>191.0</ele><time>2026-03-29T11:29:11.615Z</time></trkpt><trkpt lat="45.639491" lon="9.5713029"><ele>191.0</ele><time>2026-03-29T11:29:13.615Z</time></trkpt><trkpt lat="45.6395535" lon="9.5713672"><ele>191.0</ele><time>2026-03-29T11:29:15.615Z</time></trkpt><trkpt lat="45.6396364" lon="9.5714424"><ele>191.0</ele><time>2026-03-29T11:29:17.615Z</time></trkpt><trkpt lat="45.6397086" lon="9.5715089"><ele>190.8</ele><time>2026-03-29T11:29:19.615Z</time></trkpt><trkpt lat="45.6397904" lon="9.5715891"><ele>190.60000000000002</ele><time>2026-03-29T11:29:21.615Z</time></trkpt><trkpt lat="45.6398728" lon="9.5716691"><ele>190.4</ele><time>2026-03-29T11:29:23.615Z</time></trkpt><trkpt lat="45.6399627" lon="9.5717487"><ele>190.2</ele><time>2026-03-29T11:29:25.614Z</time></trkpt><trkpt lat="45.6400549" lon="9.5718443"><ele>190.0</ele><time>2026-03-29T11:29:27.615Z</time></trkpt><trkpt lat="45.6401479" lon="9.5719301"><ele>190.0</ele><time>2026-03-29T11:29:29.615Z</time></trkpt><trkpt lat="45.640251" lon="9.5719765"><ele>190.0</ele><time>2026-03-29T11:29:31.614Z</time></trkpt><trkpt lat="45.6403582" lon="9.5720125"><ele>190.0</ele><time>2026-03-29T11:29:33.615Z</time></trkpt><trkpt lat="45.6404581" lon="9.5720442"><ele>190.0</ele><time>2026-03-29T11:29:35.614Z</time></trkpt><trkpt lat="45.6405612" lon="9.5720742"><ele>190.0</ele><time>2026-03-29T11:29:37.615Z</time></trkpt><trkpt lat="45.6406743" lon="9.5721245"><ele>190.8</ele><time>2026-03-29T11:29:39.615Z</time></trkpt><trkpt lat="45.6407745" lon="9.5721454"><ele>191.6</ele><time>2026-03-29T11:29:41.615Z</time></trkpt><trkpt lat="45.6408516" lon="9.5721873"><ele>192.39999999999998</ele><time>2026-03-29T11:29:44.615Z</time></trkpt><trkpt lat="45.6409364" lon="9.5723224"><ele>193.2</ele><time>2026-03-29T11:29:46.615Z</time></trkpt><trkpt lat="45.6410063" lon="9.5724519"><ele>194.0</ele><time>2026-03-29T11:29:48.615Z</time></trkpt><trkpt lat="45.6410737" lon="9.5725805"><ele>194.25</ele><time>2026-03-29T11:29:50.614Z</time></trkpt><trkpt lat="45.6411445" lon="9.5727027"><ele>194.5</ele><time>2026-03-29T11:29:52.614Z</time></trkpt><trkpt lat="45.6412354" lon="9.5728019"><ele>194.75</ele><time>2026-03-29T11:29:54.615Z</time></trkpt><trkpt lat="45.6413305" lon="9.5728941"><ele>195.0</ele><time>2026-03-29T11:29:56.615Z</time></trkpt><trkpt lat="45.6414177" lon="9.5729967"><ele>195.0</ele><time>2026-03-29T11:29:58.615Z</time></trkpt><trkpt lat="45.6415122" lon="9.5731124"><ele>195.0</ele><time>2026-03-29T11:30:00.615Z</time></trkpt><trkpt lat="45.6416011" lon="9.5732243"><ele>195.0</ele><time>2026-03-29T11:30:02.615Z</time></trkpt><trkpt lat="45.6416938" lon="9.5733191"><ele>195.0</ele><time>2026-03-29T11:30:04.615Z</time></trkpt><trkpt lat="45.6417846" lon="9.5734197"><ele>195.0</ele><time>2026-03-29T11:30:06.615Z</time></trkpt><trkpt lat="45.6418757" lon="9.5735171"><ele>195.0</ele><time>2026-03-29T11:30:08.615Z</time></trkpt><trkpt lat="45.6419713" lon="9.5736244"><ele>195.0</ele><time>2026-03-29T11:30:10.615Z</time></trkpt><trkpt lat="45.6420656" lon="9.5737347"><ele>195.0</ele><time>2026-03-29T11:30:12.614Z</time></trkpt><trkpt lat="45.6421541" lon="9.5738341"><ele>194.75</ele><time>2026-03-29T11:30:14.615Z</time></trkpt><trkpt lat="45.6422625" lon="9.5739093"><ele>194.5</ele><time>2026-03-29T11:30:16.614Z</time></trkpt><trkpt lat="45.6423713" lon="9.5739854"><ele>194.25</ele><time>2026-03-29T11:30:18.615Z</time></trkpt><trkpt lat="45.6424694" lon="9.5740865"><ele>194.0</ele><time>2026-03-29T11:30:20.615Z</time></trkpt><trkpt lat="45.6425456" lon="9.5741604"><ele>194.0</ele><time>2026-03-29T11:30:21.615Z</time></trkpt><trkpt lat="45.6426447" lon="9.5742424"><ele>194.0</ele><time>2026-03-29T11:30:23.615Z</time></trkpt><trkpt lat="45.6427421" lon="9.5743343"><ele>194.0</ele><time>2026-03-29T11:30:25.615Z</time></trkpt><trkpt lat="45.6428479" lon="9.5744029"><ele>194.0</ele><time>2026-03-29T11:30:27.615Z</time></trkpt><trkpt lat="45.6429517" lon="9.5744942"><ele>194.79999999999998</ele><time>2026-03-29T11:30:29.615Z</time></trkpt><trkpt lat="45.6430549" lon="9.5745819"><ele>195.6</ele><time>2026-03-29T11:30:31.615Z</time></trkpt><trkpt lat="45.643154" lon="9.5746727"><ele>196.4</ele><time>2026-03-29T11:30:33.615Z</time></trkpt><trkpt lat="45.6432498" lon="9.574767"><ele>197.2</ele><time>2026-03-29T11:30:35.614Z</time></trkpt><trkpt lat="45.6432977" lon="9.574826"><ele>198.0</ele><time>2026-03-29T11:30:36.615Z</time></trkpt><trkpt lat="45.6433507" lon="9.5748862"><ele>198.0</ele><time>2026-03-29T11:30:37.615Z</time></trkpt><trkpt lat="45.643457" lon="9.5750028"><ele>198.0</ele><time>2026-03-29T11:30:39.615Z</time></trkpt><trkpt lat="45.6435136" lon="9.5750554"><ele>198.0</ele><time>2026-03-29T11:30:40.615Z</time></trkpt><trkpt lat="45.6435648" lon="9.5751089"><ele>198.0</ele><time>2026-03-29T11:30:41.615Z</time></trkpt><trkpt lat="45.6436162" lon="9.5751625"><ele>198.0</ele><time>2026-03-29T11:30:42.615Z</time></trkpt><trkpt lat="45.6437126" lon="9.5752617"><ele>198.0</ele><time>2026-03-29T11:30:44.615Z</time></trkpt><trkpt lat="45.643792" lon="9.5753759"><ele>198.0</ele><time>2026-03-29T11:30:46.615Z</time></trkpt><trkpt lat="45.6438752" lon="9.5755002"><ele>198.0</ele><time>2026-03-29T11:30:48.615Z</time></trkpt><trkpt lat="45.6439636" lon="9.575619"><ele>198.0</ele><time>2026-03-29T11:30:50.615Z</time></trkpt><trkpt lat="45.6440527" lon="9.5757239"><ele>198.0</ele><time>2026-03-29T11:30:52.615Z</time></trkpt><trkpt lat="45.6441434" lon="9.5758337"><ele>198.0</ele><time>2026-03-29T11:30:54.615Z</time></trkpt><trkpt lat="45.6442391" lon="9.5759343"><ele>198.0</ele><time>2026-03-29T11:30:56.615Z</time></trkpt><trkpt lat="45.6442951" lon="9.5759774"><ele>198.0</ele><time>2026-03-29T11:30:57.615Z</time></trkpt><trkpt lat="45.6443996" lon="9.5760671"><ele>198.0</ele><time>2026-03-29T11:30:59.615Z</time></trkpt><trkpt lat="45.6444957" lon="9.5761563"><ele>198.0</ele><time>2026-03-29T11:31:01.615Z</time></trkpt><trkpt lat="45.644602" lon="9.5762559"><ele>198.0</ele><time>2026-03-29T11:31:03.615Z</time></trkpt><trkpt lat="45.6447029" lon="9.576349"><ele>198.0</ele><time>2026-03-29T11:31:05.615Z</time></trkpt><trkpt lat="45.644804" lon="9.5764374"><ele>198.0</ele><time>2026-03-29T11:31:07.615Z</time></trkpt><trkpt lat="45.6449004" lon="9.5765264"><ele>198.0</ele><time>2026-03-29T11:31:09.615Z</time></trkpt><trkpt lat="45.6450073" lon="9.5766155"><ele>198.0</ele><time>2026-03-29T11:31:11.615Z</time></trkpt><trkpt lat="45.6451026" lon="9.5767095"><ele>198.0</ele><time>2026-03-29T11:31:13.615Z</time></trkpt><trkpt lat="45.6451968" lon="9.5767968"><ele>198.0</ele><time>2026-03-29T11:31:15.614Z</time></trkpt><trkpt lat="45.6452997" lon="9.5768795"><ele>198.0</ele><time>2026-03-29T11:31:17.614Z</time></trkpt><trkpt lat="45.6453956" lon="9.5769608"><ele>198.0</ele><time>2026-03-29T11:31:19.615Z</time></trkpt><trkpt lat="45.6454896" lon="9.5770435"><ele>198.0</ele><time>2026-03-29T11:31:21.615Z</time></trkpt><trkpt lat="45.6455898" lon="9.5771103"><ele>198.0</ele><time>2026-03-29T11:31:23.614Z</time></trkpt><trkpt lat="45.6456929" lon="9.577187"><ele>198.0</ele><time>2026-03-29T11:31:25.615Z</time></trkpt><trkpt lat="45.6457808" lon="9.577267"><ele>198.0</ele><time>2026-03-29T11:31:27.615Z</time></trkpt><trkpt lat="45.6458841" lon="9.577336"><ele>198.0</ele><time>2026-03-29T11:31:29.615Z</time></trkpt><trkpt lat="45.6459872" lon="9.5774076"><ele>198.0</ele><time>2026-03-29T11:31:31.615Z</time></trkpt><trkpt lat="45.6460994" lon="9.5774848"><ele>198.0</ele><time>2026-03-29T11:31:33.615Z</time></trkpt><trkpt lat="45.6461997" lon="9.5775533"><ele>198.0</ele><time>2026-03-29T11:31:35.615Z</time></trkpt><trkpt lat="45.646253" lon="9.5776054"><ele>198.0</ele><time>2026-03-29T11:31:36.615Z</time></trkpt><trkpt lat="45.6463292" lon="9.5776912"><ele>198.0</ele><time>2026-03-29T11:31:38.615Z</time></trkpt><trkpt lat="45.6463857" lon="9.5777478"><ele>198.0</ele><time>2026-03-29T11:31:39.615Z</time></trkpt><trkpt lat="45.6464436" lon="9.5778126"><ele>198.0</ele><time>2026-03-29T11:31:40.615Z</time></trkpt><trkpt lat="45.6465155" lon="9.5778914"><ele>198.0</ele><time>2026-03-29T11:31:42.615Z</time></trkpt><trkpt lat="45.64658" lon="9.5779628"><ele>198.0</ele><time>2026-03-29T11:31:44.615Z</time></trkpt><trkpt lat="45.646666" lon="9.5780037"><ele>198.0</ele><time>2026-03-29T11:31:46.615Z</time></trkpt><trkpt lat="45.6467695" lon="9.5780196"><ele>198.0</ele><time>2026-03-29T11:31:48.615Z</time></trkpt><trkpt lat="45.6468757" lon="9.5780259"><ele>198.0</ele><time>2026-03-29T11:31:50.614Z</time></trkpt><trkpt lat="45.6469933" lon="9.5780639"><ele>198.0</ele><time>2026-03-29T11:31:52.615Z</time></trkpt><trkpt lat="45.64709" lon="9.5781044"><ele>198.0</ele><time>2026-03-29T11:31:54.615Z</time></trkpt><trkpt lat="45.6471901" lon="9.5781343"><ele>198.0</ele><time>2026-03-29T11:31:56.615Z</time></trkpt><trkpt lat="45.6472985" lon="9.5781827"><ele>197.8</ele><time>2026-03-29T11:31:58.615Z</time></trkpt><trkpt lat="45.6474015" lon="9.578225"><ele>197.60000000000002</ele><time>2026-03-29T11:32:00.615Z</time></trkpt><trkpt lat="45.6475029" lon="9.5782836"><ele>197.39999999999998</ele><time>2026-03-29T11:32:02.615Z</time></trkpt><trkpt lat="45.6476101" lon="9.5783421"><ele>197.2</ele><time>2026-03-29T11:32:04.615Z</time></trkpt><trkpt lat="45.6477089" lon="9.5784048"><ele>197.0</ele><time>2026-03-29T11:32:06.615Z</time></trkpt><trkpt lat="45.6478153" lon="9.5784578"><ele>196.25</ele><time>2026-03-29T11:32:08.615Z</time></trkpt><trkpt lat="45.6479202" lon="9.5785108"><ele>195.5</ele><time>2026-03-29T11:32:10.615Z</time></trkpt><trkpt lat="45.6480146" lon="9.5785915"><ele>194.75</ele><time>2026-03-29T11:32:12.615Z</time></trkpt><trkpt lat="45.6481085" lon="9.5786784"><ele>194.0</ele><time>2026-03-29T11:32:14.614Z</time></trkpt><trkpt lat="45.6482147" lon="9.5787737"><ele>196.0</ele><time>2026-03-29T11:32:16.615Z</time></trkpt><trkpt lat="45.6483063" lon="9.5788653"><ele>198.0</ele><time>2026-03-29T11:32:18.615Z</time></trkpt><trkpt lat="45.6484087" lon="9.5789612"><ele>200.0</ele><time>2026-03-29T11:32:20.615Z</time></trkpt><trkpt lat="45.6485056" lon="9.579053"><ele>202.0</ele><time>2026-03-29T11:32:22.614Z</time></trkpt><trkpt lat="45.648602" lon="9.5791343"><ele>201.25</ele><time>2026-03-29T11:32:24.615Z</time></trkpt><trkpt lat="45.6487126" lon="9.5792038"><ele>200.5</ele><time>2026-03-29T11:32:26.615Z</time></trkpt><trkpt lat="45.6488139" lon="9.5792861"><ele>199.75</ele><time>2026-03-29T11:32:28.615Z</time></trkpt><trkpt lat="45.6489078" lon="9.5793722"><ele>199.0</ele><time>2026-03-29T11:32:30.615Z</time></trkpt><trkpt lat="45.649002" lon="9.5794741"><ele>200.39999999999998</ele><time>2026-03-29T11:32:32.615Z</time></trkpt><trkpt lat="45.6490954" lon="9.5795426"><ele>201.8</ele><time>2026-03-29T11:32:34.615Z</time></trkpt><trkpt lat="45.6491998" lon="9.5796232"><ele>203.2</ele><time>2026-03-29T11:32:36.615Z</time></trkpt><trkpt lat="45.6492508" lon="9.5796807"><ele>204.60000000000002</ele><time>2026-03-29T11:32:37.615Z</time></trkpt><trkpt lat="45.6493028" lon="9.5797458"><ele>206.0</ele><time>2026-03-29T11:32:38.614Z</time></trkpt><trkpt lat="45.6493992" lon="9.5798172"><ele>206.0</ele><time>2026-03-29T11:32:40.615Z</time></trkpt><trkpt lat="45.6494545" lon="9.5798686"><ele>206.0</ele><time>2026-03-29T11:32:41.615Z</time></trkpt><trkpt lat="45.6495404" lon="9.5799481"><ele>206.0</ele><time>2026-03-29T11:32:43.615Z</time></trkpt><trkpt lat="45.6496385" lon="9.5800241"><ele>206.0</ele><time>2026-03-29T11:32:45.615Z</time></trkpt><trkpt lat="45.6497397" lon="9.5800838"><ele>206.0</ele><time>2026-03-29T11:32:47.615Z</time></trkpt><trkpt lat="45.649837" lon="9.5801561"><ele>206.0</ele><time>2026-03-29T11:32:49.615Z</time></trkpt><trkpt lat="45.6499416" lon="9.5802365"><ele>206.0</ele><time>2026-03-29T11:32:51.615Z</time></trkpt><trkpt lat="45.650038" lon="9.5803055"><ele>206.0</ele><time>2026-03-29T11:32:53.615Z</time></trkpt><trkpt lat="45.6501434" lon="9.5803921"><ele>206.0</ele><time>2026-03-29T11:32:55.614Z</time></trkpt><trkpt lat="45.6502385" lon="9.5804813"><ele>205.8</ele><time>2026-03-29T11:32:57.615Z</time></trkpt><trkpt lat="45.6503025" lon="9.580541"><ele>205.60000000000002</ele><time>2026-03-29T11:32:59.615Z</time></trkpt><trkpt lat="45.6503924" lon="9.5803899"><ele>205.4</ele><time>2026-03-29T11:33:07.615Z</time></trkpt><trkpt lat="45.6505008" lon="9.5803448"><ele>205.2</ele><time>2026-03-29T11:33:09.615Z</time></trkpt><trkpt lat="45.650563" lon="9.5803171"><ele>205.0</ele><time>2026-03-29T11:33:10.615Z</time></trkpt><trkpt lat="45.6506285" lon="9.5802864"><ele>203.6</ele><time>2026-03-29T11:33:11.615Z</time></trkpt><trkpt lat="45.6507017" lon="9.580251"><ele>202.2</ele><time>2026-03-29T11:33:12.615Z</time></trkpt><trkpt lat="45.650773" lon="9.5802284"><ele>200.8</ele><time>2026-03-29T11:33:13.615Z</time></trkpt><trkpt lat="45.6509125" lon="9.5801985"><ele>199.4</ele><time>2026-03-29T11:33:15.615Z</time></trkpt><trkpt lat="45.6509783" lon="9.5801877"><ele>198.0</ele><time>2026-03-29T11:33:16.615Z</time></trkpt><trkpt lat="45.6510984" lon="9.5801677"><ele>196.66666666666666</ele><time>2026-03-29T11:33:18.615Z</time></trkpt><trkpt lat="45.6511657" lon="9.5801579"><ele>195.33333333333334</ele><time>2026-03-29T11:33:19.614Z</time></trkpt><trkpt lat="45.6512289" lon="9.5801619"><ele>194.0</ele><time>2026-03-29T11:33:20.615Z</time></trkpt><trkpt lat="45.651318" lon="9.5801984"><ele>192.66666666666669</ele><time>2026-03-29T11:33:21.615Z</time></trkpt><trkpt lat="45.6513993" lon="9.58021"><ele>191.33333333333334</ele><time>2026-03-29T11:33:22.615Z</time></trkpt><trkpt lat="45.6514693" lon="9.5802028"><ele>190.0</ele><time>2026-03-29T11:33:23.615Z</time></trkpt><trkpt lat="45.6515925" lon="9.5801488"><ele>190.0</ele><time>2026-03-29T11:33:25.615Z</time></trkpt><trkpt lat="45.6516754" lon="9.5801144"><ele>190.0</ele><time>2026-03-29T11:33:27.615Z</time></trkpt><trkpt lat="45.6517585" lon="9.5801725"><ele>190.0</ele><time>2026-03-29T11:33:29.615Z</time></trkpt><trkpt lat="45.6518191" lon="9.5802252"><ele>190.0</ele><time>2026-03-29T11:33:31.615Z</time></trkpt><trkpt lat="45.6519099" lon="9.5802938"><ele>190.0</ele><time>2026-03-29T11:33:33.615Z</time></trkpt><trkpt lat="45.6519853" lon="9.5803504"><ele>190.0</ele><time>2026-03-29T11:33:35.615Z</time></trkpt><trkpt lat="45.6520612" lon="9.5804099"><ele>190.0</ele><time>2026-03-29T11:33:37.615Z</time></trkpt><trkpt lat="45.6521428" lon="9.5804641"><ele>190.0</ele><time>2026-03-29T11:33:39.615Z</time></trkpt><trkpt lat="45.6522431" lon="9.5805178"><ele>190.0</ele><time>2026-03-29T11:33:41.615Z</time></trkpt><trkpt lat="45.6523317" lon="9.5805737"><ele>190.0</ele><time>2026-03-29T11:33:43.615Z</time></trkpt><trkpt lat="45.6524132" lon="9.5806224"><ele>190.0</ele><time>2026-03-29T11:33:45.615Z</time></trkpt><trkpt lat="45.6524986" lon="9.5806844"><ele>190.0</ele><time>2026-03-29T11:33:47.615Z</time></trkpt><trkpt lat="45.6525931" lon="9.5807438"><ele>190.0</ele><time>2026-03-29T11:33:49.615Z</time></trkpt><trkpt lat="45.6526748" lon="9.5807957"><ele>190.0</ele><time>2026-03-29T11:33:51.615Z</time></trkpt><trkpt lat="45.6527611" lon="9.5808616"><ele>190.0</ele><time>2026-03-29T11:33:53.614Z</time></trkpt><trkpt lat="45.6528493" lon="9.5809359"><ele>190.0</ele><time>2026-03-29T11:33:55.614Z</time></trkpt><trkpt lat="45.6529356" lon="9.5810049"><ele>190.0</ele><time>2026-03-29T11:33:57.615Z</time></trkpt><trkpt lat="45.6530112" lon="9.5810918"><ele>190.0</ele><time>2026-03-29T11:33:59.615Z</time></trkpt><trkpt lat="45.6531084" lon="9.5811735"><ele>190.0</ele><time>2026-03-29T11:34:01.614Z</time></trkpt><trkpt lat="45.6532113" lon="9.5812427"><ele>190.0</ele><time>2026-03-29T11:34:03.615Z</time></trkpt><trkpt lat="45.6533168" lon="9.5813034"><ele>190.0</ele><time>2026-03-29T11:34:05.615Z</time></trkpt><trkpt lat="45.6534221" lon="9.5813743"><ele>190.0</ele><time>2026-03-29T11:34:07.615Z</time></trkpt><trkpt lat="45.65353" lon="9.5814335"><ele>190.0</ele><time>2026-03-29T11:34:09.615Z</time></trkpt><trkpt lat="45.6536043" lon="9.5814624"><ele>190.0</ele><time>2026-03-29T11:34:10.615Z</time></trkpt><trkpt lat="45.6537078" lon="9.581539"><ele>190.0</ele><time>2026-03-29T11:34:12.615Z</time></trkpt><trkpt lat="45.653793" lon="9.5816105"><ele>190.0</ele><time>2026-03-29T11:34:14.615Z</time></trkpt><trkpt lat="45.6538967" lon="9.5816587"><ele>189.8</ele><time>2026-03-29T11:34:16.615Z</time></trkpt><trkpt lat="45.6540166" lon="9.5816969"><ele>189.6</ele><time>2026-03-29T11:34:18.615Z</time></trkpt><trkpt lat="45.6540803" lon="9.5817134"><ele>189.39999999999998</ele><time>2026-03-29T11:34:19.614Z</time></trkpt><trkpt lat="45.6541443" lon="9.5817517"><ele>189.2</ele><time>2026-03-29T11:34:20.615Z</time></trkpt><trkpt lat="45.6542589" lon="9.5818093"><ele>189.0</ele><time>2026-03-29T11:34:23.615Z</time></trkpt><trkpt lat="45.6543699" lon="9.5818254"><ele>189.0</ele><time>2026-03-29T11:34:25.615Z</time></trkpt><trkpt lat="45.6544382" lon="9.5818778"><ele>189.0</ele><time>2026-03-29T11:34:26.615Z</time></trkpt><trkpt lat="45.6544982" lon="9.5819098"><ele>189.0</ele><time>2026-03-29T11:34:27.614Z</time></trkpt><trkpt lat="45.6545888" lon="9.5819607"><ele>189.0</ele><time>2026-03-29T11:34:29.615Z</time></trkpt><trkpt lat="45.6546954" lon="9.5820024"><ele>189.0</ele><time>2026-03-29T11:34:31.615Z</time></trkpt><trkpt lat="45.6547726" lon="9.5820676"><ele>189.0</ele><time>2026-03-29T11:34:33.615Z</time></trkpt><trkpt lat="45.6549614" lon="9.5821018"><ele>189.5</ele><time>2026-03-29T11:34:37.615Z</time></trkpt><trkpt lat="45.6550386" lon="9.5821671"><ele>190.0</ele><time>2026-03-29T11:34:39.615Z</time></trkpt><trkpt lat="45.6551112" lon="9.5822517"><ele>190.5</ele><time>2026-03-29T11:34:41.615Z</time></trkpt><trkpt lat="45.6551701" lon="9.5822847"><ele>191.0</ele><time>2026-03-29T11:34:42.615Z</time></trkpt><trkpt lat="45.6552582" lon="9.5823547"><ele>191.5</ele><time>2026-03-29T11:34:44.614Z</time></trkpt><trkpt lat="45.6553417" lon="9.582388"><ele>192.0</ele><time>2026-03-29T11:34:46.615Z</time></trkpt><trkpt lat="45.6554229" lon="9.582438"><ele>191.0</ele><time>2026-03-29T11:34:48.615Z</time></trkpt><trkpt lat="45.6555138" lon="9.5824978"><ele>190.0</ele><time>2026-03-29T11:34:50.614Z</time></trkpt><trkpt lat="45.6555621" lon="9.5825696"><ele>189.0</ele><time>2026-03-29T11:34:51.615Z</time></trkpt><trkpt lat="45.6556278" lon="9.58262"><ele>188.0</ele><time>2026-03-29T11:34:53.615Z</time></trkpt><trkpt lat="45.6557283" lon="9.5826729"><ele>187.0</ele><time>2026-03-29T11:34:55.615Z</time></trkpt><trkpt lat="45.6558077" lon="9.5827528"><ele>186.0</ele><time>2026-03-29T11:34:57.615Z</time></trkpt><trkpt lat="45.6559039" lon="9.5828179"><ele>187.0</ele><time>2026-03-29T11:34:59.615Z</time></trkpt><trkpt lat="45.6559787" lon="9.5828713"><ele>188.0</ele><time>2026-03-29T11:35:01.615Z</time></trkpt><trkpt lat="45.6560573" lon="9.5829184"><ele>189.0</ele><time>2026-03-29T11:35:03.615Z</time></trkpt><trkpt lat="45.6561471" lon="9.5829798"><ele>190.0</ele><time>2026-03-29T11:35:05.615Z</time></trkpt><trkpt lat="45.6562488" lon="9.5830638"><ele>191.0</ele><time>2026-03-29T11:35:07.615Z</time></trkpt><trkpt lat="45.6563501" lon="9.5831339"><ele>191.0</ele><time>2026-03-29T11:35:09.615Z</time></trkpt><trkpt lat="45.6564609" lon="9.5832096"><ele>191.0</ele><time>2026-03-29T11:35:11.615Z</time></trkpt><trkpt lat="45.6565154" lon="9.5832559"><ele>191.0</ele><time>2026-03-29T11:35:12.615Z</time></trkpt><trkpt lat="45.6566137" lon="9.583344"><ele>191.0</ele><time>2026-03-29T11:35:14.615Z</time></trkpt><trkpt lat="45.6567111" lon="9.5834284"><ele>191.0</ele><time>2026-03-29T11:35:16.615Z</time></trkpt><trkpt lat="45.6568149" lon="9.5835079"><ele>191.0</ele><time>2026-03-29T11:35:18.614Z</time></trkpt><trkpt lat="45.6568919" lon="9.5835782"><ele>191.0</ele><time>2026-03-29T11:35:20.615Z</time></trkpt><trkpt lat="45.6569836" lon="9.5836568"><ele>191.0</ele><time>2026-03-29T11:35:22.615Z</time></trkpt><trkpt lat="45.6570916" lon="9.583748"><ele>191.0</ele><time>2026-03-29T11:35:24.615Z</time></trkpt><trkpt lat="45.6571503" lon="9.5837985"><ele>191.0</ele><time>2026-03-29T11:35:25.614Z</time></trkpt><trkpt lat="45.6572496" lon="9.5838686"><ele>190.83333333333331</ele><time>2026-03-29T11:35:27.615Z</time></trkpt><trkpt lat="45.6573517" lon="9.5839462"><ele>190.66666666666666</ele><time>2026-03-29T11:35:29.614Z</time></trkpt><trkpt lat="45.6574635" lon="9.5840159"><ele>190.5</ele><time>2026-03-29T11:35:31.614Z</time></trkpt><trkpt lat="45.6575294" lon="9.5840627"><ele>190.33333333333334</ele><time>2026-03-29T11:35:32.614Z</time></trkpt><trkpt lat="45.6575909" lon="9.5841079"><ele>190.16666666666669</ele><time>2026-03-29T11:35:33.615Z</time></trkpt><trkpt lat="45.6576443" lon="9.5841576"><ele>190.0</ele><time>2026-03-29T11:35:34.615Z</time></trkpt><trkpt lat="45.6577305" lon="9.5842398"><ele>190.2</ele><time>2026-03-29T11:35:36.615Z</time></trkpt><trkpt lat="45.6578083" lon="9.5843361"><ele>190.4</ele><time>2026-03-29T11:35:38.615Z</time></trkpt><trkpt lat="45.6579023" lon="9.5844358"><ele>190.60000000000002</ele><time>2026-03-29T11:35:40.614Z</time></trkpt><trkpt lat="45.6580062" lon="9.584532"><ele>190.8</ele><time>2026-03-29T11:35:42.615Z</time></trkpt><trkpt lat="45.6580625" lon="9.584591"><ele>191.0</ele><time>2026-03-29T11:35:43.615Z</time></trkpt><trkpt lat="45.6581116" lon="9.5846491"><ele>191.0</ele><time>2026-03-29T11:35:44.615Z</time></trkpt><trkpt lat="45.6582065" lon="9.5847426"><ele>191.0</ele><time>2026-03-29T11:35:46.615Z</time></trkpt><trkpt lat="45.6583144" lon="9.5848103"><ele>191.0</ele><time>2026-03-29T11:35:48.614Z</time></trkpt><trkpt lat="45.6584162" lon="9.5848769"><ele>191.0</ele><time>2026-03-29T11:35:50.615Z</time></trkpt><trkpt lat="45.6585187" lon="9.5849296"><ele>190.5</ele><time>2026-03-29T11:35:52.615Z</time></trkpt><trkpt lat="45.658618" lon="9.5849663"><ele>190.0</ele><time>2026-03-29T11:35:54.615Z</time></trkpt><trkpt lat="45.6587184" lon="9.5850084"><ele>189.5</ele><time>2026-03-29T11:35:56.615Z</time></trkpt><trkpt lat="45.6588305" lon="9.5850375"><ele>189.0</ele><time>2026-03-29T11:35:58.614Z</time></trkpt><trkpt lat="45.6588941" lon="9.5850384"><ele>188.5</ele><time>2026-03-29T11:35:59.615Z</time></trkpt><trkpt lat="45.6589577" lon="9.5850429"><ele>188.0</ele><time>2026-03-29T11:36:00.615Z</time></trkpt><trkpt lat="45.6590223" lon="9.5850434"><ele>188.0</ele><time>2026-03-29T11:36:01.615Z</time></trkpt><trkpt lat="45.6591471" lon="9.585002"><ele>188.0</ele><time>2026-03-29T11:36:03.615Z</time></trkpt><trkpt lat="45.659222" lon="9.5849915"><ele>188.0</ele><time>2026-03-29T11:36:04.614Z</time></trkpt><trkpt lat="45.6592948" lon="9.584991"><ele>188.0</ele><time>2026-03-29T11:36:05.615Z</time></trkpt><trkpt lat="45.6593716" lon="9.5849992"><ele>188.0</ele><time>2026-03-29T11:36:06.615Z</time></trkpt><trkpt lat="45.6594433" lon="9.5850153"><ele>188.0</ele><time>2026-03-29T11:36:07.615Z</time></trkpt><trkpt lat="45.6595101" lon="9.5850418"><ele>187.5</ele><time>2026-03-29T11:36:08.615Z</time></trkpt><trkpt lat="45.6596148" lon="9.5850669"><ele>187.0</ele><time>2026-03-29T11:36:09.614Z</time></trkpt><trkpt lat="45.6596782" lon="9.5850986"><ele>186.5</ele><time>2026-03-29T11:36:10.615Z</time></trkpt><trkpt lat="45.6597505" lon="9.5851269"><ele>186.0</ele><time>2026-03-29T11:36:11.614Z</time></trkpt><trkpt lat="45.6598171" lon="9.5851507"><ele>185.5</ele><time>2026-03-29T11:36:12.615Z</time></trkpt><trkpt lat="45.6598789" lon="9.5851784"><ele>185.0</ele><time>2026-03-29T11:36:13.615Z</time></trkpt><trkpt lat="45.6599897" lon="9.5852374"><ele>185.0</ele><time>2026-03-29T11:36:15.615Z</time></trkpt><trkpt lat="45.6601096" lon="9.5852928"><ele>185.0</ele><time>2026-03-29T11:36:17.615Z</time></trkpt><trkpt lat="45.6601718" lon="9.5853206"><ele>185.0</ele><time>2026-03-29T11:36:18.615Z</time></trkpt><trkpt lat="45.6602966" lon="9.5853711"><ele>185.0</ele><time>2026-03-29T11:36:20.615Z</time></trkpt><trkpt lat="45.6604042" lon="9.5854152"><ele>185.0</ele><time>2026-03-29T11:36:22.615Z</time></trkpt><trkpt lat="45.660518" lon="9.5854632"><ele>186.6</ele><time>2026-03-29T11:36:24.615Z</time></trkpt><trkpt lat="45.6605809" lon="9.5854876"><ele>188.2</ele><time>2026-03-29T11:36:25.615Z</time></trkpt><trkpt lat="45.6607039" lon="9.5855086"><ele>189.8</ele><time>2026-03-29T11:36:27.615Z</time></trkpt><trkpt lat="45.6608193" lon="9.5855345"><ele>191.4</ele><time>2026-03-29T11:36:29.615Z</time></trkpt><trkpt lat="45.6609374" lon="9.5855446"><ele>193.0</ele><time>2026-03-29T11:36:31.615Z</time></trkpt><trkpt lat="45.6610014" lon="9.5855475"><ele>192.99999999999997</ele><time>2026-03-29T11:36:32.615Z</time></trkpt><trkpt lat="45.661067" lon="9.5855524"><ele>193.0</ele><time>2026-03-29T11:36:33.615Z</time></trkpt><trkpt lat="45.6611827" lon="9.5855671"><ele>193.0</ele><time>2026-03-29T11:36:35.615Z</time></trkpt><trkpt lat="45.6612465" lon="9.5855745"><ele>193.0</ele><time>2026-03-29T11:36:36.615Z</time></trkpt><trkpt lat="45.661367" lon="9.5855971"><ele>192.99999999999997</ele><time>2026-03-29T11:36:38.615Z</time></trkpt><trkpt lat="45.6614318" lon="9.5855948"><ele>193.0</ele><time>2026-03-29T11:36:39.615Z</time></trkpt><trkpt lat="45.6615016" lon="9.5855807"><ele>193.0</ele><time>2026-03-29T11:36:40.615Z</time></trkpt><trkpt lat="45.6616116" lon="9.5856091"><ele>193.0</ele><time>2026-03-29T11:36:42.615Z</time></trkpt><trkpt lat="45.6616754" lon="9.5856007"><ele>193.0</ele><time>2026-03-29T11:36:43.615Z</time></trkpt><trkpt lat="45.6617908" lon="9.5856123"><ele>193.0</ele><time>2026-03-29T11:36:45.615Z</time></trkpt><trkpt lat="45.6618576" lon="9.5856228"><ele>193.0</ele><time>2026-03-29T11:36:46.615Z</time></trkpt><trkpt lat="45.6619754" lon="9.5856335"><ele>193.0</ele><time>2026-03-29T11:36:48.615Z</time></trkpt><trkpt lat="45.6620878" lon="9.5856279"><ele>193.0</ele><time>2026-03-29T11:36:50.615Z</time></trkpt><trkpt lat="45.6622046" lon="9.5856353"><ele>193.0</ele><time>2026-03-29T11:36:52.615Z</time></trkpt><trkpt lat="45.6623246" lon="9.5856467"><ele>193.0</ele><time>2026-03-29T11:36:54.615Z</time></trkpt><trkpt lat="45.6623848" lon="9.5856788"><ele>193.0</ele><time>2026-03-29T11:36:55.614Z</time></trkpt><trkpt lat="45.6624983" lon="9.5856711"><ele>193.0</ele><time>2026-03-29T11:36:57.615Z</time></trkpt><trkpt lat="45.662622" lon="9.5856719"><ele>193.0</ele><time>2026-03-29T11:36:59.615Z</time></trkpt><trkpt lat="45.6627438" lon="9.585687"><ele>193.0</ele><time>2026-03-29T11:37:01.615Z</time></trkpt><trkpt lat="45.6628592" lon="9.5856658"><ele>193.0</ele><time>2026-03-29T11:37:03.614Z</time></trkpt><trkpt lat="45.6629554" lon="9.5856461"><ele>193.0</ele><time>2026-03-29T11:37:05.615Z</time></trkpt><trkpt lat="45.6630351" lon="9.5856169"><ele>193.0</ele><time>2026-03-29T11:37:07.615Z</time></trkpt><trkpt lat="45.6631333" lon="9.5855925"><ele>193.0</ele><time>2026-03-29T11:37:09.615Z</time></trkpt><trkpt lat="45.6632183" lon="9.5855759"><ele>193.0</ele><time>2026-03-29T11:37:11.615Z</time></trkpt><trkpt lat="45.6633144" lon="9.5855837"><ele>193.0</ele><time>2026-03-29T11:37:13.615Z</time></trkpt><trkpt lat="45.6634632" lon="9.5856041"><ele>192.99999999999997</ele><time>2026-03-29T11:37:16.615Z</time></trkpt><trkpt lat="45.6635249" lon="9.5856388"><ele>193.0</ele><time>2026-03-29T11:37:17.615Z</time></trkpt><trkpt lat="45.6635803" lon="9.585691"><ele>193.0</ele><time>2026-03-29T11:37:18.615Z</time></trkpt><trkpt lat="45.6636845" lon="9.5857734"><ele>193.0</ele><time>2026-03-29T11:37:20.615Z</time></trkpt><trkpt lat="45.6637727" lon="9.5858563"><ele>192.99999999999997</ele><time>2026-03-29T11:37:22.615Z</time></trkpt><trkpt lat="45.6638216" lon="9.5859659"><ele>193.0</ele><time>2026-03-29T11:37:24.615Z</time></trkpt><trkpt lat="45.6639256" lon="9.5860309"><ele>193.16666666666666</ele><time>2026-03-29T11:37:26.614Z</time></trkpt><trkpt lat="45.6640037" lon="9.5860661"><ele>193.33333333333331</ele><time>2026-03-29T11:37:28.615Z</time></trkpt><trkpt lat="45.6640979" lon="9.5861229"><ele>193.5</ele><time>2026-03-29T11:37:30.615Z</time></trkpt><trkpt lat="45.6641596" lon="9.5861589"><ele>193.66666666666669</ele><time>2026-03-29T11:37:31.615Z</time></trkpt><trkpt lat="45.66427" lon="9.5862155"><ele>193.83333333333334</ele><time>2026-03-29T11:37:33.615Z</time></trkpt><trkpt lat="45.6643301" lon="9.586245"><ele>194.0</ele><time>2026-03-29T11:37:34.615Z</time></trkpt><trkpt lat="45.664428" lon="9.5863136"><ele>193.83333333333334</ele><time>2026-03-29T11:37:36.615Z</time></trkpt><trkpt lat="45.6645029" lon="9.5863662"><ele>193.66666666666669</ele><time>2026-03-29T11:37:38.615Z</time></trkpt><trkpt lat="45.6645726" lon="9.5864654"><ele>193.5</ele><time>2026-03-29T11:37:40.615Z</time></trkpt><trkpt lat="45.6646141" lon="9.5865343"><ele>193.33333333333331</ele><time>2026-03-29T11:37:41.614Z</time></trkpt><trkpt lat="45.6646619" lon="9.5865956"><ele>193.16666666666666</ele><time>2026-03-29T11:37:42.615Z</time></trkpt><trkpt lat="45.6647156" lon="9.5866513"><ele>193.0</ele><time>2026-03-29T11:37:43.614Z</time></trkpt><trkpt lat="45.6648132" lon="9.5867479"><ele>193.0</ele><time>2026-03-29T11:37:45.614Z</time></trkpt><trkpt lat="45.6649061" lon="9.586802"><ele>193.0</ele><time>2026-03-29T11:37:47.615Z</time></trkpt><trkpt lat="45.6650119" lon="9.5868828"><ele>193.0</ele><time>2026-03-29T11:37:49.615Z</time></trkpt><trkpt lat="45.6651131" lon="9.5869264"><ele>193.0</ele><time>2026-03-29T11:37:51.614Z</time></trkpt><trkpt lat="45.6652098" lon="9.5869519"><ele>193.0</ele><time>2026-03-29T11:37:53.614Z</time></trkpt><trkpt lat="45.6653277" lon="9.5869689"><ele>193.00000000000003</ele><time>2026-03-29T11:37:55.615Z</time></trkpt><trkpt lat="45.6653951" lon="9.5869648"><ele>193.0</ele><time>2026-03-29T11:37:56.615Z</time></trkpt><trkpt lat="45.6654606" lon="9.5869688"><ele>193.0</ele><time>2026-03-29T11:37:57.615Z</time></trkpt><trkpt lat="45.6655247" lon="9.5869838"><ele>193.0</ele><time>2026-03-29T11:37:58.615Z</time></trkpt><trkpt lat="45.6655932" lon="9.5869642"><ele>193.0</ele><time>2026-03-29T11:37:59.615Z</time></trkpt><trkpt lat="45.6657046" lon="9.5869542"><ele>193.00000000000003</ele><time>2026-03-29T11:38:01.615Z</time></trkpt><trkpt lat="45.6657686" lon="9.5869393"><ele>193.0</ele><time>2026-03-29T11:38:02.615Z</time></trkpt><trkpt lat="45.6658406" lon="9.5869203"><ele>193.0</ele><time>2026-03-29T11:38:03.615Z</time></trkpt><trkpt lat="45.6659161" lon="9.5869162"><ele>193.0</ele><time>2026-03-29T11:38:04.615Z</time></trkpt><trkpt lat="45.6659857" lon="9.5868969"><ele>193.0</ele><time>2026-03-29T11:38:05.615Z</time></trkpt><trkpt lat="45.6660833" lon="9.5868741"><ele>193.0</ele><time>2026-03-29T11:38:07.615Z</time></trkpt><trkpt lat="45.6661944" lon="9.5868657"><ele>193.0</ele><time>2026-03-29T11:38:09.615Z</time></trkpt><trkpt lat="45.6663424" lon="9.5868868"><ele>192.83333333333331</ele><time>2026-03-29T11:38:12.615Z</time></trkpt><trkpt lat="45.6664062" lon="9.5869058"><ele>192.66666666666666</ele><time>2026-03-29T11:38:13.615Z</time></trkpt><trkpt lat="45.6665133" lon="9.586934"><ele>192.5</ele><time>2026-03-29T11:38:15.615Z</time></trkpt><trkpt lat="45.6665785" lon="9.5869721"><ele>192.33333333333331</ele><time>2026-03-29T11:38:16.615Z</time></trkpt><trkpt lat="45.6666895" lon="9.5870366"><ele>192.16666666666666</ele><time>2026-03-29T11:38:18.615Z</time></trkpt><trkpt lat="45.6667451" lon="9.587083"><ele>192.0</ele><time>2026-03-29T11:38:19.615Z</time></trkpt><trkpt lat="45.6668558" lon="9.5871388"><ele>192.6</ele><time>2026-03-29T11:38:21.614Z</time></trkpt><trkpt lat="45.6669714" lon="9.5871489"><ele>193.2</ele><time>2026-03-29T11:38:23.615Z</time></trkpt><trkpt lat="45.6670363" lon="9.587185"><ele>193.8</ele><time>2026-03-29T11:38:24.615Z</time></trkpt><trkpt lat="45.6671467" lon="9.5872203"><ele>194.4</ele><time>2026-03-29T11:38:26.615Z</time></trkpt><trkpt lat="45.6672582" lon="9.5872285"><ele>195.0</ele><time>2026-03-29T11:38:28.615Z</time></trkpt><trkpt lat="45.667343" lon="9.5872283"><ele>195.0</ele><time>2026-03-29T11:38:30.615Z</time></trkpt><trkpt lat="45.6672616" lon="9.587193"><ele>195.0</ele><time>2026-03-29T11:38:41.615Z</time></trkpt><trkpt lat="45.667195" lon="9.5871765"><ele>195.0</ele><time>2026-03-29T11:38:43.615Z</time></trkpt><trkpt lat="45.6670865" lon="9.5871672"><ele>195.0</ele><time>2026-03-29T11:38:45.615Z</time></trkpt><trkpt lat="45.6670227" lon="9.5871286"><ele>195.0</ele><time>2026-03-29T11:38:47.615Z</time></trkpt><trkpt lat="45.6669934" lon="9.5870341"><ele>195.0</ele><time>2026-03-29T11:38:49.615Z</time></trkpt><trkpt lat="45.6670232" lon="9.5868906"><ele>194.0</ele><time>2026-03-29T11:38:51.615Z</time></trkpt><trkpt lat="45.6670475" lon="9.586758"><ele>193.0</ele><time>2026-03-29T11:38:53.615Z</time></trkpt><trkpt lat="45.6670782" lon="9.586601"><ele>192.0</ele><time>2026-03-29T11:38:55.615Z</time></trkpt><trkpt lat="45.6670988" lon="9.5864506"><ele>191.0</ele><time>2026-03-29T11:38:57.615Z</time></trkpt><trkpt lat="45.6671368" lon="9.5862975"><ele>190.0</ele><time>2026-03-29T11:38:59.615Z</time></trkpt><trkpt lat="45.6671641" lon="9.5862012"><ele>189.75</ele><time>2026-03-29T11:39:00.615Z</time></trkpt><trkpt lat="45.6672002" lon="9.5860627"><ele>189.5</ele><time>2026-03-29T11:39:02.615Z</time></trkpt><trkpt lat="45.6672316" lon="9.5858912"><ele>189.25</ele><time>2026-03-29T11:39:04.615Z</time></trkpt><trkpt lat="45.6672792" lon="9.5857394"><ele>189.0</ele><time>2026-03-29T11:39:06.615Z</time></trkpt><trkpt lat="45.6673086" lon="9.5855642"><ele>189.0</ele><time>2026-03-29T11:39:08.615Z</time></trkpt><trkpt lat="45.667336" lon="9.5854788"><ele>189.0</ele><time>2026-03-29T11:39:09.614Z</time></trkpt><trkpt lat="45.6673693" lon="9.585334"><ele>189.0</ele><time>2026-03-29T11:39:11.615Z</time></trkpt><trkpt lat="45.6673947" lon="9.5852422"><ele>189.0</ele><time>2026-03-29T11:39:12.615Z</time></trkpt><trkpt lat="45.6674409" lon="9.5850935"><ele>189.0</ele><time>2026-03-29T11:39:14.615Z</time></trkpt><trkpt lat="45.6674854" lon="9.5849301"><ele>189.0</ele><time>2026-03-29T11:39:16.615Z</time></trkpt><trkpt lat="45.6675177" lon="9.584771"><ele>189.0</ele><time>2026-03-29T11:39:18.614Z</time></trkpt><trkpt lat="45.6675669" lon="9.5846201"><ele>189.0</ele><time>2026-03-29T11:39:20.615Z</time></trkpt><trkpt lat="45.6676234" lon="9.5844717"><ele>189.0</ele><time>2026-03-29T11:39:22.615Z</time></trkpt><trkpt lat="45.6677128" lon="9.5843927"><ele>189.0</ele><time>2026-03-29T11:39:24.614Z</time></trkpt><trkpt lat="45.6677933" lon="9.5843893"><ele>189.0</ele><time>2026-03-29T11:39:26.615Z</time></trkpt><trkpt lat="45.6678727" lon="9.5844126"><ele>189.0</ele><time>2026-03-29T11:39:28.615Z</time></trkpt><trkpt lat="45.6680034" lon="9.5844438"><ele>189.0</ele><time>2026-03-29T11:39:31.614Z</time></trkpt><trkpt lat="45.668061" lon="9.5844873"><ele>189.0</ele><time>2026-03-29T11:39:32.615Z</time></trkpt><trkpt lat="45.6681513" lon="9.5845567"><ele>189.0</ele><time>2026-03-29T11:39:34.615Z</time></trkpt><trkpt lat="45.6682372" lon="9.5846302"><ele>189.0</ele><time>2026-03-29T11:39:36.615Z</time></trkpt><trkpt lat="45.6683268" lon="9.5847419"><ele>189.0</ele><time>2026-03-29T11:39:38.615Z</time></trkpt><trkpt lat="45.6684316" lon="9.5848329"><ele>189.0</ele><time>2026-03-29T11:39:40.615Z</time></trkpt><trkpt lat="45.6685163" lon="9.5849194"><ele>189.0</ele><time>2026-03-29T11:39:42.615Z</time></trkpt><trkpt lat="45.6685828" lon="9.5850518"><ele>188.39999999999998</ele><time>2026-03-29T11:39:44.615Z</time></trkpt><trkpt lat="45.6686514" lon="9.585176"><ele>187.8</ele><time>2026-03-29T11:39:46.614Z</time></trkpt><trkpt lat="45.6687001" lon="9.5852819"><ele>187.2</ele><time>2026-03-29T11:39:48.615Z</time></trkpt><trkpt lat="45.668783" lon="9.5853842"><ele>186.60000000000002</ele><time>2026-03-29T11:39:50.614Z</time></trkpt><trkpt lat="45.6688763" lon="9.5854857"><ele>186.0</ele><time>2026-03-29T11:39:52.614Z</time></trkpt><trkpt lat="45.668974" lon="9.5856193"><ele>186.0</ele><time>2026-03-29T11:39:54.615Z</time></trkpt><trkpt lat="45.6690705" lon="9.5856817"><ele>186.0</ele><time>2026-03-29T11:39:56.615Z</time></trkpt><trkpt lat="45.6691626" lon="9.5857733"><ele>186.0</ele><time>2026-03-29T11:39:58.615Z</time></trkpt><trkpt lat="45.6692229" lon="9.5858027"><ele>186.0</ele><time>2026-03-29T11:39:59.615Z</time></trkpt><trkpt lat="45.6692802" lon="9.5858526"><ele>186.0</ele><time>2026-03-29T11:40:00.615Z</time></trkpt><trkpt lat="45.6693245" lon="9.5859178"><ele>186.0</ele><time>2026-03-29T11:40:01.615Z</time></trkpt><trkpt lat="45.6694196" lon="9.585972"><ele>185.8</ele><time>2026-03-29T11:40:03.615Z</time></trkpt><trkpt lat="45.6695221" lon="9.5860267"><ele>185.60000000000002</ele><time>2026-03-29T11:40:05.615Z</time></trkpt><trkpt lat="45.6696525" lon="9.5860847"><ele>185.4</ele><time>2026-03-29T11:40:07.615Z</time></trkpt><trkpt lat="45.669773" lon="9.5861209"><ele>185.2</ele><time>2026-03-29T11:40:09.615Z</time></trkpt><trkpt lat="45.6698421" lon="9.5861794"><ele>185.0</ele><time>2026-03-29T11:40:10.615Z</time></trkpt><trkpt lat="45.6699101" lon="9.5861858"><ele>185.83333333333331</ele><time>2026-03-29T11:40:11.615Z</time></trkpt><trkpt lat="45.669994" lon="9.5862016"><ele>186.66666666666666</ele><time>2026-03-29T11:40:12.615Z</time></trkpt><trkpt lat="45.6700643" lon="9.5862503"><ele>187.5</ele><time>2026-03-29T11:40:13.615Z</time></trkpt><trkpt lat="45.6701258" lon="9.5862889"><ele>188.33333333333334</ele><time>2026-03-29T11:40:14.615Z</time></trkpt><trkpt lat="45.6701968" lon="9.5863392"><ele>189.16666666666669</ele><time>2026-03-29T11:40:15.615Z</time></trkpt><trkpt lat="45.6702937" lon="9.5864097"><ele>190.0</ele><time>2026-03-29T11:40:17.615Z</time></trkpt><trkpt lat="45.6704055" lon="9.5864618"><ele>190.33333333333334</ele><time>2026-03-29T11:40:19.614Z</time></trkpt><trkpt lat="45.6704662" lon="9.5864957"><ele>190.66666666666669</ele><time>2026-03-29T11:40:20.615Z</time></trkpt><trkpt lat="45.6705255" lon="9.5865365"><ele>191.0</ele><time>2026-03-29T11:40:21.615Z</time></trkpt><trkpt lat="45.6706433" lon="9.5866045"><ele>191.33333333333334</ele><time>2026-03-29T11:40:23.615Z</time></trkpt><trkpt lat="45.6707654" lon="9.5866578"><ele>191.66666666666666</ele><time>2026-03-29T11:40:25.615Z</time></trkpt><trkpt lat="45.670826" lon="9.5866826"><ele>192.0</ele><time>2026-03-29T11:40:26.615Z</time></trkpt><trkpt lat="45.6709453" lon="9.586731"><ele>192.0</ele><time>2026-03-29T11:40:28.615Z</time></trkpt><trkpt lat="45.6710585" lon="9.5867739"><ele>192.0</ele><time>2026-03-29T11:40:30.615Z</time></trkpt><trkpt lat="45.6711634" lon="9.5868336"><ele>192.0</ele><time>2026-03-29T11:40:32.615Z</time></trkpt><trkpt lat="45.6712583" lon="9.5868938"><ele>192.0</ele><time>2026-03-29T11:40:34.615Z</time></trkpt><trkpt lat="45.6713246" lon="9.5869241"><ele>192.0</ele><time>2026-03-29T11:40:35.615Z</time></trkpt><trkpt lat="45.6714022" lon="9.5869685"><ele>192.0</ele><time>2026-03-29T11:40:36.615Z</time></trkpt><trkpt lat="45.671525" lon="9.5870311"><ele>192.0</ele><time>2026-03-29T11:40:38.614Z</time></trkpt><trkpt lat="45.6716234" lon="9.5870803"><ele>192.0</ele><time>2026-03-29T11:40:40.615Z</time></trkpt><trkpt lat="45.6716866" lon="9.5870976"><ele>192.0</ele><time>2026-03-29T11:40:41.615Z</time></trkpt><trkpt lat="45.6717517" lon="9.5871416"><ele>192.0</ele><time>2026-03-29T11:40:42.615Z</time></trkpt><trkpt lat="45.6718224" lon="9.5871627"><ele>192.0</ele><time>2026-03-29T11:40:43.615Z</time></trkpt><trkpt lat="45.6718854" lon="9.587175"><ele>191.66666666666666</ele><time>2026-03-29T11:40:44.615Z</time></trkpt><trkpt lat="45.6719611" lon="9.5872045"><ele>191.33333333333334</ele><time>2026-03-29T11:40:45.615Z</time></trkpt><trkpt lat="45.6720241" lon="9.5872293"><ele>191.0</ele><time>2026-03-29T11:40:46.615Z</time></trkpt><trkpt lat="45.6720855" lon="9.5872517"><ele>190.66666666666669</ele><time>2026-03-29T11:40:47.615Z</time></trkpt><trkpt lat="45.6722024" lon="9.5872836"><ele>190.33333333333334</ele><time>2026-03-29T11:40:49.615Z</time></trkpt><trkpt lat="45.6723191" lon="9.5872988"><ele>190.0</ele><time>2026-03-29T11:40:51.615Z</time></trkpt><trkpt lat="45.6723861" lon="9.587327"><ele>190.0</ele><time>2026-03-29T11:40:52.615Z</time></trkpt><trkpt lat="45.6724531" lon="9.5873401"><ele>190.0</ele><time>2026-03-29T11:40:53.615Z</time></trkpt><trkpt lat="45.6725962" lon="9.5873402"><ele>190.0</ele><time>2026-03-29T11:40:55.615Z</time></trkpt><trkpt lat="45.6727175" lon="9.5873429"><ele>190.0</ele><time>2026-03-29T11:40:57.615Z</time></trkpt><trkpt lat="45.672783" lon="9.5873634"><ele>190.0</ele><time>2026-03-29T11:40:58.615Z</time></trkpt><trkpt lat="45.6729055" lon="9.5873709"><ele>190.2</ele><time>2026-03-29T11:41:00.615Z</time></trkpt><trkpt lat="45.6730277" lon="9.5873803"><ele>190.4</ele><time>2026-03-29T11:41:02.615Z</time></trkpt><trkpt lat="45.6731393" lon="9.5873777"><ele>190.60000000000002</ele><time>2026-03-29T11:41:04.615Z</time></trkpt><trkpt lat="45.6732554" lon="9.5873886"><ele>190.8</ele><time>2026-03-29T11:41:06.615Z</time></trkpt><trkpt lat="45.6733227" lon="9.5873754"><ele>191.0</ele><time>2026-03-29T11:41:07.615Z</time></trkpt><trkpt lat="45.6734406" lon="9.5873782"><ele>191.0</ele><time>2026-03-29T11:41:09.614Z</time></trkpt><trkpt lat="45.6735635" lon="9.587364"><ele>191.0</ele><time>2026-03-29T11:41:11.615Z</time></trkpt><trkpt lat="45.6736314" lon="9.5873632"><ele>191.0</ele><time>2026-03-29T11:41:12.615Z</time></trkpt><trkpt lat="45.6737488" lon="9.5873344"><ele>191.0</ele><time>2026-03-29T11:41:14.615Z</time></trkpt><trkpt lat="45.6738108" lon="9.5873183"><ele>191.0</ele><time>2026-03-29T11:41:15.615Z</time></trkpt><trkpt lat="45.6739301" lon="9.5873007"><ele>191.20000000000002</ele><time>2026-03-29T11:41:17.615Z</time></trkpt><trkpt lat="45.6740468" lon="9.5872846"><ele>191.4</ele><time>2026-03-29T11:41:19.615Z</time></trkpt><trkpt lat="45.6741545" lon="9.5872822"><ele>191.6</ele><time>2026-03-29T11:41:21.615Z</time></trkpt><trkpt lat="45.674219" lon="9.5872885"><ele>191.8</ele><time>2026-03-29T11:41:22.615Z</time></trkpt><trkpt lat="45.6743314" lon="9.5873036"><ele>192.0</ele><time>2026-03-29T11:41:24.615Z</time></trkpt><trkpt lat="45.6743973" lon="9.5873221"><ele>191.6</ele><time>2026-03-29T11:41:25.615Z</time></trkpt><trkpt lat="45.6745106" lon="9.5873547"><ele>191.2</ele><time>2026-03-29T11:41:27.615Z</time></trkpt><trkpt lat="45.6746196" lon="9.5874067"><ele>190.8</ele><time>2026-03-29T11:41:29.615Z</time></trkpt><trkpt lat="45.6747198" lon="9.5874418"><ele>190.4</ele><time>2026-03-29T11:41:31.615Z</time></trkpt><trkpt lat="45.6748163" lon="9.58748"><ele>190.0</ele><time>2026-03-29T11:41:33.615Z</time></trkpt><trkpt lat="45.6749243" lon="9.5875057"><ele>190.0</ele><time>2026-03-29T11:41:35.615Z</time></trkpt><trkpt lat="45.6750308" lon="9.5875553"><ele>190.0</ele><time>2026-03-29T11:41:37.615Z</time></trkpt><trkpt lat="45.6751333" lon="9.5876001"><ele>190.0</ele><time>2026-03-29T11:41:39.615Z</time></trkpt><trkpt lat="45.6752467" lon="9.5876612"><ele>190.0</ele><time>2026-03-29T11:41:41.615Z</time></trkpt><trkpt lat="45.67536" lon="9.5877138"><ele>189.8</ele><time>2026-03-29T11:41:43.615Z</time></trkpt><trkpt lat="45.6754592" lon="9.5877615"><ele>189.6</ele><time>2026-03-29T11:41:45.615Z</time></trkpt><trkpt lat="45.6755494" lon="9.5877895"><ele>189.39999999999998</ele><time>2026-03-29T11:41:47.615Z</time></trkpt><trkpt lat="45.6756607" lon="9.587861"><ele>189.2</ele><time>2026-03-29T11:41:49.615Z</time></trkpt><trkpt lat="45.6757317" lon="9.5878823"><ele>189.0</ele><time>2026-03-29T11:41:50.615Z</time></trkpt><trkpt lat="45.6757977" lon="9.587953"><ele>189.39999999999998</ele><time>2026-03-29T11:41:51.615Z</time></trkpt><trkpt lat="45.6758615" lon="9.5879919"><ele>189.8</ele><time>2026-03-29T11:41:52.615Z</time></trkpt><trkpt lat="45.6759903" lon="9.5880179"><ele>190.2</ele><time>2026-03-29T11:41:54.615Z</time></trkpt><trkpt lat="45.676109" lon="9.5880563"><ele>190.60000000000002</ele><time>2026-03-29T11:41:56.614Z</time></trkpt><trkpt lat="45.6762278" lon="9.5880685"><ele>191.0</ele><time>2026-03-29T11:41:58.615Z</time></trkpt><trkpt lat="45.6762928" lon="9.5880857"><ele>191.4</ele><time>2026-03-29T11:41:59.615Z</time></trkpt><trkpt lat="45.6764068" lon="9.5881292"><ele>191.8</ele><time>2026-03-29T11:42:01.615Z</time></trkpt><trkpt lat="45.6764645" lon="9.5881718"><ele>192.20000000000002</ele><time>2026-03-29T11:42:02.615Z</time></trkpt><trkpt lat="45.6765667" lon="9.5882567"><ele>192.60000000000002</ele><time>2026-03-29T11:42:04.615Z</time></trkpt><trkpt lat="45.6766244" lon="9.588301"><ele>193.0</ele><time>2026-03-29T11:42:05.615Z</time></trkpt><trkpt lat="45.6767286" lon="9.5883764"><ele>193.0</ele><time>2026-03-29T11:42:07.615Z</time></trkpt><trkpt lat="45.6768435" lon="9.5883979"><ele>193.0</ele><time>2026-03-29T11:42:09.615Z</time></trkpt><trkpt lat="45.676961" lon="9.5884267"><ele>193.0</ele><time>2026-03-29T11:42:11.615Z</time></trkpt><trkpt lat="45.6770735" lon="9.5884624"><ele>193.0</ele><time>2026-03-29T11:42:13.615Z</time></trkpt><trkpt lat="45.6771361" lon="9.5884305"><ele>193.0</ele><time>2026-03-29T11:42:14.615Z</time></trkpt><trkpt lat="45.6772306" lon="9.5883277"><ele>193.8</ele><time>2026-03-29T11:42:16.615Z</time></trkpt><trkpt lat="45.6773293" lon="9.5882552"><ele>194.60000000000002</ele><time>2026-03-29T11:42:18.615Z</time></trkpt><trkpt lat="45.6774266" lon="9.5882194"><ele>195.39999999999998</ele><time>2026-03-29T11:42:20.615Z</time></trkpt><trkpt lat="45.6775318" lon="9.5882038"><ele>196.2</ele><time>2026-03-29T11:42:22.614Z</time></trkpt><trkpt lat="45.6776226" lon="9.5882031"><ele>197.0</ele><time>2026-03-29T11:42:24.615Z</time></trkpt><trkpt lat="45.6777217" lon="9.5882017"><ele>196.39999999999998</ele><time>2026-03-29T11:42:26.615Z</time></trkpt><trkpt lat="45.6778375" lon="9.5882168"><ele>195.79999999999998</ele><time>2026-03-29T11:42:28.615Z</time></trkpt><trkpt lat="45.6779401" lon="9.5882601"><ele>195.2</ele><time>2026-03-29T11:42:30.615Z</time></trkpt><trkpt lat="45.6780208" lon="9.5883563"><ele>194.6</ele><time>2026-03-29T11:42:32.615Z</time></trkpt><trkpt lat="45.6781013" lon="9.5884711"><ele>194.0</ele><time>2026-03-29T11:42:34.615Z</time></trkpt><trkpt lat="45.6781997" lon="9.5885604"><ele>194.0</ele><time>2026-03-29T11:42:36.615Z</time></trkpt><trkpt lat="45.6782619" lon="9.5886121"><ele>194.0</ele><time>2026-03-29T11:42:37.615Z</time></trkpt><trkpt lat="45.6783289" lon="9.588637"><ele>194.0</ele><time>2026-03-29T11:42:38.615Z</time></trkpt><trkpt lat="45.678449" lon="9.5886937"><ele>194.0</ele><time>2026-03-29T11:42:40.615Z</time></trkpt><trkpt lat="45.6785124" lon="9.5887176"><ele>194.0</ele><time>2026-03-29T11:42:41.615Z</time></trkpt><trkpt lat="45.6786322" lon="9.5887349"><ele>194.39999999999998</ele><time>2026-03-29T11:42:43.615Z</time></trkpt><trkpt lat="45.6787549" lon="9.5887227"><ele>194.8</ele><time>2026-03-29T11:42:45.615Z</time></trkpt><trkpt lat="45.6788191" lon="9.5887182"><ele>195.2</ele><time>2026-03-29T11:42:46.615Z</time></trkpt><trkpt lat="45.6789405" lon="9.5886799"><ele>195.60000000000002</ele><time>2026-03-29T11:42:48.615Z</time></trkpt><trkpt lat="45.6790536" lon="9.5886401"><ele>196.0</ele><time>2026-03-29T11:42:50.615Z</time></trkpt><trkpt lat="45.6791456" lon="9.5886256"><ele>196.0</ele><time>2026-03-29T11:42:52.615Z</time></trkpt><trkpt lat="45.6792471" lon="9.588607"><ele>196.0</ele><time>2026-03-29T11:42:54.615Z</time></trkpt><trkpt lat="45.679365" lon="9.5885798"><ele>196.0</ele><time>2026-03-29T11:42:56.615Z</time></trkpt><trkpt lat="45.6794691" lon="9.5885403"><ele>196.0</ele><time>2026-03-29T11:42:58.615Z</time></trkpt><trkpt lat="45.6795759" lon="9.5885121"><ele>196.0</ele><time>2026-03-29T11:43:00.615Z</time></trkpt><trkpt lat="45.679683" lon="9.5885024"><ele>195.60000000000002</ele><time>2026-03-29T11:43:02.615Z</time></trkpt><trkpt lat="45.6798006" lon="9.5885114"><ele>195.2</ele><time>2026-03-29T11:43:04.615Z</time></trkpt><trkpt lat="45.6799198" lon="9.5885272"><ele>194.8</ele><time>2026-03-29T11:43:06.615Z</time></trkpt><trkpt lat="45.6799844" lon="9.5885353"><ele>194.39999999999998</ele><time>2026-03-29T11:43:07.615Z</time></trkpt><trkpt lat="45.6800474" lon="9.5885315"><ele>194.0</ele><time>2026-03-29T11:43:08.615Z</time></trkpt><trkpt lat="45.6801579" lon="9.5885542"><ele>193.25</ele><time>2026-03-29T11:43:10.615Z</time></trkpt><trkpt lat="45.6802813" lon="9.588578"><ele>192.5</ele><time>2026-03-29T11:43:12.615Z</time></trkpt><trkpt lat="45.6803898" lon="9.5885925"><ele>191.75</ele><time>2026-03-29T11:43:14.615Z</time></trkpt><trkpt lat="45.6805056" lon="9.5885752"><ele>191.0</ele><time>2026-03-29T11:43:16.615Z</time></trkpt><trkpt lat="45.6806209" lon="9.5885633"><ele>191.0</ele><time>2026-03-29T11:43:18.615Z</time></trkpt><trkpt lat="45.6806894" lon="9.5885534"><ele>191.0</ele><time>2026-03-29T11:43:19.615Z</time></trkpt><trkpt lat="45.6808104" lon="9.5885359"><ele>191.0</ele><time>2026-03-29T11:43:21.614Z</time></trkpt><trkpt lat="45.6808734" lon="9.5885326"><ele>191.0</ele><time>2026-03-29T11:43:22.615Z</time></trkpt><trkpt lat="45.6809874" lon="9.5885068"><ele>191.0</ele><time>2026-03-29T11:43:24.615Z</time></trkpt><trkpt lat="45.6811135" lon="9.5884788"><ele>192.0</ele><time>2026-03-29T11:43:26.615Z</time></trkpt><trkpt lat="45.6812228" lon="9.5884491"><ele>193.0</ele><time>2026-03-29T11:43:28.615Z</time></trkpt><trkpt lat="45.6812843" lon="9.5884278"><ele>194.0</ele><time>2026-03-29T11:43:29.615Z</time></trkpt><trkpt lat="45.6813461" lon="9.588402"><ele>195.0</ele><time>2026-03-29T11:43:30.615Z</time></trkpt><trkpt lat="45.6814073" lon="9.5883795"><ele>196.00000000000003</ele><time>2026-03-29T11:43:31.615Z</time></trkpt><trkpt lat="45.6815294" lon="9.5883627"><ele>197.0</ele><time>2026-03-29T11:43:33.614Z</time></trkpt><trkpt lat="45.681598" lon="9.5883639"><ele>197.00000000000003</ele><time>2026-03-29T11:43:34.615Z</time></trkpt><trkpt lat="45.6817217" lon="9.5883709"><ele>197.0</ele><time>2026-03-29T11:43:36.614Z</time></trkpt><trkpt lat="45.6818418" lon="9.5883755"><ele>197.0</ele><time>2026-03-29T11:43:38.614Z</time></trkpt><trkpt lat="45.68191" lon="9.5883755"><ele>197.0</ele><time>2026-03-29T11:43:39.614Z</time></trkpt><trkpt lat="45.6819761" lon="9.5883809"><ele>197.00000000000003</ele><time>2026-03-29T11:43:40.615Z</time></trkpt><trkpt lat="45.6820398" lon="9.5883773"><ele>197.0</ele><time>2026-03-29T11:43:41.615Z</time></trkpt><trkpt lat="45.6821448" lon="9.588388"><ele>196.39999999999998</ele><time>2026-03-29T11:43:43.615Z</time></trkpt><trkpt lat="45.6822658" lon="9.5883926"><ele>195.79999999999998</ele><time>2026-03-29T11:43:45.615Z</time></trkpt><trkpt lat="45.682392" lon="9.5884163"><ele>195.2</ele><time>2026-03-29T11:43:47.615Z</time></trkpt><trkpt lat="45.6824533" lon="9.5884414"><ele>194.6</ele><time>2026-03-29T11:43:48.615Z</time></trkpt><trkpt lat="45.6825212" lon="9.5884605"><ele>194.0</ele><time>2026-03-29T11:43:49.615Z</time></trkpt><trkpt lat="45.6826413" lon="9.5884995"><ele>194.0</ele><time>2026-03-29T11:43:51.615Z</time></trkpt><trkpt lat="45.6827534" lon="9.5885278"><ele>194.0</ele><time>2026-03-29T11:43:53.615Z</time></trkpt><trkpt lat="45.6828629" lon="9.5885492"><ele>194.0</ele><time>2026-03-29T11:43:55.615Z</time></trkpt><trkpt lat="45.6829297" lon="9.5885588"><ele>194.0</ele><time>2026-03-29T11:43:56.615Z</time></trkpt><trkpt lat="45.6830354" lon="9.5885577"><ele>194.0</ele><time>2026-03-29T11:43:58.615Z</time></trkpt><trkpt lat="45.6831542" lon="9.5885572"><ele>194.0</ele><time>2026-03-29T11:44:00.615Z</time></trkpt><trkpt lat="45.6832659" lon="9.588563"><ele>194.0</ele><time>2026-03-29T11:44:02.615Z</time></trkpt><trkpt lat="45.6833764" lon="9.5885722"><ele>194.0</ele><time>2026-03-29T11:44:04.615Z</time></trkpt><trkpt lat="45.6834891" lon="9.5885767"><ele>194.0</ele><time>2026-03-29T11:44:06.615Z</time></trkpt><trkpt lat="45.6836116" lon="9.5885887"><ele>194.2</ele><time>2026-03-29T11:44:08.615Z</time></trkpt><trkpt lat="45.6836789" lon="9.5885928"><ele>194.39999999999998</ele><time>2026-03-29T11:44:09.615Z</time></trkpt><trkpt lat="45.6837443" lon="9.5885948"><ele>194.6</ele><time>2026-03-29T11:44:10.614Z</time></trkpt><trkpt lat="45.6838633" lon="9.5886059"><ele>194.8</ele><time>2026-03-29T11:44:12.614Z</time></trkpt><trkpt lat="45.6839795" lon="9.5886314"><ele>195.0</ele><time>2026-03-29T11:44:14.615Z</time></trkpt><trkpt lat="45.6840993" lon="9.5886529"><ele>195.4</ele><time>2026-03-29T11:44:16.615Z</time></trkpt><trkpt lat="45.6842191" lon="9.5886897"><ele>195.8</ele><time>2026-03-29T11:44:18.615Z</time></trkpt><trkpt lat="45.684333" lon="9.5887276"><ele>196.2</ele><time>2026-03-29T11:44:20.615Z</time></trkpt><trkpt lat="45.6844012" lon="9.588748"><ele>196.6</ele><time>2026-03-29T11:44:21.615Z</time></trkpt><trkpt lat="45.6845067" lon="9.5887798"><ele>197.0</ele><time>2026-03-29T11:44:23.615Z</time></trkpt><trkpt lat="45.6846252" lon="9.5888027"><ele>197.25</ele><time>2026-03-29T11:44:25.615Z</time></trkpt><trkpt lat="45.6847228" lon="9.588826"><ele>197.5</ele><time>2026-03-29T11:44:27.615Z</time></trkpt><trkpt lat="45.6848361" lon="9.5888528"><ele>197.75</ele><time>2026-03-29T11:44:29.614Z</time></trkpt><trkpt lat="45.6849623" lon="9.5888832"><ele>198.0</ele><time>2026-03-29T11:44:31.615Z</time></trkpt><trkpt lat="45.68508" lon="9.5889065"><ele>198.0</ele><time>2026-03-29T11:44:33.615Z</time></trkpt><trkpt lat="45.6852106" lon="9.5889414"><ele>198.0</ele><time>2026-03-29T11:44:35.615Z</time></trkpt><trkpt lat="45.6853324" lon="9.5889721"><ele>198.0</ele><time>2026-03-29T11:44:37.615Z</time></trkpt><trkpt lat="45.6853977" lon="9.5889917"><ele>198.0</ele><time>2026-03-29T11:44:38.615Z</time></trkpt><trkpt lat="45.6854606" lon="9.5890055"><ele>198.0</ele><time>2026-03-29T11:44:39.615Z</time></trkpt><trkpt lat="45.685586" lon="9.5890359"><ele>198.2857142857143</ele><time>2026-03-29T11:44:41.614Z</time></trkpt><trkpt lat="45.6856489" lon="9.5890629"><ele>198.57142857142856</ele><time>2026-03-29T11:44:42.615Z</time></trkpt><trkpt lat="45.6857146" lon="9.5890736"><ele>198.85714285714286</ele><time>2026-03-29T11:44:43.615Z</time></trkpt><trkpt lat="45.6857843" lon="9.5890956"><ele>199.14285714285717</ele><time>2026-03-29T11:44:44.615Z</time></trkpt><trkpt lat="45.685852" lon="9.5891163"><ele>199.42857142857144</ele><time>2026-03-29T11:44:45.615Z</time></trkpt><trkpt lat="45.6859133" lon="9.5891427"><ele>199.71428571428572</ele><time>2026-03-29T11:44:46.615Z</time></trkpt><trkpt lat="45.6860198" lon="9.5891887"><ele>200.0</ele><time>2026-03-29T11:44:48.615Z</time></trkpt><trkpt lat="45.6860828" lon="9.5892173"><ele>199.6</ele><time>2026-03-29T11:44:49.615Z</time></trkpt><trkpt lat="45.686187" lon="9.5892756"><ele>199.2</ele><time>2026-03-29T11:44:51.614Z</time></trkpt><trkpt lat="45.6862563" lon="9.5893049"><ele>198.8</ele><time>2026-03-29T11:44:52.615Z</time></trkpt><trkpt lat="45.686327" lon="9.5893437"><ele>198.4</ele><time>2026-03-29T11:44:53.615Z</time></trkpt><trkpt lat="45.686443" lon="9.5894038"><ele>198.0</ele><time>2026-03-29T11:44:55.615Z</time></trkpt><trkpt lat="45.6865504" lon="9.5894329"><ele>198.0</ele><time>2026-03-29T11:44:57.615Z</time></trkpt><trkpt lat="45.6866263" lon="9.589432"><ele>198.0</ele><time>2026-03-29T11:44:58.615Z</time></trkpt><trkpt lat="45.6867374" lon="9.5894284"><ele>198.0</ele><time>2026-03-29T11:45:00.615Z</time></trkpt><trkpt lat="45.6868468" lon="9.5894348"><ele>198.0</ele><time>2026-03-29T11:45:02.614Z</time></trkpt><trkpt lat="45.6869443" lon="9.5894529"><ele>198.0</ele><time>2026-03-29T11:45:04.614Z</time></trkpt><trkpt lat="45.6870455" lon="9.589526"><ele>199.25</ele><time>2026-03-29T11:45:06.615Z</time></trkpt><trkpt lat="45.6871378" lon="9.5896258"><ele>200.5</ele><time>2026-03-29T11:45:08.615Z</time></trkpt><trkpt lat="45.6871902" lon="9.5897595"><ele>201.75</ele><time>2026-03-29T11:45:10.615Z</time></trkpt><trkpt lat="45.6872232" lon="9.5899209"><ele>203.0</ele><time>2026-03-29T11:45:12.614Z</time></trkpt><trkpt lat="45.6872299" lon="9.5900995"><ele>203.0</ele><time>2026-03-29T11:45:14.615Z</time></trkpt><trkpt lat="45.6872141" lon="9.5902691"><ele>203.0</ele><time>2026-03-29T11:45:16.615Z</time></trkpt><trkpt lat="45.6871981" lon="9.5904304"><ele>203.0</ele><time>2026-03-29T11:45:18.615Z</time></trkpt><trkpt lat="45.6871773" lon="9.5905875"><ele>203.0</ele><time>2026-03-29T11:45:20.615Z</time></trkpt><trkpt lat="45.6871607" lon="9.590719"><ele>203.0</ele><time>2026-03-29T11:45:22.615Z</time></trkpt><trkpt lat="45.6871425" lon="9.5908582"><ele>203.25</ele><time>2026-03-29T11:45:24.615Z</time></trkpt><trkpt lat="45.6871306" lon="9.590965"><ele>203.5</ele><time>2026-03-29T11:45:26.615Z</time></trkpt><trkpt lat="45.6870474" lon="9.5912375"><ele>203.75</ele><time>2026-03-29T11:45:37.615Z</time></trkpt><trkpt lat="45.687008" lon="9.5913537"><ele>204.0</ele><time>2026-03-29T11:45:39.615Z</time></trkpt><trkpt lat="45.6869697" lon="9.591475"><ele>204.0</ele><time>2026-03-29T11:45:41.615Z</time></trkpt><trkpt lat="45.6869418" lon="9.5916216"><ele>204.0</ele><time>2026-03-29T11:45:43.615Z</time></trkpt><trkpt lat="45.6869184" lon="9.5917592"><ele>204.0</ele><time>2026-03-29T11:45:45.615Z</time></trkpt><trkpt lat="45.686894" lon="9.5919085"><ele>204.0</ele><time>2026-03-29T11:45:47.615Z</time></trkpt><trkpt lat="45.6868691" lon="9.5920533"><ele>204.0</ele><time>2026-03-29T11:45:49.614Z</time></trkpt><trkpt lat="45.6868416" lon="9.5922047"><ele>204.0</ele><time>2026-03-29T11:45:51.615Z</time></trkpt><trkpt lat="45.6868163" lon="9.5923446"><ele>204.0</ele><time>2026-03-29T11:45:53.615Z</time></trkpt><trkpt lat="45.6868003" lon="9.5924931"><ele>204.0</ele><time>2026-03-29T11:45:55.614Z</time></trkpt><trkpt lat="45.6867854" lon="9.5926118"><ele>204.0</ele><time>2026-03-29T11:45:57.615Z</time></trkpt><trkpt lat="45.6867982" lon="9.5927136"><ele>204.0</ele><time>2026-03-29T11:45:59.615Z</time></trkpt><trkpt lat="45.686822" lon="9.5928273"><ele>204.0</ele><time>2026-03-29T11:46:01.615Z</time></trkpt><trkpt lat="45.6868467" lon="9.5929638"><ele>204.79999999999998</ele><time>2026-03-29T11:46:03.615Z</time></trkpt><trkpt lat="45.6868632" lon="9.5931371"><ele>205.6</ele><time>2026-03-29T11:46:05.615Z</time></trkpt><trkpt lat="45.6868763" lon="9.5932928"><ele>206.4</ele><time>2026-03-29T11:46:07.615Z</time></trkpt><trkpt lat="45.6869008" lon="9.5934362"><ele>207.2</ele><time>2026-03-29T11:46:09.615Z</time></trkpt><trkpt lat="45.6869108" lon="9.5935791"><ele>208.0</ele><time>2026-03-29T11:46:11.615Z</time></trkpt><trkpt lat="45.6869185" lon="9.59372"><ele>209.2</ele><time>2026-03-29T11:46:13.615Z</time></trkpt><trkpt lat="45.6869142" lon="9.5938586"><ele>210.4</ele><time>2026-03-29T11:46:15.615Z</time></trkpt><trkpt lat="45.6869141" lon="9.5939921"><ele>211.59999999999997</ele><time>2026-03-29T11:46:17.614Z</time></trkpt><trkpt lat="45.6869148" lon="9.5941574"><ele>212.79999999999998</ele><time>2026-03-29T11:46:19.615Z</time></trkpt><trkpt lat="45.6869071" lon="9.5942843"><ele>214.0</ele><time>2026-03-29T11:46:21.615Z</time></trkpt><trkpt lat="45.6868938" lon="9.5944069"><ele>214.0</ele><time>2026-03-29T11:46:23.615Z</time></trkpt><trkpt lat="45.6868858" lon="9.5945401"><ele>213.99999999999997</ele><time>2026-03-29T11:46:25.615Z</time></trkpt><trkpt lat="45.6868788" lon="9.5946572"><ele>213.99999999999997</ele><time>2026-03-29T11:46:27.615Z</time></trkpt><trkpt lat="45.6868687" lon="9.5947931"><ele>214.0</ele><time>2026-03-29T11:46:29.615Z</time></trkpt><trkpt lat="45.6868615" lon="9.594925"><ele>214.0</ele><time>2026-03-29T11:46:31.615Z</time></trkpt><trkpt lat="45.6868554" lon="9.5950647"><ele>214.0</ele><time>2026-03-29T11:46:33.615Z</time></trkpt><trkpt lat="45.6868347" lon="9.5951972"><ele>213.99999999999997</ele><time>2026-03-29T11:46:35.615Z</time></trkpt><trkpt lat="45.686818" lon="9.5953427"><ele>213.99999999999997</ele><time>2026-03-29T11:46:37.615Z</time></trkpt><trkpt lat="45.6868047" lon="9.5954775"><ele>214.0</ele><time>2026-03-29T11:46:39.615Z</time></trkpt><trkpt lat="45.6867957" lon="9.5956024"><ele>214.0</ele><time>2026-03-29T11:46:41.615Z</time></trkpt><trkpt lat="45.6867938" lon="9.5957393"><ele>214.33333333333331</ele><time>2026-03-29T11:46:43.615Z</time></trkpt><trkpt lat="45.6868088" lon="9.5958753"><ele>214.66666666666666</ele><time>2026-03-29T11:46:45.615Z</time></trkpt><trkpt lat="45.6868233" lon="9.5959951"><ele>215.0</ele><time>2026-03-29T11:46:47.615Z</time></trkpt><trkpt lat="45.6868486" lon="9.5961092"><ele>215.33333333333331</ele><time>2026-03-29T11:46:49.615Z</time></trkpt><trkpt lat="45.6868774" lon="9.5962138"><ele>215.66666666666666</ele><time>2026-03-29T11:46:51.615Z</time></trkpt><trkpt lat="45.6869083" lon="9.596343"><ele>216.0</ele><time>2026-03-29T11:46:53.615Z</time></trkpt><trkpt lat="45.6869356" lon="9.5964515"><ele>216.20000000000002</ele><time>2026-03-29T11:46:55.615Z</time></trkpt><trkpt lat="45.6869487" lon="9.5965764"><ele>216.40000000000003</ele><time>2026-03-29T11:46:57.615Z</time></trkpt><trkpt lat="45.6869774" lon="9.5966597"><ele>216.6</ele><time>2026-03-29T11:46:58.615Z</time></trkpt><trkpt lat="45.6870021" lon="9.5967894"><ele>216.8</ele><time>2026-03-29T11:47:00.614Z</time></trkpt><trkpt lat="45.6870242" lon="9.5969352"><ele>217.0</ele><time>2026-03-29T11:47:02.615Z</time></trkpt><trkpt lat="45.6870459" lon="9.5970726"><ele>217.2</ele><time>2026-03-29T11:47:04.615Z</time></trkpt><trkpt lat="45.6870754" lon="9.5972283"><ele>217.39999999999998</ele><time>2026-03-29T11:47:06.615Z</time></trkpt><trkpt lat="45.6871132" lon="9.5973612"><ele>217.60000000000002</ele><time>2026-03-29T11:47:08.615Z</time></trkpt><trkpt lat="45.6871549" lon="9.5974751"><ele>217.8</ele><time>2026-03-29T11:47:10.615Z</time></trkpt><trkpt lat="45.6871855" lon="9.5976084"><ele>218.0</ele><time>2026-03-29T11:47:12.615Z</time></trkpt><trkpt lat="45.6872159" lon="9.5977135"><ele>218.0</ele><time>2026-03-29T11:47:14.614Z</time></trkpt><trkpt lat="45.6872502" lon="9.5978346"><ele>218.0</ele><time>2026-03-29T11:47:16.615Z</time></trkpt><trkpt lat="45.6872831" lon="9.597958"><ele>218.0</ele><time>2026-03-29T11:47:18.614Z</time></trkpt><trkpt lat="45.6873116" lon="9.5981037"><ele>218.0</ele><time>2026-03-29T11:47:20.615Z</time></trkpt><trkpt lat="45.6873344" lon="9.5982166"><ele>218.0</ele><time>2026-03-29T11:47:22.615Z</time></trkpt><trkpt lat="45.6873645" lon="9.5983333"><ele>218.16666666666669</ele><time>2026-03-29T11:47:24.614Z</time></trkpt><trkpt lat="45.6873979" lon="9.59846"><ele>218.33333333333334</ele><time>2026-03-29T11:47:26.615Z</time></trkpt><trkpt lat="45.6874195" lon="9.5985665"><ele>218.5</ele><time>2026-03-29T11:47:28.615Z</time></trkpt><trkpt lat="45.6874525" lon="9.5986858"><ele>218.66666666666669</ele><time>2026-03-29T11:47:30.615Z</time></trkpt><trkpt lat="45.6874834" lon="9.5988033"><ele>218.83333333333334</ele><time>2026-03-29T11:47:32.615Z</time></trkpt><trkpt lat="45.687517" lon="9.5989349"><ele>219.0</ele><time>2026-03-29T11:47:34.615Z</time></trkpt><trkpt lat="45.6875485" lon="9.5990783"><ele>219.39999999999998</ele><time>2026-03-29T11:47:36.615Z</time></trkpt><trkpt lat="45.6875866" lon="9.5992023"><ele>219.79999999999998</ele><time>2026-03-29T11:47:38.615Z</time></trkpt><trkpt lat="45.6876078" lon="9.5993504"><ele>220.20000000000002</ele><time>2026-03-29T11:47:40.615Z</time></trkpt><trkpt lat="45.6876332" lon="9.5994757"><ele>220.60000000000002</ele><time>2026-03-29T11:47:42.615Z</time></trkpt><trkpt lat="45.6876653" lon="9.5995901"><ele>221.0</ele><time>2026-03-29T11:47:44.615Z</time></trkpt><trkpt lat="45.6877011" lon="9.5997266"><ele>221.16666666666669</ele><time>2026-03-29T11:47:46.615Z</time></trkpt><trkpt lat="45.6877322" lon="9.5998582"><ele>221.33333333333334</ele><time>2026-03-29T11:47:48.615Z</time></trkpt><trkpt lat="45.6877577" lon="9.5999743"><ele>221.5</ele><time>2026-03-29T11:47:50.614Z</time></trkpt><trkpt lat="45.6877896" lon="9.6000825"><ele>221.66666666666669</ele><time>2026-03-29T11:47:52.615Z</time></trkpt><trkpt lat="45.6878209" lon="9.6002152"><ele>221.83333333333334</ele><time>2026-03-29T11:47:54.615Z</time></trkpt><trkpt lat="45.6878457" lon="9.6003224"><ele>222.0</ele><time>2026-03-29T11:47:56.615Z</time></trkpt><trkpt lat="45.6878744" lon="9.6004302"><ele>222.6</ele><time>2026-03-29T11:47:58.615Z</time></trkpt><trkpt lat="45.6879185" lon="9.600569"><ele>223.2</ele><time>2026-03-29T11:48:00.615Z</time></trkpt><trkpt lat="45.6879545" lon="9.600684"><ele>223.8</ele><time>2026-03-29T11:48:02.615Z</time></trkpt><trkpt lat="45.6880085" lon="9.6008198"><ele>224.4</ele><time>2026-03-29T11:48:04.615Z</time></trkpt><trkpt lat="45.6880524" lon="9.600961"><ele>225.0</ele><time>2026-03-29T11:48:06.614Z</time></trkpt><trkpt lat="45.6880942" lon="9.6011044"><ele>225.66666666666666</ele><time>2026-03-29T11:48:08.615Z</time></trkpt><trkpt lat="45.6881215" lon="9.6012033"><ele>226.33333333333331</ele><time>2026-03-29T11:48:10.615Z</time></trkpt><trkpt lat="45.6881537" lon="9.6013281"><ele>227.0</ele><time>2026-03-29T11:48:12.615Z</time></trkpt><trkpt lat="45.6881815" lon="9.6014354"><ele>227.66666666666666</ele><time>2026-03-29T11:48:14.614Z</time></trkpt><trkpt lat="45.6882096" lon="9.6015349"><ele>228.33333333333331</ele><time>2026-03-29T11:48:16.615Z</time></trkpt><trkpt lat="45.6882433" lon="9.6016534"><ele>229.0</ele><time>2026-03-29T11:48:18.615Z</time></trkpt><trkpt lat="45.6882755" lon="9.6017816"><ele>229.0</ele><time>2026-03-29T11:48:20.615Z</time></trkpt><trkpt lat="45.6883048" lon="9.6019164"><ele>228.99999999999997</ele><time>2026-03-29T11:48:22.615Z</time></trkpt><trkpt lat="45.6883516" lon="9.6020374"><ele>228.99999999999997</ele><time>2026-03-29T11:48:24.615Z</time></trkpt><trkpt lat="45.6884059" lon="9.602155"><ele>229.0</ele><time>2026-03-29T11:48:26.614Z</time></trkpt><trkpt lat="45.6884567" lon="9.6022642"><ele>229.0</ele><time>2026-03-29T11:48:28.615Z</time></trkpt><trkpt lat="45.6885294" lon="9.6023852"><ele>230.2</ele><time>2026-03-29T11:48:30.615Z</time></trkpt><trkpt lat="45.6885915" lon="9.6025012"><ele>231.39999999999998</ele><time>2026-03-29T11:48:32.615Z</time></trkpt><trkpt lat="45.688655" lon="9.6025982"><ele>232.6</ele><time>2026-03-29T11:48:34.615Z</time></trkpt><trkpt lat="45.688727" lon="9.6027006"><ele>233.8</ele><time>2026-03-29T11:48:36.615Z</time></trkpt><trkpt lat="45.6887986" lon="9.6028044"><ele>235.0</ele><time>2026-03-29T11:48:38.615Z</time></trkpt><trkpt lat="45.6888705" lon="9.6029016"><ele>235.99999999999997</ele><time>2026-03-29T11:48:40.615Z</time></trkpt><trkpt lat="45.6889223" lon="9.60303"><ele>237.0</ele><time>2026-03-29T11:48:42.615Z</time></trkpt><trkpt lat="45.6889844" lon="9.6030934"><ele>238.0</ele><time>2026-03-29T11:48:44.615Z</time></trkpt><trkpt lat="45.689064" lon="9.6032053"><ele>239.0</ele><time>2026-03-29T11:48:46.615Z</time></trkpt><trkpt lat="45.6891147" lon="9.6032631"><ele>239.99999999999997</ele><time>2026-03-29T11:48:47.615Z</time></trkpt><trkpt lat="45.6891635" lon="9.6033283"><ele>241.0</ele><time>2026-03-29T11:48:49.614Z</time></trkpt><trkpt lat="45.6892052" lon="9.6033999"><ele>240.99999999999997</ele><time>2026-03-29T11:48:51.615Z</time></trkpt><trkpt lat="45.6892638" lon="9.6034948"><ele>241.0</ele><time>2026-03-29T11:48:54.614Z</time></trkpt><trkpt lat="45.689322" lon="9.6035737"><ele>241.0</ele><time>2026-03-29T11:48:56.615Z</time></trkpt><trkpt lat="45.6893771" lon="9.6036564"><ele>241.0</ele><time>2026-03-29T11:48:58.615Z</time></trkpt><trkpt lat="45.6894224" lon="9.6037559"><ele>240.99999999999997</ele><time>2026-03-29T11:49:00.615Z</time></trkpt><trkpt lat="45.6894667" lon="9.6038632"><ele>241.0</ele><time>2026-03-29T11:49:02.615Z</time></trkpt><trkpt lat="45.6895098" lon="9.6039751"><ele>240.99999999999997</ele><time>2026-03-29T11:49:04.615Z</time></trkpt><trkpt lat="45.6895507" lon="9.6040921"><ele>241.0</ele><time>2026-03-29T11:49:06.615Z</time></trkpt><trkpt lat="45.6895845" lon="9.6042085"><ele>241.0</ele><time>2026-03-29T11:49:08.615Z</time></trkpt><trkpt lat="45.6896176" lon="9.6043297"><ele>241.0</ele><time>2026-03-29T11:49:10.615Z</time></trkpt><trkpt lat="45.6896475" lon="9.6044647"><ele>240.99999999999997</ele><time>2026-03-29T11:49:12.615Z</time></trkpt><trkpt lat="45.6896597" lon="9.6045584"><ele>241.0</ele><time>2026-03-29T11:49:14.615Z</time></trkpt><trkpt lat="45.6896939" lon="9.6046921"><ele>241.0</ele><time>2026-03-29T11:49:16.615Z</time></trkpt><trkpt lat="45.6897292" lon="9.6048339"><ele>241.00000000000003</ele><time>2026-03-29T11:49:18.615Z</time></trkpt><trkpt lat="45.6897545" lon="9.6049768"><ele>241.00000000000003</ele><time>2026-03-29T11:49:20.615Z</time></trkpt><trkpt lat="45.6897815" lon="9.6051182"><ele>241.0</ele><time>2026-03-29T11:49:22.615Z</time></trkpt><trkpt lat="45.6898156" lon="9.6052842"><ele>241.0</ele><time>2026-03-29T11:49:24.615Z</time></trkpt><trkpt lat="45.6898419" lon="9.6054285"><ele>241.4</ele><time>2026-03-29T11:49:26.615Z</time></trkpt><trkpt lat="45.6898729" lon="9.6055644"><ele>241.8</ele><time>2026-03-29T11:49:28.615Z</time></trkpt><trkpt lat="45.6899063" lon="9.6057031"><ele>242.20000000000002</ele><time>2026-03-29T11:49:30.615Z</time></trkpt><trkpt lat="45.689936" lon="9.6058465"><ele>242.60000000000002</ele><time>2026-03-29T11:49:32.615Z</time></trkpt><trkpt lat="45.6899686" lon="9.6059769"><ele>243.0</ele><time>2026-03-29T11:49:34.615Z</time></trkpt><trkpt lat="45.6900044" lon="9.606131"><ele>243.0</ele><time>2026-03-29T11:49:36.615Z</time></trkpt><trkpt lat="45.6900419" lon="9.6062819"><ele>243.0</ele><time>2026-03-29T11:49:38.615Z</time></trkpt><trkpt lat="45.6900787" lon="9.6064329"><ele>243.0</ele><time>2026-03-29T11:49:40.615Z</time></trkpt><trkpt lat="45.6901197" lon="9.6065864"><ele>243.0</ele><time>2026-03-29T11:49:42.615Z</time></trkpt><trkpt lat="45.6901584" lon="9.6067354"><ele>243.0</ele><time>2026-03-29T11:49:44.615Z</time></trkpt><trkpt lat="45.690195" lon="9.6068811"><ele>243.0</ele><time>2026-03-29T11:49:46.615Z</time></trkpt><trkpt lat="45.6902309" lon="9.6070297"><ele>243.0</ele><time>2026-03-29T11:49:48.615Z</time></trkpt><trkpt lat="45.6902699" lon="9.6071774"><ele>243.0</ele><time>2026-03-29T11:49:50.615Z</time></trkpt><trkpt lat="45.6903146" lon="9.6073303"><ele>243.0</ele><time>2026-03-29T11:49:52.615Z</time></trkpt><trkpt lat="45.6903633" lon="9.6074727"><ele>243.0</ele><time>2026-03-29T11:49:54.615Z</time></trkpt><trkpt lat="45.6904118" lon="9.6076152"><ele>243.0</ele><time>2026-03-29T11:49:56.615Z</time></trkpt><trkpt lat="45.690462" lon="9.6077582"><ele>243.0</ele><time>2026-03-29T11:49:58.615Z</time></trkpt><trkpt lat="45.6905135" lon="9.6078943"><ele>243.0</ele><time>2026-03-29T11:50:00.615Z</time></trkpt><trkpt lat="45.690586" lon="9.608029"><ele>243.0</ele><time>2026-03-29T11:50:02.615Z</time></trkpt><trkpt lat="45.6906538" lon="9.6081168"><ele>243.0</ele><time>2026-03-29T11:50:04.615Z</time></trkpt><trkpt lat="45.690751" lon="9.6081905"><ele>243.0</ele><time>2026-03-29T11:50:06.614Z</time></trkpt><trkpt lat="45.690841" lon="9.6082542"><ele>243.0</ele><time>2026-03-29T11:50:08.615Z</time></trkpt><trkpt lat="45.6909354" lon="9.6083112"><ele>243.0</ele><time>2026-03-29T11:50:10.615Z</time></trkpt><trkpt lat="45.690986" lon="9.608376"><ele>243.0</ele><time>2026-03-29T11:50:11.615Z</time></trkpt><trkpt lat="45.6910454" lon="9.608439"><ele>243.0</ele><time>2026-03-29T11:50:12.614Z</time></trkpt><trkpt lat="45.6911281" lon="9.6085341"><ele>243.0</ele><time>2026-03-29T11:50:14.615Z</time></trkpt><trkpt lat="45.6912219" lon="9.608595"><ele>243.0</ele><time>2026-03-29T11:50:16.614Z</time></trkpt><trkpt lat="45.6913106" lon="9.608665"><ele>243.0</ele><time>2026-03-29T11:50:18.615Z</time></trkpt><trkpt lat="45.6913999" lon="9.6087325"><ele>243.0</ele><time>2026-03-29T11:50:20.614Z</time></trkpt><trkpt lat="45.6914622" lon="9.608763"><ele>243.0</ele><time>2026-03-29T11:50:22.615Z</time></trkpt><trkpt lat="45.6915413" lon="9.6088251"><ele>243.2</ele><time>2026-03-29T11:50:24.614Z</time></trkpt><trkpt lat="45.6916054" lon="9.6088907"><ele>243.4</ele><time>2026-03-29T11:50:26.615Z</time></trkpt><trkpt lat="45.6916102" lon="9.6090165"><ele>243.59999999999997</ele><time>2026-03-29T11:50:29.614Z</time></trkpt><trkpt lat="45.6915786" lon="9.6091303"><ele>243.79999999999998</ele><time>2026-03-29T11:50:31.615Z</time></trkpt><trkpt lat="45.6915339" lon="9.6092686"><ele>244.0</ele><time>2026-03-29T11:50:33.615Z</time></trkpt><trkpt lat="45.691493" lon="9.6093887"><ele>244.2</ele><time>2026-03-29T11:50:35.615Z</time></trkpt><trkpt lat="45.6914487" lon="9.6095407"><ele>244.39999999999998</ele><time>2026-03-29T11:50:37.615Z</time></trkpt><trkpt lat="45.691424" lon="9.6096262"><ele>244.6</ele><time>2026-03-29T11:50:38.615Z</time></trkpt><trkpt lat="45.6913781" lon="9.6097708"><ele>244.8</ele><time>2026-03-29T11:50:40.615Z</time></trkpt><trkpt lat="45.6913161" lon="9.6099197"><ele>245.0</ele><time>2026-03-29T11:50:42.615Z</time></trkpt><trkpt lat="45.691269" lon="9.6100448"><ele>245.0</ele><time>2026-03-29T11:50:44.615Z</time></trkpt><trkpt lat="45.6912472" lon="9.6101685"><ele>245.0</ele><time>2026-03-29T11:51:38.615Z</time></trkpt><trkpt lat="45.6912002" lon="9.6102684"><ele>245.0</ele><time>2026-03-29T11:51:40.615Z</time></trkpt><trkpt lat="45.6911522" lon="9.6103526"><ele>245.0</ele><time>2026-03-29T11:51:41.615Z</time></trkpt><trkpt lat="45.6911163" lon="9.6105086"><ele>245.0</ele><time>2026-03-29T11:51:43.615Z</time></trkpt><trkpt lat="45.6911174" lon="9.6106753"><ele>244.5</ele><time>2026-03-29T11:51:45.615Z</time></trkpt><trkpt lat="45.6911009" lon="9.6108262"><ele>244.0</ele><time>2026-03-29T11:51:47.615Z</time></trkpt><trkpt lat="45.6910815" lon="9.6109933"><ele>243.5</ele><time>2026-03-29T11:51:49.615Z</time></trkpt><trkpt lat="45.6910567" lon="9.6111584"><ele>243.0</ele><time>2026-03-29T11:51:51.615Z</time></trkpt><trkpt lat="45.6910362" lon="9.6113202"><ele>242.8</ele><time>2026-03-29T11:51:53.615Z</time></trkpt><trkpt lat="45.691011" lon="9.6114954"><ele>242.60000000000002</ele><time>2026-03-29T11:51:55.615Z</time></trkpt><trkpt lat="45.6909973" lon="9.6116677"><ele>242.39999999999998</ele><time>2026-03-29T11:51:57.615Z</time></trkpt><trkpt lat="45.6909797" lon="9.611766"><ele>242.2</ele><time>2026-03-29T11:51:58.615Z</time></trkpt><trkpt lat="45.6909526" lon="9.6119451"><ele>242.0</ele><time>2026-03-29T11:52:00.615Z</time></trkpt><trkpt lat="45.6909342" lon="9.61204"><ele>242.0</ele><time>2026-03-29T11:52:01.615Z</time></trkpt><trkpt lat="45.6909186" lon="9.6122139"><ele>242.0</ele><time>2026-03-29T11:52:03.615Z</time></trkpt><trkpt lat="45.6908978" lon="9.6123995"><ele>242.0</ele><time>2026-03-29T11:52:05.615Z</time></trkpt><trkpt lat="45.6908798" lon="9.6124862"><ele>242.0</ele><time>2026-03-29T11:52:06.615Z</time></trkpt><trkpt lat="45.6908601" lon="9.6125739"><ele>242.0</ele><time>2026-03-29T11:52:07.615Z</time></trkpt><trkpt lat="45.6908111" lon="9.6127328"><ele>242.00000000000003</ele><time>2026-03-29T11:52:09.615Z</time></trkpt><trkpt lat="45.6907895" lon="9.6128193"><ele>242.0</ele><time>2026-03-29T11:52:10.615Z</time></trkpt><trkpt lat="45.6907598" lon="9.6129082"><ele>242.0</ele><time>2026-03-29T11:52:11.615Z</time></trkpt><trkpt lat="45.6907321" lon="9.6130016"><ele>242.0</ele><time>2026-03-29T11:52:12.615Z</time></trkpt><trkpt lat="45.6907034" lon="9.6130853"><ele>242.00000000000003</ele><time>2026-03-29T11:52:13.615Z</time></trkpt><trkpt lat="45.6906799" lon="9.6131842"><ele>242.0</ele><time>2026-03-29T11:52:14.615Z</time></trkpt><trkpt lat="45.6906259" lon="9.6133535"><ele>242.0</ele><time>2026-03-29T11:52:16.615Z</time></trkpt><trkpt lat="45.6905991" lon="9.6134423"><ele>242.0</ele><time>2026-03-29T11:52:17.615Z</time></trkpt><trkpt lat="45.6905463" lon="9.6136083"><ele>242.0</ele><time>2026-03-29T11:52:19.615Z</time></trkpt><trkpt lat="45.6905215" lon="9.6137065"><ele>242.0</ele><time>2026-03-29T11:52:20.615Z</time></trkpt><trkpt lat="45.6904647" lon="9.6138737"><ele>242.0</ele><time>2026-03-29T11:52:22.615Z</time></trkpt><trkpt lat="45.6904374" lon="9.6139607"><ele>242.0</ele><time>2026-03-29T11:52:23.615Z</time></trkpt><trkpt lat="45.6904059" lon="9.6140399"><ele>242.0</ele><time>2026-03-29T11:52:24.614Z</time></trkpt><trkpt lat="45.6903472" lon="9.6141988"><ele>242.0</ele><time>2026-03-29T11:52:26.614Z</time></trkpt><trkpt lat="45.6902973" lon="9.6143486"><ele>242.0</ele><time>2026-03-29T11:52:28.615Z</time></trkpt><trkpt lat="45.6902717" lon="9.6144332"><ele>242.0</ele><time>2026-03-29T11:52:29.614Z</time></trkpt><trkpt lat="45.6902191" lon="9.6145794"><ele>241.8</ele><time>2026-03-29T11:52:31.615Z</time></trkpt><trkpt lat="45.6901744" lon="9.6147284"><ele>241.6</ele><time>2026-03-29T11:52:33.615Z</time></trkpt><trkpt lat="45.6901252" lon="9.6148937"><ele>241.40000000000003</ele><time>2026-03-29T11:52:35.615Z</time></trkpt><trkpt lat="45.6900729" lon="9.6150572"><ele>241.20000000000002</ele><time>2026-03-29T11:52:37.614Z</time></trkpt><trkpt lat="45.6900504" lon="9.6151456"><ele>241.0</ele><time>2026-03-29T11:52:38.615Z</time></trkpt><trkpt lat="45.6900092" lon="9.6153034"><ele>240.83333333333331</ele><time>2026-03-29T11:52:40.615Z</time></trkpt><trkpt lat="45.6899793" lon="9.6153894"><ele>240.66666666666666</ele><time>2026-03-29T11:52:41.615Z</time></trkpt><trkpt lat="45.6899502" lon="9.6154792"><ele>240.5</ele><time>2026-03-29T11:52:42.615Z</time></trkpt><trkpt lat="45.6899198" lon="9.6155642"><ele>240.33333333333331</ele><time>2026-03-29T11:52:43.615Z</time></trkpt><trkpt lat="45.689896" lon="9.6156561"><ele>240.16666666666666</ele><time>2026-03-29T11:52:44.615Z</time></trkpt><trkpt lat="45.6898672" lon="9.6157449"><ele>240.0</ele><time>2026-03-29T11:52:45.615Z</time></trkpt><trkpt lat="45.689826" lon="9.6159183"><ele>240.0</ele><time>2026-03-29T11:52:47.615Z</time></trkpt><trkpt lat="45.6898002" lon="9.6160065"><ele>240.0</ele><time>2026-03-29T11:52:48.615Z</time></trkpt><trkpt lat="45.6897802" lon="9.6160958"><ele>240.0</ele><time>2026-03-29T11:52:49.615Z</time></trkpt><trkpt lat="45.6897552" lon="9.6161857"><ele>240.0</ele><time>2026-03-29T11:52:50.615Z</time></trkpt><trkpt lat="45.6897378" lon="9.6162757"><ele>240.0</ele><time>2026-03-29T11:52:51.615Z</time></trkpt><trkpt lat="45.6897135" lon="9.6163704"><ele>240.0</ele><time>2026-03-29T11:52:52.615Z</time></trkpt><trkpt lat="45.6896965" lon="9.6164591"><ele>240.0</ele><time>2026-03-29T11:52:53.615Z</time></trkpt><trkpt lat="45.6896654" lon="9.6165491"><ele>240.0</ele><time>2026-03-29T11:52:54.615Z</time></trkpt><trkpt lat="45.6896398" lon="9.6166429"><ele>240.0</ele><time>2026-03-29T11:52:55.615Z</time></trkpt><trkpt lat="45.6896116" lon="9.6167405"><ele>240.0</ele><time>2026-03-29T11:52:56.615Z</time></trkpt><trkpt lat="45.6895908" lon="9.6168304"><ele>240.0</ele><time>2026-03-29T11:52:57.615Z</time></trkpt><trkpt lat="45.6895727" lon="9.6169282"><ele>240.0</ele><time>2026-03-29T11:52:58.615Z</time></trkpt><trkpt lat="45.6895549" lon="9.6170307"><ele>240.0</ele><time>2026-03-29T11:52:59.615Z</time></trkpt><trkpt lat="45.6895256" lon="9.6171187"><ele>240.0</ele><time>2026-03-29T11:53:00.615Z</time></trkpt><trkpt lat="45.6895059" lon="9.6172128"><ele>239.83333333333334</ele><time>2026-03-29T11:53:01.615Z</time></trkpt><trkpt lat="45.689479" lon="9.6173096"><ele>239.66666666666669</ele><time>2026-03-29T11:53:02.614Z</time></trkpt><trkpt lat="45.6894541" lon="9.6174116"><ele>239.5</ele><time>2026-03-29T11:53:03.614Z</time></trkpt><trkpt lat="45.6894302" lon="9.6175049"><ele>239.33333333333334</ele><time>2026-03-29T11:53:04.615Z</time></trkpt><trkpt lat="45.6894107" lon="9.6175967"><ele>239.16666666666669</ele><time>2026-03-29T11:53:05.615Z</time></trkpt><trkpt lat="45.6893836" lon="9.6176792"><ele>239.0</ele><time>2026-03-29T11:53:06.615Z</time></trkpt><trkpt lat="45.6893448" lon="9.617834"><ele>238.79999999999998</ele><time>2026-03-29T11:53:08.615Z</time></trkpt><trkpt lat="45.6892899" lon="9.6179854"><ele>238.59999999999997</ele><time>2026-03-29T11:53:10.615Z</time></trkpt><trkpt lat="45.689271" lon="9.6181062"><ele>238.4</ele><time>2026-03-29T11:53:12.615Z</time></trkpt><trkpt lat="45.6893609" lon="9.6181932"><ele>238.2</ele><time>2026-03-29T11:53:14.615Z</time></trkpt><trkpt lat="45.6894466" lon="9.618289"><ele>238.0</ele><time>2026-03-29T11:53:16.615Z</time></trkpt><trkpt lat="45.6895518" lon="9.6183672"><ele>237.99999999999997</ele><time>2026-03-29T11:53:18.615Z</time></trkpt><trkpt lat="45.6896111" lon="9.6184037"><ele>238.0</ele><time>2026-03-29T11:53:19.615Z</time></trkpt><trkpt lat="45.6896732" lon="9.6184475"><ele>238.0</ele><time>2026-03-29T11:53:20.615Z</time></trkpt><trkpt lat="45.6897903" lon="9.6184918"><ele>238.0</ele><time>2026-03-29T11:53:22.615Z</time></trkpt><trkpt lat="45.6899161" lon="9.6185393"><ele>237.99999999999997</ele><time>2026-03-29T11:53:24.615Z</time></trkpt><trkpt lat="45.6899781" lon="9.6185593"><ele>238.0</ele><time>2026-03-29T11:53:25.615Z</time></trkpt><trkpt lat="45.6900917" lon="9.6185974"><ele>237.99999999999997</ele><time>2026-03-29T11:53:27.615Z</time></trkpt><trkpt lat="45.6902138" lon="9.6186389"><ele>238.0</ele><time>2026-03-29T11:53:29.615Z</time></trkpt><trkpt lat="45.6902732" lon="9.6186692"><ele>238.0</ele><time>2026-03-29T11:53:30.615Z</time></trkpt><trkpt lat="45.6903342" lon="9.6186945"><ele>238.0</ele><time>2026-03-29T11:53:31.615Z</time></trkpt><trkpt lat="45.6904" lon="9.6187366"><ele>237.99999999999997</ele><time>2026-03-29T11:53:32.615Z</time></trkpt><trkpt lat="45.6905182" lon="9.6187862"><ele>238.0</ele><time>2026-03-29T11:53:34.615Z</time></trkpt><trkpt lat="45.6906326" lon="9.61884"><ele>237.2</ele><time>2026-03-29T11:53:36.614Z</time></trkpt><trkpt lat="45.6906968" lon="9.6188595"><ele>236.4</ele><time>2026-03-29T11:53:37.615Z</time></trkpt><trkpt lat="45.6908158" lon="9.618894"><ele>235.59999999999997</ele><time>2026-03-29T11:53:39.615Z</time></trkpt><trkpt lat="45.6908784" lon="9.6189116"><ele>234.79999999999998</ele><time>2026-03-29T11:53:40.615Z</time></trkpt><trkpt lat="45.6909823" lon="9.6189411"><ele>234.0</ele><time>2026-03-29T11:53:42.615Z</time></trkpt><trkpt lat="45.6910694" lon="9.6189922"><ele>234.2</ele><time>2026-03-29T11:53:44.615Z</time></trkpt><trkpt lat="45.6911714" lon="9.619066"><ele>234.39999999999998</ele><time>2026-03-29T11:53:46.615Z</time></trkpt><trkpt lat="45.6912325" lon="9.6191031"><ele>234.6</ele><time>2026-03-29T11:53:47.615Z</time></trkpt><trkpt lat="45.6913403" lon="9.6191889"><ele>234.8</ele><time>2026-03-29T11:53:49.615Z</time></trkpt><trkpt lat="45.6913915" lon="9.6192428"><ele>235.0</ele><time>2026-03-29T11:53:50.615Z</time></trkpt><trkpt lat="45.6914806" lon="9.6193463"><ele>234.99999999999997</ele><time>2026-03-29T11:53:52.614Z</time></trkpt><trkpt lat="45.691574" lon="9.6194784"><ele>235.0</ele><time>2026-03-29T11:53:54.615Z</time></trkpt><trkpt lat="45.6916182" lon="9.6195446"><ele>235.0</ele><time>2026-03-29T11:53:55.615Z</time></trkpt><trkpt lat="45.6916636" lon="9.6196105"><ele>235.0</ele><time>2026-03-29T11:53:56.615Z</time></trkpt><trkpt lat="45.6917006" lon="9.6196841"><ele>234.99999999999997</ele><time>2026-03-29T11:53:57.615Z</time></trkpt><trkpt lat="45.6917397" lon="9.6197572"><ele>235.0</ele><time>2026-03-29T11:53:58.615Z</time></trkpt><trkpt lat="45.6917752" lon="9.6198396"><ele>235.0</ele><time>2026-03-29T11:53:59.615Z</time></trkpt><trkpt lat="45.6918382" lon="9.6199889"><ele>235.0</ele><time>2026-03-29T11:54:01.615Z</time></trkpt><trkpt lat="45.691877" lon="9.6200603"><ele>235.0</ele><time>2026-03-29T11:54:02.614Z</time></trkpt><trkpt lat="45.6919483" lon="9.6201886"><ele>235.0</ele><time>2026-03-29T11:54:04.615Z</time></trkpt><trkpt lat="45.6919883" lon="9.6203528"><ele>235.0</ele><time>2026-03-29T11:54:06.615Z</time></trkpt><trkpt lat="45.6920005" lon="9.6204421"><ele>235.33333333333331</ele><time>2026-03-29T11:54:07.615Z</time></trkpt><trkpt lat="45.6920047" lon="9.6205365"><ele>235.66666666666666</ele><time>2026-03-29T11:54:08.615Z</time></trkpt><trkpt lat="45.692008" lon="9.6206278"><ele>236.0</ele><time>2026-03-29T11:54:09.615Z</time></trkpt><trkpt lat="45.6919957" lon="9.6207215"><ele>236.33333333333331</ele><time>2026-03-29T11:54:10.615Z</time></trkpt><trkpt lat="45.6919834" lon="9.6208193"><ele>236.66666666666666</ele><time>2026-03-29T11:54:11.615Z</time></trkpt><trkpt lat="45.6919596" lon="9.6209985"><ele>237.0</ele><time>2026-03-29T11:54:13.615Z</time></trkpt><trkpt lat="45.6919508" lon="9.6210933"><ele>236.99999999999997</ele><time>2026-03-29T11:54:14.615Z</time></trkpt><trkpt lat="45.6919416" lon="9.6211919"><ele>237.0</ele><time>2026-03-29T11:54:15.615Z</time></trkpt><trkpt lat="45.6919297" lon="9.6212866"><ele>236.99999999999997</ele><time>2026-03-29T11:54:16.615Z</time></trkpt><trkpt lat="45.6919155" lon="9.6213766"><ele>236.99999999999997</ele><time>2026-03-29T11:54:17.615Z</time></trkpt><trkpt lat="45.6919045" lon="9.6214729"><ele>237.0</ele><time>2026-03-29T11:54:18.615Z</time></trkpt><trkpt lat="45.6918878" lon="9.6215729"><ele>236.99999999999997</ele><time>2026-03-29T11:54:19.615Z</time></trkpt><trkpt lat="45.6918768" lon="9.6216646"><ele>236.99999999999997</ele><time>2026-03-29T11:54:20.615Z</time></trkpt><trkpt lat="45.6918565" lon="9.6217719"><ele>236.99999999999997</ele><time>2026-03-29T11:54:21.614Z</time></trkpt><trkpt lat="45.6918432" lon="9.6218662"><ele>237.0</ele><time>2026-03-29T11:54:22.615Z</time></trkpt><trkpt lat="45.6918288" lon="9.6219672"><ele>236.99999999999997</ele><time>2026-03-29T11:54:23.614Z</time></trkpt><trkpt lat="45.6918136" lon="9.6220666"><ele>236.99999999999997</ele><time>2026-03-29T11:54:24.615Z</time></trkpt><trkpt lat="45.6918037" lon="9.6221639"><ele>237.0</ele><time>2026-03-29T11:54:25.615Z</time></trkpt><trkpt lat="45.6917939" lon="9.6222573"><ele>236.99999999999997</ele><time>2026-03-29T11:54:26.615Z</time></trkpt><trkpt lat="45.6917766" lon="9.6223568"><ele>236.99999999999997</ele><time>2026-03-29T11:54:27.615Z</time></trkpt><trkpt lat="45.6917574" lon="9.622454"><ele>236.99999999999997</ele><time>2026-03-29T11:54:28.615Z</time></trkpt><trkpt lat="45.6917447" lon="9.6225504"><ele>237.0</ele><time>2026-03-29T11:54:29.615Z</time></trkpt><trkpt lat="45.6917274" lon="9.622652"><ele>236.99999999999997</ele><time>2026-03-29T11:54:30.615Z</time></trkpt><trkpt lat="45.6917126" lon="9.6227487"><ele>236.99999999999997</ele><time>2026-03-29T11:54:31.615Z</time></trkpt><trkpt lat="45.6916942" lon="9.6228435"><ele>237.0</ele><time>2026-03-29T11:54:32.615Z</time></trkpt><trkpt lat="45.6916827" lon="9.6229391"><ele>236.99999999999997</ele><time>2026-03-29T11:54:33.615Z</time></trkpt><trkpt lat="45.6916683" lon="9.6230367"><ele>236.99999999999997</ele><time>2026-03-29T11:54:34.615Z</time></trkpt><trkpt lat="45.6916544" lon="9.6231372"><ele>236.99999999999997</ele><time>2026-03-29T11:54:35.615Z</time></trkpt><trkpt lat="45.6916384" lon="9.6232416"><ele>237.0</ele><time>2026-03-29T11:54:36.615Z</time></trkpt><trkpt lat="45.6916226" lon="9.6233406"><ele>236.99999999999997</ele><time>2026-03-29T11:54:37.615Z</time></trkpt><trkpt lat="45.6916077" lon="9.6234342"><ele>236.99999999999997</ele><time>2026-03-29T11:54:38.615Z</time></trkpt><trkpt lat="45.6915941" lon="9.6235324"><ele>237.0</ele><time>2026-03-29T11:54:39.615Z</time></trkpt><trkpt lat="45.6915806" lon="9.6236259"><ele>236.99999999999997</ele><time>2026-03-29T11:54:40.615Z</time></trkpt><trkpt lat="45.6915627" lon="9.6237241"><ele>236.99999999999997</ele><time>2026-03-29T11:54:41.615Z</time></trkpt><trkpt lat="45.6915446" lon="9.6238229"><ele>236.85714285714283</ele><time>2026-03-29T11:54:42.615Z</time></trkpt><trkpt lat="45.6915216" lon="9.6239242"><ele>236.71428571428572</ele><time>2026-03-29T11:54:43.615Z</time></trkpt><trkpt lat="45.691496" lon="9.6240169"><ele>236.57142857142856</ele><time>2026-03-29T11:54:44.615Z</time></trkpt><trkpt lat="45.691457" lon="9.6241072"><ele>236.42857142857142</ele><time>2026-03-29T11:54:45.615Z</time></trkpt><trkpt lat="45.6914173" lon="9.6241843"><ele>236.28571428571428</ele><time>2026-03-29T11:54:46.614Z</time></trkpt><trkpt lat="45.6913779" lon="9.6242618"><ele>236.14285714285714</ele><time>2026-03-29T11:54:47.615Z</time></trkpt><trkpt lat="45.6913495" lon="9.6243476"><ele>236.0</ele><time>2026-03-29T11:54:48.614Z</time></trkpt><trkpt lat="45.691341" lon="9.6244411"><ele>235.85714285714283</ele><time>2026-03-29T11:54:49.615Z</time></trkpt><trkpt lat="45.6913466" lon="9.6245444"><ele>235.71428571428572</ele><time>2026-03-29T11:54:50.615Z</time></trkpt><trkpt lat="45.6913564" lon="9.6246428"><ele>235.57142857142856</ele><time>2026-03-29T11:54:51.615Z</time></trkpt><trkpt lat="45.6913663" lon="9.6247384"><ele>235.42857142857142</ele><time>2026-03-29T11:54:52.615Z</time></trkpt><trkpt lat="45.6913751" lon="9.624839"><ele>235.28571428571428</ele><time>2026-03-29T11:54:53.615Z</time></trkpt><trkpt lat="45.6913658" lon="9.6249337"><ele>235.14285714285714</ele><time>2026-03-29T11:54:54.614Z</time></trkpt><trkpt lat="45.6913493" lon="9.6250277"><ele>235.0</ele><time>2026-03-29T11:54:55.615Z</time></trkpt><trkpt lat="45.6913342" lon="9.6251206"><ele>235.0</ele><time>2026-03-29T11:54:56.615Z</time></trkpt><trkpt lat="45.6913196" lon="9.6252096"><ele>234.99999999999997</ele><time>2026-03-29T11:54:57.615Z</time></trkpt><trkpt lat="45.691302" lon="9.6253033"><ele>235.0</ele><time>2026-03-29T11:54:58.615Z</time></trkpt><trkpt lat="45.6912891" lon="9.6253984"><ele>235.0</ele><time>2026-03-29T11:54:59.615Z</time></trkpt><trkpt lat="45.6912701" lon="9.6254946"><ele>234.99999999999997</ele><time>2026-03-29T11:55:00.614Z</time></trkpt><trkpt lat="45.6912485" lon="9.6255956"><ele>235.0</ele><time>2026-03-29T11:55:01.614Z</time></trkpt><trkpt lat="45.6912346" lon="9.6256923"><ele>235.0</ele><time>2026-03-29T11:55:02.614Z</time></trkpt><trkpt lat="45.6912157" lon="9.6257803"><ele>235.0</ele><time>2026-03-29T11:55:03.615Z</time></trkpt><trkpt lat="45.6912036" lon="9.6258842"><ele>234.99999999999997</ele><time>2026-03-29T11:55:04.615Z</time></trkpt><trkpt lat="45.6911881" lon="9.6259875"><ele>235.0</ele><time>2026-03-29T11:55:05.615Z</time></trkpt><trkpt lat="45.691177" lon="9.6260862"><ele>235.0</ele><time>2026-03-29T11:55:06.615Z</time></trkpt><trkpt lat="45.6911648" lon="9.6261905"><ele>234.99999999999997</ele><time>2026-03-29T11:55:07.614Z</time></trkpt><trkpt lat="45.6911518" lon="9.6262915"><ele>235.0</ele><time>2026-03-29T11:55:08.615Z</time></trkpt><trkpt lat="45.6911437" lon="9.6263956"><ele>235.0</ele><time>2026-03-29T11:55:09.615Z</time></trkpt><trkpt lat="45.6911325" lon="9.6264963"><ele>235.0</ele><time>2026-03-29T11:55:10.615Z</time></trkpt><trkpt lat="45.6911282" lon="9.6265961"><ele>234.99999999999997</ele><time>2026-03-29T11:55:11.615Z</time></trkpt><trkpt lat="45.691118" lon="9.6267008"><ele>235.0</ele><time>2026-03-29T11:55:12.615Z</time></trkpt><trkpt lat="45.6911062" lon="9.6268111"><ele>235.0</ele><time>2026-03-29T11:55:13.615Z</time></trkpt><trkpt lat="45.6910953" lon="9.6269173"><ele>234.99999999999997</ele><time>2026-03-29T11:55:14.615Z</time></trkpt><trkpt lat="45.6910817" lon="9.6270137"><ele>235.0</ele><time>2026-03-29T11:55:15.615Z</time></trkpt><trkpt lat="45.6910674" lon="9.62711"><ele>235.0</ele><time>2026-03-29T11:55:16.615Z</time></trkpt><trkpt lat="45.6910601" lon="9.6272073"><ele>234.85714285714283</ele><time>2026-03-29T11:55:17.615Z</time></trkpt><trkpt lat="45.6910431" lon="9.6273102"><ele>234.7142857142857</ele><time>2026-03-29T11:55:18.614Z</time></trkpt><trkpt lat="45.6910266" lon="9.6274127"><ele>234.57142857142856</ele><time>2026-03-29T11:55:19.614Z</time></trkpt><trkpt lat="45.6910093" lon="9.6275102"><ele>234.42857142857144</ele><time>2026-03-29T11:55:20.615Z</time></trkpt><trkpt lat="45.6909984" lon="9.6276119"><ele>234.2857142857143</ele><time>2026-03-29T11:55:21.615Z</time></trkpt><trkpt lat="45.6909798" lon="9.6277223"><ele>234.14285714285717</ele><time>2026-03-29T11:55:22.615Z</time></trkpt><trkpt lat="45.6909676" lon="9.627828"><ele>234.0</ele><time>2026-03-29T11:55:23.615Z</time></trkpt><trkpt lat="45.6909536" lon="9.6279288"><ele>234.0</ele><time>2026-03-29T11:55:24.614Z</time></trkpt><trkpt lat="45.690941" lon="9.6280353"><ele>234.00000000000003</ele><time>2026-03-29T11:55:25.615Z</time></trkpt><trkpt lat="45.6909238" lon="9.6281459"><ele>234.0</ele><time>2026-03-29T11:55:26.614Z</time></trkpt><trkpt lat="45.6909131" lon="9.6282461"><ele>234.0</ele><time>2026-03-29T11:55:27.615Z</time></trkpt><trkpt lat="45.6908919" lon="9.6283487"><ele>234.00000000000003</ele><time>2026-03-29T11:55:28.615Z</time></trkpt><trkpt lat="45.6908774" lon="9.6284542"><ele>234.0</ele><time>2026-03-29T11:55:29.615Z</time></trkpt><trkpt lat="45.6908687" lon="9.6285515"><ele>234.0</ele><time>2026-03-29T11:55:30.615Z</time></trkpt><trkpt lat="45.690856" lon="9.6286554"><ele>234.14285714285717</ele><time>2026-03-29T11:55:31.615Z</time></trkpt><trkpt lat="45.6908381" lon="9.6287518"><ele>234.2857142857143</ele><time>2026-03-29T11:55:32.615Z</time></trkpt><trkpt lat="45.6908191" lon="9.6288478"><ele>234.42857142857144</ele><time>2026-03-29T11:55:33.615Z</time></trkpt><trkpt lat="45.6907997" lon="9.6289383"><ele>234.57142857142856</ele><time>2026-03-29T11:55:34.615Z</time></trkpt><trkpt lat="45.6907826" lon="9.6290325"><ele>234.7142857142857</ele><time>2026-03-29T11:55:35.615Z</time></trkpt><trkpt lat="45.6907649" lon="9.6291356"><ele>234.85714285714283</ele><time>2026-03-29T11:55:36.615Z</time></trkpt><trkpt lat="45.6907224" lon="9.6292445"><ele>235.0</ele><time>2026-03-29T11:55:37.614Z</time></trkpt><trkpt lat="45.6906957" lon="9.6293276"><ele>235.5</ele><time>2026-03-29T11:55:38.615Z</time></trkpt><trkpt lat="45.690644" lon="9.6294957"><ele>236.0</ele><time>2026-03-29T11:55:40.615Z</time></trkpt><trkpt lat="45.6905845" lon="9.6296493"><ele>236.5</ele><time>2026-03-29T11:55:42.615Z</time></trkpt><trkpt lat="45.6905048" lon="9.6297843"><ele>237.0</ele><time>2026-03-29T11:55:44.615Z</time></trkpt><trkpt lat="45.6904076" lon="9.6298763"><ele>237.0</ele><time>2026-03-29T11:55:46.615Z</time></trkpt><trkpt lat="45.6903" lon="9.6299093"><ele>237.0</ele><time>2026-03-29T11:55:48.615Z</time></trkpt><trkpt lat="45.690194" lon="9.6299746"><ele>237.0</ele><time>2026-03-29T11:55:50.615Z</time></trkpt><trkpt lat="45.6901187" lon="9.6300955"><ele>237.0</ele><time>2026-03-29T11:55:52.615Z</time></trkpt><trkpt lat="45.6900608" lon="9.6302394"><ele>237.75</ele><time>2026-03-29T11:55:54.615Z</time></trkpt><trkpt lat="45.6900112" lon="9.6303874"><ele>238.5</ele><time>2026-03-29T11:55:56.615Z</time></trkpt><trkpt lat="45.6899365" lon="9.6305183"><ele>239.25</ele><time>2026-03-29T11:55:58.614Z</time></trkpt><trkpt lat="45.6898274" lon="9.630602"><ele>240.0</ele><time>2026-03-29T11:56:00.615Z</time></trkpt><trkpt lat="45.6897256" lon="9.6306348"><ele>240.0</ele><time>2026-03-29T11:56:02.614Z</time></trkpt><trkpt lat="45.6896273" lon="9.6306514"><ele>240.0</ele><time>2026-03-29T11:56:04.615Z</time></trkpt><trkpt lat="45.6895055" lon="9.6306835"><ele>240.0</ele><time>2026-03-29T11:56:06.615Z</time></trkpt><trkpt lat="45.6893962" lon="9.6306941"><ele>240.0</ele><time>2026-03-29T11:56:08.615Z</time></trkpt><trkpt lat="45.6892827" lon="9.6306905"><ele>240.0</ele><time>2026-03-29T11:56:10.614Z</time></trkpt><trkpt lat="45.6892083" lon="9.6306898"><ele>239.16666666666666</ele><time>2026-03-29T11:56:11.614Z</time></trkpt><trkpt lat="45.6890927" lon="9.6306645"><ele>238.33333333333331</ele><time>2026-03-29T11:56:13.615Z</time></trkpt><trkpt lat="45.6890286" lon="9.6306557"><ele>237.5</ele><time>2026-03-29T11:56:14.615Z</time></trkpt><trkpt lat="45.6889603" lon="9.6306552"><ele>236.66666666666666</ele><time>2026-03-29T11:56:15.615Z</time></trkpt><trkpt lat="45.6888879" lon="9.6306366"><ele>235.83333333333331</ele><time>2026-03-29T11:56:16.614Z</time></trkpt><trkpt lat="45.6888226" lon="9.6306134"><ele>235.0</ele><time>2026-03-29T11:56:17.615Z</time></trkpt><trkpt lat="45.6887523" lon="9.6306017"><ele>235.0</ele><time>2026-03-29T11:56:18.615Z</time></trkpt><trkpt lat="45.6886856" lon="9.6305912"><ele>234.99999999999997</ele><time>2026-03-29T11:56:19.615Z</time></trkpt><trkpt lat="45.6886119" lon="9.6305747"><ele>235.0</ele><time>2026-03-29T11:56:20.615Z</time></trkpt><trkpt lat="45.6885362" lon="9.6305606"><ele>235.0</ele><time>2026-03-29T11:56:21.614Z</time></trkpt><trkpt lat="45.6884624" lon="9.6305473"><ele>234.99999999999997</ele><time>2026-03-29T11:56:22.615Z</time></trkpt><trkpt lat="45.6883839" lon="9.6305384"><ele>235.0</ele><time>2026-03-29T11:56:23.615Z</time></trkpt><trkpt lat="45.6883069" lon="9.6305238"><ele>235.0</ele><time>2026-03-29T11:56:24.615Z</time></trkpt><trkpt lat="45.6882239" lon="9.6305141"><ele>234.33333333333331</ele><time>2026-03-29T11:56:25.615Z</time></trkpt><trkpt lat="45.688141" lon="9.6305007"><ele>233.66666666666666</ele><time>2026-03-29T11:56:26.614Z</time></trkpt><trkpt lat="45.6880642" lon="9.6304896"><ele>233.0</ele><time>2026-03-29T11:56:27.615Z</time></trkpt><trkpt lat="45.6879876" lon="9.6304673"><ele>232.33333333333331</ele><time>2026-03-29T11:56:28.615Z</time></trkpt><trkpt lat="45.6879094" lon="9.6304443"><ele>231.66666666666666</ele><time>2026-03-29T11:56:29.615Z</time></trkpt><trkpt lat="45.68784" lon="9.6304029"><ele>231.0</ele><time>2026-03-29T11:56:30.615Z</time></trkpt><trkpt lat="45.6877693" lon="9.6303557"><ele>230.66666666666666</ele><time>2026-03-29T11:56:31.615Z</time></trkpt><trkpt lat="45.687704" lon="9.6302998"><ele>230.33333333333331</ele><time>2026-03-29T11:56:32.614Z</time></trkpt><trkpt lat="45.6876376" lon="9.6302393"><ele>230.0</ele><time>2026-03-29T11:56:33.614Z</time></trkpt><trkpt lat="45.6875675" lon="9.6301835"><ele>229.66666666666666</ele><time>2026-03-29T11:56:34.615Z</time></trkpt><trkpt lat="45.6874983" lon="9.6301302"><ele>229.33333333333331</ele><time>2026-03-29T11:56:35.615Z</time></trkpt><trkpt lat="45.6874316" lon="9.630085"><ele>229.0</ele><time>2026-03-29T11:56:36.615Z</time></trkpt><trkpt lat="45.6873642" lon="9.6300434"><ele>228.99999999999997</ele><time>2026-03-29T11:56:37.615Z</time></trkpt><trkpt lat="45.687296" lon="9.629998"><ele>229.0</ele><time>2026-03-29T11:56:38.615Z</time></trkpt><trkpt lat="45.6872248" lon="9.6299568"><ele>229.0</ele><time>2026-03-29T11:56:39.615Z</time></trkpt><trkpt lat="45.6871461" lon="9.6299425"><ele>229.0</ele><time>2026-03-29T11:56:40.615Z</time></trkpt><trkpt lat="45.6870674" lon="9.6299424"><ele>228.99999999999997</ele><time>2026-03-29T11:56:41.615Z</time></trkpt><trkpt lat="45.6869893" lon="9.6299454"><ele>229.0</ele><time>2026-03-29T11:56:42.615Z</time></trkpt><trkpt lat="45.6869149" lon="9.6299611"><ele>228.83333333333331</ele><time>2026-03-29T11:56:43.615Z</time></trkpt><trkpt lat="45.6868415" lon="9.6299888"><ele>228.66666666666666</ele><time>2026-03-29T11:56:44.614Z</time></trkpt><trkpt lat="45.6867714" lon="9.6300235"><ele>228.5</ele><time>2026-03-29T11:56:45.615Z</time></trkpt><trkpt lat="45.6867041" lon="9.6300842"><ele>228.33333333333331</ele><time>2026-03-29T11:56:46.615Z</time></trkpt><trkpt lat="45.6866447" lon="9.6301612"><ele>228.16666666666666</ele><time>2026-03-29T11:56:47.615Z</time></trkpt><trkpt lat="45.6866015" lon="9.6302472"><ele>228.0</ele><time>2026-03-29T11:56:48.615Z</time></trkpt><trkpt lat="45.6865685" lon="9.6303474"><ele>228.0</ele><time>2026-03-29T11:56:49.615Z</time></trkpt><trkpt lat="45.6865641" lon="9.6304466"><ele>227.99999999999997</ele><time>2026-03-29T11:56:50.615Z</time></trkpt><trkpt lat="45.6865678" lon="9.6305423"><ele>228.0</ele><time>2026-03-29T11:56:51.614Z</time></trkpt><trkpt lat="45.6865835" lon="9.6306373"><ele>228.0</ele><time>2026-03-29T11:56:52.615Z</time></trkpt><trkpt lat="45.6866206" lon="9.6307171"><ele>227.99999999999997</ele><time>2026-03-29T11:56:53.614Z</time></trkpt><trkpt lat="45.6866622" lon="9.6307875"><ele>228.0</ele><time>2026-03-29T11:56:54.615Z</time></trkpt><trkpt lat="45.6867162" lon="9.6308489"><ele>228.0</ele><time>2026-03-29T11:56:55.615Z</time></trkpt><trkpt lat="45.6867753" lon="9.6308971"><ele>228.0</ele><time>2026-03-29T11:56:56.615Z</time></trkpt><trkpt lat="45.6868893" lon="9.630973"><ele>228.0</ele><time>2026-03-29T11:56:58.615Z</time></trkpt><trkpt lat="45.6870084" lon="9.6310379"><ele>228.0</ele><time>2026-03-29T11:57:00.615Z</time></trkpt><trkpt lat="45.6870689" lon="9.6310728"><ele>228.0</ele><time>2026-03-29T11:57:01.615Z</time></trkpt><trkpt lat="45.6871273" lon="9.6311142"><ele>228.0</ele><time>2026-03-29T11:57:02.615Z</time></trkpt><trkpt lat="45.6871742" lon="9.6311758"><ele>228.0</ele><time>2026-03-29T11:57:03.614Z</time></trkpt><trkpt lat="45.6872169" lon="9.6312541"><ele>228.0</ele><time>2026-03-29T11:57:04.615Z</time></trkpt><trkpt lat="45.6872478" lon="9.6313333"><ele>227.99999999999997</ele><time>2026-03-29T11:57:05.615Z</time></trkpt><trkpt lat="45.6872721" lon="9.6314223"><ele>228.0</ele><time>2026-03-29T11:57:06.614Z</time></trkpt><trkpt lat="45.6872952" lon="9.6315137"><ele>228.0</ele><time>2026-03-29T11:57:07.615Z</time></trkpt><trkpt lat="45.6873238" lon="9.6316035"><ele>227.99999999999997</ele><time>2026-03-29T11:57:08.615Z</time></trkpt><trkpt lat="45.6873529" lon="9.6316925"><ele>228.0</ele><time>2026-03-29T11:57:09.615Z</time></trkpt><trkpt lat="45.6873809" lon="9.6317833"><ele>228.0</ele><time>2026-03-29T11:57:10.615Z</time></trkpt><trkpt lat="45.6874096" lon="9.6318732"><ele>228.0</ele><time>2026-03-29T11:57:11.615Z</time></trkpt><trkpt lat="45.6874358" lon="9.6319635"><ele>227.99999999999997</ele><time>2026-03-29T11:57:12.614Z</time></trkpt><trkpt lat="45.6874638" lon="9.6320498"><ele>228.0</ele><time>2026-03-29T11:57:13.615Z</time></trkpt><trkpt lat="45.6874922" lon="9.632137"><ele>228.0</ele><time>2026-03-29T11:57:14.615Z</time></trkpt><trkpt lat="45.6875169" lon="9.6322292"><ele>227.99999999999997</ele><time>2026-03-29T11:57:15.615Z</time></trkpt><trkpt lat="45.6875438" lon="9.6323211"><ele>228.0</ele><time>2026-03-29T11:57:16.615Z</time></trkpt><trkpt lat="45.6875684" lon="9.6324098"><ele>228.0</ele><time>2026-03-29T11:57:17.615Z</time></trkpt><trkpt lat="45.687596" lon="9.6324945"><ele>227.83333333333334</ele><time>2026-03-29T11:57:18.615Z</time></trkpt><trkpt lat="45.6876247" lon="9.6325787"><ele>227.66666666666669</ele><time>2026-03-29T11:57:19.615Z</time></trkpt><trkpt lat="45.6876516" lon="9.6326637"><ele>227.5</ele><time>2026-03-29T11:57:20.614Z</time></trkpt><trkpt lat="45.6876786" lon="9.6327526"><ele>227.33333333333334</ele><time>2026-03-29T11:57:21.615Z</time></trkpt><trkpt lat="45.687707" lon="9.6328345"><ele>227.16666666666669</ele><time>2026-03-29T11:57:22.615Z</time></trkpt><trkpt lat="45.6877535" lon="9.6330035"><ele>227.0</ele><time>2026-03-29T11:57:24.614Z</time></trkpt><trkpt lat="45.6878047" lon="9.6331641"><ele>227.66666666666669</ele><time>2026-03-29T11:57:26.615Z</time></trkpt><trkpt lat="45.6878312" lon="9.633246"><ele>228.33333333333334</ele><time>2026-03-29T11:57:27.615Z</time></trkpt><trkpt lat="45.6878548" lon="9.6333351"><ele>229.0</ele><time>2026-03-29T11:57:28.615Z</time></trkpt><trkpt lat="45.687907" lon="9.6334999"><ele>229.66666666666669</ele><time>2026-03-29T11:57:30.614Z</time></trkpt><trkpt lat="45.6879304" lon="9.6335849"><ele>230.33333333333334</ele><time>2026-03-29T11:57:31.615Z</time></trkpt><trkpt lat="45.687954" lon="9.6336826"><ele>231.0</ele><time>2026-03-29T11:57:32.615Z</time></trkpt><trkpt lat="45.6880028" lon="9.6338412"><ele>231.0</ele><time>2026-03-29T11:57:34.614Z</time></trkpt><trkpt lat="45.6880432" lon="9.6340134"><ele>231.0</ele><time>2026-03-29T11:57:36.615Z</time></trkpt><trkpt lat="45.6880719" lon="9.6341795"><ele>231.0</ele><time>2026-03-29T11:57:38.615Z</time></trkpt><trkpt lat="45.6881017" lon="9.6343413"><ele>231.0</ele><time>2026-03-29T11:57:40.615Z</time></trkpt><trkpt lat="45.6881309" lon="9.6345062"><ele>231.16666666666666</ele><time>2026-03-29T11:57:42.615Z</time></trkpt><trkpt lat="45.6881131" lon="9.6346781"><ele>231.33333333333331</ele><time>2026-03-29T11:57:44.615Z</time></trkpt><trkpt lat="45.6880749" lon="9.6348541"><ele>231.5</ele><time>2026-03-29T11:57:46.615Z</time></trkpt><trkpt lat="45.688074" lon="9.6349452"><ele>231.66666666666666</ele><time>2026-03-29T11:57:47.614Z</time></trkpt><trkpt lat="45.6880932" lon="9.6350343"><ele>231.83333333333331</ele><time>2026-03-29T11:57:48.615Z</time></trkpt><trkpt lat="45.688125" lon="9.6351141"><ele>232.0</ele><time>2026-03-29T11:57:49.615Z</time></trkpt><trkpt lat="45.6881933" lon="9.6352503"><ele>231.99999999999997</ele><time>2026-03-29T11:57:51.615Z</time></trkpt><trkpt lat="45.6882187" lon="9.6353341"><ele>232.0</ele><time>2026-03-29T11:57:52.615Z</time></trkpt><trkpt lat="45.6882426" lon="9.6355146"><ele>232.0</ele><time>2026-03-29T11:57:54.615Z</time></trkpt><trkpt lat="45.6882343" lon="9.6356915"><ele>232.0</ele><time>2026-03-29T11:57:56.615Z</time></trkpt><trkpt lat="45.6882334" lon="9.635783"><ele>231.99999999999997</ele><time>2026-03-29T11:57:57.615Z</time></trkpt><trkpt lat="45.6882337" lon="9.6358782"><ele>232.0</ele><time>2026-03-29T11:57:58.615Z</time></trkpt><trkpt lat="45.6882292" lon="9.6359682"><ele>231.99999999999997</ele><time>2026-03-29T11:57:59.615Z</time></trkpt><trkpt lat="45.6882205" lon="9.6360643"><ele>232.0</ele><time>2026-03-29T11:58:00.615Z</time></trkpt><trkpt lat="45.6882109" lon="9.6362461"><ele>232.0</ele><time>2026-03-29T11:58:02.615Z</time></trkpt><trkpt lat="45.6882038" lon="9.6363364"><ele>232.0</ele><time>2026-03-29T11:58:03.615Z</time></trkpt><trkpt lat="45.6881868" lon="9.6365068"><ele>231.99999999999997</ele><time>2026-03-29T11:58:05.615Z</time></trkpt><trkpt lat="45.6881783" lon="9.6366007"><ele>232.0</ele><time>2026-03-29T11:58:06.615Z</time></trkpt><trkpt lat="45.6881631" lon="9.6366987"><ele>231.71428571428575</ele><time>2026-03-29T11:58:07.614Z</time></trkpt><trkpt lat="45.6881477" lon="9.6367884"><ele>231.42857142857144</ele><time>2026-03-29T11:58:08.615Z</time></trkpt><trkpt lat="45.6881348" lon="9.6368811"><ele>231.14285714285714</ele><time>2026-03-29T11:58:09.615Z</time></trkpt><trkpt lat="45.6881176" lon="9.636972"><ele>230.85714285714286</ele><time>2026-03-29T11:58:10.615Z</time></trkpt><trkpt lat="45.6881036" lon="9.6370708"><ele>230.57142857142856</ele><time>2026-03-29T11:58:11.615Z</time></trkpt><trkpt lat="45.6880849" lon="9.6371608"><ele>230.28571428571425</ele><time>2026-03-29T11:58:12.615Z</time></trkpt><trkpt lat="45.6880743" lon="9.6372524"><ele>229.99999999999997</ele><time>2026-03-29T11:58:13.615Z</time></trkpt><trkpt lat="45.6880563" lon="9.6373429"><ele>229.99999999999997</ele><time>2026-03-29T11:58:14.615Z</time></trkpt><trkpt lat="45.6880288" lon="9.6374421"><ele>230.0</ele><time>2026-03-29T11:58:15.615Z</time></trkpt><trkpt lat="45.6880109" lon="9.6375332"><ele>229.99999999999997</ele><time>2026-03-29T11:58:16.615Z</time></trkpt><trkpt lat="45.6879878" lon="9.637632"><ele>229.99999999999997</ele><time>2026-03-29T11:58:17.615Z</time></trkpt><trkpt lat="45.6879661" lon="9.6377209"><ele>230.0</ele><time>2026-03-29T11:58:18.615Z</time></trkpt><trkpt lat="45.6879468" lon="9.6378097"><ele>229.99999999999997</ele><time>2026-03-29T11:58:19.614Z</time></trkpt><trkpt lat="45.6879174" lon="9.6378986"><ele>229.99999999999997</ele><time>2026-03-29T11:58:20.615Z</time></trkpt><trkpt lat="45.6878854" lon="9.6379828"><ele>230.33333333333334</ele><time>2026-03-29T11:58:21.615Z</time></trkpt><trkpt lat="45.6878598" lon="9.6380674"><ele>230.66666666666669</ele><time>2026-03-29T11:58:22.615Z</time></trkpt><trkpt lat="45.6878125" lon="9.638226"><ele>231.0</ele><time>2026-03-29T11:58:24.615Z</time></trkpt><trkpt lat="45.6878047" lon="9.6383645"><ele>231.33333333333331</ele><time>2026-03-29T11:58:26.615Z</time></trkpt><trkpt lat="45.6878267" lon="9.6384824"><ele>231.66666666666666</ele><time>2026-03-29T11:58:28.614Z</time></trkpt><trkpt lat="45.6878953" lon="9.6385378"><ele>232.0</ele><time>2026-03-29T11:58:30.615Z</time></trkpt><trkpt lat="45.6879819" lon="9.6385307"><ele>231.99999999999997</ele><time>2026-03-29T11:58:33.615Z</time></trkpt><trkpt lat="45.6880603" lon="9.6385626"><ele>232.0</ele><time>2026-03-29T11:58:36.615Z</time></trkpt><trkpt lat="45.6880621" lon="9.6386959"><ele>232.0</ele><time>2026-03-29T11:58:39.615Z</time></trkpt><trkpt lat="45.6880504" lon="9.6388113"><ele>232.0</ele><time>2026-03-29T11:58:41.614Z</time></trkpt><trkpt lat="45.6880453" lon="9.6389413"><ele>231.99999999999997</ele><time>2026-03-29T11:58:43.614Z</time></trkpt><trkpt lat="45.6880443" lon="9.6390322"><ele>232.0</ele><time>2026-03-29T11:58:44.615Z</time></trkpt><trkpt lat="45.6880213" lon="9.6391838"><ele>232.0</ele><time>2026-03-29T11:58:46.615Z</time></trkpt><trkpt lat="45.6880029" lon="9.6393274"><ele>232.0</ele><time>2026-03-29T11:58:48.615Z</time></trkpt><trkpt lat="45.6880062" lon="9.6394587"><ele>232.0</ele><time>2026-03-29T11:58:50.615Z</time></trkpt><trkpt lat="45.6880471" lon="9.6395345"><ele>232.0</ele><time>2026-03-29T11:58:53.615Z</time></trkpt><trkpt lat="45.68847" lon="9.6395046"><ele>232.0</ele><time>2026-03-29T11:59:02.613Z</time></trkpt><trkpt lat="45.6885305" lon="9.6394471"><ele>232.0</ele><time>2026-03-29T11:59:04.61Z</time></trkpt><trkpt lat="45.6885937" lon="9.6393879"><ele>232.0</ele><time>2026-03-29T11:59:06.605Z</time></trkpt><trkpt lat="45.6886833" lon="9.6392623"><ele>232.0</ele><time>2026-03-29T11:59:07.608Z</time></trkpt><trkpt lat="45.6887697" lon="9.6391367"><ele>232.0</ele><time>2026-03-29T11:59:08.608Z</time></trkpt><trkpt lat="45.6888536" lon="9.6390493"><ele>231.75</ele><time>2026-03-29T11:59:09.608Z</time></trkpt><trkpt lat="45.6889525" lon="9.6389451"><ele>231.5</ele><time>2026-03-29T11:59:11.608Z</time></trkpt><trkpt lat="45.6890373" lon="9.6388299"><ele>231.25</ele><time>2026-03-29T11:59:13.608Z</time></trkpt><trkpt lat="45.6891025" lon="9.6387151"><ele>231.0</ele><time>2026-03-29T11:59:15.608Z</time></trkpt><trkpt lat="45.6891775" lon="9.6386019"><ele>230.8</ele><time>2026-03-29T11:59:17.608Z</time></trkpt><trkpt lat="45.6892434" lon="9.6384928"><ele>230.60000000000002</ele><time>2026-03-29T11:59:19.608Z</time></trkpt><trkpt lat="45.6893013" lon="9.6384349"><ele>230.4</ele><time>2026-03-29T11:59:21.608Z</time></trkpt><trkpt lat="45.6894309" lon="9.6384022"><ele>230.2</ele><time>2026-03-29T11:59:25.616Z</time></trkpt><trkpt lat="45.6895202" lon="9.6383394"><ele>230.0</ele><time>2026-03-29T11:59:27.616Z</time></trkpt><trkpt lat="45.6895817" lon="9.6382434"><ele>230.00000000000003</ele><time>2026-03-29T11:59:29.609Z</time></trkpt><trkpt lat="45.6896259" lon="9.6381576"><ele>230.0</ele><time>2026-03-29T11:59:30.606Z</time></trkpt><trkpt lat="45.6896777" lon="9.6380787"><ele>230.0</ele><time>2026-03-29T11:59:32.606Z</time></trkpt><trkpt lat="45.6896927" lon="9.6379745"><ele>230.0</ele><time>2026-03-29T11:59:34.606Z</time></trkpt><trkpt lat="45.6897248" lon="9.6378605"><ele>230.00000000000003</ele><time>2026-03-29T11:59:36.606Z</time></trkpt><trkpt lat="45.6897413" lon="9.6377622"><ele>230.0</ele><time>2026-03-29T11:59:38.606Z</time></trkpt><trkpt lat="45.6897785" lon="9.637665"><ele>230.00000000000003</ele><time>2026-03-29T11:59:40.606Z</time></trkpt><trkpt lat="45.6898524" lon="9.6377308"><ele>230.0</ele><time>2026-03-29T11:59:43.606Z</time></trkpt><trkpt lat="45.6898987" lon="9.6378347"><ele>230.0</ele><time>2026-03-29T11:59:45.606Z</time></trkpt><trkpt lat="45.689942" lon="9.6379388"><ele>230.0</ele><time>2026-03-29T11:59:47.605Z</time></trkpt><trkpt lat="45.6900002" lon="9.6379871"><ele>230.00000000000003</ele><time>2026-03-29T11:59:49.606Z</time></trkpt><trkpt lat="45.6900664" lon="9.6380169"><ele>230.0</ele><time>2026-03-29T11:59:52.606Z</time></trkpt><trkpt lat="45.6901036" lon="9.6380982"><ele>230.00000000000003</ele><time>2026-03-29T11:59:54.606Z</time></trkpt><trkpt lat="45.6901505" lon="9.6382089"><ele>230.0</ele><time>2026-03-29T11:59:56.606Z</time></trkpt><trkpt lat="45.6901846" lon="9.6382855"><ele>230.0</ele><time>2026-03-29T11:59:58.606Z</time></trkpt><trkpt lat="45.6902714" lon="9.6382703"><ele>230.0</ele><time>2026-03-29T12:00:02.606Z</time></trkpt><trkpt lat="45.6903317" lon="9.6382205"><ele>230.00000000000003</ele><time>2026-03-29T12:00:04.606Z</time></trkpt><trkpt lat="45.6904013" lon="9.6381709"><ele>230.0</ele><time>2026-03-29T12:00:07.606Z</time></trkpt><trkpt lat="45.6903769" lon="9.6380779"><ele>230.4</ele><time>2026-03-29T12:00:12.606Z</time></trkpt><trkpt lat="45.6903301" lon="9.6379871"><ele>230.8</ele><time>2026-03-29T12:00:15.606Z</time></trkpt><trkpt lat="45.6903043" lon="9.6378327"><ele>231.2</ele><time>2026-03-29T12:00:17.606Z</time></trkpt><trkpt lat="45.6902726" lon="9.637704"><ele>231.6</ele><time>2026-03-29T12:00:19.606Z</time></trkpt><trkpt lat="45.6902509" lon="9.6375656"><ele>232.0</ele><time>2026-03-29T12:00:21.606Z</time></trkpt><trkpt lat="45.6902457" lon="9.6374405"><ele>233.16666666666666</ele><time>2026-03-29T12:00:24.606Z</time></trkpt><trkpt lat="45.690263" lon="9.6373498"><ele>234.33333333333331</ele><time>2026-03-29T12:00:26.606Z</time></trkpt><trkpt lat="45.6903001" lon="9.6372755"><ele>235.5</ele><time>2026-03-29T12:00:28.606Z</time></trkpt><trkpt lat="45.6903643" lon="9.6371857"><ele>236.66666666666669</ele><time>2026-03-29T12:00:30.606Z</time></trkpt><trkpt lat="45.6904516" lon="9.6371239"><ele>237.83333333333334</ele><time>2026-03-29T12:00:32.606Z</time></trkpt><trkpt lat="45.6905274" lon="9.6370981"><ele>239.0</ele><time>2026-03-29T12:00:34.606Z</time></trkpt><trkpt lat="45.6905951" lon="9.6371089"><ele>239.0</ele><time>2026-03-29T12:00:36.606Z</time></trkpt><trkpt lat="45.6906829" lon="9.6371222"><ele>239.0</ele><time>2026-03-29T12:00:38.606Z</time></trkpt><trkpt lat="45.6907662" lon="9.6371314"><ele>239.0</ele><time>2026-03-29T12:00:40.606Z</time></trkpt><trkpt lat="45.6910189" lon="9.6371412"><ele>239.0</ele><time>2026-03-29T12:00:46.606Z</time></trkpt><trkpt lat="45.6912842" lon="9.6371477"><ele>240.16666666666669</ele><time>2026-03-29T12:00:52.606Z</time></trkpt><trkpt lat="45.691366" lon="9.6371202"><ele>241.33333333333334</ele><time>2026-03-29T12:00:54.605Z</time></trkpt><trkpt lat="45.6914324" lon="9.6371235"><ele>242.5</ele><time>2026-03-29T12:00:56.606Z</time></trkpt><trkpt lat="45.6914742" lon="9.6372309"><ele>243.66666666666669</ele><time>2026-03-29T12:00:59.606Z</time></trkpt><trkpt lat="45.6915202" lon="9.637337"><ele>244.83333333333334</ele><time>2026-03-29T12:01:02.606Z</time></trkpt><trkpt lat="45.6915798" lon="9.6373745"><ele>246.0</ele><time>2026-03-29T12:01:04.605Z</time></trkpt><trkpt lat="45.691657" lon="9.6373908"><ele>246.0</ele><time>2026-03-29T12:01:07.606Z</time></trkpt><trkpt lat="45.6917233" lon="9.6373988"><ele>246.0</ele><time>2026-03-29T12:01:11.605Z</time></trkpt><trkpt lat="45.6916689" lon="9.637304"><ele>246.0</ele><time>2026-03-29T12:01:17.607Z</time></trkpt><trkpt lat="45.6917411" lon="9.637232"><ele>246.0</ele><time>2026-03-29T12:01:31.606Z</time></trkpt><trkpt lat="45.6919878" lon="9.63706"><ele>246.0</ele><time>2026-03-29T12:01:36.606Z</time></trkpt><trkpt lat="45.6920294" lon="9.6369419"><ele>246.00000000000003</ele><time>2026-03-29T12:01:39.606Z</time></trkpt><trkpt lat="45.6920785" lon="9.636855"><ele>246.00000000000003</ele><time>2026-03-29T12:01:41.606Z</time></trkpt><trkpt lat="45.692145" lon="9.636778"><ele>246.0</ele><time>2026-03-29T12:01:43.606Z</time></trkpt><trkpt lat="45.6922281" lon="9.6366863"><ele>246.0</ele><time>2026-03-29T12:01:45.606Z</time></trkpt><trkpt lat="45.6923102" lon="9.6366008"><ele>246.0</ele><time>2026-03-29T12:01:47.606Z</time></trkpt><trkpt lat="45.6923923" lon="9.6365171"><ele>246.00000000000003</ele><time>2026-03-29T12:01:49.606Z</time></trkpt><trkpt lat="45.6924848" lon="9.6364317"><ele>246.00000000000003</ele><time>2026-03-29T12:01:51.606Z</time></trkpt><trkpt lat="45.6925589" lon="9.6363536"><ele>246.0</ele><time>2026-03-29T12:01:53.606Z</time></trkpt><trkpt lat="45.6926225" lon="9.6362813"><ele>246.0</ele><time>2026-03-29T12:02:06.606Z</time></trkpt><trkpt lat="45.6926852" lon="9.6362051"><ele>245.60000000000002</ele><time>2026-03-29T12:02:08.606Z</time></trkpt><trkpt lat="45.6927647" lon="9.6361019"><ele>245.20000000000002</ele><time>2026-03-29T12:02:10.606Z</time></trkpt><trkpt lat="45.6928595" lon="9.6360241"><ele>244.79999999999998</ele><time>2026-03-29T12:02:12.606Z</time></trkpt><trkpt lat="45.6929324" lon="9.6359463"><ele>244.39999999999998</ele><time>2026-03-29T12:02:14.606Z</time></trkpt><trkpt lat="45.6930424" lon="9.6358451"><ele>244.0</ele><time>2026-03-29T12:02:16.606Z</time></trkpt><trkpt lat="45.6931446" lon="9.6357468"><ele>243.99999999999997</ele><time>2026-03-29T12:02:18.606Z</time></trkpt><trkpt lat="45.693223" lon="9.6356708"><ele>244.0</ele><time>2026-03-29T12:02:20.606Z</time></trkpt><trkpt lat="45.6932791" lon="9.6356226"><ele>244.0</ele><time>2026-03-29T12:02:21.605Z</time></trkpt><trkpt lat="45.6933633" lon="9.6355493"><ele>244.0</ele><time>2026-03-29T12:02:23.606Z</time></trkpt><trkpt lat="45.6934164" lon="9.6354962"><ele>243.99999999999997</ele><time>2026-03-29T12:02:25.606Z</time></trkpt><trkpt lat="45.6934879" lon="9.6355059"><ele>244.0</ele><time>2026-03-29T12:02:29.605Z</time></trkpt><trkpt lat="45.6934732" lon="9.6356322"><ele>243.99999999999997</ele><time>2026-03-29T12:02:32.606Z</time></trkpt><trkpt lat="45.6934265" lon="9.6357154"><ele>244.0</ele><time>2026-03-29T12:02:34.606Z</time></trkpt><trkpt lat="45.6933766" lon="9.6357763"><ele>243.99999999999997</ele><time>2026-03-29T12:02:36.606Z</time></trkpt><trkpt lat="45.6933554" lon="9.6358704"><ele>243.99999999999997</ele><time>2026-03-29T12:02:38.606Z</time></trkpt><trkpt lat="45.6933726" lon="9.6359826"><ele>244.0</ele><time>2026-03-29T12:02:41.606Z</time></trkpt><trkpt lat="45.6934161" lon="9.6360599"><ele>243.99999999999997</ele><time>2026-03-29T12:02:43.606Z</time></trkpt><trkpt lat="45.6934535" lon="9.6361647"><ele>243.99999999999997</ele><time>2026-03-29T12:02:45.606Z</time></trkpt><trkpt lat="45.6934891" lon="9.6362615"><ele>244.6</ele><time>2026-03-29T12:02:47.606Z</time></trkpt><trkpt lat="45.6935545" lon="9.636308"><ele>245.2</ele><time>2026-03-29T12:02:49.606Z</time></trkpt><trkpt lat="45.6936034" lon="9.6362487"><ele>245.79999999999998</ele><time>2026-03-29T12:02:53.558Z</time></trkpt><trkpt lat="45.6936835" lon="9.6362322"><ele>246.39999999999998</ele><time>2026-03-29T12:02:55.606Z</time></trkpt><trkpt lat="45.6938551" lon="9.6362218"><ele>247.0</ele><time>2026-03-29T12:02:57.605Z</time></trkpt><trkpt lat="45.6939578" lon="9.6362036"><ele>247.2</ele><time>2026-03-29T12:03:00.606Z</time></trkpt><trkpt lat="45.6940441" lon="9.6361732"><ele>247.39999999999998</ele><time>2026-03-29T12:03:02.606Z</time></trkpt><trkpt lat="45.6941038" lon="9.636122"><ele>247.60000000000002</ele><time>2026-03-29T12:03:03.606Z</time></trkpt><trkpt lat="45.6941875" lon="9.6360295"><ele>247.8</ele><time>2026-03-29T12:03:05.605Z</time></trkpt><trkpt lat="45.6942454" lon="9.6359582"><ele>248.0</ele><time>2026-03-29T12:03:06.606Z</time></trkpt><trkpt lat="45.6943344" lon="9.6358427"><ele>247.2</ele><time>2026-03-29T12:03:08.606Z</time></trkpt><trkpt lat="45.6944351" lon="9.6357679"><ele>246.4</ele><time>2026-03-29T12:03:10.606Z</time></trkpt><trkpt lat="45.6945078" lon="9.6357421"><ele>245.59999999999997</ele><time>2026-03-29T12:03:11.606Z</time></trkpt><trkpt lat="45.694613" lon="9.6357436"><ele>244.79999999999998</ele><time>2026-03-29T12:03:13.606Z</time></trkpt><trkpt lat="45.6947266" lon="9.6357568"><ele>244.0</ele><time>2026-03-29T12:03:15.605Z</time></trkpt><trkpt lat="45.6948032" lon="9.6357608"><ele>244.0</ele><time>2026-03-29T12:03:16.606Z</time></trkpt><trkpt lat="45.6948678" lon="9.635747"><ele>243.99999999999997</ele><time>2026-03-29T12:03:17.605Z</time></trkpt><trkpt lat="45.6949822" lon="9.6357155"><ele>243.99999999999997</ele><time>2026-03-29T12:03:19.605Z</time></trkpt><trkpt lat="45.6950951" lon="9.635663"><ele>244.0</ele><time>2026-03-29T12:03:21.606Z</time></trkpt><trkpt lat="45.695208" lon="9.6356211"><ele>244.0</ele><time>2026-03-29T12:03:23.606Z</time></trkpt><trkpt lat="45.6953158" lon="9.6355948"><ele>244.79999999999998</ele><time>2026-03-29T12:03:25.606Z</time></trkpt><trkpt lat="45.6954194" lon="9.6356022"><ele>245.59999999999997</ele><time>2026-03-29T12:03:27.606Z</time></trkpt><trkpt lat="45.6955258" lon="9.6356008"><ele>246.4</ele><time>2026-03-29T12:03:29.606Z</time></trkpt><trkpt lat="45.6956111" lon="9.6355933"><ele>247.2</ele><time>2026-03-29T12:03:31.606Z</time></trkpt><trkpt lat="45.6957061" lon="9.6356807"><ele>248.0</ele><time>2026-03-29T12:03:33.606Z</time></trkpt><trkpt lat="45.6958039" lon="9.6357396"><ele>248.0</ele><time>2026-03-29T12:03:35.606Z</time></trkpt><trkpt lat="45.6958846" lon="9.6357843"><ele>248.0</ele><time>2026-03-29T12:03:37.606Z</time></trkpt><trkpt lat="45.6959633" lon="9.6357842"><ele>248.0</ele><time>2026-03-29T12:03:39.606Z</time></trkpt><trkpt lat="45.6959763" lon="9.6356416"><ele>248.0</ele><time>2026-03-29T12:03:42.606Z</time></trkpt><trkpt lat="45.6959759" lon="9.635476"><ele>248.0</ele><time>2026-03-29T12:03:44.606Z</time></trkpt><trkpt lat="45.6959793" lon="9.6353281"><ele>247.50000000000003</ele><time>2026-03-29T12:03:46.606Z</time></trkpt><trkpt lat="45.6959705" lon="9.6352294"><ele>247.0</ele><time>2026-03-29T12:03:48.606Z</time></trkpt><trkpt lat="45.6960107" lon="9.6351599"><ele>246.5</ele><time>2026-03-29T12:03:51.606Z</time></trkpt><trkpt lat="45.6960673" lon="9.6350827"><ele>246.0</ele><time>2026-03-29T12:03:54.606Z</time></trkpt><trkpt lat="45.696149" lon="9.635061"><ele>245.50000000000003</ele><time>2026-03-29T12:03:57.606Z</time></trkpt><trkpt lat="45.6962358" lon="9.6350471"><ele>245.0</ele><time>2026-03-29T12:04:00.606Z</time></trkpt><trkpt lat="45.6963405" lon="9.6350302"><ele>245.00000000000003</ele><time>2026-03-29T12:04:03.606Z</time></trkpt><trkpt lat="45.6964329" lon="9.6350457"><ele>245.0</ele><time>2026-03-29T12:04:05.606Z</time></trkpt><trkpt lat="45.6965342" lon="9.6350772"><ele>245.0</ele><time>2026-03-29T12:04:07.606Z</time></trkpt><trkpt lat="45.6966288" lon="9.6351053"><ele>245.0</ele><time>2026-03-29T12:04:08.606Z</time></trkpt><trkpt lat="45.6967022" lon="9.6351387"><ele>245.00000000000003</ele><time>2026-03-29T12:04:10.606Z</time></trkpt><trkpt lat="45.696769" lon="9.6351644"><ele>245.0</ele><time>2026-03-29T12:04:11.606Z</time></trkpt><trkpt lat="45.6968757" lon="9.6351837"><ele>245.4</ele><time>2026-03-29T12:04:13.606Z</time></trkpt><trkpt lat="45.6969959" lon="9.6352317"><ele>245.8</ele><time>2026-03-29T12:04:15.606Z</time></trkpt><trkpt lat="45.697095" lon="9.6352674"><ele>246.2</ele><time>2026-03-29T12:04:17.606Z</time></trkpt><trkpt lat="45.6971951" lon="9.6352883"><ele>246.6</ele><time>2026-03-29T12:04:19.606Z</time></trkpt><trkpt lat="45.6972895" lon="9.6353294"><ele>247.0</ele><time>2026-03-29T12:04:21.606Z</time></trkpt><trkpt lat="45.6973815" lon="9.6353726"><ele>246.99999999999997</ele><time>2026-03-29T12:04:23.606Z</time></trkpt><trkpt lat="45.6974775" lon="9.6353974"><ele>247.0</ele><time>2026-03-29T12:04:25.605Z</time></trkpt><trkpt lat="45.6975527" lon="9.6354283"><ele>247.0</ele><time>2026-03-29T12:04:27.606Z</time></trkpt><trkpt lat="45.6975951" lon="9.6355099"><ele>247.0</ele><time>2026-03-29T12:04:29.606Z</time></trkpt><trkpt lat="45.6976401" lon="9.6355904"><ele>246.99999999999997</ele><time>2026-03-29T12:04:31.606Z</time></trkpt><trkpt lat="45.6976724" lon="9.6356916"><ele>247.0</ele><time>2026-03-29T12:04:33.606Z</time></trkpt><trkpt lat="45.697705" lon="9.6357864"><ele>246.99999999999997</ele><time>2026-03-29T12:04:35.606Z</time></trkpt><trkpt lat="45.6977665" lon="9.6358625"><ele>247.0</ele><time>2026-03-29T12:04:37.606Z</time></trkpt><trkpt lat="45.6978586" lon="9.6358872"><ele>247.0</ele><time>2026-03-29T12:04:39.606Z</time></trkpt><trkpt lat="45.6979401" lon="9.6358844"><ele>247.0</ele><time>2026-03-29T12:04:41.606Z</time></trkpt><trkpt lat="45.6980309" lon="9.6358865"><ele>246.99999999999997</ele><time>2026-03-29T12:04:43.606Z</time></trkpt><trkpt lat="45.6981171" lon="9.6358981"><ele>247.0</ele><time>2026-03-29T12:04:45.606Z</time></trkpt><trkpt lat="45.6982047" lon="9.6359096"><ele>247.0</ele><time>2026-03-29T12:04:47.606Z</time></trkpt><trkpt lat="45.6982906" lon="9.6359154"><ele>247.0</ele><time>2026-03-29T12:04:49.606Z</time></trkpt><trkpt lat="45.6983965" lon="9.6359239"><ele>247.0</ele><time>2026-03-29T12:04:51.606Z</time></trkpt><trkpt lat="45.6985125" lon="9.6359459"><ele>247.0</ele><time>2026-03-29T12:04:53.606Z</time></trkpt><trkpt lat="45.6986208" lon="9.6359586"><ele>247.0</ele><time>2026-03-29T12:04:55.606Z</time></trkpt><trkpt lat="45.6987364" lon="9.635983"><ele>246.75</ele><time>2026-03-29T12:04:57.606Z</time></trkpt><trkpt lat="45.6988492" lon="9.6360075"><ele>246.5</ele><time>2026-03-29T12:04:59.606Z</time></trkpt><trkpt lat="45.6989601" lon="9.6360262"><ele>246.25</ele><time>2026-03-29T12:05:01.606Z</time></trkpt><trkpt lat="45.6990741" lon="9.636044"><ele>246.0</ele><time>2026-03-29T12:05:03.606Z</time></trkpt><trkpt lat="45.6991843" lon="9.6360564"><ele>246.0</ele><time>2026-03-29T12:05:05.605Z</time></trkpt><trkpt lat="45.6992887" lon="9.6360841"><ele>246.0</ele><time>2026-03-29T12:05:07.606Z</time></trkpt><trkpt lat="45.699423" lon="9.6361041"><ele>246.0</ele><time>2026-03-29T12:05:09.606Z</time></trkpt><trkpt lat="45.6995454" lon="9.6361282"><ele>246.0</ele><time>2026-03-29T12:05:11.605Z</time></trkpt><trkpt lat="45.6996775" lon="9.6361385"><ele>246.60000000000002</ele><time>2026-03-29T12:05:13.606Z</time></trkpt><trkpt lat="45.6997989" lon="9.6361522"><ele>247.20000000000002</ele><time>2026-03-29T12:05:15.606Z</time></trkpt><trkpt lat="45.6999182" lon="9.6361763"><ele>247.79999999999998</ele><time>2026-03-29T12:05:17.606Z</time></trkpt><trkpt lat="45.7000373" lon="9.6361892"><ele>248.39999999999998</ele><time>2026-03-29T12:05:19.606Z</time></trkpt><trkpt lat="45.7001011" lon="9.6361956"><ele>249.0</ele><time>2026-03-29T12:05:20.605Z</time></trkpt><trkpt lat="45.7002171" lon="9.6362111"><ele>249.2</ele><time>2026-03-29T12:05:22.606Z</time></trkpt><trkpt lat="45.7003165" lon="9.6362205"><ele>249.39999999999998</ele><time>2026-03-29T12:05:24.606Z</time></trkpt><trkpt lat="45.7003795" lon="9.6362225"><ele>249.6</ele><time>2026-03-29T12:05:25.606Z</time></trkpt><trkpt lat="45.7004978" lon="9.6362436"><ele>249.8</ele><time>2026-03-29T12:05:27.606Z</time></trkpt><trkpt lat="45.7006044" lon="9.6362626"><ele>250.0</ele><time>2026-03-29T12:05:29.606Z</time></trkpt><trkpt lat="45.7007176" lon="9.636262"><ele>250.0</ele><time>2026-03-29T12:05:31.606Z</time></trkpt><trkpt lat="45.70083" lon="9.6362942"><ele>250.0</ele><time>2026-03-29T12:05:33.606Z</time></trkpt><trkpt lat="45.7009382" lon="9.6363318"><ele>250.0</ele><time>2026-03-29T12:05:35.606Z</time></trkpt><trkpt lat="45.7010428" lon="9.6363563"><ele>250.0</ele><time>2026-03-29T12:05:37.606Z</time></trkpt><trkpt lat="45.7011576" lon="9.6364044"><ele>249.83333333333331</ele><time>2026-03-29T12:05:39.606Z</time></trkpt><trkpt lat="45.701257" lon="9.6364747"><ele>249.66666666666666</ele><time>2026-03-29T12:05:41.606Z</time></trkpt><trkpt lat="45.7012638" lon="9.6363382"><ele>249.5</ele><time>2026-03-29T12:05:46.606Z</time></trkpt><trkpt lat="45.7012971" lon="9.6362585"><ele>249.33333333333331</ele><time>2026-03-29T12:05:48.606Z</time></trkpt><trkpt lat="45.7013377" lon="9.6361889"><ele>249.16666666666666</ele><time>2026-03-29T12:05:51.606Z</time></trkpt><trkpt lat="45.7014165" lon="9.6361547"><ele>249.0</ele><time>2026-03-29T12:05:54.606Z</time></trkpt><trkpt lat="45.7014801" lon="9.6361396"><ele>249.0</ele><time>2026-03-29T12:05:56.606Z</time></trkpt><trkpt lat="45.7015587" lon="9.6361406"><ele>249.0</ele><time>2026-03-29T12:05:58.606Z</time></trkpt><trkpt lat="45.7016562" lon="9.6361557"><ele>249.0</ele><time>2026-03-29T12:06:00.606Z</time></trkpt><trkpt lat="45.7017223" lon="9.6361601"><ele>249.0</ele><time>2026-03-29T12:06:01.606Z</time></trkpt><trkpt lat="45.7018118" lon="9.636175"><ele>249.0</ele><time>2026-03-29T12:06:03.606Z</time></trkpt><trkpt lat="45.7019026" lon="9.6362001"><ele>249.0</ele><time>2026-03-29T12:06:05.606Z</time></trkpt><trkpt lat="45.7019767" lon="9.6362016"><ele>248.2</ele><time>2026-03-29T12:06:06.606Z</time></trkpt><trkpt lat="45.7020734" lon="9.6362054"><ele>247.39999999999998</ele><time>2026-03-29T12:06:08.606Z</time></trkpt><trkpt lat="45.7021725" lon="9.6361784"><ele>246.6</ele><time>2026-03-29T12:06:10.606Z</time></trkpt><trkpt lat="45.7022625" lon="9.6361026"><ele>245.8</ele><time>2026-03-29T12:06:12.606Z</time></trkpt><trkpt lat="45.7023586" lon="9.636027"><ele>245.0</ele><time>2026-03-29T12:06:14.606Z</time></trkpt><trkpt lat="45.7024266" lon="9.6359406"><ele>244.66666666666669</ele><time>2026-03-29T12:06:16.606Z</time></trkpt><trkpt lat="45.7024848" lon="9.635857"><ele>244.33333333333334</ele><time>2026-03-29T12:06:18.606Z</time></trkpt><trkpt lat="45.7025368" lon="9.6357916"><ele>244.0</ele><time>2026-03-29T12:06:21.606Z</time></trkpt><trkpt lat="45.7026192" lon="9.6358231"><ele>243.66666666666669</ele><time>2026-03-29T12:06:24.606Z</time></trkpt><trkpt lat="45.7026731" lon="9.6359073"><ele>243.33333333333334</ele><time>2026-03-29T12:06:26.606Z</time></trkpt><trkpt lat="45.70274" lon="9.636007"><ele>243.0</ele><time>2026-03-29T12:06:28.606Z</time></trkpt><trkpt lat="45.7028185" lon="9.6361002"><ele>243.60000000000002</ele><time>2026-03-29T12:06:30.606Z</time></trkpt><trkpt lat="45.7028914" lon="9.6361843"><ele>244.20000000000002</ele><time>2026-03-29T12:06:32.606Z</time></trkpt><trkpt lat="45.7029671" lon="9.6362773"><ele>244.8</ele><time>2026-03-29T12:06:34.606Z</time></trkpt><trkpt lat="45.7030387" lon="9.6363575"><ele>245.4</ele><time>2026-03-29T12:06:36.606Z</time></trkpt><trkpt lat="45.7031026" lon="9.6364586"><ele>246.0</ele><time>2026-03-29T12:06:38.606Z</time></trkpt><trkpt lat="45.7031884" lon="9.6365629"><ele>246.0</ele><time>2026-03-29T12:06:40.606Z</time></trkpt><trkpt lat="45.7032657" lon="9.6366626"><ele>246.00000000000003</ele><time>2026-03-29T12:06:42.606Z</time></trkpt><trkpt lat="45.7033296" lon="9.6367623"><ele>246.00000000000003</ele><time>2026-03-29T12:06:44.606Z</time></trkpt><trkpt lat="45.7034038" lon="9.6368599"><ele>246.0</ele><time>2026-03-29T12:06:46.605Z</time></trkpt><trkpt lat="45.703477" lon="9.636944"><ele>246.0</ele><time>2026-03-29T12:06:48.606Z</time></trkpt><trkpt lat="45.703538" lon="9.6370223"><ele>246.0</ele><time>2026-03-29T12:06:50.606Z</time></trkpt><trkpt lat="45.7036235" lon="9.6371121"><ele>246.00000000000003</ele><time>2026-03-29T12:06:52.606Z</time></trkpt><trkpt lat="45.7037135" lon="9.6371945"><ele>246.00000000000003</ele><time>2026-03-29T12:06:54.606Z</time></trkpt><trkpt lat="45.7038042" lon="9.6372827"><ele>246.0</ele><time>2026-03-29T12:06:56.606Z</time></trkpt><trkpt lat="45.703884" lon="9.6373498"><ele>246.0</ele><time>2026-03-29T12:06:58.606Z</time></trkpt><trkpt lat="45.7039699" lon="9.637435"><ele>246.0</ele><time>2026-03-29T12:07:00.606Z</time></trkpt><trkpt lat="45.704049" lon="9.6375005"><ele>246.00000000000003</ele><time>2026-03-29T12:07:02.606Z</time></trkpt><trkpt lat="45.7041326" lon="9.6375836"><ele>246.00000000000003</ele><time>2026-03-29T12:07:04.606Z</time></trkpt><trkpt lat="45.7042168" lon="9.6376612"><ele>246.0</ele><time>2026-03-29T12:07:06.606Z</time></trkpt><trkpt lat="45.7043053" lon="9.6377358"><ele>246.0</ele><time>2026-03-29T12:07:08.606Z</time></trkpt><trkpt lat="45.7043759" lon="9.6378079"><ele>247.20000000000002</ele><time>2026-03-29T12:07:10.606Z</time></trkpt><trkpt lat="45.7044384" lon="9.6378326"><ele>248.40000000000003</ele><time>2026-03-29T12:07:11.606Z</time></trkpt><trkpt lat="45.7045474" lon="9.6379067"><ele>249.6</ele><time>2026-03-29T12:07:13.606Z</time></trkpt><trkpt lat="45.7046441" lon="9.6379545"><ele>250.8</ele><time>2026-03-29T12:07:15.606Z</time></trkpt><trkpt lat="45.7047587" lon="9.6380251"><ele>252.0</ele><time>2026-03-29T12:07:17.606Z</time></trkpt><trkpt lat="45.704846" lon="9.6380767"><ele>252.0</ele><time>2026-03-29T12:07:19.606Z</time></trkpt><trkpt lat="45.7049093" lon="9.6381205"><ele>252.0</ele><time>2026-03-29T12:07:20.606Z</time></trkpt><trkpt lat="45.7050068" lon="9.6381816"><ele>252.0</ele><time>2026-03-29T12:07:22.606Z</time></trkpt><trkpt lat="45.7050835" lon="9.6382125"><ele>252.0</ele><time>2026-03-29T12:07:24.605Z</time></trkpt><trkpt lat="45.705171" lon="9.6382801"><ele>252.0</ele><time>2026-03-29T12:07:26.606Z</time></trkpt><trkpt lat="45.7052647" lon="9.6383378"><ele>252.33333333333334</ele><time>2026-03-29T12:07:28.605Z</time></trkpt><trkpt lat="45.7053444" lon="9.6383757"><ele>252.66666666666669</ele><time>2026-03-29T12:07:30.605Z</time></trkpt><trkpt lat="45.7054319" lon="9.6384197"><ele>253.0</ele><time>2026-03-29T12:07:32.606Z</time></trkpt><trkpt lat="45.7054985" lon="9.6384437"><ele>253.33333333333334</ele><time>2026-03-29T12:07:34.606Z</time></trkpt><trkpt lat="45.7055845" lon="9.6384765"><ele>253.66666666666669</ele><time>2026-03-29T12:07:36.606Z</time></trkpt><trkpt lat="45.7056677" lon="9.6385131"><ele>254.0</ele><time>2026-03-29T12:07:38.606Z</time></trkpt><trkpt lat="45.7057374" lon="9.6385376"><ele>254.00000000000003</ele><time>2026-03-29T12:07:40.606Z</time></trkpt><trkpt lat="45.7058107" lon="9.6385752"><ele>254.0</ele><time>2026-03-29T12:07:42.605Z</time></trkpt><trkpt lat="45.705902" lon="9.6385872"><ele>254.0</ele><time>2026-03-29T12:07:45.606Z</time></trkpt><trkpt lat="45.7059677" lon="9.6386082"><ele>254.0</ele><time>2026-03-29T12:07:47.606Z</time></trkpt><trkpt lat="45.7060327" lon="9.6386433"><ele>254.00000000000003</ele><time>2026-03-29T12:07:49.606Z</time></trkpt><trkpt lat="45.7061414" lon="9.6386915"><ele>254.0</ele><time>2026-03-29T12:07:52.618Z</time></trkpt><trkpt lat="45.7060426" lon="9.6386354"><ele>255.00000000000003</ele><time>2026-03-29T12:07:53.593Z</time></trkpt><trkpt lat="45.7061254" lon="9.6386918"><ele>256.0</ele><time>2026-03-29T12:07:56.484Z</time></trkpt><trkpt lat="45.7062074" lon="9.6387265"><ele>257.0</ele><time>2026-03-29T12:07:59.327Z</time></trkpt><trkpt lat="45.7062999" lon="9.6387302"><ele>258.0</ele><time>2026-03-29T12:08:02.153Z</time></trkpt><trkpt lat="45.7063701" lon="9.6387129"><ele>259.0</ele><time>2026-03-29T12:08:04.028Z</time></trkpt><trkpt lat="45.7064571" lon="9.6387304"><ele>260.0</ele><time>2026-03-29T12:08:06.878Z</time></trkpt><trkpt lat="45.7065221" lon="9.6387448"><ele>260.0</ele><time>2026-03-29T12:08:09.742Z</time></trkpt><trkpt lat="45.7065882" lon="9.6387607"><ele>260.0</ele><time>2026-03-29T12:08:13.613Z</time></trkpt><trkpt lat="45.7066639" lon="9.6387798"><ele>260.0</ele><time>2026-03-29T12:08:17.613Z</time></trkpt><trkpt lat="45.7070376" lon="9.6390184"><ele>261.33333333333337</ele><time>2026-03-29T12:08:19.613Z</time></trkpt><trkpt lat="45.7071037" lon="9.639045"><ele>262.6666666666667</ele><time>2026-03-29T12:08:21.613Z</time></trkpt><trkpt lat="45.7071666" lon="9.6390759"><ele>264.0</ele><time>2026-03-29T12:08:23.613Z</time></trkpt><trkpt lat="45.707254" lon="9.6391048"><ele>265.3333333333333</ele><time>2026-03-29T12:08:26.613Z</time></trkpt><trkpt lat="45.7073462" lon="9.6391369"><ele>266.66666666666663</ele><time>2026-03-29T12:08:29.613Z</time></trkpt><trkpt lat="45.7074363" lon="9.6391844"><ele>268.0</ele><time>2026-03-29T12:08:31.613Z</time></trkpt><trkpt lat="45.7074963" lon="9.639221"><ele>268.0</ele><time>2026-03-29T12:08:33.613Z</time></trkpt><trkpt lat="45.7075704" lon="9.6392716"><ele>268.0</ele><time>2026-03-29T12:08:35.613Z</time></trkpt><trkpt lat="45.7076479" lon="9.6393241"><ele>268.0</ele><time>2026-03-29T12:08:38.613Z</time></trkpt><trkpt lat="45.7077252" lon="9.6393888"><ele>268.0</ele><time>2026-03-29T12:08:40.613Z</time></trkpt><trkpt lat="45.7078001" lon="9.6394527"><ele>268.0</ele><time>2026-03-29T12:08:43.613Z</time></trkpt><trkpt lat="45.707855" lon="9.639505"><ele>268.0</ele><time>2026-03-29T12:08:45.613Z</time></trkpt><trkpt lat="45.707915" lon="9.6395651"><ele>270.14285714285717</ele><time>2026-03-29T12:08:48.613Z</time></trkpt><trkpt lat="45.7079899" lon="9.6396345"><ele>272.2857142857143</ele><time>2026-03-29T12:08:51.613Z</time></trkpt><trkpt lat="45.7080627" lon="9.6396785"><ele>274.42857142857144</ele><time>2026-03-29T12:08:54.613Z</time></trkpt><trkpt lat="45.7081246" lon="9.6397187"><ele>276.57142857142856</ele><time>2026-03-29T12:08:58.613Z</time></trkpt><trkpt lat="45.7081836" lon="9.6397762"><ele>278.7142857142857</ele><time>2026-03-29T12:09:02.613Z</time></trkpt><trkpt lat="45.7082413" lon="9.6398265"><ele>280.8571428571429</ele><time>2026-03-29T12:09:06.613Z</time></trkpt><trkpt lat="45.7083036" lon="9.6398577"><ele>283.0</ele><time>2026-03-29T12:09:10.613Z</time></trkpt><trkpt lat="45.7083734" lon="9.639903"><ele>283.0</ele><time>2026-03-29T12:09:15.613Z</time></trkpt><trkpt lat="45.7084094" lon="9.6399858"><ele>283.0</ele><time>2026-03-29T12:09:19.613Z</time></trkpt><trkpt lat="45.7084073" lon="9.6401066"><ele>283.0</ele><time>2026-03-29T12:09:24.613Z</time></trkpt><trkpt lat="45.7083441" lon="9.6401576"><ele>283.0</ele><time>2026-03-29T12:09:29.613Z</time></trkpt><trkpt lat="45.7083023" lon="9.6402267"><ele>283.0</ele><time>2026-03-29T12:09:33.613Z</time></trkpt><trkpt lat="45.708243" lon="9.6403008"><ele>283.0</ele><time>2026-03-29T12:09:38.613Z</time></trkpt><trkpt lat="45.7081899" lon="9.6403942"><ele>285.42857142857144</ele><time>2026-03-29T12:09:42.613Z</time></trkpt><trkpt lat="45.7081511" lon="9.6404784"><ele>287.8571428571429</ele><time>2026-03-29T12:09:45.612Z</time></trkpt><trkpt lat="45.7081275" lon="9.6405674"><ele>290.2857142857143</ele><time>2026-03-29T12:09:48.612Z</time></trkpt><trkpt lat="45.7081024" lon="9.640655"><ele>292.7142857142857</ele><time>2026-03-29T12:09:51.613Z</time></trkpt><trkpt lat="45.7080854" lon="9.6407587"><ele>295.1428571428571</ele><time>2026-03-29T12:09:54.613Z</time></trkpt><trkpt lat="45.7080732" lon="9.6408635"><ele>297.57142857142856</ele><time>2026-03-29T12:09:57.612Z</time></trkpt><trkpt lat="45.708039" lon="9.6409781"><ele>300.0</ele><time>2026-03-29T12:10:01.613Z</time></trkpt><trkpt lat="45.7080086" lon="9.6410701"><ele>302.1428571428571</ele><time>2026-03-29T12:10:04.613Z</time></trkpt><trkpt lat="45.707986" lon="9.6411556"><ele>304.2857142857143</ele><time>2026-03-29T12:10:07.613Z</time></trkpt><trkpt lat="45.7079591" lon="9.6412514"><ele>306.42857142857144</ele><time>2026-03-29T12:10:10.613Z</time></trkpt><trkpt lat="45.7079392" lon="9.641339"><ele>308.57142857142856</ele><time>2026-03-29T12:10:13.612Z</time></trkpt><trkpt lat="45.7079194" lon="9.6414418"><ele>310.7142857142857</ele><time>2026-03-29T12:10:16.612Z</time></trkpt><trkpt lat="45.7079109" lon="9.6415453"><ele>312.85714285714283</ele><time>2026-03-29T12:10:19.613Z</time></trkpt><trkpt lat="45.7079029" lon="9.6416579"><ele>315.0</ele><time>2026-03-29T12:10:22.613Z</time></trkpt><trkpt lat="45.707891" lon="9.6417765"><ele>315.0</ele><time>2026-03-29T12:10:25.613Z</time></trkpt><trkpt lat="45.7078776" lon="9.6418837"><ele>315.0</ele><time>2026-03-29T12:10:28.613Z</time></trkpt><trkpt lat="45.7078634" lon="9.6419884"><ele>315.0</ele><time>2026-03-29T12:10:31.612Z</time></trkpt><trkpt lat="45.7078532" lon="9.6420779"><ele>315.0</ele><time>2026-03-29T12:10:34.613Z</time></trkpt><trkpt lat="45.7078461" lon="9.6421838"><ele>315.0</ele><time>2026-03-29T12:10:37.613Z</time></trkpt><trkpt lat="45.7078368" lon="9.6422855"><ele>315.0</ele><time>2026-03-29T12:10:40.613Z</time></trkpt><trkpt lat="45.7078459" lon="9.6424004"><ele>315.0</ele><time>2026-03-29T12:10:43.613Z</time></trkpt><trkpt lat="45.7078336" lon="9.6425161"><ele>315.8333333333333</ele><time>2026-03-29T12:10:46.613Z</time></trkpt><trkpt lat="45.7078171" lon="9.6426302"><ele>316.6666666666667</ele><time>2026-03-29T12:10:49.613Z</time></trkpt><trkpt lat="45.7078052" lon="9.6427404"><ele>317.5</ele><time>2026-03-29T12:10:52.613Z</time></trkpt><trkpt lat="45.7078106" lon="9.6428737"><ele>318.33333333333337</ele><time>2026-03-29T12:10:55.613Z</time></trkpt><trkpt lat="45.7078246" lon="9.6429697"><ele>319.1666666666667</ele><time>2026-03-29T12:10:57.613Z</time></trkpt><trkpt lat="45.7078474" lon="9.6430613"><ele>320.0</ele><time>2026-03-29T12:10:59.613Z</time></trkpt><trkpt lat="45.7078693" lon="9.643152"><ele>320.0</ele><time>2026-03-29T12:11:01.613Z</time></trkpt><trkpt lat="45.707899" lon="9.6432436"><ele>320.0</ele><time>2026-03-29T12:11:03.613Z</time></trkpt><trkpt lat="45.7079302" lon="9.6433283"><ele>320.0</ele><time>2026-03-29T12:11:05.613Z</time></trkpt><trkpt lat="45.7079737" lon="9.6433998"><ele>320.0</ele><time>2026-03-29T12:11:07.613Z</time></trkpt><trkpt lat="45.7080276" lon="9.6434821"><ele>320.0</ele><time>2026-03-29T12:11:09.612Z</time></trkpt><trkpt lat="45.7080722" lon="9.643575"><ele>320.0</ele><time>2026-03-29T12:11:11.613Z</time></trkpt><trkpt lat="45.7081166" lon="9.6436613"><ele>320.0</ele><time>2026-03-29T12:11:13.613Z</time></trkpt><trkpt lat="45.7081599" lon="9.6437388"><ele>318.0</ele><time>2026-03-29T12:11:15.613Z</time></trkpt><trkpt lat="45.7081997" lon="9.64381"><ele>316.0</ele><time>2026-03-29T12:11:17.613Z</time></trkpt><trkpt lat="45.7082533" lon="9.6439188"><ele>314.0</ele><time>2026-03-29T12:11:20.613Z</time></trkpt><trkpt lat="45.7083132" lon="9.6440238"><ele>312.0</ele><time>2026-03-29T12:11:23.613Z</time></trkpt><trkpt lat="45.7083567" lon="9.644089"><ele>310.0</ele><time>2026-03-29T12:11:25.613Z</time></trkpt><trkpt lat="45.7084053" lon="9.6441493"><ele>308.0</ele><time>2026-03-29T12:11:27.613Z</time></trkpt><trkpt lat="45.7084591" lon="9.6442469"><ele>308.0</ele><time>2026-03-29T12:11:30.613Z</time></trkpt><trkpt lat="45.7084909" lon="9.6443699"><ele>308.0</ele><time>2026-03-29T12:11:33.613Z</time></trkpt><trkpt lat="45.7085107" lon="9.6444606"><ele>308.0</ele><time>2026-03-29T12:11:35.613Z</time></trkpt><trkpt lat="45.7085336" lon="9.6445463"><ele>308.0</ele><time>2026-03-29T12:11:37.613Z</time></trkpt><trkpt lat="45.7085541" lon="9.6446319"><ele>308.0</ele><time>2026-03-29T12:11:39.613Z</time></trkpt><trkpt lat="45.7085738" lon="9.6447366"><ele>308.0</ele><time>2026-03-29T12:11:41.613Z</time></trkpt><trkpt lat="45.708583" lon="9.6448516"><ele>308.0</ele><time>2026-03-29T12:11:43.613Z</time></trkpt><trkpt lat="45.7085945" lon="9.6449436"><ele>311.85714285714283</ele><time>2026-03-29T12:11:45.613Z</time></trkpt><trkpt lat="45.7086033" lon="9.6450369"><ele>315.7142857142857</ele><time>2026-03-29T12:11:47.613Z</time></trkpt><trkpt lat="45.7086053" lon="9.6451342"><ele>319.57142857142856</ele><time>2026-03-29T12:11:49.613Z</time></trkpt><trkpt lat="45.7086074" lon="9.6452507"><ele>323.42857142857144</ele><time>2026-03-29T12:11:52.613Z</time></trkpt><trkpt lat="45.7086148" lon="9.6453453"><ele>327.2857142857143</ele><time>2026-03-29T12:11:55.613Z</time></trkpt><trkpt lat="45.7086237" lon="9.6454523"><ele>331.1428571428571</ele><time>2026-03-29T12:11:58.612Z</time></trkpt><trkpt lat="45.7086299" lon="9.6455815"><ele>335.0</ele><time>2026-03-29T12:12:01.613Z</time></trkpt><trkpt lat="45.7086038" lon="9.6456668"><ele>333.71428571428567</ele><time>2026-03-29T12:12:03.612Z</time></trkpt><trkpt lat="45.7085464" lon="9.64572"><ele>332.42857142857144</ele><time>2026-03-29T12:12:05.612Z</time></trkpt><trkpt lat="45.7084861" lon="9.6457525"><ele>331.1428571428571</ele><time>2026-03-29T12:12:10.613Z</time></trkpt><trkpt lat="45.7084118" lon="9.6457547"><ele>329.85714285714283</ele><time>2026-03-29T12:12:15.613Z</time></trkpt><trkpt lat="45.7083388" lon="9.6457582"><ele>328.57142857142856</ele><time>2026-03-29T12:12:20.613Z</time></trkpt><trkpt lat="45.708275" lon="9.6457355"><ele>327.2857142857143</ele><time>2026-03-29T12:12:24.634Z</time></trkpt><trkpt lat="45.7082066" lon="9.6456821"><ele>326.0</ele><time>2026-03-29T12:12:28.613Z</time></trkpt><trkpt lat="45.708138" lon="9.6456345"><ele>326.0</ele><time>2026-03-29T12:12:32.613Z</time></trkpt><trkpt lat="45.7080663" lon="9.6455864"><ele>326.0</ele><time>2026-03-29T12:12:36.613Z</time></trkpt><trkpt lat="45.7079918" lon="9.6455381"><ele>326.0</ele><time>2026-03-29T12:12:40.613Z</time></trkpt><trkpt lat="45.7079177" lon="9.6455032"><ele>326.0</ele><time>2026-03-29T12:12:44.529Z</time></trkpt><trkpt lat="45.7078549" lon="9.6454924"><ele>326.0</ele><time>2026-03-29T12:12:47.596Z</time></trkpt><trkpt lat="45.7077717" lon="9.6454906"><ele>326.0</ele><time>2026-03-29T12:12:51.613Z</time></trkpt><trkpt lat="45.7077082" lon="9.64549"><ele>326.0</ele><time>2026-03-29T12:12:54.612Z</time></trkpt><trkpt lat="45.7076273" lon="9.6454987"><ele>328.83333333333337</ele><time>2026-03-29T12:12:58.648Z</time></trkpt><trkpt lat="45.7075604" lon="9.645511"><ele>331.6666666666667</ele><time>2026-03-29T12:13:01.612Z</time></trkpt><trkpt lat="45.7074947" lon="9.6455022"><ele>334.5</ele><time>2026-03-29T12:13:04.613Z</time></trkpt><trkpt lat="45.7073789" lon="9.6455238"><ele>337.3333333333333</ele><time>2026-03-29T12:13:07.613Z</time></trkpt><trkpt lat="45.7073237" lon="9.6455742"><ele>340.16666666666663</ele><time>2026-03-29T12:13:10.613Z</time></trkpt><trkpt lat="45.7072548" lon="9.6456241"><ele>343.0</ele><time>2026-03-29T12:13:13.613Z</time></trkpt><trkpt lat="45.7071929" lon="9.6456788"><ele>343.0</ele><time>2026-03-29T12:13:16.613Z</time></trkpt><trkpt lat="45.707113" lon="9.6457303"><ele>343.0</ele><time>2026-03-29T12:13:22.613Z</time></trkpt><trkpt lat="45.7070353" lon="9.645782"><ele>343.0</ele><time>2026-03-29T12:13:25.613Z</time></trkpt><trkpt lat="45.7069731" lon="9.6458293"><ele>343.0</ele><time>2026-03-29T12:13:27.613Z</time></trkpt><trkpt lat="45.7068058" lon="9.645909"><ele>343.0</ele><time>2026-03-29T12:13:28.613Z</time></trkpt><trkpt lat="45.7067289" lon="9.6459268"><ele>343.66666666666663</ele><time>2026-03-29T12:13:30.613Z</time></trkpt><trkpt lat="45.7065766" lon="9.6458893"><ele>344.3333333333333</ele><time>2026-03-29T12:13:39.613Z</time></trkpt><trkpt lat="45.70651" lon="9.64589"><ele>345.0</ele><time>2026-03-29T12:13:42.613Z</time></trkpt><trkpt lat="45.7064386" lon="9.6458809"><ele>345.6666666666667</ele><time>2026-03-29T12:13:45.613Z</time></trkpt><trkpt lat="45.7063736" lon="9.6458833"><ele>346.33333333333337</ele><time>2026-03-29T12:13:48.613Z</time></trkpt><trkpt lat="45.7063028" lon="9.6458917"><ele>347.0</ele><time>2026-03-29T12:13:52.613Z</time></trkpt><trkpt lat="45.7062365" lon="9.6459015"><ele>347.0</ele><time>2026-03-29T12:13:55.613Z</time></trkpt><trkpt lat="45.706154" lon="9.6459132"><ele>347.0</ele><time>2026-03-29T12:13:59.613Z</time></trkpt><trkpt lat="45.7060763" lon="9.6459069"><ele>347.0</ele><time>2026-03-29T12:14:04.613Z</time></trkpt><trkpt lat="45.7060009" lon="9.645905"><ele>347.0</ele><time>2026-03-29T12:14:08.613Z</time></trkpt><trkpt lat="45.7059334" lon="9.6458993"><ele>347.0</ele><time>2026-03-29T12:14:12.613Z</time></trkpt><trkpt lat="45.705865" lon="9.6458796"><ele>347.0</ele><time>2026-03-29T12:14:18.613Z</time></trkpt><trkpt lat="45.7057916" lon="9.6458274"><ele>349.0</ele><time>2026-03-29T12:14:22.613Z</time></trkpt><trkpt lat="45.7056863" lon="9.6457428"><ele>351.0</ele><time>2026-03-29T12:14:25.612Z</time></trkpt><trkpt lat="45.7056237" lon="9.6457068"><ele>353.0</ele><time>2026-03-29T12:14:28.613Z</time></trkpt><trkpt lat="45.70556" lon="9.6456748"><ele>355.0</ele><time>2026-03-29T12:14:31.613Z</time></trkpt><trkpt lat="45.7054991" lon="9.645636"><ele>357.0</ele><time>2026-03-29T12:14:34.613Z</time></trkpt><trkpt lat="45.705416" lon="9.6456062"><ele>359.0</ele><time>2026-03-29T12:14:38.613Z</time></trkpt><trkpt lat="45.7053366" lon="9.6455762"><ele>359.0</ele><time>2026-03-29T12:14:42.613Z</time></trkpt><trkpt lat="45.7052628" lon="9.645554"><ele>359.0</ele><time>2026-03-29T12:14:46.613Z</time></trkpt><trkpt lat="45.7051988" lon="9.6455548"><ele>359.0</ele><time>2026-03-29T12:14:50.613Z</time></trkpt><trkpt lat="45.7051318" lon="9.6454983"><ele>359.0</ele><time>2026-03-29T12:14:56.612Z</time></trkpt><trkpt lat="45.7050841" lon="9.6454181"><ele>359.0</ele><time>2026-03-29T12:15:00.613Z</time></trkpt><trkpt lat="45.7050388" lon="9.645349"><ele>359.0</ele><time>2026-03-29T12:15:03.613Z</time></trkpt><trkpt lat="45.7050185" lon="9.6452259"><ele>359.0</ele><time>2026-03-29T12:15:06.613Z</time></trkpt><trkpt lat="45.7049667" lon="9.645132"><ele>359.83333333333337</ele><time>2026-03-29T12:15:09.612Z</time></trkpt><trkpt lat="45.7049415" lon="9.6452266"><ele>360.6666666666667</ele><time>2026-03-29T12:15:21.613Z</time></trkpt><trkpt lat="45.7049028" lon="9.6453349"><ele>361.5</ele><time>2026-03-29T12:15:24.613Z</time></trkpt><trkpt lat="45.7048665" lon="9.6454092"><ele>362.3333333333333</ele><time>2026-03-29T12:15:26.613Z</time></trkpt><trkpt lat="45.7048186" lon="9.6455019"><ele>363.16666666666663</ele><time>2026-03-29T12:15:29.612Z</time></trkpt><trkpt lat="45.7047517" lon="9.6455596"><ele>364.0</ele><time>2026-03-29T12:15:34.613Z</time></trkpt><trkpt lat="45.7047224" lon="9.6456748"><ele>366.3333333333333</ele><time>2026-03-29T12:15:37.613Z</time></trkpt><trkpt lat="45.7047286" lon="9.6457771"><ele>368.66666666666663</ele><time>2026-03-29T12:15:39.613Z</time></trkpt><trkpt lat="45.7047382" lon="9.6458726"><ele>371.0</ele><time>2026-03-29T12:15:41.612Z</time></trkpt><trkpt lat="45.70472" lon="9.6460077"><ele>373.3333333333333</ele><time>2026-03-29T12:15:44.613Z</time></trkpt><trkpt lat="45.7046975" lon="9.6461065"><ele>375.6666666666667</ele><time>2026-03-29T12:15:46.613Z</time></trkpt><trkpt lat="45.7047122" lon="9.6462257"><ele>378.0</ele><time>2026-03-29T12:15:49.613Z</time></trkpt><trkpt lat="45.7047309" lon="9.6463293"><ele>379.5</ele><time>2026-03-29T12:15:52.613Z</time></trkpt><trkpt lat="45.7047602" lon="9.6464369"><ele>381.0</ele><time>2026-03-29T12:15:55.613Z</time></trkpt><trkpt lat="45.7047746" lon="9.6465565"><ele>382.5</ele><time>2026-03-29T12:15:58.613Z</time></trkpt><trkpt lat="45.7047754" lon="9.6466714"><ele>384.0</ele><time>2026-03-29T12:16:01.613Z</time></trkpt><trkpt lat="45.7047739" lon="9.64679"><ele>385.5</ele><time>2026-03-29T12:16:04.613Z</time></trkpt><trkpt lat="45.7048042" lon="9.6468813"><ele>387.0</ele><time>2026-03-29T12:16:07.613Z</time></trkpt><trkpt lat="45.7048251" lon="9.6470196"><ele>388.8333333333333</ele><time>2026-03-29T12:16:10.613Z</time></trkpt><trkpt lat="45.7048463" lon="9.6471136"><ele>390.66666666666663</ele><time>2026-03-29T12:16:12.613Z</time></trkpt><trkpt lat="45.7048169" lon="9.6472159"><ele>392.5</ele><time>2026-03-29T12:16:14.613Z</time></trkpt><trkpt lat="45.7047974" lon="9.647306"><ele>394.3333333333333</ele><time>2026-03-29T12:16:16.612Z</time></trkpt><trkpt lat="45.7047811" lon="9.647404"><ele>396.16666666666663</ele><time>2026-03-29T12:16:18.613Z</time></trkpt><trkpt lat="45.7047717" lon="9.6475013"><ele>398.0</ele><time>2026-03-29T12:16:20.613Z</time></trkpt><trkpt lat="45.704769" lon="9.6473278"><ele>398.0</ele><time>2026-03-29T12:16:21.613Z</time></trkpt><trkpt lat="45.7047537" lon="9.6472372"><ele>398.0</ele><time>2026-03-29T12:16:24.613Z</time></trkpt><trkpt lat="45.7047293" lon="9.6473433"><ele>398.0</ele><time>2026-03-29T12:16:31.613Z</time></trkpt><trkpt lat="45.7047042" lon="9.6474334"><ele>398.0</ele><time>2026-03-29T12:16:33.613Z</time></trkpt><trkpt lat="45.7046393" lon="9.648464"><ele>397.2</ele><time>2026-03-29T12:16:35.613Z</time></trkpt><trkpt lat="45.7047483" lon="9.6486182"><ele>396.4</ele><time>2026-03-29T12:16:41.613Z</time></trkpt><trkpt lat="45.7048177" lon="9.6486643"><ele>395.59999999999997</ele><time>2026-03-29T12:16:43.613Z</time></trkpt><trkpt lat="45.7048831" lon="9.6487269"><ele>394.79999999999995</ele><time>2026-03-29T12:16:45.613Z</time></trkpt><trkpt lat="45.7049495" lon="9.6487522"><ele>394.0</ele><time>2026-03-29T12:16:47.613Z</time></trkpt><trkpt lat="45.7050411" lon="9.6487715"><ele>391.2</ele><time>2026-03-29T12:16:49.613Z</time></trkpt><trkpt lat="45.7051348" lon="9.6487846"><ele>388.4</ele><time>2026-03-29T12:16:51.613Z</time></trkpt><trkpt lat="45.7052253" lon="9.6487918"><ele>385.6</ele><time>2026-03-29T12:16:53.613Z</time></trkpt><trkpt lat="45.7053317" lon="9.6488077"><ele>382.8</ele><time>2026-03-29T12:16:55.613Z</time></trkpt><trkpt lat="45.7054189" lon="9.6488242"><ele>380.0</ele><time>2026-03-29T12:16:57.613Z</time></trkpt><trkpt lat="45.7055678" lon="9.6488133"><ele>380.0</ele><time>2026-03-29T12:17:00.613Z</time></trkpt><trkpt lat="45.7056834" lon="9.6488422"><ele>380.0</ele><time>2026-03-29T12:17:02.613Z</time></trkpt><trkpt lat="45.7057733" lon="9.6488589"><ele>380.0</ele><time>2026-03-29T12:17:04.613Z</time></trkpt><trkpt lat="45.7059079" lon="9.6489544"><ele>380.0</ele><time>2026-03-29T12:17:06.613Z</time></trkpt><trkpt lat="45.7059859" lon="9.6490322"><ele>380.0</ele><time>2026-03-29T12:17:07.613Z</time></trkpt><trkpt lat="45.7060778" lon="9.6490861"><ele>380.0</ele><time>2026-03-29T12:17:09.613Z</time></trkpt><trkpt lat="45.7061646" lon="9.6492302"><ele>380.0</ele><time>2026-03-29T12:17:11.613Z</time></trkpt><trkpt lat="45.7062015" lon="9.6493051"><ele>380.0</ele><time>2026-03-29T12:17:12.613Z</time></trkpt><trkpt lat="45.7062355" lon="9.6493921"><ele>380.0</ele><time>2026-03-29T12:17:13.613Z</time></trkpt><trkpt lat="45.7062551" lon="9.6494925"><ele>380.0</ele><time>2026-03-29T12:17:14.613Z</time></trkpt><trkpt lat="45.7062675" lon="9.64959"><ele>380.8</ele><time>2026-03-29T12:17:15.613Z</time></trkpt><trkpt lat="45.706301" lon="9.6497644"><ele>381.6</ele><time>2026-03-29T12:17:17.613Z</time></trkpt><trkpt lat="45.7063257" lon="9.6498506"><ele>382.4</ele><time>2026-03-29T12:17:18.613Z</time></trkpt><trkpt lat="45.7063608" lon="9.6500117"><ele>383.2</ele><time>2026-03-29T12:17:20.613Z</time></trkpt><trkpt lat="45.706425" lon="9.6501524"><ele>384.0</ele><time>2026-03-29T12:17:22.613Z</time></trkpt><trkpt lat="45.7064966" lon="9.6502928"><ele>384.0</ele><time>2026-03-29T12:17:24.613Z</time></trkpt><trkpt lat="45.7065426" lon="9.6504323"><ele>384.0</ele><time>2026-03-29T12:17:26.613Z</time></trkpt><trkpt lat="45.7065756" lon="9.6505158"><ele>384.0</ele><time>2026-03-29T12:17:27.613Z</time></trkpt><trkpt lat="45.7066094" lon="9.6506593"><ele>384.0</ele><time>2026-03-29T12:17:29.613Z</time></trkpt><trkpt lat="45.7066339" lon="9.6507457"><ele>384.0</ele><time>2026-03-29T12:17:30.613Z</time></trkpt><trkpt lat="45.7066573" lon="9.6508335"><ele>384.0</ele><time>2026-03-29T12:17:31.613Z</time></trkpt><trkpt lat="45.7066997" lon="9.6509836"><ele>386.0</ele><time>2026-03-29T12:17:33.613Z</time></trkpt><trkpt lat="45.7067432" lon="9.6511297"><ele>388.0</ele><time>2026-03-29T12:17:35.613Z</time></trkpt><trkpt lat="45.7068009" lon="9.6512766"><ele>390.0</ele><time>2026-03-29T12:17:37.613Z</time></trkpt><trkpt lat="45.706865" lon="9.6514101"><ele>392.0</ele><time>2026-03-29T12:17:39.613Z</time></trkpt><trkpt lat="45.7069409" lon="9.6515148"><ele>394.0</ele><time>2026-03-29T12:17:41.613Z</time></trkpt><trkpt lat="45.7070228" lon="9.6515899"><ele>394.0</ele><time>2026-03-29T12:17:43.613Z</time></trkpt><trkpt lat="45.7071125" lon="9.6516663"><ele>394.0</ele><time>2026-03-29T12:17:45.613Z</time></trkpt><trkpt lat="45.7071962" lon="9.6517505"><ele>394.0</ele><time>2026-03-29T12:17:47.613Z</time></trkpt><trkpt lat="45.7072836" lon="9.6518733"><ele>394.0</ele><time>2026-03-29T12:17:49.613Z</time></trkpt><trkpt lat="45.7073625" lon="9.652002"><ele>394.0</ele><time>2026-03-29T12:17:51.613Z</time></trkpt><trkpt lat="45.7074062" lon="9.6520682"><ele>391.6</ele><time>2026-03-29T12:17:52.613Z</time></trkpt><trkpt lat="45.7074383" lon="9.6522195"><ele>389.2</ele><time>2026-03-29T12:17:54.613Z</time></trkpt><trkpt lat="45.7074851" lon="9.6523507"><ele>386.8</ele><time>2026-03-29T12:17:56.613Z</time></trkpt><trkpt lat="45.7075019" lon="9.6524952"><ele>384.40000000000003</ele><time>2026-03-29T12:17:58.613Z</time></trkpt><trkpt lat="45.7075325" lon="9.65264"><ele>382.0</ele><time>2026-03-29T12:18:00.613Z</time></trkpt><trkpt lat="45.7075647" lon="9.6527758"><ele>381.66666666666663</ele><time>2026-03-29T12:18:02.613Z</time></trkpt><trkpt lat="45.7075657" lon="9.6528735"><ele>381.3333333333333</ele><time>2026-03-29T12:18:03.612Z</time></trkpt><trkpt lat="45.7075839" lon="9.6529864"><ele>381.0</ele><time>2026-03-29T12:18:05.613Z</time></trkpt><trkpt lat="45.7075939" lon="9.6531275"><ele>380.6666666666667</ele><time>2026-03-29T12:18:07.612Z</time></trkpt><trkpt lat="45.7075954" lon="9.6532636"><ele>380.33333333333337</ele><time>2026-03-29T12:18:09.613Z</time></trkpt><trkpt lat="45.7075926" lon="9.6534065"><ele>380.0</ele><time>2026-03-29T12:18:11.613Z</time></trkpt><trkpt lat="45.7075716" lon="9.6535274"><ele>381.2</ele><time>2026-03-29T12:18:13.613Z</time></trkpt><trkpt lat="45.7075557" lon="9.6536587"><ele>382.4</ele><time>2026-03-29T12:18:15.613Z</time></trkpt><trkpt lat="45.7075384" lon="9.653787"><ele>383.6</ele><time>2026-03-29T12:18:17.613Z</time></trkpt><trkpt lat="45.7075219" lon="9.6539169"><ele>384.8</ele><time>2026-03-29T12:18:19.612Z</time></trkpt><trkpt lat="45.7074993" lon="9.6540518"><ele>386.0</ele><time>2026-03-29T12:18:21.613Z</time></trkpt><trkpt lat="45.707474" lon="9.6541888"><ele>386.0</ele><time>2026-03-29T12:18:23.612Z</time></trkpt><trkpt lat="45.7074422" lon="9.6543377"><ele>386.0</ele><time>2026-03-29T12:18:25.613Z</time></trkpt><trkpt lat="45.7074074" lon="9.6544803"><ele>386.0</ele><time>2026-03-29T12:18:27.613Z</time></trkpt><trkpt lat="45.7073627" lon="9.6546336"><ele>386.0</ele><time>2026-03-29T12:18:29.613Z</time></trkpt><trkpt lat="45.7073217" lon="9.6547884"><ele>386.0</ele><time>2026-03-29T12:18:31.613Z</time></trkpt><trkpt lat="45.7072784" lon="9.6549409"><ele>387.8</ele><time>2026-03-29T12:18:33.613Z</time></trkpt><trkpt lat="45.7072366" lon="9.6550659"><ele>389.6</ele><time>2026-03-29T12:18:35.613Z</time></trkpt><trkpt lat="45.7071814" lon="9.6552067"><ele>391.4</ele><time>2026-03-29T12:18:37.613Z</time></trkpt><trkpt lat="45.7071251" lon="9.6553543"><ele>393.2</ele><time>2026-03-29T12:18:39.612Z</time></trkpt><trkpt lat="45.7070709" lon="9.6555013"><ele>395.0</ele><time>2026-03-29T12:18:41.613Z</time></trkpt><trkpt lat="45.7070131" lon="9.6556535"><ele>395.8</ele><time>2026-03-29T12:18:43.613Z</time></trkpt><trkpt lat="45.7069567" lon="9.6558013"><ele>396.6</ele><time>2026-03-29T12:18:45.613Z</time></trkpt><trkpt lat="45.7069006" lon="9.6559311"><ele>397.4</ele><time>2026-03-29T12:18:47.613Z</time></trkpt><trkpt lat="45.7068554" lon="9.6560442"><ele>398.2</ele><time>2026-03-29T12:18:49.613Z</time></trkpt><trkpt lat="45.7068163" lon="9.6561848"><ele>399.0</ele><time>2026-03-29T12:18:52.613Z</time></trkpt><trkpt lat="45.7067641" lon="9.6562691"><ele>395.2</ele><time>2026-03-29T12:18:54.613Z</time></trkpt><trkpt lat="45.706705" lon="9.656363"><ele>391.4</ele><time>2026-03-29T12:18:56.613Z</time></trkpt><trkpt lat="45.7066474" lon="9.6564567"><ele>387.6</ele><time>2026-03-29T12:18:58.613Z</time></trkpt><trkpt lat="45.7065749" lon="9.6565551"><ele>383.8</ele><time>2026-03-29T12:19:00.613Z</time></trkpt><trkpt lat="45.7065092" lon="9.6566544"><ele>380.0</ele><time>2026-03-29T12:19:02.613Z</time></trkpt><trkpt lat="45.706426" lon="9.6567545"><ele>380.0</ele><time>2026-03-29T12:19:04.612Z</time></trkpt><trkpt lat="45.7063492" lon="9.6568504"><ele>380.0</ele><time>2026-03-29T12:19:06.613Z</time></trkpt><trkpt lat="45.7062892" lon="9.6568982"><ele>380.0</ele><time>2026-03-29T12:19:08.613Z</time></trkpt><trkpt lat="45.7062698" lon="9.6570139"><ele>380.0</ele><time>2026-03-29T12:19:11.613Z</time></trkpt><trkpt lat="45.7062981" lon="9.6571342"><ele>380.0</ele><time>2026-03-29T12:19:13.613Z</time></trkpt><trkpt lat="45.7063199" lon="9.6572527"><ele>380.0</ele><time>2026-03-29T12:19:15.612Z</time></trkpt><trkpt lat="45.706359" lon="9.6573638"><ele>378.8</ele><time>2026-03-29T12:19:17.612Z</time></trkpt><trkpt lat="45.7063927" lon="9.6574748"><ele>377.6</ele><time>2026-03-29T12:19:19.613Z</time></trkpt><trkpt lat="45.7064228" lon="9.6575714"><ele>376.4</ele><time>2026-03-29T12:19:21.613Z</time></trkpt><trkpt lat="45.7064609" lon="9.6576579"><ele>375.2</ele><time>2026-03-29T12:19:23.613Z</time></trkpt><trkpt lat="45.7064995" lon="9.6577692"><ele>374.0</ele><time>2026-03-29T12:19:26.613Z</time></trkpt><trkpt lat="45.7065678" lon="9.6580174"><ele>373.33333333333337</ele><time>2026-03-29T12:19:32.607Z</time></trkpt><trkpt lat="45.7065819" lon="9.6581397"><ele>372.6666666666667</ele><time>2026-03-29T12:19:35.611Z</time></trkpt><trkpt lat="45.7066431" lon="9.6581796"><ele>372.0</ele><time>2026-03-29T12:19:40.609Z</time></trkpt><trkpt lat="45.7067207" lon="9.6581523"><ele>371.3333333333333</ele><time>2026-03-29T12:19:42.609Z</time></trkpt><trkpt lat="45.7067957" lon="9.658122"><ele>370.66666666666663</ele><time>2026-03-29T12:19:44.61Z</time></trkpt><trkpt lat="45.7068605" lon="9.658096"><ele>370.0</ele><time>2026-03-29T12:19:46.61Z</time></trkpt><trkpt lat="45.7069461" lon="9.6580645"><ele>371.66666666666663</ele><time>2026-03-29T12:19:49.61Z</time></trkpt><trkpt lat="45.7070291" lon="9.6580495"><ele>373.3333333333333</ele><time>2026-03-29T12:19:52.61Z</time></trkpt><trkpt lat="45.7071123" lon="9.6580759"><ele>375.0</ele><time>2026-03-29T12:19:55.61Z</time></trkpt><trkpt lat="45.7071783" lon="9.658122"><ele>376.6666666666667</ele><time>2026-03-29T12:19:58.61Z</time></trkpt><trkpt lat="45.7072338" lon="9.6581989"><ele>378.33333333333337</ele><time>2026-03-29T12:20:01.61Z</time></trkpt><trkpt lat="45.7072858" lon="9.6582729"><ele>380.0</ele><time>2026-03-29T12:20:04.61Z</time></trkpt><trkpt lat="45.7073385" lon="9.6583441"><ele>380.0</ele><time>2026-03-29T12:20:07.61Z</time></trkpt><trkpt lat="45.707389" lon="9.6584079"><ele>380.0</ele><time>2026-03-29T12:20:10.61Z</time></trkpt><trkpt lat="45.7074396" lon="9.6584851"><ele>380.0</ele><time>2026-03-29T12:20:13.61Z</time></trkpt><trkpt lat="45.7074917" lon="9.658567"><ele>380.0</ele><time>2026-03-29T12:20:16.609Z</time></trkpt><trkpt lat="45.7075372" lon="9.6586428"><ele>380.0</ele><time>2026-03-29T12:20:19.61Z</time></trkpt><trkpt lat="45.7075823" lon="9.6587152"><ele>380.0</ele><time>2026-03-29T12:20:22.61Z</time></trkpt><trkpt lat="45.707637" lon="9.6587973"><ele>380.0</ele><time>2026-03-29T12:20:25.61Z</time></trkpt><trkpt lat="45.7076932" lon="9.6588737"><ele>380.42857142857144</ele><time>2026-03-29T12:20:28.61Z</time></trkpt><trkpt lat="45.7077416" lon="9.6589473"><ele>380.8571428571429</ele><time>2026-03-29T12:20:30.61Z</time></trkpt><trkpt lat="45.7077999" lon="9.6590042"><ele>381.2857142857143</ele><time>2026-03-29T12:20:32.61Z</time></trkpt><trkpt lat="45.7078839" lon="9.6590454"><ele>381.7142857142857</ele><time>2026-03-29T12:20:36.61Z</time></trkpt><trkpt lat="45.7079393" lon="9.6590883"><ele>382.1428571428571</ele><time>2026-03-29T12:20:38.61Z</time></trkpt><trkpt lat="45.7080011" lon="9.6591076"><ele>382.57142857142856</ele><time>2026-03-29T12:20:40.61Z</time></trkpt><trkpt lat="45.7080453" lon="9.6591804"><ele>383.0</ele><time>2026-03-29T12:20:42.61Z</time></trkpt><trkpt lat="45.708137" lon="9.6591805"><ele>383.0</ele><time>2026-03-29T12:20:45.61Z</time></trkpt><trkpt lat="45.7082207" lon="9.6591451"><ele>383.0</ele><time>2026-03-29T12:20:48.61Z</time></trkpt><trkpt lat="45.7082947" lon="9.6590704"><ele>383.0</ele><time>2026-03-29T12:20:51.61Z</time></trkpt><trkpt lat="45.708351" lon="9.6589976"><ele>383.0</ele><time>2026-03-29T12:20:53.61Z</time></trkpt><trkpt lat="45.7084068" lon="9.6589312"><ele>383.0</ele><time>2026-03-29T12:20:55.61Z</time></trkpt><trkpt lat="45.708482" lon="9.6588595"><ele>383.0</ele><time>2026-03-29T12:20:57.61Z</time></trkpt><trkpt lat="45.7085833" lon="9.658823"><ele>382.59999999999997</ele><time>2026-03-29T12:20:59.61Z</time></trkpt><trkpt lat="45.7086845" lon="9.6588176"><ele>382.2</ele><time>2026-03-29T12:21:01.61Z</time></trkpt><trkpt lat="45.7087898" lon="9.6588617"><ele>381.8</ele><time>2026-03-29T12:21:03.61Z</time></trkpt><trkpt lat="45.7089033" lon="9.6589355"><ele>381.4</ele><time>2026-03-29T12:21:05.609Z</time></trkpt><trkpt lat="45.7090047" lon="9.658989"><ele>381.0</ele><time>2026-03-29T12:21:07.61Z</time></trkpt><trkpt lat="45.7091" lon="9.6590358"><ele>381.0</ele><time>2026-03-29T12:21:09.61Z</time></trkpt><trkpt lat="45.7092177" lon="9.6590442"><ele>381.0</ele><time>2026-03-29T12:21:11.609Z</time></trkpt><trkpt lat="45.7093245" lon="9.6590069"><ele>381.0</ele><time>2026-03-29T12:21:13.61Z</time></trkpt><trkpt lat="45.7094091" lon="9.6589166"><ele>381.0</ele><time>2026-03-29T12:21:15.61Z</time></trkpt><trkpt lat="45.7094543" lon="9.6587835"><ele>381.0</ele><time>2026-03-29T12:21:17.61Z</time></trkpt><trkpt lat="45.7094827" lon="9.6586453"><ele>378.75</ele><time>2026-03-29T12:21:19.61Z</time></trkpt><trkpt lat="45.7094932" lon="9.6584983"><ele>376.5</ele><time>2026-03-29T12:21:21.61Z</time></trkpt><trkpt lat="45.7095137" lon="9.6583381"><ele>374.25</ele><time>2026-03-29T12:21:23.61Z</time></trkpt><trkpt lat="45.7095332" lon="9.6581755"><ele>372.0</ele><time>2026-03-29T12:21:25.61Z</time></trkpt><trkpt lat="45.7095484" lon="9.6579972"><ele>372.0</ele><time>2026-03-29T12:21:27.61Z</time></trkpt><trkpt lat="45.7095549" lon="9.6578816"><ele>372.0</ele><time>2026-03-29T12:21:28.609Z</time></trkpt><trkpt lat="45.7095346" lon="9.6577314"><ele>372.0</ele><time>2026-03-29T12:21:30.61Z</time></trkpt><trkpt lat="45.7095188" lon="9.6575943"><ele>372.0</ele><time>2026-03-29T12:21:32.61Z</time></trkpt><trkpt lat="45.7095053" lon="9.6574384"><ele>372.0</ele><time>2026-03-29T12:21:34.61Z</time></trkpt><trkpt lat="45.7094802" lon="9.6572434"><ele>372.0</ele><time>2026-03-29T12:21:36.61Z</time></trkpt><trkpt lat="45.709465" lon="9.6571481"><ele>372.0</ele><time>2026-03-29T12:21:37.61Z</time></trkpt><trkpt lat="45.7094581" lon="9.6570514"><ele>372.0</ele><time>2026-03-29T12:21:38.609Z</time></trkpt><trkpt lat="45.7094797" lon="9.6569033"><ele>372.0</ele><time>2026-03-29T12:21:40.61Z</time></trkpt><trkpt lat="45.7095199" lon="9.6567925"><ele>372.0</ele><time>2026-03-29T12:21:42.61Z</time></trkpt><trkpt lat="45.7095713" lon="9.6567167"><ele>372.0</ele><time>2026-03-29T12:21:44.61Z</time></trkpt><trkpt lat="45.7096288" lon="9.6566267"><ele>372.00000000000006</ele><time>2026-03-29T12:21:47.61Z</time></trkpt><trkpt lat="45.7096637" lon="9.6565501"><ele>372.0</ele><time>2026-03-29T12:21:49.61Z</time></trkpt><trkpt lat="45.7096818" lon="9.6564563"><ele>372.0</ele><time>2026-03-29T12:21:51.61Z</time></trkpt><trkpt lat="45.7096821" lon="9.6563426"><ele>372.0</ele><time>2026-03-29T12:21:54.609Z</time></trkpt><trkpt lat="45.709659" lon="9.6562417"><ele>372.0</ele><time>2026-03-29T12:21:57.61Z</time></trkpt><trkpt lat="45.7096466" lon="9.6561515"><ele>372.00000000000006</ele><time>2026-03-29T12:21:59.61Z</time></trkpt><trkpt lat="45.7096448" lon="9.6560438"><ele>372.0</ele><time>2026-03-29T12:22:02.61Z</time></trkpt><trkpt lat="45.7096494" lon="9.6559182"><ele>373.1666666666667</ele><time>2026-03-29T12:22:05.61Z</time></trkpt><trkpt lat="45.709657" lon="9.6557928"><ele>374.3333333333333</ele><time>2026-03-29T12:22:08.61Z</time></trkpt><trkpt lat="45.7096823" lon="9.6556812"><ele>375.5</ele><time>2026-03-29T12:22:11.61Z</time></trkpt><trkpt lat="45.7097064" lon="9.6555798"><ele>376.66666666666663</ele><time>2026-03-29T12:22:14.61Z</time></trkpt><trkpt lat="45.7097192" lon="9.6554847"><ele>377.8333333333333</ele><time>2026-03-29T12:22:17.61Z</time></trkpt><trkpt lat="45.7097299" lon="9.6553661"><ele>379.0</ele><time>2026-03-29T12:22:20.609Z</time></trkpt><trkpt lat="45.7097349" lon="9.6552679"><ele>380.5</ele><time>2026-03-29T12:22:23.61Z</time></trkpt><trkpt lat="45.7097466" lon="9.6551597"><ele>382.0</ele><time>2026-03-29T12:22:26.61Z</time></trkpt><trkpt lat="45.7097798" lon="9.6550277"><ele>383.5</ele><time>2026-03-29T12:22:29.61Z</time></trkpt><trkpt lat="45.7098182" lon="9.6549051"><ele>385.0</ele><time>2026-03-29T12:22:32.609Z</time></trkpt><trkpt lat="45.7098434" lon="9.6548224"><ele>386.50000000000006</ele><time>2026-03-29T12:22:34.61Z</time></trkpt><trkpt lat="45.7098817" lon="9.6547053"><ele>388.0</ele><time>2026-03-29T12:22:37.61Z</time></trkpt><trkpt lat="45.7099114" lon="9.6546174"><ele>388.00000000000006</ele><time>2026-03-29T12:22:39.61Z</time></trkpt><trkpt lat="45.7099571" lon="9.6545013"><ele>388.0</ele><time>2026-03-29T12:22:42.61Z</time></trkpt><trkpt lat="45.7099993" lon="9.6543931"><ele>388.0</ele><time>2026-03-29T12:22:45.61Z</time></trkpt><trkpt lat="45.710046" lon="9.654308"><ele>388.0</ele><time>2026-03-29T12:22:48.61Z</time></trkpt><trkpt lat="45.7100793" lon="9.6542038"><ele>388.00000000000006</ele><time>2026-03-29T12:22:51.61Z</time></trkpt><trkpt lat="45.710075" lon="9.6541011"><ele>388.0</ele><time>2026-03-29T12:22:53.61Z</time></trkpt><trkpt lat="45.7100187" lon="9.6540269"><ele>388.0</ele><time>2026-03-29T12:22:56.609Z</time></trkpt><trkpt lat="45.7099344" lon="9.6540646"><ele>388.0</ele><time>2026-03-29T12:22:59.61Z</time></trkpt><trkpt lat="45.7098977" lon="9.6541383"><ele>388.0</ele><time>2026-03-29T12:23:02.61Z</time></trkpt><trkpt lat="45.7098683" lon="9.6542208"><ele>388.0</ele><time>2026-03-29T12:23:05.609Z</time></trkpt><trkpt lat="45.7098412" lon="9.6543063"><ele>388.0</ele><time>2026-03-29T12:23:08.61Z</time></trkpt><trkpt lat="45.7098061" lon="9.6544032"><ele>388.0</ele><time>2026-03-29T12:23:11.61Z</time></trkpt><trkpt lat="45.7097391" lon="9.6544644"><ele>388.0</ele><time>2026-03-29T12:23:14.61Z</time></trkpt><trkpt lat="45.7096666" lon="9.6545009"><ele>388.00000000000006</ele><time>2026-03-29T12:23:17.61Z</time></trkpt><trkpt lat="45.7096081" lon="9.6545848"><ele>388.0</ele><time>2026-03-29T12:23:21.61Z</time></trkpt><trkpt lat="45.7095528" lon="9.6546532"><ele>388.0</ele><time>2026-03-29T12:23:24.61Z</time></trkpt><trkpt lat="45.7095048" lon="9.6547374"><ele>388.0</ele><time>2026-03-29T12:23:27.61Z</time></trkpt><trkpt lat="45.7094694" lon="9.6548507"><ele>388.00000000000006</ele><time>2026-03-29T12:23:30.61Z</time></trkpt><trkpt lat="45.7094454" lon="9.6549349"><ele>388.0</ele><time>2026-03-29T12:23:32.61Z</time></trkpt><trkpt lat="45.7094199" lon="9.6550332"><ele>391.0</ele><time>2026-03-29T12:23:35.61Z</time></trkpt><trkpt lat="45.7094008" lon="9.655125"><ele>394.0</ele><time>2026-03-29T12:23:38.61Z</time></trkpt><trkpt lat="45.7093678" lon="9.6552199"><ele>397.0</ele><time>2026-03-29T12:23:41.61Z</time></trkpt><trkpt lat="45.7093253" lon="9.6553088"><ele>400.0</ele><time>2026-03-29T12:23:44.61Z</time></trkpt><trkpt lat="45.7092733" lon="9.6553891"><ele>403.0</ele><time>2026-03-29T12:23:47.61Z</time></trkpt><trkpt lat="45.7092359" lon="9.6554685"><ele>406.0</ele><time>2026-03-29T12:23:50.61Z</time></trkpt><trkpt lat="45.7091857" lon="9.6555554"><ele>409.0</ele><time>2026-03-29T12:23:53.61Z</time></trkpt><trkpt lat="45.709125" lon="9.6556361"><ele>409.00000000000006</ele><time>2026-03-29T12:23:56.609Z</time></trkpt><trkpt lat="45.7090738" lon="9.6557167"><ele>409.0</ele><time>2026-03-29T12:23:59.609Z</time></trkpt><trkpt lat="45.7090229" lon="9.6558027"><ele>409.0</ele><time>2026-03-29T12:24:02.61Z</time></trkpt><trkpt lat="45.7089645" lon="9.6558938"><ele>409.0</ele><time>2026-03-29T12:24:05.609Z</time></trkpt><trkpt lat="45.7089269" lon="9.6559764"><ele>409.00000000000006</ele><time>2026-03-29T12:24:08.61Z</time></trkpt><trkpt lat="45.7088884" lon="9.6560522"><ele>409.0</ele><time>2026-03-29T12:24:11.61Z</time></trkpt><trkpt lat="45.7088369" lon="9.6561318"><ele>409.00000000000006</ele><time>2026-03-29T12:24:15.61Z</time></trkpt><trkpt lat="45.7087749" lon="9.6561913"><ele>409.0</ele><time>2026-03-29T12:24:18.609Z</time></trkpt><trkpt lat="45.7087005" lon="9.6562189"><ele>409.0</ele><time>2026-03-29T12:24:21.61Z</time></trkpt><trkpt lat="45.7086383" lon="9.6561536"><ele>409.0</ele><time>2026-03-29T12:24:24.61Z</time></trkpt><trkpt lat="45.7086273" lon="9.6560499"><ele>409.00000000000006</ele><time>2026-03-29T12:24:28.61Z</time></trkpt><trkpt lat="45.7086165" lon="9.6559279"><ele>409.0</ele><time>2026-03-29T12:24:31.61Z</time></trkpt><trkpt lat="45.708618" lon="9.6558356"><ele>409.00000000000006</ele><time>2026-03-29T12:24:33.61Z</time></trkpt><trkpt lat="45.7086288" lon="9.655721"><ele>409.0</ele><time>2026-03-29T12:24:36.61Z</time></trkpt><trkpt lat="45.7086423" lon="9.6555908"><ele>409.0</ele><time>2026-03-29T12:24:39.61Z</time></trkpt><trkpt lat="45.7086505" lon="9.6554626"><ele>409.0</ele><time>2026-03-29T12:24:42.61Z</time></trkpt><trkpt lat="45.7086566" lon="9.6553379"><ele>409.00000000000006</ele><time>2026-03-29T12:24:46.61Z</time></trkpt><trkpt lat="45.7086677" lon="9.6552225"><ele>409.0</ele><time>2026-03-29T12:24:49.61Z</time></trkpt><trkpt lat="45.7086831" lon="9.6551299"><ele>410.6666666666667</ele><time>2026-03-29T12:24:52.61Z</time></trkpt><trkpt lat="45.7087059" lon="9.6550443"><ele>412.33333333333337</ele><time>2026-03-29T12:24:55.61Z</time></trkpt><trkpt lat="45.7087501" lon="9.6549397"><ele>414.0</ele><time>2026-03-29T12:24:59.61Z</time></trkpt><trkpt lat="45.7087998" lon="9.6548533"><ele>415.66666666666663</ele><time>2026-03-29T12:25:02.61Z</time></trkpt><trkpt lat="45.7088601" lon="9.6547631"><ele>417.3333333333333</ele><time>2026-03-29T12:25:05.609Z</time></trkpt><trkpt lat="45.7089059" lon="9.6546736"><ele>419.0</ele><time>2026-03-29T12:25:08.61Z</time></trkpt><trkpt lat="45.7089367" lon="9.6545822"><ele>418.99999999999994</ele><time>2026-03-29T12:25:11.61Z</time></trkpt><trkpt lat="45.7089869" lon="9.6544892"><ele>419.0</ele><time>2026-03-29T12:25:14.61Z</time></trkpt><trkpt lat="45.709041" lon="9.6544044"><ele>419.0</ele><time>2026-03-29T12:25:17.61Z</time></trkpt><trkpt lat="45.7090932" lon="9.654313"><ele>419.0</ele><time>2026-03-29T12:25:20.61Z</time></trkpt><trkpt lat="45.7091537" lon="9.6542314"><ele>418.99999999999994</ele><time>2026-03-29T12:25:23.609Z</time></trkpt><trkpt lat="45.7092079" lon="9.6541487"><ele>419.0</ele><time>2026-03-29T12:25:26.609Z</time></trkpt><trkpt lat="45.7092554" lon="9.654054"><ele>420.1428571428571</ele><time>2026-03-29T12:25:29.61Z</time></trkpt><trkpt lat="45.7093" lon="9.6539596"><ele>421.2857142857143</ele><time>2026-03-29T12:25:32.609Z</time></trkpt><trkpt lat="45.7093373" lon="9.6538592"><ele>422.42857142857144</ele><time>2026-03-29T12:25:35.61Z</time></trkpt><trkpt lat="45.7093759" lon="9.6537691"><ele>423.57142857142856</ele><time>2026-03-29T12:25:38.61Z</time></trkpt><trkpt lat="45.7094086" lon="9.6536781"><ele>424.7142857142857</ele><time>2026-03-29T12:25:41.61Z</time></trkpt><trkpt lat="45.7094449" lon="9.6535983"><ele>425.85714285714283</ele><time>2026-03-29T12:25:44.61Z</time></trkpt><trkpt lat="45.7094821" lon="9.6535039"><ele>427.0</ele><time>2026-03-29T12:25:47.61Z</time></trkpt><trkpt lat="45.7095144" lon="9.6534245"><ele>427.0</ele><time>2026-03-29T12:25:50.61Z</time></trkpt><trkpt lat="45.7095485" lon="9.6533441"><ele>427.0</ele><time>2026-03-29T12:25:53.61Z</time></trkpt><trkpt lat="45.7095987" lon="9.65327"><ele>427.0</ele><time>2026-03-29T12:25:56.61Z</time></trkpt><trkpt lat="45.7096556" lon="9.6531922"><ele>427.0</ele><time>2026-03-29T12:26:00.61Z</time></trkpt><trkpt lat="45.709705" lon="9.6531336"><ele>427.0</ele><time>2026-03-29T12:26:03.61Z</time></trkpt><trkpt lat="45.7097373" lon="9.6530534"><ele>427.0</ele><time>2026-03-29T12:26:06.61Z</time></trkpt><trkpt lat="45.7097098" lon="9.6529706"><ele>427.0</ele><time>2026-03-29T12:26:09.61Z</time></trkpt><trkpt lat="45.7096458" lon="9.6529398"><ele>427.00000000000006</ele><time>2026-03-29T12:26:12.61Z</time></trkpt><trkpt lat="45.7095821" lon="9.6529933"><ele>427.0</ele><time>2026-03-29T12:26:15.61Z</time></trkpt><trkpt lat="45.7095267" lon="9.6530607"><ele>427.0</ele><time>2026-03-29T12:26:18.61Z</time></trkpt><trkpt lat="45.7094646" lon="9.6531212"><ele>427.0</ele><time>2026-03-29T12:26:22.61Z</time></trkpt><trkpt lat="45.7094018" lon="9.6531965"><ele>427.00000000000006</ele><time>2026-03-29T12:26:27.61Z</time></trkpt><trkpt lat="45.7093249" lon="9.6532395"><ele>427.0</ele><time>2026-03-29T12:26:31.61Z</time></trkpt><trkpt lat="45.7092988" lon="9.6531409"><ele>427.0</ele><time>2026-03-29T12:26:35.61Z</time></trkpt><trkpt lat="45.7093654" lon="9.6530732"><ele>427.0</ele><time>2026-03-29T12:26:39.61Z</time></trkpt><trkpt lat="45.7094343" lon="9.6530139"><ele>427.0</ele><time>2026-03-29T12:26:43.61Z</time></trkpt><trkpt lat="45.7094925" lon="9.6529367"><ele>427.0</ele><time>2026-03-29T12:26:47.61Z</time></trkpt><trkpt lat="45.7095329" lon="9.6528647"><ele>427.0</ele><time>2026-03-29T12:26:50.609Z</time></trkpt><trkpt lat="45.7095717" lon="9.6527905"><ele>427.0</ele><time>2026-03-29T12:26:53.61Z</time></trkpt><trkpt lat="45.7096231" lon="9.6527217"><ele>427.0</ele><time>2026-03-29T12:26:56.61Z</time></trkpt><trkpt lat="45.7096755" lon="9.6526289"><ele>429.0</ele><time>2026-03-29T12:27:00.61Z</time></trkpt><trkpt lat="45.7097178" lon="9.6525254"><ele>431.0</ele><time>2026-03-29T12:27:04.609Z</time></trkpt><trkpt lat="45.7097367" lon="9.6524268"><ele>433.0</ele><time>2026-03-29T12:27:08.61Z</time></trkpt><trkpt lat="45.7097527" lon="9.6523245"><ele>435.0</ele><time>2026-03-29T12:27:12.609Z</time></trkpt><trkpt lat="45.7097527" lon="9.6522338"><ele>437.0</ele><time>2026-03-29T12:27:15.61Z</time></trkpt><trkpt lat="45.709744" lon="9.6521377"><ele>439.0</ele><time>2026-03-29T12:27:18.61Z</time></trkpt><trkpt lat="45.7097194" lon="9.6520209"><ele>441.0</ele><time>2026-03-29T12:27:22.61Z</time></trkpt><trkpt lat="45.7097083" lon="9.6519177"><ele>443.8333333333333</ele><time>2026-03-29T12:27:25.61Z</time></trkpt><trkpt lat="45.7097085" lon="9.65179"><ele>446.66666666666663</ele><time>2026-03-29T12:27:28.61Z</time></trkpt><trkpt lat="45.7097267" lon="9.6516816"><ele>449.5</ele><time>2026-03-29T12:27:30.61Z</time></trkpt><trkpt lat="45.7097617" lon="9.6515625"><ele>452.3333333333333</ele><time>2026-03-29T12:27:32.61Z</time></trkpt><trkpt lat="45.7098089" lon="9.6514647"><ele>455.16666666666663</ele><time>2026-03-29T12:27:34.61Z</time></trkpt><trkpt lat="45.7098611" lon="9.6513846"><ele>458.0</ele><time>2026-03-29T12:27:36.609Z</time></trkpt><trkpt lat="45.7099147" lon="9.6513041"><ele>458.0</ele><time>2026-03-29T12:27:38.61Z</time></trkpt><trkpt lat="45.7099808" lon="9.6512148"><ele>457.99999999999994</ele><time>2026-03-29T12:27:40.61Z</time></trkpt><trkpt lat="45.7100438" lon="9.6511261"><ele>457.99999999999994</ele><time>2026-03-29T12:27:42.61Z</time></trkpt><trkpt lat="45.7100897" lon="9.6510598"><ele>458.0</ele><time>2026-03-29T12:27:44.61Z</time></trkpt><trkpt lat="45.7101523" lon="9.650962"><ele>458.0</ele><time>2026-03-29T12:27:46.609Z</time></trkpt><trkpt lat="45.7102462" lon="9.6508386"><ele>456.99999999999994</ele><time>2026-03-29T12:27:48.61Z</time></trkpt><trkpt lat="45.7102946" lon="9.6507809"><ele>456.0</ele><time>2026-03-29T12:27:49.61Z</time></trkpt><trkpt lat="45.7103519" lon="9.6506231"><ele>455.0</ele><time>2026-03-29T12:27:51.61Z</time></trkpt><trkpt lat="45.710386" lon="9.6505262"><ele>454.0</ele><time>2026-03-29T12:27:52.61Z</time></trkpt><trkpt lat="45.7104366" lon="9.650449"><ele>452.99999999999994</ele><time>2026-03-29T12:27:53.61Z</time></trkpt><trkpt lat="45.7104458" lon="9.6503379"><ele>452.0</ele><time>2026-03-29T12:27:55.61Z</time></trkpt><trkpt lat="45.7104587" lon="9.650205"><ele>452.0</ele><time>2026-03-29T12:27:57.61Z</time></trkpt><trkpt lat="45.7104821" lon="9.6500523"><ele>452.00000000000006</ele><time>2026-03-29T12:27:59.61Z</time></trkpt><trkpt lat="45.7104933" lon="9.6499126"><ele>452.00000000000006</ele><time>2026-03-29T12:28:01.61Z</time></trkpt><trkpt lat="45.7105062" lon="9.6497821"><ele>452.0</ele><time>2026-03-29T12:28:03.61Z</time></trkpt><trkpt lat="45.7105149" lon="9.6496598"><ele>452.0</ele><time>2026-03-29T12:28:05.61Z</time></trkpt><trkpt lat="45.7105203" lon="9.6495454"><ele>452.8</ele><time>2026-03-29T12:28:07.609Z</time></trkpt><trkpt lat="45.7105201" lon="9.6494197"><ele>453.6</ele><time>2026-03-29T12:28:09.61Z</time></trkpt><trkpt lat="45.7105643" lon="9.6492776"><ele>454.40000000000003</ele><time>2026-03-29T12:28:11.61Z</time></trkpt><trkpt lat="45.7106434" lon="9.6491428"><ele>455.20000000000005</ele><time>2026-03-29T12:28:13.61Z</time></trkpt><trkpt lat="45.7107447" lon="9.6490288"><ele>456.0</ele><time>2026-03-29T12:28:15.61Z</time></trkpt><trkpt lat="45.7108032" lon="9.6489601"><ele>456.0</ele><time>2026-03-29T12:28:16.61Z</time></trkpt><trkpt lat="45.7108693" lon="9.6488948"><ele>456.0</ele><time>2026-03-29T12:28:17.61Z</time></trkpt><trkpt lat="45.7109335" lon="9.6488282"><ele>456.0</ele><time>2026-03-29T12:28:18.609Z</time></trkpt><trkpt lat="45.7110037" lon="9.6487745"><ele>456.0</ele><time>2026-03-29T12:28:19.61Z</time></trkpt><trkpt lat="45.7110796" lon="9.6487306"><ele>456.0</ele><time>2026-03-29T12:28:20.61Z</time></trkpt><trkpt lat="45.7111614" lon="9.6487056"><ele>456.0</ele><time>2026-03-29T12:28:21.61Z</time></trkpt><trkpt lat="45.7112395" lon="9.6486922"><ele>456.6666666666667</ele><time>2026-03-29T12:28:22.61Z</time></trkpt><trkpt lat="45.7113136" lon="9.6486843"><ele>457.33333333333337</ele><time>2026-03-29T12:28:23.61Z</time></trkpt><trkpt lat="45.7113891" lon="9.6486833"><ele>458.0</ele><time>2026-03-29T12:28:24.61Z</time></trkpt><trkpt lat="45.7114708" lon="9.6486777"><ele>458.6666666666667</ele><time>2026-03-29T12:28:25.61Z</time></trkpt><trkpt lat="45.7115434" lon="9.6486555"><ele>459.33333333333337</ele><time>2026-03-29T12:28:26.61Z</time></trkpt><trkpt lat="45.7116134" lon="9.6486393"><ele>460.0</ele><time>2026-03-29T12:28:27.61Z</time></trkpt><trkpt lat="45.7116926" lon="9.6486043"><ele>460.0</ele><time>2026-03-29T12:28:28.61Z</time></trkpt><trkpt lat="45.7118036" lon="9.6485092"><ele>460.0</ele><time>2026-03-29T12:28:30.61Z</time></trkpt><trkpt lat="45.7118887" lon="9.64844"><ele>460.0</ele><time>2026-03-29T12:28:31.61Z</time></trkpt><trkpt lat="45.7119526" lon="9.6484097"><ele>460.0</ele><time>2026-03-29T12:28:32.61Z</time></trkpt><trkpt lat="45.71204" lon="9.6483816"><ele>460.0</ele><time>2026-03-29T12:28:33.61Z</time></trkpt><trkpt lat="45.7121099" lon="9.6483477"><ele>456.6</ele><time>2026-03-29T12:28:34.61Z</time></trkpt><trkpt lat="45.7121787" lon="9.6482953"><ele>453.2</ele><time>2026-03-29T12:28:35.61Z</time></trkpt><trkpt lat="45.712276" lon="9.6481918"><ele>449.79999999999995</ele><time>2026-03-29T12:28:37.61Z</time></trkpt><trkpt lat="45.7123089" lon="9.6480246"><ele>446.4</ele><time>2026-03-29T12:28:39.61Z</time></trkpt><trkpt lat="45.7122872" lon="9.6479262"><ele>443.0</ele><time>2026-03-29T12:28:40.61Z</time></trkpt><trkpt lat="45.7122833" lon="9.6477562"><ele>443.0</ele><time>2026-03-29T12:28:42.61Z</time></trkpt><trkpt lat="45.7122484" lon="9.6476369"><ele>442.99999999999994</ele><time>2026-03-29T12:28:43.61Z</time></trkpt><trkpt lat="45.7122406" lon="9.6474989"><ele>442.99999999999994</ele><time>2026-03-29T12:28:44.61Z</time></trkpt><trkpt lat="45.7122475" lon="9.6473375"><ele>443.0</ele><time>2026-03-29T12:28:46.61Z</time></trkpt><trkpt lat="45.7122542" lon="9.6472174"><ele>443.0</ele><time>2026-03-29T12:28:48.609Z</time></trkpt><trkpt lat="45.7122814" lon="9.6470899"><ele>443.0</ele><time>2026-03-29T12:28:52.61Z</time></trkpt><trkpt lat="45.7123307" lon="9.6470116"><ele>442.99999999999994</ele><time>2026-03-29T12:28:54.61Z</time></trkpt><trkpt lat="45.7123745" lon="9.6469109"><ele>442.99999999999994</ele><time>2026-03-29T12:28:56.61Z</time></trkpt><trkpt lat="45.7124305" lon="9.6467945"><ele>443.0</ele><time>2026-03-29T12:28:58.61Z</time></trkpt><trkpt lat="45.7125001" lon="9.6466804"><ele>443.0</ele><time>2026-03-29T12:29:00.61Z</time></trkpt><trkpt lat="45.7125651" lon="9.6465773"><ele>442.16666666666663</ele><time>2026-03-29T12:29:02.61Z</time></trkpt><trkpt lat="45.7126308" lon="9.6464943"><ele>441.3333333333333</ele><time>2026-03-29T12:29:04.61Z</time></trkpt><trkpt lat="45.7127172" lon="9.6464406"><ele>440.5</ele><time>2026-03-29T12:29:06.61Z</time></trkpt><trkpt lat="45.712801" lon="9.6463838"><ele>439.66666666666663</ele><time>2026-03-29T12:29:08.61Z</time></trkpt><trkpt lat="45.7128625" lon="9.6463371"><ele>438.8333333333333</ele><time>2026-03-29T12:29:10.61Z</time></trkpt><trkpt lat="45.7129147" lon="9.6462853"><ele>438.0</ele><time>2026-03-29T12:29:11.609Z</time></trkpt><trkpt lat="45.7129963" lon="9.6461958"><ele>438.0</ele><time>2026-03-29T12:29:13.61Z</time></trkpt><trkpt lat="45.7130661" lon="9.6461496"><ele>438.0</ele><time>2026-03-29T12:29:15.61Z</time></trkpt><trkpt lat="45.7131417" lon="9.6461021"><ele>438.0</ele><time>2026-03-29T12:29:17.609Z</time></trkpt><trkpt lat="45.7132048" lon="9.6460113"><ele>438.0</ele><time>2026-03-29T12:29:19.61Z</time></trkpt><trkpt lat="45.7132469" lon="9.6459264"><ele>438.0</ele><time>2026-03-29T12:29:21.61Z</time></trkpt><trkpt lat="45.7132636" lon="9.6458085"><ele>438.0</ele><time>2026-03-29T12:29:24.609Z</time></trkpt><trkpt lat="45.7132889" lon="9.645714"><ele>441.8333333333333</ele><time>2026-03-29T12:29:28.609Z</time></trkpt><trkpt lat="45.7133403" lon="9.6456531"><ele>445.66666666666663</ele><time>2026-03-29T12:29:32.61Z</time></trkpt><trkpt lat="45.7133653" lon="9.6455688"><ele>449.5</ele><time>2026-03-29T12:29:35.61Z</time></trkpt><trkpt lat="45.7134217" lon="9.6454895"><ele>453.3333333333333</ele><time>2026-03-29T12:29:40.609Z</time></trkpt><trkpt lat="45.7134489" lon="9.6453976"><ele>457.16666666666663</ele><time>2026-03-29T12:29:43.61Z</time></trkpt><trkpt lat="45.7134606" lon="9.6452752"><ele>461.0</ele><time>2026-03-29T12:29:46.61Z</time></trkpt><trkpt lat="45.7134728" lon="9.645156"><ele>463.3333333333333</ele><time>2026-03-29T12:29:49.61Z</time></trkpt><trkpt lat="45.7134822" lon="9.6450417"><ele>465.66666666666663</ele><time>2026-03-29T12:29:52.61Z</time></trkpt><trkpt lat="45.7134912" lon="9.6449313"><ele>468.0</ele><time>2026-03-29T12:29:54.61Z</time></trkpt><trkpt lat="45.7134924" lon="9.6448182"><ele>470.33333333333337</ele><time>2026-03-29T12:29:55.61Z</time></trkpt><trkpt lat="45.713506" lon="9.6446564"><ele>472.6666666666667</ele><time>2026-03-29T12:29:57.61Z</time></trkpt><trkpt lat="45.7135204" lon="9.6445646"><ele>475.0</ele><time>2026-03-29T12:29:58.609Z</time></trkpt><trkpt lat="45.7135345" lon="9.6444685"><ele>474.6</ele><time>2026-03-29T12:29:59.61Z</time></trkpt><trkpt lat="45.7135551" lon="9.644297"><ele>474.2</ele><time>2026-03-29T12:30:01.61Z</time></trkpt><trkpt lat="45.7135637" lon="9.6441505"><ele>473.79999999999995</ele><time>2026-03-29T12:30:02.609Z</time></trkpt><trkpt lat="45.7135738" lon="9.6439772"><ele>473.4</ele><time>2026-03-29T12:30:04.61Z</time></trkpt><trkpt lat="45.7135855" lon="9.6438463"><ele>473.0</ele><time>2026-03-29T12:30:06.61Z</time></trkpt><trkpt lat="45.7135728" lon="9.6436969"><ele>471.66666666666663</ele><time>2026-03-29T12:30:08.61Z</time></trkpt><trkpt lat="45.7135397" lon="9.6435893"><ele>470.3333333333333</ele><time>2026-03-29T12:30:10.61Z</time></trkpt><trkpt lat="45.713516" lon="9.6434943"><ele>469.0</ele><time>2026-03-29T12:30:11.61Z</time></trkpt><trkpt lat="45.7134778" lon="9.6433736"><ele>467.66666666666663</ele><time>2026-03-29T12:30:12.61Z</time></trkpt><trkpt lat="45.7134459" lon="9.6432926"><ele>466.3333333333333</ele><time>2026-03-29T12:30:13.61Z</time></trkpt><trkpt lat="45.7134004" lon="9.6432147"><ele>465.0</ele><time>2026-03-29T12:30:14.61Z</time></trkpt><trkpt lat="45.7133845" lon="9.6430929"><ele>465.0</ele><time>2026-03-29T12:30:16.61Z</time></trkpt><trkpt lat="45.7134234" lon="9.6430054"><ele>465.0</ele><time>2026-03-29T12:30:18.61Z</time></trkpt><trkpt lat="45.7135364" lon="9.6429773"><ele>465.0</ele><time>2026-03-29T12:30:20.61Z</time></trkpt><trkpt lat="45.713625" lon="9.6429586"><ele>465.0</ele><time>2026-03-29T12:30:22.609Z</time></trkpt><trkpt lat="45.7137202" lon="9.6429201"><ele>465.0</ele><time>2026-03-29T12:30:24.61Z</time></trkpt><trkpt lat="45.7138284" lon="9.6428375"><ele>463.2</ele><time>2026-03-29T12:30:26.61Z</time></trkpt><trkpt lat="45.7138871" lon="9.6427745"><ele>461.4</ele><time>2026-03-29T12:30:27.61Z</time></trkpt><trkpt lat="45.7139957" lon="9.6426796"><ele>459.6</ele><time>2026-03-29T12:30:29.61Z</time></trkpt><trkpt lat="45.7140772" lon="9.6426627"><ele>457.8</ele><time>2026-03-29T12:30:30.61Z</time></trkpt><trkpt lat="45.7141536" lon="9.6426246"><ele>456.0</ele><time>2026-03-29T12:30:31.61Z</time></trkpt><trkpt lat="45.7142612" lon="9.6426637"><ele>456.0</ele><time>2026-03-29T12:30:33.61Z</time></trkpt><trkpt lat="45.714364" lon="9.6426213"><ele>456.0</ele><time>2026-03-29T12:30:35.61Z</time></trkpt><trkpt lat="45.7144794" lon="9.6426245"><ele>456.0</ele><time>2026-03-29T12:30:37.61Z</time></trkpt><trkpt lat="45.7145814" lon="9.6425939"><ele>456.0</ele><time>2026-03-29T12:30:39.61Z</time></trkpt><trkpt lat="45.714681" lon="9.642602"><ele>456.0</ele><time>2026-03-29T12:30:41.61Z</time></trkpt><trkpt lat="45.7147649" lon="9.6425861"><ele>453.1666666666667</ele><time>2026-03-29T12:30:43.61Z</time></trkpt><trkpt lat="45.7148156" lon="9.6425264"><ele>450.33333333333337</ele><time>2026-03-29T12:30:54.61Z</time></trkpt><trkpt lat="45.71487" lon="9.642472"><ele>447.5</ele><time>2026-03-29T12:31:01.61Z</time></trkpt><trkpt lat="45.7149336" lon="9.6424506"><ele>444.6666666666667</ele><time>2026-03-29T12:31:51.61Z</time></trkpt><trkpt lat="45.71503" lon="9.6424053"><ele>441.83333333333337</ele><time>2026-03-29T12:31:53.61Z</time></trkpt><trkpt lat="45.7151209" lon="9.6423559"><ele>439.0</ele><time>2026-03-29T12:31:55.61Z</time></trkpt><trkpt lat="45.7152232" lon="9.6422956"><ele>435.33333333333337</ele><time>2026-03-29T12:31:57.61Z</time></trkpt><trkpt lat="45.7153318" lon="9.6422201"><ele>431.6666666666667</ele><time>2026-03-29T12:31:59.61Z</time></trkpt><trkpt lat="45.7153833" lon="9.6421496"><ele>428.0</ele><time>2026-03-29T12:32:00.61Z</time></trkpt><trkpt lat="45.7154639" lon="9.6420529"><ele>424.33333333333337</ele><time>2026-03-29T12:32:02.61Z</time></trkpt><trkpt lat="45.7154942" lon="9.6419633"><ele>420.6666666666667</ele><time>2026-03-29T12:32:04.609Z</time></trkpt><trkpt lat="45.7155171" lon="9.6418767"><ele>417.0</ele><time>2026-03-29T12:32:05.61Z</time></trkpt><trkpt lat="45.7154923" lon="9.641792"><ele>416.6666666666667</ele><time>2026-03-29T12:32:06.61Z</time></trkpt><trkpt lat="45.7154675" lon="9.6416396"><ele>416.33333333333337</ele><time>2026-03-29T12:32:08.61Z</time></trkpt><trkpt lat="45.7154516" lon="9.6415464"><ele>416.0</ele><time>2026-03-29T12:32:09.61Z</time></trkpt><trkpt lat="45.7154275" lon="9.6414495"><ele>415.6666666666667</ele><time>2026-03-29T12:32:10.609Z</time></trkpt><trkpt lat="45.7153947" lon="9.641365"><ele>415.33333333333337</ele><time>2026-03-29T12:32:11.61Z</time></trkpt><trkpt lat="45.715371" lon="9.6412644"><ele>415.0</ele><time>2026-03-29T12:32:12.61Z</time></trkpt><trkpt lat="45.7153357" lon="9.6411621"><ele>414.83333333333337</ele><time>2026-03-29T12:32:13.61Z</time></trkpt><trkpt lat="45.7153107" lon="9.6410673"><ele>414.6666666666667</ele><time>2026-03-29T12:32:14.61Z</time></trkpt><trkpt lat="45.7152742" lon="9.6409638"><ele>414.5</ele><time>2026-03-29T12:32:15.61Z</time></trkpt><trkpt lat="45.7152418" lon="9.6408616"><ele>414.33333333333337</ele><time>2026-03-29T12:32:16.61Z</time></trkpt><trkpt lat="45.7152099" lon="9.640768"><ele>414.1666666666667</ele><time>2026-03-29T12:32:17.61Z</time></trkpt><trkpt lat="45.7151835" lon="9.6406191"><ele>414.0</ele><time>2026-03-29T12:32:19.61Z</time></trkpt><trkpt lat="45.7151708" lon="9.6404848"><ele>417.2</ele><time>2026-03-29T12:32:21.61Z</time></trkpt><trkpt lat="45.7152227" lon="9.6403588"><ele>420.4</ele><time>2026-03-29T12:32:23.609Z</time></trkpt><trkpt lat="45.7153163" lon="9.6402952"><ele>423.6</ele><time>2026-03-29T12:32:26.61Z</time></trkpt><trkpt lat="45.7154032" lon="9.6402594"><ele>426.8</ele><time>2026-03-29T12:32:28.61Z</time></trkpt><trkpt lat="45.7154855" lon="9.6402251"><ele>430.0</ele><time>2026-03-29T12:32:30.61Z</time></trkpt><trkpt lat="45.7155546" lon="9.6401899"><ele>430.00000000000006</ele><time>2026-03-29T12:32:32.61Z</time></trkpt><trkpt lat="45.7156222" lon="9.6401511"><ele>430.0</ele><time>2026-03-29T12:32:34.61Z</time></trkpt><trkpt lat="45.7157107" lon="9.6401252"><ele>430.0</ele><time>2026-03-29T12:32:36.61Z</time></trkpt><trkpt lat="45.7157793" lon="9.6401366"><ele>430.0</ele><time>2026-03-29T12:32:38.609Z</time></trkpt><trkpt lat="45.7158424" lon="9.6401513"><ele>430.00000000000006</ele><time>2026-03-29T12:32:40.61Z</time></trkpt><trkpt lat="45.7159227" lon="9.6401802"><ele>430.0</ele><time>2026-03-29T12:32:42.61Z</time></trkpt><trkpt lat="45.7159963" lon="9.6402265"><ele>430.0</ele><time>2026-03-29T12:32:44.61Z</time></trkpt><trkpt lat="45.7160664" lon="9.6402905"><ele>430.0</ele><time>2026-03-29T12:32:46.61Z</time></trkpt><trkpt lat="45.7161376" lon="9.6403485"><ele>430.0</ele><time>2026-03-29T12:32:48.61Z</time></trkpt><trkpt lat="45.7162445" lon="9.640466"><ele>430.0</ele><time>2026-03-29T12:32:50.61Z</time></trkpt><trkpt lat="45.7163347" lon="9.6405027"><ele>430.0</ele><time>2026-03-29T12:32:52.61Z</time></trkpt><trkpt lat="45.7164624" lon="9.640531"><ele>427.8</ele><time>2026-03-29T12:32:54.61Z</time></trkpt><trkpt lat="45.7165537" lon="9.6405033"><ele>425.6</ele><time>2026-03-29T12:32:55.61Z</time></trkpt><trkpt lat="45.7166508" lon="9.6405129"><ele>423.4</ele><time>2026-03-29T12:32:56.61Z</time></trkpt><trkpt lat="45.7168039" lon="9.6405263"><ele>421.2</ele><time>2026-03-29T12:32:58.61Z</time></trkpt><trkpt lat="45.7168908" lon="9.6405333"><ele>419.0</ele><time>2026-03-29T12:32:59.61Z</time></trkpt><trkpt lat="45.7169527" lon="9.6405723"><ele>419.0</ele><time>2026-03-29T12:33:00.609Z</time></trkpt><trkpt lat="45.717023" lon="9.6406898"><ele>419.0</ele><time>2026-03-29T12:33:02.609Z</time></trkpt><trkpt lat="45.7171102" lon="9.6408258"><ele>419.0</ele><time>2026-03-29T12:33:04.61Z</time></trkpt><trkpt lat="45.7171722" lon="9.6409278"><ele>419.0</ele><time>2026-03-29T12:33:06.61Z</time></trkpt><trkpt lat="45.717399" lon="9.6410263"><ele>419.0</ele><time>2026-03-29T12:33:10.61Z</time></trkpt><trkpt lat="45.717496" lon="9.641106"><ele>419.0</ele><time>2026-03-29T12:33:11.61Z</time></trkpt><trkpt lat="45.7175515" lon="9.6411617"><ele>419.0</ele><time>2026-03-29T12:33:12.61Z</time></trkpt><trkpt lat="45.7176074" lon="9.6412232"><ele>419.0</ele><time>2026-03-29T12:33:13.61Z</time></trkpt><trkpt lat="45.7176972" lon="9.6413327"><ele>419.0</ele><time>2026-03-29T12:33:15.61Z</time></trkpt><trkpt lat="45.7177816" lon="9.6414024"><ele>415.49999999999994</ele><time>2026-03-29T12:33:16.61Z</time></trkpt><trkpt lat="45.7178597" lon="9.6414506"><ele>412.0</ele><time>2026-03-29T12:33:17.61Z</time></trkpt><trkpt lat="45.7179232" lon="9.6414981"><ele>408.5</ele><time>2026-03-29T12:33:18.61Z</time></trkpt><trkpt lat="45.7179934" lon="9.6415802"><ele>405.0</ele><time>2026-03-29T12:33:19.609Z</time></trkpt><trkpt lat="45.7180501" lon="9.6416462"><ele>401.49999999999994</ele><time>2026-03-29T12:33:20.61Z</time></trkpt><trkpt lat="45.7180954" lon="9.6417208"><ele>398.0</ele><time>2026-03-29T12:33:21.61Z</time></trkpt><trkpt lat="45.7181423" lon="9.6418171"><ele>397.99999999999994</ele><time>2026-03-29T12:33:22.609Z</time></trkpt><trkpt lat="45.7181894" lon="9.6419028"><ele>398.0</ele><time>2026-03-29T12:33:23.609Z</time></trkpt><trkpt lat="45.7182477" lon="9.6419556"><ele>398.0</ele><time>2026-03-29T12:33:24.61Z</time></trkpt><trkpt lat="45.7183083" lon="9.6420275"><ele>398.0</ele><time>2026-03-29T12:33:25.61Z</time></trkpt><trkpt lat="45.7183684" lon="9.642064"><ele>398.0</ele><time>2026-03-29T12:33:26.609Z</time></trkpt><trkpt lat="45.7184282" lon="9.6421311"><ele>397.99999999999994</ele><time>2026-03-29T12:33:27.61Z</time></trkpt><trkpt lat="45.7184861" lon="9.6421958"><ele>398.0</ele><time>2026-03-29T12:33:28.61Z</time></trkpt><trkpt lat="45.7185466" lon="9.6422869"><ele>394.4</ele><time>2026-03-29T12:33:29.61Z</time></trkpt><trkpt lat="45.7186031" lon="9.6423407"><ele>390.79999999999995</ele><time>2026-03-29T12:33:30.61Z</time></trkpt><trkpt lat="45.7186584" lon="9.642413"><ele>387.2</ele><time>2026-03-29T12:33:31.61Z</time></trkpt><trkpt lat="45.7187126" lon="9.6424815"><ele>383.6</ele><time>2026-03-29T12:33:32.61Z</time></trkpt><trkpt lat="45.7188036" lon="9.6425975"><ele>380.0</ele><time>2026-03-29T12:33:34.61Z</time></trkpt><trkpt lat="45.7188979" lon="9.6426973"><ele>380.0</ele><time>2026-03-29T12:33:36.61Z</time></trkpt><trkpt lat="45.718973" lon="9.6427"><ele>380.0</ele><time>2026-03-29T12:33:37.61Z</time></trkpt><trkpt lat="45.7190491" lon="9.6427102"><ele>380.0</ele><time>2026-03-29T12:33:38.609Z</time></trkpt><trkpt lat="45.7191328" lon="9.6427118"><ele>380.0</ele><time>2026-03-29T12:33:39.61Z</time></trkpt><trkpt lat="45.7192085" lon="9.6427122"><ele>380.0</ele><time>2026-03-29T12:33:40.61Z</time></trkpt><trkpt lat="45.7192898" lon="9.6426971"><ele>380.0</ele><time>2026-03-29T12:33:41.61Z</time></trkpt><trkpt lat="45.719371" lon="9.6426808"><ele>378.5</ele><time>2026-03-29T12:33:42.61Z</time></trkpt><trkpt lat="45.7194443" lon="9.642664"><ele>377.0</ele><time>2026-03-29T12:33:43.61Z</time></trkpt><trkpt lat="45.7195152" lon="9.6426277"><ele>375.5</ele><time>2026-03-29T12:33:44.61Z</time></trkpt><trkpt lat="45.7195952" lon="9.642593"><ele>374.0</ele><time>2026-03-29T12:33:45.61Z</time></trkpt><trkpt lat="45.7196616" lon="9.6425689"><ele>372.5</ele><time>2026-03-29T12:33:46.61Z</time></trkpt><trkpt lat="45.7197379" lon="9.6425642"><ele>371.0</ele><time>2026-03-29T12:33:47.61Z</time></trkpt><trkpt lat="45.7198117" lon="9.6425757"><ele>371.0</ele><time>2026-03-29T12:33:48.61Z</time></trkpt><trkpt lat="45.7198775" lon="9.6425893"><ele>371.0</ele><time>2026-03-29T12:33:49.61Z</time></trkpt><trkpt lat="45.7199467" lon="9.6426188"><ele>371.0</ele><time>2026-03-29T12:33:50.61Z</time></trkpt><trkpt lat="45.7200116" lon="9.6426388"><ele>371.0</ele><time>2026-03-29T12:33:51.609Z</time></trkpt><trkpt lat="45.7201234" lon="9.642656"><ele>371.0</ele><time>2026-03-29T12:33:53.61Z</time></trkpt><trkpt lat="45.7201861" lon="9.6426668"><ele>371.0</ele><time>2026-03-29T12:33:54.61Z</time></trkpt><trkpt lat="45.7202542" lon="9.6426767"><ele>371.0</ele><time>2026-03-29T12:33:55.61Z</time></trkpt><trkpt lat="45.720317" lon="9.6426894"><ele>369.1666666666667</ele><time>2026-03-29T12:33:56.61Z</time></trkpt><trkpt lat="45.7204149" lon="9.6426925"><ele>367.33333333333337</ele><time>2026-03-29T12:33:58.609Z</time></trkpt><trkpt lat="45.7205229" lon="9.6426841"><ele>365.5</ele><time>2026-03-29T12:34:00.61Z</time></trkpt><trkpt lat="45.7205914" lon="9.6426795"><ele>363.6666666666667</ele><time>2026-03-29T12:34:01.61Z</time></trkpt><trkpt lat="45.7206655" lon="9.6426945"><ele>361.8333333333333</ele><time>2026-03-29T12:34:02.61Z</time></trkpt><trkpt lat="45.7207288" lon="9.6427111"><ele>360.0</ele><time>2026-03-29T12:34:03.61Z</time></trkpt><trkpt lat="45.7208163" lon="9.6427591"><ele>360.0</ele><time>2026-03-29T12:34:05.609Z</time></trkpt><trkpt lat="45.7208974" lon="9.6428177"><ele>360.0</ele><time>2026-03-29T12:34:07.61Z</time></trkpt><trkpt lat="45.7209385" lon="9.6427272"><ele>360.0</ele><time>2026-03-29T12:34:11.61Z</time></trkpt><trkpt lat="45.7209728" lon="9.6426467"><ele>360.0</ele><time>2026-03-29T12:34:13.61Z</time></trkpt><trkpt lat="45.7210712" lon="9.6426209"><ele>360.0</ele><time>2026-03-29T12:34:16.609Z</time></trkpt><trkpt lat="45.7211345" lon="9.6426149"><ele>360.0</ele><time>2026-03-29T12:34:17.61Z</time></trkpt><trkpt lat="45.7211978" lon="9.6426198"><ele>357.3333333333333</ele><time>2026-03-29T12:34:18.609Z</time></trkpt><trkpt lat="45.7212778" lon="9.6426237"><ele>354.6666666666667</ele><time>2026-03-29T12:34:19.61Z</time></trkpt><trkpt lat="45.7213596" lon="9.6426254"><ele>352.0</ele><time>2026-03-29T12:34:20.61Z</time></trkpt><trkpt lat="45.7214467" lon="9.6426288"><ele>349.33333333333337</ele><time>2026-03-29T12:34:21.61Z</time></trkpt><trkpt lat="45.721525" lon="9.6426413"><ele>346.6666666666667</ele><time>2026-03-29T12:34:22.61Z</time></trkpt><trkpt lat="45.7215984" lon="9.6426565"><ele>344.0</ele><time>2026-03-29T12:34:23.61Z</time></trkpt><trkpt lat="45.7217168" lon="9.6427102"><ele>344.5</ele><time>2026-03-29T12:34:25.61Z</time></trkpt><trkpt lat="45.7217885" lon="9.6428197"><ele>345.0</ele><time>2026-03-29T12:34:27.61Z</time></trkpt><trkpt lat="45.7218571" lon="9.6429323"><ele>345.5</ele><time>2026-03-29T12:34:29.61Z</time></trkpt><trkpt lat="45.7219478" lon="9.6430751"><ele>346.0</ele><time>2026-03-29T12:34:31.61Z</time></trkpt><trkpt lat="45.7220293" lon="9.6432135"><ele>344.8</ele><time>2026-03-29T12:34:33.61Z</time></trkpt><trkpt lat="45.7221008" lon="9.6433168"><ele>343.6</ele><time>2026-03-29T12:34:34.61Z</time></trkpt><trkpt lat="45.7221692" lon="9.643404"><ele>342.4</ele><time>2026-03-29T12:34:35.61Z</time></trkpt><trkpt lat="45.722227" lon="9.6434958"><ele>341.2</ele><time>2026-03-29T12:34:36.61Z</time></trkpt><trkpt lat="45.7222855" lon="9.6435779"><ele>340.0</ele><time>2026-03-29T12:34:37.61Z</time></trkpt><trkpt lat="45.7223485" lon="9.6436903"><ele>340.0</ele><time>2026-03-29T12:34:38.61Z</time></trkpt><trkpt lat="45.7224098" lon="9.6437893"><ele>340.0</ele><time>2026-03-29T12:34:39.609Z</time></trkpt><trkpt lat="45.7224964" lon="9.643893"><ele>340.0</ele><time>2026-03-29T12:34:40.61Z</time></trkpt><trkpt lat="45.7225599" lon="9.6439706"><ele>340.0</ele><time>2026-03-29T12:34:41.61Z</time></trkpt><trkpt lat="45.7226378" lon="9.6440714"><ele>340.0</ele><time>2026-03-29T12:34:42.61Z</time></trkpt><trkpt lat="45.7226887" lon="9.6441326"><ele>339.5</ele><time>2026-03-29T12:34:43.61Z</time></trkpt><trkpt lat="45.7227429" lon="9.6442003"><ele>339.0</ele><time>2026-03-29T12:34:44.609Z</time></trkpt><trkpt lat="45.7227889" lon="9.6442838"><ele>338.5</ele><time>2026-03-29T12:34:45.61Z</time></trkpt><trkpt lat="45.7228411" lon="9.644354"><ele>338.0</ele><time>2026-03-29T12:34:46.61Z</time></trkpt><trkpt lat="45.7229195" lon="9.6444911"><ele>337.5</ele><time>2026-03-29T12:34:48.61Z</time></trkpt><trkpt lat="45.7229783" lon="9.6445364"><ele>337.0</ele><time>2026-03-29T12:34:50.609Z</time></trkpt><trkpt lat="45.7230588" lon="9.6445519"><ele>339.0</ele><time>2026-03-29T12:34:52.61Z</time></trkpt><trkpt lat="45.7232421" lon="9.6445473"><ele>341.0</ele><time>2026-03-29T12:34:57.61Z</time></trkpt><trkpt lat="45.7233789" lon="9.6444996"><ele>343.0</ele><time>2026-03-29T12:35:00.61Z</time></trkpt><trkpt lat="45.7234598" lon="9.6444954"><ele>345.0</ele><time>2026-03-29T12:35:02.609Z</time></trkpt><trkpt lat="45.7235597" lon="9.6444758"><ele>344.0</ele><time>2026-03-29T12:35:04.61Z</time></trkpt><trkpt lat="45.7236122" lon="9.6445287"><ele>343.0</ele><time>2026-03-29T12:35:06.61Z</time></trkpt><trkpt lat="45.723667" lon="9.6446184"><ele>342.0</ele><time>2026-03-29T12:35:08.61Z</time></trkpt><trkpt lat="45.7237246" lon="9.644702"><ele>341.0</ele><time>2026-03-29T12:35:10.61Z</time></trkpt><trkpt lat="45.7237882" lon="9.6447602"><ele>340.0</ele><time>2026-03-29T12:35:12.61Z</time></trkpt><trkpt lat="45.7238723" lon="9.6447616"><ele>339.0</ele><time>2026-03-29T12:35:14.61Z</time></trkpt><trkpt lat="45.7239197" lon="9.6448436"><ele>339.0</ele><time>2026-03-29T12:35:16.609Z</time></trkpt><trkpt lat="45.7239872" lon="9.6448994"><ele>339.0</ele><time>2026-03-29T12:35:19.61Z</time></trkpt><trkpt lat="45.7240751" lon="9.6449033"><ele>339.0</ele><time>2026-03-29T12:35:25.61Z</time></trkpt><trkpt lat="45.7241135" lon="9.6449872"><ele>339.0</ele><time>2026-03-29T12:35:27.61Z</time></trkpt><trkpt lat="45.7241844" lon="9.6450152"><ele>339.0</ele><time>2026-03-29T12:35:29.61Z</time></trkpt><trkpt lat="45.7242801" lon="9.6450833"><ele>339.0</ele><time>2026-03-29T12:35:31.61Z</time></trkpt><trkpt lat="45.7243613" lon="9.6451952"><ele>338.5</ele><time>2026-03-29T12:35:33.61Z</time></trkpt><trkpt lat="45.7244181" lon="9.6452664"><ele>338.0</ele><time>2026-03-29T12:35:34.61Z</time></trkpt><trkpt lat="45.7244479" lon="9.6453556"><ele>337.5</ele><time>2026-03-29T12:35:35.61Z</time></trkpt><trkpt lat="45.7244909" lon="9.6454407"><ele>337.0</ele><time>2026-03-29T12:35:36.61Z</time></trkpt><trkpt lat="45.7245547" lon="9.6455615"><ele>336.5</ele><time>2026-03-29T12:35:38.61Z</time></trkpt><trkpt lat="45.7246068" lon="9.6456172"><ele>336.0</ele><time>2026-03-29T12:35:40.61Z</time></trkpt><trkpt lat="45.7247939" lon="9.6455561"><ele>336.0</ele><time>2026-03-29T12:35:44.61Z</time></trkpt><trkpt lat="45.7249157" lon="9.6455323"><ele>336.0</ele><time>2026-03-29T12:35:46.61Z</time></trkpt><trkpt lat="45.724996" lon="9.6455417"><ele>336.0</ele><time>2026-03-29T12:35:47.61Z</time></trkpt><trkpt lat="45.7251152" lon="9.6455331"><ele>336.0</ele><time>2026-03-29T12:35:49.61Z</time></trkpt><trkpt lat="45.7251787" lon="9.6455472"><ele>336.0</ele><time>2026-03-29T12:35:50.61Z</time></trkpt><trkpt lat="45.7252369" lon="9.6455823"><ele>334.3333333333333</ele><time>2026-03-29T12:35:51.61Z</time></trkpt><trkpt lat="45.7253048" lon="9.6456657"><ele>332.6666666666667</ele><time>2026-03-29T12:35:52.61Z</time></trkpt><trkpt lat="45.7253971" lon="9.6457737"><ele>331.0</ele><time>2026-03-29T12:35:54.61Z</time></trkpt><trkpt lat="45.7254331" lon="9.6458482"><ele>329.33333333333337</ele><time>2026-03-29T12:35:55.61Z</time></trkpt><trkpt lat="45.7254914" lon="9.6459086"><ele>327.6666666666667</ele><time>2026-03-29T12:35:56.61Z</time></trkpt><trkpt lat="45.7255813" lon="9.6459582"><ele>326.0</ele><time>2026-03-29T12:35:58.61Z</time></trkpt><trkpt lat="45.7256661" lon="9.6460452"><ele>326.0</ele><time>2026-03-29T12:36:00.61Z</time></trkpt><trkpt lat="45.7257432" lon="9.6460114"><ele>326.0</ele><time>2026-03-29T12:36:04.61Z</time></trkpt><trkpt lat="45.7257622" lon="9.6459136"><ele>326.0</ele><time>2026-03-29T12:36:15.61Z</time></trkpt><trkpt lat="45.7257801" lon="9.6458079"><ele>326.0</ele><time>2026-03-29T12:36:20.61Z</time></trkpt><trkpt lat="45.725805" lon="9.6456964"><ele>326.0</ele><time>2026-03-29T12:36:23.61Z</time></trkpt><trkpt lat="45.725804" lon="9.645558"><ele>326.0</ele><time>2026-03-29T12:36:25.61Z</time></trkpt><trkpt lat="45.7258079" lon="9.6454545"><ele>326.0</ele><time>2026-03-29T12:36:26.61Z</time></trkpt><trkpt lat="45.7258099" lon="9.6453007"><ele>326.0</ele><time>2026-03-29T12:36:28.61Z</time></trkpt><trkpt lat="45.7258183" lon="9.6452033"><ele>326.0</ele><time>2026-03-29T12:36:29.61Z</time></trkpt><trkpt lat="45.7258025" lon="9.6450351"><ele>326.0</ele><time>2026-03-29T12:36:31.61Z</time></trkpt><trkpt lat="45.7258088" lon="9.6449132"><ele>326.0</ele><time>2026-03-29T12:36:32.61Z</time></trkpt><trkpt lat="45.7258172" lon="9.6447255"><ele>324.0</ele><time>2026-03-29T12:36:34.609Z</time></trkpt><trkpt lat="45.7258114" lon="9.6445889"><ele>322.0</ele><time>2026-03-29T12:36:36.61Z</time></trkpt><trkpt lat="45.7258131" lon="9.6444245"><ele>320.0</ele><time>2026-03-29T12:36:38.609Z</time></trkpt><trkpt lat="45.72575" lon="9.6443549"><ele>318.0</ele><time>2026-03-29T12:36:39.61Z</time></trkpt><trkpt lat="45.7257164" lon="9.644179"><ele>316.0</ele><time>2026-03-29T12:36:41.61Z</time></trkpt><trkpt lat="45.72573" lon="9.6440291"><ele>314.8</ele><time>2026-03-29T12:36:43.609Z</time></trkpt><trkpt lat="45.7257696" lon="9.6439254"><ele>313.6</ele><time>2026-03-29T12:36:45.61Z</time></trkpt><trkpt lat="45.7258071" lon="9.6438081"><ele>312.4</ele><time>2026-03-29T12:36:47.609Z</time></trkpt><trkpt lat="45.7258369" lon="9.6436858"><ele>311.2</ele><time>2026-03-29T12:36:49.61Z</time></trkpt><trkpt lat="45.725866" lon="9.6435275"><ele>310.0</ele><time>2026-03-29T12:36:51.61Z</time></trkpt><trkpt lat="45.7259226" lon="9.6433879"><ele>309.0</ele><time>2026-03-29T12:36:53.609Z</time></trkpt><trkpt lat="45.7259701" lon="9.6433077"><ele>308.0</ele><time>2026-03-29T12:36:54.61Z</time></trkpt><trkpt lat="45.7260311" lon="9.6432292"><ele>307.0</ele><time>2026-03-29T12:36:55.61Z</time></trkpt><trkpt lat="45.7260935" lon="9.6431917"><ele>306.0</ele><time>2026-03-29T12:36:56.61Z</time></trkpt><trkpt lat="45.7261567" lon="9.6431737"><ele>305.0</ele><time>2026-03-29T12:36:57.61Z</time></trkpt><trkpt lat="45.7262373" lon="9.6430387"><ele>304.0</ele><time>2026-03-29T12:36:59.61Z</time></trkpt><trkpt lat="45.7262878" lon="9.6428862"><ele>301.0</ele><time>2026-03-29T12:37:01.61Z</time></trkpt><trkpt lat="45.7263215" lon="9.6427148"><ele>298.0</ele><time>2026-03-29T12:37:03.609Z</time></trkpt><trkpt lat="45.7263198" lon="9.642557"><ele>295.0</ele><time>2026-03-29T12:37:05.61Z</time></trkpt><trkpt lat="45.7263132" lon="9.6423837"><ele>292.0</ele><time>2026-03-29T12:37:07.61Z</time></trkpt><trkpt lat="45.7263095" lon="9.6422239"><ele>292.0</ele><time>2026-03-29T12:37:09.61Z</time></trkpt><trkpt lat="45.7263028" lon="9.6421338"><ele>292.0</ele><time>2026-03-29T12:37:10.61Z</time></trkpt><trkpt lat="45.7262831" lon="9.6419541"><ele>292.0</ele><time>2026-03-29T12:37:12.61Z</time></trkpt><trkpt lat="45.7262564" lon="9.641799"><ele>292.0</ele><time>2026-03-29T12:37:14.61Z</time></trkpt><trkpt lat="45.7262344" lon="9.6416274"><ele>292.0</ele><time>2026-03-29T12:37:16.61Z</time></trkpt><trkpt lat="45.7262208" lon="9.6415381"><ele>292.16666666666663</ele><time>2026-03-29T12:37:17.61Z</time></trkpt><trkpt lat="45.7262034" lon="9.6414371"><ele>292.3333333333333</ele><time>2026-03-29T12:37:18.61Z</time></trkpt><trkpt lat="45.7261788" lon="9.6413492"><ele>292.5</ele><time>2026-03-29T12:37:19.61Z</time></trkpt><trkpt lat="45.726153" lon="9.641265"><ele>292.6666666666667</ele><time>2026-03-29T12:37:20.61Z</time></trkpt><trkpt lat="45.7261031" lon="9.6411266"><ele>292.83333333333337</ele><time>2026-03-29T12:37:22.61Z</time></trkpt><trkpt lat="45.7260412" lon="9.6409909"><ele>293.0</ele><time>2026-03-29T12:37:24.61Z</time></trkpt><trkpt lat="45.7259382" lon="9.6409183"><ele>293.6666666666667</ele><time>2026-03-29T12:37:26.61Z</time></trkpt><trkpt lat="45.7258785" lon="9.6408602"><ele>294.33333333333337</ele><time>2026-03-29T12:37:27.61Z</time></trkpt><trkpt lat="45.725784" lon="9.6408053"><ele>295.0</ele><time>2026-03-29T12:37:29.61Z</time></trkpt><trkpt lat="45.7257227" lon="9.6406759"><ele>295.6666666666667</ele><time>2026-03-29T12:37:31.61Z</time></trkpt><trkpt lat="45.7256984" lon="9.6405849"><ele>296.3333333333333</ele><time>2026-03-29T12:37:32.61Z</time></trkpt><trkpt lat="45.7256685" lon="9.6405005"><ele>297.0</ele><time>2026-03-29T12:37:33.61Z</time></trkpt><trkpt lat="45.7256238" lon="9.6403921"><ele>297.0</ele><time>2026-03-29T12:37:35.61Z</time></trkpt><trkpt lat="45.725557" lon="9.6403228"><ele>297.0</ele><time>2026-03-29T12:37:37.61Z</time></trkpt><trkpt lat="45.725494" lon="9.640216"><ele>297.0</ele><time>2026-03-29T12:37:39.61Z</time></trkpt><trkpt lat="45.725459" lon="9.6400914"><ele>297.0</ele><time>2026-03-29T12:37:41.61Z</time></trkpt><trkpt lat="45.7254216" lon="9.6400058"><ele>297.0</ele><time>2026-03-29T12:37:43.61Z</time></trkpt><trkpt lat="45.7253817" lon="9.6398808"><ele>297.0</ele><time>2026-03-29T12:37:45.61Z</time></trkpt><trkpt lat="45.7253193" lon="9.6397343"><ele>297.0</ele><time>2026-03-29T12:37:47.61Z</time></trkpt><trkpt lat="45.7252803" lon="9.6396476"><ele>297.0</ele><time>2026-03-29T12:37:48.61Z</time></trkpt><trkpt lat="45.7252034" lon="9.6395662"><ele>297.0</ele><time>2026-03-29T12:37:50.61Z</time></trkpt><trkpt lat="45.7251373" lon="9.6394522"><ele>297.0</ele><time>2026-03-29T12:37:52.61Z</time></trkpt><trkpt lat="45.7250694" lon="9.6393468"><ele>297.0</ele><time>2026-03-29T12:37:54.61Z</time></trkpt><trkpt lat="45.7249854" lon="9.6392332"><ele>296.2</ele><time>2026-03-29T12:37:56.61Z</time></trkpt><trkpt lat="45.7249226" lon="9.639103"><ele>295.4</ele><time>2026-03-29T12:37:58.609Z</time></trkpt><trkpt lat="45.7248377" lon="9.6390136"><ele>294.6</ele><time>2026-03-29T12:38:00.61Z</time></trkpt><trkpt lat="45.7247515" lon="9.6389428"><ele>293.8</ele><time>2026-03-29T12:38:02.61Z</time></trkpt><trkpt lat="45.7246891" lon="9.6388881"><ele>293.0</ele><time>2026-03-29T12:38:04.61Z</time></trkpt><trkpt lat="45.7246056" lon="9.6388552"><ele>293.0</ele><time>2026-03-29T12:38:06.61Z</time></trkpt><trkpt lat="45.7245405" lon="9.6388256"><ele>293.0</ele><time>2026-03-29T12:38:08.609Z</time></trkpt><trkpt lat="45.7244395" lon="9.6387792"><ele>293.0</ele><time>2026-03-29T12:38:11.61Z</time></trkpt><trkpt lat="45.7243718" lon="9.6387053"><ele>293.0</ele><time>2026-03-29T12:38:13.61Z</time></trkpt><trkpt lat="45.7243359" lon="9.6386062"><ele>293.0</ele><time>2026-03-29T12:38:15.61Z</time></trkpt><trkpt lat="45.7243532" lon="9.6385056"><ele>293.0</ele><time>2026-03-29T12:38:17.61Z</time></trkpt><trkpt lat="45.7243945" lon="9.638387"><ele>293.0</ele><time>2026-03-29T12:38:20.61Z</time></trkpt><trkpt lat="45.7244312" lon="9.6382808"><ele>293.0</ele><time>2026-03-29T12:38:22.61Z</time></trkpt><trkpt lat="45.724458" lon="9.6381475"><ele>293.0</ele><time>2026-03-29T12:38:24.61Z</time></trkpt><trkpt lat="45.7244979" lon="9.6380164"><ele>293.0</ele><time>2026-03-29T12:38:26.61Z</time></trkpt><trkpt lat="45.7245139" lon="9.6379071"><ele>293.0</ele><time>2026-03-29T12:38:27.61Z</time></trkpt><trkpt lat="45.724525" lon="9.6377337"><ele>293.0</ele><time>2026-03-29T12:38:29.61Z</time></trkpt><trkpt lat="45.7245039" lon="9.6375812"><ele>293.0</ele><time>2026-03-29T12:38:31.609Z</time></trkpt><trkpt lat="45.7244781" lon="9.63741"><ele>293.0</ele><time>2026-03-29T12:38:33.61Z</time></trkpt><trkpt lat="45.7244645" lon="9.6372417"><ele>293.0</ele><time>2026-03-29T12:38:35.61Z</time></trkpt><trkpt lat="45.7244517" lon="9.6370824"><ele>293.0</ele><time>2026-03-29T12:38:37.61Z</time></trkpt><trkpt lat="45.7244581" lon="9.6369849"><ele>293.0</ele><time>2026-03-29T12:38:38.609Z</time></trkpt><trkpt lat="45.7244439" lon="9.6368249"><ele>293.0</ele><time>2026-03-29T12:38:40.61Z</time></trkpt><trkpt lat="45.7244434" lon="9.636653"><ele>293.0</ele><time>2026-03-29T12:38:42.61Z</time></trkpt><trkpt lat="45.7244361" lon="9.6364921"><ele>293.0</ele><time>2026-03-29T12:38:44.61Z</time></trkpt><trkpt lat="45.7244512" lon="9.6363215"><ele>293.0</ele><time>2026-03-29T12:38:46.61Z</time></trkpt><trkpt lat="45.7244525" lon="9.6361733"><ele>293.0</ele><time>2026-03-29T12:38:48.61Z</time></trkpt><trkpt lat="45.7244854" lon="9.6360047"><ele>293.0</ele><time>2026-03-29T12:38:50.61Z</time></trkpt><trkpt lat="45.7245109" lon="9.6358344"><ele>293.0</ele><time>2026-03-29T12:38:52.609Z</time></trkpt><trkpt lat="45.7245541" lon="9.6356523"><ele>293.0</ele><time>2026-03-29T12:38:54.61Z</time></trkpt><trkpt lat="45.7245824" lon="9.6355696"><ele>293.0</ele><time>2026-03-29T12:38:55.61Z</time></trkpt><trkpt lat="45.7246205" lon="9.635489"><ele>293.0</ele><time>2026-03-29T12:38:56.61Z</time></trkpt><trkpt lat="45.7246827" lon="9.6353716"><ele>293.0</ele><time>2026-03-29T12:38:58.61Z</time></trkpt><trkpt lat="45.724742" lon="9.6352865"><ele>293.0</ele><time>2026-03-29T12:38:59.61Z</time></trkpt><trkpt lat="45.7247912" lon="9.6352216"><ele>293.0</ele><time>2026-03-29T12:39:00.61Z</time></trkpt><trkpt lat="45.7248627" lon="9.6350974"><ele>293.5</ele><time>2026-03-29T12:39:02.61Z</time></trkpt><trkpt lat="45.7249155" lon="9.6350013"><ele>294.0</ele><time>2026-03-29T12:39:03.61Z</time></trkpt><trkpt lat="45.7249648" lon="9.6349197"><ele>294.5</ele><time>2026-03-29T12:39:04.61Z</time></trkpt><trkpt lat="45.7250461" lon="9.6347703"><ele>295.0</ele><time>2026-03-29T12:39:06.61Z</time></trkpt><trkpt lat="45.7250943" lon="9.6346762"><ele>295.5</ele><time>2026-03-29T12:39:07.61Z</time></trkpt><trkpt lat="45.7251362" lon="9.6345955"><ele>296.0</ele><time>2026-03-29T12:39:08.61Z</time></trkpt><trkpt lat="45.7251747" lon="9.6345123"><ele>297.0</ele><time>2026-03-29T12:39:09.61Z</time></trkpt><trkpt lat="45.7252155" lon="9.6344306"><ele>298.0</ele><time>2026-03-29T12:39:10.61Z</time></trkpt><trkpt lat="45.7252551" lon="9.634348"><ele>299.0</ele><time>2026-03-29T12:39:11.61Z</time></trkpt><trkpt lat="45.7252851" lon="9.6342675"><ele>300.0</ele><time>2026-03-29T12:39:12.61Z</time></trkpt><trkpt lat="45.7253118" lon="9.6341828"><ele>301.0</ele><time>2026-03-29T12:39:13.61Z</time></trkpt><trkpt lat="45.7253705" lon="9.6340203"><ele>302.0</ele><time>2026-03-29T12:39:15.61Z</time></trkpt><trkpt lat="45.7254036" lon="9.6338693"><ele>300.6666666666667</ele><time>2026-03-29T12:39:17.61Z</time></trkpt><trkpt lat="45.7254223" lon="9.6337616"><ele>299.33333333333337</ele><time>2026-03-29T12:39:18.61Z</time></trkpt><trkpt lat="45.7254556" lon="9.6336214"><ele>298.0</ele><time>2026-03-29T12:39:20.609Z</time></trkpt><trkpt lat="45.7254898" lon="9.6335354"><ele>296.6666666666667</ele><time>2026-03-29T12:39:21.61Z</time></trkpt><trkpt lat="45.7255258" lon="9.6334549"><ele>295.3333333333333</ele><time>2026-03-29T12:39:22.61Z</time></trkpt><trkpt lat="45.7255636" lon="9.6333696"><ele>294.0</ele><time>2026-03-29T12:39:23.61Z</time></trkpt><trkpt lat="45.7256064" lon="9.6332875"><ele>294.0</ele><time>2026-03-29T12:39:24.61Z</time></trkpt><trkpt lat="45.7256561" lon="9.6332103"><ele>294.0</ele><time>2026-03-29T12:39:25.61Z</time></trkpt><trkpt lat="45.7257029" lon="9.6331268"><ele>294.0</ele><time>2026-03-29T12:39:26.61Z</time></trkpt><trkpt lat="45.7257864" lon="9.6329787"><ele>294.0</ele><time>2026-03-29T12:39:28.61Z</time></trkpt><trkpt lat="45.7258605" lon="9.6328624"><ele>294.0</ele><time>2026-03-29T12:39:30.61Z</time></trkpt><trkpt lat="45.7259789" lon="9.63276"><ele>294.59999999999997</ele><time>2026-03-29T12:39:32.61Z</time></trkpt><trkpt lat="45.7260737" lon="9.6326474"><ele>295.2</ele><time>2026-03-29T12:39:34.609Z</time></trkpt><trkpt lat="45.7261026" lon="9.6325649"><ele>295.79999999999995</ele><time>2026-03-29T12:39:35.61Z</time></trkpt><trkpt lat="45.7261338" lon="9.6324826"><ele>296.4</ele><time>2026-03-29T12:39:36.61Z</time></trkpt><trkpt lat="45.7261897" lon="9.6323336"><ele>297.0</ele><time>2026-03-29T12:39:38.61Z</time></trkpt><trkpt lat="45.7262462" lon="9.6322032"><ele>297.0</ele><time>2026-03-29T12:39:39.61Z</time></trkpt><trkpt lat="45.7263091" lon="9.6321023"><ele>297.0</ele><time>2026-03-29T12:39:41.61Z</time></trkpt><trkpt lat="45.7263794" lon="9.6319329"><ele>297.0</ele><time>2026-03-29T12:39:43.61Z</time></trkpt><trkpt lat="45.7264091" lon="9.6317432"><ele>297.0</ele><time>2026-03-29T12:39:45.61Z</time></trkpt><trkpt lat="45.7264216" lon="9.6316475"><ele>297.0</ele><time>2026-03-29T12:39:46.609Z</time></trkpt><trkpt lat="45.7264332" lon="9.6315401"><ele>297.0</ele><time>2026-03-29T12:39:47.609Z</time></trkpt><trkpt lat="45.7264467" lon="9.6314319"><ele>297.0</ele><time>2026-03-29T12:39:48.61Z</time></trkpt><trkpt lat="45.7264666" lon="9.63126"><ele>297.0</ele><time>2026-03-29T12:39:50.61Z</time></trkpt><trkpt lat="45.726473" lon="9.6310776"><ele>297.0</ele><time>2026-03-29T12:39:52.61Z</time></trkpt><trkpt lat="45.7265002" lon="9.6309848"><ele>297.0</ele><time>2026-03-29T12:39:53.61Z</time></trkpt><trkpt lat="45.7265172" lon="9.6308456"><ele>297.2</ele><time>2026-03-29T12:39:55.61Z</time></trkpt><trkpt lat="45.7265427" lon="9.6306722"><ele>297.4</ele><time>2026-03-29T12:39:57.61Z</time></trkpt><trkpt lat="45.7265748" lon="9.6305841"><ele>297.6</ele><time>2026-03-29T12:39:58.61Z</time></trkpt><trkpt lat="45.7266238" lon="9.6304183"><ele>297.8</ele><time>2026-03-29T12:40:00.61Z</time></trkpt><trkpt lat="45.726655" lon="9.6303096"><ele>298.0</ele><time>2026-03-29T12:40:01.61Z</time></trkpt><trkpt lat="45.7267073" lon="9.6301443"><ele>298.0</ele><time>2026-03-29T12:40:03.61Z</time></trkpt><trkpt lat="45.7267223" lon="9.6299896"><ele>298.0</ele><time>2026-03-29T12:40:05.61Z</time></trkpt><trkpt lat="45.7267552" lon="9.6298422"><ele>298.0</ele><time>2026-03-29T12:40:07.61Z</time></trkpt><trkpt lat="45.7267877" lon="9.6297645"><ele>298.0</ele><time>2026-03-29T12:40:08.61Z</time></trkpt><trkpt lat="45.726844" lon="9.62958"><ele>298.0</ele><time>2026-03-29T12:40:10.61Z</time></trkpt><trkpt lat="45.7269018" lon="9.6294499"><ele>296.4</ele><time>2026-03-29T12:40:12.61Z</time></trkpt><trkpt lat="45.7269452" lon="9.6293695"><ele>294.8</ele><time>2026-03-29T12:40:13.61Z</time></trkpt><trkpt lat="45.727001" lon="9.6292968"><ele>293.2</ele><time>2026-03-29T12:40:14.61Z</time></trkpt><trkpt lat="45.7271012" lon="9.6291677"><ele>291.6</ele><time>2026-03-29T12:40:16.61Z</time></trkpt><trkpt lat="45.7271953" lon="9.6290154"><ele>290.0</ele><time>2026-03-29T12:40:18.61Z</time></trkpt><trkpt lat="45.7272312" lon="9.6289263"><ele>290.0</ele><time>2026-03-29T12:40:19.61Z</time></trkpt><trkpt lat="45.727293" lon="9.6287598"><ele>290.0</ele><time>2026-03-29T12:40:21.61Z</time></trkpt><trkpt lat="45.7273302" lon="9.6286831"><ele>290.0</ele><time>2026-03-29T12:40:22.61Z</time></trkpt><trkpt lat="45.7273649" lon="9.6286023"><ele>290.0</ele><time>2026-03-29T12:40:23.61Z</time></trkpt><trkpt lat="45.7273964" lon="9.6285065"><ele>290.0</ele><time>2026-03-29T12:40:24.61Z</time></trkpt><trkpt lat="45.7274382" lon="9.6284238"><ele>290.0</ele><time>2026-03-29T12:40:25.609Z</time></trkpt><trkpt lat="45.7275102" lon="9.6282975"><ele>290.1666666666667</ele><time>2026-03-29T12:40:27.61Z</time></trkpt><trkpt lat="45.7275831" lon="9.6281406"><ele>290.33333333333337</ele><time>2026-03-29T12:40:29.61Z</time></trkpt><trkpt lat="45.7276269" lon="9.6280353"><ele>290.5</ele><time>2026-03-29T12:40:30.61Z</time></trkpt><trkpt lat="45.7276759" lon="9.6279648"><ele>290.6666666666667</ele><time>2026-03-29T12:40:31.61Z</time></trkpt><trkpt lat="45.7277327" lon="9.6278952"><ele>290.8333333333333</ele><time>2026-03-29T12:40:32.61Z</time></trkpt><trkpt lat="45.7278001" lon="9.6278379"><ele>291.0</ele><time>2026-03-29T12:40:33.61Z</time></trkpt><trkpt lat="45.7278561" lon="9.627786"><ele>291.0</ele><time>2026-03-29T12:40:34.61Z</time></trkpt><trkpt lat="45.727914" lon="9.6277422"><ele>291.0</ele><time>2026-03-29T12:40:35.609Z</time></trkpt><trkpt lat="45.7280105" lon="9.6276595"><ele>291.0</ele><time>2026-03-29T12:40:37.61Z</time></trkpt><trkpt lat="45.7280895" lon="9.6275145"><ele>291.0</ele><time>2026-03-29T12:40:39.61Z</time></trkpt><trkpt lat="45.7281314" lon="9.627444"><ele>291.0</ele><time>2026-03-29T12:40:40.61Z</time></trkpt><trkpt lat="45.7281824" lon="9.6273752"><ele>291.0</ele><time>2026-03-29T12:40:41.61Z</time></trkpt><trkpt lat="45.7282685" lon="9.627288"><ele>291.0</ele><time>2026-03-29T12:40:43.61Z</time></trkpt><trkpt lat="45.7283364" lon="9.6272053"><ele>291.0</ele><time>2026-03-29T12:40:45.61Z</time></trkpt><trkpt lat="45.728389" lon="9.6270888"><ele>291.0</ele><time>2026-03-29T12:40:47.61Z</time></trkpt><trkpt lat="45.7283912" lon="9.6269219"><ele>291.0</ele><time>2026-03-29T12:40:49.61Z</time></trkpt><trkpt lat="45.7284323" lon="9.62681"><ele>291.0</ele><time>2026-03-29T12:40:51.61Z</time></trkpt><trkpt lat="45.7284665" lon="9.6266784"><ele>290.40000000000003</ele><time>2026-03-29T12:40:53.61Z</time></trkpt><trkpt lat="45.7285288" lon="9.6265486"><ele>289.8</ele><time>2026-03-29T12:40:55.61Z</time></trkpt><trkpt lat="45.7285862" lon="9.626473"><ele>289.20000000000005</ele><time>2026-03-29T12:40:57.61Z</time></trkpt><trkpt lat="45.7286515" lon="9.6263853"><ele>288.6</ele><time>2026-03-29T12:40:59.61Z</time></trkpt><trkpt lat="45.7287303" lon="9.6262949"><ele>288.0</ele><time>2026-03-29T12:41:01.61Z</time></trkpt><trkpt lat="45.7288015" lon="9.6261585"><ele>288.3333333333333</ele><time>2026-03-29T12:41:03.61Z</time></trkpt><trkpt lat="45.7288" lon="9.6260428"><ele>288.6666666666667</ele><time>2026-03-29T12:41:04.61Z</time></trkpt><trkpt lat="45.7288187" lon="9.6259301"><ele>289.0</ele><time>2026-03-29T12:41:05.61Z</time></trkpt><trkpt lat="45.7288361" lon="9.6257909"><ele>289.33333333333337</ele><time>2026-03-29T12:41:07.609Z</time></trkpt><trkpt lat="45.7288583" lon="9.6256888"><ele>289.6666666666667</ele><time>2026-03-29T12:41:08.609Z</time></trkpt><trkpt lat="45.7288653" lon="9.6255932"><ele>290.0</ele><time>2026-03-29T12:41:09.61Z</time></trkpt><trkpt lat="45.7288681" lon="9.6254348"><ele>289.8</ele><time>2026-03-29T12:41:11.61Z</time></trkpt><trkpt lat="45.7288398" lon="9.625296"><ele>289.6</ele><time>2026-03-29T12:41:13.609Z</time></trkpt><trkpt lat="45.7287981" lon="9.6251606"><ele>289.4</ele><time>2026-03-29T12:41:15.61Z</time></trkpt><trkpt lat="45.7287504" lon="9.6249821"><ele>289.2</ele><time>2026-03-29T12:41:17.61Z</time></trkpt><trkpt lat="45.7287218" lon="9.6248922"><ele>289.0</ele><time>2026-03-29T12:41:18.61Z</time></trkpt><trkpt lat="45.7286956" lon="9.6247887"><ele>289.0</ele><time>2026-03-29T12:41:19.61Z</time></trkpt><trkpt lat="45.7286721" lon="9.6246964"><ele>289.0</ele><time>2026-03-29T12:41:20.61Z</time></trkpt><trkpt lat="45.7286591" lon="9.6245909"><ele>289.0</ele><time>2026-03-29T12:41:21.61Z</time></trkpt><trkpt lat="45.7286225" lon="9.6244489"><ele>289.0</ele><time>2026-03-29T12:41:23.61Z</time></trkpt><trkpt lat="45.7285856" lon="9.6242882"><ele>289.0</ele><time>2026-03-29T12:41:25.61Z</time></trkpt><trkpt lat="45.728575" lon="9.6241721"><ele>289.0</ele><time>2026-03-29T12:41:26.61Z</time></trkpt><trkpt lat="45.7285595" lon="9.624067"><ele>289.8</ele><time>2026-03-29T12:41:27.61Z</time></trkpt><trkpt lat="45.7285223" lon="9.6238995"><ele>290.59999999999997</ele><time>2026-03-29T12:41:29.609Z</time></trkpt><trkpt lat="45.7285042" lon="9.6237053"><ele>291.4</ele><time>2026-03-29T12:41:31.61Z</time></trkpt><trkpt lat="45.7284863" lon="9.6235503"><ele>292.2</ele><time>2026-03-29T12:41:33.61Z</time></trkpt><trkpt lat="45.7284889" lon="9.6234463"><ele>293.0</ele><time>2026-03-29T12:41:34.609Z</time></trkpt><trkpt lat="45.7285016" lon="9.6232781"><ele>293.1666666666667</ele><time>2026-03-29T12:41:36.61Z</time></trkpt><trkpt lat="45.7285133" lon="9.6230988"><ele>293.33333333333337</ele><time>2026-03-29T12:41:38.61Z</time></trkpt><trkpt lat="45.7285054" lon="9.6230031"><ele>293.5</ele><time>2026-03-29T12:41:39.61Z</time></trkpt><trkpt lat="45.7284867" lon="9.6228924"><ele>293.6666666666667</ele><time>2026-03-29T12:41:40.61Z</time></trkpt><trkpt lat="45.7284748" lon="9.6227913"><ele>293.8333333333333</ele><time>2026-03-29T12:41:41.61Z</time></trkpt><trkpt lat="45.7284495" lon="9.6227064"><ele>294.0</ele><time>2026-03-29T12:41:42.61Z</time></trkpt><trkpt lat="45.7284054" lon="9.6225696"><ele>294.0</ele><time>2026-03-29T12:41:44.61Z</time></trkpt><trkpt lat="45.7283533" lon="9.6224313"><ele>294.0</ele><time>2026-03-29T12:41:46.609Z</time></trkpt><trkpt lat="45.7283227" lon="9.6223442"><ele>294.0</ele><time>2026-03-29T12:41:48.61Z</time></trkpt><trkpt lat="45.7282952" lon="9.6222513"><ele>294.0</ele><time>2026-03-29T12:41:50.61Z</time></trkpt><trkpt lat="45.7282617" lon="9.62214"><ele>294.0</ele><time>2026-03-29T12:41:52.61Z</time></trkpt><trkpt lat="45.7282264" lon="9.6220454"><ele>294.0</ele><time>2026-03-29T12:41:55.61Z</time></trkpt><trkpt lat="45.7281975" lon="9.6219618"><ele>294.3333333333333</ele><time>2026-03-29T12:41:57.61Z</time></trkpt><trkpt lat="45.7281542" lon="9.6218586"><ele>294.6666666666667</ele><time>2026-03-29T12:42:00.61Z</time></trkpt><trkpt lat="45.7280988" lon="9.6217971"><ele>295.0</ele><time>2026-03-29T12:42:04.61Z</time></trkpt><trkpt lat="45.7280396" lon="9.6217066"><ele>295.33333333333337</ele><time>2026-03-29T12:42:08.61Z</time></trkpt><trkpt lat="45.7279838" lon="9.6216164"><ele>295.6666666666667</ele><time>2026-03-29T12:42:11.609Z</time></trkpt><trkpt lat="45.7279355" lon="9.6215422"><ele>296.0</ele><time>2026-03-29T12:42:14.61Z</time></trkpt><trkpt lat="45.7278874" lon="9.6214598"><ele>296.0</ele><time>2026-03-29T12:42:17.61Z</time></trkpt><trkpt lat="45.7278442" lon="9.62139"><ele>296.0</ele><time>2026-03-29T12:42:20.61Z</time></trkpt><trkpt lat="45.7278089" lon="9.6213119"><ele>296.0</ele><time>2026-03-29T12:42:23.61Z</time></trkpt><trkpt lat="45.7277555" lon="9.6212333"><ele>296.0</ele><time>2026-03-29T12:42:30.632Z</time></trkpt><trkpt lat="45.7277056" lon="9.6211699"><ele>296.0</ele><time>2026-03-29T12:42:33.579Z</time></trkpt><trkpt lat="45.7276533" lon="9.6211081"><ele>296.0</ele><time>2026-03-29T12:42:36.61Z</time></trkpt><trkpt lat="45.7275924" lon="9.6210349"><ele>296.0</ele><time>2026-03-29T12:42:40.61Z</time></trkpt><trkpt lat="45.7275388" lon="9.620978"><ele>299.2857142857143</ele><time>2026-03-29T12:42:43.598Z</time></trkpt><trkpt lat="45.7274846" lon="9.6209175"><ele>302.57142857142856</ele><time>2026-03-29T12:42:46.61Z</time></trkpt><trkpt lat="45.7274352" lon="9.6208571"><ele>305.8571428571429</ele><time>2026-03-29T12:42:49.61Z</time></trkpt><trkpt lat="45.7273924" lon="9.6207647"><ele>309.1428571428571</ele><time>2026-03-29T12:42:52.61Z</time></trkpt><trkpt lat="45.7273546" lon="9.6206731"><ele>312.4285714285714</ele><time>2026-03-29T12:42:55.61Z</time></trkpt><trkpt lat="45.7273181" lon="9.620564"><ele>315.7142857142857</ele><time>2026-03-29T12:42:58.61Z</time></trkpt><trkpt lat="45.7272771" lon="9.6204673"><ele>319.0</ele><time>2026-03-29T12:43:00.61Z</time></trkpt><trkpt lat="45.7272442" lon="9.6203757"><ele>320.3333333333333</ele><time>2026-03-29T12:43:01.61Z</time></trkpt><trkpt lat="45.7272009" lon="9.6202462"><ele>321.66666666666663</ele><time>2026-03-29T12:43:02.61Z</time></trkpt><trkpt lat="45.72716" lon="9.6201259"><ele>323.0</ele><time>2026-03-29T12:43:03.61Z</time></trkpt><trkpt lat="45.7271127" lon="9.6200286"><ele>324.3333333333333</ele><time>2026-03-29T12:43:04.609Z</time></trkpt><trkpt lat="45.7270649" lon="9.6199503"><ele>325.6666666666667</ele><time>2026-03-29T12:43:05.61Z</time></trkpt><trkpt lat="45.7270128" lon="9.6198776"><ele>327.0</ele><time>2026-03-29T12:43:06.61Z</time></trkpt><trkpt lat="45.7269294" lon="9.6197587"><ele>325.5</ele><time>2026-03-29T12:43:08.61Z</time></trkpt><trkpt lat="45.7268745" lon="9.6196691"><ele>324.0</ele><time>2026-03-29T12:43:10.61Z</time></trkpt><trkpt lat="45.7268208" lon="9.6195977"><ele>322.5</ele><time>2026-03-29T12:43:13.61Z</time></trkpt><trkpt lat="45.7267339" lon="9.6195806"><ele>321.0</ele><time>2026-03-29T12:43:17.609Z</time></trkpt><trkpt lat="45.7266662" lon="9.6195394"><ele>319.5</ele><time>2026-03-29T12:43:19.61Z</time></trkpt><trkpt lat="45.7265938" lon="9.6194782"><ele>318.0</ele><time>2026-03-29T12:43:21.61Z</time></trkpt><trkpt lat="45.7265337" lon="9.619427"><ele>316.8333333333333</ele><time>2026-03-29T12:43:23.61Z</time></trkpt><trkpt lat="45.7264627" lon="9.6193847"><ele>315.6666666666667</ele><time>2026-03-29T12:43:25.61Z</time></trkpt><trkpt lat="45.7263949" lon="9.6193327"><ele>314.5</ele><time>2026-03-29T12:43:27.609Z</time></trkpt><trkpt lat="45.7263294" lon="9.6192448"><ele>313.33333333333337</ele><time>2026-03-29T12:43:29.609Z</time></trkpt><trkpt lat="45.7262649" lon="9.6191439"><ele>312.1666666666667</ele><time>2026-03-29T12:43:31.61Z</time></trkpt><trkpt lat="45.7261779" lon="9.6190736"><ele>311.0</ele><time>2026-03-29T12:43:33.61Z</time></trkpt><trkpt lat="45.7261157" lon="9.6190413"><ele>309.2</ele><time>2026-03-29T12:43:34.61Z</time></trkpt><trkpt lat="45.7260476" lon="9.6190022"><ele>307.40000000000003</ele><time>2026-03-29T12:43:35.61Z</time></trkpt><trkpt lat="45.7259599" lon="9.6189402"><ele>305.6</ele><time>2026-03-29T12:43:36.61Z</time></trkpt><trkpt lat="45.7258392" lon="9.6189066"><ele>303.8</ele><time>2026-03-29T12:43:38.61Z</time></trkpt><trkpt lat="45.7257252" lon="9.6188882"><ele>302.0</ele><time>2026-03-29T12:43:40.61Z</time></trkpt><trkpt lat="45.7256575" lon="9.6188836"><ele>302.0</ele><time>2026-03-29T12:43:41.61Z</time></trkpt><trkpt lat="45.7255775" lon="9.6189041"><ele>302.0</ele><time>2026-03-29T12:43:43.61Z</time></trkpt><trkpt lat="45.7255016" lon="9.6189643"><ele>302.0</ele><time>2026-03-29T12:43:45.61Z</time></trkpt><trkpt lat="45.7254235" lon="9.6190214"><ele>302.0</ele><time>2026-03-29T12:43:47.61Z</time></trkpt><trkpt lat="45.7253353" lon="9.6191012"><ele>302.0</ele><time>2026-03-29T12:43:49.61Z</time></trkpt><trkpt lat="45.7252503" lon="9.6191619"><ele>302.0</ele><time>2026-03-29T12:43:50.609Z</time></trkpt><trkpt lat="45.7251804" lon="9.6192517"><ele>302.0</ele><time>2026-03-29T12:43:52.61Z</time></trkpt><trkpt lat="45.7251297" lon="9.6193186"><ele>302.0</ele><time>2026-03-29T12:43:54.61Z</time></trkpt><trkpt lat="45.7250733" lon="9.6193843"><ele>302.0</ele><time>2026-03-29T12:43:56.61Z</time></trkpt><trkpt lat="45.7250141" lon="9.6194985"><ele>302.0</ele><time>2026-03-29T12:43:58.61Z</time></trkpt><trkpt lat="45.7250013" lon="9.6196622"><ele>302.0</ele><time>2026-03-29T12:44:00.609Z</time></trkpt><trkpt lat="45.7250163" lon="9.6198214"><ele>302.0</ele><time>2026-03-29T12:44:02.61Z</time></trkpt><trkpt lat="45.7250384" lon="9.6199666"><ele>302.0</ele><time>2026-03-29T12:44:04.61Z</time></trkpt><trkpt lat="45.7250366" lon="9.6201094"><ele>302.0</ele><time>2026-03-29T12:44:06.61Z</time></trkpt><trkpt lat="45.7249986" lon="9.6202317"><ele>302.0</ele><time>2026-03-29T12:44:08.61Z</time></trkpt><trkpt lat="45.724938" lon="9.6203163"><ele>302.0</ele><time>2026-03-29T12:44:10.609Z</time></trkpt><trkpt lat="45.7248917" lon="9.6203827"><ele>302.0</ele><time>2026-03-29T12:44:14.61Z</time></trkpt><trkpt lat="45.7248027" lon="9.6203812"><ele>302.0</ele><time>2026-03-29T12:44:17.61Z</time></trkpt><trkpt lat="45.7247369" lon="9.6203438"><ele>302.0</ele><time>2026-03-29T12:44:19.61Z</time></trkpt><trkpt lat="45.724655" lon="9.6203116"><ele>302.0</ele><time>2026-03-29T12:44:21.609Z</time></trkpt><trkpt lat="45.7245615" lon="9.6203092"><ele>302.0</ele><time>2026-03-29T12:44:22.61Z</time></trkpt><trkpt lat="45.7244987" lon="9.620318"><ele>302.2</ele><time>2026-03-29T12:44:23.61Z</time></trkpt><trkpt lat="45.7243952" lon="9.620341"><ele>302.4</ele><time>2026-03-29T12:44:25.61Z</time></trkpt><trkpt lat="45.7243166" lon="9.6203897"><ele>302.6</ele><time>2026-03-29T12:44:28.61Z</time></trkpt><trkpt lat="45.7242417" lon="9.620401"><ele>302.8</ele><time>2026-03-29T12:44:30.61Z</time></trkpt><trkpt lat="45.7241426" lon="9.6204131"><ele>303.0</ele><time>2026-03-29T12:44:32.61Z</time></trkpt><trkpt lat="45.7240559" lon="9.620391"><ele>303.0</ele><time>2026-03-29T12:44:34.61Z</time></trkpt><trkpt lat="45.7239539" lon="9.6203673"><ele>303.0</ele><time>2026-03-29T12:44:36.61Z</time></trkpt><trkpt lat="45.7238318" lon="9.6203377"><ele>303.0</ele><time>2026-03-29T12:44:37.61Z</time></trkpt><trkpt lat="45.7237282" lon="9.6203049"><ele>303.0</ele><time>2026-03-29T12:44:38.61Z</time></trkpt><trkpt lat="45.7236486" lon="9.620277"><ele>303.0</ele><time>2026-03-29T12:44:39.61Z</time></trkpt><trkpt lat="45.7235753" lon="9.620223"><ele>299.8333333333333</ele><time>2026-03-29T12:44:40.61Z</time></trkpt><trkpt lat="45.7234821" lon="9.6201707"><ele>296.6666666666667</ele><time>2026-03-29T12:44:41.61Z</time></trkpt><trkpt lat="45.7234216" lon="9.6200968"><ele>293.5</ele><time>2026-03-29T12:44:42.609Z</time></trkpt><trkpt lat="45.7233632" lon="9.6200197"><ele>290.33333333333337</ele><time>2026-03-29T12:44:43.609Z</time></trkpt><trkpt lat="45.7232923" lon="9.6199115"><ele>287.1666666666667</ele><time>2026-03-29T12:44:45.61Z</time></trkpt><trkpt lat="45.7232127" lon="9.6199109"><ele>284.0</ele><time>2026-03-29T12:44:47.61Z</time></trkpt><trkpt lat="45.7231439" lon="9.619843"><ele>284.0</ele><time>2026-03-29T12:44:49.609Z</time></trkpt><trkpt lat="45.7230743" lon="9.6199514"><ele>284.0</ele><time>2026-03-29T12:44:51.609Z</time></trkpt><trkpt lat="45.7229733" lon="9.6200152"><ele>284.0</ele><time>2026-03-29T12:44:53.61Z</time></trkpt><trkpt lat="45.7228752" lon="9.6200704"><ele>284.0</ele><time>2026-03-29T12:44:55.61Z</time></trkpt><trkpt lat="45.7227886" lon="9.6201322"><ele>284.0</ele><time>2026-03-29T12:44:57.609Z</time></trkpt><trkpt lat="45.7227061" lon="9.6201986"><ele>284.2</ele><time>2026-03-29T12:44:59.61Z</time></trkpt><trkpt lat="45.7226334" lon="9.6202711"><ele>284.4</ele><time>2026-03-29T12:45:01.61Z</time></trkpt><trkpt lat="45.7225549" lon="9.6203378"><ele>284.6</ele><time>2026-03-29T12:45:03.61Z</time></trkpt><trkpt lat="45.7224758" lon="9.6203916"><ele>284.8</ele><time>2026-03-29T12:45:07.61Z</time></trkpt><trkpt lat="45.7224073" lon="9.6204298"><ele>285.0</ele><time>2026-03-29T12:45:09.61Z</time></trkpt><trkpt lat="45.722315" lon="9.6205118"><ele>285.0</ele><time>2026-03-29T12:45:11.61Z</time></trkpt><trkpt lat="45.7222615" lon="9.6205661"><ele>285.0</ele><time>2026-03-29T12:45:12.61Z</time></trkpt><trkpt lat="45.7222042" lon="9.620625"><ele>285.0</ele><time>2026-03-29T12:45:13.61Z</time></trkpt><trkpt lat="45.7221461" lon="9.6206843"><ele>285.0</ele><time>2026-03-29T12:45:14.609Z</time></trkpt><trkpt lat="45.7220953" lon="9.6207527"><ele>285.0</ele><time>2026-03-29T12:45:15.61Z</time></trkpt><trkpt lat="45.7220428" lon="9.6208088"><ele>285.0</ele><time>2026-03-29T12:45:16.61Z</time></trkpt><trkpt lat="45.7219604" lon="9.6209272"><ele>285.0</ele><time>2026-03-29T12:45:18.61Z</time></trkpt><trkpt lat="45.7219078" lon="9.6209798"><ele>285.0</ele><time>2026-03-29T12:45:19.61Z</time></trkpt><trkpt lat="45.7218114" lon="9.621055"><ele>285.0</ele><time>2026-03-29T12:45:21.61Z</time></trkpt><trkpt lat="45.7217297" lon="9.6211318"><ele>285.0</ele><time>2026-03-29T12:45:23.609Z</time></trkpt><trkpt lat="45.7216288" lon="9.6211817"><ele>285.0</ele><time>2026-03-29T12:45:25.61Z</time></trkpt><trkpt lat="45.7215636" lon="9.6212368"><ele>285.0</ele><time>2026-03-29T12:45:27.61Z</time></trkpt><trkpt lat="45.7214662" lon="9.6212742"><ele>285.0</ele><time>2026-03-29T12:45:29.61Z</time></trkpt><trkpt lat="45.7213924" lon="9.6213132"><ele>285.0</ele><time>2026-03-29T12:45:31.609Z</time></trkpt><trkpt lat="45.7213111" lon="9.6213434"><ele>285.0</ele><time>2026-03-29T12:45:33.61Z</time></trkpt><trkpt lat="45.721192" lon="9.6213654"><ele>285.0</ele><time>2026-03-29T12:45:35.61Z</time></trkpt><trkpt lat="45.7211319" lon="9.6213935"><ele>285.0</ele><time>2026-03-29T12:45:36.61Z</time></trkpt><trkpt lat="45.7210641" lon="9.6214349"><ele>285.0</ele><time>2026-03-29T12:45:38.61Z</time></trkpt><trkpt lat="45.7209544" lon="9.6214591"><ele>285.0</ele><time>2026-03-29T12:45:40.61Z</time></trkpt><trkpt lat="45.7208577" lon="9.6215253"><ele>285.0</ele><time>2026-03-29T12:45:42.61Z</time></trkpt><trkpt lat="45.7208006" lon="9.621566"><ele>285.0</ele><time>2026-03-29T12:45:43.61Z</time></trkpt><trkpt lat="45.7207018" lon="9.6216413"><ele>285.0</ele><time>2026-03-29T12:45:45.61Z</time></trkpt><trkpt lat="45.720644" lon="9.6216787"><ele>285.0</ele><time>2026-03-29T12:45:46.61Z</time></trkpt><trkpt lat="45.7205727" lon="9.6217096"><ele>285.0</ele><time>2026-03-29T12:45:47.61Z</time></trkpt><trkpt lat="45.7204654" lon="9.6217591"><ele>285.0</ele><time>2026-03-29T12:45:49.61Z</time></trkpt><trkpt lat="45.7204075" lon="9.6218085"><ele>285.0</ele><time>2026-03-29T12:45:50.609Z</time></trkpt><trkpt lat="45.7203017" lon="9.621906"><ele>285.0</ele><time>2026-03-29T12:45:52.61Z</time></trkpt><trkpt lat="45.7202351" lon="9.6219373"><ele>285.4</ele><time>2026-03-29T12:45:53.61Z</time></trkpt><trkpt lat="45.7201231" lon="9.6220118"><ele>285.8</ele><time>2026-03-29T12:45:55.61Z</time></trkpt><trkpt lat="45.7200169" lon="9.6220991"><ele>286.2</ele><time>2026-03-29T12:45:57.61Z</time></trkpt><trkpt lat="45.7199116" lon="9.6221754"><ele>286.6</ele><time>2026-03-29T12:45:59.61Z</time></trkpt><trkpt lat="45.7198485" lon="9.6222142"><ele>287.0</ele><time>2026-03-29T12:46:00.61Z</time></trkpt><trkpt lat="45.7197576" lon="9.6222973"><ele>287.0</ele><time>2026-03-29T12:46:02.61Z</time></trkpt><trkpt lat="45.7196701" lon="9.622398"><ele>287.0</ele><time>2026-03-29T12:46:04.61Z</time></trkpt><trkpt lat="45.71959" lon="9.6224814"><ele>287.0</ele><time>2026-03-29T12:46:06.61Z</time></trkpt><trkpt lat="45.7194955" lon="9.6225963"><ele>287.0</ele><time>2026-03-29T12:46:08.61Z</time></trkpt><trkpt lat="45.7194079" lon="9.6227205"><ele>286.83333333333337</ele><time>2026-03-29T12:46:10.61Z</time></trkpt><trkpt lat="45.719331" lon="9.6228051"><ele>286.6666666666667</ele><time>2026-03-29T12:46:12.61Z</time></trkpt><trkpt lat="45.7192654" lon="9.6228532"><ele>286.5</ele><time>2026-03-29T12:46:14.61Z</time></trkpt><trkpt lat="45.7191964" lon="9.6228352"><ele>286.3333333333333</ele><time>2026-03-29T12:46:16.61Z</time></trkpt><trkpt lat="45.7191185" lon="9.6227276"><ele>286.16666666666663</ele><time>2026-03-29T12:46:18.61Z</time></trkpt><trkpt lat="45.7190777" lon="9.6226505"><ele>286.0</ele><time>2026-03-29T12:46:19.61Z</time></trkpt><trkpt lat="45.7190388" lon="9.6225714"><ele>284.99999999999994</ele><time>2026-03-29T12:46:20.609Z</time></trkpt><trkpt lat="45.7189971" lon="9.6224911"><ele>284.0</ele><time>2026-03-29T12:46:21.61Z</time></trkpt><trkpt lat="45.7189586" lon="9.6224109"><ele>283.0</ele><time>2026-03-29T12:46:22.61Z</time></trkpt><trkpt lat="45.7189126" lon="9.6223266"><ele>282.0</ele><time>2026-03-29T12:46:23.61Z</time></trkpt><trkpt lat="45.7188706" lon="9.622241"><ele>281.0</ele><time>2026-03-29T12:46:24.61Z</time></trkpt><trkpt lat="45.7188316" lon="9.6221441"><ele>279.99999999999994</ele><time>2026-03-29T12:46:25.609Z</time></trkpt><trkpt lat="45.7187866" lon="9.6220438"><ele>279.0</ele><time>2026-03-29T12:46:26.609Z</time></trkpt><trkpt lat="45.7187426" lon="9.6219445"><ele>278.1666666666667</ele><time>2026-03-29T12:46:27.609Z</time></trkpt><trkpt lat="45.7187005" lon="9.6218411"><ele>277.3333333333333</ele><time>2026-03-29T12:46:28.61Z</time></trkpt><trkpt lat="45.718657" lon="9.6217416"><ele>276.5</ele><time>2026-03-29T12:46:29.61Z</time></trkpt><trkpt lat="45.71861" lon="9.6216419"><ele>275.66666666666663</ele><time>2026-03-29T12:46:30.609Z</time></trkpt><trkpt lat="45.7185624" lon="9.6215467"><ele>274.8333333333333</ele><time>2026-03-29T12:46:31.61Z</time></trkpt><trkpt lat="45.7185194" lon="9.6214525"><ele>274.0</ele><time>2026-03-29T12:46:32.61Z</time></trkpt><trkpt lat="45.7184763" lon="9.6213532"><ele>274.0</ele><time>2026-03-29T12:46:33.61Z</time></trkpt><trkpt lat="45.7184397" lon="9.6212538"><ele>274.0</ele><time>2026-03-29T12:46:34.61Z</time></trkpt><trkpt lat="45.7184026" lon="9.6211427"><ele>274.0</ele><time>2026-03-29T12:46:35.61Z</time></trkpt><trkpt lat="45.7183761" lon="9.6210428"><ele>274.0</ele><time>2026-03-29T12:46:36.609Z</time></trkpt><trkpt lat="45.7183479" lon="9.6209311"><ele>274.0</ele><time>2026-03-29T12:46:37.61Z</time></trkpt><trkpt lat="45.7183314" lon="9.6208204"><ele>274.0</ele><time>2026-03-29T12:46:38.61Z</time></trkpt><trkpt lat="45.7183149" lon="9.6207136"><ele>273.5</ele><time>2026-03-29T12:46:39.61Z</time></trkpt><trkpt lat="45.7182983" lon="9.6206012"><ele>273.0</ele><time>2026-03-29T12:46:40.61Z</time></trkpt><trkpt lat="45.7182878" lon="9.6205017"><ele>272.5</ele><time>2026-03-29T12:46:41.609Z</time></trkpt><trkpt lat="45.7182873" lon="9.6204039"><ele>272.0</ele><time>2026-03-29T12:46:42.61Z</time></trkpt><trkpt lat="45.7182816" lon="9.6203104"><ele>271.5</ele><time>2026-03-29T12:46:43.609Z</time></trkpt><trkpt lat="45.7182711" lon="9.6201727"><ele>271.0</ele><time>2026-03-29T12:46:45.61Z</time></trkpt><trkpt lat="45.7182523" lon="9.6200698"><ele>271.0</ele><time>2026-03-29T12:46:47.61Z</time></trkpt><trkpt lat="45.7182074" lon="9.619996"><ele>271.0</ele><time>2026-03-29T12:46:49.61Z</time></trkpt><trkpt lat="45.7181408" lon="9.6200025"><ele>271.0</ele><time>2026-03-29T12:46:51.61Z</time></trkpt><trkpt lat="45.7180611" lon="9.6200919"><ele>271.0</ele><time>2026-03-29T12:46:53.61Z</time></trkpt><trkpt lat="45.7179769" lon="9.6201765"><ele>271.0</ele><time>2026-03-29T12:46:55.61Z</time></trkpt><trkpt lat="45.717882" lon="9.6202568"><ele>271.0</ele><time>2026-03-29T12:46:57.61Z</time></trkpt><trkpt lat="45.7177754" lon="9.6203304"><ele>270.6</ele><time>2026-03-29T12:46:59.61Z</time></trkpt><trkpt lat="45.7176903" lon="9.6204085"><ele>270.20000000000005</ele><time>2026-03-29T12:47:01.609Z</time></trkpt><trkpt lat="45.717601" lon="9.6204569"><ele>269.79999999999995</ele><time>2026-03-29T12:47:03.61Z</time></trkpt><trkpt lat="45.7175399" lon="9.6203777"><ele>269.4</ele><time>2026-03-29T12:47:05.61Z</time></trkpt><trkpt lat="45.7175254" lon="9.6202368"><ele>269.0</ele><time>2026-03-29T12:47:07.61Z</time></trkpt><trkpt lat="45.7175038" lon="9.6200888"><ele>269.0</ele><time>2026-03-29T12:47:09.61Z</time></trkpt><trkpt lat="45.7174617" lon="9.6199347"><ele>269.0</ele><time>2026-03-29T12:47:11.61Z</time></trkpt><trkpt lat="45.7174159" lon="9.6197833"><ele>269.0</ele><time>2026-03-29T12:47:13.61Z</time></trkpt><trkpt lat="45.7173984" lon="9.6196832"><ele>269.0</ele><time>2026-03-29T12:47:14.61Z</time></trkpt><trkpt lat="45.7173821" lon="9.6195157"><ele>269.0</ele><time>2026-03-29T12:47:16.61Z</time></trkpt><trkpt lat="45.7173561" lon="9.6193496"><ele>268.5</ele><time>2026-03-29T12:47:18.61Z</time></trkpt><trkpt lat="45.7173402" lon="9.6192508"><ele>268.0</ele><time>2026-03-29T12:47:19.61Z</time></trkpt><trkpt lat="45.7173257" lon="9.6191482"><ele>267.5</ele><time>2026-03-29T12:47:20.61Z</time></trkpt><trkpt lat="45.7173101" lon="9.6190509"><ele>267.0</ele><time>2026-03-29T12:47:21.61Z</time></trkpt><trkpt lat="45.7172943" lon="9.6189552"><ele>266.5</ele><time>2026-03-29T12:47:22.61Z</time></trkpt><trkpt lat="45.7172648" lon="9.6187862"><ele>266.0</ele><time>2026-03-29T12:47:24.61Z</time></trkpt><trkpt lat="45.717247" lon="9.6186191"><ele>265.6</ele><time>2026-03-29T12:47:26.61Z</time></trkpt><trkpt lat="45.7172056" lon="9.6185201"><ele>265.20000000000005</ele><time>2026-03-29T12:47:28.61Z</time></trkpt><trkpt lat="45.7171264" lon="9.6185056"><ele>264.79999999999995</ele><time>2026-03-29T12:47:30.61Z</time></trkpt><trkpt lat="45.7170673" lon="9.6184211"><ele>264.4</ele><time>2026-03-29T12:47:32.61Z</time></trkpt><trkpt lat="45.7170629" lon="9.6182762"><ele>264.0</ele><time>2026-03-29T12:47:34.61Z</time></trkpt><trkpt lat="45.7170607" lon="9.6181211"><ele>264.0</ele><time>2026-03-29T12:47:36.61Z</time></trkpt><trkpt lat="45.7170472" lon="9.6179651"><ele>264.0</ele><time>2026-03-29T12:47:38.61Z</time></trkpt><trkpt lat="45.7170385" lon="9.6178026"><ele>264.0</ele><time>2026-03-29T12:47:40.609Z</time></trkpt><trkpt lat="45.7170313" lon="9.6177084"><ele>264.0</ele><time>2026-03-29T12:47:41.61Z</time></trkpt><trkpt lat="45.716971" lon="9.6175806"><ele>264.0</ele><time>2026-03-29T12:47:43.61Z</time></trkpt><trkpt lat="45.7168662" lon="9.6175737"><ele>263.8</ele><time>2026-03-29T12:47:45.61Z</time></trkpt><trkpt lat="45.7167655" lon="9.6175691"><ele>263.59999999999997</ele><time>2026-03-29T12:47:47.61Z</time></trkpt><trkpt lat="45.7166581" lon="9.6175637"><ele>263.4</ele><time>2026-03-29T12:47:49.61Z</time></trkpt><trkpt lat="45.7165471" lon="9.6175337"><ele>263.2</ele><time>2026-03-29T12:47:51.61Z</time></trkpt><trkpt lat="45.7164371" lon="9.6175502"><ele>263.0</ele><time>2026-03-29T12:47:53.61Z</time></trkpt><trkpt lat="45.7163133" lon="9.6175647"><ele>263.0</ele><time>2026-03-29T12:47:55.61Z</time></trkpt><trkpt lat="45.7161949" lon="9.6175749"><ele>263.0</ele><time>2026-03-29T12:47:57.61Z</time></trkpt><trkpt lat="45.7160852" lon="9.6175813"><ele>263.0</ele><time>2026-03-29T12:47:59.61Z</time></trkpt><trkpt lat="45.7159735" lon="9.6175749"><ele>263.0</ele><time>2026-03-29T12:48:01.609Z</time></trkpt><trkpt lat="45.7158529" lon="9.6175694"><ele>263.0</ele><time>2026-03-29T12:48:03.609Z</time></trkpt><trkpt lat="45.7157297" lon="9.6175744"><ele>263.0</ele><time>2026-03-29T12:48:05.61Z</time></trkpt><trkpt lat="45.7156611" lon="9.6175851"><ele>263.0</ele><time>2026-03-29T12:48:06.61Z</time></trkpt><trkpt lat="45.715553" lon="9.6175897"><ele>263.0</ele><time>2026-03-29T12:48:08.61Z</time></trkpt><trkpt lat="45.7154421" lon="9.6175942"><ele>263.0</ele><time>2026-03-29T12:48:10.61Z</time></trkpt><trkpt lat="45.7153365" lon="9.617592"><ele>263.0</ele><time>2026-03-29T12:48:12.61Z</time></trkpt><trkpt lat="45.715256" lon="9.6175316"><ele>263.0</ele><time>2026-03-29T12:48:14.61Z</time></trkpt><trkpt lat="45.7151678" lon="9.6175064"><ele>263.0</ele><time>2026-03-29T12:48:17.61Z</time></trkpt><trkpt lat="45.7150944" lon="9.6174882"><ele>263.0</ele><time>2026-03-29T12:48:19.61Z</time></trkpt><trkpt lat="45.7150306" lon="9.6174048"><ele>263.0</ele><time>2026-03-29T12:48:21.609Z</time></trkpt><trkpt lat="45.7149424" lon="9.6173533"><ele>263.0</ele><time>2026-03-29T12:48:23.61Z</time></trkpt><trkpt lat="45.7148391" lon="9.61732"><ele>263.2</ele><time>2026-03-29T12:48:25.61Z</time></trkpt><trkpt lat="45.7147391" lon="9.6173023"><ele>263.4</ele><time>2026-03-29T12:48:27.61Z</time></trkpt><trkpt lat="45.7146255" lon="9.6172855"><ele>263.59999999999997</ele><time>2026-03-29T12:48:29.61Z</time></trkpt><trkpt lat="45.7145141" lon="9.6172707"><ele>263.8</ele><time>2026-03-29T12:48:31.61Z</time></trkpt><trkpt lat="45.7143967" lon="9.6172555"><ele>264.0</ele><time>2026-03-29T12:48:33.61Z</time></trkpt><trkpt lat="45.7142886" lon="9.6172365"><ele>263.59999999999997</ele><time>2026-03-29T12:48:35.609Z</time></trkpt><trkpt lat="45.7141822" lon="9.6172136"><ele>263.2</ele><time>2026-03-29T12:48:37.61Z</time></trkpt><trkpt lat="45.7140671" lon="9.6172094"><ele>262.79999999999995</ele><time>2026-03-29T12:48:39.61Z</time></trkpt><trkpt lat="45.7139475" lon="9.6171936"><ele>262.4</ele><time>2026-03-29T12:48:41.61Z</time></trkpt><trkpt lat="45.7138428" lon="9.6172079"><ele>262.0</ele><time>2026-03-29T12:48:43.61Z</time></trkpt><trkpt lat="45.7137327" lon="9.6172392"><ele>262.0</ele><time>2026-03-29T12:48:45.61Z</time></trkpt><trkpt lat="45.7136283" lon="9.6172636"><ele>262.0</ele><time>2026-03-29T12:48:47.61Z</time></trkpt><trkpt lat="45.7135491" lon="9.6172298"><ele>262.0</ele><time>2026-03-29T12:48:49.61Z</time></trkpt><trkpt lat="45.7135011" lon="9.617138"><ele>262.0</ele><time>2026-03-29T12:48:51.61Z</time></trkpt><trkpt lat="45.7134609" lon="9.6169925"><ele>262.0</ele><time>2026-03-29T12:48:53.61Z</time></trkpt><trkpt lat="45.7134222" lon="9.6169176"><ele>262.0</ele><time>2026-03-29T12:48:54.61Z</time></trkpt><trkpt lat="45.7133684" lon="9.6168003"><ele>262.16666666666663</ele><time>2026-03-29T12:48:56.61Z</time></trkpt><trkpt lat="45.7133003" lon="9.6167064"><ele>262.3333333333333</ele><time>2026-03-29T12:48:58.61Z</time></trkpt><trkpt lat="45.7132484" lon="9.6166441"><ele>262.5</ele><time>2026-03-29T12:48:59.61Z</time></trkpt><trkpt lat="45.7131835" lon="9.6165755"><ele>262.6666666666667</ele><time>2026-03-29T12:49:01.61Z</time></trkpt><trkpt lat="45.7131301" lon="9.6165249"><ele>262.83333333333337</ele><time>2026-03-29T12:49:03.61Z</time></trkpt><trkpt lat="45.7130842" lon="9.6164426"><ele>263.0</ele><time>2026-03-29T12:49:05.61Z</time></trkpt><trkpt lat="45.7130452" lon="9.6162972"><ele>262.4</ele><time>2026-03-29T12:49:07.61Z</time></trkpt><trkpt lat="45.7130043" lon="9.6161262"><ele>261.8</ele><time>2026-03-29T12:49:09.61Z</time></trkpt><trkpt lat="45.7129808" lon="9.615963"><ele>261.2</ele><time>2026-03-29T12:49:11.61Z</time></trkpt><trkpt lat="45.7129485" lon="9.6158031"><ele>260.6</ele><time>2026-03-29T12:49:13.61Z</time></trkpt><trkpt lat="45.7129285" lon="9.6157174"><ele>260.0</ele><time>2026-03-29T12:49:14.61Z</time></trkpt><trkpt lat="45.712888" lon="9.6155691"><ele>260.0</ele><time>2026-03-29T12:49:16.61Z</time></trkpt><trkpt lat="45.7128776" lon="9.6154662"><ele>260.0</ele><time>2026-03-29T12:49:17.61Z</time></trkpt><trkpt lat="45.7128693" lon="9.6153715"><ele>260.0</ele><time>2026-03-29T12:49:18.61Z</time></trkpt><trkpt lat="45.7128427" lon="9.6151885"><ele>260.0</ele><time>2026-03-29T12:49:20.61Z</time></trkpt><trkpt lat="45.712822" lon="9.6150967"><ele>260.0</ele><time>2026-03-29T12:49:21.61Z</time></trkpt><trkpt lat="45.7128028" lon="9.6150023"><ele>260.0</ele><time>2026-03-29T12:49:22.61Z</time></trkpt><trkpt lat="45.7127885" lon="9.614903"><ele>259.6</ele><time>2026-03-29T12:49:23.609Z</time></trkpt><trkpt lat="45.7127536" lon="9.6147384"><ele>259.2</ele><time>2026-03-29T12:49:25.61Z</time></trkpt><trkpt lat="45.7127336" lon="9.6146388"><ele>258.8</ele><time>2026-03-29T12:49:26.61Z</time></trkpt><trkpt lat="45.7126983" lon="9.614472"><ele>258.4</ele><time>2026-03-29T12:49:28.61Z</time></trkpt><trkpt lat="45.7126687" lon="9.614299"><ele>258.0</ele><time>2026-03-29T12:49:30.61Z</time></trkpt><trkpt lat="45.7126548" lon="9.6142053"><ele>258.0</ele><time>2026-03-29T12:49:31.61Z</time></trkpt><trkpt lat="45.7126075" lon="9.6140398"><ele>258.0</ele><time>2026-03-29T12:49:33.61Z</time></trkpt><trkpt lat="45.7125562" lon="9.6138723"><ele>258.0</ele><time>2026-03-29T12:49:35.609Z</time></trkpt><trkpt lat="45.7124957" lon="9.6137217"><ele>258.0</ele><time>2026-03-29T12:49:37.61Z</time></trkpt><trkpt lat="45.7124462" lon="9.6135575"><ele>257.8</ele><time>2026-03-29T12:49:39.61Z</time></trkpt><trkpt lat="45.7124179" lon="9.613399"><ele>257.6</ele><time>2026-03-29T12:49:41.609Z</time></trkpt><trkpt lat="45.7124118" lon="9.6132502"><ele>257.4</ele><time>2026-03-29T12:49:43.61Z</time></trkpt><trkpt lat="45.7123678" lon="9.6131531"><ele>257.2</ele><time>2026-03-29T12:49:45.61Z</time></trkpt><trkpt lat="45.7122701" lon="9.6131034"><ele>257.0</ele><time>2026-03-29T12:49:47.61Z</time></trkpt><trkpt lat="45.7121639" lon="9.613073"><ele>257.0</ele><time>2026-03-29T12:49:49.61Z</time></trkpt><trkpt lat="45.7120461" lon="9.6130345"><ele>257.0</ele><time>2026-03-29T12:49:51.61Z</time></trkpt><trkpt lat="45.7119249" lon="9.6130041"><ele>257.0</ele><time>2026-03-29T12:49:53.609Z</time></trkpt><trkpt lat="45.7118096" lon="9.612976"><ele>257.0</ele><time>2026-03-29T12:49:55.61Z</time></trkpt><trkpt lat="45.7116884" lon="9.61294"><ele>257.4</ele><time>2026-03-29T12:49:57.61Z</time></trkpt><trkpt lat="45.711571" lon="9.612908"><ele>257.79999999999995</ele><time>2026-03-29T12:49:59.609Z</time></trkpt><trkpt lat="45.7114488" lon="9.6128606"><ele>258.2</ele><time>2026-03-29T12:50:01.61Z</time></trkpt><trkpt lat="45.7113842" lon="9.6128494"><ele>258.59999999999997</ele><time>2026-03-29T12:50:02.61Z</time></trkpt><trkpt lat="45.7112671" lon="9.6128154"><ele>259.0</ele><time>2026-03-29T12:50:04.61Z</time></trkpt><trkpt lat="45.7111467" lon="9.6127777"><ele>259.0</ele><time>2026-03-29T12:50:06.61Z</time></trkpt><trkpt lat="45.7110829" lon="9.6127624"><ele>259.0</ele><time>2026-03-29T12:50:07.61Z</time></trkpt><trkpt lat="45.7109592" lon="9.6127233"><ele>259.0</ele><time>2026-03-29T12:50:09.609Z</time></trkpt><trkpt lat="45.7108923" lon="9.6127084"><ele>259.0</ele><time>2026-03-29T12:50:10.61Z</time></trkpt><trkpt lat="45.71083" lon="9.6126934"><ele>259.0</ele><time>2026-03-29T12:50:11.61Z</time></trkpt><trkpt lat="45.7107665" lon="9.6126802"><ele>259.0</ele><time>2026-03-29T12:50:12.61Z</time></trkpt><trkpt lat="45.7107034" lon="9.6126636"><ele>259.0</ele><time>2026-03-29T12:50:13.61Z</time></trkpt><trkpt lat="45.7106401" lon="9.6126372"><ele>259.0</ele><time>2026-03-29T12:50:14.61Z</time></trkpt><trkpt lat="45.710532" lon="9.6126128"><ele>259.0</ele><time>2026-03-29T12:50:16.61Z</time></trkpt><trkpt lat="45.7104535" lon="9.6125713"><ele>259.0</ele><time>2026-03-29T12:50:18.61Z</time></trkpt><trkpt lat="45.710419" lon="9.6124593"><ele>259.0</ele><time>2026-03-29T12:50:20.61Z</time></trkpt><trkpt lat="45.7104188" lon="9.6123059"><ele>259.0</ele><time>2026-03-29T12:50:22.61Z</time></trkpt><trkpt lat="45.710421" lon="9.6122152"><ele>259.0</ele><time>2026-03-29T12:50:23.61Z</time></trkpt><trkpt lat="45.7104076" lon="9.612051"><ele>259.0</ele><time>2026-03-29T12:50:25.609Z</time></trkpt><trkpt lat="45.71041" lon="9.6119567"><ele>259.0</ele><time>2026-03-29T12:50:26.61Z</time></trkpt><trkpt lat="45.7104056" lon="9.6117886"><ele>259.0</ele><time>2026-03-29T12:50:28.61Z</time></trkpt><trkpt lat="45.7104074" lon="9.6116047"><ele>259.16666666666663</ele><time>2026-03-29T12:50:30.61Z</time></trkpt><trkpt lat="45.7104114" lon="9.6115124"><ele>259.3333333333333</ele><time>2026-03-29T12:50:31.61Z</time></trkpt><trkpt lat="45.7104189" lon="9.6113463"><ele>259.5</ele><time>2026-03-29T12:50:33.61Z</time></trkpt><trkpt lat="45.7104194" lon="9.6111738"><ele>259.6666666666667</ele><time>2026-03-29T12:50:35.61Z</time></trkpt><trkpt lat="45.7104211" lon="9.6110751"><ele>259.83333333333337</ele><time>2026-03-29T12:50:36.61Z</time></trkpt><trkpt lat="45.7104233" lon="9.6109834"><ele>260.0</ele><time>2026-03-29T12:50:37.61Z</time></trkpt><trkpt lat="45.7104262" lon="9.6108888"><ele>259.6</ele><time>2026-03-29T12:50:38.61Z</time></trkpt><trkpt lat="45.7104263" lon="9.6107127"><ele>259.2</ele><time>2026-03-29T12:50:40.61Z</time></trkpt><trkpt lat="45.7104267" lon="9.6106127"><ele>258.8</ele><time>2026-03-29T12:50:41.61Z</time></trkpt><trkpt lat="45.7104274" lon="9.6105218"><ele>258.4</ele><time>2026-03-29T12:50:42.61Z</time></trkpt><trkpt lat="45.7104205" lon="9.6103527"><ele>258.0</ele><time>2026-03-29T12:50:44.61Z</time></trkpt><trkpt lat="45.7104165" lon="9.6101705"><ele>258.0</ele><time>2026-03-29T12:50:46.61Z</time></trkpt><trkpt lat="45.7104188" lon="9.6099924"><ele>258.0</ele><time>2026-03-29T12:50:48.61Z</time></trkpt><trkpt lat="45.7104129" lon="9.6098306"><ele>258.0</ele><time>2026-03-29T12:50:50.61Z</time></trkpt><trkpt lat="45.7104291" lon="9.6096519"><ele>258.0</ele><time>2026-03-29T12:50:52.61Z</time></trkpt><trkpt lat="45.7104359" lon="9.6094585"><ele>258.0</ele><time>2026-03-29T12:50:54.61Z</time></trkpt><trkpt lat="45.7104391" lon="9.6092915"><ele>258.0</ele><time>2026-03-29T12:50:56.61Z</time></trkpt><trkpt lat="45.7104385" lon="9.6091316"><ele>258.0</ele><time>2026-03-29T12:50:58.61Z</time></trkpt><trkpt lat="45.7104453" lon="9.6089633"><ele>258.0</ele><time>2026-03-29T12:51:00.61Z</time></trkpt><trkpt lat="45.7104634" lon="9.6087843"><ele>258.0</ele><time>2026-03-29T12:51:02.61Z</time></trkpt><trkpt lat="45.7104903" lon="9.6086912"><ele>258.0</ele><time>2026-03-29T12:51:03.61Z</time></trkpt><trkpt lat="45.7105214" lon="9.6086094"><ele>258.0</ele><time>2026-03-29T12:51:04.61Z</time></trkpt><trkpt lat="45.7105729" lon="9.6084435"><ele>258.0</ele><time>2026-03-29T12:51:06.609Z</time></trkpt><trkpt lat="45.7105857" lon="9.6083507"><ele>258.0</ele><time>2026-03-29T12:51:07.61Z</time></trkpt><trkpt lat="45.7105575" lon="9.6081832"><ele>258.0</ele><time>2026-03-29T12:51:09.609Z</time></trkpt><trkpt lat="45.7105319" lon="9.6080948"><ele>257.99999999999994</ele><time>2026-03-29T12:51:10.61Z</time></trkpt><trkpt lat="45.7105032" lon="9.6080058"><ele>258.0</ele><time>2026-03-29T12:51:11.61Z</time></trkpt><trkpt lat="45.7104795" lon="9.6079039"><ele>258.0</ele><time>2026-03-29T12:51:12.61Z</time></trkpt><trkpt lat="45.7104642" lon="9.6078024"><ele>258.0</ele><time>2026-03-29T12:51:13.61Z</time></trkpt><trkpt lat="45.7104552" lon="9.6076954"><ele>258.0</ele><time>2026-03-29T12:51:14.61Z</time></trkpt><trkpt lat="45.7104521" lon="9.6075904"><ele>257.99999999999994</ele><time>2026-03-29T12:51:15.61Z</time></trkpt><trkpt lat="45.7104498" lon="9.6074882"><ele>258.0</ele><time>2026-03-29T12:51:16.61Z</time></trkpt><trkpt lat="45.7104482" lon="9.6073833"><ele>257.99999999999994</ele><time>2026-03-29T12:51:17.61Z</time></trkpt><trkpt lat="45.7104494" lon="9.6072721"><ele>258.0</ele><time>2026-03-29T12:51:18.61Z</time></trkpt><trkpt lat="45.7104471" lon="9.6071761"><ele>258.0</ele><time>2026-03-29T12:51:19.61Z</time></trkpt><trkpt lat="45.7104444" lon="9.6070767"><ele>258.0</ele><time>2026-03-29T12:51:20.61Z</time></trkpt><trkpt lat="45.7104411" lon="9.6069782"><ele>258.0</ele><time>2026-03-29T12:51:21.61Z</time></trkpt><trkpt lat="45.7104434" lon="9.6068718"><ele>257.99999999999994</ele><time>2026-03-29T12:51:22.61Z</time></trkpt><trkpt lat="45.7104468" lon="9.6067679"><ele>258.0</ele><time>2026-03-29T12:51:23.61Z</time></trkpt><trkpt lat="45.7104429" lon="9.6066661"><ele>257.85714285714283</ele><time>2026-03-29T12:51:24.61Z</time></trkpt><trkpt lat="45.7104387" lon="9.6065668"><ele>257.7142857142857</ele><time>2026-03-29T12:51:25.61Z</time></trkpt><trkpt lat="45.7104347" lon="9.6064619"><ele>257.57142857142856</ele><time>2026-03-29T12:51:26.61Z</time></trkpt><trkpt lat="45.710434" lon="9.6063647"><ele>257.42857142857144</ele><time>2026-03-29T12:51:27.61Z</time></trkpt><trkpt lat="45.7104321" lon="9.6062621"><ele>257.2857142857143</ele><time>2026-03-29T12:51:28.61Z</time></trkpt><trkpt lat="45.7104352" lon="9.6061614"><ele>257.1428571428571</ele><time>2026-03-29T12:51:29.61Z</time></trkpt><trkpt lat="45.7104382" lon="9.6060544"><ele>257.0</ele><time>2026-03-29T12:51:30.61Z</time></trkpt><trkpt lat="45.7104365" lon="9.6059524"><ele>257.0</ele><time>2026-03-29T12:51:31.61Z</time></trkpt><trkpt lat="45.7104372" lon="9.6058488"><ele>257.0</ele><time>2026-03-29T12:51:32.61Z</time></trkpt><trkpt lat="45.710438" lon="9.6057455"><ele>257.0</ele><time>2026-03-29T12:51:33.61Z</time></trkpt><trkpt lat="45.710437" lon="9.6056393"><ele>257.0</ele><time>2026-03-29T12:51:34.609Z</time></trkpt><trkpt lat="45.7104333" lon="9.6055426"><ele>257.0</ele><time>2026-03-29T12:51:35.609Z</time></trkpt><trkpt lat="45.7104333" lon="9.6054418"><ele>257.0</ele><time>2026-03-29T12:51:36.61Z</time></trkpt><trkpt lat="45.7104322" lon="9.6053361"><ele>257.0</ele><time>2026-03-29T12:51:37.61Z</time></trkpt><trkpt lat="45.7104288" lon="9.6052299"><ele>257.1428571428571</ele><time>2026-03-29T12:51:38.61Z</time></trkpt><trkpt lat="45.710428" lon="9.605123"><ele>257.2857142857143</ele><time>2026-03-29T12:51:39.609Z</time></trkpt><trkpt lat="45.7104292" lon="9.6050152"><ele>257.42857142857144</ele><time>2026-03-29T12:51:40.609Z</time></trkpt><trkpt lat="45.7104251" lon="9.6049118"><ele>257.57142857142856</ele><time>2026-03-29T12:51:41.61Z</time></trkpt><trkpt lat="45.7104223" lon="9.6048074"><ele>257.7142857142857</ele><time>2026-03-29T12:51:42.61Z</time></trkpt><trkpt lat="45.7104145" lon="9.6047101"><ele>257.85714285714283</ele><time>2026-03-29T12:51:43.609Z</time></trkpt><trkpt lat="45.7104173" lon="9.6046061"><ele>258.0</ele><time>2026-03-29T12:51:44.61Z</time></trkpt><trkpt lat="45.7104168" lon="9.6044974"><ele>257.8333333333333</ele><time>2026-03-29T12:51:45.61Z</time></trkpt><trkpt lat="45.7104176" lon="9.6044022"><ele>257.6666666666667</ele><time>2026-03-29T12:51:46.61Z</time></trkpt><trkpt lat="45.7104186" lon="9.6042223"><ele>257.5</ele><time>2026-03-29T12:51:48.61Z</time></trkpt><trkpt lat="45.7104168" lon="9.6041111"><ele>257.33333333333337</ele><time>2026-03-29T12:51:49.61Z</time></trkpt><trkpt lat="45.7104189" lon="9.6040067"><ele>257.1666666666667</ele><time>2026-03-29T12:51:50.61Z</time></trkpt><trkpt lat="45.7104202" lon="9.6039099"><ele>257.0</ele><time>2026-03-29T12:51:51.61Z</time></trkpt><trkpt lat="45.7104256" lon="9.6038027"><ele>257.0</ele><time>2026-03-29T12:51:52.61Z</time></trkpt><trkpt lat="45.7104276" lon="9.6036982"><ele>257.0</ele><time>2026-03-29T12:51:53.61Z</time></trkpt><trkpt lat="45.7104261" lon="9.6035942"><ele>257.0</ele><time>2026-03-29T12:51:54.609Z</time></trkpt><trkpt lat="45.7104262" lon="9.6034875"><ele>257.0</ele><time>2026-03-29T12:51:55.61Z</time></trkpt><trkpt lat="45.7104257" lon="9.6033801"><ele>257.0</ele><time>2026-03-29T12:51:56.61Z</time></trkpt><trkpt lat="45.7104234" lon="9.6032774"><ele>257.0</ele><time>2026-03-29T12:51:57.61Z</time></trkpt><trkpt lat="45.710423" lon="9.6031667"><ele>257.0</ele><time>2026-03-29T12:51:58.61Z</time></trkpt><trkpt lat="45.7104229" lon="9.6030562"><ele>256.33333333333337</ele><time>2026-03-29T12:51:59.61Z</time></trkpt><trkpt lat="45.7104222" lon="9.6029401"><ele>255.66666666666669</ele><time>2026-03-29T12:52:00.61Z</time></trkpt><trkpt lat="45.7104208" lon="9.6028224"><ele>255.0</ele><time>2026-03-29T12:52:01.61Z</time></trkpt><trkpt lat="45.710422" lon="9.602713"><ele>254.33333333333331</ele><time>2026-03-29T12:52:02.61Z</time></trkpt><trkpt lat="45.7104212" lon="9.6025976"><ele>253.66666666666666</ele><time>2026-03-29T12:52:03.61Z</time></trkpt><trkpt lat="45.7104227" lon="9.6024864"><ele>253.0</ele><time>2026-03-29T12:52:04.61Z</time></trkpt><trkpt lat="45.710424" lon="9.6023677"><ele>252.83333333333331</ele><time>2026-03-29T12:52:05.61Z</time></trkpt><trkpt lat="45.7104298" lon="9.6022447"><ele>252.66666666666666</ele><time>2026-03-29T12:52:06.61Z</time></trkpt><trkpt lat="45.7104364" lon="9.602124"><ele>252.5</ele><time>2026-03-29T12:52:07.61Z</time></trkpt><trkpt lat="45.7104415" lon="9.6019845"><ele>252.33333333333331</ele><time>2026-03-29T12:52:08.61Z</time></trkpt><trkpt lat="45.7104411" lon="9.601875"><ele>252.16666666666666</ele><time>2026-03-29T12:52:09.609Z</time></trkpt><trkpt lat="45.7104443" lon="9.6017576"><ele>252.0</ele><time>2026-03-29T12:52:10.61Z</time></trkpt><trkpt lat="45.7104495" lon="9.6016403"><ele>251.33333333333334</ele><time>2026-03-29T12:52:11.61Z</time></trkpt><trkpt lat="45.7104545" lon="9.6015193"><ele>250.66666666666669</ele><time>2026-03-29T12:52:12.61Z</time></trkpt><trkpt lat="45.7104602" lon="9.601396"><ele>250.0</ele><time>2026-03-29T12:52:13.61Z</time></trkpt><trkpt lat="45.7104665" lon="9.6012766"><ele>249.33333333333334</ele><time>2026-03-29T12:52:14.61Z</time></trkpt><trkpt lat="45.7104727" lon="9.6011596"><ele>248.66666666666669</ele><time>2026-03-29T12:52:15.61Z</time></trkpt><trkpt lat="45.7104763" lon="9.6010486"><ele>248.0</ele><time>2026-03-29T12:52:16.609Z</time></trkpt><trkpt lat="45.710481" lon="9.6009326"><ele>247.83333333333334</ele><time>2026-03-29T12:52:17.61Z</time></trkpt><trkpt lat="45.7104846" lon="9.6008194"><ele>247.66666666666669</ele><time>2026-03-29T12:52:18.61Z</time></trkpt><trkpt lat="45.7104925" lon="9.6007074"><ele>247.5</ele><time>2026-03-29T12:52:19.61Z</time></trkpt><trkpt lat="45.710502" lon="9.6005763"><ele>247.33333333333331</ele><time>2026-03-29T12:52:20.61Z</time></trkpt><trkpt lat="45.7105073" lon="9.6004661"><ele>247.16666666666666</ele><time>2026-03-29T12:52:21.61Z</time></trkpt><trkpt lat="45.7105137" lon="9.6003599"><ele>247.0</ele><time>2026-03-29T12:52:22.61Z</time></trkpt><trkpt lat="45.7105195" lon="9.6002482"><ele>246.83333333333331</ele><time>2026-03-29T12:52:23.61Z</time></trkpt><trkpt lat="45.7105248" lon="9.6001396"><ele>246.66666666666666</ele><time>2026-03-29T12:52:24.61Z</time></trkpt><trkpt lat="45.7105313" lon="9.6000352"><ele>246.5</ele><time>2026-03-29T12:52:25.61Z</time></trkpt><trkpt lat="45.7105367" lon="9.5999291"><ele>246.33333333333331</ele><time>2026-03-29T12:52:26.609Z</time></trkpt><trkpt lat="45.7105425" lon="9.5998035"><ele>246.16666666666666</ele><time>2026-03-29T12:52:27.609Z</time></trkpt><trkpt lat="45.7105479" lon="9.5996975"><ele>246.0</ele><time>2026-03-29T12:52:28.61Z</time></trkpt><trkpt lat="45.710556" lon="9.5995769"><ele>245.8571428571429</ele><time>2026-03-29T12:52:29.61Z</time></trkpt><trkpt lat="45.7105647" lon="9.5994743"><ele>245.71428571428572</ele><time>2026-03-29T12:52:30.609Z</time></trkpt><trkpt lat="45.7105719" lon="9.5993724"><ele>245.57142857142858</ele><time>2026-03-29T12:52:31.61Z</time></trkpt><trkpt lat="45.710576" lon="9.5992702"><ele>245.42857142857144</ele><time>2026-03-29T12:52:32.61Z</time></trkpt><trkpt lat="45.7105782" lon="9.59917"><ele>245.28571428571428</ele><time>2026-03-29T12:52:33.61Z</time></trkpt><trkpt lat="45.7105861" lon="9.5990586"><ele>245.14285714285714</ele><time>2026-03-29T12:52:34.609Z</time></trkpt><trkpt lat="45.7105927" lon="9.5989524"><ele>245.0</ele><time>2026-03-29T12:52:35.61Z</time></trkpt><trkpt lat="45.7106003" lon="9.5988426"><ele>245.0</ele><time>2026-03-29T12:52:36.61Z</time></trkpt><trkpt lat="45.7106007" lon="9.5987324"><ele>245.0</ele><time>2026-03-29T12:52:37.61Z</time></trkpt><trkpt lat="45.710605" lon="9.598635"><ele>245.0</ele><time>2026-03-29T12:52:38.61Z</time></trkpt><trkpt lat="45.7106089" lon="9.5985232"><ele>245.0</ele><time>2026-03-29T12:52:39.61Z</time></trkpt><trkpt lat="45.7106085" lon="9.5984195"><ele>245.0</ele><time>2026-03-29T12:52:40.61Z</time></trkpt><trkpt lat="45.7106147" lon="9.5983202"><ele>245.0</ele><time>2026-03-29T12:52:41.61Z</time></trkpt><trkpt lat="45.7106218" lon="9.5982102"><ele>245.0</ele><time>2026-03-29T12:52:42.61Z</time></trkpt><trkpt lat="45.7106268" lon="9.5981057"><ele>244.85714285714286</ele><time>2026-03-29T12:52:43.61Z</time></trkpt><trkpt lat="45.7106285" lon="9.5979994"><ele>244.71428571428572</ele><time>2026-03-29T12:52:44.61Z</time></trkpt><trkpt lat="45.7106316" lon="9.5978984"><ele>244.57142857142856</ele><time>2026-03-29T12:52:45.61Z</time></trkpt><trkpt lat="45.710636" lon="9.5977969"><ele>244.42857142857142</ele><time>2026-03-29T12:52:46.61Z</time></trkpt><trkpt lat="45.7106425" lon="9.5976927"><ele>244.28571428571428</ele><time>2026-03-29T12:52:47.61Z</time></trkpt><trkpt lat="45.7106444" lon="9.5975914"><ele>244.1428571428571</ele><time>2026-03-29T12:52:48.61Z</time></trkpt><trkpt lat="45.7106484" lon="9.597483"><ele>243.99999999999997</ele><time>2026-03-29T12:52:49.61Z</time></trkpt><trkpt lat="45.7106536" lon="9.5973729"><ele>243.99999999999997</ele><time>2026-03-29T12:52:50.61Z</time></trkpt><trkpt lat="45.7106578" lon="9.5972688"><ele>244.0</ele><time>2026-03-29T12:52:51.61Z</time></trkpt><trkpt lat="45.7106628" lon="9.597164"><ele>244.0</ele><time>2026-03-29T12:52:52.61Z</time></trkpt><trkpt lat="45.7106657" lon="9.5970633"><ele>244.0</ele><time>2026-03-29T12:52:53.61Z</time></trkpt><trkpt lat="45.7106712" lon="9.5969434"><ele>243.99999999999997</ele><time>2026-03-29T12:52:54.609Z</time></trkpt><trkpt lat="45.7106743" lon="9.5968253"><ele>244.0</ele><time>2026-03-29T12:52:55.61Z</time></trkpt><trkpt lat="45.7106751" lon="9.5967112"><ele>243.66666666666666</ele><time>2026-03-29T12:52:56.61Z</time></trkpt><trkpt lat="45.7106786" lon="9.5965989"><ele>243.33333333333331</ele><time>2026-03-29T12:52:57.61Z</time></trkpt><trkpt lat="45.7106768" lon="9.5964833"><ele>243.0</ele><time>2026-03-29T12:52:58.61Z</time></trkpt><trkpt lat="45.7106805" lon="9.5963697"><ele>242.66666666666669</ele><time>2026-03-29T12:52:59.61Z</time></trkpt><trkpt lat="45.7106829" lon="9.5962477"><ele>242.33333333333334</ele><time>2026-03-29T12:53:00.61Z</time></trkpt><trkpt lat="45.7106879" lon="9.5961296"><ele>242.0</ele><time>2026-03-29T12:53:01.61Z</time></trkpt><trkpt lat="45.7106913" lon="9.5960142"><ele>241.39999999999998</ele><time>2026-03-29T12:53:02.61Z</time></trkpt><trkpt lat="45.7106872" lon="9.5959045"><ele>240.79999999999998</ele><time>2026-03-29T12:53:03.61Z</time></trkpt><trkpt lat="45.7106903" lon="9.5957916"><ele>240.2</ele><time>2026-03-29T12:53:04.61Z</time></trkpt><trkpt lat="45.7106576" lon="9.5956257"><ele>239.6</ele><time>2026-03-29T12:53:06.61Z</time></trkpt><trkpt lat="45.7106215" lon="9.5955503"><ele>239.0</ele><time>2026-03-29T12:53:07.61Z</time></trkpt><trkpt lat="45.7105182" lon="9.5954633"><ele>239.0</ele><time>2026-03-29T12:53:09.61Z</time></trkpt><trkpt lat="45.710412" lon="9.5953979"><ele>239.0</ele><time>2026-03-29T12:53:11.61Z</time></trkpt><trkpt lat="45.7103076" lon="9.5953198"><ele>239.0</ele><time>2026-03-29T12:53:13.61Z</time></trkpt><trkpt lat="45.7102072" lon="9.5952295"><ele>239.0</ele><time>2026-03-29T12:53:15.61Z</time></trkpt><trkpt lat="45.7101097" lon="9.595142"><ele>239.2</ele><time>2026-03-29T12:53:17.61Z</time></trkpt><trkpt lat="45.7100062" lon="9.595058"><ele>239.39999999999998</ele><time>2026-03-29T12:53:19.61Z</time></trkpt><trkpt lat="45.7099015" lon="9.5949648"><ele>239.6</ele><time>2026-03-29T12:53:21.61Z</time></trkpt><trkpt lat="45.7098461" lon="9.5949215"><ele>239.8</ele><time>2026-03-29T12:53:22.61Z</time></trkpt><trkpt lat="45.7097441" lon="9.5948451"><ele>240.0</ele><time>2026-03-29T12:53:24.61Z</time></trkpt><trkpt lat="45.7096435" lon="9.594767"><ele>240.0</ele><time>2026-03-29T12:53:26.61Z</time></trkpt><trkpt lat="45.7095309" lon="9.5946935"><ele>240.0</ele><time>2026-03-29T12:53:28.61Z</time></trkpt><trkpt lat="45.7094199" lon="9.5946206"><ele>240.0</ele><time>2026-03-29T12:53:30.61Z</time></trkpt><trkpt lat="45.7093051" lon="9.5945495"><ele>240.0</ele><time>2026-03-29T12:53:32.609Z</time></trkpt><trkpt lat="45.709244" lon="9.5945176"><ele>240.0</ele><time>2026-03-29T12:53:33.609Z</time></trkpt><trkpt lat="45.7091805" lon="9.5944914"><ele>239.83333333333334</ele><time>2026-03-29T12:53:34.609Z</time></trkpt><trkpt lat="45.7090603" lon="9.5944427"><ele>239.66666666666669</ele><time>2026-03-29T12:53:36.609Z</time></trkpt><trkpt lat="45.7089979" lon="9.5944132"><ele>239.5</ele><time>2026-03-29T12:53:37.61Z</time></trkpt><trkpt lat="45.7089361" lon="9.5943888"><ele>239.33333333333334</ele><time>2026-03-29T12:53:38.61Z</time></trkpt><trkpt lat="45.7088747" lon="9.5943569"><ele>239.16666666666669</ele><time>2026-03-29T12:53:39.61Z</time></trkpt><trkpt lat="45.7087544" lon="9.5942969"><ele>239.0</ele><time>2026-03-29T12:53:41.61Z</time></trkpt><trkpt lat="45.7086906" lon="9.5942676"><ele>239.39999999999998</ele><time>2026-03-29T12:53:42.61Z</time></trkpt><trkpt lat="45.7085733" lon="9.5942172"><ele>239.79999999999998</ele><time>2026-03-29T12:53:44.61Z</time></trkpt><trkpt lat="45.708512" lon="9.5941849"><ele>240.20000000000002</ele><time>2026-03-29T12:53:45.61Z</time></trkpt><trkpt lat="45.7084477" lon="9.5941549"><ele>240.60000000000002</ele><time>2026-03-29T12:53:46.61Z</time></trkpt><trkpt lat="45.7083209" lon="9.59408"><ele>241.0</ele><time>2026-03-29T12:53:48.609Z</time></trkpt><trkpt lat="45.7082591" lon="9.5940508"><ele>241.0</ele><time>2026-03-29T12:53:49.61Z</time></trkpt><trkpt lat="45.7081926" lon="9.5940171"><ele>241.00000000000003</ele><time>2026-03-29T12:53:50.61Z</time></trkpt><trkpt lat="45.7081269" lon="9.5939833"><ele>241.0</ele><time>2026-03-29T12:53:51.61Z</time></trkpt><trkpt lat="45.7080597" lon="9.5939556"><ele>241.0</ele><time>2026-03-29T12:53:52.61Z</time></trkpt><trkpt lat="45.7079919" lon="9.5939205"><ele>241.00000000000003</ele><time>2026-03-29T12:53:53.61Z</time></trkpt><trkpt lat="45.7079253" lon="9.5938828"><ele>241.0</ele><time>2026-03-29T12:53:54.61Z</time></trkpt><trkpt lat="45.7078583" lon="9.5938593"><ele>241.0</ele><time>2026-03-29T12:53:55.61Z</time></trkpt><trkpt lat="45.707796" lon="9.5938289"><ele>240.85714285714286</ele><time>2026-03-29T12:53:56.61Z</time></trkpt><trkpt lat="45.7077295" lon="9.5937953"><ele>240.71428571428572</ele><time>2026-03-29T12:53:57.61Z</time></trkpt><trkpt lat="45.7076633" lon="9.5937591"><ele>240.57142857142858</ele><time>2026-03-29T12:53:58.609Z</time></trkpt><trkpt lat="45.707588" lon="9.5937164"><ele>240.42857142857144</ele><time>2026-03-29T12:53:59.61Z</time></trkpt><trkpt lat="45.7075135" lon="9.5936819"><ele>240.28571428571428</ele><time>2026-03-29T12:54:00.61Z</time></trkpt><trkpt lat="45.7074485" lon="9.5936498"><ele>240.14285714285717</ele><time>2026-03-29T12:54:01.609Z</time></trkpt><trkpt lat="45.7073828" lon="9.5936137"><ele>240.0</ele><time>2026-03-29T12:54:02.61Z</time></trkpt><trkpt lat="45.7073208" lon="9.5935797"><ele>239.66666666666666</ele><time>2026-03-29T12:54:03.61Z</time></trkpt><trkpt lat="45.7072553" lon="9.5935493"><ele>239.33333333333331</ele><time>2026-03-29T12:54:04.61Z</time></trkpt><trkpt lat="45.7071926" lon="9.5935152"><ele>239.0</ele><time>2026-03-29T12:54:05.61Z</time></trkpt><trkpt lat="45.7071249" lon="9.593487"><ele>238.66666666666666</ele><time>2026-03-29T12:54:06.61Z</time></trkpt><trkpt lat="45.7070593" lon="9.5934604"><ele>238.33333333333331</ele><time>2026-03-29T12:54:07.61Z</time></trkpt><trkpt lat="45.7069405" lon="9.5934012"><ele>238.0</ele><time>2026-03-29T12:54:09.609Z</time></trkpt><trkpt lat="45.7068715" lon="9.5933646"><ele>237.60000000000002</ele><time>2026-03-29T12:54:10.61Z</time></trkpt><trkpt lat="45.7067641" lon="9.593294"><ele>237.20000000000002</ele><time>2026-03-29T12:54:12.61Z</time></trkpt><trkpt lat="45.7066922" lon="9.59321"><ele>236.8</ele><time>2026-03-29T12:54:14.61Z</time></trkpt><trkpt lat="45.7066185" lon="9.5931369"><ele>236.4</ele><time>2026-03-29T12:54:17.61Z</time></trkpt><trkpt lat="45.7065346" lon="9.5931426"><ele>236.0</ele><time>2026-03-29T12:54:19.61Z</time></trkpt><trkpt lat="45.7064398" lon="9.5931873"><ele>236.0</ele><time>2026-03-29T12:54:21.609Z</time></trkpt><trkpt lat="45.706341" lon="9.5932445"><ele>236.00000000000003</ele><time>2026-03-29T12:54:23.61Z</time></trkpt><trkpt lat="45.7062421" lon="9.5933059"><ele>236.00000000000003</ele><time>2026-03-29T12:54:25.61Z</time></trkpt><trkpt lat="45.706138" lon="9.5933795"><ele>236.0</ele><time>2026-03-29T12:54:27.61Z</time></trkpt><trkpt lat="45.7060317" lon="9.593446"><ele>236.0</ele><time>2026-03-29T12:54:29.61Z</time></trkpt><trkpt lat="45.705916" lon="9.5935177"><ele>235.66666666666669</ele><time>2026-03-29T12:54:31.61Z</time></trkpt><trkpt lat="45.7058539" lon="9.5935473"><ele>235.33333333333334</ele><time>2026-03-29T12:54:32.61Z</time></trkpt><trkpt lat="45.7057805" lon="9.5935844"><ele>235.0</ele><time>2026-03-29T12:54:33.61Z</time></trkpt><trkpt lat="45.7056818" lon="9.5936478"><ele>234.66666666666669</ele><time>2026-03-29T12:54:35.609Z</time></trkpt><trkpt lat="45.7055816" lon="9.5937109"><ele>234.33333333333334</ele><time>2026-03-29T12:54:37.609Z</time></trkpt><trkpt lat="45.7055114" lon="9.593746"><ele>234.0</ele><time>2026-03-29T12:54:38.61Z</time></trkpt><trkpt lat="45.7054454" lon="9.5937777"><ele>234.0</ele><time>2026-03-29T12:54:39.61Z</time></trkpt><trkpt lat="45.7053778" lon="9.5938172"><ele>234.00000000000003</ele><time>2026-03-29T12:54:40.61Z</time></trkpt><trkpt lat="45.7053166" lon="9.5938519"><ele>234.0</ele><time>2026-03-29T12:54:41.61Z</time></trkpt><trkpt lat="45.7052544" lon="9.5938888"><ele>234.0</ele><time>2026-03-29T12:54:42.61Z</time></trkpt><trkpt lat="45.7051869" lon="9.5939352"><ele>234.00000000000003</ele><time>2026-03-29T12:54:43.61Z</time></trkpt><trkpt lat="45.7051169" lon="9.5939668"><ele>234.0</ele><time>2026-03-29T12:54:44.61Z</time></trkpt><trkpt lat="45.7050603" lon="9.5940085"><ele>234.0</ele><time>2026-03-29T12:54:45.61Z</time></trkpt><trkpt lat="45.7050019" lon="9.5940474"><ele>233.39999999999998</ele><time>2026-03-29T12:54:46.61Z</time></trkpt><trkpt lat="45.7048854" lon="9.5940557"><ele>232.79999999999998</ele><time>2026-03-29T12:54:48.61Z</time></trkpt><trkpt lat="45.7048247" lon="9.594015"><ele>232.20000000000002</ele><time>2026-03-29T12:54:49.61Z</time></trkpt><trkpt lat="45.7047387" lon="9.5938741"><ele>231.60000000000002</ele><time>2026-03-29T12:54:51.61Z</time></trkpt><trkpt lat="45.7047172" lon="9.5937848"><ele>231.0</ele><time>2026-03-29T12:54:52.61Z</time></trkpt><trkpt lat="45.7046947" lon="9.59369"><ele>231.0</ele><time>2026-03-29T12:54:53.61Z</time></trkpt><trkpt lat="45.7046675" lon="9.593597"><ele>231.0</ele><time>2026-03-29T12:54:54.61Z</time></trkpt><trkpt lat="45.7046433" lon="9.5935032"><ele>231.0</ele><time>2026-03-29T12:54:55.61Z</time></trkpt><trkpt lat="45.7046174" lon="9.5934074"><ele>231.0</ele><time>2026-03-29T12:54:56.61Z</time></trkpt><trkpt lat="45.704593" lon="9.5933089"><ele>231.0</ele><time>2026-03-29T12:54:57.61Z</time></trkpt><trkpt lat="45.7045711" lon="9.5932087"><ele>231.0</ele><time>2026-03-29T12:54:58.61Z</time></trkpt><trkpt lat="45.7045487" lon="9.5931144"><ele>231.0</ele><time>2026-03-29T12:54:59.61Z</time></trkpt><trkpt lat="45.7045259" lon="9.5930218"><ele>231.0</ele><time>2026-03-29T12:55:00.61Z</time></trkpt><trkpt lat="45.7045" lon="9.5929308"><ele>231.00000000000003</ele><time>2026-03-29T12:55:01.609Z</time></trkpt><trkpt lat="45.7044808" lon="9.5928321"><ele>231.00000000000003</ele><time>2026-03-29T12:55:02.609Z</time></trkpt><trkpt lat="45.7044329" lon="9.5926568"><ele>231.0</ele><time>2026-03-29T12:55:04.61Z</time></trkpt><trkpt lat="45.7043809" lon="9.5924799"><ele>231.0</ele><time>2026-03-29T12:55:06.61Z</time></trkpt><trkpt lat="45.7043584" lon="9.5923896"><ele>231.0</ele><time>2026-03-29T12:55:07.61Z</time></trkpt><trkpt lat="45.7043271" lon="9.5922256"><ele>231.0</ele><time>2026-03-29T12:55:09.61Z</time></trkpt><trkpt lat="45.7043338" lon="9.5920877"><ele>231.0</ele><time>2026-03-29T12:55:11.61Z</time></trkpt><trkpt lat="45.7043488" lon="9.5919936"><ele>231.0</ele><time>2026-03-29T12:55:14.61Z</time></trkpt><trkpt lat="45.70439" lon="9.5918991"><ele>231.0</ele><time>2026-03-29T12:55:17.61Z</time></trkpt><trkpt lat="45.7043656" lon="9.5917964"><ele>231.0</ele><time>2026-03-29T12:55:21.609Z</time></trkpt><trkpt lat="45.7042697" lon="9.5918556"><ele>231.0</ele><time>2026-03-29T12:55:23.61Z</time></trkpt><trkpt lat="45.7041882" lon="9.5919034"><ele>231.00000000000003</ele><time>2026-03-29T12:55:25.61Z</time></trkpt><trkpt lat="45.7040939" lon="9.5919502"><ele>231.00000000000003</ele><time>2026-03-29T12:55:27.609Z</time></trkpt><trkpt lat="45.7039847" lon="9.5920097"><ele>231.0</ele><time>2026-03-29T12:55:29.61Z</time></trkpt><trkpt lat="45.7038875" lon="9.5920664"><ele>231.0</ele><time>2026-03-29T12:55:31.61Z</time></trkpt><trkpt lat="45.7037831" lon="9.5921191"><ele>231.0</ele><time>2026-03-29T12:55:33.609Z</time></trkpt><trkpt lat="45.7037242" lon="9.5921517"><ele>231.0</ele><time>2026-03-29T12:55:34.61Z</time></trkpt><trkpt lat="45.7036682" lon="9.5921944"><ele>231.0</ele><time>2026-03-29T12:55:35.609Z</time></trkpt><trkpt lat="45.7036065" lon="9.5922217"><ele>231.0</ele><time>2026-03-29T12:55:36.61Z</time></trkpt><trkpt lat="45.7035435" lon="9.5922575"><ele>231.0</ele><time>2026-03-29T12:55:37.61Z</time></trkpt><trkpt lat="45.7034816" lon="9.5922881"><ele>231.0</ele><time>2026-03-29T12:55:38.61Z</time></trkpt><trkpt lat="45.7034172" lon="9.5923157"><ele>231.0</ele><time>2026-03-29T12:55:39.61Z</time></trkpt><trkpt lat="45.703354" lon="9.5923518"><ele>231.0</ele><time>2026-03-29T12:55:40.61Z</time></trkpt><trkpt lat="45.7032425" lon="9.5924229"><ele>231.00000000000003</ele><time>2026-03-29T12:55:42.61Z</time></trkpt><trkpt lat="45.7031307" lon="9.5924974"><ele>231.00000000000003</ele><time>2026-03-29T12:55:44.61Z</time></trkpt><trkpt lat="45.7030675" lon="9.5925318"><ele>231.0</ele><time>2026-03-29T12:55:45.61Z</time></trkpt><trkpt lat="45.702961" lon="9.592602"><ele>231.0</ele><time>2026-03-29T12:55:47.61Z</time></trkpt><trkpt lat="45.7028575" lon="9.5926693"><ele>231.0</ele><time>2026-03-29T12:55:49.61Z</time></trkpt><trkpt lat="45.7027574" lon="9.5927134"><ele>231.00000000000003</ele><time>2026-03-29T12:55:51.61Z</time></trkpt><trkpt lat="45.7026933" lon="9.5927373"><ele>231.00000000000003</ele><time>2026-03-29T12:55:52.61Z</time></trkpt><trkpt lat="45.70259" lon="9.5927947"><ele>231.0</ele><time>2026-03-29T12:55:54.61Z</time></trkpt><trkpt lat="45.7025238" lon="9.5928314"><ele>231.0</ele><time>2026-03-29T12:55:55.61Z</time></trkpt><trkpt lat="45.7023994" lon="9.5928526"><ele>230.33333333333334</ele><time>2026-03-29T12:55:57.61Z</time></trkpt><trkpt lat="45.702287" lon="9.5928787"><ele>229.66666666666669</ele><time>2026-03-29T12:55:59.61Z</time></trkpt><trkpt lat="45.7022162" lon="9.5928997"><ele>229.0</ele><time>2026-03-29T12:56:00.61Z</time></trkpt><trkpt lat="45.7021003" lon="9.5929189"><ele>228.33333333333334</ele><time>2026-03-29T12:56:02.61Z</time></trkpt><trkpt lat="45.7020391" lon="9.5929412"><ele>227.66666666666669</ele><time>2026-03-29T12:56:03.61Z</time></trkpt><trkpt lat="45.7019714" lon="9.5929571"><ele>227.0</ele><time>2026-03-29T12:56:04.61Z</time></trkpt><trkpt lat="45.7018506" lon="9.5929925"><ele>227.0</ele><time>2026-03-29T12:56:06.609Z</time></trkpt><trkpt lat="45.701788" lon="9.593013"><ele>227.0</ele><time>2026-03-29T12:56:07.61Z</time></trkpt><trkpt lat="45.7016568" lon="9.5930381"><ele>227.0</ele><time>2026-03-29T12:56:09.61Z</time></trkpt><trkpt lat="45.7015278" lon="9.5930777"><ele>227.0</ele><time>2026-03-29T12:56:11.61Z</time></trkpt><trkpt lat="45.7014029" lon="9.5931048"><ele>227.0</ele><time>2026-03-29T12:56:13.61Z</time></trkpt><trkpt lat="45.7012825" lon="9.5931476"><ele>227.0</ele><time>2026-03-29T12:56:15.61Z</time></trkpt><trkpt lat="45.7011611" lon="9.5931833"><ele>227.0</ele><time>2026-03-29T12:56:17.61Z</time></trkpt><trkpt lat="45.7010456" lon="9.5932007"><ele>227.0</ele><time>2026-03-29T12:56:19.61Z</time></trkpt><trkpt lat="45.7009313" lon="9.5931691"><ele>227.0</ele><time>2026-03-29T12:56:21.61Z</time></trkpt><trkpt lat="45.7008783" lon="9.593116"><ele>227.0</ele><time>2026-03-29T12:56:22.61Z</time></trkpt><trkpt lat="45.7007997" lon="9.5929963"><ele>227.0</ele><time>2026-03-29T12:56:24.609Z</time></trkpt><trkpt lat="45.7007291" lon="9.5928763"><ele>227.0</ele><time>2026-03-29T12:56:26.61Z</time></trkpt><trkpt lat="45.7006371" lon="9.5927891"><ele>227.0</ele><time>2026-03-29T12:56:28.61Z</time></trkpt><trkpt lat="45.7005199" lon="9.5927696"><ele>227.00000000000003</ele><time>2026-03-29T12:56:30.61Z</time></trkpt><trkpt lat="45.7004548" lon="9.5927726"><ele>227.0</ele><time>2026-03-29T12:56:31.61Z</time></trkpt><trkpt lat="45.7003552" lon="9.5927934"><ele>227.0</ele><time>2026-03-29T12:56:33.61Z</time></trkpt><trkpt lat="45.700264" lon="9.5928943"><ele>227.0</ele><time>2026-03-29T12:56:35.61Z</time></trkpt><trkpt lat="45.7002217" lon="9.5929639"><ele>227.00000000000003</ele><time>2026-03-29T12:56:36.61Z</time></trkpt><trkpt lat="45.7002141" lon="9.5930641"><ele>227.0</ele><time>2026-03-29T12:56:37.61Z</time></trkpt><trkpt lat="45.7002452" lon="9.59323"><ele>227.0</ele><time>2026-03-29T12:56:39.61Z</time></trkpt><trkpt lat="45.7003149" lon="9.5933564"><ele>227.0</ele><time>2026-03-29T12:56:41.61Z</time></trkpt><trkpt lat="45.7004067" lon="9.5934529"><ele>227.0</ele><time>2026-03-29T12:56:43.61Z</time></trkpt><trkpt lat="45.7005059" lon="9.5935185"><ele>227.0</ele><time>2026-03-29T12:56:45.61Z</time></trkpt><trkpt lat="45.7006292" lon="9.5935795"><ele>227.0</ele><time>2026-03-29T12:56:47.61Z</time></trkpt><trkpt lat="45.7007001" lon="9.5936231"><ele>227.00000000000003</ele><time>2026-03-29T12:56:48.61Z</time></trkpt><trkpt lat="45.70077" lon="9.5936695"><ele>227.0</ele><time>2026-03-29T12:56:49.61Z</time></trkpt><trkpt lat="45.7008339" lon="9.5937134"><ele>227.0</ele><time>2026-03-29T12:56:50.61Z</time></trkpt><trkpt lat="45.7008984" lon="9.5937532"><ele>227.00000000000003</ele><time>2026-03-29T12:56:51.61Z</time></trkpt><trkpt lat="45.7009634" lon="9.5938"><ele>227.0</ele><time>2026-03-29T12:56:52.61Z</time></trkpt><trkpt lat="45.7010298" lon="9.5938565"><ele>227.0</ele><time>2026-03-29T12:56:53.61Z</time></trkpt><trkpt lat="45.7010897" lon="9.5939142"><ele>226.42857142857144</ele><time>2026-03-29T12:56:54.61Z</time></trkpt><trkpt lat="45.7011508" lon="9.5939812"><ele>225.8571428571429</ele><time>2026-03-29T12:56:55.609Z</time></trkpt><trkpt lat="45.701206" lon="9.5940394"><ele>225.28571428571428</ele><time>2026-03-29T12:56:56.61Z</time></trkpt><trkpt lat="45.7012605" lon="9.5940868"><ele>224.71428571428572</ele><time>2026-03-29T12:56:57.61Z</time></trkpt><trkpt lat="45.7013207" lon="9.5941543"><ele>224.14285714285714</ele><time>2026-03-29T12:56:58.61Z</time></trkpt><trkpt lat="45.7013792" lon="9.5942093"><ele>223.57142857142856</ele><time>2026-03-29T12:56:59.61Z</time></trkpt><trkpt lat="45.7014317" lon="9.5942637"><ele>223.0</ele><time>2026-03-29T12:57:00.61Z</time></trkpt><trkpt lat="45.7014926" lon="9.5943334"><ele>222.99999999999997</ele><time>2026-03-29T12:57:01.61Z</time></trkpt><trkpt lat="45.701546" lon="9.594393"><ele>223.0</ele><time>2026-03-29T12:57:02.61Z</time></trkpt><trkpt lat="45.7016021" lon="9.5944559"><ele>223.0</ele><time>2026-03-29T12:57:03.61Z</time></trkpt><trkpt lat="45.7016977" lon="9.5945562"><ele>223.0</ele><time>2026-03-29T12:57:05.609Z</time></trkpt><trkpt lat="45.7017541" lon="9.5946176"><ele>222.99999999999997</ele><time>2026-03-29T12:57:06.61Z</time></trkpt><trkpt lat="45.7018148" lon="9.5946707"><ele>223.0</ele><time>2026-03-29T12:57:07.61Z</time></trkpt><trkpt lat="45.7019263" lon="9.5947433"><ele>223.0</ele><time>2026-03-29T12:57:09.61Z</time></trkpt><trkpt lat="45.7019796" lon="9.5948159"><ele>223.0</ele><time>2026-03-29T12:57:10.61Z</time></trkpt><trkpt lat="45.7020396" lon="9.5948821"><ele>223.0</ele><time>2026-03-29T12:57:11.61Z</time></trkpt><trkpt lat="45.7020926" lon="9.5949486"><ele>223.0</ele><time>2026-03-29T12:57:12.61Z</time></trkpt><trkpt lat="45.7021873" lon="9.5950625"><ele>223.0</ele><time>2026-03-29T12:57:14.61Z</time></trkpt><trkpt lat="45.702279" lon="9.5951811"><ele>223.0</ele><time>2026-03-29T12:57:16.61Z</time></trkpt><trkpt lat="45.7023496" lon="9.5953144"><ele>223.0</ele><time>2026-03-29T12:57:18.61Z</time></trkpt><trkpt lat="45.7023968" lon="9.5954593"><ele>223.0</ele><time>2026-03-29T12:57:20.61Z</time></trkpt><trkpt lat="45.7024341" lon="9.5956015"><ele>223.0</ele><time>2026-03-29T12:57:22.61Z</time></trkpt><trkpt lat="45.7024625" lon="9.5957373"><ele>223.0</ele><time>2026-03-29T12:57:24.61Z</time></trkpt><trkpt lat="45.7024741" lon="9.5958664"><ele>223.99999999999997</ele><time>2026-03-29T12:57:26.609Z</time></trkpt><trkpt lat="45.7024776" lon="9.595967"><ele>225.0</ele><time>2026-03-29T12:57:28.61Z</time></trkpt><trkpt lat="45.7024753" lon="9.5960899"><ele>226.0</ele><time>2026-03-29T12:57:30.609Z</time></trkpt><trkpt lat="45.7024685" lon="9.5961999"><ele>227.0</ele><time>2026-03-29T12:57:32.61Z</time></trkpt><trkpt lat="45.7024535" lon="9.5963038"><ele>227.99999999999997</ele><time>2026-03-29T12:57:34.61Z</time></trkpt><trkpt lat="45.7024375" lon="9.5964135"><ele>229.0</ele><time>2026-03-29T12:57:36.61Z</time></trkpt><trkpt lat="45.7024287" lon="9.5965214"><ele>229.6</ele><time>2026-03-29T12:57:38.61Z</time></trkpt><trkpt lat="45.7024274" lon="9.5966211"><ele>230.2</ele><time>2026-03-29T12:57:40.61Z</time></trkpt><trkpt lat="45.7024258" lon="9.5967285"><ele>230.79999999999998</ele><time>2026-03-29T12:57:42.61Z</time></trkpt><trkpt lat="45.7024243" lon="9.5965701"><ele>231.39999999999998</ele><time>2026-03-29T12:57:44.609Z</time></trkpt><trkpt lat="45.7024043" lon="9.5967374"><ele>232.0</ele><time>2026-03-29T12:57:47.61Z</time></trkpt><trkpt lat="45.7023965" lon="9.5968572"><ele>232.0</ele><time>2026-03-29T12:57:50.61Z</time></trkpt><trkpt lat="45.7023629" lon="9.5969735"><ele>232.0</ele><time>2026-03-29T12:57:52.61Z</time></trkpt><trkpt lat="45.7023459" lon="9.5970881"><ele>232.0</ele><time>2026-03-29T12:57:54.609Z</time></trkpt><trkpt lat="45.7023383" lon="9.5972534"><ele>232.0</ele><time>2026-03-29T12:57:55.61Z</time></trkpt><trkpt lat="45.702331" lon="9.5974349"><ele>232.0</ele><time>2026-03-29T12:57:56.61Z</time></trkpt><trkpt lat="45.7023234" lon="9.5975736"><ele>232.66666666666666</ele><time>2026-03-29T12:57:57.61Z</time></trkpt><trkpt lat="45.7023178" lon="9.5976799"><ele>233.33333333333331</ele><time>2026-03-29T12:57:58.61Z</time></trkpt><trkpt lat="45.7023103" lon="9.5977724"><ele>234.0</ele><time>2026-03-29T12:57:59.61Z</time></trkpt><trkpt lat="45.7023011" lon="9.597862"><ele>234.66666666666669</ele><time>2026-03-29T12:58:00.609Z</time></trkpt><trkpt lat="45.702285" lon="9.5979997"><ele>235.33333333333334</ele><time>2026-03-29T12:58:02.61Z</time></trkpt><trkpt lat="45.7022711" lon="9.5981179"><ele>236.0</ele><time>2026-03-29T12:58:04.61Z</time></trkpt><trkpt lat="45.7022591" lon="9.598241"><ele>236.4</ele><time>2026-03-29T12:58:06.61Z</time></trkpt><trkpt lat="45.7022487" lon="9.5983758"><ele>236.8</ele><time>2026-03-29T12:58:08.61Z</time></trkpt><trkpt lat="45.7022428" lon="9.5985151"><ele>237.20000000000002</ele><time>2026-03-29T12:58:10.61Z</time></trkpt><trkpt lat="45.7022331" lon="9.598641"><ele>237.60000000000002</ele><time>2026-03-29T12:58:12.61Z</time></trkpt><trkpt lat="45.70222" lon="9.5987726"><ele>238.0</ele><time>2026-03-29T12:58:14.61Z</time></trkpt><trkpt lat="45.7022099" lon="9.5988948"><ele>237.99999999999997</ele><time>2026-03-29T12:58:16.61Z</time></trkpt><trkpt lat="45.7021906" lon="9.5990282"><ele>238.0</ele><time>2026-03-29T12:58:18.61Z</time></trkpt><trkpt lat="45.7021779" lon="9.5991649"><ele>238.0</ele><time>2026-03-29T12:58:20.61Z</time></trkpt><trkpt lat="45.7021667" lon="9.5992939"><ele>238.0</ele><time>2026-03-29T12:58:22.61Z</time></trkpt><trkpt lat="45.7021565" lon="9.5994155"><ele>237.99999999999997</ele><time>2026-03-29T12:58:24.61Z</time></trkpt><trkpt lat="45.7021495" lon="9.5995078"><ele>238.0</ele><time>2026-03-29T12:58:25.61Z</time></trkpt><trkpt lat="45.7021354" lon="9.5996373"><ele>238.33333333333331</ele><time>2026-03-29T12:58:27.61Z</time></trkpt><trkpt lat="45.7021174" lon="9.5997598"><ele>238.66666666666666</ele><time>2026-03-29T12:58:29.61Z</time></trkpt><trkpt lat="45.7021002" lon="9.5998783"><ele>239.0</ele><time>2026-03-29T12:58:31.61Z</time></trkpt><trkpt lat="45.7020674" lon="9.6000054"><ele>239.33333333333331</ele><time>2026-03-29T12:58:33.609Z</time></trkpt><trkpt lat="45.7020304" lon="9.600099"><ele>239.66666666666666</ele><time>2026-03-29T12:58:35.609Z</time></trkpt><trkpt lat="45.7020121" lon="9.6002085"><ele>240.0</ele><time>2026-03-29T12:58:37.61Z</time></trkpt><trkpt lat="45.7020357" lon="9.6003347"><ele>240.33333333333334</ele><time>2026-03-29T12:58:39.61Z</time></trkpt><trkpt lat="45.7020537" lon="9.6004511"><ele>240.66666666666669</ele><time>2026-03-29T12:58:41.61Z</time></trkpt><trkpt lat="45.7020664" lon="9.6005617"><ele>241.0</ele><time>2026-03-29T12:58:43.61Z</time></trkpt><trkpt lat="45.7020725" lon="9.6006696"><ele>241.33333333333334</ele><time>2026-03-29T12:58:45.609Z</time></trkpt><trkpt lat="45.7020815" lon="9.6007748"><ele>241.66666666666669</ele><time>2026-03-29T12:58:47.61Z</time></trkpt><trkpt lat="45.7020869" lon="9.600881"><ele>242.0</ele><time>2026-03-29T12:58:49.61Z</time></trkpt><trkpt lat="45.7020827" lon="9.6007792"><ele>242.00000000000003</ele><time>2026-03-29T12:58:50.61Z</time></trkpt><trkpt lat="45.7020889" lon="9.6008804"><ele>242.0</ele><time>2026-03-29T12:58:53.609Z</time></trkpt><trkpt lat="45.7021008" lon="9.6009944"><ele>242.0</ele><time>2026-03-29T12:58:56.405Z</time></trkpt><trkpt lat="45.7021075" lon="9.6010946"><ele>242.0</ele><time>2026-03-29T12:58:58.609Z</time></trkpt><trkpt lat="45.7021238" lon="9.6012217"><ele>242.00000000000003</ele><time>2026-03-29T12:59:01.61Z</time></trkpt><trkpt lat="45.7021363" lon="9.6013469"><ele>242.0</ele><time>2026-03-29T12:59:04.61Z</time></trkpt><trkpt lat="45.7021428" lon="9.601466"><ele>243.66666666666669</ele><time>2026-03-29T12:59:07.61Z</time></trkpt><trkpt lat="45.7021504" lon="9.6015661"><ele>245.33333333333331</ele><time>2026-03-29T12:59:09.529Z</time></trkpt><trkpt lat="45.702156" lon="9.6020777"><ele>247.0</ele><time>2026-03-29T12:59:11.61Z</time></trkpt><trkpt lat="45.7021509" lon="9.602226"><ele>247.0</ele><time>2026-03-29T12:59:13.609Z</time></trkpt><trkpt lat="45.7021431" lon="9.6023813"><ele>247.0</ele><time>2026-03-29T12:59:15.61Z</time></trkpt><trkpt lat="45.702134" lon="9.6025336"><ele>247.0</ele><time>2026-03-29T12:59:17.61Z</time></trkpt><trkpt lat="45.7021193" lon="9.6026814"><ele>247.0</ele><time>2026-03-29T12:59:19.61Z</time></trkpt><trkpt lat="45.7021022" lon="9.6028388"><ele>247.0</ele><time>2026-03-29T12:59:21.61Z</time></trkpt><trkpt lat="45.7020873" lon="9.6029909"><ele>247.6</ele><time>2026-03-29T12:59:23.61Z</time></trkpt><trkpt lat="45.7020683" lon="9.6031497"><ele>248.2</ele><time>2026-03-29T12:59:25.61Z</time></trkpt><trkpt lat="45.7020505" lon="9.6033344"><ele>248.8</ele><time>2026-03-29T12:59:27.61Z</time></trkpt><trkpt lat="45.7020414" lon="9.6034322"><ele>249.4</ele><time>2026-03-29T12:59:28.61Z</time></trkpt><trkpt lat="45.7020323" lon="9.6035289"><ele>250.0</ele><time>2026-03-29T12:59:29.609Z</time></trkpt><trkpt lat="45.7020167" lon="9.6036418"><ele>249.85714285714283</ele><time>2026-03-29T12:59:30.61Z</time></trkpt><trkpt lat="45.7020091" lon="9.6037401"><ele>249.71428571428572</ele><time>2026-03-29T12:59:31.61Z</time></trkpt><trkpt lat="45.7019986" lon="9.6038412"><ele>249.57142857142856</ele><time>2026-03-29T12:59:32.61Z</time></trkpt><trkpt lat="45.7019859" lon="9.6039463"><ele>249.42857142857142</ele><time>2026-03-29T12:59:33.61Z</time></trkpt><trkpt lat="45.701978" lon="9.6040496"><ele>249.28571428571428</ele><time>2026-03-29T12:59:34.61Z</time></trkpt><trkpt lat="45.7019703" lon="9.6041599"><ele>249.14285714285714</ele><time>2026-03-29T12:59:35.61Z</time></trkpt><trkpt lat="45.7019588" lon="9.604259"><ele>249.0</ele><time>2026-03-29T12:59:36.61Z</time></trkpt><trkpt lat="45.701948" lon="9.6043803"><ele>249.0</ele><time>2026-03-29T12:59:37.61Z</time></trkpt><trkpt lat="45.7019344" lon="9.6044928"><ele>248.99999999999997</ele><time>2026-03-29T12:59:38.61Z</time></trkpt><trkpt lat="45.7019205" lon="9.6046034"><ele>249.0</ele><time>2026-03-29T12:59:39.61Z</time></trkpt><trkpt lat="45.7019055" lon="9.6047064"><ele>249.0</ele><time>2026-03-29T12:59:40.61Z</time></trkpt><trkpt lat="45.7018927" lon="9.6048092"><ele>248.99999999999997</ele><time>2026-03-29T12:59:41.61Z</time></trkpt><trkpt lat="45.7018831" lon="9.6049015"><ele>249.0</ele><time>2026-03-29T12:59:42.61Z</time></trkpt><trkpt lat="45.7018691" lon="9.6049917"><ele>249.0</ele><time>2026-03-29T12:59:43.609Z</time></trkpt><trkpt lat="45.7018469" lon="9.6051191"><ele>249.0</ele><time>2026-03-29T12:59:44.609Z</time></trkpt><trkpt lat="45.7018283" lon="9.6052988"><ele>248.99999999999997</ele><time>2026-03-29T12:59:46.61Z</time></trkpt><trkpt lat="45.7018169" lon="9.6054402"><ele>248.99999999999997</ele><time>2026-03-29T12:59:48.61Z</time></trkpt><trkpt lat="45.7017871" lon="9.6055914"><ele>249.0</ele><time>2026-03-29T12:59:50.61Z</time></trkpt><trkpt lat="45.7017711" lon="9.6057059"><ele>249.0</ele><time>2026-03-29T12:59:52.61Z</time></trkpt><trkpt lat="45.7017443" lon="9.6058299"><ele>249.0</ele><time>2026-03-29T12:59:54.61Z</time></trkpt><trkpt lat="45.7017319" lon="9.6059431"><ele>249.0</ele><time>2026-03-29T12:59:56.61Z</time></trkpt><trkpt lat="45.7017113" lon="9.6060518"><ele>249.0</ele><time>2026-03-29T12:59:58.61Z</time></trkpt><trkpt lat="45.7016974" lon="9.6061641"><ele>249.0</ele><time>2026-03-29T13:00:00.61Z</time></trkpt><trkpt lat="45.7016805" lon="9.6062903"><ele>249.0</ele><time>2026-03-29T13:00:02.61Z</time></trkpt><trkpt lat="45.7016672" lon="9.6064209"><ele>249.0</ele><time>2026-03-29T13:00:04.61Z</time></trkpt><trkpt lat="45.7016543" lon="9.6065629"><ele>249.39999999999998</ele><time>2026-03-29T13:00:06.61Z</time></trkpt><trkpt lat="45.7016469" lon="9.6067121"><ele>249.79999999999998</ele><time>2026-03-29T13:00:08.61Z</time></trkpt><trkpt lat="45.701645" lon="9.6068726"><ele>250.20000000000002</ele><time>2026-03-29T13:00:10.61Z</time></trkpt><trkpt lat="45.7016563" lon="9.6070354"><ele>250.60000000000002</ele><time>2026-03-29T13:00:12.61Z</time></trkpt><trkpt lat="45.7016697" lon="9.6071936"><ele>251.0</ele><time>2026-03-29T13:00:14.61Z</time></trkpt><trkpt lat="45.7016501" lon="9.607349"><ele>251.60000000000002</ele><time>2026-03-29T13:00:16.61Z</time></trkpt><trkpt lat="45.7016206" lon="9.6074894"><ele>252.20000000000002</ele><time>2026-03-29T13:00:18.61Z</time></trkpt><trkpt lat="45.7016014" lon="9.6076401"><ele>252.79999999999998</ele><time>2026-03-29T13:00:20.61Z</time></trkpt><trkpt lat="45.7015788" lon="9.6078004"><ele>253.39999999999998</ele><time>2026-03-29T13:00:22.609Z</time></trkpt><trkpt lat="45.7015329" lon="9.6079193"><ele>254.0</ele><time>2026-03-29T13:00:24.61Z</time></trkpt><trkpt lat="45.701476" lon="9.6080157"><ele>254.16666666666669</ele><time>2026-03-29T13:00:26.61Z</time></trkpt><trkpt lat="45.7014424" lon="9.6081303"><ele>254.33333333333334</ele><time>2026-03-29T13:00:28.61Z</time></trkpt><trkpt lat="45.7014172" lon="9.6082404"><ele>254.5</ele><time>2026-03-29T13:00:30.61Z</time></trkpt><trkpt lat="45.7013867" lon="9.6083458"><ele>254.66666666666669</ele><time>2026-03-29T13:00:32.61Z</time></trkpt><trkpt lat="45.7013306" lon="9.6084291"><ele>254.83333333333334</ele><time>2026-03-29T13:00:35.61Z</time></trkpt><trkpt lat="45.7012438" lon="9.6084553"><ele>255.0</ele><time>2026-03-29T13:00:38.61Z</time></trkpt><trkpt lat="45.701185" lon="9.6085556"><ele>255.0</ele><time>2026-03-29T13:00:40.61Z</time></trkpt><trkpt lat="45.7011396" lon="9.6086719"><ele>255.0</ele><time>2026-03-29T13:00:42.61Z</time></trkpt><trkpt lat="45.7010895" lon="9.6088136"><ele>255.0</ele><time>2026-03-29T13:00:44.61Z</time></trkpt><trkpt lat="45.7010551" lon="9.6089509"><ele>255.0</ele><time>2026-03-29T13:00:46.61Z</time></trkpt><trkpt lat="45.7010087" lon="9.6090875"><ele>255.0</ele><time>2026-03-29T13:00:48.61Z</time></trkpt><trkpt lat="45.7009727" lon="9.6092237"><ele>254.83333333333334</ele><time>2026-03-29T13:00:50.61Z</time></trkpt><trkpt lat="45.7009247" lon="9.6093664"><ele>254.66666666666669</ele><time>2026-03-29T13:00:52.61Z</time></trkpt><trkpt lat="45.7008853" lon="9.6095039"><ele>254.5</ele><time>2026-03-29T13:00:54.61Z</time></trkpt><trkpt lat="45.700859" lon="9.6096212"><ele>254.33333333333334</ele><time>2026-03-29T13:00:56.609Z</time></trkpt><trkpt lat="45.7008355" lon="9.6097218"><ele>254.16666666666669</ele><time>2026-03-29T13:00:58.61Z</time></trkpt><trkpt lat="45.7008099" lon="9.609818"><ele>254.0</ele><time>2026-03-29T13:01:00.61Z</time></trkpt><trkpt lat="45.7007874" lon="9.6099114"><ele>254.66666666666669</ele><time>2026-03-29T13:01:02.61Z</time></trkpt><trkpt lat="45.700755" lon="9.6100335"><ele>255.33333333333334</ele><time>2026-03-29T13:01:05.61Z</time></trkpt><trkpt lat="45.700734" lon="9.6101412"><ele>256.0</ele><time>2026-03-29T13:01:08.609Z</time></trkpt><trkpt lat="45.7007115" lon="9.6102722"><ele>256.6666666666667</ele><time>2026-03-29T13:01:11.61Z</time></trkpt><trkpt lat="45.7006888" lon="9.6103876"><ele>257.3333333333333</ele><time>2026-03-29T13:01:14.61Z</time></trkpt><trkpt lat="45.7006878" lon="9.6104968"><ele>258.0</ele><time>2026-03-29T13:01:17.61Z</time></trkpt><trkpt lat="45.7006892" lon="9.6105975"><ele>259.71428571428567</ele><time>2026-03-29T13:01:20.61Z</time></trkpt><trkpt lat="45.7006968" lon="9.610687"><ele>261.42857142857144</ele><time>2026-03-29T13:01:23.61Z</time></trkpt><trkpt lat="45.7007053" lon="9.6107785"><ele>263.1428571428571</ele><time>2026-03-29T13:01:26.61Z</time></trkpt><trkpt lat="45.7007079" lon="9.6108975"><ele>264.85714285714283</ele><time>2026-03-29T13:01:30.61Z</time></trkpt><trkpt lat="45.700717" lon="9.6109932"><ele>266.57142857142856</ele><time>2026-03-29T13:01:33.61Z</time></trkpt><trkpt lat="45.7007449" lon="9.6110964"><ele>268.2857142857143</ele><time>2026-03-29T13:01:37.609Z</time></trkpt><trkpt lat="45.7008154" lon="9.6111421"><ele>270.0</ele><time>2026-03-29T13:01:41.61Z</time></trkpt><trkpt lat="45.7008761" lon="9.6111663"><ele>272.2857142857143</ele><time>2026-03-29T13:01:44.61Z</time></trkpt><trkpt lat="45.7009384" lon="9.6111803"><ele>274.57142857142856</ele><time>2026-03-29T13:01:47.61Z</time></trkpt><trkpt lat="45.7010123" lon="9.6112246"><ele>276.85714285714283</ele><time>2026-03-29T13:01:51.61Z</time></trkpt><trkpt lat="45.7010893" lon="9.6112562"><ele>279.1428571428571</ele><time>2026-03-29T13:01:55.61Z</time></trkpt><trkpt lat="45.7011563" lon="9.6112739"><ele>281.42857142857144</ele><time>2026-03-29T13:01:59.609Z</time></trkpt><trkpt lat="45.7012245" lon="9.6113135"><ele>283.71428571428567</ele><time>2026-03-29T13:02:03.61Z</time></trkpt><trkpt lat="45.7012983" lon="9.6113467"><ele>286.0</ele><time>2026-03-29T13:02:07.61Z</time></trkpt><trkpt lat="45.7013584" lon="9.6113743"><ele>286.0</ele><time>2026-03-29T13:02:10.61Z</time></trkpt><trkpt lat="45.701432" lon="9.611415"><ele>286.0</ele><time>2026-03-29T13:02:14.61Z</time></trkpt><trkpt lat="45.7014998" lon="9.6114486"><ele>286.0</ele><time>2026-03-29T13:02:18.61Z</time></trkpt><trkpt lat="45.701572" lon="9.611482"><ele>286.0</ele><time>2026-03-29T13:02:22.609Z</time></trkpt><trkpt lat="45.7016457" lon="9.6115283"><ele>286.0</ele><time>2026-03-29T13:02:26.61Z</time></trkpt><trkpt lat="45.7017236" lon="9.611564"><ele>286.0</ele><time>2026-03-29T13:02:30.609Z</time></trkpt><trkpt lat="45.7017984" lon="9.6116186"><ele>285.99999999999994</ele><time>2026-03-29T13:02:34.61Z</time></trkpt><trkpt lat="45.7018618" lon="9.6116647"><ele>286.0</ele><time>2026-03-29T13:02:38.61Z</time></trkpt><trkpt lat="45.7019236" lon="9.6117158"><ele>286.0</ele><time>2026-03-29T13:02:42.61Z</time></trkpt><trkpt lat="45.7019909" lon="9.6117624"><ele>286.0</ele><time>2026-03-29T13:02:47.61Z</time></trkpt><trkpt lat="45.7020508" lon="9.6118123"><ele>286.0</ele><time>2026-03-29T13:02:51.61Z</time></trkpt><trkpt lat="45.7021193" lon="9.6118525"><ele>285.99999999999994</ele><time>2026-03-29T13:02:55.61Z</time></trkpt><trkpt lat="45.7021824" lon="9.6118989"><ele>286.0</ele><time>2026-03-29T13:02:59.61Z</time></trkpt><trkpt lat="45.7022385" lon="9.6119677"><ele>288.85714285714283</ele><time>2026-03-29T13:03:04.61Z</time></trkpt><trkpt lat="45.7021759" lon="9.6120009"><ele>291.7142857142857</ele><time>2026-03-29T13:03:12.61Z</time></trkpt><trkpt lat="45.7021128" lon="9.6120103"><ele>294.57142857142856</ele><time>2026-03-29T13:03:18.61Z</time></trkpt><trkpt lat="45.7020619" lon="9.6120828"><ele>297.42857142857144</ele><time>2026-03-29T13:03:25.609Z</time></trkpt><trkpt lat="45.7020587" lon="9.6121971"><ele>300.2857142857143</ele><time>2026-03-29T13:03:30.61Z</time></trkpt><trkpt lat="45.7020356" lon="9.6123024"><ele>303.1428571428571</ele><time>2026-03-29T13:03:34.61Z</time></trkpt><trkpt lat="45.7020069" lon="9.6124018"><ele>306.0</ele><time>2026-03-29T13:03:38.61Z</time></trkpt><trkpt lat="45.7019928" lon="9.6124923"><ele>306.0</ele><time>2026-03-29T13:03:41.61Z</time></trkpt><trkpt lat="45.7019802" lon="9.6126075"><ele>306.0</ele><time>2026-03-29T13:03:45.61Z</time></trkpt><trkpt lat="45.7019968" lon="9.6127019"><ele>306.0</ele><time>2026-03-29T13:03:49.61Z</time></trkpt><trkpt lat="45.7020127" lon="9.6128196"><ele>306.0</ele><time>2026-03-29T13:03:53.61Z</time></trkpt><trkpt lat="45.7020433" lon="9.6129226"><ele>306.0</ele><time>2026-03-29T13:03:56.61Z</time></trkpt><trkpt lat="45.7020673" lon="9.6130108"><ele>306.0</ele><time>2026-03-29T13:03:59.61Z</time></trkpt><trkpt lat="45.7020901" lon="9.6131228"><ele>306.3333333333333</ele><time>2026-03-29T13:04:02.61Z</time></trkpt><trkpt lat="45.7021302" lon="9.6132173"><ele>306.6666666666667</ele><time>2026-03-29T13:04:05.61Z</time></trkpt><trkpt lat="45.7021609" lon="9.6133395"><ele>307.0</ele><time>2026-03-29T13:04:08.61Z</time></trkpt><trkpt lat="45.7021879" lon="9.6134357"><ele>307.33333333333337</ele><time>2026-03-29T13:04:10.61Z</time></trkpt><trkpt lat="45.7022136" lon="9.6135399"><ele>307.6666666666667</ele><time>2026-03-29T13:04:12.61Z</time></trkpt><trkpt lat="45.7022391" lon="9.6136609"><ele>308.0</ele><time>2026-03-29T13:04:14.609Z</time></trkpt><trkpt lat="45.7022735" lon="9.6137655"><ele>308.0</ele><time>2026-03-29T13:04:16.61Z</time></trkpt><trkpt lat="45.7023141" lon="9.6138731"><ele>308.0</ele><time>2026-03-29T13:04:18.61Z</time></trkpt><trkpt lat="45.7023576" lon="9.6139944"><ele>308.0</ele><time>2026-03-29T13:04:20.61Z</time></trkpt><trkpt lat="45.7023916" lon="9.6140782"><ele>308.0</ele><time>2026-03-29T13:04:21.61Z</time></trkpt><trkpt lat="45.7024436" lon="9.6142308"><ele>308.0</ele><time>2026-03-29T13:04:23.61Z</time></trkpt><trkpt lat="45.7025336" lon="9.6144044"><ele>305.4</ele><time>2026-03-29T13:04:25.61Z</time></trkpt><trkpt lat="45.7025568" lon="9.6144987"><ele>302.8</ele><time>2026-03-29T13:04:26.61Z</time></trkpt><trkpt lat="45.7025913" lon="9.6145768"><ele>300.2</ele><time>2026-03-29T13:04:27.61Z</time></trkpt><trkpt lat="45.7026248" lon="9.6147344"><ele>297.6</ele><time>2026-03-29T13:04:29.61Z</time></trkpt><trkpt lat="45.7026102" lon="9.6148834"><ele>295.0</ele><time>2026-03-29T13:04:31.61Z</time></trkpt><trkpt lat="45.7025819" lon="9.6150541"><ele>295.0</ele><time>2026-03-29T13:04:33.61Z</time></trkpt><trkpt lat="45.7025703" lon="9.6151545"><ele>295.0</ele><time>2026-03-29T13:04:34.61Z</time></trkpt><trkpt lat="45.7025606" lon="9.6152565"><ele>295.0</ele><time>2026-03-29T13:04:35.609Z</time></trkpt><trkpt lat="45.7025564" lon="9.6153577"><ele>295.0</ele><time>2026-03-29T13:04:36.61Z</time></trkpt><trkpt lat="45.7025526" lon="9.6155314"><ele>295.0</ele><time>2026-03-29T13:04:38.61Z</time></trkpt><trkpt lat="45.7025672" lon="9.6156923"><ele>295.0</ele><time>2026-03-29T13:04:40.61Z</time></trkpt><trkpt lat="45.7026245" lon="9.615865"><ele>293.0</ele><time>2026-03-29T13:04:42.61Z</time></trkpt><trkpt lat="45.7026447" lon="9.615956"><ele>291.0</ele><time>2026-03-29T13:04:43.61Z</time></trkpt><trkpt lat="45.7026666" lon="9.6160598"><ele>289.0</ele><time>2026-03-29T13:04:44.61Z</time></trkpt><trkpt lat="45.7026813" lon="9.6162439"><ele>287.0</ele><time>2026-03-29T13:04:46.61Z</time></trkpt><trkpt lat="45.7026967" lon="9.6163477"><ele>285.0</ele><time>2026-03-29T13:04:47.61Z</time></trkpt><trkpt lat="45.7027058" lon="9.6164482"><ele>283.0</ele><time>2026-03-29T13:04:48.61Z</time></trkpt><trkpt lat="45.7027082" lon="9.6166021"><ele>281.66666666666663</ele><time>2026-03-29T13:04:50.61Z</time></trkpt><trkpt lat="45.7026991" lon="9.6167477"><ele>280.3333333333333</ele><time>2026-03-29T13:04:52.61Z</time></trkpt><trkpt lat="45.7026673" lon="9.6168887"><ele>279.0</ele><time>2026-03-29T13:04:54.61Z</time></trkpt><trkpt lat="45.7026032" lon="9.6169334"><ele>277.6666666666667</ele><time>2026-03-29T13:04:55.61Z</time></trkpt><trkpt lat="45.7025173" lon="9.6170002"><ele>276.33333333333337</ele><time>2026-03-29T13:04:57.61Z</time></trkpt><trkpt lat="45.7024539" lon="9.617015"><ele>275.0</ele><time>2026-03-29T13:04:59.61Z</time></trkpt><trkpt lat="45.7024093" lon="9.6171129"><ele>273.8</ele><time>2026-03-29T13:05:02.609Z</time></trkpt><trkpt lat="45.702423" lon="9.6172279"><ele>272.6</ele><time>2026-03-29T13:05:04.61Z</time></trkpt><trkpt lat="45.7024586" lon="9.6173341"><ele>271.4</ele><time>2026-03-29T13:05:06.61Z</time></trkpt><trkpt lat="45.7025082" lon="9.6174533"><ele>270.2</ele><time>2026-03-29T13:05:08.609Z</time></trkpt><trkpt lat="45.7025748" lon="9.6176017"><ele>269.0</ele><time>2026-03-29T13:05:10.61Z</time></trkpt><trkpt lat="45.7026208" lon="9.6176834"><ele>269.0</ele><time>2026-03-29T13:05:11.61Z</time></trkpt><trkpt lat="45.7026731" lon="9.6178275"><ele>269.0</ele><time>2026-03-29T13:05:13.61Z</time></trkpt><trkpt lat="45.7026829" lon="9.6179184"><ele>269.0</ele><time>2026-03-29T13:05:14.61Z</time></trkpt><trkpt lat="45.7027082" lon="9.6180041"><ele>269.0</ele><time>2026-03-29T13:05:15.609Z</time></trkpt><trkpt lat="45.7027348" lon="9.618161"><ele>269.0</ele><time>2026-03-29T13:05:17.609Z</time></trkpt><trkpt lat="45.7027676" lon="9.618311"><ele>273.59999999999997</ele><time>2026-03-29T13:05:19.61Z</time></trkpt><trkpt lat="45.7027778" lon="9.6184664"><ele>278.2</ele><time>2026-03-29T13:05:21.61Z</time></trkpt><trkpt lat="45.7027894" lon="9.6186145"><ele>282.79999999999995</ele><time>2026-03-29T13:05:23.61Z</time></trkpt><trkpt lat="45.7028048" lon="9.6187793"><ele>287.4</ele><time>2026-03-29T13:05:25.61Z</time></trkpt><trkpt lat="45.7028086" lon="9.618945"><ele>292.0</ele><time>2026-03-29T13:05:27.61Z</time></trkpt><trkpt lat="45.7028071" lon="9.6191212"><ele>292.0</ele><time>2026-03-29T13:05:29.61Z</time></trkpt><trkpt lat="45.7028093" lon="9.6192844"><ele>292.0</ele><time>2026-03-29T13:05:31.61Z</time></trkpt><trkpt lat="45.70282" lon="9.6194587"><ele>292.0</ele><time>2026-03-29T13:05:33.61Z</time></trkpt><trkpt lat="45.7028166" lon="9.6196251"><ele>292.0</ele><time>2026-03-29T13:05:35.61Z</time></trkpt><trkpt lat="45.702803" lon="9.6197791"><ele>293.2</ele><time>2026-03-29T13:05:37.61Z</time></trkpt><trkpt lat="45.7027653" lon="9.6199375"><ele>294.4</ele><time>2026-03-29T13:05:39.61Z</time></trkpt><trkpt lat="45.7026863" lon="9.6200475"><ele>295.6</ele><time>2026-03-29T13:05:41.61Z</time></trkpt><trkpt lat="45.7025896" lon="9.6200795"><ele>296.8</ele><time>2026-03-29T13:05:43.61Z</time></trkpt><trkpt lat="45.7024884" lon="9.6200886"><ele>298.0</ele><time>2026-03-29T13:05:45.61Z</time></trkpt><trkpt lat="45.7023893" lon="9.6200716"><ele>293.4</ele><time>2026-03-29T13:05:47.61Z</time></trkpt><trkpt lat="45.7023165" lon="9.6200741"><ele>288.8</ele><time>2026-03-29T13:05:48.61Z</time></trkpt><trkpt lat="45.7022527" lon="9.6200908"><ele>284.2</ele><time>2026-03-29T13:05:49.609Z</time></trkpt><trkpt lat="45.7021426" lon="9.6201375"><ele>279.6</ele><time>2026-03-29T13:05:51.61Z</time></trkpt><trkpt lat="45.7020524" lon="9.6202004"><ele>275.0</ele><time>2026-03-29T13:05:53.61Z</time></trkpt><trkpt lat="45.7019776" lon="9.620293"><ele>275.5</ele><time>2026-03-29T13:05:55.61Z</time></trkpt><trkpt lat="45.701918" lon="9.6203382"><ele>276.0</ele><time>2026-03-29T13:05:56.61Z</time></trkpt><trkpt lat="45.7018577" lon="9.6203919"><ele>276.5</ele><time>2026-03-29T13:05:57.61Z</time></trkpt><trkpt lat="45.7018032" lon="9.6204527"><ele>277.0</ele><time>2026-03-29T13:05:58.609Z</time></trkpt><trkpt lat="45.7017499" lon="9.6205207"><ele>277.5</ele><time>2026-03-29T13:05:59.61Z</time></trkpt><trkpt lat="45.701648" lon="9.6206222"><ele>278.0</ele><time>2026-03-29T13:06:01.609Z</time></trkpt><trkpt lat="45.7015496" lon="9.6207109"><ele>278.0</ele><time>2026-03-29T13:06:03.61Z</time></trkpt><trkpt lat="45.7014691" lon="9.6208033"><ele>278.0</ele><time>2026-03-29T13:06:05.609Z</time></trkpt><trkpt lat="45.7013946" lon="9.6208659"><ele>278.0</ele><time>2026-03-29T13:06:07.61Z</time></trkpt><trkpt lat="45.701287" lon="9.620886"><ele>278.0</ele><time>2026-03-29T13:06:09.609Z</time></trkpt><trkpt lat="45.7011945" lon="9.6209122"><ele>278.0</ele><time>2026-03-29T13:06:11.61Z</time></trkpt><trkpt lat="45.7010781" lon="9.6209289"><ele>276.0</ele><time>2026-03-29T13:06:13.61Z</time></trkpt><trkpt lat="45.7009761" lon="9.6209062"><ele>274.0</ele><time>2026-03-29T13:06:15.61Z</time></trkpt><trkpt lat="45.7008677" lon="9.6209298"><ele>272.0</ele><time>2026-03-29T13:06:17.61Z</time></trkpt><trkpt lat="45.7007515" lon="9.6209651"><ele>270.0</ele><time>2026-03-29T13:06:19.61Z</time></trkpt><trkpt lat="45.7006265" lon="9.6209763"><ele>270.0</ele><time>2026-03-29T13:06:21.61Z</time></trkpt><trkpt lat="45.7005449" lon="9.620982"><ele>270.0</ele><time>2026-03-29T13:06:22.609Z</time></trkpt><trkpt lat="45.7004719" lon="9.6209969"><ele>270.0</ele><time>2026-03-29T13:06:23.61Z</time></trkpt><trkpt lat="45.7003986" lon="9.6210122"><ele>270.0</ele><time>2026-03-29T13:06:24.61Z</time></trkpt><trkpt lat="45.7003258" lon="9.6210159"><ele>270.0</ele><time>2026-03-29T13:06:25.61Z</time></trkpt><trkpt lat="45.7002568" lon="9.6210299"><ele>270.0</ele><time>2026-03-29T13:06:26.61Z</time></trkpt><trkpt lat="45.7001882" lon="9.6210418"><ele>270.0</ele><time>2026-03-29T13:06:27.61Z</time></trkpt><trkpt lat="45.7000638" lon="9.6210636"><ele>269.75</ele><time>2026-03-29T13:06:29.61Z</time></trkpt><trkpt lat="45.6999731" lon="9.6211729"><ele>269.5</ele><time>2026-03-29T13:06:31.61Z</time></trkpt><trkpt lat="45.6998823" lon="9.621316"><ele>269.25</ele><time>2026-03-29T13:06:33.61Z</time></trkpt><trkpt lat="45.6998298" lon="9.621465"><ele>269.0</ele><time>2026-03-29T13:06:35.61Z</time></trkpt><trkpt lat="45.6997825" lon="9.6216183"><ele>269.0</ele><time>2026-03-29T13:06:37.61Z</time></trkpt><trkpt lat="45.699791" lon="9.6217827"><ele>269.0</ele><time>2026-03-29T13:06:39.61Z</time></trkpt><trkpt lat="45.699824" lon="9.621924"><ele>269.0</ele><time>2026-03-29T13:06:41.61Z</time></trkpt><trkpt lat="45.6998413" lon="9.6220839"><ele>269.0</ele><time>2026-03-29T13:06:43.61Z</time></trkpt><trkpt lat="45.6998575" lon="9.6222408"><ele>269.0</ele><time>2026-03-29T13:06:45.61Z</time></trkpt><trkpt lat="45.6998675" lon="9.6223521"><ele>269.33333333333337</ele><time>2026-03-29T13:06:47.61Z</time></trkpt><trkpt lat="45.6998734" lon="9.6224473"><ele>269.6666666666667</ele><time>2026-03-29T13:06:49.61Z</time></trkpt><trkpt lat="45.6999075" lon="9.6225361"><ele>270.0</ele><time>2026-03-29T13:06:52.61Z</time></trkpt><trkpt lat="45.6999885" lon="9.6225855"><ele>270.3333333333333</ele><time>2026-03-29T13:06:55.61Z</time></trkpt><trkpt lat="45.7000816" lon="9.6226137"><ele>270.66666666666663</ele><time>2026-03-29T13:06:57.61Z</time></trkpt><trkpt lat="45.7001749" lon="9.6226444"><ele>271.0</ele><time>2026-03-29T13:06:59.609Z</time></trkpt><trkpt lat="45.7002777" lon="9.6226815"><ele>271.0</ele><time>2026-03-29T13:07:01.61Z</time></trkpt><trkpt lat="45.7003723" lon="9.6227161"><ele>271.0</ele><time>2026-03-29T13:07:03.61Z</time></trkpt><trkpt lat="45.7004491" lon="9.6227831"><ele>271.0</ele><time>2026-03-29T13:07:05.61Z</time></trkpt><trkpt lat="45.7004779" lon="9.6228839"><ele>271.0</ele><time>2026-03-29T13:07:07.61Z</time></trkpt><trkpt lat="45.7004602" lon="9.6230197"><ele>271.0</ele><time>2026-03-29T13:07:09.61Z</time></trkpt><trkpt lat="45.7004391" lon="9.6231303"><ele>271.0</ele><time>2026-03-29T13:07:11.61Z</time></trkpt><trkpt lat="45.7004892" lon="9.6232653"><ele>270.0</ele><time>2026-03-29T13:07:13.609Z</time></trkpt><trkpt lat="45.7005267" lon="9.6233927"><ele>269.0</ele><time>2026-03-29T13:07:15.61Z</time></trkpt><trkpt lat="45.700578" lon="9.623526"><ele>268.0</ele><time>2026-03-29T13:07:17.61Z</time></trkpt><trkpt lat="45.700609" lon="9.6236098"><ele>267.0</ele><time>2026-03-29T13:07:18.61Z</time></trkpt><trkpt lat="45.7006621" lon="9.6237455"><ele>266.0</ele><time>2026-03-29T13:07:20.61Z</time></trkpt><trkpt lat="45.7007163" lon="9.6238729"><ele>265.6666666666667</ele><time>2026-03-29T13:07:22.61Z</time></trkpt><trkpt lat="45.7007568" lon="9.6239851"><ele>265.33333333333337</ele><time>2026-03-29T13:07:24.61Z</time></trkpt><trkpt lat="45.7008092" lon="9.6241389"><ele>265.0</ele><time>2026-03-29T13:07:26.61Z</time></trkpt><trkpt lat="45.7008204" lon="9.6242404"><ele>264.6666666666667</ele><time>2026-03-29T13:07:28.61Z</time></trkpt><trkpt lat="45.7008223" lon="9.6243377"><ele>264.3333333333333</ele><time>2026-03-29T13:07:29.61Z</time></trkpt><trkpt lat="45.7008384" lon="9.6244809"><ele>264.0</ele><time>2026-03-29T13:07:31.61Z</time></trkpt><trkpt lat="45.700864" lon="9.6245788"><ele>263.7142857142857</ele><time>2026-03-29T13:07:33.61Z</time></trkpt><trkpt lat="45.7009242" lon="9.6246262"><ele>263.42857142857144</ele><time>2026-03-29T13:07:36.61Z</time></trkpt><trkpt lat="45.7010006" lon="9.62462"><ele>263.14285714285717</ele><time>2026-03-29T13:07:40.61Z</time></trkpt><trkpt lat="45.7010756" lon="9.6246139"><ele>262.8571428571429</ele><time>2026-03-29T13:07:43.61Z</time></trkpt><trkpt lat="45.7011509" lon="9.6246073"><ele>262.5714285714286</ele><time>2026-03-29T13:07:47.61Z</time></trkpt><trkpt lat="45.701217" lon="9.6245888"><ele>262.2857142857143</ele><time>2026-03-29T13:07:50.609Z</time></trkpt><trkpt lat="45.7012751" lon="9.6246377"><ele>262.0</ele><time>2026-03-29T13:07:53.61Z</time></trkpt><trkpt lat="45.70133" lon="9.6247332"><ele>263.16666666666663</ele><time>2026-03-29T13:07:56.609Z</time></trkpt><trkpt lat="45.7013829" lon="9.6248366"><ele>264.3333333333333</ele><time>2026-03-29T13:07:59.61Z</time></trkpt><trkpt lat="45.7014302" lon="9.6249041"><ele>265.5</ele><time>2026-03-29T13:08:01.61Z</time></trkpt><trkpt lat="45.7014958" lon="9.6249642"><ele>266.6666666666667</ele><time>2026-03-29T13:08:03.61Z</time></trkpt><trkpt lat="45.7015835" lon="9.6250182"><ele>267.83333333333337</ele><time>2026-03-29T13:08:05.609Z</time></trkpt><trkpt lat="45.7016798" lon="9.6250713"><ele>269.0</ele><time>2026-03-29T13:08:07.61Z</time></trkpt><trkpt lat="45.7017783" lon="9.6251258"><ele>269.0</ele><time>2026-03-29T13:08:09.61Z</time></trkpt><trkpt lat="45.7018657" lon="9.6251952"><ele>269.0</ele><time>2026-03-29T13:08:11.61Z</time></trkpt><trkpt lat="45.7019761" lon="9.6252143"><ele>269.0</ele><time>2026-03-29T13:08:13.61Z</time></trkpt><trkpt lat="45.7020763" lon="9.6252563"><ele>269.0</ele><time>2026-03-29T13:08:15.61Z</time></trkpt><trkpt lat="45.7021609" lon="9.6253199"><ele>269.0</ele><time>2026-03-29T13:08:17.609Z</time></trkpt><trkpt lat="45.7022522" lon="9.6253716"><ele>268.0</ele><time>2026-03-29T13:08:19.609Z</time></trkpt><trkpt lat="45.7023317" lon="9.6254938"><ele>267.0</ele><time>2026-03-29T13:08:21.61Z</time></trkpt><trkpt lat="45.7023632" lon="9.6255773"><ele>266.0</ele><time>2026-03-29T13:08:22.61Z</time></trkpt><trkpt lat="45.7023931" lon="9.6256634"><ele>265.0</ele><time>2026-03-29T13:08:23.61Z</time></trkpt><trkpt lat="45.7024487" lon="9.6258065"><ele>264.0</ele><time>2026-03-29T13:08:25.61Z</time></trkpt><trkpt lat="45.70248" lon="9.6258862"><ele>263.0</ele><time>2026-03-29T13:08:26.61Z</time></trkpt><trkpt lat="45.7025403" lon="9.6260244"><ele>263.2</ele><time>2026-03-29T13:08:28.61Z</time></trkpt><trkpt lat="45.7026057" lon="9.6261683"><ele>263.4</ele><time>2026-03-29T13:08:30.61Z</time></trkpt><trkpt lat="45.7026611" lon="9.6263008"><ele>263.59999999999997</ele><time>2026-03-29T13:08:32.61Z</time></trkpt><trkpt lat="45.702721" lon="9.6264363"><ele>263.8</ele><time>2026-03-29T13:08:34.61Z</time></trkpt><trkpt lat="45.7027703" lon="9.6265721"><ele>264.0</ele><time>2026-03-29T13:08:36.61Z</time></trkpt><trkpt lat="45.7028034" lon="9.6266906"><ele>264.0</ele><time>2026-03-29T13:08:38.61Z</time></trkpt><trkpt lat="45.7028417" lon="9.6268269"><ele>264.0</ele><time>2026-03-29T13:08:40.61Z</time></trkpt><trkpt lat="45.7028911" lon="9.6269642"><ele>264.0</ele><time>2026-03-29T13:08:42.609Z</time></trkpt><trkpt lat="45.7029271" lon="9.6271166"><ele>264.0</ele><time>2026-03-29T13:08:44.61Z</time></trkpt><trkpt lat="45.7029777" lon="9.6272635"><ele>264.0</ele><time>2026-03-29T13:08:46.61Z</time></trkpt><trkpt lat="45.7029965" lon="9.6273876"><ele>263.8333333333333</ele><time>2026-03-29T13:08:48.61Z</time></trkpt><trkpt lat="45.7029622" lon="9.6275185"><ele>263.6666666666667</ele><time>2026-03-29T13:08:50.61Z</time></trkpt><trkpt lat="45.7029068" lon="9.6276181"><ele>263.5</ele><time>2026-03-29T13:08:52.61Z</time></trkpt><trkpt lat="45.7028871" lon="9.6277083"><ele>263.33333333333337</ele><time>2026-03-29T13:08:54.61Z</time></trkpt><trkpt lat="45.7029071" lon="9.6278239"><ele>263.1666666666667</ele><time>2026-03-29T13:08:56.609Z</time></trkpt><trkpt lat="45.7029519" lon="9.6279319"><ele>263.0</ele><time>2026-03-29T13:08:58.609Z</time></trkpt><trkpt lat="45.7029857" lon="9.628076"><ele>262.4</ele><time>2026-03-29T13:09:00.61Z</time></trkpt><trkpt lat="45.7030195" lon="9.628183"><ele>261.8</ele><time>2026-03-29T13:09:02.61Z</time></trkpt><trkpt lat="45.7030627" lon="9.628285"><ele>261.2</ele><time>2026-03-29T13:09:04.61Z</time></trkpt><trkpt lat="45.7031037" lon="9.6284048"><ele>260.6</ele><time>2026-03-29T13:09:06.61Z</time></trkpt><trkpt lat="45.7031517" lon="9.6285331"><ele>260.0</ele><time>2026-03-29T13:09:08.61Z</time></trkpt><trkpt lat="45.7032044" lon="9.6286659"><ele>259.0</ele><time>2026-03-29T13:09:10.61Z</time></trkpt><trkpt lat="45.7032646" lon="9.6287855"><ele>258.0</ele><time>2026-03-29T13:09:12.61Z</time></trkpt><trkpt lat="45.7033361" lon="9.6288993"><ele>257.0</ele><time>2026-03-29T13:09:14.61Z</time></trkpt><trkpt lat="45.7033885" lon="9.6290241"><ele>256.0</ele><time>2026-03-29T13:09:16.61Z</time></trkpt><trkpt lat="45.7034328" lon="9.6291222"><ele>255.0</ele><time>2026-03-29T13:09:18.61Z</time></trkpt><trkpt lat="45.7034712" lon="9.6292506"><ele>255.0</ele><time>2026-03-29T13:09:20.609Z</time></trkpt><trkpt lat="45.703492" lon="9.629413"><ele>255.0</ele><time>2026-03-29T13:09:22.61Z</time></trkpt><trkpt lat="45.7034945" lon="9.6296091"><ele>255.0</ele><time>2026-03-29T13:09:24.61Z</time></trkpt><trkpt lat="45.7034917" lon="9.6297069"><ele>255.0</ele><time>2026-03-29T13:09:25.61Z</time></trkpt><trkpt lat="45.7034831" lon="9.6298201"><ele>255.0</ele><time>2026-03-29T13:09:26.61Z</time></trkpt><trkpt lat="45.7034757" lon="9.6299288"><ele>254.33333333333334</ele><time>2026-03-29T13:09:27.61Z</time></trkpt><trkpt lat="45.7034676" lon="9.6300323"><ele>253.66666666666669</ele><time>2026-03-29T13:09:28.61Z</time></trkpt><trkpt lat="45.7034547" lon="9.630137"><ele>253.0</ele><time>2026-03-29T13:09:29.61Z</time></trkpt><trkpt lat="45.7034459" lon="9.6302673"><ele>252.33333333333334</ele><time>2026-03-29T13:09:30.61Z</time></trkpt><trkpt lat="45.7034365" lon="9.6303834"><ele>251.66666666666669</ele><time>2026-03-29T13:09:31.61Z</time></trkpt><trkpt lat="45.7034308" lon="9.6305089"><ele>251.0</ele><time>2026-03-29T13:09:32.61Z</time></trkpt><trkpt lat="45.7034257" lon="9.6306421"><ele>250.60000000000002</ele><time>2026-03-29T13:09:33.61Z</time></trkpt><trkpt lat="45.7034186" lon="9.6307598"><ele>250.20000000000002</ele><time>2026-03-29T13:09:34.609Z</time></trkpt><trkpt lat="45.7034088" lon="9.6309016"><ele>249.79999999999998</ele><time>2026-03-29T13:09:35.61Z</time></trkpt><trkpt lat="45.7033949" lon="9.6310288"><ele>249.39999999999998</ele><time>2026-03-29T13:09:36.61Z</time></trkpt><trkpt lat="45.7033681" lon="9.6311567"><ele>249.0</ele><time>2026-03-29T13:09:37.61Z</time></trkpt><trkpt lat="45.7033305" lon="9.6312714"><ele>249.0</ele><time>2026-03-29T13:09:38.61Z</time></trkpt><trkpt lat="45.703278" lon="9.6313932"><ele>249.0</ele><time>2026-03-29T13:09:39.61Z</time></trkpt><trkpt lat="45.703233" lon="9.6315094"><ele>249.0</ele><time>2026-03-29T13:09:40.61Z</time></trkpt><trkpt lat="45.7031824" lon="9.6316132"><ele>249.0</ele><time>2026-03-29T13:09:41.61Z</time></trkpt><trkpt lat="45.7031223" lon="9.6316801"><ele>249.0</ele><time>2026-03-29T13:09:42.61Z</time></trkpt><trkpt lat="45.7030607" lon="9.6317548"><ele>249.0</ele><time>2026-03-29T13:09:43.61Z</time></trkpt><trkpt lat="45.7030059" lon="9.6318286"><ele>249.0</ele><time>2026-03-29T13:09:44.61Z</time></trkpt><trkpt lat="45.7029494" lon="9.6319179"><ele>249.0</ele><time>2026-03-29T13:09:45.61Z</time></trkpt><trkpt lat="45.7028997" lon="9.632012"><ele>249.0</ele><time>2026-03-29T13:09:46.61Z</time></trkpt><trkpt lat="45.7028546" lon="9.6320965"><ele>249.0</ele><time>2026-03-29T13:09:47.61Z</time></trkpt><trkpt lat="45.7028016" lon="9.6321701"><ele>249.0</ele><time>2026-03-29T13:09:48.61Z</time></trkpt><trkpt lat="45.7027443" lon="9.6322482"><ele>249.0</ele><time>2026-03-29T13:09:49.61Z</time></trkpt><trkpt lat="45.7026932" lon="9.632346"><ele>248.0</ele><time>2026-03-29T13:09:50.61Z</time></trkpt><trkpt lat="45.7026464" lon="9.6324194"><ele>247.0</ele><time>2026-03-29T13:09:51.61Z</time></trkpt><trkpt lat="45.7026016" lon="9.6325089"><ele>246.0</ele><time>2026-03-29T13:09:52.61Z</time></trkpt><trkpt lat="45.7025499" lon="9.6325876"><ele>245.0</ele><time>2026-03-29T13:09:53.61Z</time></trkpt><trkpt lat="45.702493" lon="9.6326601"><ele>244.0</ele><time>2026-03-29T13:09:54.61Z</time></trkpt><trkpt lat="45.7024276" lon="9.6327213"><ele>243.0</ele><time>2026-03-29T13:09:55.61Z</time></trkpt><trkpt lat="45.7023603" lon="9.6327681"><ele>242.85714285714283</ele><time>2026-03-29T13:09:56.61Z</time></trkpt><trkpt lat="45.7022989" lon="9.6328169"><ele>242.71428571428572</ele><time>2026-03-29T13:09:57.61Z</time></trkpt><trkpt lat="45.7022287" lon="9.6328681"><ele>242.57142857142856</ele><time>2026-03-29T13:09:58.61Z</time></trkpt><trkpt lat="45.7021661" lon="9.632909"><ele>242.42857142857142</ele><time>2026-03-29T13:09:59.61Z</time></trkpt><trkpt lat="45.7021049" lon="9.6329513"><ele>242.28571428571428</ele><time>2026-03-29T13:10:00.61Z</time></trkpt><trkpt lat="45.7020393" lon="9.6330029"><ele>242.14285714285714</ele><time>2026-03-29T13:10:01.61Z</time></trkpt><trkpt lat="45.7019746" lon="9.6330597"><ele>242.0</ele><time>2026-03-29T13:10:02.61Z</time></trkpt><trkpt lat="45.7019158" lon="9.633098"><ele>242.16666666666669</ele><time>2026-03-29T13:10:03.61Z</time></trkpt><trkpt lat="45.7018577" lon="9.6331485"><ele>242.33333333333334</ele><time>2026-03-29T13:10:04.609Z</time></trkpt><trkpt lat="45.701803" lon="9.6331941"><ele>242.5</ele><time>2026-03-29T13:10:05.61Z</time></trkpt><trkpt lat="45.7017012" lon="9.6332667"><ele>242.66666666666669</ele><time>2026-03-29T13:10:07.609Z</time></trkpt><trkpt lat="45.7016218" lon="9.6333426"><ele>242.83333333333334</ele><time>2026-03-29T13:10:09.61Z</time></trkpt><trkpt lat="45.7015833" lon="9.6334757"><ele>243.0</ele><time>2026-03-29T13:10:11.61Z</time></trkpt><trkpt lat="45.7016323" lon="9.6336081"><ele>243.2</ele><time>2026-03-29T13:10:13.609Z</time></trkpt><trkpt lat="45.7016679" lon="9.6337546"><ele>243.4</ele><time>2026-03-29T13:10:15.609Z</time></trkpt><trkpt lat="45.7017133" lon="9.6338999"><ele>243.59999999999997</ele><time>2026-03-29T13:10:17.61Z</time></trkpt><trkpt lat="45.701756" lon="9.6340378"><ele>243.79999999999998</ele><time>2026-03-29T13:10:19.61Z</time></trkpt><trkpt lat="45.7017956" lon="9.6341725"><ele>244.0</ele><time>2026-03-29T13:10:21.61Z</time></trkpt><trkpt lat="45.7018211" lon="9.6343133"><ele>244.0</ele><time>2026-03-29T13:10:23.61Z</time></trkpt><trkpt lat="45.7017903" lon="9.63445"><ele>243.99999999999997</ele><time>2026-03-29T13:10:25.61Z</time></trkpt><trkpt lat="45.7017514" lon="9.634588"><ele>243.99999999999997</ele><time>2026-03-29T13:10:27.61Z</time></trkpt><trkpt lat="45.7017123" lon="9.6347247"><ele>244.0</ele><time>2026-03-29T13:10:29.61Z</time></trkpt><trkpt lat="45.7016684" lon="9.6348608"><ele>244.0</ele><time>2026-03-29T13:10:31.61Z</time></trkpt><trkpt lat="45.7016344" lon="9.634998"><ele>244.2</ele><time>2026-03-29T13:10:33.61Z</time></trkpt><trkpt lat="45.7015979" lon="9.6351463"><ele>244.39999999999998</ele><time>2026-03-29T13:10:35.609Z</time></trkpt><trkpt lat="45.7015663" lon="9.6352839"><ele>244.6</ele><time>2026-03-29T13:10:37.61Z</time></trkpt><trkpt lat="45.701523" lon="9.6354302"><ele>244.8</ele><time>2026-03-29T13:10:39.61Z</time></trkpt><trkpt lat="45.7014892" lon="9.6355661"><ele>245.0</ele><time>2026-03-29T13:10:41.609Z</time></trkpt><trkpt lat="45.7014555" lon="9.6356468"><ele>245.16666666666669</ele><time>2026-03-29T13:10:42.61Z</time></trkpt><trkpt lat="45.7014282" lon="9.6357788"><ele>245.33333333333334</ele><time>2026-03-29T13:10:44.61Z</time></trkpt><trkpt lat="45.7013916" lon="9.6359152"><ele>245.5</ele><time>2026-03-29T13:10:46.61Z</time></trkpt><trkpt lat="45.7013613" lon="9.6360444"><ele>245.66666666666669</ele><time>2026-03-29T13:10:48.61Z</time></trkpt><trkpt lat="45.7013312" lon="9.6361397"><ele>245.83333333333334</ele><time>2026-03-29T13:10:50.61Z</time></trkpt><trkpt lat="45.7013109" lon="9.6362517"><ele>246.0</ele><time>2026-03-29T13:10:52.61Z</time></trkpt><trkpt lat="45.7012829" lon="9.6363593"><ele>246.60000000000002</ele><time>2026-03-29T13:10:54.61Z</time></trkpt><trkpt lat="45.7012293" lon="9.6364366"><ele>247.20000000000002</ele><time>2026-03-29T13:10:57.61Z</time></trkpt><trkpt lat="45.7011214" lon="9.6363621"><ele>247.79999999999998</ele><time>2026-03-29T13:11:00.61Z</time></trkpt><trkpt lat="45.7010367" lon="9.6363435"><ele>248.39999999999998</ele><time>2026-03-29T13:11:06.61Z</time></trkpt><trkpt lat="45.7009346" lon="9.6363374"><ele>249.0</ele><time>2026-03-29T13:11:08.609Z</time></trkpt><trkpt lat="45.7006477" lon="9.6363228"><ele>249.0</ele><time>2026-03-29T13:11:10.609Z</time></trkpt><trkpt lat="45.7005481" lon="9.6362859"><ele>248.99999999999997</ele><time>2026-03-29T13:11:12.61Z</time></trkpt><trkpt lat="45.7004597" lon="9.6362342"><ele>248.99999999999997</ele><time>2026-03-29T13:11:15.609Z</time></trkpt><trkpt lat="45.700366" lon="9.6362293"><ele>249.0</ele><time>2026-03-29T13:11:17.61Z</time></trkpt><trkpt lat="45.7002693" lon="9.6361979"><ele>249.0</ele><time>2026-03-29T13:11:19.61Z</time></trkpt><trkpt lat="45.7001723" lon="9.6361776"><ele>249.0</ele><time>2026-03-29T13:11:21.61Z</time></trkpt><trkpt lat="45.7000535" lon="9.6361561"><ele>248.99999999999997</ele><time>2026-03-29T13:11:23.61Z</time></trkpt><trkpt lat="45.6999526" lon="9.6361431"><ele>248.99999999999997</ele><time>2026-03-29T13:11:25.61Z</time></trkpt><trkpt lat="45.6998337" lon="9.636139"><ele>249.0</ele><time>2026-03-29T13:11:27.61Z</time></trkpt><trkpt lat="45.6997309" lon="9.6361235"><ele>249.0</ele><time>2026-03-29T13:11:29.61Z</time></trkpt><trkpt lat="45.6996181" lon="9.6361161"><ele>248.39999999999998</ele><time>2026-03-29T13:11:31.61Z</time></trkpt><trkpt lat="45.6995064" lon="9.6361021"><ele>247.79999999999998</ele><time>2026-03-29T13:11:33.61Z</time></trkpt><trkpt lat="45.6993996" lon="9.6360888"><ele>247.20000000000002</ele><time>2026-03-29T13:11:35.61Z</time></trkpt><trkpt lat="45.6992963" lon="9.6360737"><ele>246.60000000000002</ele><time>2026-03-29T13:11:37.61Z</time></trkpt><trkpt lat="45.6992342" lon="9.6360528"><ele>246.0</ele><time>2026-03-29T13:11:38.61Z</time></trkpt><trkpt lat="45.6991449" lon="9.6360146"><ele>246.0</ele><time>2026-03-29T13:11:40.609Z</time></trkpt><trkpt lat="45.6990251" lon="9.6360015"><ele>246.00000000000003</ele><time>2026-03-29T13:11:42.609Z</time></trkpt><trkpt lat="45.6989147" lon="9.6359771"><ele>246.00000000000003</ele><time>2026-03-29T13:11:44.609Z</time></trkpt><trkpt lat="45.6988012" lon="9.6359657"><ele>246.0</ele><time>2026-03-29T13:11:46.61Z</time></trkpt><trkpt lat="45.6987014" lon="9.635953"><ele>246.0</ele><time>2026-03-29T13:11:48.61Z</time></trkpt><trkpt lat="45.6986349" lon="9.6359445"><ele>246.20000000000002</ele><time>2026-03-29T13:11:49.61Z</time></trkpt><trkpt lat="45.6985377" lon="9.6359295"><ele>246.40000000000003</ele><time>2026-03-29T13:11:51.61Z</time></trkpt><trkpt lat="45.6984387" lon="9.6359208"><ele>246.6</ele><time>2026-03-29T13:11:53.61Z</time></trkpt><trkpt lat="45.6983135" lon="9.6359136"><ele>246.8</ele><time>2026-03-29T13:11:55.61Z</time></trkpt><trkpt lat="45.6982" lon="9.6359195"><ele>247.0</ele><time>2026-03-29T13:11:57.61Z</time></trkpt><trkpt lat="45.6981008" lon="9.6359327"><ele>247.0</ele><time>2026-03-29T13:11:59.609Z</time></trkpt><trkpt lat="45.6980156" lon="9.6358989"><ele>247.0</ele><time>2026-03-29T13:12:01.61Z</time></trkpt><trkpt lat="45.6979095" lon="9.635866"><ele>247.0</ele><time>2026-03-29T13:12:03.61Z</time></trkpt><trkpt lat="45.6978144" lon="9.6358407"><ele>247.0</ele><time>2026-03-29T13:12:05.61Z</time></trkpt><trkpt lat="45.6977652" lon="9.6357497"><ele>247.0</ele><time>2026-03-29T13:12:07.609Z</time></trkpt><trkpt lat="45.6977429" lon="9.6356129"><ele>246.99999999999997</ele><time>2026-03-29T13:12:09.61Z</time></trkpt><trkpt lat="45.6977029" lon="9.6354953"><ele>247.0</ele><time>2026-03-29T13:12:11.61Z</time></trkpt><trkpt lat="45.6976738" lon="9.6353936"><ele>247.0</ele><time>2026-03-29T13:12:13.61Z</time></trkpt><trkpt lat="45.6975934" lon="9.6354049"><ele>247.0</ele><time>2026-03-29T13:12:14.61Z</time></trkpt><trkpt lat="45.6974816" lon="9.6353713"><ele>246.99999999999997</ele><time>2026-03-29T13:12:16.61Z</time></trkpt><trkpt lat="45.6974209" lon="9.635339"><ele>247.0</ele><time>2026-03-29T13:12:17.609Z</time></trkpt><trkpt lat="45.6973122" lon="9.6353056"><ele>246.66666666666666</ele><time>2026-03-29T13:12:19.61Z</time></trkpt><trkpt lat="45.6972449" lon="9.6352911"><ele>246.33333333333331</ele><time>2026-03-29T13:12:20.609Z</time></trkpt><trkpt lat="45.6971217" lon="9.6352696"><ele>246.0</ele><time>2026-03-29T13:12:22.61Z</time></trkpt><trkpt lat="45.6970534" lon="9.6352469"><ele>245.66666666666669</ele><time>2026-03-29T13:12:23.61Z</time></trkpt><trkpt lat="45.6969921" lon="9.6352257"><ele>245.33333333333334</ele><time>2026-03-29T13:12:24.61Z</time></trkpt><trkpt lat="45.6968708" lon="9.6352063"><ele>245.0</ele><time>2026-03-29T13:12:26.609Z</time></trkpt><trkpt lat="45.6967488" lon="9.6351555"><ele>245.0</ele><time>2026-03-29T13:12:28.61Z</time></trkpt><trkpt lat="45.6966322" lon="9.6351144"><ele>245.0</ele><time>2026-03-29T13:12:30.61Z</time></trkpt><trkpt lat="45.6965238" lon="9.6350895"><ele>245.0</ele><time>2026-03-29T13:12:32.61Z</time></trkpt><trkpt lat="45.6964116" lon="9.6350581"><ele>245.0</ele><time>2026-03-29T13:12:34.61Z</time></trkpt><trkpt lat="45.6962945" lon="9.6350542"><ele>245.0</ele><time>2026-03-29T13:12:36.61Z</time></trkpt><trkpt lat="45.6962094" lon="9.6350308"><ele>245.0</ele><time>2026-03-29T13:12:39.61Z</time></trkpt><trkpt lat="45.6960446" lon="9.635028"><ele>245.0</ele><time>2026-03-29T13:12:46.596Z</time></trkpt><trkpt lat="45.6960235" lon="9.6351347"><ele>245.0</ele><time>2026-03-29T13:12:50.601Z</time></trkpt><trkpt lat="45.6959309" lon="9.6351404"><ele>245.0</ele><time>2026-03-29T13:12:54.603Z</time></trkpt><trkpt lat="45.6958513" lon="9.6351371"><ele>244.66666666666669</ele><time>2026-03-29T13:12:56.604Z</time></trkpt><trkpt lat="45.6957679" lon="9.6351325"><ele>244.33333333333334</ele><time>2026-03-29T13:12:58.603Z</time></trkpt><trkpt lat="45.6956902" lon="9.6351504"><ele>244.0</ele><time>2026-03-29T13:13:00.604Z</time></trkpt><trkpt lat="45.6956193" lon="9.635156"><ele>243.66666666666669</ele><time>2026-03-29T13:13:02.604Z</time></trkpt><trkpt lat="45.6955448" lon="9.6351513"><ele>243.33333333333334</ele><time>2026-03-29T13:13:04.604Z</time></trkpt><trkpt lat="45.6954694" lon="9.6351747"><ele>243.0</ele><time>2026-03-29T13:13:06.604Z</time></trkpt><trkpt lat="45.6953927" lon="9.6351727"><ele>243.0</ele><time>2026-03-29T13:13:08.604Z</time></trkpt><trkpt lat="45.6953154" lon="9.6351425"><ele>243.0</ele><time>2026-03-29T13:13:10.604Z</time></trkpt><trkpt lat="45.695245" lon="9.635147"><ele>243.0</ele><time>2026-03-29T13:13:12.604Z</time></trkpt><trkpt lat="45.6951906" lon="9.6352138"><ele>243.0</ele><time>2026-03-29T13:13:14.604Z</time></trkpt><trkpt lat="45.6951355" lon="9.6352828"><ele>243.0</ele><time>2026-03-29T13:13:16.604Z</time></trkpt><trkpt lat="45.695072" lon="9.6353278"><ele>243.0</ele><time>2026-03-29T13:13:18.603Z</time></trkpt><trkpt lat="45.6950119" lon="9.6353737"><ele>243.0</ele><time>2026-03-29T13:13:20.603Z</time></trkpt><trkpt lat="45.6949452" lon="9.6354328"><ele>243.16666666666666</ele><time>2026-03-29T13:13:22.604Z</time></trkpt><trkpt lat="45.6948814" lon="9.6354976"><ele>243.33333333333331</ele><time>2026-03-29T13:13:24.603Z</time></trkpt><trkpt lat="45.6948057" lon="9.6355339"><ele>243.5</ele><time>2026-03-29T13:13:26.604Z</time></trkpt><trkpt lat="45.6947369" lon="9.6354729"><ele>243.66666666666666</ele><time>2026-03-29T13:13:28.604Z</time></trkpt><trkpt lat="45.6946496" lon="9.6354433"><ele>243.83333333333331</ele><time>2026-03-29T13:13:30.604Z</time></trkpt><trkpt lat="45.6945569" lon="9.6354527"><ele>244.0</ele><time>2026-03-29T13:13:32.604Z</time></trkpt><trkpt lat="45.6944727" lon="9.6354559"><ele>243.99999999999997</ele><time>2026-03-29T13:13:34.604Z</time></trkpt><trkpt lat="45.6944095" lon="9.6354734"><ele>244.0</ele><time>2026-03-29T13:13:36.603Z</time></trkpt><trkpt lat="45.6943807" lon="9.6353832"><ele>244.0</ele><time>2026-03-29T13:13:38.603Z</time></trkpt><trkpt lat="45.694335" lon="9.6352519"><ele>244.0</ele><time>2026-03-29T13:13:40.604Z</time></trkpt><trkpt lat="45.6942969" lon="9.6351154"><ele>243.99999999999997</ele><time>2026-03-29T13:13:42.604Z</time></trkpt><trkpt lat="45.6942558" lon="9.6350033"><ele>244.0</ele><time>2026-03-29T13:13:44.603Z</time></trkpt><trkpt lat="45.6942235" lon="9.6349117"><ele>243.99999999999997</ele><time>2026-03-29T13:13:46.604Z</time></trkpt><trkpt lat="45.6941746" lon="9.6349887"><ele>244.0</ele><time>2026-03-29T13:13:47.604Z</time></trkpt><trkpt lat="45.6941041" lon="9.6350812"><ele>244.0</ele><time>2026-03-29T13:13:49.604Z</time></trkpt><trkpt lat="45.6940281" lon="9.6351317"><ele>244.0</ele><time>2026-03-29T13:13:51.604Z</time></trkpt><trkpt lat="45.6939626" lon="9.6351834"><ele>243.99999999999997</ele><time>2026-03-29T13:13:53.604Z</time></trkpt><trkpt lat="45.6939057" lon="9.6352564"><ele>244.0</ele><time>2026-03-29T13:13:55.604Z</time></trkpt><trkpt lat="45.6938355" lon="9.6353359"><ele>243.99999999999997</ele><time>2026-03-29T13:13:57.604Z</time></trkpt><trkpt lat="45.6937623" lon="9.6353993"><ele>244.0</ele><time>2026-03-29T13:13:59.604Z</time></trkpt><trkpt lat="45.6936925" lon="9.6354449"><ele>244.0</ele><time>2026-03-29T13:14:01.604Z</time></trkpt><trkpt lat="45.6936109" lon="9.6354247"><ele>244.0</ele><time>2026-03-29T13:14:04.604Z</time></trkpt><trkpt lat="45.6935435" lon="9.6353843"><ele>243.99999999999997</ele><time>2026-03-29T13:14:16.604Z</time></trkpt><trkpt lat="45.693476" lon="9.6353589"><ele>244.0</ele><time>2026-03-29T13:14:18.604Z</time></trkpt><trkpt lat="45.693374" lon="9.6353805"><ele>244.0</ele><time>2026-03-29T13:14:20.604Z</time></trkpt><trkpt lat="45.6933084" lon="9.6354509"><ele>243.99999999999997</ele><time>2026-03-29T13:14:22.604Z</time></trkpt><trkpt lat="45.6932415" lon="9.6355619"><ele>243.99999999999997</ele><time>2026-03-29T13:14:24.604Z</time></trkpt><trkpt lat="45.6931768" lon="9.6356635"><ele>244.0</ele><time>2026-03-29T13:14:26.604Z</time></trkpt><trkpt lat="45.6931036" lon="9.6357666"><ele>244.0</ele><time>2026-03-29T13:14:28.604Z</time></trkpt><trkpt lat="45.6930224" lon="9.6358436"><ele>244.0</ele><time>2026-03-29T13:14:30.604Z</time></trkpt><trkpt lat="45.6929427" lon="9.6359165"><ele>243.99999999999997</ele><time>2026-03-29T13:14:32.604Z</time></trkpt><trkpt lat="45.6928555" lon="9.6360022"><ele>243.99999999999997</ele><time>2026-03-29T13:14:34.604Z</time></trkpt><trkpt lat="45.6927724" lon="9.6361002"><ele>244.0</ele><time>2026-03-29T13:14:36.604Z</time></trkpt><trkpt lat="45.6926845" lon="9.6361688"><ele>244.0</ele><time>2026-03-29T13:14:38.604Z</time></trkpt><trkpt lat="45.6926133" lon="9.6362461"><ele>244.39999999999998</ele><time>2026-03-29T13:14:40.604Z</time></trkpt><trkpt lat="45.6925291" lon="9.6363229"><ele>244.79999999999998</ele><time>2026-03-29T13:14:42.604Z</time></trkpt><trkpt lat="45.6924366" lon="9.6364116"><ele>245.20000000000002</ele><time>2026-03-29T13:14:44.603Z</time></trkpt><trkpt lat="45.6923557" lon="9.6364803"><ele>245.60000000000002</ele><time>2026-03-29T13:14:46.604Z</time></trkpt><trkpt lat="45.6922812" lon="9.6365572"><ele>246.0</ele><time>2026-03-29T13:14:48.604Z</time></trkpt><trkpt lat="45.6922136" lon="9.6366301"><ele>246.0</ele><time>2026-03-29T13:14:50.603Z</time></trkpt><trkpt lat="45.6921337" lon="9.6366898"><ele>246.00000000000003</ele><time>2026-03-29T13:14:52.603Z</time></trkpt><trkpt lat="45.6920502" lon="9.6367659"><ele>246.00000000000003</ele><time>2026-03-29T13:14:54.604Z</time></trkpt><trkpt lat="45.6919734" lon="9.6368591"><ele>246.0</ele><time>2026-03-29T13:14:56.604Z</time></trkpt><trkpt lat="45.6919238" lon="9.6369575"><ele>246.0</ele><time>2026-03-29T13:14:59.603Z</time></trkpt><trkpt lat="45.6918747" lon="9.6370389"><ele>246.0</ele><time>2026-03-29T13:15:01.604Z</time></trkpt><trkpt lat="45.691837" lon="9.6371317"><ele>246.0</ele><time>2026-03-29T13:15:03.604Z</time></trkpt><trkpt lat="45.691825" lon="9.6372436"><ele>246.0</ele><time>2026-03-29T13:15:05.603Z</time></trkpt><trkpt lat="45.6917594" lon="9.6372879"><ele>246.0</ele><time>2026-03-29T13:15:07.604Z</time></trkpt><trkpt lat="45.6917138" lon="9.6372207"><ele>246.0</ele><time>2026-03-29T13:15:09.604Z</time></trkpt><trkpt lat="45.6916215" lon="9.6372773"><ele>246.0</ele><time>2026-03-29T13:15:16.604Z</time></trkpt><trkpt lat="45.6915406" lon="9.6372717"><ele>246.0</ele><time>2026-03-29T13:15:24.604Z</time></trkpt><trkpt lat="45.6915079" lon="9.6371836"><ele>246.00000000000003</ele><time>2026-03-29T13:15:28.603Z</time></trkpt><trkpt lat="45.6914315" lon="9.637154"><ele>246.00000000000003</ele><time>2026-03-29T13:15:32.603Z</time></trkpt><trkpt lat="45.6913731" lon="9.637197"><ele>246.0</ele><time>2026-03-29T13:15:34.604Z</time></trkpt><trkpt lat="45.691256" lon="9.6372319"><ele>246.0</ele><time>2026-03-29T13:15:36.604Z</time></trkpt><trkpt lat="45.6911356" lon="9.6371999"><ele>244.60000000000002</ele><time>2026-03-29T13:15:38.604Z</time></trkpt><trkpt lat="45.6910463" lon="9.6371723"><ele>243.20000000000002</ele><time>2026-03-29T13:15:40.603Z</time></trkpt><trkpt lat="45.6909654" lon="9.6371556"><ele>241.79999999999998</ele><time>2026-03-29T13:15:42.604Z</time></trkpt><trkpt lat="45.6908907" lon="9.6371316"><ele>240.39999999999998</ele><time>2026-03-29T13:15:44.604Z</time></trkpt><trkpt lat="45.69078" lon="9.6371235"><ele>239.0</ele><time>2026-03-29T13:15:46.604Z</time></trkpt><trkpt lat="45.6906854" lon="9.6371084"><ele>239.0</ele><time>2026-03-29T13:15:48.604Z</time></trkpt><trkpt lat="45.6905795" lon="9.637149"><ele>238.99999999999997</ele><time>2026-03-29T13:15:50.604Z</time></trkpt><trkpt lat="45.6905202" lon="9.6371913"><ele>238.99999999999997</ele><time>2026-03-29T13:15:51.604Z</time></trkpt><trkpt lat="45.6904211" lon="9.6372838"><ele>239.0</ele><time>2026-03-29T13:15:53.604Z</time></trkpt><trkpt lat="45.690366" lon="9.6374084"><ele>239.0</ele><time>2026-03-29T13:15:55.604Z</time></trkpt><trkpt lat="45.6903608" lon="9.6375472"><ele>239.00000000000003</ele><time>2026-03-29T13:15:57.604Z</time></trkpt><trkpt lat="45.690365" lon="9.6376862"><ele>239.0</ele><time>2026-03-29T13:15:59.604Z</time></trkpt><trkpt lat="45.6903973" lon="9.6378264"><ele>239.0</ele><time>2026-03-29T13:16:01.603Z</time></trkpt><trkpt lat="45.6904315" lon="9.637951"><ele>239.0</ele><time>2026-03-29T13:16:03.603Z</time></trkpt><trkpt lat="45.6904665" lon="9.6380353"><ele>239.00000000000003</ele><time>2026-03-29T13:16:05.604Z</time></trkpt><trkpt lat="45.6904371" lon="9.6381466"><ele>239.0</ele><time>2026-03-29T13:16:08.604Z</time></trkpt><trkpt lat="45.6903966" lon="9.6382267"><ele>238.5714285714286</ele><time>2026-03-29T13:16:10.604Z</time></trkpt><trkpt lat="45.6903622" lon="9.6383035"><ele>238.14285714285717</ele><time>2026-03-29T13:16:12.604Z</time></trkpt><trkpt lat="45.690316" lon="9.6383874"><ele>237.71428571428572</ele><time>2026-03-29T13:16:15.604Z</time></trkpt><trkpt lat="45.6902525" lon="9.6383111"><ele>237.2857142857143</ele><time>2026-03-29T13:16:19.604Z</time></trkpt><trkpt lat="45.6902055" lon="9.6382265"><ele>236.8571428571429</ele><time>2026-03-29T13:16:22.604Z</time></trkpt><trkpt lat="45.6901655" lon="9.6381554"><ele>236.42857142857142</ele><time>2026-03-29T13:16:24.603Z</time></trkpt><trkpt lat="45.6901114" lon="9.6381074"><ele>236.0</ele><time>2026-03-29T13:16:26.604Z</time></trkpt><trkpt lat="45.6900308" lon="9.6380381"><ele>235.33333333333334</ele><time>2026-03-29T13:16:29.604Z</time></trkpt><trkpt lat="45.6899741" lon="9.6379205"><ele>234.66666666666669</ele><time>2026-03-29T13:16:31.604Z</time></trkpt><trkpt lat="45.689921" lon="9.6377934"><ele>234.0</ele><time>2026-03-29T13:16:33.604Z</time></trkpt><trkpt lat="45.6898555" lon="9.637749"><ele>233.33333333333331</ele><time>2026-03-29T13:16:35.604Z</time></trkpt><trkpt lat="45.6897889" lon="9.6378205"><ele>232.66666666666666</ele><time>2026-03-29T13:16:38.604Z</time></trkpt><trkpt lat="45.6897565" lon="9.6379198"><ele>232.0</ele><time>2026-03-29T13:16:41.604Z</time></trkpt><trkpt lat="45.6897167" lon="9.6380384"><ele>231.66666666666666</ele><time>2026-03-29T13:16:44.604Z</time></trkpt><trkpt lat="45.6896977" lon="9.6381363"><ele>231.33333333333331</ele><time>2026-03-29T13:16:46.604Z</time></trkpt><trkpt lat="45.6896711" lon="9.6382386"><ele>231.0</ele><time>2026-03-29T13:16:49.604Z</time></trkpt><trkpt lat="45.6896584" lon="9.6383564"><ele>230.66666666666669</ele><time>2026-03-29T13:17:20.604Z</time></trkpt><trkpt lat="45.6895994" lon="9.6383907"><ele>230.33333333333334</ele><time>2026-03-29T13:17:22.604Z</time></trkpt><trkpt lat="45.6895292" lon="9.6384013"><ele>230.0</ele><time>2026-03-29T13:17:24.603Z</time></trkpt><trkpt lat="45.6892898" lon="9.6385976"><ele>230.2</ele><time>2026-03-29T13:17:30.605Z</time></trkpt><trkpt lat="45.6891863" lon="9.6387173"><ele>230.4</ele><time>2026-03-29T13:17:32.605Z</time></trkpt><trkpt lat="45.6891225" lon="9.6388135"><ele>230.60000000000002</ele><time>2026-03-29T13:17:34.601Z</time></trkpt><trkpt lat="45.6890536" lon="9.6389312"><ele>230.8</ele><time>2026-03-29T13:17:36.606Z</time></trkpt><trkpt lat="45.6889802" lon="9.6390516"><ele>231.0</ele><time>2026-03-29T13:17:38.606Z</time></trkpt><trkpt lat="45.6889257" lon="9.6391179"><ele>231.0</ele><time>2026-03-29T13:17:39.606Z</time></trkpt><trkpt lat="45.688846" lon="9.63923"><ele>231.0</ele><time>2026-03-29T13:17:41.606Z</time></trkpt><trkpt lat="45.6887737" lon="9.6393385"><ele>231.0</ele><time>2026-03-29T13:17:43.606Z</time></trkpt><trkpt lat="45.6886967" lon="9.6394469"><ele>231.0</ele><time>2026-03-29T13:17:45.606Z</time></trkpt><trkpt lat="45.6886017" lon="9.6396034"><ele>231.5</ele><time>2026-03-29T13:17:51.601Z</time></trkpt><trkpt lat="45.6882041" lon="9.6394191"><ele>232.0</ele><time>2026-03-29T13:18:01.605Z</time></trkpt><trkpt lat="45.6881529" lon="9.639348"><ele>232.0</ele><time>2026-03-29T13:18:02.602Z</time></trkpt><trkpt lat="45.6881125" lon="9.6392041"><ele>232.0</ele><time>2026-03-29T13:18:04.597Z</time></trkpt><trkpt lat="45.6880979" lon="9.6390695"><ele>232.0</ele><time>2026-03-29T13:18:06.604Z</time></trkpt><trkpt lat="45.6881096" lon="9.6389331"><ele>232.0</ele><time>2026-03-29T13:18:08.604Z</time></trkpt><trkpt lat="45.6881186" lon="9.6388023"><ele>232.0</ele><time>2026-03-29T13:18:10.604Z</time></trkpt><trkpt lat="45.6881257" lon="9.6386683"><ele>232.0</ele><time>2026-03-29T13:18:12.603Z</time></trkpt><trkpt lat="45.6881248" lon="9.6385335"><ele>232.0</ele><time>2026-03-29T13:18:14.604Z</time></trkpt><trkpt lat="45.6881336" lon="9.63839"><ele>232.0</ele><time>2026-03-29T13:18:16.604Z</time></trkpt><trkpt lat="45.6881389" lon="9.6382531"><ele>232.0</ele><time>2026-03-29T13:18:18.604Z</time></trkpt><trkpt lat="45.6881516" lon="9.6381099"><ele>232.0</ele><time>2026-03-29T13:18:20.604Z</time></trkpt><trkpt lat="45.6881654" lon="9.6379676"><ele>232.0</ele><time>2026-03-29T13:18:22.604Z</time></trkpt><trkpt lat="45.688187" lon="9.6378089"><ele>232.0</ele><time>2026-03-29T13:18:24.604Z</time></trkpt><trkpt lat="45.6882046" lon="9.6376542"><ele>232.0</ele><time>2026-03-29T13:18:26.604Z</time></trkpt><trkpt lat="45.6882274" lon="9.6374909"><ele>232.0</ele><time>2026-03-29T13:18:28.603Z</time></trkpt><trkpt lat="45.6882442" lon="9.6373334"><ele>231.5</ele><time>2026-03-29T13:18:30.604Z</time></trkpt><trkpt lat="45.6882656" lon="9.6371761"><ele>231.0</ele><time>2026-03-29T13:18:32.604Z</time></trkpt><trkpt lat="45.6882868" lon="9.6370111"><ele>230.5</ele><time>2026-03-29T13:18:34.604Z</time></trkpt><trkpt lat="45.6883049" lon="9.6368524"><ele>230.0</ele><time>2026-03-29T13:18:36.604Z</time></trkpt><trkpt lat="45.6883335" lon="9.6366859"><ele>229.75</ele><time>2026-03-29T13:18:38.603Z</time></trkpt><trkpt lat="45.6883605" lon="9.6365114"><ele>229.5</ele><time>2026-03-29T13:18:40.604Z</time></trkpt><trkpt lat="45.6883727" lon="9.6363511"><ele>229.25</ele><time>2026-03-29T13:18:42.604Z</time></trkpt><trkpt lat="45.6883788" lon="9.6361871"><ele>229.0</ele><time>2026-03-29T13:18:44.604Z</time></trkpt><trkpt lat="45.6883975" lon="9.6360166"><ele>229.75</ele><time>2026-03-29T13:18:46.604Z</time></trkpt><trkpt lat="45.6884196" lon="9.6358563"><ele>230.5</ele><time>2026-03-29T13:18:48.604Z</time></trkpt><trkpt lat="45.6884355" lon="9.6356857"><ele>231.25</ele><time>2026-03-29T13:18:50.604Z</time></trkpt><trkpt lat="45.6884596" lon="9.6355175"><ele>232.0</ele><time>2026-03-29T13:18:52.604Z</time></trkpt><trkpt lat="45.6884833" lon="9.6353481"><ele>232.0</ele><time>2026-03-29T13:18:54.604Z</time></trkpt><trkpt lat="45.6885079" lon="9.6351798"><ele>232.0</ele><time>2026-03-29T13:18:56.604Z</time></trkpt><trkpt lat="45.688528" lon="9.6350185"><ele>232.0</ele><time>2026-03-29T13:18:58.604Z</time></trkpt><trkpt lat="45.68855" lon="9.6348539"><ele>232.0</ele><time>2026-03-29T13:19:00.604Z</time></trkpt><trkpt lat="45.6885701" lon="9.6346973"><ele>232.0</ele><time>2026-03-29T13:19:02.604Z</time></trkpt><trkpt lat="45.6885794" lon="9.6345371"><ele>232.0</ele><time>2026-03-29T13:19:04.603Z</time></trkpt><trkpt lat="45.6885987" lon="9.6343787"><ele>232.0</ele><time>2026-03-29T13:19:06.604Z</time></trkpt><trkpt lat="45.6886298" lon="9.6342356"><ele>232.0</ele><time>2026-03-29T13:19:08.604Z</time></trkpt><trkpt lat="45.6886579" lon="9.6341012"><ele>232.0</ele><time>2026-03-29T13:19:10.604Z</time></trkpt><trkpt lat="45.6886065" lon="9.6339758"><ele>231.75</ele><time>2026-03-29T13:19:12.604Z</time></trkpt><trkpt lat="45.6885656" lon="9.6338378"><ele>231.5</ele><time>2026-03-29T13:19:14.604Z</time></trkpt><trkpt lat="45.6885136" lon="9.6336886"><ele>231.25</ele><time>2026-03-29T13:19:16.604Z</time></trkpt><trkpt lat="45.68848" lon="9.6335132"><ele>231.0</ele><time>2026-03-29T13:19:18.603Z</time></trkpt><trkpt lat="45.6884389" lon="9.6333476"><ele>231.0</ele><time>2026-03-29T13:19:20.604Z</time></trkpt><trkpt lat="45.6884127" lon="9.6332603"><ele>231.00000000000003</ele><time>2026-03-29T13:19:21.603Z</time></trkpt><trkpt lat="45.6883671" lon="9.6331182"><ele>231.00000000000003</ele><time>2026-03-29T13:19:23.604Z</time></trkpt><trkpt lat="45.6883632" lon="9.633017"><ele>231.0</ele><time>2026-03-29T13:19:24.604Z</time></trkpt><trkpt lat="45.6883478" lon="9.6328537"><ele>231.0</ele><time>2026-03-29T13:19:26.604Z</time></trkpt><trkpt lat="45.6883344" lon="9.6327069"><ele>230.75</ele><time>2026-03-29T13:19:28.603Z</time></trkpt><trkpt lat="45.6883305" lon="9.632534"><ele>230.5</ele><time>2026-03-29T13:19:30.603Z</time></trkpt><trkpt lat="45.6883214" lon="9.6323692"><ele>230.25</ele><time>2026-03-29T13:19:32.604Z</time></trkpt><trkpt lat="45.6883133" lon="9.6321991"><ele>230.0</ele><time>2026-03-29T13:19:34.604Z</time></trkpt><trkpt lat="45.6883004" lon="9.6320201"><ele>229.75</ele><time>2026-03-29T13:19:36.604Z</time></trkpt><trkpt lat="45.6882891" lon="9.63185"><ele>229.5</ele><time>2026-03-29T13:19:38.604Z</time></trkpt><trkpt lat="45.6882558" lon="9.6316898"><ele>229.25</ele><time>2026-03-29T13:19:40.604Z</time></trkpt><trkpt lat="45.6882141" lon="9.6315211"><ele>229.0</ele><time>2026-03-29T13:19:42.604Z</time></trkpt><trkpt lat="45.688176" lon="9.6313634"><ele>229.0</ele><time>2026-03-29T13:19:44.604Z</time></trkpt><trkpt lat="45.6881393" lon="9.6312177"><ele>228.99999999999997</ele><time>2026-03-29T13:19:46.604Z</time></trkpt><trkpt lat="45.6881712" lon="9.6310554"><ele>228.99999999999997</ele><time>2026-03-29T13:19:48.604Z</time></trkpt><trkpt lat="45.6882242" lon="9.6309159"><ele>229.0</ele><time>2026-03-29T13:19:50.604Z</time></trkpt><trkpt lat="45.6883153" lon="9.63084"><ele>229.0</ele><time>2026-03-29T13:19:52.604Z</time></trkpt><trkpt lat="45.6884166" lon="9.630846"><ele>229.39999999999998</ele><time>2026-03-29T13:19:54.603Z</time></trkpt><trkpt lat="45.688516" lon="9.630892"><ele>229.79999999999998</ele><time>2026-03-29T13:19:56.604Z</time></trkpt><trkpt lat="45.688613" lon="9.6309207"><ele>230.20000000000002</ele><time>2026-03-29T13:19:58.604Z</time></trkpt><trkpt lat="45.6887204" lon="9.6309368"><ele>230.60000000000002</ele><time>2026-03-29T13:20:00.604Z</time></trkpt><trkpt lat="45.6888165" lon="9.6309391"><ele>231.0</ele><time>2026-03-29T13:20:02.604Z</time></trkpt><trkpt lat="45.6889003" lon="9.6309304"><ele>231.66666666666666</ele><time>2026-03-29T13:20:04.604Z</time></trkpt><trkpt lat="45.6889435" lon="9.6308492"><ele>232.33333333333331</ele><time>2026-03-29T13:20:06.604Z</time></trkpt><trkpt lat="45.6889549" lon="9.6307192"><ele>233.0</ele><time>2026-03-29T13:20:08.604Z</time></trkpt><trkpt lat="45.6889696" lon="9.6305693"><ele>233.66666666666666</ele><time>2026-03-29T13:20:10.604Z</time></trkpt><trkpt lat="45.6889418" lon="9.6304485"><ele>234.33333333333331</ele><time>2026-03-29T13:20:12.604Z</time></trkpt><trkpt lat="45.6888599" lon="9.6304546"><ele>235.0</ele><time>2026-03-29T13:20:13.604Z</time></trkpt><trkpt lat="45.6887466" lon="9.6303814"><ele>235.0</ele><time>2026-03-29T13:20:15.604Z</time></trkpt><trkpt lat="45.6886314" lon="9.6303792"><ele>235.0</ele><time>2026-03-29T13:20:17.604Z</time></trkpt><trkpt lat="45.6885261" lon="9.6303623"><ele>235.0</ele><time>2026-03-29T13:20:19.604Z</time></trkpt><trkpt lat="45.6884535" lon="9.630281"><ele>235.0</ele><time>2026-03-29T13:20:21.604Z</time></trkpt><trkpt lat="45.6884135" lon="9.6301304"><ele>235.0</ele><time>2026-03-29T13:20:23.604Z</time></trkpt><trkpt lat="45.6883916" lon="9.6299775"><ele>234.0</ele><time>2026-03-29T13:20:25.603Z</time></trkpt><trkpt lat="45.6883359" lon="9.6298393"><ele>233.0</ele><time>2026-03-29T13:20:27.604Z</time></trkpt><trkpt lat="45.6883283" lon="9.629703"><ele>232.0</ele><time>2026-03-29T13:20:29.604Z</time></trkpt><trkpt lat="45.6883685" lon="9.6295812"><ele>231.0</ele><time>2026-03-29T13:20:31.604Z</time></trkpt><trkpt lat="45.6884411" lon="9.6294828"><ele>230.0</ele><time>2026-03-29T13:20:33.604Z</time></trkpt><trkpt lat="45.6885289" lon="9.6293857"><ele>230.0</ele><time>2026-03-29T13:20:35.603Z</time></trkpt><trkpt lat="45.6886103" lon="9.6292835"><ele>230.0</ele><time>2026-03-29T13:20:37.603Z</time></trkpt><trkpt lat="45.6886937" lon="9.6291692"><ele>230.0</ele><time>2026-03-29T13:20:39.604Z</time></trkpt><trkpt lat="45.6887678" lon="9.6290451"><ele>230.0</ele><time>2026-03-29T13:20:41.604Z</time></trkpt><trkpt lat="45.6888435" lon="9.6289166"><ele>230.0</ele><time>2026-03-29T13:20:43.604Z</time></trkpt><trkpt lat="45.6889207" lon="9.6287896"><ele>230.0</ele><time>2026-03-29T13:20:45.604Z</time></trkpt><trkpt lat="45.6890051" lon="9.6286661"><ele>230.0</ele><time>2026-03-29T13:20:47.604Z</time></trkpt><trkpt lat="45.6890808" lon="9.6285348"><ele>230.0</ele><time>2026-03-29T13:20:49.604Z</time></trkpt><trkpt lat="45.6891503" lon="9.6283946"><ele>229.75</ele><time>2026-03-29T13:20:51.604Z</time></trkpt><trkpt lat="45.6892045" lon="9.6282428"><ele>229.5</ele><time>2026-03-29T13:20:53.604Z</time></trkpt><trkpt lat="45.6892298" lon="9.628077"><ele>229.25</ele><time>2026-03-29T13:20:55.604Z</time></trkpt><trkpt lat="45.689222" lon="9.6279043"><ele>229.0</ele><time>2026-03-29T13:20:57.604Z</time></trkpt><trkpt lat="45.6892181" lon="9.6277338"><ele>229.0</ele><time>2026-03-29T13:20:59.604Z</time></trkpt><trkpt lat="45.6892093" lon="9.6275643"><ele>228.99999999999997</ele><time>2026-03-29T13:21:01.603Z</time></trkpt><trkpt lat="45.689209" lon="9.6273881"><ele>228.99999999999997</ele><time>2026-03-29T13:21:03.604Z</time></trkpt><trkpt lat="45.6892056" lon="9.6272958"><ele>229.0</ele><time>2026-03-29T13:21:04.604Z</time></trkpt><trkpt lat="45.6892008" lon="9.6272032"><ele>229.0</ele><time>2026-03-29T13:21:05.604Z</time></trkpt><trkpt lat="45.6891918" lon="9.6270278"><ele>229.25</ele><time>2026-03-29T13:21:07.604Z</time></trkpt><trkpt lat="45.6891768" lon="9.6268548"><ele>229.5</ele><time>2026-03-29T13:21:09.604Z</time></trkpt><trkpt lat="45.6891309" lon="9.626692"><ele>229.75</ele><time>2026-03-29T13:21:11.604Z</time></trkpt><trkpt lat="45.6890613" lon="9.6265502"><ele>230.0</ele><time>2026-03-29T13:21:13.603Z</time></trkpt><trkpt lat="45.6889716" lon="9.6264423"><ele>230.00000000000003</ele><time>2026-03-29T13:21:15.604Z</time></trkpt><trkpt lat="45.6888664" lon="9.6263502"><ele>230.0</ele><time>2026-03-29T13:21:17.604Z</time></trkpt><trkpt lat="45.6888135" lon="9.6263011"><ele>230.0</ele><time>2026-03-29T13:21:18.604Z</time></trkpt><trkpt lat="45.6887057" lon="9.6262117"><ele>230.0</ele><time>2026-03-29T13:21:20.604Z</time></trkpt><trkpt lat="45.6886491" lon="9.6261702"><ele>230.00000000000003</ele><time>2026-03-29T13:21:21.604Z</time></trkpt><trkpt lat="45.6885937" lon="9.6261234"><ele>230.0</ele><time>2026-03-29T13:21:22.603Z</time></trkpt><trkpt lat="45.6884874" lon="9.6260381"><ele>229.8</ele><time>2026-03-29T13:21:24.604Z</time></trkpt><trkpt lat="45.688429" lon="9.6259909"><ele>229.6</ele><time>2026-03-29T13:21:25.604Z</time></trkpt><trkpt lat="45.6883733" lon="9.6259444"><ele>229.39999999999998</ele><time>2026-03-29T13:21:26.604Z</time></trkpt><trkpt lat="45.6882658" lon="9.6258444"><ele>229.2</ele><time>2026-03-29T13:21:28.603Z</time></trkpt><trkpt lat="45.6881568" lon="9.6257525"><ele>229.0</ele><time>2026-03-29T13:21:30.603Z</time></trkpt><trkpt lat="45.6880569" lon="9.6256702"><ele>229.0</ele><time>2026-03-29T13:21:32.604Z</time></trkpt><trkpt lat="45.6879532" lon="9.6255846"><ele>228.99999999999997</ele><time>2026-03-29T13:21:34.604Z</time></trkpt><trkpt lat="45.6878451" lon="9.6255126"><ele>228.99999999999997</ele><time>2026-03-29T13:21:36.604Z</time></trkpt><trkpt lat="45.6877887" lon="9.6254712"><ele>229.0</ele><time>2026-03-29T13:21:37.604Z</time></trkpt><trkpt lat="45.6876764" lon="9.6253988"><ele>229.0</ele><time>2026-03-29T13:21:39.604Z</time></trkpt><trkpt lat="45.687621" lon="9.6253553"><ele>229.2</ele><time>2026-03-29T13:21:40.604Z</time></trkpt><trkpt lat="45.6875656" lon="9.6253111"><ele>229.39999999999998</ele><time>2026-03-29T13:21:41.604Z</time></trkpt><trkpt lat="45.6874627" lon="9.6252269"><ele>229.6</ele><time>2026-03-29T13:21:43.604Z</time></trkpt><trkpt lat="45.6873674" lon="9.6251308"><ele>229.8</ele><time>2026-03-29T13:21:45.604Z</time></trkpt><trkpt lat="45.687273" lon="9.6250515"><ele>230.0</ele><time>2026-03-29T13:21:47.604Z</time></trkpt><trkpt lat="45.6871725" lon="9.6249792"><ele>230.0</ele><time>2026-03-29T13:21:49.604Z</time></trkpt><trkpt lat="45.6870669" lon="9.6249077"><ele>230.0</ele><time>2026-03-29T13:21:51.604Z</time></trkpt><trkpt lat="45.6869622" lon="9.6248264"><ele>230.0</ele><time>2026-03-29T13:21:53.604Z</time></trkpt><trkpt lat="45.6868578" lon="9.6247313"><ele>230.0</ele><time>2026-03-29T13:21:55.603Z</time></trkpt><trkpt lat="45.6867583" lon="9.6246465"><ele>230.0</ele><time>2026-03-29T13:21:57.604Z</time></trkpt><trkpt lat="45.6866554" lon="9.6245632"><ele>230.0</ele><time>2026-03-29T13:21:59.604Z</time></trkpt><trkpt lat="45.6865465" lon="9.6244772"><ele>230.0</ele><time>2026-03-29T13:22:01.604Z</time></trkpt><trkpt lat="45.6864887" lon="9.6244365"><ele>230.0</ele><time>2026-03-29T13:22:02.604Z</time></trkpt><trkpt lat="45.6863773" lon="9.6243504"><ele>230.0</ele><time>2026-03-29T13:22:04.603Z</time></trkpt><trkpt lat="45.6862629" lon="9.624264"><ele>230.5</ele><time>2026-03-29T13:22:06.604Z</time></trkpt><trkpt lat="45.6861584" lon="9.624199"><ele>231.0</ele><time>2026-03-29T13:22:08.603Z</time></trkpt><trkpt lat="45.6860574" lon="9.6241181"><ele>231.5</ele><time>2026-03-29T13:22:10.604Z</time></trkpt><trkpt lat="45.6859601" lon="9.6240279"><ele>232.0</ele><time>2026-03-29T13:22:12.604Z</time></trkpt><trkpt lat="45.685855" lon="9.6239404"><ele>232.0</ele><time>2026-03-29T13:22:14.604Z</time></trkpt><trkpt lat="45.6857974" lon="9.6238991"><ele>232.0</ele><time>2026-03-29T13:22:15.604Z</time></trkpt><trkpt lat="45.6856886" lon="9.6238143"><ele>232.0</ele><time>2026-03-29T13:22:17.604Z</time></trkpt><trkpt lat="45.6855754" lon="9.6237344"><ele>232.0</ele><time>2026-03-29T13:22:19.604Z</time></trkpt><trkpt lat="45.685471" lon="9.623653"><ele>232.0</ele><time>2026-03-29T13:22:21.604Z</time></trkpt><trkpt lat="45.6853722" lon="9.6235765"><ele>232.2</ele><time>2026-03-29T13:22:23.604Z</time></trkpt><trkpt lat="45.6852719" lon="9.6235073"><ele>232.39999999999998</ele><time>2026-03-29T13:22:25.604Z</time></trkpt><trkpt lat="45.6851737" lon="9.6234314"><ele>232.60000000000002</ele><time>2026-03-29T13:22:27.604Z</time></trkpt><trkpt lat="45.685097" lon="9.6233616"><ele>232.8</ele><time>2026-03-29T13:22:29.604Z</time></trkpt><trkpt lat="45.6850348" lon="9.6233104"><ele>233.0</ele><time>2026-03-29T13:22:30.603Z</time></trkpt><trkpt lat="45.6849388" lon="9.623226"><ele>233.0</ele><time>2026-03-29T13:22:32.604Z</time></trkpt><trkpt lat="45.684838" lon="9.6231289"><ele>233.0</ele><time>2026-03-29T13:22:34.603Z</time></trkpt><trkpt lat="45.6847369" lon="9.6230587"><ele>233.0</ele><time>2026-03-29T13:22:36.604Z</time></trkpt><trkpt lat="45.6846389" lon="9.6229716"><ele>233.0</ele><time>2026-03-29T13:22:38.604Z</time></trkpt><trkpt lat="45.6845351" lon="9.6229025"><ele>233.0</ele><time>2026-03-29T13:22:40.604Z</time></trkpt><trkpt lat="45.6844351" lon="9.6228163"><ele>233.0</ele><time>2026-03-29T13:22:42.604Z</time></trkpt><trkpt lat="45.6843847" lon="9.6227623"><ele>233.0</ele><time>2026-03-29T13:22:43.604Z</time></trkpt><trkpt lat="45.684269" lon="9.6226724"><ele>233.0</ele><time>2026-03-29T13:22:45.604Z</time></trkpt><trkpt lat="45.6841865" lon="9.6225952"><ele>233.0</ele><time>2026-03-29T13:22:47.603Z</time></trkpt><trkpt lat="45.6841489" lon="9.6225164"><ele>233.25</ele><time>2026-03-29T13:22:48.604Z</time></trkpt><trkpt lat="45.6840704" lon="9.6224029"><ele>233.5</ele><time>2026-03-29T13:22:50.604Z</time></trkpt><trkpt lat="45.6839805" lon="9.6223014"><ele>233.75</ele><time>2026-03-29T13:22:52.603Z</time></trkpt><trkpt lat="45.683886" lon="9.6222004"><ele>234.0</ele><time>2026-03-29T13:22:54.604Z</time></trkpt><trkpt lat="45.6837983" lon="9.6220997"><ele>234.0</ele><time>2026-03-29T13:22:56.604Z</time></trkpt><trkpt lat="45.6837102" lon="9.622014"><ele>233.99999999999997</ele><time>2026-03-29T13:22:58.604Z</time></trkpt><trkpt lat="45.6836632" lon="9.6219472"><ele>233.99999999999997</ele><time>2026-03-29T13:22:59.604Z</time></trkpt><trkpt lat="45.6835789" lon="9.6218379"><ele>234.0</ele><time>2026-03-29T13:23:01.604Z</time></trkpt><trkpt lat="45.6834962" lon="9.621725"><ele>234.0</ele><time>2026-03-29T13:23:03.604Z</time></trkpt><trkpt lat="45.6834054" lon="9.6216222"><ele>233.33333333333334</ele><time>2026-03-29T13:23:05.603Z</time></trkpt><trkpt lat="45.68331" lon="9.621509"><ele>232.66666666666669</ele><time>2026-03-29T13:23:07.603Z</time></trkpt><trkpt lat="45.6832556" lon="9.6214491"><ele>232.0</ele><time>2026-03-29T13:23:08.604Z</time></trkpt><trkpt lat="45.6831634" lon="9.6213305"><ele>231.33333333333334</ele><time>2026-03-29T13:23:10.604Z</time></trkpt><trkpt lat="45.6831133" lon="9.6212717"><ele>230.66666666666669</ele><time>2026-03-29T13:23:11.604Z</time></trkpt><trkpt lat="45.6830649" lon="9.6212116"><ele>230.0</ele><time>2026-03-29T13:23:12.604Z</time></trkpt><trkpt lat="45.6829739" lon="9.6211006"><ele>230.0</ele><time>2026-03-29T13:23:14.604Z</time></trkpt><trkpt lat="45.6828764" lon="9.6209886"><ele>230.0</ele><time>2026-03-29T13:23:16.604Z</time></trkpt><trkpt lat="45.6827851" lon="9.6208761"><ele>230.0</ele><time>2026-03-29T13:23:18.604Z</time></trkpt><trkpt lat="45.6826906" lon="9.6207533"><ele>230.0</ele><time>2026-03-29T13:23:20.604Z</time></trkpt><trkpt lat="45.682642" lon="9.6206885"><ele>230.0</ele><time>2026-03-29T13:23:21.604Z</time></trkpt><trkpt lat="45.6825521" lon="9.6205651"><ele>229.8</ele><time>2026-03-29T13:23:23.604Z</time></trkpt><trkpt lat="45.6825003" lon="9.6205027"><ele>229.6</ele><time>2026-03-29T13:23:24.604Z</time></trkpt><trkpt lat="45.6824242" lon="9.6203713"><ele>229.39999999999998</ele><time>2026-03-29T13:23:26.604Z</time></trkpt><trkpt lat="45.6823444" lon="9.6202389"><ele>229.2</ele><time>2026-03-29T13:23:28.604Z</time></trkpt><trkpt lat="45.6822622" lon="9.6200919"><ele>229.0</ele><time>2026-03-29T13:23:30.604Z</time></trkpt><trkpt lat="45.6821733" lon="9.6199636"><ele>228.79999999999998</ele><time>2026-03-29T13:23:32.604Z</time></trkpt><trkpt lat="45.682091" lon="9.619837"><ele>228.59999999999997</ele><time>2026-03-29T13:23:34.603Z</time></trkpt><trkpt lat="45.6820501" lon="9.6197641"><ele>228.4</ele><time>2026-03-29T13:23:35.604Z</time></trkpt><trkpt lat="45.6820059" lon="9.6196936"><ele>228.2</ele><time>2026-03-29T13:23:36.604Z</time></trkpt><trkpt lat="45.6819255" lon="9.6195625"><ele>228.0</ele><time>2026-03-29T13:23:38.604Z</time></trkpt><trkpt lat="45.6818494" lon="9.6194324"><ele>228.60000000000002</ele><time>2026-03-29T13:23:40.604Z</time></trkpt><trkpt lat="45.6817955" lon="9.6193336"><ele>229.20000000000002</ele><time>2026-03-29T13:23:42.604Z</time></trkpt><trkpt lat="45.6816928" lon="9.6192318"><ele>229.8</ele><time>2026-03-29T13:23:44.604Z</time></trkpt><trkpt lat="45.6816474" lon="9.6190628"><ele>230.4</ele><time>2026-03-29T13:23:46.604Z</time></trkpt><trkpt lat="45.6815878" lon="9.6189657"><ele>231.0</ele><time>2026-03-29T13:23:47.604Z</time></trkpt><trkpt lat="45.6815058" lon="9.6188879"><ele>231.0</ele><time>2026-03-29T13:23:49.604Z</time></trkpt><trkpt lat="45.6814258" lon="9.6187856"><ele>231.0</ele><time>2026-03-29T13:23:51.604Z</time></trkpt><trkpt lat="45.6813582" lon="9.6187018"><ele>231.0</ele><time>2026-03-29T13:23:53.604Z</time></trkpt><trkpt lat="45.6813582" lon="9.6185946"><ele>231.0</ele><time>2026-03-29T13:23:56.604Z</time></trkpt><trkpt lat="45.6814142" lon="9.6185199"><ele>231.0</ele><time>2026-03-29T13:23:59.604Z</time></trkpt><trkpt lat="45.681463" lon="9.6184306"><ele>231.0</ele><time>2026-03-29T13:24:08.604Z</time></trkpt><trkpt lat="45.6815056" lon="9.6183569"><ele>230.83333333333334</ele><time>2026-03-29T13:24:10.603Z</time></trkpt><trkpt lat="45.6815702" lon="9.6182835"><ele>230.66666666666669</ele><time>2026-03-29T13:24:12.604Z</time></trkpt><trkpt lat="45.6816347" lon="9.6182221"><ele>230.5</ele><time>2026-03-29T13:24:14.604Z</time></trkpt><trkpt lat="45.6817095" lon="9.6181597"><ele>230.33333333333334</ele><time>2026-03-29T13:24:16.604Z</time></trkpt><trkpt lat="45.6818041" lon="9.6180983"><ele>230.16666666666669</ele><time>2026-03-29T13:24:17.604Z</time></trkpt><trkpt lat="45.6818675" lon="9.6180548"><ele>230.0</ele><time>2026-03-29T13:24:18.604Z</time></trkpt><trkpt lat="45.681931" lon="9.6180128"><ele>230.0</ele><time>2026-03-29T13:24:19.604Z</time></trkpt><trkpt lat="45.6820353" lon="9.6179447"><ele>230.0</ele><time>2026-03-29T13:24:21.604Z</time></trkpt><trkpt lat="45.6821312" lon="9.6178647"><ele>230.0</ele><time>2026-03-29T13:24:23.604Z</time></trkpt><trkpt lat="45.682234" lon="9.6177715"><ele>230.0</ele><time>2026-03-29T13:24:25.604Z</time></trkpt><trkpt lat="45.6823284" lon="9.6176632"><ele>229.8</ele><time>2026-03-29T13:24:27.603Z</time></trkpt><trkpt lat="45.6824151" lon="9.6175497"><ele>229.6</ele><time>2026-03-29T13:24:29.604Z</time></trkpt><trkpt lat="45.6824699" lon="9.6174856"><ele>229.39999999999998</ele><time>2026-03-29T13:24:30.604Z</time></trkpt><trkpt lat="45.6825189" lon="9.6174274"><ele>229.2</ele><time>2026-03-29T13:24:31.604Z</time></trkpt><trkpt lat="45.6825994" lon="9.617316"><ele>229.0</ele><time>2026-03-29T13:24:33.603Z</time></trkpt><trkpt lat="45.6826817" lon="9.6172022"><ele>229.39999999999998</ele><time>2026-03-29T13:24:35.604Z</time></trkpt><trkpt lat="45.6827697" lon="9.6170872"><ele>229.79999999999998</ele><time>2026-03-29T13:24:37.603Z</time></trkpt><trkpt lat="45.6828554" lon="9.616965"><ele>230.20000000000002</ele><time>2026-03-29T13:24:39.603Z</time></trkpt><trkpt lat="45.6829017" lon="9.6169013"><ele>230.60000000000002</ele><time>2026-03-29T13:24:40.604Z</time></trkpt><trkpt lat="45.6829766" lon="9.6167922"><ele>231.0</ele><time>2026-03-29T13:24:42.604Z</time></trkpt><trkpt lat="45.6830514" lon="9.6166874"><ele>231.16666666666666</ele><time>2026-03-29T13:24:44.603Z</time></trkpt><trkpt lat="45.6831478" lon="9.6166421"><ele>231.33333333333331</ele><time>2026-03-29T13:24:46.604Z</time></trkpt><trkpt lat="45.6832544" lon="9.6165938"><ele>231.5</ele><time>2026-03-29T13:24:48.604Z</time></trkpt><trkpt lat="45.6833162" lon="9.61656"><ele>231.66666666666666</ele><time>2026-03-29T13:24:49.604Z</time></trkpt><trkpt lat="45.6833769" lon="9.6165312"><ele>231.83333333333331</ele><time>2026-03-29T13:24:50.604Z</time></trkpt><trkpt lat="45.6834086" lon="9.6164057"><ele>232.0</ele><time>2026-03-29T13:24:52.604Z</time></trkpt><trkpt lat="45.683375" lon="9.6162611"><ele>232.2</ele><time>2026-03-29T13:24:54.604Z</time></trkpt><trkpt lat="45.6833097" lon="9.6161362"><ele>232.39999999999998</ele><time>2026-03-29T13:24:56.604Z</time></trkpt><trkpt lat="45.6832354" lon="9.6160391"><ele>232.60000000000002</ele><time>2026-03-29T13:24:58.604Z</time></trkpt><trkpt lat="45.6831932" lon="9.615971"><ele>232.8</ele><time>2026-03-29T13:24:59.604Z</time></trkpt><trkpt lat="45.6831145" lon="9.615846"><ele>233.0</ele><time>2026-03-29T13:25:01.604Z</time></trkpt><trkpt lat="45.6830439" lon="9.6157196"><ele>233.0</ele><time>2026-03-29T13:25:03.603Z</time></trkpt><trkpt lat="45.6829754" lon="9.6155937"><ele>233.0</ele><time>2026-03-29T13:25:05.604Z</time></trkpt><trkpt lat="45.6829112" lon="9.6154419"><ele>233.0</ele><time>2026-03-29T13:25:07.604Z</time></trkpt><trkpt lat="45.6828775" lon="9.6153646"><ele>233.0</ele><time>2026-03-29T13:25:08.604Z</time></trkpt><trkpt lat="45.6828211" lon="9.6152142"><ele>233.0</ele><time>2026-03-29T13:25:10.604Z</time></trkpt><trkpt lat="45.6827605" lon="9.615068"><ele>232.8</ele><time>2026-03-29T13:25:12.604Z</time></trkpt><trkpt lat="45.6827143" lon="9.6149231"><ele>232.60000000000002</ele><time>2026-03-29T13:25:14.604Z</time></trkpt><trkpt lat="45.6826702" lon="9.6147867"><ele>232.39999999999998</ele><time>2026-03-29T13:25:16.604Z</time></trkpt><trkpt lat="45.6826498" lon="9.6146331"><ele>232.2</ele><time>2026-03-29T13:25:18.604Z</time></trkpt><trkpt lat="45.6826634" lon="9.6145318"><ele>232.0</ele><time>2026-03-29T13:25:20.604Z</time></trkpt><trkpt lat="45.6827087" lon="9.6144168"><ele>231.39999999999998</ele><time>2026-03-29T13:25:22.604Z</time></trkpt><trkpt lat="45.6827501" lon="9.614287"><ele>230.79999999999998</ele><time>2026-03-29T13:25:24.604Z</time></trkpt><trkpt lat="45.6827418" lon="9.6141399"><ele>230.2</ele><time>2026-03-29T13:25:26.604Z</time></trkpt><trkpt lat="45.6826738" lon="9.614007"><ele>229.6</ele><time>2026-03-29T13:25:28.603Z</time></trkpt><trkpt lat="45.6826176" lon="9.6139548"><ele>229.0</ele><time>2026-03-29T13:25:29.604Z</time></trkpt><trkpt lat="45.6825008" lon="9.6139647"><ele>229.0</ele><time>2026-03-29T13:25:31.604Z</time></trkpt><trkpt lat="45.6823841" lon="9.6139538"><ele>229.0</ele><time>2026-03-29T13:25:33.604Z</time></trkpt><trkpt lat="45.6822918" lon="9.6138674"><ele>229.0</ele><time>2026-03-29T13:25:35.604Z</time></trkpt><trkpt lat="45.6822287" lon="9.6137288"><ele>229.0</ele><time>2026-03-29T13:25:37.604Z</time></trkpt><trkpt lat="45.6821727" lon="9.6135792"><ele>229.16666666666666</ele><time>2026-03-29T13:25:39.604Z</time></trkpt><trkpt lat="45.6821211" lon="9.6134273"><ele>229.33333333333331</ele><time>2026-03-29T13:25:41.604Z</time></trkpt><trkpt lat="45.6820727" lon="9.6132687"><ele>229.5</ele><time>2026-03-29T13:25:43.604Z</time></trkpt><trkpt lat="45.6820481" lon="9.6131856"><ele>229.66666666666669</ele><time>2026-03-29T13:25:44.604Z</time></trkpt><trkpt lat="45.6820251" lon="9.6130992"><ele>229.83333333333334</ele><time>2026-03-29T13:25:45.604Z</time></trkpt><trkpt lat="45.6820063" lon="9.6130103"><ele>230.0</ele><time>2026-03-29T13:25:46.604Z</time></trkpt><trkpt lat="45.6819836" lon="9.6129154"><ele>229.99999999999997</ele><time>2026-03-29T13:25:47.604Z</time></trkpt><trkpt lat="45.6819648" lon="9.6128222"><ele>230.0</ele><time>2026-03-29T13:25:48.603Z</time></trkpt><trkpt lat="45.6819417" lon="9.6127261"><ele>229.99999999999997</ele><time>2026-03-29T13:25:49.604Z</time></trkpt><trkpt lat="45.6819244" lon="9.6126291"><ele>229.99999999999997</ele><time>2026-03-29T13:25:50.604Z</time></trkpt><trkpt lat="45.6819061" lon="9.6125339"><ele>230.0</ele><time>2026-03-29T13:25:51.604Z</time></trkpt><trkpt lat="45.6818897" lon="9.6124281"><ele>229.99999999999997</ele><time>2026-03-29T13:25:52.604Z</time></trkpt><trkpt lat="45.6818768" lon="9.612334"><ele>229.99999999999997</ele><time>2026-03-29T13:25:53.604Z</time></trkpt><trkpt lat="45.6818587" lon="9.6122379"><ele>230.00000000000003</ele><time>2026-03-29T13:25:54.604Z</time></trkpt><trkpt lat="45.6818383" lon="9.6121358"><ele>230.0</ele><time>2026-03-29T13:25:55.604Z</time></trkpt><trkpt lat="45.6818152" lon="9.6120349"><ele>230.0</ele><time>2026-03-29T13:25:56.603Z</time></trkpt><trkpt lat="45.6818036" lon="9.6119349"><ele>230.0</ele><time>2026-03-29T13:25:57.604Z</time></trkpt><trkpt lat="45.6817642" lon="9.6117464"><ele>230.00000000000003</ele><time>2026-03-29T13:25:59.604Z</time></trkpt><trkpt lat="45.6817467" lon="9.6116513"><ele>230.0</ele><time>2026-03-29T13:26:00.604Z</time></trkpt><trkpt lat="45.6817306" lon="9.6115611"><ele>230.28571428571425</ele><time>2026-03-29T13:26:01.604Z</time></trkpt><trkpt lat="45.6817162" lon="9.6114634"><ele>230.57142857142856</ele><time>2026-03-29T13:26:02.604Z</time></trkpt><trkpt lat="45.6817012" lon="9.6113736"><ele>230.85714285714286</ele><time>2026-03-29T13:26:03.604Z</time></trkpt><trkpt lat="45.6816844" lon="9.611282"><ele>231.14285714285714</ele><time>2026-03-29T13:26:04.604Z</time></trkpt><trkpt lat="45.6816716" lon="9.6111929"><ele>231.42857142857144</ele><time>2026-03-29T13:26:05.604Z</time></trkpt><trkpt lat="45.6816504" lon="9.6111006"><ele>231.71428571428575</ele><time>2026-03-29T13:26:06.603Z</time></trkpt><trkpt lat="45.6816324" lon="9.6110062"><ele>232.00000000000003</ele><time>2026-03-29T13:26:07.604Z</time></trkpt><trkpt lat="45.6816185" lon="9.6109097"><ele>232.16666666666666</ele><time>2026-03-29T13:26:08.604Z</time></trkpt><trkpt lat="45.6816029" lon="9.6108169"><ele>232.33333333333331</ele><time>2026-03-29T13:26:09.604Z</time></trkpt><trkpt lat="45.6815856" lon="9.6107223"><ele>232.5</ele><time>2026-03-29T13:26:10.604Z</time></trkpt><trkpt lat="45.6815534" lon="9.6106092"><ele>232.66666666666669</ele><time>2026-03-29T13:26:11.604Z</time></trkpt><trkpt lat="45.6815379" lon="9.6105077"><ele>232.83333333333334</ele><time>2026-03-29T13:26:12.604Z</time></trkpt><trkpt lat="45.6815216" lon="9.6104149"><ele>233.0</ele><time>2026-03-29T13:26:13.604Z</time></trkpt><trkpt lat="45.6814939" lon="9.6102268"><ele>233.2</ele><time>2026-03-29T13:26:15.604Z</time></trkpt><trkpt lat="45.6814724" lon="9.6100471"><ele>233.4</ele><time>2026-03-29T13:26:17.604Z</time></trkpt><trkpt lat="45.6814539" lon="9.6098641"><ele>233.59999999999997</ele><time>2026-03-29T13:26:19.604Z</time></trkpt><trkpt lat="45.6814451" lon="9.6097681"><ele>233.79999999999998</ele><time>2026-03-29T13:26:20.604Z</time></trkpt><trkpt lat="45.6814395" lon="9.6096717"><ele>234.0</ele><time>2026-03-29T13:26:21.603Z</time></trkpt><trkpt lat="45.6814294" lon="9.6095775"><ele>234.2</ele><time>2026-03-29T13:26:22.603Z</time></trkpt><trkpt lat="45.6814202" lon="9.6094779"><ele>234.39999999999998</ele><time>2026-03-29T13:26:23.604Z</time></trkpt><trkpt lat="45.6814105" lon="9.609375"><ele>234.6</ele><time>2026-03-29T13:26:24.604Z</time></trkpt><trkpt lat="45.6814073" lon="9.6092799"><ele>234.8</ele><time>2026-03-29T13:26:25.604Z</time></trkpt><trkpt lat="45.681395" lon="9.6091112"><ele>235.0</ele><time>2026-03-29T13:26:27.604Z</time></trkpt><trkpt lat="45.6813774" lon="9.6089297"><ele>235.0</ele><time>2026-03-29T13:26:29.604Z</time></trkpt><trkpt lat="45.6813683" lon="9.6088305"><ele>234.99999999999997</ele><time>2026-03-29T13:26:30.604Z</time></trkpt><trkpt lat="45.6813594" lon="9.6087353"><ele>235.0</ele><time>2026-03-29T13:26:31.604Z</time></trkpt><trkpt lat="45.6813518" lon="9.6086374"><ele>235.0</ele><time>2026-03-29T13:26:32.604Z</time></trkpt><trkpt lat="45.6813428" lon="9.6085478"><ele>234.99999999999997</ele><time>2026-03-29T13:26:33.604Z</time></trkpt><trkpt lat="45.6813366" lon="9.6084551"><ele>235.0</ele><time>2026-03-29T13:26:34.604Z</time></trkpt><trkpt lat="45.6813292" lon="9.6083646"><ele>235.0</ele><time>2026-03-29T13:26:35.604Z</time></trkpt><trkpt lat="45.6813208" lon="9.6082691"><ele>234.66666666666666</ele><time>2026-03-29T13:26:36.604Z</time></trkpt><trkpt lat="45.6813209" lon="9.6081766"><ele>234.33333333333331</ele><time>2026-03-29T13:26:37.604Z</time></trkpt><trkpt lat="45.6813196" lon="9.6080791"><ele>234.0</ele><time>2026-03-29T13:26:38.604Z</time></trkpt><trkpt lat="45.6813139" lon="9.6079807"><ele>233.66666666666669</ele><time>2026-03-29T13:26:39.604Z</time></trkpt><trkpt lat="45.6813097" lon="9.6078024"><ele>233.33333333333334</ele><time>2026-03-29T13:26:41.604Z</time></trkpt><trkpt lat="45.681301" lon="9.6077024"><ele>233.0</ele><time>2026-03-29T13:26:42.603Z</time></trkpt><trkpt lat="45.6812956" lon="9.6076112"><ele>232.83333333333334</ele><time>2026-03-29T13:26:43.604Z</time></trkpt><trkpt lat="45.6812977" lon="9.6074424"><ele>232.66666666666669</ele><time>2026-03-29T13:26:45.604Z</time></trkpt><trkpt lat="45.6813144" lon="9.6073498"><ele>232.5</ele><time>2026-03-29T13:26:46.604Z</time></trkpt><trkpt lat="45.6813386" lon="9.6072635"><ele>232.33333333333331</ele><time>2026-03-29T13:26:47.604Z</time></trkpt><trkpt lat="45.6813852" lon="9.6071027"><ele>232.16666666666666</ele><time>2026-03-29T13:26:49.604Z</time></trkpt><trkpt lat="45.6814019" lon="9.6070152"><ele>232.0</ele><time>2026-03-29T13:26:50.604Z</time></trkpt><trkpt lat="45.6814078" lon="9.6069188"><ele>232.00000000000003</ele><time>2026-03-29T13:26:51.604Z</time></trkpt><trkpt lat="45.6813992" lon="9.6068237"><ele>232.0</ele><time>2026-03-29T13:26:52.603Z</time></trkpt><trkpt lat="45.6813903" lon="9.6067287"><ele>232.00000000000003</ele><time>2026-03-29T13:26:53.604Z</time></trkpt><trkpt lat="45.6813755" lon="9.6066299"><ele>232.00000000000003</ele><time>2026-03-29T13:26:54.604Z</time></trkpt><trkpt lat="45.681368" lon="9.6065226"><ele>232.0</ele><time>2026-03-29T13:26:55.604Z</time></trkpt><trkpt lat="45.6813504" lon="9.606428"><ele>232.00000000000003</ele><time>2026-03-29T13:26:56.604Z</time></trkpt><trkpt lat="45.681344" lon="9.6063205"><ele>232.00000000000003</ele><time>2026-03-29T13:26:57.604Z</time></trkpt><trkpt lat="45.681329" lon="9.6061304"><ele>232.28571428571433</ele><time>2026-03-29T13:26:59.604Z</time></trkpt><trkpt lat="45.6813257" lon="9.6060294"><ele>232.57142857142858</ele><time>2026-03-29T13:27:00.604Z</time></trkpt><trkpt lat="45.6813202" lon="9.6059346"><ele>232.8571428571429</ele><time>2026-03-29T13:27:01.604Z</time></trkpt><trkpt lat="45.681309" lon="9.6058349"><ele>233.14285714285717</ele><time>2026-03-29T13:27:02.604Z</time></trkpt><trkpt lat="45.6812974" lon="9.6057331"><ele>233.42857142857144</ele><time>2026-03-29T13:27:03.604Z</time></trkpt><trkpt lat="45.6812887" lon="9.6056337"><ele>233.71428571428572</ele><time>2026-03-29T13:27:04.604Z</time></trkpt><trkpt lat="45.6812849" lon="9.6055364"><ele>234.0</ele><time>2026-03-29T13:27:05.604Z</time></trkpt><trkpt lat="45.6812819" lon="9.6054299"><ele>234.0</ele><time>2026-03-29T13:27:06.604Z</time></trkpt><trkpt lat="45.6812878" lon="9.6053307"><ele>234.00000000000003</ele><time>2026-03-29T13:27:07.604Z</time></trkpt><trkpt lat="45.681295" lon="9.6052331"><ele>234.0</ele><time>2026-03-29T13:27:08.603Z</time></trkpt><trkpt lat="45.6813002" lon="9.60513"><ele>234.0</ele><time>2026-03-29T13:27:09.604Z</time></trkpt><trkpt lat="45.6813054" lon="9.6050318"><ele>234.00000000000003</ele><time>2026-03-29T13:27:10.603Z</time></trkpt><trkpt lat="45.6813111" lon="9.6049305"><ele>234.0</ele><time>2026-03-29T13:27:11.604Z</time></trkpt><trkpt lat="45.681316" lon="9.6048297"><ele>234.0</ele><time>2026-03-29T13:27:12.604Z</time></trkpt><trkpt lat="45.6813288" lon="9.6047291"><ele>233.71428571428572</ele><time>2026-03-29T13:27:13.604Z</time></trkpt><trkpt lat="45.681341" lon="9.6046307"><ele>233.42857142857144</ele><time>2026-03-29T13:27:14.604Z</time></trkpt><trkpt lat="45.6813514" lon="9.6045326"><ele>233.14285714285717</ele><time>2026-03-29T13:27:15.604Z</time></trkpt><trkpt lat="45.6813566" lon="9.6044349"><ele>232.8571428571429</ele><time>2026-03-29T13:27:16.604Z</time></trkpt><trkpt lat="45.6813691" lon="9.6043343"><ele>232.57142857142858</ele><time>2026-03-29T13:27:17.604Z</time></trkpt><trkpt lat="45.6813763" lon="9.604231"><ele>232.28571428571433</ele><time>2026-03-29T13:27:18.603Z</time></trkpt><trkpt lat="45.6813827" lon="9.6041319"><ele>232.00000000000003</ele><time>2026-03-29T13:27:19.603Z</time></trkpt><trkpt lat="45.6813953" lon="9.6040335"><ele>231.8571428571429</ele><time>2026-03-29T13:27:20.604Z</time></trkpt><trkpt lat="45.6814054" lon="9.6039349"><ele>231.71428571428572</ele><time>2026-03-29T13:27:21.604Z</time></trkpt><trkpt lat="45.6814241" lon="9.6038377"><ele>231.57142857142858</ele><time>2026-03-29T13:27:22.603Z</time></trkpt><trkpt lat="45.6814416" lon="9.6037379"><ele>231.42857142857144</ele><time>2026-03-29T13:27:23.604Z</time></trkpt><trkpt lat="45.6814576" lon="9.6036418"><ele>231.28571428571428</ele><time>2026-03-29T13:27:24.604Z</time></trkpt><trkpt lat="45.6814742" lon="9.6035465"><ele>231.14285714285714</ele><time>2026-03-29T13:27:25.604Z</time></trkpt><trkpt lat="45.6815005" lon="9.6034428"><ele>231.0</ele><time>2026-03-29T13:27:26.604Z</time></trkpt><trkpt lat="45.6815254" lon="9.6033363"><ele>230.57142857142856</ele><time>2026-03-29T13:27:27.604Z</time></trkpt><trkpt lat="45.6815559" lon="9.6032359"><ele>230.14285714285714</ele><time>2026-03-29T13:27:28.604Z</time></trkpt><trkpt lat="45.6815949" lon="9.6031445"><ele>229.71428571428572</ele><time>2026-03-29T13:27:29.604Z</time></trkpt><trkpt lat="45.6816493" lon="9.6030745"><ele>229.28571428571428</ele><time>2026-03-29T13:27:30.604Z</time></trkpt><trkpt lat="45.6817082" lon="9.6030234"><ele>228.85714285714283</ele><time>2026-03-29T13:27:31.604Z</time></trkpt><trkpt lat="45.6817564" lon="9.6029535"><ele>228.42857142857142</ele><time>2026-03-29T13:27:32.604Z</time></trkpt><trkpt lat="45.681765" lon="9.6028588"><ele>228.0</ele><time>2026-03-29T13:27:33.604Z</time></trkpt><trkpt lat="45.6817524" lon="9.6027545"><ele>228.0</ele><time>2026-03-29T13:27:34.604Z</time></trkpt><trkpt lat="45.6816779" lon="9.6026349"><ele>228.0</ele><time>2026-03-29T13:27:36.604Z</time></trkpt><trkpt lat="45.6816311" lon="9.6025327"><ele>228.0</ele><time>2026-03-29T13:27:37.604Z</time></trkpt><trkpt lat="45.6815994" lon="9.6024374"><ele>228.0</ele><time>2026-03-29T13:27:38.604Z</time></trkpt><trkpt lat="45.6815798" lon="9.602331"><ele>228.0</ele><time>2026-03-29T13:27:39.604Z</time></trkpt><trkpt lat="45.6815763" lon="9.6022329"><ele>228.0</ele><time>2026-03-29T13:27:40.604Z</time></trkpt><trkpt lat="45.6815759" lon="9.6021358"><ele>228.0</ele><time>2026-03-29T13:27:41.604Z</time></trkpt><trkpt lat="45.6815788" lon="9.6020409"><ele>228.0</ele><time>2026-03-29T13:27:42.604Z</time></trkpt><trkpt lat="45.6815798" lon="9.6019415"><ele>228.0</ele><time>2026-03-29T13:27:43.604Z</time></trkpt><trkpt lat="45.6815806" lon="9.6018514"><ele>228.0</ele><time>2026-03-29T13:27:44.604Z</time></trkpt><trkpt lat="45.6815888" lon="9.6016776"><ele>228.0</ele><time>2026-03-29T13:27:46.604Z</time></trkpt><trkpt lat="45.6815964" lon="9.6015162"><ele>228.0</ele><time>2026-03-29T13:27:48.604Z</time></trkpt><trkpt lat="45.6815929" lon="9.6014258"><ele>228.16666666666666</ele><time>2026-03-29T13:27:52.6Z</time></trkpt><trkpt lat="45.6815375" lon="9.6013452"><ele>228.33333333333331</ele><time>2026-03-29T13:27:55.603Z</time></trkpt><trkpt lat="45.681462" lon="9.6013279"><ele>228.5</ele><time>2026-03-29T13:27:57.602Z</time></trkpt><trkpt lat="45.6813755" lon="9.6013261"><ele>228.66666666666666</ele><time>2026-03-29T13:27:59.602Z</time></trkpt><trkpt lat="45.6812796" lon="9.6013371"><ele>228.83333333333331</ele><time>2026-03-29T13:28:01.602Z</time></trkpt><trkpt lat="45.6812047" lon="9.6013139"><ele>229.0</ele><time>2026-03-29T13:28:03.602Z</time></trkpt><trkpt lat="45.6811181" lon="9.6013252"><ele>229.16666666666666</ele><time>2026-03-29T13:28:05.602Z</time></trkpt><trkpt lat="45.6810282" lon="9.6013142"><ele>229.33333333333331</ele><time>2026-03-29T13:28:07.601Z</time></trkpt><trkpt lat="45.6809509" lon="9.6012874"><ele>229.5</ele><time>2026-03-29T13:28:09.601Z</time></trkpt><trkpt lat="45.6808727" lon="9.6012577"><ele>229.66666666666669</ele><time>2026-03-29T13:28:11.602Z</time></trkpt><trkpt lat="45.6807868" lon="9.6012223"><ele>229.83333333333334</ele><time>2026-03-29T13:28:13.602Z</time></trkpt><trkpt lat="45.6807006" lon="9.6011824"><ele>230.0</ele><time>2026-03-29T13:28:15.602Z</time></trkpt><trkpt lat="45.680613" lon="9.6011199"><ele>230.0</ele><time>2026-03-29T13:28:17.602Z</time></trkpt><trkpt lat="45.6805218" lon="9.6010462"><ele>230.0</ele><time>2026-03-29T13:28:19.602Z</time></trkpt><trkpt lat="45.6804249" lon="9.6009635"><ele>230.0</ele><time>2026-03-29T13:28:21.601Z</time></trkpt><trkpt lat="45.6803191" lon="9.6008981"><ele>230.0</ele><time>2026-03-29T13:28:23.602Z</time></trkpt><trkpt lat="45.6802087" lon="9.6008588"><ele>230.0</ele><time>2026-03-29T13:28:25.601Z</time></trkpt><trkpt lat="45.6800945" lon="9.600845"><ele>230.0</ele><time>2026-03-29T13:28:27.602Z</time></trkpt><trkpt lat="45.6800312" lon="9.6008324"><ele>230.0</ele><time>2026-03-29T13:28:28.602Z</time></trkpt><trkpt lat="45.6799155" lon="9.6008059"><ele>230.0</ele><time>2026-03-29T13:28:30.602Z</time></trkpt><trkpt lat="45.6798549" lon="9.6007777"><ele>230.0</ele><time>2026-03-29T13:28:31.602Z</time></trkpt><trkpt lat="45.6797495" lon="9.6006967"><ele>230.0</ele><time>2026-03-29T13:28:33.602Z</time></trkpt><trkpt lat="45.6796485" lon="9.6006602"><ele>230.00000000000003</ele><time>2026-03-29T13:28:35.602Z</time></trkpt><trkpt lat="45.679592" lon="9.600611"><ele>230.0</ele><time>2026-03-29T13:28:36.602Z</time></trkpt><trkpt lat="45.6795008" lon="9.6005248"><ele>230.0</ele><time>2026-03-29T13:28:38.602Z</time></trkpt><trkpt lat="45.6794412" lon="9.600492"><ele>230.0</ele><time>2026-03-29T13:28:39.602Z</time></trkpt><trkpt lat="45.6793707" lon="9.6004431"><ele>230.00000000000003</ele><time>2026-03-29T13:28:40.602Z</time></trkpt><trkpt lat="45.6793138" lon="9.600403"><ele>230.0</ele><time>2026-03-29T13:28:41.601Z</time></trkpt><trkpt lat="45.6792499" lon="9.6003576"><ele>229.8</ele><time>2026-03-29T13:28:42.602Z</time></trkpt><trkpt lat="45.6791918" lon="9.6003158"><ele>229.6</ele><time>2026-03-29T13:28:43.602Z</time></trkpt><trkpt lat="45.6790899" lon="9.6002264"><ele>229.39999999999998</ele><time>2026-03-29T13:28:45.602Z</time></trkpt><trkpt lat="45.6789991" lon="9.6001155"><ele>229.2</ele><time>2026-03-29T13:28:47.601Z</time></trkpt><trkpt lat="45.6789535" lon="9.6000418"><ele>229.0</ele><time>2026-03-29T13:28:48.602Z</time></trkpt><trkpt lat="45.6788707" lon="9.5999073"><ele>228.99999999999997</ele><time>2026-03-29T13:28:50.602Z</time></trkpt><trkpt lat="45.6788277" lon="9.5998325"><ele>229.0</ele><time>2026-03-29T13:28:51.602Z</time></trkpt><trkpt lat="45.678788" lon="9.5997576"><ele>229.0</ele><time>2026-03-29T13:28:52.602Z</time></trkpt><trkpt lat="45.6787431" lon="9.5996934"><ele>229.0</ele><time>2026-03-29T13:28:53.602Z</time></trkpt><trkpt lat="45.6786941" lon="9.5996365"><ele>228.99999999999997</ele><time>2026-03-29T13:28:54.602Z</time></trkpt><trkpt lat="45.6786416" lon="9.5995762"><ele>229.0</ele><time>2026-03-29T13:28:55.601Z</time></trkpt><trkpt lat="45.6785272" lon="9.599499"><ele>227.99999999999997</ele><time>2026-03-29T13:28:57.602Z</time></trkpt><trkpt lat="45.6784641" lon="9.5994656"><ele>227.0</ele><time>2026-03-29T13:28:58.602Z</time></trkpt><trkpt lat="45.6784034" lon="9.5994305"><ele>226.0</ele><time>2026-03-29T13:28:59.602Z</time></trkpt><trkpt lat="45.6782851" lon="9.5993692"><ele>225.0</ele><time>2026-03-29T13:29:01.602Z</time></trkpt><trkpt lat="45.6782245" lon="9.5993327"><ele>223.99999999999997</ele><time>2026-03-29T13:29:02.602Z</time></trkpt><trkpt lat="45.6781665" lon="9.599292"><ele>223.0</ele><time>2026-03-29T13:29:03.601Z</time></trkpt><trkpt lat="45.678109" lon="9.5992382"><ele>223.0</ele><time>2026-03-29T13:29:04.602Z</time></trkpt><trkpt lat="45.6780596" lon="9.5991709"><ele>223.0</ele><time>2026-03-29T13:29:05.602Z</time></trkpt><trkpt lat="45.6780284" lon="9.5990891"><ele>223.0</ele><time>2026-03-29T13:29:06.602Z</time></trkpt><trkpt lat="45.6780132" lon="9.5989943"><ele>223.0</ele><time>2026-03-29T13:29:07.602Z</time></trkpt><trkpt lat="45.6780044" lon="9.5989022"><ele>223.0</ele><time>2026-03-29T13:29:08.602Z</time></trkpt><trkpt lat="45.6779898" lon="9.5988061"><ele>223.0</ele><time>2026-03-29T13:29:09.602Z</time></trkpt><trkpt lat="45.6779791" lon="9.5987114"><ele>223.0</ele><time>2026-03-29T13:29:10.601Z</time></trkpt><trkpt lat="45.6779577" lon="9.5985248"><ele>223.14285714285714</ele><time>2026-03-29T13:29:12.602Z</time></trkpt><trkpt lat="45.6779488" lon="9.5984224"><ele>223.28571428571428</ele><time>2026-03-29T13:29:13.602Z</time></trkpt><trkpt lat="45.677932" lon="9.5983226"><ele>223.42857142857144</ele><time>2026-03-29T13:29:14.602Z</time></trkpt><trkpt lat="45.6779144" lon="9.5982309"><ele>223.57142857142856</ele><time>2026-03-29T13:29:15.602Z</time></trkpt><trkpt lat="45.6778951" lon="9.598127"><ele>223.71428571428572</ele><time>2026-03-29T13:29:16.602Z</time></trkpt><trkpt lat="45.677876" lon="9.5980204"><ele>223.85714285714286</ele><time>2026-03-29T13:29:17.602Z</time></trkpt><trkpt lat="45.6778588" lon="9.5979067"><ele>224.0</ele><time>2026-03-29T13:29:18.601Z</time></trkpt><trkpt lat="45.677855" lon="9.5977989"><ele>224.00000000000003</ele><time>2026-03-29T13:29:19.602Z</time></trkpt><trkpt lat="45.6778513" lon="9.5976756"><ele>224.0</ele><time>2026-03-29T13:29:20.602Z</time></trkpt><trkpt lat="45.6778648" lon="9.597572"><ele>224.0</ele><time>2026-03-29T13:29:21.601Z</time></trkpt><trkpt lat="45.6778913" lon="9.5974756"><ele>224.0</ele><time>2026-03-29T13:29:22.602Z</time></trkpt><trkpt lat="45.6779248" lon="9.5973754"><ele>224.00000000000003</ele><time>2026-03-29T13:29:23.602Z</time></trkpt><trkpt lat="45.6779686" lon="9.5972964"><ele>224.0</ele><time>2026-03-29T13:29:24.602Z</time></trkpt><trkpt lat="45.6780297" lon="9.5972291"><ele>224.0</ele><time>2026-03-29T13:29:25.601Z</time></trkpt><trkpt lat="45.6781012" lon="9.5971821"><ele>224.0</ele><time>2026-03-29T13:29:26.602Z</time></trkpt><trkpt lat="45.6781746" lon="9.5971511"><ele>224.0</ele><time>2026-03-29T13:29:27.602Z</time></trkpt><trkpt lat="45.6782475" lon="9.5971174"><ele>224.0</ele><time>2026-03-29T13:29:28.602Z</time></trkpt><trkpt lat="45.6783071" lon="9.5970602"><ele>224.0</ele><time>2026-03-29T13:29:29.601Z</time></trkpt><trkpt lat="45.678352" lon="9.5969833"><ele>224.0</ele><time>2026-03-29T13:29:30.602Z</time></trkpt><trkpt lat="45.6783755" lon="9.596889"><ele>224.0</ele><time>2026-03-29T13:29:31.602Z</time></trkpt><trkpt lat="45.6783852" lon="9.5967876"><ele>222.14285714285714</ele><time>2026-03-29T13:29:32.602Z</time></trkpt><trkpt lat="45.6783969" lon="9.5966891"><ele>220.28571428571428</ele><time>2026-03-29T13:29:33.602Z</time></trkpt><trkpt lat="45.6784037" lon="9.5965903"><ele>218.42857142857144</ele><time>2026-03-29T13:29:34.602Z</time></trkpt><trkpt lat="45.6784121" lon="9.5964891"><ele>216.57142857142856</ele><time>2026-03-29T13:29:35.602Z</time></trkpt><trkpt lat="45.6784214" lon="9.5963884"><ele>214.71428571428572</ele><time>2026-03-29T13:29:36.602Z</time></trkpt><trkpt lat="45.6784327" lon="9.5962919"><ele>212.85714285714286</ele><time>2026-03-29T13:29:37.602Z</time></trkpt><trkpt lat="45.6784427" lon="9.5961893"><ele>211.0</ele><time>2026-03-29T13:29:38.602Z</time></trkpt><trkpt lat="45.6784514" lon="9.5960924"><ele>210.71428571428572</ele><time>2026-03-29T13:29:39.602Z</time></trkpt><trkpt lat="45.6784577" lon="9.5959985"><ele>210.42857142857144</ele><time>2026-03-29T13:29:40.602Z</time></trkpt><trkpt lat="45.6784663" lon="9.5959035"><ele>210.14285714285714</ele><time>2026-03-29T13:29:41.602Z</time></trkpt><trkpt lat="45.6784755" lon="9.5958081"><ele>209.85714285714286</ele><time>2026-03-29T13:29:42.602Z</time></trkpt><trkpt lat="45.6784923" lon="9.5957174"><ele>209.57142857142856</ele><time>2026-03-29T13:29:43.602Z</time></trkpt><trkpt lat="45.6785035" lon="9.5956256"><ele>209.28571428571428</ele><time>2026-03-29T13:29:44.602Z</time></trkpt><trkpt lat="45.6785105" lon="9.5955349"><ele>209.0</ele><time>2026-03-29T13:29:45.602Z</time></trkpt><trkpt lat="45.6785243" lon="9.5953535"><ele>209.0</ele><time>2026-03-29T13:29:47.602Z</time></trkpt><trkpt lat="45.6785298" lon="9.5952625"><ele>209.0</ele><time>2026-03-29T13:29:48.602Z</time></trkpt><trkpt lat="45.6785363" lon="9.5950847"><ele>209.0</ele><time>2026-03-29T13:29:50.602Z</time></trkpt><trkpt lat="45.6785527" lon="9.5949066"><ele>209.0</ele><time>2026-03-29T13:29:52.602Z</time></trkpt><trkpt lat="45.6785573" lon="9.594736"><ele>209.0</ele><time>2026-03-29T13:29:54.602Z</time></trkpt><trkpt lat="45.6785153" lon="9.5945844"><ele>208.0</ele><time>2026-03-29T13:29:56.602Z</time></trkpt><trkpt lat="45.6784126" lon="9.5945038"><ele>207.0</ele><time>2026-03-29T13:29:58.602Z</time></trkpt><trkpt lat="45.6782915" lon="9.5944734"><ele>206.0</ele><time>2026-03-29T13:30:00.602Z</time></trkpt><trkpt lat="45.6781658" lon="9.594437"><ele>205.0</ele><time>2026-03-29T13:30:02.602Z</time></trkpt><trkpt lat="45.6780971" lon="9.5944267"><ele>204.0</ele><time>2026-03-29T13:30:03.602Z</time></trkpt><trkpt lat="45.6780318" lon="9.5944028"><ele>204.0</ele><time>2026-03-29T13:30:04.601Z</time></trkpt><trkpt lat="45.6779656" lon="9.5943817"><ele>204.0</ele><time>2026-03-29T13:30:05.602Z</time></trkpt><trkpt lat="45.6778935" lon="9.5943623"><ele>204.0</ele><time>2026-03-29T13:30:06.602Z</time></trkpt><trkpt lat="45.6778216" lon="9.5943189"><ele>204.0</ele><time>2026-03-29T13:30:07.602Z</time></trkpt><trkpt lat="45.6777518" lon="9.5942644"><ele>204.0</ele><time>2026-03-29T13:30:08.602Z</time></trkpt><trkpt lat="45.6776917" lon="9.5941993"><ele>204.0</ele><time>2026-03-29T13:30:09.602Z</time></trkpt><trkpt lat="45.6776353" lon="9.5941167"><ele>204.2</ele><time>2026-03-29T13:30:10.602Z</time></trkpt><trkpt lat="45.6775857" lon="9.5940117"><ele>204.39999999999998</ele><time>2026-03-29T13:30:11.602Z</time></trkpt><trkpt lat="45.6775506" lon="9.5938893"><ele>204.6</ele><time>2026-03-29T13:30:12.602Z</time></trkpt><trkpt lat="45.6775174" lon="9.5937534"><ele>204.8</ele><time>2026-03-29T13:30:13.602Z</time></trkpt><trkpt lat="45.6774908" lon="9.5936204"><ele>205.0</ele><time>2026-03-29T13:30:14.602Z</time></trkpt><trkpt lat="45.6774625" lon="9.5934843"><ele>204.0</ele><time>2026-03-29T13:30:15.602Z</time></trkpt><trkpt lat="45.6774341" lon="9.5933484"><ele>203.0</ele><time>2026-03-29T13:30:16.602Z</time></trkpt><trkpt lat="45.6774057" lon="9.5932082"><ele>202.0</ele><time>2026-03-29T13:30:17.602Z</time></trkpt><trkpt lat="45.6773777" lon="9.5930752"><ele>201.0</ele><time>2026-03-29T13:30:18.601Z</time></trkpt><trkpt lat="45.6773516" lon="9.5929527"><ele>200.0</ele><time>2026-03-29T13:30:19.602Z</time></trkpt><trkpt lat="45.6773306" lon="9.5928433"><ele>199.2857142857143</ele><time>2026-03-29T13:30:20.602Z</time></trkpt><trkpt lat="45.6773163" lon="9.5927494"><ele>198.57142857142858</ele><time>2026-03-29T13:30:21.602Z</time></trkpt><trkpt lat="45.6773273" lon="9.5926548"><ele>197.85714285714286</ele><time>2026-03-29T13:30:22.602Z</time></trkpt><trkpt lat="45.6773541" lon="9.592565"><ele>197.14285714285717</ele><time>2026-03-29T13:30:23.602Z</time></trkpt><trkpt lat="45.6773966" lon="9.5924883"><ele>196.42857142857142</ele><time>2026-03-29T13:30:24.601Z</time></trkpt><trkpt lat="45.6774392" lon="9.5924059"><ele>195.71428571428572</ele><time>2026-03-29T13:30:25.602Z</time></trkpt><trkpt lat="45.677479" lon="9.5923157"><ele>195.0</ele><time>2026-03-29T13:30:26.602Z</time></trkpt><trkpt lat="45.6775195" lon="9.5922338"><ele>195.0</ele><time>2026-03-29T13:30:27.602Z</time></trkpt><trkpt lat="45.677553" lon="9.5921472"><ele>195.0</ele><time>2026-03-29T13:30:28.602Z</time></trkpt><trkpt lat="45.677591" lon="9.5920628"><ele>195.0</ele><time>2026-03-29T13:30:29.602Z</time></trkpt><trkpt lat="45.6776245" lon="9.5919798"><ele>195.0</ele><time>2026-03-29T13:30:30.601Z</time></trkpt><trkpt lat="45.6776612" lon="9.5918917"><ele>195.0</ele><time>2026-03-29T13:30:31.602Z</time></trkpt><trkpt lat="45.6776907" lon="9.5918046"><ele>195.0</ele><time>2026-03-29T13:30:32.602Z</time></trkpt><trkpt lat="45.6777195" lon="9.5917177"><ele>195.0</ele><time>2026-03-29T13:30:33.602Z</time></trkpt><trkpt lat="45.6777406" lon="9.5916263"><ele>195.16666666666666</ele><time>2026-03-29T13:30:34.602Z</time></trkpt><trkpt lat="45.6777649" lon="9.5915337"><ele>195.33333333333331</ele><time>2026-03-29T13:30:35.602Z</time></trkpt><trkpt lat="45.677785" lon="9.5914435"><ele>195.5</ele><time>2026-03-29T13:30:36.601Z</time></trkpt><trkpt lat="45.677805" lon="9.5913544"><ele>195.66666666666666</ele><time>2026-03-29T13:30:37.602Z</time></trkpt><trkpt lat="45.6778468" lon="9.5911938"><ele>195.83333333333331</ele><time>2026-03-29T13:30:39.602Z</time></trkpt><trkpt lat="45.677868" lon="9.5911014"><ele>196.0</ele><time>2026-03-29T13:30:40.602Z</time></trkpt><trkpt lat="45.6778862" lon="9.5910115"><ele>196.14285714285714</ele><time>2026-03-29T13:30:41.601Z</time></trkpt><trkpt lat="45.6779101" lon="9.5909211"><ele>196.28571428571428</ele><time>2026-03-29T13:30:42.602Z</time></trkpt><trkpt lat="45.6779388" lon="9.5908258"><ele>196.42857142857144</ele><time>2026-03-29T13:30:43.602Z</time></trkpt><trkpt lat="45.6779637" lon="9.5907357"><ele>196.57142857142856</ele><time>2026-03-29T13:30:44.602Z</time></trkpt><trkpt lat="45.6779911" lon="9.5906512"><ele>196.71428571428572</ele><time>2026-03-29T13:30:45.602Z</time></trkpt><trkpt lat="45.6780293" lon="9.5905578"><ele>196.85714285714286</ele><time>2026-03-29T13:30:46.602Z</time></trkpt><trkpt lat="45.6780677" lon="9.5904747"><ele>197.0</ele><time>2026-03-29T13:30:47.602Z</time></trkpt><trkpt lat="45.6781095" lon="9.5904063"><ele>197.2</ele><time>2026-03-29T13:30:48.601Z</time></trkpt><trkpt lat="45.678158" lon="9.5903371"><ele>197.39999999999998</ele><time>2026-03-29T13:30:49.602Z</time></trkpt><trkpt lat="45.6782022" lon="9.5902683"><ele>197.60000000000002</ele><time>2026-03-29T13:30:50.602Z</time></trkpt><trkpt lat="45.6782957" lon="9.5901587"><ele>197.8</ele><time>2026-03-29T13:30:52.602Z</time></trkpt><trkpt lat="45.6783916" lon="9.5900614"><ele>198.0</ele><time>2026-03-29T13:30:54.602Z</time></trkpt><trkpt lat="45.6784826" lon="9.5899955"><ele>198.0</ele><time>2026-03-29T13:30:56.602Z</time></trkpt><trkpt lat="45.6785182" lon="9.5898843"><ele>198.0</ele><time>2026-03-29T13:30:58.601Z</time></trkpt><trkpt lat="45.6785212" lon="9.589744"><ele>198.0</ele><time>2026-03-29T13:31:00.602Z</time></trkpt><trkpt lat="45.6785181" lon="9.5895856"><ele>198.0</ele><time>2026-03-29T13:31:02.602Z</time></trkpt><trkpt lat="45.6785119" lon="9.5894265"><ele>198.0</ele><time>2026-03-29T13:31:04.601Z</time></trkpt><trkpt lat="45.6784857" lon="9.5892618"><ele>197.2</ele><time>2026-03-29T13:31:06.601Z</time></trkpt><trkpt lat="45.6784538" lon="9.5890905"><ele>196.4</ele><time>2026-03-29T13:31:08.602Z</time></trkpt><trkpt lat="45.6784517" lon="9.5889326"><ele>195.6</ele><time>2026-03-29T13:31:10.602Z</time></trkpt><trkpt lat="45.6784391" lon="9.5887835"><ele>194.79999999999998</ele><time>2026-03-29T13:31:12.602Z</time></trkpt><trkpt lat="45.678375" lon="9.5886737"><ele>194.0</ele><time>2026-03-29T13:31:14.602Z</time></trkpt><trkpt lat="45.67827" lon="9.5886183"><ele>194.0</ele><time>2026-03-29T13:31:16.601Z</time></trkpt><trkpt lat="45.6781633" lon="9.5885499"><ele>194.0</ele><time>2026-03-29T13:31:18.602Z</time></trkpt><trkpt lat="45.6780845" lon="9.58844"><ele>194.0</ele><time>2026-03-29T13:31:20.602Z</time></trkpt><trkpt lat="45.6780089" lon="9.5883276"><ele>194.0</ele><time>2026-03-29T13:31:22.602Z</time></trkpt><trkpt lat="45.6779123" lon="9.5882569"><ele>194.0</ele><time>2026-03-29T13:31:24.602Z</time></trkpt><trkpt lat="45.6777955" lon="9.5882223"><ele>194.75</ele><time>2026-03-29T13:31:26.602Z</time></trkpt><trkpt lat="45.6776752" lon="9.588205"><ele>195.5</ele><time>2026-03-29T13:31:28.602Z</time></trkpt><trkpt lat="45.6775552" lon="9.5882073"><ele>196.25</ele><time>2026-03-29T13:31:30.602Z</time></trkpt><trkpt lat="45.6774502" lon="9.5882198"><ele>197.0</ele><time>2026-03-29T13:31:32.602Z</time></trkpt><trkpt lat="45.6773506" lon="9.5882728"><ele>197.00000000000003</ele><time>2026-03-29T13:31:34.602Z</time></trkpt><trkpt lat="45.6772468" lon="9.5883483"><ele>197.0</ele><time>2026-03-29T13:31:36.602Z</time></trkpt><trkpt lat="45.6771866" lon="9.5883992"><ele>197.0</ele><time>2026-03-29T13:31:37.602Z</time></trkpt><trkpt lat="45.6771221" lon="9.5884434"><ele>197.0</ele><time>2026-03-29T13:31:38.602Z</time></trkpt><trkpt lat="45.6770199" lon="9.5884419"><ele>197.00000000000003</ele><time>2026-03-29T13:31:40.602Z</time></trkpt><trkpt lat="45.6769354" lon="9.5884087"><ele>197.0</ele><time>2026-03-29T13:31:42.602Z</time></trkpt><trkpt lat="45.6768682" lon="9.5884004"><ele>196.33333333333334</ele><time>2026-03-29T13:31:44.602Z</time></trkpt><trkpt lat="45.6768033" lon="9.5883995"><ele>195.66666666666669</ele><time>2026-03-29T13:31:47.602Z</time></trkpt><trkpt lat="45.6767346" lon="9.5883881"><ele>195.0</ele><time>2026-03-29T13:31:49.601Z</time></trkpt><trkpt lat="45.6766824" lon="9.588332"><ele>194.33333333333331</ele><time>2026-03-29T13:31:51.602Z</time></trkpt><trkpt lat="45.6766125" lon="9.5882699"><ele>193.66666666666666</ele><time>2026-03-29T13:31:53.602Z</time></trkpt><trkpt lat="45.6765286" lon="9.5882123"><ele>193.0</ele><time>2026-03-29T13:31:55.602Z</time></trkpt><trkpt lat="45.6764451" lon="9.5881667"><ele>193.0</ele><time>2026-03-29T13:31:57.602Z</time></trkpt><trkpt lat="45.676363" lon="9.5881165"><ele>193.0</ele><time>2026-03-29T13:31:59.602Z</time></trkpt><trkpt lat="45.6762818" lon="9.588081"><ele>193.0</ele><time>2026-03-29T13:32:01.602Z</time></trkpt><trkpt lat="45.6761857" lon="9.5880915"><ele>193.0</ele><time>2026-03-29T13:32:03.602Z</time></trkpt><trkpt lat="45.6760987" lon="9.5880532"><ele>193.0</ele><time>2026-03-29T13:32:05.601Z</time></trkpt><trkpt lat="45.6760095" lon="9.5880198"><ele>192.60000000000002</ele><time>2026-03-29T13:32:07.602Z</time></trkpt><trkpt lat="45.6759054" lon="9.5879631"><ele>192.20000000000002</ele><time>2026-03-29T13:32:09.602Z</time></trkpt><trkpt lat="45.6757905" lon="9.5879388"><ele>191.8</ele><time>2026-03-29T13:32:11.601Z</time></trkpt><trkpt lat="45.6756873" lon="9.5879137"><ele>191.4</ele><time>2026-03-29T13:32:13.602Z</time></trkpt><trkpt lat="45.6755873" lon="9.5878736"><ele>191.0</ele><time>2026-03-29T13:32:15.602Z</time></trkpt><trkpt lat="45.675492" lon="9.5878332"><ele>190.8</ele><time>2026-03-29T13:32:17.602Z</time></trkpt><trkpt lat="45.6754347" lon="9.5877912"><ele>190.60000000000002</ele><time>2026-03-29T13:32:19.602Z</time></trkpt><trkpt lat="45.6753299" lon="9.5877072"><ele>190.4</ele><time>2026-03-29T13:32:21.602Z</time></trkpt><trkpt lat="45.6752327" lon="9.5876801"><ele>190.2</ele><time>2026-03-29T13:32:23.602Z</time></trkpt><trkpt lat="45.6751139" lon="9.5876408"><ele>190.0</ele><time>2026-03-29T13:32:25.602Z</time></trkpt><trkpt lat="45.6749915" lon="9.5875987"><ele>190.0</ele><time>2026-03-29T13:32:27.601Z</time></trkpt><trkpt lat="45.6748868" lon="9.5875403"><ele>190.0</ele><time>2026-03-29T13:32:29.601Z</time></trkpt><trkpt lat="45.6747851" lon="9.5874962"><ele>190.0</ele><time>2026-03-29T13:32:31.602Z</time></trkpt><trkpt lat="45.6746933" lon="9.587442"><ele>190.0</ele><time>2026-03-29T13:32:33.602Z</time></trkpt><trkpt lat="45.6745747" lon="9.5874127"><ele>190.0</ele><time>2026-03-29T13:32:35.602Z</time></trkpt><trkpt lat="45.6744756" lon="9.5873633"><ele>190.4</ele><time>2026-03-29T13:32:37.602Z</time></trkpt><trkpt lat="45.6743676" lon="9.5873238"><ele>190.8</ele><time>2026-03-29T13:32:39.602Z</time></trkpt><trkpt lat="45.6742681" lon="9.5873031"><ele>191.2</ele><time>2026-03-29T13:32:41.602Z</time></trkpt><trkpt lat="45.6741695" lon="9.587302"><ele>191.6</ele><time>2026-03-29T13:32:43.602Z</time></trkpt><trkpt lat="45.6740883" lon="9.5873232"><ele>192.0</ele><time>2026-03-29T13:32:45.602Z</time></trkpt><trkpt lat="45.6740031" lon="9.5873346"><ele>192.0</ele><time>2026-03-29T13:32:47.601Z</time></trkpt><trkpt lat="45.6739092" lon="9.5873361"><ele>192.0</ele><time>2026-03-29T13:32:49.601Z</time></trkpt><trkpt lat="45.6738044" lon="9.5873392"><ele>192.0</ele><time>2026-03-29T13:32:51.602Z</time></trkpt><trkpt lat="45.6737372" lon="9.5873491"><ele>192.0</ele><time>2026-03-29T13:32:52.602Z</time></trkpt><trkpt lat="45.6736184" lon="9.587406"><ele>192.0</ele><time>2026-03-29T13:32:54.602Z</time></trkpt><trkpt lat="45.6735224" lon="9.5874226"><ele>191.8</ele><time>2026-03-29T13:32:56.602Z</time></trkpt><trkpt lat="45.6734154" lon="9.5874226"><ele>191.6</ele><time>2026-03-29T13:32:58.602Z</time></trkpt><trkpt lat="45.6733405" lon="9.5874165"><ele>191.4</ele><time>2026-03-29T13:32:59.602Z</time></trkpt><trkpt lat="45.6732762" lon="9.5874172"><ele>191.20000000000002</ele><time>2026-03-29T13:33:00.601Z</time></trkpt><trkpt lat="45.6731565" lon="9.5874213"><ele>191.0</ele><time>2026-03-29T13:33:02.602Z</time></trkpt><trkpt lat="45.6730522" lon="9.5874156"><ele>191.0</ele><time>2026-03-29T13:33:04.602Z</time></trkpt><trkpt lat="45.6729489" lon="9.5874137"><ele>191.0</ele><time>2026-03-29T13:33:06.602Z</time></trkpt><trkpt lat="45.6728831" lon="9.5874064"><ele>191.0</ele><time>2026-03-29T13:33:09.602Z</time></trkpt><trkpt lat="45.6728127" lon="9.5873795"><ele>191.0</ele><time>2026-03-29T13:33:11.602Z</time></trkpt><trkpt lat="45.6727263" lon="9.587365"><ele>191.0</ele><time>2026-03-29T13:33:13.601Z</time></trkpt><trkpt lat="45.672619" lon="9.5873432"><ele>191.0</ele><time>2026-03-29T13:33:15.602Z</time></trkpt><trkpt lat="45.6725107" lon="9.5873088"><ele>190.75</ele><time>2026-03-29T13:33:17.602Z</time></trkpt><trkpt lat="45.6723956" lon="9.5872951"><ele>190.5</ele><time>2026-03-29T13:33:19.602Z</time></trkpt><trkpt lat="45.6722824" lon="9.5872923"><ele>190.25</ele><time>2026-03-29T13:33:21.601Z</time></trkpt><trkpt lat="45.672166" lon="9.5872662"><ele>190.0</ele><time>2026-03-29T13:33:23.602Z</time></trkpt><trkpt lat="45.6720619" lon="9.5872389"><ele>190.0</ele><time>2026-03-29T13:33:25.601Z</time></trkpt><trkpt lat="45.6719642" lon="9.5871909"><ele>190.0</ele><time>2026-03-29T13:33:27.602Z</time></trkpt><trkpt lat="45.6718546" lon="9.5871393"><ele>190.0</ele><time>2026-03-29T13:33:29.602Z</time></trkpt><trkpt lat="45.6717344" lon="9.5871242"><ele>190.0</ele><time>2026-03-29T13:33:31.602Z</time></trkpt><trkpt lat="45.671619" lon="9.5870953"><ele>190.0</ele><time>2026-03-29T13:33:33.602Z</time></trkpt><trkpt lat="45.6715075" lon="9.5870459"><ele>190.0</ele><time>2026-03-29T13:33:35.602Z</time></trkpt><trkpt lat="45.6714131" lon="9.5870073"><ele>190.0</ele><time>2026-03-29T13:33:37.602Z</time></trkpt><trkpt lat="45.6713026" lon="9.5869467"><ele>190.0</ele><time>2026-03-29T13:33:39.602Z</time></trkpt><trkpt lat="45.6711965" lon="9.5868819"><ele>190.0</ele><time>2026-03-29T13:33:41.602Z</time></trkpt><trkpt lat="45.671091" lon="9.5868087"><ele>190.5</ele><time>2026-03-29T13:33:43.602Z</time></trkpt><trkpt lat="45.6709872" lon="9.5867762"><ele>191.0</ele><time>2026-03-29T13:33:45.602Z</time></trkpt><trkpt lat="45.6708702" lon="9.5866949"><ele>191.5</ele><time>2026-03-29T13:33:47.602Z</time></trkpt><trkpt lat="45.6707574" lon="9.5866591"><ele>192.0</ele><time>2026-03-29T13:33:49.602Z</time></trkpt><trkpt lat="45.6706698" lon="9.586578"><ele>192.0</ele><time>2026-03-29T13:33:51.602Z</time></trkpt><trkpt lat="45.6705638" lon="9.5865173"><ele>192.0</ele><time>2026-03-29T13:33:53.602Z</time></trkpt><trkpt lat="45.6705008" lon="9.5864784"><ele>192.0</ele><time>2026-03-29T13:33:54.601Z</time></trkpt><trkpt lat="45.6703835" lon="9.5864059"><ele>192.0</ele><time>2026-03-29T13:33:56.601Z</time></trkpt><trkpt lat="45.6702773" lon="9.5863664"><ele>192.0</ele><time>2026-03-29T13:33:58.602Z</time></trkpt><trkpt lat="45.6701628" lon="9.5863236"><ele>191.6</ele><time>2026-03-29T13:34:00.602Z</time></trkpt><trkpt lat="45.6700983" lon="9.5863075"><ele>191.2</ele><time>2026-03-29T13:34:01.602Z</time></trkpt><trkpt lat="45.6699735" lon="9.5862765"><ele>190.8</ele><time>2026-03-29T13:34:03.602Z</time></trkpt><trkpt lat="45.6698637" lon="9.586251"><ele>190.4</ele><time>2026-03-29T13:34:05.602Z</time></trkpt><trkpt lat="45.6697409" lon="9.5862125"><ele>190.0</ele><time>2026-03-29T13:34:07.601Z</time></trkpt><trkpt lat="45.6696449" lon="9.5861553"><ele>189.33333333333334</ele><time>2026-03-29T13:34:09.602Z</time></trkpt><trkpt lat="45.6695523" lon="9.5861203"><ele>188.66666666666669</ele><time>2026-03-29T13:34:11.602Z</time></trkpt><trkpt lat="45.6694936" lon="9.5860866"><ele>188.0</ele><time>2026-03-29T13:34:12.602Z</time></trkpt><trkpt lat="45.6694195" lon="9.5860699"><ele>187.33333333333334</ele><time>2026-03-29T13:34:13.602Z</time></trkpt><trkpt lat="45.6693363" lon="9.5860078"><ele>186.66666666666666</ele><time>2026-03-29T13:34:15.602Z</time></trkpt><trkpt lat="45.6692434" lon="9.5859482"><ele>186.0</ele><time>2026-03-29T13:34:17.602Z</time></trkpt><trkpt lat="45.6691378" lon="9.5858377"><ele>186.0</ele><time>2026-03-29T13:34:19.602Z</time></trkpt><trkpt lat="45.669085" lon="9.5857843"><ele>186.0</ele><time>2026-03-29T13:34:20.602Z</time></trkpt><trkpt lat="45.6689856" lon="9.5856805"><ele>186.0</ele><time>2026-03-29T13:34:22.602Z</time></trkpt><trkpt lat="45.6689135" lon="9.5856113"><ele>186.0</ele><time>2026-03-29T13:34:24.602Z</time></trkpt><trkpt lat="45.6688425" lon="9.5855124"><ele>186.0</ele><time>2026-03-29T13:34:26.602Z</time></trkpt><trkpt lat="45.6687588" lon="9.5854147"><ele>185.66666666666666</ele><time>2026-03-29T13:34:28.602Z</time></trkpt><trkpt lat="45.668733" lon="9.5853308"><ele>185.33333333333334</ele><time>2026-03-29T13:34:29.602Z</time></trkpt><trkpt lat="45.668707" lon="9.5852122"><ele>185.0</ele><time>2026-03-29T13:34:30.602Z</time></trkpt><trkpt lat="45.6686625" lon="9.5851289"><ele>184.66666666666669</ele><time>2026-03-29T13:34:31.602Z</time></trkpt><trkpt lat="45.6686149" lon="9.5850343"><ele>184.33333333333334</ele><time>2026-03-29T13:34:32.602Z</time></trkpt><trkpt lat="45.6685599" lon="9.5849508"><ele>184.0</ele><time>2026-03-29T13:34:33.602Z</time></trkpt><trkpt lat="45.6684984" lon="9.5849017"><ele>184.83333333333334</ele><time>2026-03-29T13:34:34.601Z</time></trkpt><trkpt lat="45.6684283" lon="9.5848456"><ele>185.66666666666669</ele><time>2026-03-29T13:34:35.602Z</time></trkpt><trkpt lat="45.6683684" lon="9.5847979"><ele>186.5</ele><time>2026-03-29T13:34:36.602Z</time></trkpt><trkpt lat="45.6683125" lon="9.5847509"><ele>187.33333333333334</ele><time>2026-03-29T13:34:37.602Z</time></trkpt><trkpt lat="45.6682401" lon="9.5846214"><ele>188.16666666666666</ele><time>2026-03-29T13:34:39.602Z</time></trkpt><trkpt lat="45.6681845" lon="9.584571"><ele>189.0</ele><time>2026-03-29T13:34:40.602Z</time></trkpt><trkpt lat="45.6681264" lon="9.5845223"><ele>189.0</ele><time>2026-03-29T13:34:41.602Z</time></trkpt><trkpt lat="45.6680285" lon="9.5844736"><ele>189.0</ele><time>2026-03-29T13:34:43.601Z</time></trkpt><trkpt lat="45.6679113" lon="9.5844443"><ele>189.0</ele><time>2026-03-29T13:34:45.602Z</time></trkpt><trkpt lat="45.6677939" lon="9.5844633"><ele>189.0</ele><time>2026-03-29T13:34:47.602Z</time></trkpt><trkpt lat="45.6677164" lon="9.5845263"><ele>189.0</ele><time>2026-03-29T13:34:49.602Z</time></trkpt><trkpt lat="45.667657" lon="9.5846401"><ele>189.0</ele><time>2026-03-29T13:34:51.602Z</time></trkpt><trkpt lat="45.6675951" lon="9.5847653"><ele>189.0</ele><time>2026-03-29T13:34:53.602Z</time></trkpt><trkpt lat="45.6675475" lon="9.5849192"><ele>189.0</ele><time>2026-03-29T13:34:55.601Z</time></trkpt><trkpt lat="45.6674862" lon="9.5850669"><ele>189.0</ele><time>2026-03-29T13:34:57.602Z</time></trkpt><trkpt lat="45.6674552" lon="9.5851469"><ele>189.0</ele><time>2026-03-29T13:34:58.602Z</time></trkpt><trkpt lat="45.6674142" lon="9.5853003"><ele>189.0</ele><time>2026-03-29T13:35:00.602Z</time></trkpt><trkpt lat="45.6673761" lon="9.5854729"><ele>189.0</ele><time>2026-03-29T13:35:02.602Z</time></trkpt><trkpt lat="45.6673544" lon="9.5855599"><ele>189.0</ele><time>2026-03-29T13:35:03.602Z</time></trkpt><trkpt lat="45.667301" lon="9.5857118"><ele>189.0</ele><time>2026-03-29T13:35:05.602Z</time></trkpt><trkpt lat="45.6672734" lon="9.5858804"><ele>189.0</ele><time>2026-03-29T13:35:07.602Z</time></trkpt><trkpt lat="45.6672556" lon="9.5859699"><ele>189.0</ele><time>2026-03-29T13:35:08.602Z</time></trkpt><trkpt lat="45.6672322" lon="9.5860587"><ele>189.0</ele><time>2026-03-29T13:35:09.602Z</time></trkpt><trkpt lat="45.6671856" lon="9.5862272"><ele>189.0</ele><time>2026-03-29T13:35:11.601Z</time></trkpt><trkpt lat="45.6671581" lon="9.5863099"><ele>189.0</ele><time>2026-03-29T13:35:12.602Z</time></trkpt><trkpt lat="45.6671182" lon="9.5864715"><ele>189.0</ele><time>2026-03-29T13:35:14.602Z</time></trkpt><trkpt lat="45.6670827" lon="9.58663"><ele>189.2</ele><time>2026-03-29T13:35:16.601Z</time></trkpt><trkpt lat="45.6670282" lon="9.5867967"><ele>189.39999999999998</ele><time>2026-03-29T13:35:18.602Z</time></trkpt><trkpt lat="45.6669879" lon="9.5869507"><ele>189.6</ele><time>2026-03-29T13:35:20.602Z</time></trkpt><trkpt lat="45.6669639" lon="9.5870787"><ele>189.8</ele><time>2026-03-29T13:35:22.601Z</time></trkpt><trkpt lat="45.6668805" lon="9.5870853"><ele>190.0</ele><time>2026-03-29T13:35:25.602Z</time></trkpt><trkpt lat="45.6668267" lon="9.587034"><ele>190.4</ele><time>2026-03-29T13:35:27.602Z</time></trkpt><trkpt lat="45.6667441" lon="9.5869647"><ele>190.8</ele><time>2026-03-29T13:35:29.602Z</time></trkpt><trkpt lat="45.6666606" lon="9.5869005"><ele>191.2</ele><time>2026-03-29T13:35:31.602Z</time></trkpt><trkpt lat="45.6665667" lon="9.5868713"><ele>191.6</ele><time>2026-03-29T13:35:33.602Z</time></trkpt><trkpt lat="45.6664812" lon="9.5868475"><ele>192.0</ele><time>2026-03-29T13:35:35.602Z</time></trkpt><trkpt lat="45.666364" lon="9.5868491"><ele>192.0</ele><time>2026-03-29T13:35:37.601Z</time></trkpt><trkpt lat="45.6662764" lon="9.5868897"><ele>192.0</ele><time>2026-03-29T13:35:39.601Z</time></trkpt><trkpt lat="45.6662088" lon="9.5869192"><ele>192.0</ele><time>2026-03-29T13:35:40.601Z</time></trkpt><trkpt lat="45.6660976" lon="9.5869458"><ele>192.0</ele><time>2026-03-29T13:35:42.602Z</time></trkpt><trkpt lat="45.6659886" lon="9.5869761"><ele>192.0</ele><time>2026-03-29T13:35:44.602Z</time></trkpt><trkpt lat="45.6658919" lon="9.5869692"><ele>192.2</ele><time>2026-03-29T13:35:46.602Z</time></trkpt><trkpt lat="45.6658259" lon="9.5869817"><ele>192.39999999999998</ele><time>2026-03-29T13:35:47.602Z</time></trkpt><trkpt lat="45.6657097" lon="9.5869904"><ele>192.60000000000002</ele><time>2026-03-29T13:35:49.602Z</time></trkpt><trkpt lat="45.6655994" lon="9.5870073"><ele>192.8</ele><time>2026-03-29T13:35:51.602Z</time></trkpt><trkpt lat="45.6654816" lon="9.5870002"><ele>193.0</ele><time>2026-03-29T13:35:53.602Z</time></trkpt><trkpt lat="45.665373" lon="9.586963"><ele>192.99999999999997</ele><time>2026-03-29T13:35:55.602Z</time></trkpt><trkpt lat="45.6652743" lon="9.5869523"><ele>193.0</ele><time>2026-03-29T13:35:57.602Z</time></trkpt><trkpt lat="45.6651658" lon="9.5869595"><ele>193.0</ele><time>2026-03-29T13:35:59.602Z</time></trkpt><trkpt lat="45.6650928" lon="9.586924"><ele>193.0</ele><time>2026-03-29T13:36:01.602Z</time></trkpt><trkpt lat="45.6650065" lon="9.5869223"><ele>192.99999999999997</ele><time>2026-03-29T13:36:03.602Z</time></trkpt><trkpt lat="45.6649409" lon="9.5868741"><ele>193.0</ele><time>2026-03-29T13:36:05.602Z</time></trkpt><trkpt lat="45.6648495" lon="9.5867877"><ele>193.0</ele><time>2026-03-29T13:36:07.601Z</time></trkpt><trkpt lat="45.6647799" lon="9.5866632"><ele>193.0</ele><time>2026-03-29T13:36:09.602Z</time></trkpt><trkpt lat="45.6647105" lon="9.5865439"><ele>193.0</ele><time>2026-03-29T13:36:11.602Z</time></trkpt><trkpt lat="45.6646404" lon="9.5864489"><ele>193.0</ele><time>2026-03-29T13:36:13.602Z</time></trkpt><trkpt lat="45.6645532" lon="9.5863899"><ele>193.0</ele><time>2026-03-29T13:36:15.602Z</time></trkpt><trkpt lat="45.6644503" lon="9.5863391"><ele>193.2</ele><time>2026-03-29T13:36:17.602Z</time></trkpt><trkpt lat="45.6643435" lon="9.5862587"><ele>193.4</ele><time>2026-03-29T13:36:19.601Z</time></trkpt><trkpt lat="45.6642353" lon="9.5862067"><ele>193.6</ele><time>2026-03-29T13:36:21.602Z</time></trkpt><trkpt lat="45.6641302" lon="9.5861525"><ele>193.79999999999998</ele><time>2026-03-29T13:36:23.602Z</time></trkpt><trkpt lat="45.6640407" lon="9.5861576"><ele>194.0</ele><time>2026-03-29T13:36:26.602Z</time></trkpt><trkpt lat="45.66398" lon="9.5861332"><ele>193.83333333333334</ele><time>2026-03-29T13:36:28.602Z</time></trkpt><trkpt lat="45.6639336" lon="9.5860306"><ele>193.66666666666669</ele><time>2026-03-29T13:36:30.602Z</time></trkpt><trkpt lat="45.6638668" lon="9.5859181"><ele>193.5</ele><time>2026-03-29T13:36:32.602Z</time></trkpt><trkpt lat="45.66381" lon="9.5858589"><ele>193.33333333333331</ele><time>2026-03-29T13:36:34.602Z</time></trkpt><trkpt lat="45.6637579" lon="9.5857828"><ele>193.16666666666666</ele><time>2026-03-29T13:36:36.602Z</time></trkpt><trkpt lat="45.6636679" lon="9.5857292"><ele>193.0</ele><time>2026-03-29T13:36:39.602Z</time></trkpt><trkpt lat="45.6636024" lon="9.5856991"><ele>192.99999999999997</ele><time>2026-03-29T13:36:41.602Z</time></trkpt><trkpt lat="45.6635233" lon="9.5856968"><ele>193.0</ele><time>2026-03-29T13:36:43.601Z</time></trkpt><trkpt lat="45.6634523" lon="9.5856709"><ele>193.0</ele><time>2026-03-29T13:36:45.602Z</time></trkpt><trkpt lat="45.6633757" lon="9.5856604"><ele>193.0</ele><time>2026-03-29T13:36:47.602Z</time></trkpt><trkpt lat="45.6633033" lon="9.5856445"><ele>192.99999999999997</ele><time>2026-03-29T13:36:50.602Z</time></trkpt><trkpt lat="45.6632133" lon="9.5856591"><ele>193.0</ele><time>2026-03-29T13:36:52.602Z</time></trkpt><trkpt lat="45.6631277" lon="9.5856748"><ele>193.0</ele><time>2026-03-29T13:36:54.602Z</time></trkpt><trkpt lat="45.663027" lon="9.585688"><ele>193.0</ele><time>2026-03-29T13:36:56.602Z</time></trkpt><trkpt lat="45.662935" lon="9.585682"><ele>193.0</ele><time>2026-03-29T13:36:58.602Z</time></trkpt><trkpt lat="45.6628677" lon="9.585667"><ele>193.0</ele><time>2026-03-29T13:36:59.602Z</time></trkpt><trkpt lat="45.6627645" lon="9.585657"><ele>193.0</ele><time>2026-03-29T13:37:01.601Z</time></trkpt><trkpt lat="45.6626647" lon="9.5856528"><ele>193.0</ele><time>2026-03-29T13:37:03.601Z</time></trkpt><trkpt lat="45.6625651" lon="9.5856392"><ele>193.0</ele><time>2026-03-29T13:37:05.602Z</time></trkpt><trkpt lat="45.6624689" lon="9.5856482"><ele>193.0</ele><time>2026-03-29T13:37:07.602Z</time></trkpt><trkpt lat="45.6623743" lon="9.5856519"><ele>193.0</ele><time>2026-03-29T13:37:09.601Z</time></trkpt><trkpt lat="45.6622753" lon="9.5856458"><ele>193.0</ele><time>2026-03-29T13:37:11.602Z</time></trkpt><trkpt lat="45.6621644" lon="9.5856371"><ele>193.0</ele><time>2026-03-29T13:37:13.601Z</time></trkpt><trkpt lat="45.6620628" lon="9.5856315"><ele>193.0</ele><time>2026-03-29T13:37:15.602Z</time></trkpt><trkpt lat="45.6619538" lon="9.5856178"><ele>193.0</ele><time>2026-03-29T13:37:17.602Z</time></trkpt><trkpt lat="45.6618401" lon="9.5855942"><ele>193.0</ele><time>2026-03-29T13:37:19.602Z</time></trkpt><trkpt lat="45.661779" lon="9.5855715"><ele>193.0</ele><time>2026-03-29T13:37:20.601Z</time></trkpt><trkpt lat="45.6616587" lon="9.5855596"><ele>193.25</ele><time>2026-03-29T13:37:22.602Z</time></trkpt><trkpt lat="45.6615359" lon="9.5855606"><ele>193.5</ele><time>2026-03-29T13:37:24.602Z</time></trkpt><trkpt lat="45.6614133" lon="9.5855568"><ele>193.75</ele><time>2026-03-29T13:37:26.602Z</time></trkpt><trkpt lat="45.6612966" lon="9.5855541"><ele>194.0</ele><time>2026-03-29T13:37:28.602Z</time></trkpt><trkpt lat="45.6611728" lon="9.5855528"><ele>193.79999999999998</ele><time>2026-03-29T13:37:30.602Z</time></trkpt><trkpt lat="45.6611094" lon="9.5855433"><ele>193.6</ele><time>2026-03-29T13:37:31.602Z</time></trkpt><trkpt lat="45.6609941" lon="9.5855444"><ele>193.4</ele><time>2026-03-29T13:37:33.602Z</time></trkpt><trkpt lat="45.6608806" lon="9.58553"><ele>193.2</ele><time>2026-03-29T13:37:35.601Z</time></trkpt><trkpt lat="45.6608116" lon="9.5855207"><ele>193.0</ele><time>2026-03-29T13:37:36.602Z</time></trkpt><trkpt lat="45.66069" lon="9.5854884"><ele>193.0</ele><time>2026-03-29T13:37:38.602Z</time></trkpt><trkpt lat="45.6605703" lon="9.5854654"><ele>193.0</ele><time>2026-03-29T13:37:40.602Z</time></trkpt><trkpt lat="45.6605081" lon="9.5854458"><ele>193.0</ele><time>2026-03-29T13:37:41.601Z</time></trkpt><trkpt lat="45.6604471" lon="9.5854183"><ele>193.0</ele><time>2026-03-29T13:37:42.602Z</time></trkpt><trkpt lat="45.6603287" lon="9.5853735"><ele>193.0</ele><time>2026-03-29T13:37:44.602Z</time></trkpt><trkpt lat="45.6602069" lon="9.5853255"><ele>191.66666666666666</ele><time>2026-03-29T13:37:46.602Z</time></trkpt><trkpt lat="45.6601433" lon="9.5853001"><ele>190.33333333333331</ele><time>2026-03-29T13:37:47.602Z</time></trkpt><trkpt lat="45.6600815" lon="9.5852718"><ele>189.0</ele><time>2026-03-29T13:37:48.602Z</time></trkpt><trkpt lat="45.6600217" lon="9.5852378"><ele>187.66666666666666</ele><time>2026-03-29T13:37:49.602Z</time></trkpt><trkpt lat="45.6599037" lon="9.5851913"><ele>186.33333333333331</ele><time>2026-03-29T13:37:51.602Z</time></trkpt><trkpt lat="45.6598406" lon="9.5851691"><ele>185.0</ele><time>2026-03-29T13:37:52.602Z</time></trkpt><trkpt lat="45.6597277" lon="9.5851053"><ele>185.0</ele><time>2026-03-29T13:37:54.602Z</time></trkpt><trkpt lat="45.6596674" lon="9.585066"><ele>185.0</ele><time>2026-03-29T13:37:55.602Z</time></trkpt><trkpt lat="45.6595503" lon="9.5850344"><ele>185.0</ele><time>2026-03-29T13:37:57.602Z</time></trkpt><trkpt lat="45.6594246" lon="9.5850118"><ele>185.0</ele><time>2026-03-29T13:37:59.602Z</time></trkpt><trkpt lat="45.6593111" lon="9.5850245"><ele>185.0</ele><time>2026-03-29T13:38:01.602Z</time></trkpt><trkpt lat="45.6592479" lon="9.58504"><ele>185.5</ele><time>2026-03-29T13:38:02.602Z</time></trkpt><trkpt lat="45.659181" lon="9.5850628"><ele>186.0</ele><time>2026-03-29T13:38:03.602Z</time></trkpt><trkpt lat="45.6591161" lon="9.5850758"><ele>186.5</ele><time>2026-03-29T13:38:04.602Z</time></trkpt><trkpt lat="45.6589942" lon="9.5850708"><ele>187.0</ele><time>2026-03-29T13:38:06.601Z</time></trkpt><trkpt lat="45.6588759" lon="9.5850487"><ele>187.5</ele><time>2026-03-29T13:38:08.602Z</time></trkpt><trkpt lat="45.6588066" lon="9.585031"><ele>188.0</ele><time>2026-03-29T13:38:09.602Z</time></trkpt><trkpt lat="45.6587429" lon="9.5850185"><ele>188.0</ele><time>2026-03-29T13:38:10.602Z</time></trkpt><trkpt lat="45.6586765" lon="9.5850006"><ele>188.0</ele><time>2026-03-29T13:38:11.602Z</time></trkpt><trkpt lat="45.6586149" lon="9.5849754"><ele>188.0</ele><time>2026-03-29T13:38:12.602Z</time></trkpt><trkpt lat="45.658493" lon="9.5849262"><ele>188.0</ele><time>2026-03-29T13:38:14.602Z</time></trkpt><trkpt lat="45.6583765" lon="9.5848624"><ele>188.0</ele><time>2026-03-29T13:38:16.601Z</time></trkpt><trkpt lat="45.6582673" lon="9.5847701"><ele>187.83333333333331</ele><time>2026-03-29T13:38:18.602Z</time></trkpt><trkpt lat="45.6581672" lon="9.584669"><ele>187.66666666666666</ele><time>2026-03-29T13:38:20.602Z</time></trkpt><trkpt lat="45.6581088" lon="9.5846194"><ele>187.5</ele><time>2026-03-29T13:38:21.602Z</time></trkpt><trkpt lat="45.6580578" lon="9.5845657"><ele>187.33333333333334</ele><time>2026-03-29T13:38:22.602Z</time></trkpt><trkpt lat="45.6580035" lon="9.5845074"><ele>187.16666666666669</ele><time>2026-03-29T13:38:23.602Z</time></trkpt><trkpt lat="45.6579465" lon="9.5844503"><ele>187.0</ele><time>2026-03-29T13:38:24.602Z</time></trkpt><trkpt lat="45.6578882" lon="9.5844046"><ele>187.0</ele><time>2026-03-29T13:38:25.602Z</time></trkpt><trkpt lat="45.6577908" lon="9.5842942"><ele>187.0</ele><time>2026-03-29T13:38:27.601Z</time></trkpt><trkpt lat="45.6576845" lon="9.5842094"><ele>187.0</ele><time>2026-03-29T13:38:29.601Z</time></trkpt><trkpt lat="45.6575876" lon="9.5841052"><ele>187.0</ele><time>2026-03-29T13:38:31.602Z</time></trkpt><trkpt lat="45.657477" lon="9.5840313"><ele>187.75</ele><time>2026-03-29T13:38:33.602Z</time></trkpt><trkpt lat="45.6573763" lon="9.5839462"><ele>188.5</ele><time>2026-03-29T13:38:35.602Z</time></trkpt><trkpt lat="45.6572733" lon="9.583877"><ele>189.25</ele><time>2026-03-29T13:38:37.602Z</time></trkpt><trkpt lat="45.6571708" lon="9.5837782"><ele>190.0</ele><time>2026-03-29T13:38:39.601Z</time></trkpt><trkpt lat="45.6570695" lon="9.5836866"><ele>190.2</ele><time>2026-03-29T13:38:41.602Z</time></trkpt><trkpt lat="45.6570101" lon="9.583655"><ele>190.4</ele><time>2026-03-29T13:38:42.602Z</time></trkpt><trkpt lat="45.6569098" lon="9.5835853"><ele>190.60000000000002</ele><time>2026-03-29T13:38:44.602Z</time></trkpt><trkpt lat="45.6568505" lon="9.5835474"><ele>190.8</ele><time>2026-03-29T13:38:45.601Z</time></trkpt><trkpt lat="45.6567477" lon="9.5834665"><ele>191.0</ele><time>2026-03-29T13:38:47.602Z</time></trkpt><trkpt lat="45.6566395" lon="9.5833608"><ele>191.0</ele><time>2026-03-29T13:38:49.602Z</time></trkpt><trkpt lat="45.6565754" lon="9.5833177"><ele>191.0</ele><time>2026-03-29T13:38:50.601Z</time></trkpt><trkpt lat="45.6565193" lon="9.5832704"><ele>191.0</ele><time>2026-03-29T13:38:51.602Z</time></trkpt><trkpt lat="45.6564555" lon="9.5832362"><ele>191.0</ele><time>2026-03-29T13:38:52.602Z</time></trkpt><trkpt lat="45.6563495" lon="9.5831526"><ele>191.0</ele><time>2026-03-29T13:38:54.601Z</time></trkpt><trkpt lat="45.6562906" lon="9.5831168"><ele>191.0</ele><time>2026-03-29T13:38:55.602Z</time></trkpt><trkpt lat="45.656234" lon="9.5830675"><ele>191.0</ele><time>2026-03-29T13:38:56.602Z</time></trkpt><trkpt lat="45.656125" lon="9.5829952"><ele>191.0</ele><time>2026-03-29T13:38:58.602Z</time></trkpt><trkpt lat="45.6560055" lon="9.5829113"><ele>191.0</ele><time>2026-03-29T13:39:00.602Z</time></trkpt><trkpt lat="45.6559522" lon="9.5828629"><ele>191.0</ele><time>2026-03-29T13:39:01.602Z</time></trkpt><trkpt lat="45.6558333" lon="9.5827876"><ele>191.0</ele><time>2026-03-29T13:39:03.601Z</time></trkpt><trkpt lat="45.6557735" lon="9.5827356"><ele>190.16666666666666</ele><time>2026-03-29T13:39:04.601Z</time></trkpt><trkpt lat="45.6557109" lon="9.5826977"><ele>189.33333333333331</ele><time>2026-03-29T13:39:05.602Z</time></trkpt><trkpt lat="45.6556536" lon="9.582657"><ele>188.5</ele><time>2026-03-29T13:39:06.602Z</time></trkpt><trkpt lat="45.6555965" lon="9.5826147"><ele>187.66666666666666</ele><time>2026-03-29T13:39:07.602Z</time></trkpt><trkpt lat="45.6555386" lon="9.5825708"><ele>186.83333333333334</ele><time>2026-03-29T13:39:08.602Z</time></trkpt><trkpt lat="45.6554801" lon="9.5825251"><ele>186.0</ele><time>2026-03-29T13:39:09.602Z</time></trkpt><trkpt lat="45.6553687" lon="9.5824449"><ele>187.5</ele><time>2026-03-29T13:39:11.602Z</time></trkpt><trkpt lat="45.6552566" lon="9.5823718"><ele>189.0</ele><time>2026-03-29T13:39:13.602Z</time></trkpt><trkpt lat="45.6551476" lon="9.5822954"><ele>190.5</ele><time>2026-03-29T13:39:15.602Z</time></trkpt><trkpt lat="45.655042" lon="9.5822197"><ele>192.0</ele><time>2026-03-29T13:39:17.602Z</time></trkpt><trkpt lat="45.654939" lon="9.5821683"><ele>192.0</ele><time>2026-03-29T13:39:19.602Z</time></trkpt><trkpt lat="45.654831" lon="9.5821354"><ele>192.0</ele><time>2026-03-29T13:39:21.602Z</time></trkpt><trkpt lat="45.6547287" lon="9.5820755"><ele>192.0</ele><time>2026-03-29T13:39:23.602Z</time></trkpt><trkpt lat="45.654631" lon="9.58201"><ele>192.0</ele><time>2026-03-29T13:39:25.601Z</time></trkpt><trkpt lat="45.6545463" lon="9.5819465"><ele>192.0</ele><time>2026-03-29T13:39:27.602Z</time></trkpt><trkpt lat="45.6544968" lon="9.5818867"><ele>191.39999999999998</ele><time>2026-03-29T13:40:47.602Z</time></trkpt><trkpt lat="45.6544067" lon="9.5818533"><ele>190.79999999999998</ele><time>2026-03-29T13:40:49.602Z</time></trkpt><trkpt lat="45.6542914" lon="9.5818064"><ele>190.2</ele><time>2026-03-29T13:40:51.601Z</time></trkpt><trkpt lat="45.6542308" lon="9.5817684"><ele>189.6</ele><time>2026-03-29T13:40:52.601Z</time></trkpt><trkpt lat="45.6541765" lon="9.5817133"><ele>189.0</ele><time>2026-03-29T13:40:53.602Z</time></trkpt><trkpt lat="45.6540645" lon="9.5816997"><ele>189.0</ele><time>2026-03-29T13:40:55.602Z</time></trkpt><trkpt lat="45.6539517" lon="9.5816627"><ele>189.0</ele><time>2026-03-29T13:40:57.601Z</time></trkpt><trkpt lat="45.653887" lon="9.5816216"><ele>189.0</ele><time>2026-03-29T13:41:00.041Z</time></trkpt><trkpt lat="45.6537939" lon="9.5815631"><ele>189.0</ele><time>2026-03-29T13:41:01.596Z</time></trkpt><trkpt lat="45.6537114" lon="9.5815286"><ele>189.0</ele><time>2026-03-29T13:41:02.594Z</time></trkpt><trkpt lat="45.6536318" lon="9.5815037"><ele>189.14285714285714</ele><time>2026-03-29T13:41:03.602Z</time></trkpt><trkpt lat="45.6535655" lon="9.5814796"><ele>189.28571428571428</ele><time>2026-03-29T13:41:04.599Z</time></trkpt><trkpt lat="45.6535034" lon="9.5814524"><ele>189.42857142857144</ele><time>2026-03-29T13:41:05.602Z</time></trkpt><trkpt lat="45.6534518" lon="9.5813991"><ele>189.57142857142856</ele><time>2026-03-29T13:41:06.601Z</time></trkpt><trkpt lat="45.6533965" lon="9.5813465"><ele>189.71428571428572</ele><time>2026-03-29T13:41:07.602Z</time></trkpt><trkpt lat="45.6533274" lon="9.581287"><ele>189.85714285714286</ele><time>2026-03-29T13:41:08.602Z</time></trkpt><trkpt lat="45.6532648" lon="9.581264"><ele>190.0</ele><time>2026-03-29T13:41:09.601Z</time></trkpt><trkpt lat="45.6531763" lon="9.5812341"><ele>190.0</ele><time>2026-03-29T13:41:10.602Z</time></trkpt><trkpt lat="45.6530925" lon="9.5811508"><ele>190.0</ele><time>2026-03-29T13:41:12.602Z</time></trkpt><trkpt lat="45.6530205" lon="9.5811266"><ele>190.0</ele><time>2026-03-29T13:41:13.602Z</time></trkpt><trkpt lat="45.6529534" lon="9.581115"><ele>190.0</ele><time>2026-03-29T13:41:14.602Z</time></trkpt><trkpt lat="45.6528958" lon="9.5810656"><ele>190.0</ele><time>2026-03-29T13:41:15.602Z</time></trkpt><trkpt lat="45.6528345" lon="9.5810289"><ele>190.0</ele><time>2026-03-29T13:41:16.602Z</time></trkpt><trkpt lat="45.6527805" lon="9.5809764"><ele>190.0</ele><time>2026-03-29T13:41:17.602Z</time></trkpt><trkpt lat="45.6527227" lon="9.5809144"><ele>190.0</ele><time>2026-03-29T13:41:18.602Z</time></trkpt><trkpt lat="45.6526638" lon="9.5808506"><ele>190.0</ele><time>2026-03-29T13:41:19.602Z</time></trkpt><trkpt lat="45.652566" lon="9.5807642"><ele>190.0</ele><time>2026-03-29T13:41:21.602Z</time></trkpt><trkpt lat="45.6524687" lon="9.5806683"><ele>190.0</ele><time>2026-03-29T13:41:23.602Z</time></trkpt><trkpt lat="45.6523639" lon="9.5806095"><ele>190.0</ele><time>2026-03-29T13:41:25.602Z</time></trkpt><trkpt lat="45.6522538" lon="9.5805322"><ele>190.0</ele><time>2026-03-29T13:41:27.601Z</time></trkpt><trkpt lat="45.6521449" lon="9.5804609"><ele>190.0</ele><time>2026-03-29T13:41:29.602Z</time></trkpt><trkpt lat="45.6520752" lon="9.5804311"><ele>190.0</ele><time>2026-03-29T13:41:30.601Z</time></trkpt><trkpt lat="45.652016" lon="9.5803868"><ele>190.0</ele><time>2026-03-29T13:41:31.602Z</time></trkpt><trkpt lat="45.6519621" lon="9.5803388"><ele>190.0</ele><time>2026-03-29T13:41:32.602Z</time></trkpt><trkpt lat="45.6519022" lon="9.5802868"><ele>190.0</ele><time>2026-03-29T13:41:33.602Z</time></trkpt><trkpt lat="45.6518431" lon="9.5802338"><ele>190.0</ele><time>2026-03-29T13:41:34.602Z</time></trkpt><trkpt lat="45.6517613" lon="9.5801258"><ele>190.0</ele><time>2026-03-29T13:41:36.602Z</time></trkpt><trkpt lat="45.6516783" lon="9.5801114"><ele>190.0</ele><time>2026-03-29T13:41:39.602Z</time></trkpt><trkpt lat="45.6516229" lon="9.5801596"><ele>190.0</ele><time>2026-03-29T13:41:41.602Z</time></trkpt><trkpt lat="45.6515572" lon="9.5801808"><ele>190.0</ele><time>2026-03-29T13:41:44.602Z</time></trkpt><trkpt lat="45.6514917" lon="9.5802148"><ele>190.0</ele><time>2026-03-29T13:41:47.601Z</time></trkpt><trkpt lat="45.651409" lon="9.5802057"><ele>190.0</ele><time>2026-03-29T13:41:51.602Z</time></trkpt><trkpt lat="45.6513438" lon="9.5801873"><ele>190.0</ele><time>2026-03-29T13:41:54.602Z</time></trkpt><trkpt lat="45.6512781" lon="9.5801834"><ele>190.0</ele><time>2026-03-29T13:41:57.602Z</time></trkpt><trkpt lat="45.6512115" lon="9.5801696"><ele>190.0</ele><time>2026-03-29T13:42:00.602Z</time></trkpt><trkpt lat="45.6511408" lon="9.5801775"><ele>190.0</ele><time>2026-03-29T13:42:05.602Z</time></trkpt><trkpt lat="45.6510548" lon="9.5802011"><ele>190.0</ele><time>2026-03-29T13:42:09.602Z</time></trkpt><trkpt lat="45.6509704" lon="9.5802181"><ele>190.0</ele><time>2026-03-29T13:42:12.602Z</time></trkpt><trkpt lat="45.6509002" lon="9.5802237"><ele>191.14285714285714</ele><time>2026-03-29T13:42:16.602Z</time></trkpt><trkpt lat="45.6508187" lon="9.5802356"><ele>192.28571428571428</ele><time>2026-03-29T13:42:19.602Z</time></trkpt><trkpt lat="45.6507506" lon="9.5802777"><ele>193.42857142857144</ele><time>2026-03-29T13:42:23.602Z</time></trkpt><trkpt lat="45.6506756" lon="9.5803041"><ele>194.57142857142856</ele><time>2026-03-29T13:42:27.602Z</time></trkpt><trkpt lat="45.6506126" lon="9.5803352"><ele>195.7142857142857</ele><time>2026-03-29T13:42:30.602Z</time></trkpt><trkpt lat="45.6505445" lon="9.5803561"><ele>196.85714285714286</ele><time>2026-03-29T13:42:32.602Z</time></trkpt><trkpt lat="45.6504716" lon="9.5803643"><ele>198.0</ele><time>2026-03-29T13:42:35.602Z</time></trkpt><trkpt lat="45.650392" lon="9.5803884"><ele>198.71428571428572</ele><time>2026-03-29T13:42:38.602Z</time></trkpt><trkpt lat="45.6503286" lon="9.5804351"><ele>199.42857142857142</ele><time>2026-03-29T13:42:41.602Z</time></trkpt><trkpt lat="45.6502392" lon="9.5804217"><ele>200.14285714285714</ele><time>2026-03-29T13:42:44.602Z</time></trkpt><trkpt lat="45.6501751" lon="9.58039"><ele>200.85714285714286</ele><time>2026-03-29T13:42:46.602Z</time></trkpt><trkpt lat="45.6500964" lon="9.5803421"><ele>201.57142857142856</ele><time>2026-03-29T13:42:49.601Z</time></trkpt><trkpt lat="45.650036" lon="9.5803158"><ele>202.28571428571428</ele><time>2026-03-29T13:42:51.602Z</time></trkpt><trkpt lat="45.6499708" lon="9.5802961"><ele>203.0</ele><time>2026-03-29T13:42:53.602Z</time></trkpt><trkpt lat="45.6498894" lon="9.5802439"><ele>203.0</ele><time>2026-03-29T13:42:55.602Z</time></trkpt><trkpt lat="45.6498094" lon="9.5801831"><ele>203.0</ele><time>2026-03-29T13:42:57.601Z</time></trkpt><trkpt lat="45.649726" lon="9.5801308"><ele>203.0</ele><time>2026-03-29T13:42:59.602Z</time></trkpt><trkpt lat="45.6496351" lon="9.5800846"><ele>203.0</ele><time>2026-03-29T13:43:01.602Z</time></trkpt><trkpt lat="45.6495521" lon="9.5800158"><ele>203.0</ele><time>2026-03-29T13:43:03.601Z</time></trkpt><trkpt lat="45.6494647" lon="9.579949"><ele>204.0</ele><time>2026-03-29T13:43:05.602Z</time></trkpt><trkpt lat="45.6493714" lon="9.5798793"><ele>205.0</ele><time>2026-03-29T13:43:07.602Z</time></trkpt><trkpt lat="45.6491756" lon="9.5796358"><ele>206.0</ele><time>2026-03-29T13:43:09.602Z</time></trkpt><trkpt lat="45.6490777" lon="9.5795578"><ele>205.20000000000002</ele><time>2026-03-29T13:43:11.601Z</time></trkpt><trkpt lat="45.6489786" lon="9.5794767"><ele>204.4</ele><time>2026-03-29T13:43:13.602Z</time></trkpt><trkpt lat="45.6488793" lon="9.5793941"><ele>203.6</ele><time>2026-03-29T13:43:15.602Z</time></trkpt><trkpt lat="45.6488225" lon="9.5793365"><ele>202.8</ele><time>2026-03-29T13:43:16.602Z</time></trkpt><trkpt lat="45.6487182" lon="9.5792277"><ele>202.0</ele><time>2026-03-29T13:43:18.602Z</time></trkpt><trkpt lat="45.6486229" lon="9.5791171"><ele>202.0</ele><time>2026-03-29T13:43:20.601Z</time></trkpt><trkpt lat="45.6485252" lon="9.5790269"><ele>202.0</ele><time>2026-03-29T13:43:22.602Z</time></trkpt><trkpt lat="45.6484174" lon="9.5789277"><ele>202.0</ele><time>2026-03-29T13:43:24.602Z</time></trkpt><trkpt lat="45.6483605" lon="9.5788769"><ele>202.0</ele><time>2026-03-29T13:43:25.602Z</time></trkpt><trkpt lat="45.648257" lon="9.5787811"><ele>202.0</ele><time>2026-03-29T13:43:27.602Z</time></trkpt><trkpt lat="45.648156" lon="9.5786762"><ele>201.16666666666666</ele><time>2026-03-29T13:43:29.601Z</time></trkpt><trkpt lat="45.648048" lon="9.5785903"><ele>200.33333333333331</ele><time>2026-03-29T13:43:31.602Z</time></trkpt><trkpt lat="45.6479385" lon="9.5785141"><ele>199.5</ele><time>2026-03-29T13:43:33.602Z</time></trkpt><trkpt lat="45.6478779" lon="9.5784798"><ele>198.66666666666669</ele><time>2026-03-29T13:43:34.602Z</time></trkpt><trkpt lat="45.6478122" lon="9.5784491"><ele>197.83333333333334</ele><time>2026-03-29T13:43:35.602Z</time></trkpt><trkpt lat="45.6477505" lon="9.5784171"><ele>197.0</ele><time>2026-03-29T13:43:36.602Z</time></trkpt><trkpt lat="45.6476301" lon="9.5783684"><ele>197.00000000000003</ele><time>2026-03-29T13:43:38.602Z</time></trkpt><trkpt lat="45.6475102" lon="9.5783258"><ele>197.0</ele><time>2026-03-29T13:43:40.602Z</time></trkpt><trkpt lat="45.6474486" lon="9.5782805"><ele>197.0</ele><time>2026-03-29T13:43:41.602Z</time></trkpt><trkpt lat="45.6473889" lon="9.5782509"><ele>197.0</ele><time>2026-03-29T13:43:42.602Z</time></trkpt><trkpt lat="45.6473278" lon="9.5782158"><ele>197.00000000000003</ele><time>2026-03-29T13:43:43.602Z</time></trkpt><trkpt lat="45.6472649" lon="9.5781873"><ele>197.0</ele><time>2026-03-29T13:43:44.601Z</time></trkpt><trkpt lat="45.6472052" lon="9.5781565"><ele>197.00000000000003</ele><time>2026-03-29T13:43:45.602Z</time></trkpt><trkpt lat="45.6471431" lon="9.5781302"><ele>197.0</ele><time>2026-03-29T13:43:46.602Z</time></trkpt><trkpt lat="45.6470188" lon="9.5780731"><ele>197.0</ele><time>2026-03-29T13:43:48.602Z</time></trkpt><trkpt lat="45.6469552" lon="9.5780667"><ele>197.0</ele><time>2026-03-29T13:43:49.602Z</time></trkpt><trkpt lat="45.6468898" lon="9.5780545"><ele>197.00000000000003</ele><time>2026-03-29T13:43:50.602Z</time></trkpt><trkpt lat="45.6468259" lon="9.5780388"><ele>197.0</ele><time>2026-03-29T13:43:51.602Z</time></trkpt><trkpt lat="45.6467636" lon="9.5780178"><ele>197.2</ele><time>2026-03-29T13:43:52.602Z</time></trkpt><trkpt lat="45.6466677" lon="9.5779999"><ele>197.39999999999998</ele><time>2026-03-29T13:43:54.602Z</time></trkpt><trkpt lat="45.6465959" lon="9.57795"><ele>197.60000000000002</ele><time>2026-03-29T13:43:56.602Z</time></trkpt><trkpt lat="45.6465221" lon="9.577876"><ele>197.8</ele><time>2026-03-29T13:43:58.602Z</time></trkpt><trkpt lat="45.6464391" lon="9.5777889"><ele>198.0</ele><time>2026-03-29T13:44:00.602Z</time></trkpt><trkpt lat="45.6463524" lon="9.577717"><ele>198.0</ele><time>2026-03-29T13:44:02.602Z</time></trkpt><trkpt lat="45.6462679" lon="9.57763"><ele>198.0</ele><time>2026-03-29T13:44:04.602Z</time></trkpt><trkpt lat="45.646178" lon="9.5775473"><ele>198.0</ele><time>2026-03-29T13:44:06.602Z</time></trkpt><trkpt lat="45.646081" lon="9.5774732"><ele>198.0</ele><time>2026-03-29T13:44:08.601Z</time></trkpt><trkpt lat="45.6459782" lon="9.5774037"><ele>198.0</ele><time>2026-03-29T13:44:10.602Z</time></trkpt><trkpt lat="45.6458779" lon="9.5773413"><ele>198.0</ele><time>2026-03-29T13:44:12.601Z</time></trkpt><trkpt lat="45.6457727" lon="9.5772777"><ele>198.0</ele><time>2026-03-29T13:44:14.602Z</time></trkpt><trkpt lat="45.6456705" lon="9.5771939"><ele>198.0</ele><time>2026-03-29T13:44:16.602Z</time></trkpt><trkpt lat="45.6455665" lon="9.5771155"><ele>198.0</ele><time>2026-03-29T13:44:18.602Z</time></trkpt><trkpt lat="45.6454694" lon="9.5770357"><ele>198.0</ele><time>2026-03-29T13:44:20.602Z</time></trkpt><trkpt lat="45.6453634" lon="9.5769666"><ele>198.0</ele><time>2026-03-29T13:44:22.602Z</time></trkpt><trkpt lat="45.6452575" lon="9.57687"><ele>198.0</ele><time>2026-03-29T13:44:24.602Z</time></trkpt><trkpt lat="45.6451544" lon="9.5767726"><ele>198.0</ele><time>2026-03-29T13:44:26.602Z</time></trkpt><trkpt lat="45.645051" lon="9.5766859"><ele>198.0</ele><time>2026-03-29T13:44:28.602Z</time></trkpt><trkpt lat="45.6449503" lon="9.5765784"><ele>198.0</ele><time>2026-03-29T13:44:30.602Z</time></trkpt><trkpt lat="45.6448907" lon="9.5765299"><ele>198.0</ele><time>2026-03-29T13:44:31.601Z</time></trkpt><trkpt lat="45.6448355" lon="9.5764861"><ele>198.0</ele><time>2026-03-29T13:44:32.602Z</time></trkpt><trkpt lat="45.6447302" lon="9.5763962"><ele>198.0</ele><time>2026-03-29T13:44:34.602Z</time></trkpt><trkpt lat="45.6446225" lon="9.5762972"><ele>198.0</ele><time>2026-03-29T13:44:36.602Z</time></trkpt><trkpt lat="45.6445687" lon="9.5762415"><ele>198.0</ele><time>2026-03-29T13:44:37.601Z</time></trkpt><trkpt lat="45.6445161" lon="9.5761907"><ele>198.0</ele><time>2026-03-29T13:44:38.602Z</time></trkpt><trkpt lat="45.6444633" lon="9.5761358"><ele>198.0</ele><time>2026-03-29T13:44:39.602Z</time></trkpt><trkpt lat="45.6444078" lon="9.5760777"><ele>198.0</ele><time>2026-03-29T13:44:40.602Z</time></trkpt><trkpt lat="45.6443047" lon="9.5759897"><ele>198.0</ele><time>2026-03-29T13:44:42.602Z</time></trkpt><trkpt lat="45.6441997" lon="9.5758861"><ele>198.0</ele><time>2026-03-29T13:44:44.602Z</time></trkpt><trkpt lat="45.6441466" lon="9.5758363"><ele>198.0</ele><time>2026-03-29T13:44:45.602Z</time></trkpt><trkpt lat="45.6440425" lon="9.5757388"><ele>198.0</ele><time>2026-03-29T13:44:47.602Z</time></trkpt><trkpt lat="45.6439458" lon="9.5756244"><ele>198.0</ele><time>2026-03-29T13:44:49.601Z</time></trkpt><trkpt lat="45.6438987" lon="9.5755588"><ele>198.0</ele><time>2026-03-29T13:44:50.602Z</time></trkpt><trkpt lat="45.6438515" lon="9.575487"><ele>198.0</ele><time>2026-03-29T13:44:51.602Z</time></trkpt><trkpt lat="45.6438104" lon="9.5754179"><ele>198.0</ele><time>2026-03-29T13:44:52.602Z</time></trkpt><trkpt lat="45.6437676" lon="9.5753511"><ele>198.0</ele><time>2026-03-29T13:44:53.601Z</time></trkpt><trkpt lat="45.6437203" lon="9.5752807"><ele>198.0</ele><time>2026-03-29T13:44:54.602Z</time></trkpt><trkpt lat="45.6436713" lon="9.5752084"><ele>198.0</ele><time>2026-03-29T13:44:55.602Z</time></trkpt><trkpt lat="45.6435608" lon="9.5751169"><ele>198.0</ele><time>2026-03-29T13:44:57.602Z</time></trkpt><trkpt lat="45.6434631" lon="9.5750174"><ele>198.0</ele><time>2026-03-29T13:44:59.601Z</time></trkpt><trkpt lat="45.6434121" lon="9.5749635"><ele>198.0</ele><time>2026-03-29T13:45:00.602Z</time></trkpt><trkpt lat="45.6433601" lon="9.574909"><ele>198.0</ele><time>2026-03-29T13:45:01.602Z</time></trkpt><trkpt lat="45.6432636" lon="9.5747886"><ele>198.0</ele><time>2026-03-29T13:45:03.602Z</time></trkpt><trkpt lat="45.643168" lon="9.5746723"><ele>198.0</ele><time>2026-03-29T13:45:05.602Z</time></trkpt><trkpt lat="45.6431142" lon="9.5746222"><ele>198.0</ele><time>2026-03-29T13:45:06.602Z</time></trkpt><trkpt lat="45.6430605" lon="9.5745734"><ele>198.0</ele><time>2026-03-29T13:45:07.602Z</time></trkpt><trkpt lat="45.6430052" lon="9.5745249"><ele>198.0</ele><time>2026-03-29T13:45:08.602Z</time></trkpt><trkpt lat="45.6429466" lon="9.574486"><ele>198.0</ele><time>2026-03-29T13:45:09.602Z</time></trkpt><trkpt lat="45.6428881" lon="9.574442"><ele>198.0</ele><time>2026-03-29T13:45:10.602Z</time></trkpt><trkpt lat="45.6428335" lon="9.5743939"><ele>198.0</ele><time>2026-03-29T13:45:11.602Z</time></trkpt><trkpt lat="45.6427731" lon="9.5743446"><ele>198.0</ele><time>2026-03-29T13:45:12.602Z</time></trkpt><trkpt lat="45.6427157" lon="9.5742935"><ele>198.0</ele><time>2026-03-29T13:45:13.602Z</time></trkpt><trkpt lat="45.642657" lon="9.5742573"><ele>197.33333333333334</ele><time>2026-03-29T13:45:14.602Z</time></trkpt><trkpt lat="45.6425971" lon="9.5742143"><ele>196.66666666666669</ele><time>2026-03-29T13:45:15.602Z</time></trkpt><trkpt lat="45.6425397" lon="9.5741639"><ele>196.0</ele><time>2026-03-29T13:45:16.601Z</time></trkpt><trkpt lat="45.6424748" lon="9.574113"><ele>195.33333333333334</ele><time>2026-03-29T13:45:17.602Z</time></trkpt><trkpt lat="45.6423778" lon="9.5740202"><ele>194.66666666666669</ele><time>2026-03-29T13:45:19.602Z</time></trkpt><trkpt lat="45.6423245" lon="9.5739529"><ele>194.0</ele><time>2026-03-29T13:45:20.602Z</time></trkpt><trkpt lat="45.6422636" lon="9.5739235"><ele>194.00000000000003</ele><time>2026-03-29T13:45:21.602Z</time></trkpt><trkpt lat="45.6421992" lon="9.5738718"><ele>194.0</ele><time>2026-03-29T13:45:22.602Z</time></trkpt><trkpt lat="45.6421487" lon="9.5738148"><ele>194.0</ele><time>2026-03-29T13:45:23.602Z</time></trkpt><trkpt lat="45.6420953" lon="9.5737596"><ele>194.0</ele><time>2026-03-29T13:45:24.602Z</time></trkpt><trkpt lat="45.6419883" lon="9.5736504"><ele>194.00000000000003</ele><time>2026-03-29T13:45:26.601Z</time></trkpt><trkpt lat="45.6419392" lon="9.5735935"><ele>194.0</ele><time>2026-03-29T13:45:27.602Z</time></trkpt><trkpt lat="45.6418883" lon="9.573533"><ele>194.2</ele><time>2026-03-29T13:45:28.602Z</time></trkpt><trkpt lat="45.6418401" lon="9.5734733"><ele>194.39999999999998</ele><time>2026-03-29T13:45:29.601Z</time></trkpt><trkpt lat="45.6417345" lon="9.5733632"><ele>194.6</ele><time>2026-03-29T13:45:31.602Z</time></trkpt><trkpt lat="45.6416267" lon="9.573258"><ele>194.8</ele><time>2026-03-29T13:45:33.602Z</time></trkpt><trkpt lat="45.6415792" lon="9.5731857"><ele>195.0</ele><time>2026-03-29T13:45:34.602Z</time></trkpt><trkpt lat="45.641526" lon="9.5731241"><ele>195.0</ele><time>2026-03-29T13:45:35.602Z</time></trkpt><trkpt lat="45.6414698" lon="9.5730597"><ele>195.0</ele><time>2026-03-29T13:45:36.602Z</time></trkpt><trkpt lat="45.6414219" lon="9.5729807"><ele>195.0</ele><time>2026-03-29T13:45:37.602Z</time></trkpt><trkpt lat="45.6413725" lon="9.5729127"><ele>195.0</ele><time>2026-03-29T13:45:38.602Z</time></trkpt><trkpt lat="45.6413185" lon="9.5728567"><ele>195.0</ele><time>2026-03-29T13:45:39.602Z</time></trkpt><trkpt lat="45.6412689" lon="9.5728011"><ele>195.0</ele><time>2026-03-29T13:45:40.602Z</time></trkpt><trkpt lat="45.6412176" lon="9.5727325"><ele>195.0</ele><time>2026-03-29T13:45:41.602Z</time></trkpt><trkpt lat="45.6411744" lon="9.5726644"><ele>194.8</ele><time>2026-03-29T13:45:42.602Z</time></trkpt><trkpt lat="45.6411315" lon="9.5725883"><ele>194.6</ele><time>2026-03-29T13:45:43.602Z</time></trkpt><trkpt lat="45.6410588" lon="9.5724441"><ele>194.39999999999998</ele><time>2026-03-29T13:45:45.602Z</time></trkpt><trkpt lat="45.6409697" lon="9.5723232"><ele>194.2</ele><time>2026-03-29T13:45:47.602Z</time></trkpt><trkpt lat="45.6409151" lon="9.5722752"><ele>194.0</ele><time>2026-03-29T13:45:48.601Z</time></trkpt><trkpt lat="45.6408102" lon="9.5722139"><ele>194.00000000000003</ele><time>2026-03-29T13:45:50.602Z</time></trkpt><trkpt lat="45.6406888" lon="9.5721872"><ele>194.0</ele><time>2026-03-29T13:45:52.602Z</time></trkpt><trkpt lat="45.6405643" lon="9.5721392"><ele>194.0</ele><time>2026-03-29T13:45:54.602Z</time></trkpt><trkpt lat="45.6405001" lon="9.5721199"><ele>194.0</ele><time>2026-03-29T13:45:55.602Z</time></trkpt><trkpt lat="45.6404383" lon="9.5720918"><ele>194.00000000000003</ele><time>2026-03-29T13:45:56.602Z</time></trkpt><trkpt lat="45.6403757" lon="9.5720811"><ele>194.0</ele><time>2026-03-29T13:45:57.602Z</time></trkpt><trkpt lat="45.6403117" lon="9.5720759"><ele>194.50000000000003</ele><time>2026-03-29T13:45:58.602Z</time></trkpt><trkpt lat="45.6402463" lon="9.5720517"><ele>195.0</ele><time>2026-03-29T13:45:59.602Z</time></trkpt><trkpt lat="45.6401298" lon="9.571976"><ele>195.5</ele><time>2026-03-29T13:46:01.602Z</time></trkpt><trkpt lat="45.6400706" lon="9.5719143"><ele>196.0</ele><time>2026-03-29T13:46:02.602Z</time></trkpt><trkpt lat="45.6400203" lon="9.5718584"><ele>196.50000000000003</ele><time>2026-03-29T13:46:03.602Z</time></trkpt><trkpt lat="45.639964" lon="9.5718001"><ele>197.0</ele><time>2026-03-29T13:46:04.602Z</time></trkpt><trkpt lat="45.6399066" lon="9.5717475"><ele>195.83333333333334</ele><time>2026-03-29T13:46:05.602Z</time></trkpt><trkpt lat="45.6398528" lon="9.5716883"><ele>194.66666666666669</ele><time>2026-03-29T13:46:06.602Z</time></trkpt><trkpt lat="45.6397948" lon="9.5716299"><ele>193.5</ele><time>2026-03-29T13:46:07.602Z</time></trkpt><trkpt lat="45.6397384" lon="9.571576"><ele>192.33333333333334</ele><time>2026-03-29T13:46:08.602Z</time></trkpt><trkpt lat="45.6396256" lon="9.5714907"><ele>191.16666666666669</ele><time>2026-03-29T13:46:10.602Z</time></trkpt><trkpt lat="45.6395703" lon="9.5714352"><ele>190.0</ele><time>2026-03-29T13:46:11.602Z</time></trkpt><trkpt lat="45.639518" lon="9.5713711"><ele>190.0</ele><time>2026-03-29T13:46:12.602Z</time></trkpt><trkpt lat="45.63947" lon="9.5712996"><ele>190.0</ele><time>2026-03-29T13:46:13.602Z</time></trkpt><trkpt lat="45.6394303" lon="9.5712154"><ele>190.0</ele><time>2026-03-29T13:46:14.602Z</time></trkpt><trkpt lat="45.639389" lon="9.5711214"><ele>190.0</ele><time>2026-03-29T13:46:15.602Z</time></trkpt><trkpt lat="45.639357" lon="9.5710169"><ele>190.0</ele><time>2026-03-29T13:46:16.601Z</time></trkpt><trkpt lat="45.6393343" lon="9.5709135"><ele>190.0</ele><time>2026-03-29T13:46:17.602Z</time></trkpt><trkpt lat="45.6393092" lon="9.5708114"><ele>190.0</ele><time>2026-03-29T13:46:18.601Z</time></trkpt><trkpt lat="45.6392783" lon="9.5707126"><ele>190.14285714285714</ele><time>2026-03-29T13:46:19.601Z</time></trkpt><trkpt lat="45.6392446" lon="9.5706208"><ele>190.28571428571428</ele><time>2026-03-29T13:46:20.602Z</time></trkpt><trkpt lat="45.6392098" lon="9.5705318"><ele>190.42857142857144</ele><time>2026-03-29T13:46:21.602Z</time></trkpt><trkpt lat="45.6391809" lon="9.5704457"><ele>190.57142857142856</ele><time>2026-03-29T13:46:22.602Z</time></trkpt><trkpt lat="45.6391489" lon="9.5703577"><ele>190.7142857142857</ele><time>2026-03-29T13:46:23.602Z</time></trkpt><trkpt lat="45.639114" lon="9.5702737"><ele>190.85714285714286</ele><time>2026-03-29T13:46:24.601Z</time></trkpt><trkpt lat="45.6390804" lon="9.5701905"><ele>191.0</ele><time>2026-03-29T13:46:25.602Z</time></trkpt><trkpt lat="45.6390445" lon="9.570113"><ele>190.83333333333331</ele><time>2026-03-29T13:46:26.602Z</time></trkpt><trkpt lat="45.639008" lon="9.5700247"><ele>190.66666666666666</ele><time>2026-03-29T13:46:27.602Z</time></trkpt><trkpt lat="45.6389685" lon="9.5699495"><ele>190.5</ele><time>2026-03-29T13:46:28.602Z</time></trkpt><trkpt lat="45.6389259" lon="9.5698825"><ele>190.33333333333334</ele><time>2026-03-29T13:46:29.602Z</time></trkpt><trkpt lat="45.6388471" lon="9.5698138"><ele>190.16666666666669</ele><time>2026-03-29T13:46:31.601Z</time></trkpt><trkpt lat="45.6387368" lon="9.5698219"><ele>190.0</ele><time>2026-03-29T13:46:33.602Z</time></trkpt><trkpt lat="45.6386201" lon="9.569795"><ele>190.0</ele><time>2026-03-29T13:46:35.602Z</time></trkpt><trkpt lat="45.6384994" lon="9.5697855"><ele>190.0</ele><time>2026-03-29T13:46:37.601Z</time></trkpt><trkpt lat="45.6383733" lon="9.5697668"><ele>190.0</ele><time>2026-03-29T13:46:39.602Z</time></trkpt><trkpt lat="45.6382902" lon="9.5697476"><ele>190.0</ele><time>2026-03-29T13:46:40.602Z</time></trkpt><trkpt lat="45.6382136" lon="9.5697239"><ele>190.0</ele><time>2026-03-29T13:46:41.602Z</time></trkpt><trkpt lat="45.6381452" lon="9.5697244"><ele>190.0</ele><time>2026-03-29T13:46:42.602Z</time></trkpt><trkpt lat="45.6380465" lon="9.5697036"><ele>190.0</ele><time>2026-03-29T13:46:44.602Z</time></trkpt><trkpt lat="45.6379842" lon="9.5696615"><ele>190.0</ele><time>2026-03-29T13:46:46.601Z</time></trkpt><trkpt lat="45.6379025" lon="9.5696131"><ele>190.0</ele><time>2026-03-29T13:46:48.602Z</time></trkpt><trkpt lat="45.6378152" lon="9.5695583"><ele>190.0</ele><time>2026-03-29T13:46:50.602Z</time></trkpt><trkpt lat="45.6377231" lon="9.5694963"><ele>189.4</ele><time>2026-03-29T13:46:52.602Z</time></trkpt><trkpt lat="45.6376239" lon="9.5694294"><ele>188.8</ele><time>2026-03-29T13:46:54.602Z</time></trkpt><trkpt lat="45.6375304" lon="9.5693598"><ele>188.2</ele><time>2026-03-29T13:46:56.602Z</time></trkpt><trkpt lat="45.6374356" lon="9.5692959"><ele>187.6</ele><time>2026-03-29T13:46:58.602Z</time></trkpt><trkpt lat="45.6373378" lon="9.5692229"><ele>187.0</ele><time>2026-03-29T13:47:00.601Z</time></trkpt><trkpt lat="45.6372434" lon="9.5691435"><ele>187.0</ele><time>2026-03-29T13:47:02.602Z</time></trkpt><trkpt lat="45.6371554" lon="9.5690427"><ele>187.0</ele><time>2026-03-29T13:47:04.602Z</time></trkpt><trkpt lat="45.6370805" lon="9.5689139"><ele>187.0</ele><time>2026-03-29T13:47:06.602Z</time></trkpt><trkpt lat="45.6370392" lon="9.5688452"><ele>187.0</ele><time>2026-03-29T13:47:07.602Z</time></trkpt><trkpt lat="45.6369652" lon="9.5687179"><ele>187.0</ele><time>2026-03-29T13:47:09.602Z</time></trkpt><trkpt lat="45.6369228" lon="9.5686503"><ele>186.7142857142857</ele><time>2026-03-29T13:47:10.602Z</time></trkpt><trkpt lat="45.6368819" lon="9.5685803"><ele>186.42857142857144</ele><time>2026-03-29T13:47:11.601Z</time></trkpt><trkpt lat="45.6368328" lon="9.5685148"><ele>186.14285714285714</ele><time>2026-03-29T13:47:12.602Z</time></trkpt><trkpt lat="45.6367785" lon="9.5684556"><ele>185.85714285714283</ele><time>2026-03-29T13:47:13.602Z</time></trkpt><trkpt lat="45.636734" lon="9.5683828"><ele>185.57142857142856</ele><time>2026-03-29T13:47:14.602Z</time></trkpt><trkpt lat="45.6366834" lon="9.5683262"><ele>185.28571428571428</ele><time>2026-03-29T13:47:15.602Z</time></trkpt><trkpt lat="45.6366284" lon="9.5682778"><ele>185.0</ele><time>2026-03-29T13:47:16.602Z</time></trkpt><trkpt lat="45.6365751" lon="9.5682264"><ele>185.0</ele><time>2026-03-29T13:47:17.602Z</time></trkpt><trkpt lat="45.6364813" lon="9.568131"><ele>185.0</ele><time>2026-03-29T13:47:19.602Z</time></trkpt><trkpt lat="45.6363998" lon="9.5680284"><ele>185.0</ele><time>2026-03-29T13:47:21.602Z</time></trkpt><trkpt lat="45.6363258" lon="9.5679531"><ele>185.0</ele><time>2026-03-29T13:47:23.601Z</time></trkpt><trkpt lat="45.6362571" lon="9.5679033"><ele>185.0</ele><time>2026-03-29T13:47:25.602Z</time></trkpt><trkpt lat="45.6361923" lon="9.5678102"><ele>185.2</ele><time>2026-03-29T13:47:27.602Z</time></trkpt><trkpt lat="45.6361167" lon="9.567751"><ele>185.4</ele><time>2026-03-29T13:47:29.602Z</time></trkpt><trkpt lat="45.6360345" lon="9.5676818"><ele>185.60000000000002</ele><time>2026-03-29T13:47:31.602Z</time></trkpt><trkpt lat="45.6359623" lon="9.5675986"><ele>185.8</ele><time>2026-03-29T13:47:33.602Z</time></trkpt><trkpt lat="45.6359109" lon="9.56747"><ele>186.0</ele><time>2026-03-29T13:47:35.601Z</time></trkpt><trkpt lat="45.6358842" lon="9.5673224"><ele>186.0</ele><time>2026-03-29T13:47:37.602Z</time></trkpt><trkpt lat="45.6358586" lon="9.5671477"><ele>186.0</ele><time>2026-03-29T13:47:39.602Z</time></trkpt><trkpt lat="45.6358454" lon="9.5670575"><ele>186.0</ele><time>2026-03-29T13:47:40.602Z</time></trkpt><trkpt lat="45.6358264" lon="9.5669695"><ele>186.0</ele><time>2026-03-29T13:47:41.602Z</time></trkpt><trkpt lat="45.6357909" lon="9.5668034"><ele>186.0</ele><time>2026-03-29T13:47:43.602Z</time></trkpt><trkpt lat="45.6357771" lon="9.5667141"><ele>186.0</ele><time>2026-03-29T13:47:44.602Z</time></trkpt><trkpt lat="45.6357496" lon="9.5665404"><ele>185.0</ele><time>2026-03-29T13:47:46.602Z</time></trkpt><trkpt lat="45.6357416" lon="9.5663704"><ele>184.0</ele><time>2026-03-29T13:47:48.602Z</time></trkpt><trkpt lat="45.6357285" lon="9.5662061"><ele>183.0</ele><time>2026-03-29T13:47:50.601Z</time></trkpt><trkpt lat="45.6357009" lon="9.5660587"><ele>182.0</ele><time>2026-03-29T13:47:52.602Z</time></trkpt><trkpt lat="45.6356661" lon="9.5659089"><ele>181.8</ele><time>2026-03-29T13:47:54.602Z</time></trkpt><trkpt lat="45.6356163" lon="9.565761"><ele>181.6</ele><time>2026-03-29T13:47:56.602Z</time></trkpt><trkpt lat="45.6355598" lon="9.5656379"><ele>181.4</ele><time>2026-03-29T13:47:58.602Z</time></trkpt><trkpt lat="45.6354748" lon="9.5655445"><ele>181.20000000000002</ele><time>2026-03-29T13:48:00.602Z</time></trkpt><trkpt lat="45.635385" lon="9.5654648"><ele>181.0</ele><time>2026-03-29T13:48:02.602Z</time></trkpt><trkpt lat="45.6352886" lon="9.5653834"><ele>181.5</ele><time>2026-03-29T13:48:04.602Z</time></trkpt><trkpt lat="45.6351952" lon="9.565304"><ele>182.0</ele><time>2026-03-29T13:48:06.602Z</time></trkpt><trkpt lat="45.6350932" lon="9.5652156"><ele>182.5</ele><time>2026-03-29T13:48:08.602Z</time></trkpt><trkpt lat="45.6349866" lon="9.5651466"><ele>183.0</ele><time>2026-03-29T13:48:10.602Z</time></trkpt><trkpt lat="45.6348776" lon="9.5650855"><ele>183.0</ele><time>2026-03-29T13:48:12.602Z</time></trkpt><trkpt lat="45.6347718" lon="9.5650121"><ele>183.0</ele><time>2026-03-29T13:48:14.602Z</time></trkpt><trkpt lat="45.6346693" lon="9.5649478"><ele>183.0</ele><time>2026-03-29T13:48:16.602Z</time></trkpt><trkpt lat="45.6345688" lon="9.5648842"><ele>183.0</ele><time>2026-03-29T13:48:18.602Z</time></trkpt><trkpt lat="45.634488" lon="9.5648399"><ele>183.0</ele><time>2026-03-29T13:48:20.601Z</time></trkpt><trkpt lat="45.6344504" lon="9.5647389"><ele>183.0</ele><time>2026-03-29T13:48:23.602Z</time></trkpt><trkpt lat="45.6345138" lon="9.5646787"><ele>183.0</ele><time>2026-03-29T13:48:25.602Z</time></trkpt><trkpt lat="45.6346191" lon="9.564625"><ele>183.0</ele><time>2026-03-29T13:48:27.602Z</time></trkpt><trkpt lat="45.6346849" lon="9.564649"><ele>183.0</ele><time>2026-03-29T13:48:28.602Z</time></trkpt><trkpt lat="45.6347484" lon="9.5646795"><ele>183.0</ele><time>2026-03-29T13:48:29.602Z</time></trkpt><trkpt lat="45.6348138" lon="9.5646995"><ele>183.0</ele><time>2026-03-29T13:48:30.601Z</time></trkpt><trkpt lat="45.6348852" lon="9.5646987"><ele>183.0</ele><time>2026-03-29T13:48:31.601Z</time></trkpt><trkpt lat="45.6349514" lon="9.5646891"><ele>183.0</ele><time>2026-03-29T13:48:32.602Z</time></trkpt><trkpt lat="45.6350388" lon="9.5645836"><ele>183.0</ele><time>2026-03-29T13:48:34.602Z</time></trkpt><trkpt lat="45.6350935" lon="9.5644508"><ele>183.0</ele><time>2026-03-29T13:48:36.601Z</time></trkpt><trkpt lat="45.6351535" lon="9.5642992"><ele>183.0</ele><time>2026-03-29T13:48:38.602Z</time></trkpt><trkpt lat="45.6351848" lon="9.56422"><ele>182.60000000000002</ele><time>2026-03-29T13:48:39.602Z</time></trkpt><trkpt lat="45.6352463" lon="9.5640612"><ele>182.20000000000002</ele><time>2026-03-29T13:48:41.601Z</time></trkpt><trkpt lat="45.6353125" lon="9.5639156"><ele>181.8</ele><time>2026-03-29T13:48:43.602Z</time></trkpt><trkpt lat="45.6353819" lon="9.5637755"><ele>181.4</ele><time>2026-03-29T13:48:45.602Z</time></trkpt><trkpt lat="45.635427" lon="9.5637016"><ele>181.0</ele><time>2026-03-29T13:48:46.602Z</time></trkpt><trkpt lat="45.6355151" lon="9.5635703"><ele>180.16666666666669</ele><time>2026-03-29T13:48:48.602Z</time></trkpt><trkpt lat="45.635563" lon="9.5635021"><ele>179.33333333333334</ele><time>2026-03-29T13:48:49.602Z</time></trkpt><trkpt lat="45.6356087" lon="9.5634311"><ele>178.5</ele><time>2026-03-29T13:48:50.602Z</time></trkpt><trkpt lat="45.6356749" lon="9.5633073"><ele>177.66666666666666</ele><time>2026-03-29T13:48:52.602Z</time></trkpt><trkpt lat="45.6357078" lon="9.5632239"><ele>176.83333333333331</ele><time>2026-03-29T13:48:54.602Z</time></trkpt><trkpt lat="45.6357625" lon="9.5631764"><ele>176.0</ele><time>2026-03-29T13:48:56.602Z</time></trkpt><trkpt lat="45.6358479" lon="9.563103"><ele>176.0</ele><time>2026-03-29T13:48:58.602Z</time></trkpt><trkpt lat="45.6359161" lon="9.5629881"><ele>176.0</ele><time>2026-03-29T13:49:00.602Z</time></trkpt><trkpt lat="45.6359225" lon="9.5628684"><ele>176.0</ele><time>2026-03-29T13:49:02.602Z</time></trkpt><trkpt lat="45.6358467" lon="9.5627742"><ele>176.0</ele><time>2026-03-29T13:49:04.602Z</time></trkpt><trkpt lat="45.6357709" lon="9.5626835"><ele>176.0</ele><time>2026-03-29T13:49:06.602Z</time></trkpt><trkpt lat="45.6356775" lon="9.5625977"><ele>175.75</ele><time>2026-03-29T13:49:08.601Z</time></trkpt><trkpt lat="45.6355756" lon="9.5625116"><ele>175.5</ele><time>2026-03-29T13:49:10.602Z</time></trkpt><trkpt lat="45.6354779" lon="9.5624158"><ele>175.25</ele><time>2026-03-29T13:49:12.602Z</time></trkpt><trkpt lat="45.6353807" lon="9.562311"><ele>175.0</ele><time>2026-03-29T13:49:14.602Z</time></trkpt><trkpt lat="45.6352948" lon="9.5621897"><ele>175.0</ele><time>2026-03-29T13:49:16.602Z</time></trkpt><trkpt lat="45.6352533" lon="9.5621217"><ele>175.0</ele><time>2026-03-29T13:49:17.602Z</time></trkpt><trkpt lat="45.6351826" lon="9.5619845"><ele>175.0</ele><time>2026-03-29T13:49:19.602Z</time></trkpt><trkpt lat="45.6351365" lon="9.5618428"><ele>175.0</ele><time>2026-03-29T13:49:21.602Z</time></trkpt><trkpt lat="45.6351084" lon="9.5617608"><ele>175.0</ele><time>2026-03-29T13:49:22.602Z</time></trkpt><trkpt lat="45.6350505" lon="9.5616165"><ele>175.0</ele><time>2026-03-29T13:49:24.602Z</time></trkpt><trkpt lat="45.6350141" lon="9.5615417"><ele>175.0</ele><time>2026-03-29T13:49:25.602Z</time></trkpt><trkpt lat="45.6349672" lon="9.5614761"><ele>175.0</ele><time>2026-03-29T13:49:26.602Z</time></trkpt><trkpt lat="45.6349167" lon="9.5614191"><ele>175.0</ele><time>2026-03-29T13:49:27.602Z</time></trkpt><trkpt lat="45.6348657" lon="9.5613463"><ele>175.0</ele><time>2026-03-29T13:49:28.602Z</time></trkpt><trkpt lat="45.6347762" lon="9.5612221"><ele>175.0</ele><time>2026-03-29T13:49:30.602Z</time></trkpt><trkpt lat="45.6347492" lon="9.5611057"><ele>174.16666666666669</ele><time>2026-03-29T13:49:31.602Z</time></trkpt><trkpt lat="45.6347279" lon="9.5610021"><ele>173.33333333333334</ele><time>2026-03-29T13:49:32.602Z</time></trkpt><trkpt lat="45.6347261" lon="9.5608881"><ele>172.5</ele><time>2026-03-29T13:49:33.601Z</time></trkpt><trkpt lat="45.6347265" lon="9.5607755"><ele>171.66666666666666</ele><time>2026-03-29T13:49:34.602Z</time></trkpt><trkpt lat="45.6347298" lon="9.560675"><ele>170.83333333333331</ele><time>2026-03-29T13:49:35.602Z</time></trkpt><trkpt lat="45.6347311" lon="9.5605697"><ele>170.0</ele><time>2026-03-29T13:49:36.601Z</time></trkpt><trkpt lat="45.6347412" lon="9.5604261"><ele>169.71428571428572</ele><time>2026-03-29T13:49:38.602Z</time></trkpt><trkpt lat="45.6347752" lon="9.5603306"><ele>169.42857142857142</ele><time>2026-03-29T13:49:40.602Z</time></trkpt><trkpt lat="45.6348001" lon="9.5602358"><ele>169.14285714285714</ele><time>2026-03-29T13:49:58.602Z</time></trkpt><trkpt lat="45.6348133" lon="9.5601088"><ele>168.85714285714286</ele><time>2026-03-29T13:50:08.601Z</time></trkpt><trkpt lat="45.6348329" lon="9.5600066"><ele>168.57142857142856</ele><time>2026-03-29T13:50:15.601Z</time></trkpt><trkpt lat="45.6348771" lon="9.5599257"><ele>168.28571428571428</ele><time>2026-03-29T13:50:21.601Z</time></trkpt><trkpt lat="45.6349059" lon="9.5598408"><ele>168.0</ele><time>2026-03-29T13:50:27.611Z</time></trkpt><trkpt lat="45.6349451" lon="9.5597476"><ele>168.0</ele><time>2026-03-29T13:50:34.602Z</time></trkpt><trkpt lat="45.6349886" lon="9.5596705"><ele>168.0</ele><time>2026-03-29T13:50:40.59Z</time></trkpt><trkpt lat="45.6350561" lon="9.559654"><ele>168.0</ele><time>2026-03-29T13:50:46.602Z</time></trkpt><trkpt lat="45.6351223" lon="9.5596257"><ele>168.0</ele><time>2026-03-29T13:50:52.529Z</time></trkpt><trkpt lat="45.6351504" lon="9.5595408"><ele>168.0</ele><time>2026-03-29T13:50:57.614Z</time></trkpt><trkpt lat="45.6350814" lon="9.5595323"><ele>168.0</ele><time>2026-03-29T13:51:03.602Z</time></trkpt><trkpt lat="45.6350168" lon="9.5594958"><ele>168.0</ele><time>2026-03-29T13:51:14.602Z</time></trkpt><trkpt lat="45.6349571" lon="9.5594429"><ele>168.2</ele><time>2026-03-29T13:51:18.63Z</time></trkpt><trkpt lat="45.6349005" lon="9.5593743"><ele>168.4</ele><time>2026-03-29T13:51:22.548Z</time></trkpt><trkpt lat="45.634836" lon="9.5593013"><ele>168.6</ele><time>2026-03-29T13:51:26.602Z</time></trkpt><trkpt lat="45.6347023" lon="9.5591508"><ele>168.79999999999998</ele><time>2026-03-29T13:51:30.602Z</time></trkpt><trkpt lat="45.6346393" lon="9.5590874"><ele>169.0</ele><time>2026-03-29T13:51:32.601Z</time></trkpt><trkpt lat="45.6345824" lon="9.5590437"><ele>169.0</ele><time>2026-03-29T13:51:33.602Z</time></trkpt><trkpt lat="45.6345062" lon="9.5590227"><ele>169.0</ele><time>2026-03-29T13:51:34.602Z</time></trkpt><trkpt lat="45.6344358" lon="9.5590024"><ele>169.0</ele><time>2026-03-29T13:51:35.602Z</time></trkpt><trkpt lat="45.634376" lon="9.5589726"><ele>169.0</ele><time>2026-03-29T13:51:36.602Z</time></trkpt><trkpt lat="45.6339061" lon="9.5587531"><ele>169.2</ele><time>2026-03-29T13:51:37.602Z</time></trkpt><trkpt lat="45.6338053" lon="9.5587078"><ele>169.39999999999998</ele><time>2026-03-29T13:51:39.602Z</time></trkpt><trkpt lat="45.6337269" lon="9.5586771"><ele>169.6</ele><time>2026-03-29T13:51:41.602Z</time></trkpt><trkpt lat="45.6336235" lon="9.5586503"><ele>169.8</ele><time>2026-03-29T13:51:43.602Z</time></trkpt><trkpt lat="45.6335214" lon="9.5586281"><ele>170.0</ele><time>2026-03-29T13:51:45.602Z</time></trkpt><trkpt lat="45.6334253" lon="9.5585914"><ele>169.6</ele><time>2026-03-29T13:51:47.602Z</time></trkpt><trkpt lat="45.6333281" lon="9.5585321"><ele>169.2</ele><time>2026-03-29T13:51:49.602Z</time></trkpt><trkpt lat="45.6332265" lon="9.5585066"><ele>168.8</ele><time>2026-03-29T13:51:51.602Z</time></trkpt><trkpt lat="45.6331166" lon="9.558488"><ele>168.4</ele><time>2026-03-29T13:51:53.602Z</time></trkpt><trkpt lat="45.6329947" lon="9.5584526"><ele>168.0</ele><time>2026-03-29T13:51:55.601Z</time></trkpt><trkpt lat="45.6328923" lon="9.558406"><ele>168.0</ele><time>2026-03-29T13:51:57.602Z</time></trkpt><trkpt lat="45.6327928" lon="9.5583665"><ele>168.0</ele><time>2026-03-29T13:51:59.602Z</time></trkpt><trkpt lat="45.6326961" lon="9.5583547"><ele>168.0</ele><time>2026-03-29T13:52:01.602Z</time></trkpt><trkpt lat="45.6326186" lon="9.5583363"><ele>168.0</ele><time>2026-03-29T13:52:03.602Z</time></trkpt><trkpt lat="45.6325105" lon="9.5583318"><ele>168.0</ele><time>2026-03-29T13:52:05.602Z</time></trkpt><trkpt lat="45.6323972" lon="9.5583086"><ele>168.0</ele><time>2026-03-29T13:52:07.602Z</time></trkpt><trkpt lat="45.6322937" lon="9.5582298"><ele>168.0</ele><time>2026-03-29T13:52:09.602Z</time></trkpt><trkpt lat="45.6322231" lon="9.5581594"><ele>168.0</ele><time>2026-03-29T13:52:11.601Z</time></trkpt><trkpt lat="45.6321824" lon="9.5580892"><ele>168.0</ele><time>2026-03-29T13:52:13.602Z</time></trkpt><trkpt lat="45.6321613" lon="9.5579961"><ele>168.0</ele><time>2026-03-29T13:52:18.601Z</time></trkpt><trkpt lat="45.6320893" lon="9.5579988"><ele>168.0</ele><time>2026-03-29T13:52:23.602Z</time></trkpt><trkpt lat="45.6320226" lon="9.5580209"><ele>168.5</ele><time>2026-03-29T13:52:27.602Z</time></trkpt><trkpt lat="45.6319264" lon="9.5580147"><ele>169.0</ele><time>2026-03-29T13:52:30.602Z</time></trkpt><trkpt lat="45.6318602" lon="9.5580063"><ele>169.5</ele><time>2026-03-29T13:52:32.602Z</time></trkpt><trkpt lat="45.6317962" lon="9.5579973"><ele>170.0</ele><time>2026-03-29T13:52:34.602Z</time></trkpt><trkpt lat="45.6317024" lon="9.5579873"><ele>170.5</ele><time>2026-03-29T13:52:37.602Z</time></trkpt><trkpt lat="45.6316231" lon="9.5579587"><ele>171.0</ele><time>2026-03-29T13:52:39.602Z</time></trkpt><trkpt lat="45.6315615" lon="9.5579228"><ele>171.0</ele><time>2026-03-29T13:52:41.602Z</time></trkpt><trkpt lat="45.6314746" lon="9.557924"><ele>171.0</ele><time>2026-03-29T13:52:44.602Z</time></trkpt><trkpt lat="45.6313992" lon="9.5579423"><ele>171.0</ele><time>2026-03-29T13:52:47.601Z</time></trkpt><trkpt lat="45.6313207" lon="9.5579568"><ele>171.0</ele><time>2026-03-29T13:52:50.602Z</time></trkpt><trkpt lat="45.6312482" lon="9.5580106"><ele>171.0</ele><time>2026-03-29T13:52:53.602Z</time></trkpt><trkpt lat="45.6311708" lon="9.5580783"><ele>171.0</ele><time>2026-03-29T13:52:56.602Z</time></trkpt><trkpt lat="45.6310885" lon="9.5581626"><ele>170.60000000000002</ele><time>2026-03-29T13:52:59.602Z</time></trkpt><trkpt lat="45.6309626" lon="9.5582617"><ele>170.2</ele><time>2026-03-29T13:53:00.602Z</time></trkpt><trkpt lat="45.6308992" lon="9.5583334"><ele>169.8</ele><time>2026-03-29T13:53:02.602Z</time></trkpt><trkpt lat="45.6308281" lon="9.5583898"><ele>169.39999999999998</ele><time>2026-03-29T13:53:04.601Z</time></trkpt><trkpt lat="45.6307598" lon="9.5584547"><ele>169.0</ele><time>2026-03-29T13:53:06.602Z</time></trkpt><trkpt lat="45.6306424" lon="9.5585354"><ele>169.0</ele><time>2026-03-29T13:53:09.602Z</time></trkpt><trkpt lat="45.6305348" lon="9.5586331"><ele>169.0</ele><time>2026-03-29T13:53:11.602Z</time></trkpt><trkpt lat="45.6304531" lon="9.5586942"><ele>169.0</ele><time>2026-03-29T13:53:13.601Z</time></trkpt><trkpt lat="45.6303632" lon="9.5587511"><ele>169.0</ele><time>2026-03-29T13:53:15.602Z</time></trkpt><trkpt lat="45.6302733" lon="9.5588133"><ele>169.0</ele><time>2026-03-29T13:53:17.602Z</time></trkpt><trkpt lat="45.6301599" lon="9.5588818"><ele>168.79999999999998</ele><time>2026-03-29T13:53:19.602Z</time></trkpt><trkpt lat="45.6300571" lon="9.5589186"><ele>168.6</ele><time>2026-03-29T13:53:21.602Z</time></trkpt><trkpt lat="45.6299575" lon="9.5589592"><ele>168.4</ele><time>2026-03-29T13:53:23.602Z</time></trkpt><trkpt lat="45.6298472" lon="9.5589974"><ele>168.2</ele><time>2026-03-29T13:53:25.602Z</time></trkpt><trkpt lat="45.6297607" lon="9.5589933"><ele>168.0</ele><time>2026-03-29T13:53:27.602Z</time></trkpt><trkpt lat="45.6296959" lon="9.5590084"><ele>168.0</ele><time>2026-03-29T13:53:28.602Z</time></trkpt><trkpt lat="45.6295839" lon="9.5590344"><ele>168.0</ele><time>2026-03-29T13:53:30.602Z</time></trkpt><trkpt lat="45.6294798" lon="9.5590085"><ele>168.0</ele><time>2026-03-29T13:53:32.602Z</time></trkpt><trkpt lat="45.6293596" lon="9.5590211"><ele>168.0</ele><time>2026-03-29T13:53:34.601Z</time></trkpt><trkpt lat="45.6292241" lon="9.5590233"><ele>168.33333333333334</ele><time>2026-03-29T13:53:36.602Z</time></trkpt><trkpt lat="45.6291535" lon="9.5590252"><ele>168.66666666666666</ele><time>2026-03-29T13:53:37.602Z</time></trkpt><trkpt lat="45.6290833" lon="9.5590023"><ele>169.0</ele><time>2026-03-29T13:53:38.601Z</time></trkpt><trkpt lat="45.6289714" lon="9.5589708"><ele>169.33333333333331</ele><time>2026-03-29T13:53:40.601Z</time></trkpt><trkpt lat="45.6288592" lon="9.5589619"><ele>169.66666666666666</ele><time>2026-03-29T13:53:42.602Z</time></trkpt><trkpt lat="45.6287938" lon="9.5589667"><ele>170.0</ele><time>2026-03-29T13:53:43.602Z</time></trkpt><trkpt lat="45.6286741" lon="9.558959"><ele>170.4</ele><time>2026-03-29T13:53:45.602Z</time></trkpt><trkpt lat="45.6285587" lon="9.5589361"><ele>170.8</ele><time>2026-03-29T13:53:47.602Z</time></trkpt><trkpt lat="45.6284949" lon="9.5589233"><ele>171.2</ele><time>2026-03-29T13:53:48.602Z</time></trkpt><trkpt lat="45.6283936" lon="9.558888"><ele>171.6</ele><time>2026-03-29T13:53:50.602Z</time></trkpt><trkpt lat="45.6282941" lon="9.5588704"><ele>172.0</ele><time>2026-03-29T13:53:52.602Z</time></trkpt><trkpt lat="45.6282082" lon="9.5588685"><ele>172.0</ele><time>2026-03-29T13:53:54.602Z</time></trkpt><trkpt lat="45.6281243" lon="9.55893"><ele>172.0</ele><time>2026-03-29T13:53:56.601Z</time></trkpt><trkpt lat="45.6280401" lon="9.5589963"><ele>172.0</ele><time>2026-03-29T13:53:58.601Z</time></trkpt><trkpt lat="45.6279682" lon="9.5590717"><ele>172.0</ele><time>2026-03-29T13:54:00.602Z</time></trkpt><trkpt lat="45.6278784" lon="9.5591487"><ele>172.0</ele><time>2026-03-29T13:54:02.602Z</time></trkpt><trkpt lat="45.6277894" lon="9.5591954"><ele>171.6</ele><time>2026-03-29T13:54:04.602Z</time></trkpt><trkpt lat="45.627703" lon="9.5592156"><ele>171.2</ele><time>2026-03-29T13:54:06.602Z</time></trkpt><trkpt lat="45.6276043" lon="9.5592096"><ele>170.8</ele><time>2026-03-29T13:54:08.601Z</time></trkpt><trkpt lat="45.6274956" lon="9.5591945"><ele>170.4</ele><time>2026-03-29T13:54:10.602Z</time></trkpt><trkpt lat="45.6273867" lon="9.5591806"><ele>170.0</ele><time>2026-03-29T13:54:12.601Z</time></trkpt><trkpt lat="45.6272744" lon="9.5591756"><ele>170.0</ele><time>2026-03-29T13:54:14.602Z</time></trkpt><trkpt lat="45.6271614" lon="9.5591718"><ele>170.0</ele><time>2026-03-29T13:54:16.602Z</time></trkpt><trkpt lat="45.6270644" lon="9.5591858"><ele>170.0</ele><time>2026-03-29T13:54:18.602Z</time></trkpt><trkpt lat="45.626962" lon="9.5591863"><ele>170.0</ele><time>2026-03-29T13:54:20.601Z</time></trkpt><trkpt lat="45.6268725" lon="9.5591995"><ele>170.0</ele><time>2026-03-29T13:54:22.602Z</time></trkpt><trkpt lat="45.6268079" lon="9.5592074"><ele>171.2</ele><time>2026-03-29T13:54:24.602Z</time></trkpt><trkpt lat="45.6267176" lon="9.5592295"><ele>172.4</ele><time>2026-03-29T13:54:26.602Z</time></trkpt><trkpt lat="45.6266321" lon="9.5592299"><ele>173.60000000000002</ele><time>2026-03-29T13:54:29.602Z</time></trkpt><trkpt lat="45.626568" lon="9.5592418"><ele>174.8</ele><time>2026-03-29T13:54:31.602Z</time></trkpt><trkpt lat="45.6264702" lon="9.5592962"><ele>176.0</ele><time>2026-03-29T13:54:33.602Z</time></trkpt><trkpt lat="45.6263646" lon="9.5593471"><ele>176.0</ele><time>2026-03-29T13:54:35.602Z</time></trkpt><trkpt lat="45.6262715" lon="9.559396"><ele>176.0</ele><time>2026-03-29T13:54:37.602Z</time></trkpt><trkpt lat="45.6262049" lon="9.5594163"><ele>176.0</ele><time>2026-03-29T13:54:38.602Z</time></trkpt><trkpt lat="45.6260908" lon="9.5594167"><ele>176.0</ele><time>2026-03-29T13:54:40.602Z</time></trkpt><trkpt lat="45.6260146" lon="9.5594223"><ele>176.0</ele><time>2026-03-29T13:54:41.602Z</time></trkpt><trkpt lat="45.6259019" lon="9.5594037"><ele>176.0</ele><time>2026-03-29T13:54:43.602Z</time></trkpt><trkpt lat="45.6257943" lon="9.5594469"><ele>176.0</ele><time>2026-03-29T13:54:45.602Z</time></trkpt><trkpt lat="45.6257124" lon="9.5594777"><ele>176.0</ele><time>2026-03-29T13:54:47.602Z</time></trkpt><trkpt lat="45.6256093" lon="9.5594929"><ele>176.0</ele><time>2026-03-29T13:54:49.601Z</time></trkpt><trkpt lat="45.625541" lon="9.5594956"><ele>176.0</ele><time>2026-03-29T13:54:50.602Z</time></trkpt><trkpt lat="45.625434" lon="9.5594687"><ele>176.0</ele><time>2026-03-29T13:54:52.602Z</time></trkpt><trkpt lat="45.6253374" lon="9.5594918"><ele>176.0</ele><time>2026-03-29T13:54:54.602Z</time></trkpt><trkpt lat="45.6252422" lon="9.5595208"><ele>176.0</ele><time>2026-03-29T13:54:56.602Z</time></trkpt><trkpt lat="45.6251258" lon="9.5595282"><ele>176.0</ele><time>2026-03-29T13:54:58.602Z</time></trkpt><trkpt lat="45.6250592" lon="9.5595404"><ele>176.0</ele><time>2026-03-29T13:54:59.602Z</time></trkpt><trkpt lat="45.6249598" lon="9.5595456"><ele>174.60000000000002</ele><time>2026-03-29T13:55:01.602Z</time></trkpt><trkpt lat="45.6248561" lon="9.5595737"><ele>173.2</ele><time>2026-03-29T13:55:03.602Z</time></trkpt><trkpt lat="45.6247755" lon="9.5595778"><ele>171.8</ele><time>2026-03-29T13:55:05.602Z</time></trkpt><trkpt lat="45.6246875" lon="9.5595982"><ele>170.39999999999998</ele><time>2026-03-29T13:55:06.602Z</time></trkpt><trkpt lat="45.6245557" lon="9.5596325"><ele>169.0</ele><time>2026-03-29T13:55:08.602Z</time></trkpt><trkpt lat="45.6244867" lon="9.5596447"><ele>169.2</ele><time>2026-03-29T13:55:09.602Z</time></trkpt><trkpt lat="45.6244104" lon="9.5596716"><ele>169.39999999999998</ele><time>2026-03-29T13:55:10.602Z</time></trkpt><trkpt lat="45.6242994" lon="9.5596819"><ele>169.6</ele><time>2026-03-29T13:55:12.602Z</time></trkpt><trkpt lat="45.6241886" lon="9.559696"><ele>169.8</ele><time>2026-03-29T13:55:14.602Z</time></trkpt><trkpt lat="45.6241155" lon="9.5597172"><ele>170.0</ele><time>2026-03-29T13:55:15.602Z</time></trkpt><trkpt lat="45.6239899" lon="9.5597218"><ele>170.0</ele><time>2026-03-29T13:55:17.602Z</time></trkpt><trkpt lat="45.6238721" lon="9.5597221"><ele>170.0</ele><time>2026-03-29T13:55:19.602Z</time></trkpt><trkpt lat="45.6238031" lon="9.5597089"><ele>170.0</ele><time>2026-03-29T13:55:20.601Z</time></trkpt><trkpt lat="45.6237209" lon="9.5597108"><ele>170.0</ele><time>2026-03-29T13:55:21.602Z</time></trkpt><trkpt lat="45.623653" lon="9.559701"><ele>170.0</ele><time>2026-03-29T13:55:22.602Z</time></trkpt><trkpt lat="45.6235894" lon="9.5597059"><ele>170.0</ele><time>2026-03-29T13:55:23.602Z</time></trkpt><trkpt lat="45.6235231" lon="9.5597089"><ele>170.0</ele><time>2026-03-29T13:55:24.602Z</time></trkpt><trkpt lat="45.6234595" lon="9.5597143"><ele>170.0</ele><time>2026-03-29T13:55:25.601Z</time></trkpt><trkpt lat="45.6233693" lon="9.5596783"><ele>170.0</ele><time>2026-03-29T13:55:27.602Z</time></trkpt><trkpt lat="45.6233172" lon="9.5595602"><ele>170.0</ele><time>2026-03-29T13:55:29.602Z</time></trkpt><trkpt lat="45.6233052" lon="9.5594375"><ele>170.0</ele><time>2026-03-29T13:55:31.601Z</time></trkpt><trkpt lat="45.623291" lon="9.5593219"><ele>170.0</ele><time>2026-03-29T13:55:33.602Z</time></trkpt><trkpt lat="45.6232826" lon="9.5592035"><ele>171.2</ele><time>2026-03-29T13:55:35.602Z</time></trkpt><trkpt lat="45.6232803" lon="9.5590928"><ele>172.4</ele><time>2026-03-29T13:55:37.602Z</time></trkpt><trkpt lat="45.6232794" lon="9.558955"><ele>173.60000000000002</ele><time>2026-03-29T13:55:39.601Z</time></trkpt><trkpt lat="45.6232822" lon="9.5588081"><ele>174.8</ele><time>2026-03-29T13:55:41.602Z</time></trkpt><trkpt lat="45.6232843" lon="9.5586656"><ele>176.0</ele><time>2026-03-29T13:55:43.602Z</time></trkpt><trkpt lat="45.6232818" lon="9.5585276"><ele>176.60000000000002</ele><time>2026-03-29T13:55:45.602Z</time></trkpt><trkpt lat="45.6232782" lon="9.5583994"><ele>177.2</ele><time>2026-03-29T13:55:47.602Z</time></trkpt><trkpt lat="45.6232781" lon="9.5582698"><ele>177.8</ele><time>2026-03-29T13:55:49.602Z</time></trkpt><trkpt lat="45.6232786" lon="9.5581327"><ele>178.39999999999998</ele><time>2026-03-29T13:55:51.602Z</time></trkpt><trkpt lat="45.6232759" lon="9.5579839"><ele>179.0</ele><time>2026-03-29T13:55:53.602Z</time></trkpt><trkpt lat="45.6232708" lon="9.5578319"><ele>179.39999999999998</ele><time>2026-03-29T13:55:55.602Z</time></trkpt><trkpt lat="45.6232644" lon="9.557679"><ele>179.8</ele><time>2026-03-29T13:55:57.602Z</time></trkpt><trkpt lat="45.6232642" lon="9.5575375"><ele>180.2</ele><time>2026-03-29T13:55:59.602Z</time></trkpt><trkpt lat="45.6232717" lon="9.5573933"><ele>180.60000000000002</ele><time>2026-03-29T13:56:01.602Z</time></trkpt><trkpt lat="45.6232827" lon="9.5572506"><ele>181.0</ele><time>2026-03-29T13:56:03.602Z</time></trkpt><trkpt lat="45.6233306" lon="9.5571488"><ele>181.0</ele><time>2026-03-29T13:56:07.602Z</time></trkpt><trkpt lat="45.6233372" lon="9.5570589"><ele>181.0</ele><time>2026-03-29T13:56:10.602Z</time></trkpt><trkpt lat="45.6232498" lon="9.5569963"><ele>181.0</ele><time>2026-03-29T13:56:13.602Z</time></trkpt><trkpt lat="45.6231688" lon="9.5569253"><ele>181.0</ele><time>2026-03-29T13:56:15.602Z</time></trkpt><trkpt lat="45.6230805" lon="9.556919"><ele>181.0</ele><time>2026-03-29T13:56:17.601Z</time></trkpt><trkpt lat="45.6229799" lon="9.5568684"><ele>181.0</ele><time>2026-03-29T13:56:19.602Z</time></trkpt><trkpt lat="45.622934" lon="9.5567269"><ele>181.0</ele><time>2026-03-29T13:56:21.601Z</time></trkpt><trkpt lat="45.622955" lon="9.5565833"><ele>181.0</ele><time>2026-03-29T13:56:23.602Z</time></trkpt><trkpt lat="45.6230061" lon="9.556474"><ele>181.0</ele><time>2026-03-29T13:56:25.601Z</time></trkpt><trkpt lat="45.6230611" lon="9.5563563"><ele>181.0</ele><time>2026-03-29T13:56:27.602Z</time></trkpt><trkpt lat="45.6230937" lon="9.5562713"><ele>181.8</ele><time>2026-03-29T13:56:28.602Z</time></trkpt><trkpt lat="45.6231462" lon="9.5561583"><ele>182.60000000000002</ele><time>2026-03-29T13:56:30.602Z</time></trkpt><trkpt lat="45.6232045" lon="9.5560361"><ele>183.4</ele><time>2026-03-29T13:56:32.602Z</time></trkpt><trkpt lat="45.6232619" lon="9.5559159"><ele>184.2</ele><time>2026-03-29T13:56:34.602Z</time></trkpt><trkpt lat="45.6233126" lon="9.5557834"><ele>185.0</ele><time>2026-03-29T13:56:36.602Z</time></trkpt><trkpt lat="45.623351" lon="9.5556638"><ele>185.0</ele><time>2026-03-29T13:56:38.602Z</time></trkpt><trkpt lat="45.6233938" lon="9.5555282"><ele>185.0</ele><time>2026-03-29T13:56:40.601Z</time></trkpt><trkpt lat="45.6234386" lon="9.5553991"><ele>185.0</ele><time>2026-03-29T13:56:42.602Z</time></trkpt><trkpt lat="45.6234808" lon="9.5552697"><ele>185.0</ele><time>2026-03-29T13:56:44.601Z</time></trkpt><trkpt lat="45.623515" lon="9.5551416"><ele>185.0</ele><time>2026-03-29T13:56:46.602Z</time></trkpt><trkpt lat="45.6235536" lon="9.5550064"><ele>185.25</ele><time>2026-03-29T13:56:48.602Z</time></trkpt><trkpt lat="45.6235971" lon="9.5548521"><ele>185.5</ele><time>2026-03-29T13:56:50.602Z</time></trkpt><trkpt lat="45.6236478" lon="9.554698"><ele>185.75</ele><time>2026-03-29T13:56:52.602Z</time></trkpt><trkpt lat="45.6236879" lon="9.5545469"><ele>186.0</ele><time>2026-03-29T13:56:54.602Z</time></trkpt><trkpt lat="45.6237393" lon="9.554385"><ele>185.60000000000002</ele><time>2026-03-29T13:56:56.602Z</time></trkpt><trkpt lat="45.6237629" lon="9.5542996"><ele>185.2</ele><time>2026-03-29T13:56:57.602Z</time></trkpt><trkpt lat="45.6238057" lon="9.5541515"><ele>184.8</ele><time>2026-03-29T13:56:59.602Z</time></trkpt><trkpt lat="45.623849" lon="9.5540066"><ele>184.39999999999998</ele><time>2026-03-29T13:57:01.602Z</time></trkpt><trkpt lat="45.623872" lon="9.5539168"><ele>184.0</ele><time>2026-03-29T13:57:02.602Z</time></trkpt><trkpt lat="45.6239229" lon="9.5537571"><ele>183.83333333333334</ele><time>2026-03-29T13:57:04.602Z</time></trkpt><trkpt lat="45.6239688" lon="9.5536032"><ele>183.66666666666669</ele><time>2026-03-29T13:57:06.602Z</time></trkpt><trkpt lat="45.6239946" lon="9.5535177"><ele>183.5</ele><time>2026-03-29T13:57:07.602Z</time></trkpt><trkpt lat="45.6240209" lon="9.5534359"><ele>183.33333333333334</ele><time>2026-03-29T13:57:08.601Z</time></trkpt><trkpt lat="45.6240706" lon="9.5532709"><ele>183.16666666666666</ele><time>2026-03-29T13:57:10.601Z</time></trkpt><trkpt lat="45.6241084" lon="9.5531857"><ele>183.0</ele><time>2026-03-29T13:57:11.602Z</time></trkpt><trkpt lat="45.6241392" lon="9.5531059"><ele>183.0</ele><time>2026-03-29T13:57:12.602Z</time></trkpt><trkpt lat="45.6241691" lon="9.5530199"><ele>183.0</ele><time>2026-03-29T13:57:13.602Z</time></trkpt><trkpt lat="45.6242076" lon="9.5529453"><ele>183.0</ele><time>2026-03-29T13:57:14.602Z</time></trkpt><trkpt lat="45.6243063" lon="9.5528257"><ele>183.0</ele><time>2026-03-29T13:57:16.602Z</time></trkpt><trkpt lat="45.6244126" lon="9.5527538"><ele>183.0</ele><time>2026-03-29T13:57:18.602Z</time></trkpt><trkpt lat="45.6244693" lon="9.5527058"><ele>183.0</ele><time>2026-03-29T13:57:19.602Z</time></trkpt><trkpt lat="45.624554" lon="9.5525896"><ele>183.25</ele><time>2026-03-29T13:57:21.602Z</time></trkpt><trkpt lat="45.6245897" lon="9.5524423"><ele>183.5</ele><time>2026-03-29T13:57:23.602Z</time></trkpt><trkpt lat="45.6245498" lon="9.5522904"><ele>183.75</ele><time>2026-03-29T13:57:25.602Z</time></trkpt><trkpt lat="45.6244862" lon="9.5521468"><ele>184.0</ele><time>2026-03-29T13:57:27.602Z</time></trkpt><trkpt lat="45.6244369" lon="9.5519848"><ele>184.0</ele><time>2026-03-29T13:57:29.602Z</time></trkpt><trkpt lat="45.6244188" lon="9.5518961"><ele>184.0</ele><time>2026-03-29T13:57:30.601Z</time></trkpt><trkpt lat="45.6243964" lon="9.5517257"><ele>184.0</ele><time>2026-03-29T13:57:32.602Z</time></trkpt><trkpt lat="45.6243897" lon="9.5515631"><ele>184.0</ele><time>2026-03-29T13:57:34.602Z</time></trkpt><trkpt lat="45.6243925" lon="9.5513883"><ele>184.0</ele><time>2026-03-29T13:57:36.602Z</time></trkpt><trkpt lat="45.6243893" lon="9.5512048"><ele>183.79999999999998</ele><time>2026-03-29T13:57:38.602Z</time></trkpt><trkpt lat="45.6243875" lon="9.5511124"><ele>183.6</ele><time>2026-03-29T13:57:39.602Z</time></trkpt><trkpt lat="45.6243904" lon="9.5509367"><ele>183.4</ele><time>2026-03-29T13:57:41.602Z</time></trkpt><trkpt lat="45.6243971" lon="9.5508291"><ele>183.2</ele><time>2026-03-29T13:57:42.602Z</time></trkpt><trkpt lat="45.6243903" lon="9.5506455"><ele>183.0</ele><time>2026-03-29T13:57:44.602Z</time></trkpt><trkpt lat="45.6243893" lon="9.5505523"><ele>183.0</ele><time>2026-03-29T13:57:45.602Z</time></trkpt><trkpt lat="45.6243899" lon="9.5503752"><ele>183.0</ele><time>2026-03-29T13:57:47.602Z</time></trkpt><trkpt lat="45.6243908" lon="9.550277"><ele>183.0</ele><time>2026-03-29T13:57:48.602Z</time></trkpt><trkpt lat="45.6243913" lon="9.5501749"><ele>183.0</ele><time>2026-03-29T13:57:49.602Z</time></trkpt><trkpt lat="45.6243891" lon="9.55008"><ele>183.0</ele><time>2026-03-29T13:57:50.602Z</time></trkpt><trkpt lat="45.624388" lon="9.5499834"><ele>183.0</ele><time>2026-03-29T13:57:51.602Z</time></trkpt><trkpt lat="45.6243853" lon="9.5498023"><ele>183.0</ele><time>2026-03-29T13:57:53.602Z</time></trkpt><trkpt lat="45.6243827" lon="9.5496278"><ele>183.0</ele><time>2026-03-29T13:57:55.602Z</time></trkpt><trkpt lat="45.6243802" lon="9.5495275"><ele>183.0</ele><time>2026-03-29T13:57:56.602Z</time></trkpt><trkpt lat="45.6243754" lon="9.5494287"><ele>183.0</ele><time>2026-03-29T13:57:57.602Z</time></trkpt><trkpt lat="45.6243775" lon="9.5493337"><ele>183.0</ele><time>2026-03-29T13:57:58.602Z</time></trkpt><trkpt lat="45.6243782" lon="9.5492284"><ele>183.0</ele><time>2026-03-29T13:57:59.602Z</time></trkpt><trkpt lat="45.6243903" lon="9.5491362"><ele>182.60000000000002</ele><time>2026-03-29T13:58:00.602Z</time></trkpt><trkpt lat="45.6244238" lon="9.5489535"><ele>182.20000000000002</ele><time>2026-03-29T13:58:02.602Z</time></trkpt><trkpt lat="45.6244382" lon="9.5488576"><ele>181.8</ele><time>2026-03-29T13:58:03.602Z</time></trkpt><trkpt lat="45.62442" lon="9.5486955"><ele>181.4</ele><time>2026-03-29T13:58:05.602Z</time></trkpt><trkpt lat="45.6243366" lon="9.5485797"><ele>181.0</ele><time>2026-03-29T13:58:07.601Z</time></trkpt><trkpt lat="45.6242221" lon="9.5485774"><ele>181.0</ele><time>2026-03-29T13:58:09.601Z</time></trkpt><trkpt lat="45.6241641" lon="9.5486135"><ele>181.0</ele><time>2026-03-29T13:58:10.602Z</time></trkpt><trkpt lat="45.6240556" lon="9.5487032"><ele>181.0</ele><time>2026-03-29T13:58:12.602Z</time></trkpt><trkpt lat="45.6239332" lon="9.548762"><ele>181.0</ele><time>2026-03-29T13:58:14.602Z</time></trkpt><trkpt lat="45.6238682" lon="9.5487588"><ele>181.0</ele><time>2026-03-29T13:58:15.602Z</time></trkpt><trkpt lat="45.6238002" lon="9.5487672"><ele>181.0</ele><time>2026-03-29T13:58:16.602Z</time></trkpt><trkpt lat="45.6237355" lon="9.5487645"><ele>181.0</ele><time>2026-03-29T13:58:17.602Z</time></trkpt><trkpt lat="45.6236695" lon="9.5487703"><ele>181.0</ele><time>2026-03-29T13:58:18.602Z</time></trkpt><trkpt lat="45.6236024" lon="9.5487769"><ele>181.0</ele><time>2026-03-29T13:58:19.602Z</time></trkpt><trkpt lat="45.6235373" lon="9.5487855"><ele>181.0</ele><time>2026-03-29T13:58:20.602Z</time></trkpt><trkpt lat="45.6234723" lon="9.5487913"><ele>181.0</ele><time>2026-03-29T13:58:21.602Z</time></trkpt><trkpt lat="45.6234045" lon="9.5487911"><ele>181.0</ele><time>2026-03-29T13:58:22.602Z</time></trkpt><trkpt lat="45.6233375" lon="9.5487922"><ele>181.16666666666669</ele><time>2026-03-29T13:58:23.602Z</time></trkpt><trkpt lat="45.6232098" lon="9.5488033"><ele>181.33333333333334</ele><time>2026-03-29T13:58:25.602Z</time></trkpt><trkpt lat="45.6231451" lon="9.5488046"><ele>181.5</ele><time>2026-03-29T13:58:26.602Z</time></trkpt><trkpt lat="45.6230787" lon="9.5488083"><ele>181.66666666666666</ele><time>2026-03-29T13:58:27.602Z</time></trkpt><trkpt lat="45.6230113" lon="9.5488132"><ele>181.83333333333331</ele><time>2026-03-29T13:58:28.602Z</time></trkpt><trkpt lat="45.6229424" lon="9.5488178"><ele>182.0</ele><time>2026-03-29T13:58:29.602Z</time></trkpt><trkpt lat="45.6228717" lon="9.5488166"><ele>182.14285714285714</ele><time>2026-03-29T13:58:30.602Z</time></trkpt><trkpt lat="45.6228007" lon="9.548818"><ele>182.28571428571428</ele><time>2026-03-29T13:58:31.601Z</time></trkpt><trkpt lat="45.622733" lon="9.5488282"><ele>182.42857142857144</ele><time>2026-03-29T13:58:32.602Z</time></trkpt><trkpt lat="45.6226649" lon="9.5488299"><ele>182.57142857142856</ele><time>2026-03-29T13:58:33.602Z</time></trkpt><trkpt lat="45.6225956" lon="9.54883"><ele>182.71428571428572</ele><time>2026-03-29T13:58:34.602Z</time></trkpt><trkpt lat="45.6225297" lon="9.5488288"><ele>182.85714285714286</ele><time>2026-03-29T13:58:35.602Z</time></trkpt><trkpt lat="45.6224532" lon="9.548826"><ele>183.0</ele><time>2026-03-29T13:58:36.602Z</time></trkpt><trkpt lat="45.6223905" lon="9.5488348"><ele>183.0</ele><time>2026-03-29T13:58:37.602Z</time></trkpt><trkpt lat="45.622323" lon="9.5488349"><ele>183.0</ele><time>2026-03-29T13:58:38.602Z</time></trkpt><trkpt lat="45.6222478" lon="9.5488366"><ele>183.0</ele><time>2026-03-29T13:58:39.602Z</time></trkpt><trkpt lat="45.6221796" lon="9.5488418"><ele>183.0</ele><time>2026-03-29T13:58:40.602Z</time></trkpt><trkpt lat="45.6221124" lon="9.548851"><ele>183.0</ele><time>2026-03-29T13:58:41.602Z</time></trkpt><trkpt lat="45.6220414" lon="9.5488589"><ele>183.0</ele><time>2026-03-29T13:58:42.602Z</time></trkpt><trkpt lat="45.6219763" lon="9.5488674"><ele>183.0</ele><time>2026-03-29T13:58:43.602Z</time></trkpt><trkpt lat="45.6219058" lon="9.5488652"><ele>183.0</ele><time>2026-03-29T13:58:44.602Z</time></trkpt><trkpt lat="45.6218333" lon="9.5488656"><ele>183.0</ele><time>2026-03-29T13:58:45.602Z</time></trkpt><trkpt lat="45.6217629" lon="9.5488641"><ele>183.0</ele><time>2026-03-29T13:58:46.602Z</time></trkpt><trkpt lat="45.6216926" lon="9.5488646"><ele>183.0</ele><time>2026-03-29T13:58:47.602Z</time></trkpt><trkpt lat="45.6216205" lon="9.5488628"><ele>183.0</ele><time>2026-03-29T13:58:48.602Z</time></trkpt><trkpt lat="45.6215478" lon="9.5488548"><ele>183.0</ele><time>2026-03-29T13:58:49.602Z</time></trkpt><trkpt lat="45.6214793" lon="9.5488577"><ele>183.0</ele><time>2026-03-29T13:58:50.602Z</time></trkpt><trkpt lat="45.6214123" lon="9.5488567"><ele>183.0</ele><time>2026-03-29T13:58:51.601Z</time></trkpt><trkpt lat="45.6213396" lon="9.5488658"><ele>183.0</ele><time>2026-03-29T13:58:52.602Z</time></trkpt><trkpt lat="45.621269" lon="9.5488663"><ele>183.0</ele><time>2026-03-29T13:58:53.601Z</time></trkpt><trkpt lat="45.6212035" lon="9.5488755"><ele>183.0</ele><time>2026-03-29T13:58:54.602Z</time></trkpt><trkpt lat="45.6211291" lon="9.548879"><ele>183.0</ele><time>2026-03-29T13:58:55.602Z</time></trkpt><trkpt lat="45.6210583" lon="9.548885"><ele>183.0</ele><time>2026-03-29T13:58:56.602Z</time></trkpt><trkpt lat="45.6209875" lon="9.5488888"><ele>183.0</ele><time>2026-03-29T13:58:57.602Z</time></trkpt><trkpt lat="45.6209199" lon="9.5488947"><ele>182.85714285714286</ele><time>2026-03-29T13:58:58.602Z</time></trkpt><trkpt lat="45.6208537" lon="9.5489009"><ele>182.71428571428572</ele><time>2026-03-29T13:58:59.602Z</time></trkpt><trkpt lat="45.620781" lon="9.5489001"><ele>182.57142857142856</ele><time>2026-03-29T13:59:00.602Z</time></trkpt><trkpt lat="45.620708" lon="9.5489073"><ele>182.42857142857144</ele><time>2026-03-29T13:59:01.602Z</time></trkpt><trkpt lat="45.6206325" lon="9.5489065"><ele>182.28571428571428</ele><time>2026-03-29T13:59:02.601Z</time></trkpt><trkpt lat="45.6205633" lon="9.5489131"><ele>182.14285714285714</ele><time>2026-03-29T13:59:03.602Z</time></trkpt><trkpt lat="45.6204944" lon="9.5489129"><ele>182.0</ele><time>2026-03-29T13:59:04.602Z</time></trkpt><trkpt lat="45.6204171" lon="9.5489153"><ele>182.0</ele><time>2026-03-29T13:59:05.601Z</time></trkpt><trkpt lat="45.6203491" lon="9.5489128"><ele>182.0</ele><time>2026-03-29T13:59:06.602Z</time></trkpt><trkpt lat="45.6202737" lon="9.5489141"><ele>182.0</ele><time>2026-03-29T13:59:07.602Z</time></trkpt><trkpt lat="45.6202021" lon="9.5489227"><ele>182.0</ele><time>2026-03-29T13:59:08.602Z</time></trkpt><trkpt lat="45.6201299" lon="9.5489279"><ele>182.0</ele><time>2026-03-29T13:59:09.602Z</time></trkpt><trkpt lat="45.6200576" lon="9.5489327"><ele>182.0</ele><time>2026-03-29T13:59:10.602Z</time></trkpt><trkpt lat="45.6199838" lon="9.5489368"><ele>182.0</ele><time>2026-03-29T13:59:11.602Z</time></trkpt><trkpt lat="45.6199117" lon="9.548938"><ele>181.71428571428572</ele><time>2026-03-29T13:59:12.601Z</time></trkpt><trkpt lat="45.6198389" lon="9.5489438"><ele>181.42857142857144</ele><time>2026-03-29T13:59:13.602Z</time></trkpt><trkpt lat="45.619766" lon="9.5489424"><ele>181.14285714285714</ele><time>2026-03-29T13:59:14.601Z</time></trkpt><trkpt lat="45.619694" lon="9.548947"><ele>180.85714285714286</ele><time>2026-03-29T13:59:15.602Z</time></trkpt><trkpt lat="45.6196203" lon="9.5489545"><ele>180.57142857142858</ele><time>2026-03-29T13:59:16.602Z</time></trkpt><trkpt lat="45.6195452" lon="9.5489617"><ele>180.28571428571428</ele><time>2026-03-29T13:59:17.602Z</time></trkpt><trkpt lat="45.6194728" lon="9.5489666"><ele>180.0</ele><time>2026-03-29T13:59:18.602Z</time></trkpt><trkpt lat="45.6194034" lon="9.5489733"><ele>179.7142857142857</ele><time>2026-03-29T13:59:19.602Z</time></trkpt><trkpt lat="45.6193276" lon="9.548979"><ele>179.42857142857144</ele><time>2026-03-29T13:59:20.602Z</time></trkpt><trkpt lat="45.6192556" lon="9.548986"><ele>179.14285714285714</ele><time>2026-03-29T13:59:21.602Z</time></trkpt><trkpt lat="45.6191791" lon="9.5489837"><ele>178.85714285714283</ele><time>2026-03-29T13:59:22.602Z</time></trkpt><trkpt lat="45.6191132" lon="9.5490025"><ele>178.57142857142856</ele><time>2026-03-29T13:59:23.602Z</time></trkpt><trkpt lat="45.619037" lon="9.5490091"><ele>178.28571428571428</ele><time>2026-03-29T13:59:24.602Z</time></trkpt><trkpt lat="45.6189701" lon="9.5490241"><ele>178.0</ele><time>2026-03-29T13:59:25.602Z</time></trkpt><trkpt lat="45.6189002" lon="9.5490347"><ele>178.0</ele><time>2026-03-29T13:59:26.602Z</time></trkpt><trkpt lat="45.618824" lon="9.5490501"><ele>178.0</ele><time>2026-03-29T13:59:27.601Z</time></trkpt><trkpt lat="45.6187499" lon="9.5490597"><ele>178.0</ele><time>2026-03-29T13:59:28.602Z</time></trkpt><trkpt lat="45.6186725" lon="9.5490649"><ele>178.0</ele><time>2026-03-29T13:59:29.602Z</time></trkpt><trkpt lat="45.6186026" lon="9.5490832"><ele>178.0</ele><time>2026-03-29T13:59:30.602Z</time></trkpt><trkpt lat="45.618525" lon="9.5491004"><ele>178.0</ele><time>2026-03-29T13:59:31.601Z</time></trkpt><trkpt lat="45.6184525" lon="9.5491067"><ele>178.14285714285714</ele><time>2026-03-29T13:59:32.602Z</time></trkpt><trkpt lat="45.6183768" lon="9.5491179"><ele>178.28571428571428</ele><time>2026-03-29T13:59:33.602Z</time></trkpt><trkpt lat="45.6183068" lon="9.5491311"><ele>178.42857142857144</ele><time>2026-03-29T13:59:34.601Z</time></trkpt><trkpt lat="45.6182308" lon="9.549146"><ele>178.57142857142856</ele><time>2026-03-29T13:59:35.602Z</time></trkpt><trkpt lat="45.618155" lon="9.5491581"><ele>178.71428571428572</ele><time>2026-03-29T13:59:36.602Z</time></trkpt><trkpt lat="45.6180818" lon="9.5491675"><ele>178.85714285714286</ele><time>2026-03-29T13:59:37.602Z</time></trkpt><trkpt lat="45.6180096" lon="9.5491791"><ele>179.0</ele><time>2026-03-29T13:59:38.602Z</time></trkpt><trkpt lat="45.6179366" lon="9.5491771"><ele>179.00000000000003</ele><time>2026-03-29T13:59:39.602Z</time></trkpt><trkpt lat="45.617864" lon="9.5491941"><ele>179.0</ele><time>2026-03-29T13:59:40.601Z</time></trkpt><trkpt lat="45.6177913" lon="9.5492038"><ele>179.0</ele><time>2026-03-29T13:59:41.602Z</time></trkpt><trkpt lat="45.6177186" lon="9.5492151"><ele>179.0</ele><time>2026-03-29T13:59:42.602Z</time></trkpt><trkpt lat="45.6176484" lon="9.5492148"><ele>179.0</ele><time>2026-03-29T13:59:43.602Z</time></trkpt><trkpt lat="45.6175753" lon="9.5492242"><ele>179.00000000000003</ele><time>2026-03-29T13:59:44.602Z</time></trkpt><trkpt lat="45.617501" lon="9.5492303"><ele>179.0</ele><time>2026-03-29T13:59:45.602Z</time></trkpt><trkpt lat="45.6174276" lon="9.5492322"><ele>178.85714285714286</ele><time>2026-03-29T13:59:46.602Z</time></trkpt><trkpt lat="45.6173552" lon="9.5492374"><ele>178.71428571428572</ele><time>2026-03-29T13:59:47.602Z</time></trkpt><trkpt lat="45.6172824" lon="9.5492388"><ele>178.57142857142856</ele><time>2026-03-29T13:59:48.602Z</time></trkpt><trkpt lat="45.6172097" lon="9.5492566"><ele>178.42857142857144</ele><time>2026-03-29T13:59:49.602Z</time></trkpt><trkpt lat="45.6171345" lon="9.5492551"><ele>178.28571428571428</ele><time>2026-03-29T13:59:50.602Z</time></trkpt><trkpt lat="45.6170624" lon="9.5492563"><ele>178.14285714285714</ele><time>2026-03-29T13:59:51.601Z</time></trkpt><trkpt lat="45.6169933" lon="9.5492513"><ele>178.0</ele><time>2026-03-29T13:59:52.602Z</time></trkpt><trkpt lat="45.6169244" lon="9.5492412"><ele>177.57142857142856</ele><time>2026-03-29T13:59:53.602Z</time></trkpt><trkpt lat="45.6168531" lon="9.5492346"><ele>177.14285714285714</ele><time>2026-03-29T13:59:54.602Z</time></trkpt><trkpt lat="45.6167824" lon="9.5492193"><ele>176.71428571428572</ele><time>2026-03-29T13:59:55.602Z</time></trkpt><trkpt lat="45.6167107" lon="9.5492145"><ele>176.28571428571428</ele><time>2026-03-29T13:59:56.602Z</time></trkpt><trkpt lat="45.6166379" lon="9.5491875"><ele>175.85714285714286</ele><time>2026-03-29T13:59:57.601Z</time></trkpt><trkpt lat="45.6165687" lon="9.5491766"><ele>175.42857142857142</ele><time>2026-03-29T13:59:58.602Z</time></trkpt><trkpt lat="45.6164995" lon="9.5491622"><ele>175.0</ele><time>2026-03-29T13:59:59.601Z</time></trkpt><trkpt lat="45.616426" lon="9.5491491"><ele>175.0</ele><time>2026-03-29T14:00:00.602Z</time></trkpt><trkpt lat="45.6163548" lon="9.5491266"><ele>175.0</ele><time>2026-03-29T14:00:01.602Z</time></trkpt><trkpt lat="45.6162821" lon="9.5491018"><ele>175.0</ele><time>2026-03-29T14:00:02.602Z</time></trkpt><trkpt lat="45.6162118" lon="9.5490703"><ele>175.0</ele><time>2026-03-29T14:00:03.602Z</time></trkpt><trkpt lat="45.616148" lon="9.5490447"><ele>175.0</ele><time>2026-03-29T14:00:04.602Z</time></trkpt><trkpt lat="45.6160809" lon="9.549012"><ele>175.0</ele><time>2026-03-29T14:00:05.602Z</time></trkpt><trkpt lat="45.616012" lon="9.5489843"><ele>175.0</ele><time>2026-03-29T14:00:06.601Z</time></trkpt><trkpt lat="45.6159461" lon="9.5489489"><ele>175.42857142857142</ele><time>2026-03-29T14:00:07.601Z</time></trkpt><trkpt lat="45.6158768" lon="9.5489171"><ele>175.85714285714286</ele><time>2026-03-29T14:00:08.602Z</time></trkpt><trkpt lat="45.6158121" lon="9.5488724"><ele>176.28571428571428</ele><time>2026-03-29T14:00:09.602Z</time></trkpt><trkpt lat="45.6157537" lon="9.5488323"><ele>176.71428571428572</ele><time>2026-03-29T14:00:10.602Z</time></trkpt><trkpt lat="45.6156942" lon="9.5487962"><ele>177.14285714285714</ele><time>2026-03-29T14:00:11.602Z</time></trkpt><trkpt lat="45.6156335" lon="9.5487556"><ele>177.57142857142856</ele><time>2026-03-29T14:00:12.601Z</time></trkpt><trkpt lat="45.6155736" lon="9.5487105"><ele>178.0</ele><time>2026-03-29T14:00:13.602Z</time></trkpt><trkpt lat="45.6155112" lon="9.5486582"><ele>177.85714285714283</ele><time>2026-03-29T14:00:14.602Z</time></trkpt><trkpt lat="45.615448" lon="9.5486051"><ele>177.71428571428572</ele><time>2026-03-29T14:00:15.602Z</time></trkpt><trkpt lat="45.6153922" lon="9.5485598"><ele>177.57142857142856</ele><time>2026-03-29T14:00:16.602Z</time></trkpt><trkpt lat="45.6153212" lon="9.5485176"><ele>177.42857142857142</ele><time>2026-03-29T14:00:17.602Z</time></trkpt><trkpt lat="45.6152723" lon="9.5484578"><ele>177.28571428571428</ele><time>2026-03-29T14:00:18.601Z</time></trkpt><trkpt lat="45.6152144" lon="9.5484102"><ele>177.14285714285714</ele><time>2026-03-29T14:00:19.602Z</time></trkpt><trkpt lat="45.615156" lon="9.5483546"><ele>177.0</ele><time>2026-03-29T14:00:20.602Z</time></trkpt><trkpt lat="45.6150984" lon="9.5483018"><ele>177.0</ele><time>2026-03-29T14:00:21.601Z</time></trkpt><trkpt lat="45.6149914" lon="9.5481913"><ele>177.0</ele><time>2026-03-29T14:00:23.602Z</time></trkpt><trkpt lat="45.6149443" lon="9.5481203"><ele>177.0</ele><time>2026-03-29T14:00:24.602Z</time></trkpt><trkpt lat="45.6148917" lon="9.5480517"><ele>177.0</ele><time>2026-03-29T14:00:25.602Z</time></trkpt><trkpt lat="45.6148421" lon="9.5479828"><ele>177.0</ele><time>2026-03-29T14:00:26.602Z</time></trkpt><trkpt lat="45.614791" lon="9.5479082"><ele>177.0</ele><time>2026-03-29T14:00:27.602Z</time></trkpt><trkpt lat="45.6147431" lon="9.5478412"><ele>177.14285714285714</ele><time>2026-03-29T14:00:28.602Z</time></trkpt><trkpt lat="45.6146978" lon="9.5477663"><ele>177.28571428571428</ele><time>2026-03-29T14:00:29.602Z</time></trkpt><trkpt lat="45.6146526" lon="9.5476933"><ele>177.42857142857142</ele><time>2026-03-29T14:00:30.602Z</time></trkpt><trkpt lat="45.6146068" lon="9.5476132"><ele>177.57142857142856</ele><time>2026-03-29T14:00:31.602Z</time></trkpt><trkpt lat="45.6145612" lon="9.5475364"><ele>177.71428571428572</ele><time>2026-03-29T14:00:32.602Z</time></trkpt><trkpt lat="45.6145176" lon="9.5474606"><ele>177.85714285714283</ele><time>2026-03-29T14:00:33.602Z</time></trkpt><trkpt lat="45.6144785" lon="9.5473771"><ele>178.0</ele><time>2026-03-29T14:00:34.602Z</time></trkpt><trkpt lat="45.6144397" lon="9.547297"><ele>178.0</ele><time>2026-03-29T14:00:35.602Z</time></trkpt><trkpt lat="45.6143721" lon="9.547146"><ele>178.0</ele><time>2026-03-29T14:00:37.602Z</time></trkpt><trkpt lat="45.6143386" lon="9.5470692"><ele>178.0</ele><time>2026-03-29T14:00:38.602Z</time></trkpt><trkpt lat="45.6143053" lon="9.5469851"><ele>178.0</ele><time>2026-03-29T14:00:39.602Z</time></trkpt><trkpt lat="45.614272" lon="9.5469039"><ele>178.0</ele><time>2026-03-29T14:00:40.602Z</time></trkpt><trkpt lat="45.6142393" lon="9.546819"><ele>178.0</ele><time>2026-03-29T14:00:41.602Z</time></trkpt><trkpt lat="45.6142127" lon="9.5467366"><ele>178.60000000000002</ele><time>2026-03-29T14:00:42.602Z</time></trkpt><trkpt lat="45.614159" lon="9.546578"><ele>179.20000000000002</ele><time>2026-03-29T14:00:44.602Z</time></trkpt><trkpt lat="45.6141087" lon="9.5464233"><ele>179.8</ele><time>2026-03-29T14:00:46.602Z</time></trkpt><trkpt lat="45.614059" lon="9.5462677"><ele>180.4</ele><time>2026-03-29T14:00:48.602Z</time></trkpt><trkpt lat="45.6140389" lon="9.5461823"><ele>181.0</ele><time>2026-03-29T14:00:49.602Z</time></trkpt><trkpt lat="45.6140175" lon="9.5460928"><ele>181.4</ele><time>2026-03-29T14:00:50.602Z</time></trkpt><trkpt lat="45.6140063" lon="9.546004"><ele>181.8</ele><time>2026-03-29T14:00:51.602Z</time></trkpt><trkpt lat="45.6140164" lon="9.5458405"><ele>182.20000000000002</ele><time>2026-03-29T14:00:53.602Z</time></trkpt><trkpt lat="45.6140146" lon="9.5457497"><ele>182.60000000000002</ele><time>2026-03-29T14:00:54.602Z</time></trkpt><trkpt lat="45.6139797" lon="9.5455909"><ele>183.0</ele><time>2026-03-29T14:00:56.602Z</time></trkpt><trkpt lat="45.6138979" lon="9.5454709"><ele>183.0</ele><time>2026-03-29T14:00:58.601Z</time></trkpt><trkpt lat="45.6138465" lon="9.5453993"><ele>183.0</ele><time>2026-03-29T14:00:59.602Z</time></trkpt><trkpt lat="45.6137575" lon="9.5452651"><ele>183.0</ele><time>2026-03-29T14:01:01.602Z</time></trkpt><trkpt lat="45.6136965" lon="9.5451174"><ele>183.0</ele><time>2026-03-29T14:01:03.602Z</time></trkpt><trkpt lat="45.6136404" lon="9.5449596"><ele>183.0</ele><time>2026-03-29T14:01:05.602Z</time></trkpt><trkpt lat="45.6135914" lon="9.544798"><ele>182.8</ele><time>2026-03-29T14:01:07.602Z</time></trkpt><trkpt lat="45.6135367" lon="9.5446357"><ele>182.60000000000002</ele><time>2026-03-29T14:01:09.601Z</time></trkpt><trkpt lat="45.6135083" lon="9.5445521"><ele>182.39999999999998</ele><time>2026-03-29T14:01:10.601Z</time></trkpt><trkpt lat="45.6134817" lon="9.544467"><ele>182.2</ele><time>2026-03-29T14:01:11.602Z</time></trkpt><trkpt lat="45.6134261" lon="9.5443056"><ele>182.0</ele><time>2026-03-29T14:01:13.602Z</time></trkpt><trkpt lat="45.6133735" lon="9.5441446"><ele>182.0</ele><time>2026-03-29T14:01:15.602Z</time></trkpt><trkpt lat="45.6133237" lon="9.5439758"><ele>182.0</ele><time>2026-03-29T14:01:17.602Z</time></trkpt><trkpt lat="45.6132964" lon="9.5438893"><ele>182.0</ele><time>2026-03-29T14:01:18.602Z</time></trkpt><trkpt lat="45.6132699" lon="9.5438046"><ele>182.0</ele><time>2026-03-29T14:01:19.602Z</time></trkpt><trkpt lat="45.6132447" lon="9.5437181"><ele>182.0</ele><time>2026-03-29T14:01:20.602Z</time></trkpt><trkpt lat="45.613218" lon="9.5436342"><ele>182.0</ele><time>2026-03-29T14:01:21.602Z</time></trkpt><trkpt lat="45.6131879" lon="9.5435458"><ele>181.71428571428572</ele><time>2026-03-29T14:01:22.601Z</time></trkpt><trkpt lat="45.6131585" lon="9.5434634"><ele>181.42857142857144</ele><time>2026-03-29T14:01:23.601Z</time></trkpt><trkpt lat="45.6131323" lon="9.5433802"><ele>181.14285714285714</ele><time>2026-03-29T14:01:24.602Z</time></trkpt><trkpt lat="45.6131062" lon="9.5432899"><ele>180.85714285714286</ele><time>2026-03-29T14:01:25.602Z</time></trkpt><trkpt lat="45.6130803" lon="9.5432023"><ele>180.57142857142858</ele><time>2026-03-29T14:01:26.602Z</time></trkpt><trkpt lat="45.6130519" lon="9.5431167"><ele>180.28571428571428</ele><time>2026-03-29T14:01:27.602Z</time></trkpt><trkpt lat="45.6130216" lon="9.5430375"><ele>180.0</ele><time>2026-03-29T14:01:28.602Z</time></trkpt><trkpt lat="45.6129639" lon="9.5428728"><ele>180.0</ele><time>2026-03-29T14:01:30.602Z</time></trkpt><trkpt lat="45.6129339" lon="9.5427908"><ele>180.0</ele><time>2026-03-29T14:01:31.602Z</time></trkpt><trkpt lat="45.6129016" lon="9.5427047"><ele>180.0</ele><time>2026-03-29T14:01:32.601Z</time></trkpt><trkpt lat="45.6128673" lon="9.5426207"><ele>180.0</ele><time>2026-03-29T14:01:33.602Z</time></trkpt><trkpt lat="45.6128359" lon="9.5425371"><ele>180.0</ele><time>2026-03-29T14:01:34.602Z</time></trkpt><trkpt lat="45.6127707" lon="9.5423782"><ele>180.0</ele><time>2026-03-29T14:01:36.602Z</time></trkpt><trkpt lat="45.612737" lon="9.5422922"><ele>180.33333333333334</ele><time>2026-03-29T14:01:37.602Z</time></trkpt><trkpt lat="45.6127017" lon="9.5422114"><ele>180.66666666666666</ele><time>2026-03-29T14:01:38.602Z</time></trkpt><trkpt lat="45.6126625" lon="9.5421344"><ele>181.0</ele><time>2026-03-29T14:01:39.601Z</time></trkpt><trkpt lat="45.6126286" lon="9.542049"><ele>181.33333333333331</ele><time>2026-03-29T14:01:40.602Z</time></trkpt><trkpt lat="45.6125552" lon="9.5418932"><ele>181.66666666666666</ele><time>2026-03-29T14:01:42.602Z</time></trkpt><trkpt lat="45.6125202" lon="9.5418085"><ele>182.0</ele><time>2026-03-29T14:01:43.602Z</time></trkpt><trkpt lat="45.612487" lon="9.5417307"><ele>182.14285714285714</ele><time>2026-03-29T14:01:44.602Z</time></trkpt><trkpt lat="45.6124529" lon="9.5416539"><ele>182.28571428571428</ele><time>2026-03-29T14:01:45.602Z</time></trkpt><trkpt lat="45.6124149" lon="9.5415698"><ele>182.42857142857144</ele><time>2026-03-29T14:01:46.601Z</time></trkpt><trkpt lat="45.6123797" lon="9.5414823"><ele>182.57142857142856</ele><time>2026-03-29T14:01:47.601Z</time></trkpt><trkpt lat="45.6123383" lon="9.5414024"><ele>182.71428571428572</ele><time>2026-03-29T14:01:48.602Z</time></trkpt><trkpt lat="45.6122957" lon="9.5413215"><ele>182.85714285714286</ele><time>2026-03-29T14:01:49.602Z</time></trkpt><trkpt lat="45.6122565" lon="9.541243"><ele>183.0</ele><time>2026-03-29T14:01:50.601Z</time></trkpt><trkpt lat="45.6122133" lon="9.541167"><ele>183.0</ele><time>2026-03-29T14:01:51.602Z</time></trkpt><trkpt lat="45.6121736" lon="9.5410909"><ele>183.0</ele><time>2026-03-29T14:01:52.602Z</time></trkpt><trkpt lat="45.6121307" lon="9.5410008"><ele>183.0</ele><time>2026-03-29T14:01:53.602Z</time></trkpt><trkpt lat="45.6120863" lon="9.5409237"><ele>183.0</ele><time>2026-03-29T14:01:54.602Z</time></trkpt><trkpt lat="45.6120444" lon="9.5408438"><ele>183.0</ele><time>2026-03-29T14:01:55.602Z</time></trkpt><trkpt lat="45.6120041" lon="9.5407673"><ele>183.0</ele><time>2026-03-29T14:01:56.602Z</time></trkpt><trkpt lat="45.6119593" lon="9.5406914"><ele>183.0</ele><time>2026-03-29T14:01:57.601Z</time></trkpt><trkpt lat="45.6119143" lon="9.5406091"><ele>183.0</ele><time>2026-03-29T14:01:58.602Z</time></trkpt><trkpt lat="45.611866" lon="9.5405279"><ele>183.0</ele><time>2026-03-29T14:01:59.602Z</time></trkpt><trkpt lat="45.6118183" lon="9.5404593"><ele>183.0</ele><time>2026-03-29T14:02:00.602Z</time></trkpt><trkpt lat="45.6117673" lon="9.5403666"><ele>183.0</ele><time>2026-03-29T14:02:01.601Z</time></trkpt><trkpt lat="45.6117244" lon="9.5402907"><ele>183.0</ele><time>2026-03-29T14:02:02.602Z</time></trkpt><trkpt lat="45.6116817" lon="9.540218"><ele>183.0</ele><time>2026-03-29T14:02:03.602Z</time></trkpt><trkpt lat="45.61163" lon="9.5401395"><ele>183.0</ele><time>2026-03-29T14:02:04.602Z</time></trkpt><trkpt lat="45.6115871" lon="9.5400683"><ele>183.0</ele><time>2026-03-29T14:02:05.602Z</time></trkpt><trkpt lat="45.6115419" lon="9.539996"><ele>183.0</ele><time>2026-03-29T14:02:06.602Z</time></trkpt><trkpt lat="45.6114977" lon="9.5399197"><ele>183.0</ele><time>2026-03-29T14:02:07.601Z</time></trkpt><trkpt lat="45.6114169" lon="9.5397828"><ele>183.0</ele><time>2026-03-29T14:02:09.602Z</time></trkpt><trkpt lat="45.6113387" lon="9.5396464"><ele>183.0</ele><time>2026-03-29T14:02:11.602Z</time></trkpt><trkpt lat="45.6112682" lon="9.5395142"><ele>182.75</ele><time>2026-03-29T14:02:13.602Z</time></trkpt><trkpt lat="45.611204" lon="9.5393657"><ele>182.5</ele><time>2026-03-29T14:02:15.602Z</time></trkpt><trkpt lat="45.6111463" lon="9.5392143"><ele>182.25</ele><time>2026-03-29T14:02:17.602Z</time></trkpt><trkpt lat="45.6110684" lon="9.5390899"><ele>182.0</ele><time>2026-03-29T14:02:19.602Z</time></trkpt><trkpt lat="45.6109648" lon="9.5389742"><ele>182.0</ele><time>2026-03-29T14:02:21.601Z</time></trkpt><trkpt lat="45.610909" lon="9.5389263"><ele>182.0</ele><time>2026-03-29T14:02:22.602Z</time></trkpt><trkpt lat="45.6107898" lon="9.5388561"><ele>182.0</ele><time>2026-03-29T14:02:24.601Z</time></trkpt><trkpt lat="45.6107287" lon="9.5388266"><ele>182.0</ele><time>2026-03-29T14:02:25.602Z</time></trkpt><trkpt lat="45.6106663" lon="9.5388031"><ele>182.0</ele><time>2026-03-29T14:02:26.601Z</time></trkpt><trkpt lat="45.6106039" lon="9.5387872"><ele>182.0</ele><time>2026-03-29T14:02:27.602Z</time></trkpt><trkpt lat="45.6105347" lon="9.5387786"><ele>182.0</ele><time>2026-03-29T14:02:28.602Z</time></trkpt><trkpt lat="45.6104683" lon="9.5387626"><ele>182.0</ele><time>2026-03-29T14:02:29.601Z</time></trkpt><trkpt lat="45.6104054" lon="9.5387517"><ele>182.0</ele><time>2026-03-29T14:02:30.602Z</time></trkpt><trkpt lat="45.6102803" lon="9.5387136"><ele>182.0</ele><time>2026-03-29T14:02:32.602Z</time></trkpt><trkpt lat="45.6102181" lon="9.538699"><ele>182.0</ele><time>2026-03-29T14:02:33.602Z</time></trkpt><trkpt lat="45.6101534" lon="9.5386808"><ele>182.0</ele><time>2026-03-29T14:02:34.602Z</time></trkpt><trkpt lat="45.6100914" lon="9.5386505"><ele>182.33333333333331</ele><time>2026-03-29T14:02:35.602Z</time></trkpt><trkpt lat="45.6100257" lon="9.5386315"><ele>182.66666666666666</ele><time>2026-03-29T14:02:36.602Z</time></trkpt><trkpt lat="45.6099625" lon="9.5386067"><ele>183.0</ele><time>2026-03-29T14:02:37.602Z</time></trkpt><trkpt lat="45.6098973" lon="9.538575"><ele>183.33333333333334</ele><time>2026-03-29T14:02:38.602Z</time></trkpt><trkpt lat="45.6097815" lon="9.5385133"><ele>183.66666666666669</ele><time>2026-03-29T14:02:40.601Z</time></trkpt><trkpt lat="45.6097196" lon="9.5384792"><ele>184.0</ele><time>2026-03-29T14:02:41.602Z</time></trkpt><trkpt lat="45.6096072" lon="9.5384096"><ele>184.25</ele><time>2026-03-29T14:02:43.602Z</time></trkpt><trkpt lat="45.6094616" lon="9.5383127"><ele>184.5</ele><time>2026-03-29T14:02:46.597Z</time></trkpt><trkpt lat="45.6093661" lon="9.5382618"><ele>184.75</ele><time>2026-03-29T14:02:48.611Z</time></trkpt><trkpt lat="45.609273" lon="9.5381964"><ele>185.0</ele><time>2026-03-29T14:02:50.598Z</time></trkpt><trkpt lat="45.609192" lon="9.5380858"><ele>185.0</ele><time>2026-03-29T14:02:52.602Z</time></trkpt><trkpt lat="45.6090989" lon="9.5379861"><ele>185.0</ele><time>2026-03-29T14:02:54.602Z</time></trkpt><trkpt lat="45.6089845" lon="9.5379226"><ele>185.0</ele><time>2026-03-29T14:02:56.602Z</time></trkpt><trkpt lat="45.6088644" lon="9.5378882"><ele>185.0</ele><time>2026-03-29T14:02:58.602Z</time></trkpt><trkpt lat="45.6087428" lon="9.5378465"><ele>185.0</ele><time>2026-03-29T14:03:00.602Z</time></trkpt><trkpt lat="45.6086961" lon="9.5377806"><ele>185.0</ele><time>2026-03-29T14:03:01.602Z</time></trkpt><trkpt lat="45.6086163" lon="9.5376461"><ele>185.0</ele><time>2026-03-29T14:03:03.602Z</time></trkpt><trkpt lat="45.6085892" lon="9.5375576"><ele>185.0</ele><time>2026-03-29T14:03:04.601Z</time></trkpt><trkpt lat="45.6085749" lon="9.5374601"><ele>185.0</ele><time>2026-03-29T14:03:05.602Z</time></trkpt><trkpt lat="45.608576" lon="9.5373538"><ele>185.0</ele><time>2026-03-29T14:03:06.602Z</time></trkpt><trkpt lat="45.6085883" lon="9.5372462"><ele>184.99999999999997</ele><time>2026-03-29T14:03:07.602Z</time></trkpt><trkpt lat="45.6086093" lon="9.5371402"><ele>185.0</ele><time>2026-03-29T14:03:08.602Z</time></trkpt><trkpt lat="45.6086316" lon="9.5370364"><ele>185.0</ele><time>2026-03-29T14:03:09.602Z</time></trkpt><trkpt lat="45.6086557" lon="9.5369361"><ele>185.0</ele><time>2026-03-29T14:03:10.602Z</time></trkpt><trkpt lat="45.6086773" lon="9.5368476"><ele>185.0</ele><time>2026-03-29T14:03:11.602Z</time></trkpt><trkpt lat="45.6086986" lon="9.5367393"><ele>184.99999999999997</ele><time>2026-03-29T14:03:12.602Z</time></trkpt><trkpt lat="45.6087213" lon="9.5366545"><ele>185.0</ele><time>2026-03-29T14:03:13.602Z</time></trkpt><trkpt lat="45.6087421" lon="9.5365629"><ele>185.14285714285714</ele><time>2026-03-29T14:03:14.602Z</time></trkpt><trkpt lat="45.608774" lon="9.5364571"><ele>185.28571428571428</ele><time>2026-03-29T14:03:15.602Z</time></trkpt><trkpt lat="45.608793" lon="9.5363631"><ele>185.42857142857144</ele><time>2026-03-29T14:03:16.602Z</time></trkpt><trkpt lat="45.608813" lon="9.5362676"><ele>185.57142857142856</ele><time>2026-03-29T14:03:17.602Z</time></trkpt><trkpt lat="45.6088327" lon="9.5361781"><ele>185.71428571428572</ele><time>2026-03-29T14:03:18.601Z</time></trkpt><trkpt lat="45.6088537" lon="9.5360841"><ele>185.85714285714286</ele><time>2026-03-29T14:03:19.602Z</time></trkpt><trkpt lat="45.6088707" lon="9.5359923"><ele>186.0</ele><time>2026-03-29T14:03:20.602Z</time></trkpt><trkpt lat="45.6088933" lon="9.5359014"><ele>186.00000000000003</ele><time>2026-03-29T14:03:21.602Z</time></trkpt><trkpt lat="45.6089112" lon="9.5358144"><ele>186.0</ele><time>2026-03-29T14:03:22.602Z</time></trkpt><trkpt lat="45.6089354" lon="9.5357208"><ele>186.0</ele><time>2026-03-29T14:03:23.602Z</time></trkpt><trkpt lat="45.6089596" lon="9.5356253"><ele>186.0</ele><time>2026-03-29T14:03:24.602Z</time></trkpt><trkpt lat="45.6089728" lon="9.5355347"><ele>186.0</ele><time>2026-03-29T14:03:25.602Z</time></trkpt><trkpt lat="45.6089991" lon="9.5354412"><ele>186.00000000000003</ele><time>2026-03-29T14:03:26.602Z</time></trkpt><trkpt lat="45.6090251" lon="9.5353537"><ele>186.0</ele><time>2026-03-29T14:03:27.602Z</time></trkpt><trkpt lat="45.6090669" lon="9.5351736"><ele>186.0</ele><time>2026-03-29T14:03:29.602Z</time></trkpt><trkpt lat="45.6090977" lon="9.5350806"><ele>186.0</ele><time>2026-03-29T14:03:30.602Z</time></trkpt><trkpt lat="45.6091195" lon="9.5349898"><ele>186.0</ele><time>2026-03-29T14:03:31.602Z</time></trkpt><trkpt lat="45.6091624" lon="9.5348326"><ele>186.0</ele><time>2026-03-29T14:03:33.602Z</time></trkpt><trkpt lat="45.6091905" lon="9.5347286"><ele>186.0</ele><time>2026-03-29T14:03:34.601Z</time></trkpt><trkpt lat="45.6092169" lon="9.5346231"><ele>186.0</ele><time>2026-03-29T14:03:35.601Z</time></trkpt><trkpt lat="45.6092434" lon="9.5345252"><ele>186.0</ele><time>2026-03-29T14:03:36.602Z</time></trkpt><trkpt lat="45.6092663" lon="9.5344304"><ele>186.0</ele><time>2026-03-29T14:03:37.602Z</time></trkpt><trkpt lat="45.6092903" lon="9.5343432"><ele>186.0</ele><time>2026-03-29T14:03:38.602Z</time></trkpt><trkpt lat="45.6093379" lon="9.5341681"><ele>186.0</ele><time>2026-03-29T14:03:40.602Z</time></trkpt><trkpt lat="45.609364" lon="9.5340799"><ele>186.0</ele><time>2026-03-29T14:03:41.601Z</time></trkpt><trkpt lat="45.6093853" lon="9.5339832"><ele>186.0</ele><time>2026-03-29T14:03:42.602Z</time></trkpt><trkpt lat="45.6094141" lon="9.5338931"><ele>186.0</ele><time>2026-03-29T14:03:43.602Z</time></trkpt><trkpt lat="45.6094506" lon="9.5337427"><ele>186.0</ele><time>2026-03-29T14:03:45.602Z</time></trkpt><trkpt lat="45.6094851" lon="9.533593"><ele>186.0</ele><time>2026-03-29T14:03:47.601Z</time></trkpt><trkpt lat="45.6095145" lon="9.5334905"><ele>186.0</ele><time>2026-03-29T14:03:48.602Z</time></trkpt><trkpt lat="45.6095429" lon="9.533388"><ele>186.0</ele><time>2026-03-29T14:03:49.602Z</time></trkpt><trkpt lat="45.6095636" lon="9.5332985"><ele>186.0</ele><time>2026-03-29T14:03:50.602Z</time></trkpt><trkpt lat="45.6096013" lon="9.5331262"><ele>186.20000000000002</ele><time>2026-03-29T14:03:52.602Z</time></trkpt><trkpt lat="45.6096186" lon="9.5330357"><ele>186.4</ele><time>2026-03-29T14:03:53.602Z</time></trkpt><trkpt lat="45.6096646" lon="9.5328778"><ele>186.6</ele><time>2026-03-29T14:03:55.602Z</time></trkpt><trkpt lat="45.6096942" lon="9.5327029"><ele>186.8</ele><time>2026-03-29T14:03:57.602Z</time></trkpt><trkpt lat="45.6097278" lon="9.5325425"><ele>187.0</ele><time>2026-03-29T14:03:59.602Z</time></trkpt><trkpt lat="45.6097542" lon="9.5323951"><ele>187.0</ele><time>2026-03-29T14:04:01.602Z</time></trkpt><trkpt lat="45.6097926" lon="9.5322581"><ele>187.0</ele><time>2026-03-29T14:04:03.602Z</time></trkpt><trkpt lat="45.6098111" lon="9.5321677"><ele>187.0</ele><time>2026-03-29T14:04:04.602Z</time></trkpt><trkpt lat="45.6098395" lon="9.5319955"><ele>187.0</ele><time>2026-03-29T14:04:06.602Z</time></trkpt><trkpt lat="45.6098704" lon="9.5318331"><ele>187.0</ele><time>2026-03-29T14:04:08.602Z</time></trkpt><trkpt lat="45.6098852" lon="9.5317456"><ele>187.0</ele><time>2026-03-29T14:04:09.602Z</time></trkpt><trkpt lat="45.6099019" lon="9.5316573"><ele>187.0</ele><time>2026-03-29T14:04:10.602Z</time></trkpt><trkpt lat="45.6099222" lon="9.5315713"><ele>187.0</ele><time>2026-03-29T14:04:11.602Z</time></trkpt><trkpt lat="45.6099381" lon="9.5314758"><ele>187.0</ele><time>2026-03-29T14:04:12.602Z</time></trkpt><trkpt lat="45.6099504" lon="9.5313858"><ele>187.0</ele><time>2026-03-29T14:04:13.602Z</time></trkpt><trkpt lat="45.6099786" lon="9.5312086"><ele>187.0</ele><time>2026-03-29T14:04:15.602Z</time></trkpt><trkpt lat="45.609987" lon="9.5311188"><ele>187.0</ele><time>2026-03-29T14:04:16.602Z</time></trkpt><trkpt lat="45.6099987" lon="9.5310267"><ele>187.0</ele><time>2026-03-29T14:04:17.602Z</time></trkpt><trkpt lat="45.6100261" lon="9.5308618"><ele>187.0</ele><time>2026-03-29T14:04:19.602Z</time></trkpt><trkpt lat="45.6100529" lon="9.5306934"><ele>187.0</ele><time>2026-03-29T14:04:21.602Z</time></trkpt><trkpt lat="45.6100642" lon="9.5306047"><ele>187.0</ele><time>2026-03-29T14:04:22.602Z</time></trkpt><trkpt lat="45.6100749" lon="9.5305128"><ele>187.0</ele><time>2026-03-29T14:04:23.602Z</time></trkpt><trkpt lat="45.6100892" lon="9.5304023"><ele>186.8</ele><time>2026-03-29T14:04:26.602Z</time></trkpt><trkpt lat="45.6101107" lon="9.5302918"><ele>186.6</ele><time>2026-03-29T14:04:44.602Z</time></trkpt><trkpt lat="45.6101181" lon="9.5301974"><ele>186.4</ele><time>2026-03-29T14:04:46.602Z</time></trkpt><trkpt lat="45.6101347" lon="9.5300646"><ele>186.20000000000002</ele><time>2026-03-29T14:04:48.602Z</time></trkpt><trkpt lat="45.6101452" lon="9.5299071"><ele>186.0</ele><time>2026-03-29T14:04:50.602Z</time></trkpt><trkpt lat="45.6101736" lon="9.5297452"><ele>186.0</ele><time>2026-03-29T14:04:52.602Z</time></trkpt><trkpt lat="45.6101939" lon="9.5295841"><ele>186.0</ele><time>2026-03-29T14:04:54.602Z</time></trkpt><trkpt lat="45.6102145" lon="9.5294192"><ele>186.0</ele><time>2026-03-29T14:04:56.602Z</time></trkpt><trkpt lat="45.6102331" lon="9.5293311"><ele>186.0</ele><time>2026-03-29T14:04:57.602Z</time></trkpt><trkpt lat="45.6102531" lon="9.5292419"><ele>186.0</ele><time>2026-03-29T14:04:58.602Z</time></trkpt><trkpt lat="45.6102589" lon="9.5291517"><ele>186.0</ele><time>2026-03-29T14:04:59.601Z</time></trkpt><trkpt lat="45.6102785" lon="9.5290523"><ele>186.0</ele><time>2026-03-29T14:05:00.602Z</time></trkpt><trkpt lat="45.6103014" lon="9.5288909"><ele>186.0</ele><time>2026-03-29T14:05:02.602Z</time></trkpt><trkpt lat="45.6103119" lon="9.5287728"><ele>186.0</ele><time>2026-03-29T14:05:03.602Z</time></trkpt><trkpt lat="45.6103334" lon="9.5286783"><ele>186.0</ele><time>2026-03-29T14:05:04.602Z</time></trkpt><trkpt lat="45.6103404" lon="9.5285854"><ele>186.0</ele><time>2026-03-29T14:05:05.602Z</time></trkpt><trkpt lat="45.6103552" lon="9.5284049"><ele>186.0</ele><time>2026-03-29T14:05:07.602Z</time></trkpt><trkpt lat="45.6103623" lon="9.5282536"><ele>186.0</ele><time>2026-03-29T14:05:09.602Z</time></trkpt><trkpt lat="45.6103818" lon="9.5281407"><ele>186.0</ele><time>2026-03-29T14:05:10.602Z</time></trkpt><trkpt lat="45.6103932" lon="9.5280444"><ele>186.0</ele><time>2026-03-29T14:05:11.602Z</time></trkpt><trkpt lat="45.6104103" lon="9.5279503"><ele>186.0</ele><time>2026-03-29T14:05:12.602Z</time></trkpt><trkpt lat="45.6104323" lon="9.5278431"><ele>186.0</ele><time>2026-03-29T14:05:13.602Z</time></trkpt><trkpt lat="45.610448" lon="9.527742"><ele>186.16666666666666</ele><time>2026-03-29T14:05:14.602Z</time></trkpt><trkpt lat="45.6104597" lon="9.5276424"><ele>186.33333333333334</ele><time>2026-03-29T14:05:15.601Z</time></trkpt><trkpt lat="45.6104748" lon="9.527554"><ele>186.5</ele><time>2026-03-29T14:05:16.601Z</time></trkpt><trkpt lat="45.6104852" lon="9.5274647"><ele>186.66666666666669</ele><time>2026-03-29T14:05:17.602Z</time></trkpt><trkpt lat="45.610515" lon="9.5272827"><ele>186.83333333333334</ele><time>2026-03-29T14:05:19.602Z</time></trkpt><trkpt lat="45.6105305" lon="9.5271818"><ele>187.0</ele><time>2026-03-29T14:05:20.602Z</time></trkpt><trkpt lat="45.6105447" lon="9.5270778"><ele>186.83333333333334</ele><time>2026-03-29T14:05:21.602Z</time></trkpt><trkpt lat="45.610563" lon="9.5269641"><ele>186.66666666666669</ele><time>2026-03-29T14:05:22.602Z</time></trkpt><trkpt lat="45.6105836" lon="9.5268583"><ele>186.5</ele><time>2026-03-29T14:05:23.602Z</time></trkpt><trkpt lat="45.6106037" lon="9.526748"><ele>186.33333333333334</ele><time>2026-03-29T14:05:24.602Z</time></trkpt><trkpt lat="45.6106178" lon="9.5266392"><ele>186.16666666666666</ele><time>2026-03-29T14:05:25.602Z</time></trkpt><trkpt lat="45.6106346" lon="9.5265229"><ele>186.0</ele><time>2026-03-29T14:05:26.602Z</time></trkpt><trkpt lat="45.6106551" lon="9.5264056"><ele>186.0</ele><time>2026-03-29T14:05:27.602Z</time></trkpt><trkpt lat="45.610669" lon="9.5262949"><ele>186.0</ele><time>2026-03-29T14:05:28.602Z</time></trkpt><trkpt lat="45.6106835" lon="9.5261855"><ele>186.0</ele><time>2026-03-29T14:05:29.602Z</time></trkpt><trkpt lat="45.610692" lon="9.5260665"><ele>186.0</ele><time>2026-03-29T14:05:30.601Z</time></trkpt><trkpt lat="45.6107164" lon="9.5259491"><ele>186.0</ele><time>2026-03-29T14:05:31.602Z</time></trkpt><trkpt lat="45.610722" lon="9.5258567"><ele>186.0</ele><time>2026-03-29T14:05:32.602Z</time></trkpt><trkpt lat="45.6107206" lon="9.5257606"><ele>185.33333333333334</ele><time>2026-03-29T14:05:33.602Z</time></trkpt><trkpt lat="45.6107114" lon="9.5256536"><ele>184.66666666666666</ele><time>2026-03-29T14:05:34.602Z</time></trkpt><trkpt lat="45.6106959" lon="9.5255503"><ele>184.0</ele><time>2026-03-29T14:05:35.602Z</time></trkpt><trkpt lat="45.6106723" lon="9.5254562"><ele>183.33333333333331</ele><time>2026-03-29T14:05:36.602Z</time></trkpt><trkpt lat="45.6106411" lon="9.5253537"><ele>182.66666666666666</ele><time>2026-03-29T14:05:37.602Z</time></trkpt><trkpt lat="45.6106133" lon="9.5252515"><ele>182.0</ele><time>2026-03-29T14:05:38.602Z</time></trkpt><trkpt lat="45.6105831" lon="9.5251437"><ele>180.0</ele><time>2026-03-29T14:05:39.602Z</time></trkpt><trkpt lat="45.610554" lon="9.5250446"><ele>178.0</ele><time>2026-03-29T14:05:40.602Z</time></trkpt><trkpt lat="45.6105247" lon="9.5249363"><ele>176.0</ele><time>2026-03-29T14:05:41.602Z</time></trkpt><trkpt lat="45.6104971" lon="9.5248368"><ele>174.0</ele><time>2026-03-29T14:05:42.602Z</time></trkpt><trkpt lat="45.6104641" lon="9.524728"><ele>172.0</ele><time>2026-03-29T14:05:43.602Z</time></trkpt><trkpt lat="45.6104276" lon="9.5246194"><ele>170.0</ele><time>2026-03-29T14:05:44.601Z</time></trkpt><trkpt lat="45.6103982" lon="9.5245204"><ele>167.83333333333331</ele><time>2026-03-29T14:05:45.602Z</time></trkpt><trkpt lat="45.6103697" lon="9.5244159"><ele>165.66666666666666</ele><time>2026-03-29T14:05:46.602Z</time></trkpt><trkpt lat="45.6103417" lon="9.5242992"><ele>163.5</ele><time>2026-03-29T14:05:47.601Z</time></trkpt><trkpt lat="45.6103077" lon="9.5241865"><ele>161.33333333333334</ele><time>2026-03-29T14:05:48.602Z</time></trkpt><trkpt lat="45.6102779" lon="9.5240828"><ele>159.16666666666669</ele><time>2026-03-29T14:05:49.602Z</time></trkpt><trkpt lat="45.6102466" lon="9.5239785"><ele>157.0</ele><time>2026-03-29T14:05:50.602Z</time></trkpt><trkpt lat="45.6102164" lon="9.5238722"><ele>157.0</ele><time>2026-03-29T14:05:51.602Z</time></trkpt><trkpt lat="45.6101855" lon="9.5237731"><ele>157.0</ele><time>2026-03-29T14:05:52.602Z</time></trkpt><trkpt lat="45.6101574" lon="9.5236641"><ele>157.0</ele><time>2026-03-29T14:05:53.602Z</time></trkpt><trkpt lat="45.6101237" lon="9.5235601"><ele>157.0</ele><time>2026-03-29T14:05:54.602Z</time></trkpt><trkpt lat="45.6100838" lon="9.523456"><ele>157.0</ele><time>2026-03-29T14:05:55.602Z</time></trkpt><trkpt lat="45.6100377" lon="9.5233691"><ele>157.0</ele><time>2026-03-29T14:05:56.602Z</time></trkpt><trkpt lat="45.6099835" lon="9.5232915"><ele>159.28571428571428</ele><time>2026-03-29T14:05:57.602Z</time></trkpt><trkpt lat="45.6099239" lon="9.5232313"><ele>161.57142857142856</ele><time>2026-03-29T14:05:58.602Z</time></trkpt><trkpt lat="45.6098612" lon="9.5231732"><ele>163.85714285714283</ele><time>2026-03-29T14:05:59.602Z</time></trkpt><trkpt lat="45.6097991" lon="9.5231212"><ele>166.14285714285714</ele><time>2026-03-29T14:06:00.602Z</time></trkpt><trkpt lat="45.6097349" lon="9.5230623"><ele>168.42857142857144</ele><time>2026-03-29T14:06:01.602Z</time></trkpt><trkpt lat="45.6096744" lon="9.5230068"><ele>170.7142857142857</ele><time>2026-03-29T14:06:02.602Z</time></trkpt><trkpt lat="45.6096115" lon="9.5229557"><ele>173.0</ele><time>2026-03-29T14:06:03.602Z</time></trkpt><trkpt lat="45.6095517" lon="9.5229138"><ele>174.4</ele><time>2026-03-29T14:06:04.602Z</time></trkpt><trkpt lat="45.6094947" lon="9.5228658"><ele>175.8</ele><time>2026-03-29T14:06:05.602Z</time></trkpt><trkpt lat="45.6094382" lon="9.5228058"><ele>177.2</ele><time>2026-03-29T14:06:06.602Z</time></trkpt><trkpt lat="45.6093349" lon="9.522726"><ele>178.6</ele><time>2026-03-29T14:06:08.602Z</time></trkpt><trkpt lat="45.6092311" lon="9.5226456"><ele>180.0</ele><time>2026-03-29T14:06:10.602Z</time></trkpt><trkpt lat="45.6091653" lon="9.5225861"><ele>181.33333333333334</ele><time>2026-03-29T14:06:12.602Z</time></trkpt><trkpt lat="45.6092027" lon="9.5224922"><ele>182.66666666666666</ele><time>2026-03-29T14:06:17.602Z</time></trkpt><trkpt lat="45.6092243" lon="9.5223544"><ele>184.0</ele><time>2026-03-29T14:06:20.602Z</time></trkpt><trkpt lat="45.6092467" lon="9.5222448"><ele>185.33333333333331</ele><time>2026-03-29T14:06:22.602Z</time></trkpt><trkpt lat="45.6092779" lon="9.5221231"><ele>186.66666666666666</ele><time>2026-03-29T14:06:24.602Z</time></trkpt><trkpt lat="45.6093271" lon="9.5219992"><ele>188.0</ele><time>2026-03-29T14:06:26.602Z</time></trkpt><trkpt lat="45.6093619" lon="9.5218764"><ele>188.0</ele><time>2026-03-29T14:06:28.602Z</time></trkpt><trkpt lat="45.6093649" lon="9.5217715"><ele>188.0</ele><time>2026-03-29T14:06:30.602Z</time></trkpt><trkpt lat="45.6095202" lon="9.5217589"><ele>188.0</ele><time>2026-03-29T14:06:33.602Z</time></trkpt><trkpt lat="45.6095892" lon="9.5217887"><ele>188.0</ele><time>2026-03-29T14:06:35.601Z</time></trkpt><trkpt lat="45.6096981" lon="9.5218203"><ele>188.0</ele><time>2026-03-29T14:06:37.602Z</time></trkpt><trkpt lat="45.6098354" lon="9.521873"><ele>187.66666666666666</ele><time>2026-03-29T14:06:39.602Z</time></trkpt><trkpt lat="45.6099612" lon="9.5219013"><ele>187.33333333333331</ele><time>2026-03-29T14:06:41.602Z</time></trkpt><trkpt lat="45.6100277" lon="9.5219309"><ele>187.0</ele><time>2026-03-29T14:06:42.601Z</time></trkpt><trkpt lat="45.6100901" lon="9.5219553"><ele>186.66666666666666</ele><time>2026-03-29T14:06:43.602Z</time></trkpt><trkpt lat="45.6101581" lon="9.5219638"><ele>186.33333333333334</ele><time>2026-03-29T14:06:44.602Z</time></trkpt><trkpt lat="45.6102334" lon="9.5219566"><ele>186.0</ele><time>2026-03-29T14:06:45.602Z</time></trkpt><trkpt lat="45.6102895" lon="9.5219981"><ele>184.16666666666666</ele><time>2026-03-29T14:06:46.602Z</time></trkpt><trkpt lat="45.6103568" lon="9.5220272"><ele>182.33333333333334</ele><time>2026-03-29T14:06:47.602Z</time></trkpt><trkpt lat="45.6104249" lon="9.5220449"><ele>180.5</ele><time>2026-03-29T14:06:48.602Z</time></trkpt><trkpt lat="45.6104989" lon="9.5220456"><ele>178.66666666666669</ele><time>2026-03-29T14:06:49.602Z</time></trkpt><trkpt lat="45.6106051" lon="9.522027"><ele>176.83333333333334</ele><time>2026-03-29T14:06:51.602Z</time></trkpt><trkpt lat="45.6106794" lon="9.5219931"><ele>175.0</ele><time>2026-03-29T14:06:53.601Z</time></trkpt><trkpt lat="45.6106779" lon="9.5218567"><ele>175.0</ele><time>2026-03-29T14:06:54.602Z</time></trkpt><trkpt lat="45.610697" lon="9.5217642"><ele>175.0</ele><time>2026-03-29T14:06:55.602Z</time></trkpt><trkpt lat="45.6107017" lon="9.5216712"><ele>175.0</ele><time>2026-03-29T14:06:56.602Z</time></trkpt><trkpt lat="45.6107224" lon="9.5215052"><ele>175.0</ele><time>2026-03-29T14:06:58.602Z</time></trkpt><trkpt lat="45.6107607" lon="9.5213728"><ele>175.0</ele><time>2026-03-29T14:07:00.601Z</time></trkpt><trkpt lat="45.6108032" lon="9.5212849"><ele>175.0</ele><time>2026-03-29T14:07:02.602Z</time></trkpt><trkpt lat="45.6108624" lon="9.5212316"><ele>175.33333333333334</ele><time>2026-03-29T14:07:04.602Z</time></trkpt><trkpt lat="45.6109703" lon="9.5211802"><ele>175.66666666666669</ele><time>2026-03-29T14:07:06.602Z</time></trkpt><trkpt lat="45.6110286" lon="9.52114"><ele>176.0</ele><time>2026-03-29T14:07:07.602Z</time></trkpt><trkpt lat="45.6110911" lon="9.5210963"><ele>176.33333333333334</ele><time>2026-03-29T14:07:08.602Z</time></trkpt><trkpt lat="45.6111872" lon="9.520981"><ele>176.66666666666666</ele><time>2026-03-29T14:07:10.602Z</time></trkpt><trkpt lat="45.6112417" lon="9.5209161"><ele>177.0</ele><time>2026-03-29T14:07:11.601Z</time></trkpt><trkpt lat="45.6112861" lon="9.520845"><ele>174.16666666666666</ele><time>2026-03-29T14:07:12.602Z</time></trkpt><trkpt lat="45.611338" lon="9.5207911"><ele>171.33333333333334</ele><time>2026-03-29T14:07:13.601Z</time></trkpt><trkpt lat="45.6113828" lon="9.5206804"><ele>168.5</ele><time>2026-03-29T14:07:14.602Z</time></trkpt><trkpt lat="45.61142" lon="9.5205877"><ele>165.66666666666669</ele><time>2026-03-29T14:07:15.602Z</time></trkpt><trkpt lat="45.6114572" lon="9.5204969"><ele>162.83333333333334</ele><time>2026-03-29T14:07:16.602Z</time></trkpt><trkpt lat="45.6115002" lon="9.5203964"><ele>160.0</ele><time>2026-03-29T14:07:17.602Z</time></trkpt><trkpt lat="45.6115538" lon="9.5203061"><ele>160.0</ele><time>2026-03-29T14:07:18.602Z</time></trkpt><trkpt lat="45.6116002" lon="9.5202189"><ele>160.0</ele><time>2026-03-29T14:07:19.602Z</time></trkpt><trkpt lat="45.6116657" lon="9.5201314"><ele>160.0</ele><time>2026-03-29T14:07:20.602Z</time></trkpt><trkpt lat="45.6117159" lon="9.5200552"><ele>160.0</ele><time>2026-03-29T14:07:21.602Z</time></trkpt><trkpt lat="45.6117538" lon="9.5199744"><ele>160.0</ele><time>2026-03-29T14:07:22.602Z</time></trkpt><trkpt lat="45.611786" lon="9.519892"><ele>160.0</ele><time>2026-03-29T14:07:23.602Z</time></trkpt><trkpt lat="45.611838" lon="9.5197533"><ele>160.0</ele><time>2026-03-29T14:07:25.602Z</time></trkpt><trkpt lat="45.6118853" lon="9.5196307"><ele>160.0</ele><time>2026-03-29T14:07:27.602Z</time></trkpt><trkpt lat="45.6119101" lon="9.5195282"><ele>160.0</ele><time>2026-03-29T14:07:29.602Z</time></trkpt><trkpt lat="45.6119365" lon="9.5194181"><ele>160.0</ele><time>2026-03-29T14:07:31.602Z</time></trkpt><trkpt lat="45.6119547" lon="9.5193268"><ele>160.0</ele><time>2026-03-29T14:07:33.602Z</time></trkpt><trkpt lat="45.6119736" lon="9.5192075"><ele>160.0</ele><time>2026-03-29T14:07:36.602Z</time></trkpt><trkpt lat="45.6119882" lon="9.5190977"><ele>158.16666666666669</ele><time>2026-03-29T14:07:39.602Z</time></trkpt><trkpt lat="45.6120301" lon="9.5190013"><ele>156.33333333333334</ele><time>2026-03-29T14:07:42.602Z</time></trkpt><trkpt lat="45.6120632" lon="9.5189069"><ele>154.5</ele><time>2026-03-29T14:07:44.601Z</time></trkpt><trkpt lat="45.6120921" lon="9.5188164"><ele>152.66666666666666</ele><time>2026-03-29T14:07:46.602Z</time></trkpt><trkpt lat="45.6121227" lon="9.5187141"><ele>150.83333333333331</ele><time>2026-03-29T14:07:48.602Z</time></trkpt><trkpt lat="45.612156" lon="9.518604"><ele>149.0</ele><time>2026-03-29T14:07:50.602Z</time></trkpt><trkpt lat="45.6121841" lon="9.5184828"><ele>149.0</ele><time>2026-03-29T14:07:52.601Z</time></trkpt><trkpt lat="45.6122157" lon="9.518362"><ele>149.0</ele><time>2026-03-29T14:07:54.602Z</time></trkpt><trkpt lat="45.6122311" lon="9.5182555"><ele>149.0</ele><time>2026-03-29T14:07:56.601Z</time></trkpt><trkpt lat="45.6122407" lon="9.5181591"><ele>149.0</ele><time>2026-03-29T14:07:58.602Z</time></trkpt><trkpt lat="45.6122522" lon="9.5180479"><ele>149.0</ele><time>2026-03-29T14:08:00.602Z</time></trkpt><trkpt lat="45.6122681" lon="9.5179588"><ele>149.0</ele><time>2026-03-29T14:08:02.602Z</time></trkpt><trkpt lat="45.6122875" lon="9.5178584"><ele>150.0</ele><time>2026-03-29T14:08:04.602Z</time></trkpt><trkpt lat="45.6123342" lon="9.5177668"><ele>151.0</ele><time>2026-03-29T14:08:06.602Z</time></trkpt><trkpt lat="45.6123943" lon="9.5176648"><ele>152.0</ele><time>2026-03-29T14:08:08.602Z</time></trkpt><trkpt lat="45.6124622" lon="9.5175634"><ele>153.0</ele><time>2026-03-29T14:08:10.602Z</time></trkpt><trkpt lat="45.6125442" lon="9.517435"><ele>154.0</ele><time>2026-03-29T14:08:12.601Z</time></trkpt><trkpt lat="45.6126035" lon="9.5173551"><ele>154.0</ele><time>2026-03-29T14:08:14.602Z</time></trkpt><trkpt lat="45.6126565" lon="9.5172839"><ele>154.0</ele><time>2026-03-29T14:08:16.601Z</time></trkpt><trkpt lat="45.6127314" lon="9.5171879"><ele>154.0</ele><time>2026-03-29T14:08:18.602Z</time></trkpt><trkpt lat="45.612818" lon="9.5170932"><ele>154.0</ele><time>2026-03-29T14:08:20.602Z</time></trkpt><trkpt lat="45.6129" lon="9.5169881"><ele>154.0</ele><time>2026-03-29T14:08:22.602Z</time></trkpt><trkpt lat="45.6129916" lon="9.5169237"><ele>156.0</ele><time>2026-03-29T14:08:24.602Z</time></trkpt><trkpt lat="45.6130742" lon="9.5168601"><ele>158.0</ele><time>2026-03-29T14:08:26.602Z</time></trkpt><trkpt lat="45.613153" lon="9.5167817"><ele>160.0</ele><time>2026-03-29T14:08:28.602Z</time></trkpt><trkpt lat="45.6132498" lon="9.5166924"><ele>162.0</ele><time>2026-03-29T14:08:30.602Z</time></trkpt><trkpt lat="45.6133208" lon="9.5166347"><ele>164.0</ele><time>2026-03-29T14:08:33.602Z</time></trkpt><trkpt lat="45.6133997" lon="9.5166039"><ele>164.0</ele><time>2026-03-29T14:08:35.602Z</time></trkpt><trkpt lat="45.6134624" lon="9.5165484"><ele>164.0</ele><time>2026-03-29T14:08:38.602Z</time></trkpt><trkpt lat="45.6135291" lon="9.5164979"><ele>164.0</ele><time>2026-03-29T14:08:40.602Z</time></trkpt><trkpt lat="45.6136169" lon="9.5164449"><ele>164.0</ele><time>2026-03-29T14:08:42.602Z</time></trkpt><trkpt lat="45.6137051" lon="9.5163888"><ele>164.0</ele><time>2026-03-29T14:08:44.602Z</time></trkpt><trkpt lat="45.6137999" lon="9.516339"><ele>164.0</ele><time>2026-03-29T14:08:46.601Z</time></trkpt><trkpt lat="45.6138902" lon="9.5163005"><ele>165.39999999999998</ele><time>2026-03-29T14:08:48.602Z</time></trkpt><trkpt lat="45.6139911" lon="9.5162598"><ele>166.8</ele><time>2026-03-29T14:08:50.602Z</time></trkpt><trkpt lat="45.6140918" lon="9.5162118"><ele>168.2</ele><time>2026-03-29T14:08:52.602Z</time></trkpt><trkpt lat="45.6141556" lon="9.5161859"><ele>169.60000000000002</ele><time>2026-03-29T14:08:53.602Z</time></trkpt><trkpt lat="45.6142476" lon="9.5161559"><ele>171.0</ele><time>2026-03-29T14:08:55.602Z</time></trkpt><trkpt lat="45.6143464" lon="9.5161264"><ele>168.4</ele><time>2026-03-29T14:08:57.602Z</time></trkpt><trkpt lat="45.6145152" lon="9.5160981"><ele>165.8</ele><time>2026-03-29T14:09:01.602Z</time></trkpt><trkpt lat="45.6145855" lon="9.5160743"><ele>163.20000000000002</ele><time>2026-03-29T14:09:03.602Z</time></trkpt><trkpt lat="45.6146651" lon="9.5160505"><ele>160.60000000000002</ele><time>2026-03-29T14:09:05.602Z</time></trkpt><trkpt lat="45.6147661" lon="9.5160358"><ele>158.0</ele><time>2026-03-29T14:09:07.601Z</time></trkpt><trkpt lat="45.6148677" lon="9.5160162"><ele>158.0</ele><time>2026-03-29T14:09:09.602Z</time></trkpt><trkpt lat="45.6149605" lon="9.5159934"><ele>158.0</ele><time>2026-03-29T14:09:11.601Z</time></trkpt><trkpt lat="45.6150234" lon="9.5159523"><ele>158.0</ele><time>2026-03-29T14:09:13.602Z</time></trkpt><trkpt lat="45.6150647" lon="9.5158201"><ele>158.0</ele><time>2026-03-29T14:09:16.602Z</time></trkpt><trkpt lat="45.615078" lon="9.5157111"><ele>158.0</ele><time>2026-03-29T14:09:19.602Z</time></trkpt><trkpt lat="45.6150919" lon="9.5156204"><ele>158.0</ele><time>2026-03-29T14:09:22.602Z</time></trkpt><trkpt lat="45.6151134" lon="9.5155258"><ele>158.00000000000003</ele><time>2026-03-29T14:09:25.602Z</time></trkpt><trkpt lat="45.6151316" lon="9.5154201"><ele>158.0</ele><time>2026-03-29T14:09:28.601Z</time></trkpt><trkpt lat="45.6151404" lon="9.5153076"><ele>158.0</ele><time>2026-03-29T14:09:32.602Z</time></trkpt><trkpt lat="45.6151457" lon="9.5151941"><ele>158.0</ele><time>2026-03-29T14:09:36.602Z</time></trkpt><trkpt lat="45.6151551" lon="9.5151026"><ele>158.0</ele><time>2026-03-29T14:09:39.602Z</time></trkpt><trkpt lat="45.6151718" lon="9.5150073"><ele>158.00000000000003</ele><time>2026-03-29T14:09:43.602Z</time></trkpt><trkpt lat="45.615197" lon="9.5149203"><ele>158.0</ele><time>2026-03-29T14:09:47.601Z</time></trkpt><trkpt lat="45.6152103" lon="9.5148266"><ele>159.2857142857143</ele><time>2026-03-29T14:09:51.602Z</time></trkpt><trkpt lat="45.6152224" lon="9.514736"><ele>160.57142857142858</ele><time>2026-03-29T14:09:54.601Z</time></trkpt><trkpt lat="45.6152488" lon="9.5146392"><ele>161.85714285714286</ele><time>2026-03-29T14:09:59.602Z</time></trkpt><trkpt lat="45.6153002" lon="9.5145771"><ele>163.14285714285717</ele><time>2026-03-29T14:10:03.602Z</time></trkpt><trkpt lat="45.6153326" lon="9.5144947"><ele>164.42857142857144</ele><time>2026-03-29T14:10:07.797Z</time></trkpt><trkpt lat="45.6153618" lon="9.5143936"><ele>165.71428571428572</ele><time>2026-03-29T14:10:12.594Z</time></trkpt><trkpt lat="45.6153638" lon="9.514293"><ele>167.0</ele><time>2026-03-29T14:10:16.593Z</time></trkpt><trkpt lat="45.6153425" lon="9.5142055"><ele>167.0</ele><time>2026-03-29T14:10:19.593Z</time></trkpt><trkpt lat="45.6153419" lon="9.5141059"><ele>167.0</ele><time>2026-03-29T14:10:24.593Z</time></trkpt><trkpt lat="45.6153249" lon="9.5139854"><ele>167.0</ele><time>2026-03-29T14:10:27.593Z</time></trkpt><trkpt lat="45.6153112" lon="9.5138887"><ele>167.0</ele><time>2026-03-29T14:10:30.592Z</time></trkpt><trkpt lat="45.6153094" lon="9.5137847"><ele>167.0</ele><time>2026-03-29T14:10:34.593Z</time></trkpt><trkpt lat="45.6153308" lon="9.5136659"><ele>167.0</ele><time>2026-03-29T14:10:38.593Z</time></trkpt><trkpt lat="45.6153581" lon="9.5135501"><ele>168.16666666666666</ele><time>2026-03-29T14:10:41.593Z</time></trkpt><trkpt lat="45.6153878" lon="9.513439"><ele>169.33333333333331</ele><time>2026-03-29T14:10:45.593Z</time></trkpt><trkpt lat="45.6153926" lon="9.5133316"><ele>170.5</ele><time>2026-03-29T14:10:48.593Z</time></trkpt><trkpt lat="45.6153502" lon="9.5132321"><ele>171.66666666666666</ele><time>2026-03-29T14:10:51.593Z</time></trkpt><trkpt lat="45.6152912" lon="9.5131778"><ele>172.83333333333334</ele><time>2026-03-29T14:10:54.593Z</time></trkpt><trkpt lat="45.6152654" lon="9.5132755"><ele>174.0</ele><time>2026-03-29T14:10:57.592Z</time></trkpt><trkpt lat="45.6152568" lon="9.5133932"><ele>175.66666666666666</ele><time>2026-03-29T14:11:00.592Z</time></trkpt><trkpt lat="45.6152383" lon="9.5135078"><ele>177.33333333333334</ele><time>2026-03-29T14:11:03.593Z</time></trkpt><trkpt lat="45.6151975" lon="9.5135954"><ele>179.0</ele><time>2026-03-29T14:11:06.593Z</time></trkpt><trkpt lat="45.6151731" lon="9.5137014"><ele>180.66666666666669</ele><time>2026-03-29T14:11:09.593Z</time></trkpt><trkpt lat="45.6151488" lon="9.5138229"><ele>182.33333333333334</ele><time>2026-03-29T14:11:12.592Z</time></trkpt><trkpt lat="45.6151304" lon="9.5139195"><ele>184.0</ele><time>2026-03-29T14:11:15.593Z</time></trkpt><trkpt lat="45.6151128" lon="9.514017"><ele>184.0</ele><time>2026-03-29T14:11:17.593Z</time></trkpt><trkpt lat="45.6150829" lon="9.5141098"><ele>184.0</ele><time>2026-03-29T14:11:19.593Z</time></trkpt><trkpt lat="45.6150436" lon="9.5142013"><ele>184.0</ele><time>2026-03-29T14:11:21.593Z</time></trkpt><trkpt lat="45.6150106" lon="9.5142787"><ele>184.0</ele><time>2026-03-29T14:11:23.593Z</time></trkpt><trkpt lat="45.6149747" lon="9.5143805"><ele>184.0</ele><time>2026-03-29T14:11:25.593Z</time></trkpt><trkpt lat="45.6149619" lon="9.5144804"><ele>184.0</ele><time>2026-03-29T14:11:27.593Z</time></trkpt><trkpt lat="45.6149433" lon="9.5145693"><ele>184.0</ele><time>2026-03-29T14:11:29.593Z</time></trkpt><trkpt lat="45.6148986" lon="9.51466"><ele>182.16666666666669</ele><time>2026-03-29T14:11:31.593Z</time></trkpt><trkpt lat="45.6148534" lon="9.5147293"><ele>180.33333333333334</ele><time>2026-03-29T14:11:33.593Z</time></trkpt><trkpt lat="45.6148435" lon="9.5148345"><ele>178.5</ele><time>2026-03-29T14:11:36.593Z</time></trkpt><trkpt lat="45.6147844" lon="9.5149314"><ele>176.66666666666666</ele><time>2026-03-29T14:11:39.593Z</time></trkpt><trkpt lat="45.6147092" lon="9.5150102"><ele>174.83333333333331</ele><time>2026-03-29T14:11:42.593Z</time></trkpt><trkpt lat="45.6146234" lon="9.5150533"><ele>173.0</ele><time>2026-03-29T14:11:44.593Z</time></trkpt><trkpt lat="45.6145515" lon="9.5150842"><ele>173.0</ele><time>2026-03-29T14:11:46.593Z</time></trkpt><trkpt lat="45.6144535" lon="9.515096"><ele>173.0</ele><time>2026-03-29T14:11:49.593Z</time></trkpt><trkpt lat="45.6143785" lon="9.5150819"><ele>173.0</ele><time>2026-03-29T14:11:52.593Z</time></trkpt><trkpt lat="45.614408" lon="9.5149873"><ele>173.0</ele><time>2026-03-29T14:11:59.592Z</time></trkpt><trkpt lat="45.6145212" lon="9.5149577"><ele>173.0</ele><time>2026-03-29T14:12:01.593Z</time></trkpt><trkpt lat="45.6146072" lon="9.5149118"><ele>173.0</ele><time>2026-03-29T14:12:03.593Z</time></trkpt><trkpt lat="45.6146751" lon="9.5148499"><ele>173.0</ele><time>2026-03-29T14:12:05.593Z</time></trkpt><trkpt lat="45.6147321" lon="9.5147872"><ele>173.0</ele><time>2026-03-29T14:12:07.593Z</time></trkpt><trkpt lat="45.6147836" lon="9.5146822"><ele>173.0</ele><time>2026-03-29T14:12:09.593Z</time></trkpt><trkpt lat="45.6148268" lon="9.5145597"><ele>173.0</ele><time>2026-03-29T14:12:11.593Z</time></trkpt><trkpt lat="45.6148538" lon="9.5144309"><ele>173.0</ele><time>2026-03-29T14:12:13.593Z</time></trkpt><trkpt lat="45.6148899" lon="9.5142926"><ele>175.2</ele><time>2026-03-29T14:12:15.593Z</time></trkpt><trkpt lat="45.6149087" lon="9.5141666"><ele>177.4</ele><time>2026-03-29T14:12:17.593Z</time></trkpt><trkpt lat="45.6149178" lon="9.5140329"><ele>179.6</ele><time>2026-03-29T14:12:19.593Z</time></trkpt><trkpt lat="45.6149304" lon="9.5138993"><ele>181.79999999999998</ele><time>2026-03-29T14:12:21.593Z</time></trkpt><trkpt lat="45.6149488" lon="9.5137619"><ele>184.0</ele><time>2026-03-29T14:12:23.592Z</time></trkpt><trkpt lat="45.6149639" lon="9.5136224"><ele>184.79999999999998</ele><time>2026-03-29T14:12:25.593Z</time></trkpt><trkpt lat="45.6149948" lon="9.5134796"><ele>185.6</ele><time>2026-03-29T14:12:27.593Z</time></trkpt><trkpt lat="45.6150141" lon="9.5133361"><ele>186.4</ele><time>2026-03-29T14:12:29.592Z</time></trkpt><trkpt lat="45.6150307" lon="9.5131831"><ele>187.2</ele><time>2026-03-29T14:12:31.593Z</time></trkpt><trkpt lat="45.6150578" lon="9.5130259"><ele>188.0</ele><time>2026-03-29T14:12:33.593Z</time></trkpt><trkpt lat="45.6150829" lon="9.5128816"><ele>188.0</ele><time>2026-03-29T14:12:35.593Z</time></trkpt><trkpt lat="45.6151064" lon="9.5127295"><ele>188.0</ele><time>2026-03-29T14:12:37.593Z</time></trkpt><trkpt lat="45.6151238" lon="9.5125858"><ele>188.0</ele><time>2026-03-29T14:12:39.593Z</time></trkpt><trkpt lat="45.6151413" lon="9.5124503"><ele>188.0</ele><time>2026-03-29T14:12:41.593Z</time></trkpt><trkpt lat="45.6151581" lon="9.512307"><ele>188.0</ele><time>2026-03-29T14:12:43.593Z</time></trkpt><trkpt lat="45.6151737" lon="9.5121671"><ele>188.4</ele><time>2026-03-29T14:12:45.593Z</time></trkpt><trkpt lat="45.6151979" lon="9.5120269"><ele>188.8</ele><time>2026-03-29T14:12:47.593Z</time></trkpt><trkpt lat="45.6152448" lon="9.511877"><ele>189.2</ele><time>2026-03-29T14:12:49.593Z</time></trkpt><trkpt lat="45.6152994" lon="9.5117345"><ele>189.6</ele><time>2026-03-29T14:12:51.593Z</time></trkpt><trkpt lat="45.6153676" lon="9.5115967"><ele>190.0</ele><time>2026-03-29T14:12:53.593Z</time></trkpt><trkpt lat="45.6154343" lon="9.511484"><ele>190.0</ele><time>2026-03-29T14:12:55.593Z</time></trkpt><trkpt lat="45.6155068" lon="9.5113751"><ele>190.0</ele><time>2026-03-29T14:12:57.592Z</time></trkpt><trkpt lat="45.6155819" lon="9.5112672"><ele>190.0</ele><time>2026-03-29T14:12:59.593Z</time></trkpt><trkpt lat="45.6156406" lon="9.5111357"><ele>190.0</ele><time>2026-03-29T14:13:01.593Z</time></trkpt><trkpt lat="45.615686" lon="9.5109901"><ele>190.0</ele><time>2026-03-29T14:13:03.593Z</time></trkpt><trkpt lat="45.6157177" lon="9.5108197"><ele>190.6</ele><time>2026-03-29T14:13:05.593Z</time></trkpt><trkpt lat="45.6157465" lon="9.5107309"><ele>191.2</ele><time>2026-03-29T14:13:06.593Z</time></trkpt><trkpt lat="45.615821" lon="9.5105912"><ele>191.8</ele><time>2026-03-29T14:13:08.593Z</time></trkpt><trkpt lat="45.6158829" lon="9.5105352"><ele>192.4</ele><time>2026-03-29T14:13:09.593Z</time></trkpt><trkpt lat="45.6159911" lon="9.5104281"><ele>193.0</ele><time>2026-03-29T14:13:10.593Z</time></trkpt><trkpt lat="45.6160539" lon="9.5104145"><ele>194.4</ele><time>2026-03-29T14:13:11.593Z</time></trkpt><trkpt lat="45.6161641" lon="9.5104072"><ele>195.8</ele><time>2026-03-29T14:13:13.593Z</time></trkpt><trkpt lat="45.6162274" lon="9.5103951"><ele>197.2</ele><time>2026-03-29T14:13:14.593Z</time></trkpt><trkpt lat="45.6163506" lon="9.5103633"><ele>198.6</ele><time>2026-03-29T14:13:16.593Z</time></trkpt><trkpt lat="45.6164659" lon="9.5103302"><ele>200.0</ele><time>2026-03-29T14:13:18.593Z</time></trkpt><trkpt lat="45.6165886" lon="9.5102175"><ele>200.0</ele><time>2026-03-29T14:13:20.593Z</time></trkpt><trkpt lat="45.6166824" lon="9.510135"><ele>200.0</ele><time>2026-03-29T14:13:22.593Z</time></trkpt><trkpt lat="45.6167715" lon="9.5100655"><ele>200.0</ele><time>2026-03-29T14:13:24.593Z</time></trkpt><trkpt lat="45.616854" lon="9.5100039"><ele>200.0</ele><time>2026-03-29T14:13:26.593Z</time></trkpt><trkpt lat="45.616946" lon="9.5099193"><ele>200.0</ele><time>2026-03-29T14:13:28.592Z</time></trkpt><trkpt lat="45.6170393" lon="9.5098536"><ele>200.6</ele><time>2026-03-29T14:13:30.593Z</time></trkpt><trkpt lat="45.617129" lon="9.5097862"><ele>201.2</ele><time>2026-03-29T14:13:32.593Z</time></trkpt><trkpt lat="45.6172271" lon="9.5096839"><ele>201.8</ele><time>2026-03-29T14:13:34.593Z</time></trkpt><trkpt lat="45.6173024" lon="9.5096067"><ele>202.4</ele><time>2026-03-29T14:13:35.593Z</time></trkpt><trkpt lat="45.6173633" lon="9.5095535"><ele>203.0</ele><time>2026-03-29T14:13:36.593Z</time></trkpt><trkpt lat="45.6174243" lon="9.5095033"><ele>203.0</ele><time>2026-03-29T14:13:37.593Z</time></trkpt><trkpt lat="45.6175208" lon="9.5094266"><ele>203.0</ele><time>2026-03-29T14:13:39.593Z</time></trkpt><trkpt lat="45.6175843" lon="9.5093738"><ele>203.0</ele><time>2026-03-29T14:13:40.593Z</time></trkpt><trkpt lat="45.6176893" lon="9.509295"><ele>203.0</ele><time>2026-03-29T14:13:42.593Z</time></trkpt><trkpt lat="45.617788" lon="9.5092101"><ele>203.0</ele><time>2026-03-29T14:13:44.593Z</time></trkpt><trkpt lat="45.6178739" lon="9.509133"><ele>202.33333333333334</ele><time>2026-03-29T14:13:46.593Z</time></trkpt><trkpt lat="45.6179366" lon="9.5091029"><ele>201.66666666666669</ele><time>2026-03-29T14:13:47.593Z</time></trkpt><trkpt lat="45.6180343" lon="9.509099"><ele>201.0</ele><time>2026-03-29T14:13:49.592Z</time></trkpt><trkpt lat="45.618091" lon="9.5091401"><ele>200.33333333333331</ele><time>2026-03-29T14:13:50.593Z</time></trkpt><trkpt lat="45.6181512" lon="9.5092599"><ele>199.66666666666666</ele><time>2026-03-29T14:13:52.593Z</time></trkpt><trkpt lat="45.6182068" lon="9.50938"><ele>199.0</ele><time>2026-03-29T14:13:54.593Z</time></trkpt><trkpt lat="45.6182948" lon="9.5094496"><ele>199.0</ele><time>2026-03-29T14:13:56.592Z</time></trkpt><trkpt lat="45.6184192" lon="9.5094921"><ele>199.0</ele><time>2026-03-29T14:13:58.593Z</time></trkpt><trkpt lat="45.6185266" lon="9.509483"><ele>199.0</ele><time>2026-03-29T14:14:00.593Z</time></trkpt><trkpt lat="45.6186222" lon="9.5094554"><ele>199.0</ele><time>2026-03-29T14:14:02.593Z</time></trkpt><trkpt lat="45.6187257" lon="9.5094099"><ele>199.0</ele><time>2026-03-29T14:14:04.593Z</time></trkpt><trkpt lat="45.6188294" lon="9.5093678"><ele>199.0</ele><time>2026-03-29T14:14:06.593Z</time></trkpt><trkpt lat="45.6189221" lon="9.5093191"><ele>199.0</ele><time>2026-03-29T14:14:08.593Z</time></trkpt><trkpt lat="45.6190217" lon="9.5092672"><ele>199.0</ele><time>2026-03-29T14:14:10.593Z</time></trkpt><trkpt lat="45.6191307" lon="9.5092408"><ele>199.0</ele><time>2026-03-29T14:14:12.593Z</time></trkpt><trkpt lat="45.6192434" lon="9.5092364"><ele>199.0</ele><time>2026-03-29T14:14:14.593Z</time></trkpt><trkpt lat="45.6193196" lon="9.5093028"><ele>199.0</ele><time>2026-03-29T14:14:16.593Z</time></trkpt><trkpt lat="45.6194061" lon="9.5093533"><ele>199.0</ele><time>2026-03-29T14:14:18.593Z</time></trkpt><trkpt lat="45.6195195" lon="9.509389"><ele>199.0</ele><time>2026-03-29T14:14:20.593Z</time></trkpt><trkpt lat="45.6196326" lon="9.5094174"><ele>199.0</ele><time>2026-03-29T14:14:22.592Z</time></trkpt><trkpt lat="45.6197249" lon="9.5094733"><ele>199.0</ele><time>2026-03-29T14:14:24.593Z</time></trkpt><trkpt lat="45.6198369" lon="9.5095265"><ele>198.79999999999998</ele><time>2026-03-29T14:14:26.592Z</time></trkpt><trkpt lat="45.6199317" lon="9.5095961"><ele>198.6</ele><time>2026-03-29T14:14:28.592Z</time></trkpt><trkpt lat="45.6200271" lon="9.5096666"><ele>198.4</ele><time>2026-03-29T14:14:30.593Z</time></trkpt><trkpt lat="45.6201203" lon="9.5097237"><ele>198.2</ele><time>2026-03-29T14:14:32.592Z</time></trkpt><trkpt lat="45.620218" lon="9.5097697"><ele>198.0</ele><time>2026-03-29T14:14:34.593Z</time></trkpt><trkpt lat="45.6203151" lon="9.5098183"><ele>198.60000000000002</ele><time>2026-03-29T14:14:36.593Z</time></trkpt><trkpt lat="45.6204109" lon="9.5098711"><ele>199.20000000000002</ele><time>2026-03-29T14:14:38.593Z</time></trkpt><trkpt lat="45.6205221" lon="9.5099166"><ele>199.8</ele><time>2026-03-29T14:14:40.593Z</time></trkpt><trkpt lat="45.6206224" lon="9.5099578"><ele>200.4</ele><time>2026-03-29T14:14:42.593Z</time></trkpt><trkpt lat="45.6207308" lon="9.5100136"><ele>201.0</ele><time>2026-03-29T14:14:44.592Z</time></trkpt><trkpt lat="45.6208432" lon="9.5100353"><ele>201.0</ele><time>2026-03-29T14:14:46.593Z</time></trkpt><trkpt lat="45.6209415" lon="9.5100665"><ele>201.0</ele><time>2026-03-29T14:14:48.593Z</time></trkpt><trkpt lat="45.6210313" lon="9.5100692"><ele>201.0</ele><time>2026-03-29T14:14:50.593Z</time></trkpt><trkpt lat="45.6211103" lon="9.5100875"><ele>201.0</ele><time>2026-03-29T14:14:52.593Z</time></trkpt><trkpt lat="45.6212145" lon="9.5101085"><ele>201.0</ele><time>2026-03-29T14:14:54.593Z</time></trkpt><trkpt lat="45.6212782" lon="9.5101134"><ele>201.0</ele><time>2026-03-29T14:14:55.593Z</time></trkpt><trkpt lat="45.6214574" lon="9.5101081"><ele>201.0</ele><time>2026-03-29T14:14:59.593Z</time></trkpt><trkpt lat="45.6215629" lon="9.5100257"><ele>201.0</ele><time>2026-03-29T14:15:01.592Z</time></trkpt><trkpt lat="45.6216436" lon="9.5099499"><ele>201.0</ele><time>2026-03-29T14:15:03.593Z</time></trkpt><trkpt lat="45.6217201" lon="9.5098732"><ele>201.0</ele><time>2026-03-29T14:15:05.593Z</time></trkpt><trkpt lat="45.6218118" lon="9.5097931"><ele>201.0</ele><time>2026-03-29T14:15:07.593Z</time></trkpt><trkpt lat="45.621906" lon="9.5096834"><ele>201.0</ele><time>2026-03-29T14:15:09.593Z</time></trkpt><trkpt lat="45.6219408" lon="9.5095928"><ele>201.0</ele><time>2026-03-29T14:15:10.593Z</time></trkpt><trkpt lat="45.6220119" lon="9.5094846"><ele>201.0</ele><time>2026-03-29T14:15:11.593Z</time></trkpt><trkpt lat="45.6220999" lon="9.5093667"><ele>201.0</ele><time>2026-03-29T14:15:13.593Z</time></trkpt><trkpt lat="45.6221625" lon="9.5093035"><ele>201.0</ele><time>2026-03-29T14:15:14.593Z</time></trkpt><trkpt lat="45.6222709" lon="9.5092458"><ele>202.5</ele><time>2026-03-29T14:15:16.593Z</time></trkpt><trkpt lat="45.6223904" lon="9.509216"><ele>204.0</ele><time>2026-03-29T14:15:18.592Z</time></trkpt><trkpt lat="45.6225098" lon="9.5091905"><ele>205.5</ele><time>2026-03-29T14:15:20.593Z</time></trkpt><trkpt lat="45.622614" lon="9.5091556"><ele>207.0</ele><time>2026-03-29T14:15:22.593Z</time></trkpt><trkpt lat="45.6227277" lon="9.5091099"><ele>208.0</ele><time>2026-03-29T14:15:24.593Z</time></trkpt><trkpt lat="45.6228231" lon="9.5090214"><ele>209.0</ele><time>2026-03-29T14:15:26.593Z</time></trkpt><trkpt lat="45.6229222" lon="9.5089739"><ele>210.0</ele><time>2026-03-29T14:15:28.593Z</time></trkpt><trkpt lat="45.6229864" lon="9.5088876"><ele>211.0</ele><time>2026-03-29T14:15:30.593Z</time></trkpt><trkpt lat="45.623061" lon="9.5087995"><ele>212.0</ele><time>2026-03-29T14:15:32.593Z</time></trkpt><trkpt lat="45.623147" lon="9.5087207"><ele>212.00000000000003</ele><time>2026-03-29T14:15:34.593Z</time></trkpt><trkpt lat="45.6232285" lon="9.508667"><ele>212.0</ele><time>2026-03-29T14:15:36.593Z</time></trkpt><trkpt lat="45.6233117" lon="9.5085531"><ele>212.0</ele><time>2026-03-29T14:15:38.593Z</time></trkpt><trkpt lat="45.623363" lon="9.5084873"><ele>212.0</ele><time>2026-03-29T14:15:39.593Z</time></trkpt><trkpt lat="45.6234026" lon="9.5084063"><ele>212.00000000000003</ele><time>2026-03-29T14:15:40.593Z</time></trkpt><trkpt lat="45.6234293" lon="9.5083195"><ele>212.0</ele><time>2026-03-29T14:15:41.593Z</time></trkpt><trkpt lat="45.6235234" lon="9.5081752"><ele>212.0</ele><time>2026-03-29T14:15:43.592Z</time></trkpt><trkpt lat="45.6235534" lon="9.5080842"><ele>212.0</ele><time>2026-03-29T14:15:44.593Z</time></trkpt><trkpt lat="45.6236069" lon="9.5079315"><ele>212.0</ele><time>2026-03-29T14:15:46.592Z</time></trkpt><trkpt lat="45.623646" lon="9.5078562"><ele>212.0</ele><time>2026-03-29T14:15:47.593Z</time></trkpt><trkpt lat="45.6236986" lon="9.5076499"><ele>212.0</ele><time>2026-03-29T14:15:49.593Z</time></trkpt><trkpt lat="45.6237932" lon="9.5075348"><ele>212.8</ele><time>2026-03-29T14:15:52.592Z</time></trkpt><trkpt lat="45.6238578" lon="9.5073844"><ele>213.6</ele><time>2026-03-29T14:15:54.593Z</time></trkpt><trkpt lat="45.6239359" lon="9.507251"><ele>214.40000000000003</ele><time>2026-03-29T14:15:56.593Z</time></trkpt><trkpt lat="45.6239569" lon="9.5071634"><ele>215.20000000000002</ele><time>2026-03-29T14:15:57.593Z</time></trkpt><trkpt lat="45.6240252" lon="9.507045"><ele>216.0</ele><time>2026-03-29T14:15:59.593Z</time></trkpt><trkpt lat="45.624107" lon="9.5069362"><ele>216.0</ele><time>2026-03-29T14:16:01.593Z</time></trkpt><trkpt lat="45.6241487" lon="9.5068599"><ele>216.00000000000003</ele><time>2026-03-29T14:16:02.593Z</time></trkpt><trkpt lat="45.624222" lon="9.5067423"><ele>216.00000000000003</ele><time>2026-03-29T14:16:04.593Z</time></trkpt><trkpt lat="45.6242819" lon="9.5066141"><ele>216.0</ele><time>2026-03-29T14:16:06.593Z</time></trkpt><trkpt lat="45.6243183" lon="9.5065406"><ele>216.0</ele><time>2026-03-29T14:16:07.593Z</time></trkpt><trkpt lat="45.6244091" lon="9.5064267"><ele>216.0</ele><time>2026-03-29T14:16:09.593Z</time></trkpt><trkpt lat="45.624458" lon="9.5063263"><ele>216.00000000000003</ele><time>2026-03-29T14:16:11.593Z</time></trkpt><trkpt lat="45.6244967" lon="9.5062467"><ele>216.00000000000003</ele><time>2026-03-29T14:16:12.593Z</time></trkpt><trkpt lat="45.6245458" lon="9.5061053"><ele>216.0</ele><time>2026-03-29T14:16:14.593Z</time></trkpt><trkpt lat="45.6246025" lon="9.5059771"><ele>216.0</ele><time>2026-03-29T14:16:16.593Z</time></trkpt><trkpt lat="45.6246569" lon="9.5058276"><ele>216.0</ele><time>2026-03-29T14:16:18.593Z</time></trkpt><trkpt lat="45.624697" lon="9.5057552"><ele>216.0</ele><time>2026-03-29T14:16:19.593Z</time></trkpt><trkpt lat="45.62474" lon="9.5056345"><ele>216.0</ele><time>2026-03-29T14:16:21.593Z</time></trkpt><trkpt lat="45.6247607" lon="9.5055376"><ele>216.0</ele><time>2026-03-29T14:16:22.593Z</time></trkpt><trkpt lat="45.6247939" lon="9.5054518"><ele>216.0</ele><time>2026-03-29T14:16:23.593Z</time></trkpt><trkpt lat="45.6248356" lon="9.5053661"><ele>216.0</ele><time>2026-03-29T14:16:24.593Z</time></trkpt><trkpt lat="45.624898" lon="9.5052201"><ele>216.0</ele><time>2026-03-29T14:16:26.593Z</time></trkpt><trkpt lat="45.6249563" lon="9.5050857"><ele>216.00000000000003</ele><time>2026-03-29T14:16:28.593Z</time></trkpt><trkpt lat="45.6250406" lon="9.5049578"><ele>216.00000000000003</ele><time>2026-03-29T14:16:30.593Z</time></trkpt><trkpt lat="45.6250664" lon="9.50486"><ele>216.0</ele><time>2026-03-29T14:16:31.593Z</time></trkpt><trkpt lat="45.6250954" lon="9.5047104"><ele>216.0</ele><time>2026-03-29T14:16:33.593Z</time></trkpt><trkpt lat="45.6251516" lon="9.5045543"><ele>216.60000000000002</ele><time>2026-03-29T14:16:35.593Z</time></trkpt><trkpt lat="45.6251819" lon="9.5044179"><ele>217.20000000000002</ele><time>2026-03-29T14:16:37.593Z</time></trkpt><trkpt lat="45.6252194" lon="9.504332"><ele>217.79999999999998</ele><time>2026-03-29T14:16:38.593Z</time></trkpt><trkpt lat="45.6252777" lon="9.5041727"><ele>218.39999999999998</ele><time>2026-03-29T14:16:40.593Z</time></trkpt><trkpt lat="45.625336" lon="9.5040121"><ele>219.0</ele><time>2026-03-29T14:16:42.593Z</time></trkpt><trkpt lat="45.6254006" lon="9.5038762"><ele>217.5</ele><time>2026-03-29T14:16:44.593Z</time></trkpt><trkpt lat="45.6254654" lon="9.5037068"><ele>216.0</ele><time>2026-03-29T14:16:46.593Z</time></trkpt><trkpt lat="45.6255484" lon="9.5035548"><ele>214.5</ele><time>2026-03-29T14:16:48.593Z</time></trkpt><trkpt lat="45.62562" lon="9.5034457"><ele>213.0</ele><time>2026-03-29T14:16:50.593Z</time></trkpt><trkpt lat="45.6257166" lon="9.5032739"><ele>213.0</ele><time>2026-03-29T14:16:52.593Z</time></trkpt><trkpt lat="45.6257972" lon="9.5031267"><ele>213.0</ele><time>2026-03-29T14:16:54.593Z</time></trkpt><trkpt lat="45.6258439" lon="9.5030461"><ele>213.0</ele><time>2026-03-29T14:16:55.593Z</time></trkpt><trkpt lat="45.6259351" lon="9.5029091"><ele>213.0</ele><time>2026-03-29T14:16:57.593Z</time></trkpt><trkpt lat="45.6260188" lon="9.5027783"><ele>212.57142857142856</ele><time>2026-03-29T14:16:59.593Z</time></trkpt><trkpt lat="45.6260577" lon="9.5026971"><ele>212.14285714285714</ele><time>2026-03-29T14:17:00.593Z</time></trkpt><trkpt lat="45.6260893" lon="9.5026159"><ele>211.71428571428572</ele><time>2026-03-29T14:17:01.593Z</time></trkpt><trkpt lat="45.6261155" lon="9.502523"><ele>211.28571428571428</ele><time>2026-03-29T14:17:02.593Z</time></trkpt><trkpt lat="45.6261492" lon="9.5024331"><ele>210.85714285714286</ele><time>2026-03-29T14:17:03.593Z</time></trkpt><trkpt lat="45.6261773" lon="9.5023498"><ele>210.42857142857142</ele><time>2026-03-29T14:17:04.593Z</time></trkpt><trkpt lat="45.6261882" lon="9.5022475"><ele>210.0</ele><time>2026-03-29T14:17:05.593Z</time></trkpt><trkpt lat="45.6262311" lon="9.5020655"><ele>210.0</ele><time>2026-03-29T14:17:07.593Z</time></trkpt><trkpt lat="45.626264" lon="9.5019875"><ele>210.0</ele><time>2026-03-29T14:17:08.593Z</time></trkpt><trkpt lat="45.6263284" lon="9.5018568"><ele>210.0</ele><time>2026-03-29T14:17:10.593Z</time></trkpt><trkpt lat="45.626372" lon="9.5017801"><ele>210.0</ele><time>2026-03-29T14:17:11.593Z</time></trkpt><trkpt lat="45.6264292" lon="9.5016515"><ele>210.0</ele><time>2026-03-29T14:17:13.593Z</time></trkpt><trkpt lat="45.626497" lon="9.501502"><ele>210.0</ele><time>2026-03-29T14:17:15.592Z</time></trkpt><trkpt lat="45.6265548" lon="9.5014171"><ele>210.0</ele><time>2026-03-29T14:17:16.592Z</time></trkpt><trkpt lat="45.6265983" lon="9.5013474"><ele>210.0</ele><time>2026-03-29T14:17:17.593Z</time></trkpt><trkpt lat="45.6266672" lon="9.5012004"><ele>210.0</ele><time>2026-03-29T14:17:19.593Z</time></trkpt><trkpt lat="45.6267084" lon="9.5011205"><ele>210.0</ele><time>2026-03-29T14:17:20.593Z</time></trkpt><trkpt lat="45.6267774" lon="9.5009872"><ele>209.83333333333334</ele><time>2026-03-29T14:17:22.593Z</time></trkpt><trkpt lat="45.6268429" lon="9.5008371"><ele>209.66666666666669</ele><time>2026-03-29T14:17:24.593Z</time></trkpt><trkpt lat="45.6268813" lon="9.500741"><ele>209.5</ele><time>2026-03-29T14:17:25.593Z</time></trkpt><trkpt lat="45.6269162" lon="9.5006581"><ele>209.33333333333334</ele><time>2026-03-29T14:17:26.593Z</time></trkpt><trkpt lat="45.6269558" lon="9.5005661"><ele>209.16666666666669</ele><time>2026-03-29T14:17:27.593Z</time></trkpt><trkpt lat="45.6269816" lon="9.5004794"><ele>209.0</ele><time>2026-03-29T14:17:28.593Z</time></trkpt><trkpt lat="45.6270111" lon="9.5003865"><ele>209.0</ele><time>2026-03-29T14:17:29.593Z</time></trkpt><trkpt lat="45.6270369" lon="9.5003015"><ele>209.0</ele><time>2026-03-29T14:17:30.593Z</time></trkpt><trkpt lat="45.627065" lon="9.5002167"><ele>209.0</ele><time>2026-03-29T14:17:31.593Z</time></trkpt><trkpt lat="45.6270912" lon="9.5001297"><ele>209.0</ele><time>2026-03-29T14:17:32.593Z</time></trkpt><trkpt lat="45.6271247" lon="9.5000439"><ele>209.0</ele><time>2026-03-29T14:17:33.593Z</time></trkpt><trkpt lat="45.6271588" lon="9.4999608"><ele>209.0</ele><time>2026-03-29T14:17:34.593Z</time></trkpt><trkpt lat="45.6272025" lon="9.4998808"><ele>209.0</ele><time>2026-03-29T14:17:35.592Z</time></trkpt><trkpt lat="45.6272428" lon="9.4998064"><ele>209.0</ele><time>2026-03-29T14:17:36.593Z</time></trkpt><trkpt lat="45.6272871" lon="9.4997175"><ele>209.0</ele><time>2026-03-29T14:17:37.593Z</time></trkpt><trkpt lat="45.6273257" lon="9.4996347"><ele>209.0</ele><time>2026-03-29T14:17:38.593Z</time></trkpt><trkpt lat="45.6273668" lon="9.4995586"><ele>209.0</ele><time>2026-03-29T14:17:39.593Z</time></trkpt><trkpt lat="45.6274092" lon="9.499477"><ele>209.0</ele><time>2026-03-29T14:17:40.592Z</time></trkpt><trkpt lat="45.6274542" lon="9.4993869"><ele>209.0</ele><time>2026-03-29T14:17:41.593Z</time></trkpt><trkpt lat="45.6274885" lon="9.4993111"><ele>209.0</ele><time>2026-03-29T14:17:42.593Z</time></trkpt><trkpt lat="45.6275289" lon="9.4992364"><ele>208.71428571428572</ele><time>2026-03-29T14:17:43.593Z</time></trkpt><trkpt lat="45.6275697" lon="9.4991608"><ele>208.42857142857142</ele><time>2026-03-29T14:17:44.593Z</time></trkpt><trkpt lat="45.6276146" lon="9.4990734"><ele>208.14285714285717</ele><time>2026-03-29T14:17:45.592Z</time></trkpt><trkpt lat="45.6276551" lon="9.4989949"><ele>207.85714285714286</ele><time>2026-03-29T14:17:46.593Z</time></trkpt><trkpt lat="45.6276955" lon="9.4989071"><ele>207.57142857142858</ele><time>2026-03-29T14:17:47.592Z</time></trkpt><trkpt lat="45.6277345" lon="9.4988341"><ele>207.2857142857143</ele><time>2026-03-29T14:17:48.592Z</time></trkpt><trkpt lat="45.6277739" lon="9.4987541"><ele>207.0</ele><time>2026-03-29T14:17:49.593Z</time></trkpt><trkpt lat="45.6278116" lon="9.4986743"><ele>207.00000000000003</ele><time>2026-03-29T14:17:50.593Z</time></trkpt><trkpt lat="45.627853" lon="9.4985903"><ele>207.0</ele><time>2026-03-29T14:17:51.592Z</time></trkpt><trkpt lat="45.6278973" lon="9.4985117"><ele>207.0</ele><time>2026-03-29T14:17:52.592Z</time></trkpt><trkpt lat="45.6279406" lon="9.4984328"><ele>207.0</ele><time>2026-03-29T14:17:53.593Z</time></trkpt><trkpt lat="45.6279825" lon="9.4983523"><ele>207.0</ele><time>2026-03-29T14:17:54.593Z</time></trkpt><trkpt lat="45.6280215" lon="9.4982683"><ele>207.00000000000003</ele><time>2026-03-29T14:17:55.592Z</time></trkpt><trkpt lat="45.6280653" lon="9.4981908"><ele>207.0</ele><time>2026-03-29T14:17:56.593Z</time></trkpt><trkpt lat="45.6281099" lon="9.4981155"><ele>207.0</ele><time>2026-03-29T14:17:57.593Z</time></trkpt><trkpt lat="45.6281563" lon="9.4980497"><ele>207.0</ele><time>2026-03-29T14:17:58.593Z</time></trkpt><trkpt lat="45.6282089" lon="9.4979759"><ele>207.0</ele><time>2026-03-29T14:17:59.593Z</time></trkpt><trkpt lat="45.6282618" lon="9.4979188"><ele>207.0</ele><time>2026-03-29T14:18:00.593Z</time></trkpt><trkpt lat="45.6283666" lon="9.4978056"><ele>207.0</ele><time>2026-03-29T14:18:02.592Z</time></trkpt><trkpt lat="45.6284181" lon="9.497747"><ele>207.0</ele><time>2026-03-29T14:18:03.593Z</time></trkpt><trkpt lat="45.6284684" lon="9.4976876"><ele>205.57142857142858</ele><time>2026-03-29T14:18:04.592Z</time></trkpt><trkpt lat="45.6285249" lon="9.4976263"><ele>204.14285714285714</ele><time>2026-03-29T14:18:05.593Z</time></trkpt><trkpt lat="45.6285709" lon="9.4975641"><ele>202.71428571428572</ele><time>2026-03-29T14:18:06.593Z</time></trkpt><trkpt lat="45.6286268" lon="9.497497"><ele>201.28571428571428</ele><time>2026-03-29T14:18:07.593Z</time></trkpt><trkpt lat="45.6286814" lon="9.4974288"><ele>199.85714285714286</ele><time>2026-03-29T14:18:08.593Z</time></trkpt><trkpt lat="45.6287269" lon="9.4973649"><ele>198.42857142857144</ele><time>2026-03-29T14:18:09.593Z</time></trkpt><trkpt lat="45.6287761" lon="9.4972983"><ele>197.0</ele><time>2026-03-29T14:18:10.592Z</time></trkpt><trkpt lat="45.62887" lon="9.4971824"><ele>201.00000000000003</ele><time>2026-03-29T14:18:12.593Z</time></trkpt><trkpt lat="45.6289489" lon="9.497061"><ele>205.0</ele><time>2026-03-29T14:18:14.593Z</time></trkpt><trkpt lat="45.6289969" lon="9.4969963"><ele>209.0</ele><time>2026-03-29T14:18:15.593Z</time></trkpt><trkpt lat="45.6290403" lon="9.4969299"><ele>213.0</ele><time>2026-03-29T14:18:16.593Z</time></trkpt><trkpt lat="45.6290901" lon="9.4968504"><ele>217.00000000000003</ele><time>2026-03-29T14:18:17.593Z</time></trkpt><trkpt lat="45.6291585" lon="9.4967139"><ele>221.0</ele><time>2026-03-29T14:18:19.592Z</time></trkpt><trkpt lat="45.6292197" lon="9.4965961"><ele>221.0</ele><time>2026-03-29T14:18:21.593Z</time></trkpt><trkpt lat="45.6292828" lon="9.4964466"><ele>221.00000000000003</ele><time>2026-03-29T14:18:23.593Z</time></trkpt><trkpt lat="45.6293197" lon="9.4963497"><ele>221.00000000000003</ele><time>2026-03-29T14:18:24.592Z</time></trkpt><trkpt lat="45.6293845" lon="9.4962007"><ele>221.0</ele><time>2026-03-29T14:18:26.593Z</time></trkpt><trkpt lat="45.6294209" lon="9.4961255"><ele>221.0</ele><time>2026-03-29T14:18:27.593Z</time></trkpt><trkpt lat="45.6294913" lon="9.4959787"><ele>219.20000000000002</ele><time>2026-03-29T14:18:29.593Z</time></trkpt><trkpt lat="45.6295541" lon="9.4958236"><ele>217.40000000000003</ele><time>2026-03-29T14:18:31.593Z</time></trkpt><trkpt lat="45.6296304" lon="9.4956716"><ele>215.6</ele><time>2026-03-29T14:18:33.593Z</time></trkpt><trkpt lat="45.6296665" lon="9.495591"><ele>213.8</ele><time>2026-03-29T14:18:34.593Z</time></trkpt><trkpt lat="45.629706" lon="9.4955145"><ele>212.0</ele><time>2026-03-29T14:18:35.593Z</time></trkpt><trkpt lat="45.6297447" lon="9.4954366"><ele>213.71428571428572</ele><time>2026-03-29T14:18:36.593Z</time></trkpt><trkpt lat="45.6297826" lon="9.4953625"><ele>215.42857142857142</ele><time>2026-03-29T14:18:37.593Z</time></trkpt><trkpt lat="45.6298223" lon="9.4952886"><ele>217.14285714285714</ele><time>2026-03-29T14:18:38.593Z</time></trkpt><trkpt lat="45.6298567" lon="9.4952111"><ele>218.85714285714286</ele><time>2026-03-29T14:18:39.592Z</time></trkpt><trkpt lat="45.6299251" lon="9.4950659"><ele>220.57142857142856</ele><time>2026-03-29T14:18:41.593Z</time></trkpt><trkpt lat="45.6299624" lon="9.4949897"><ele>222.28571428571428</ele><time>2026-03-29T14:18:42.592Z</time></trkpt><trkpt lat="45.6299996" lon="9.4949101"><ele>224.0</ele><time>2026-03-29T14:18:43.593Z</time></trkpt><trkpt lat="45.6300339" lon="9.4948336"><ele>224.00000000000003</ele><time>2026-03-29T14:18:44.593Z</time></trkpt><trkpt lat="45.6300688" lon="9.4947557"><ele>224.0</ele><time>2026-03-29T14:18:45.593Z</time></trkpt><trkpt lat="45.6301417" lon="9.4946076"><ele>224.0</ele><time>2026-03-29T14:18:47.593Z</time></trkpt><trkpt lat="45.630178" lon="9.4945298"><ele>224.0</ele><time>2026-03-29T14:18:48.593Z</time></trkpt><trkpt lat="45.6302182" lon="9.4944472"><ele>224.00000000000003</ele><time>2026-03-29T14:18:49.593Z</time></trkpt><trkpt lat="45.630257" lon="9.4943711"><ele>224.0</ele><time>2026-03-29T14:18:50.593Z</time></trkpt><trkpt lat="45.6302972" lon="9.4942999"><ele>224.50000000000003</ele><time>2026-03-29T14:18:51.593Z</time></trkpt><trkpt lat="45.6303402" lon="9.4942248"><ele>225.0</ele><time>2026-03-29T14:18:52.592Z</time></trkpt><trkpt lat="45.6303814" lon="9.4941497"><ele>225.5</ele><time>2026-03-29T14:18:53.593Z</time></trkpt><trkpt lat="45.6304245" lon="9.4940816"><ele>226.0</ele><time>2026-03-29T14:18:54.593Z</time></trkpt><trkpt lat="45.6305147" lon="9.4939548"><ele>226.50000000000003</ele><time>2026-03-29T14:18:56.592Z</time></trkpt><trkpt lat="45.6305941" lon="9.493837"><ele>227.0</ele><time>2026-03-29T14:18:58.593Z</time></trkpt><trkpt lat="45.6306683" lon="9.493704"><ele>227.0</ele><time>2026-03-29T14:19:00.593Z</time></trkpt><trkpt lat="45.630703" lon="9.4935653"><ele>227.0</ele><time>2026-03-29T14:19:02.593Z</time></trkpt><trkpt lat="45.6306979" lon="9.4934335"><ele>227.0</ele><time>2026-03-29T14:19:04.593Z</time></trkpt><trkpt lat="45.6306895" lon="9.4932988"><ele>227.0</ele><time>2026-03-29T14:19:06.593Z</time></trkpt><trkpt lat="45.6306327" lon="9.4931841"><ele>227.0</ele><time>2026-03-29T14:19:08.593Z</time></trkpt><trkpt lat="45.6305464" lon="9.4930811"><ele>227.0</ele><time>2026-03-29T14:19:10.593Z</time></trkpt><trkpt lat="45.6304416" lon="9.4930008"><ele>227.0</ele><time>2026-03-29T14:19:12.593Z</time></trkpt><trkpt lat="45.6303288" lon="9.4929171"><ele>227.0</ele><time>2026-03-29T14:19:14.593Z</time></trkpt><trkpt lat="45.6302722" lon="9.4928769"><ele>227.0</ele><time>2026-03-29T14:19:15.593Z</time></trkpt><trkpt lat="45.6301566" lon="9.4928038"><ele>227.0</ele><time>2026-03-29T14:19:17.593Z</time></trkpt><trkpt lat="45.6300974" lon="9.4927619"><ele>226.2857142857143</ele><time>2026-03-29T14:19:18.593Z</time></trkpt><trkpt lat="45.6300375" lon="9.4927201"><ele>225.5714285714286</ele><time>2026-03-29T14:19:19.593Z</time></trkpt><trkpt lat="45.6299772" lon="9.4926821"><ele>224.85714285714286</ele><time>2026-03-29T14:19:20.593Z</time></trkpt><trkpt lat="45.6299182" lon="9.4926388"><ele>224.14285714285717</ele><time>2026-03-29T14:19:21.593Z</time></trkpt><trkpt lat="45.6298504" lon="9.4926007"><ele>223.42857142857144</ele><time>2026-03-29T14:19:22.593Z</time></trkpt><trkpt lat="45.6297876" lon="9.4925514"><ele>222.71428571428572</ele><time>2026-03-29T14:19:23.593Z</time></trkpt><trkpt lat="45.6297237" lon="9.4925089"><ele>222.0</ele><time>2026-03-29T14:19:24.593Z</time></trkpt><trkpt lat="45.6296625" lon="9.4924645"><ele>222.0</ele><time>2026-03-29T14:19:25.593Z</time></trkpt><trkpt lat="45.6296021" lon="9.4924222"><ele>222.0</ele><time>2026-03-29T14:19:26.593Z</time></trkpt><trkpt lat="45.6295388" lon="9.492377"><ele>222.0</ele><time>2026-03-29T14:19:27.593Z</time></trkpt><trkpt lat="45.6294787" lon="9.4923333"><ele>222.0</ele><time>2026-03-29T14:19:28.593Z</time></trkpt><trkpt lat="45.6294119" lon="9.4922837"><ele>222.0</ele><time>2026-03-29T14:19:29.592Z</time></trkpt><trkpt lat="45.6293449" lon="9.4922416"><ele>222.0</ele><time>2026-03-29T14:19:30.593Z</time></trkpt><trkpt lat="45.6292782" lon="9.4921995"><ele>222.0</ele><time>2026-03-29T14:19:31.593Z</time></trkpt><trkpt lat="45.6292139" lon="9.492156"><ele>221.85714285714286</ele><time>2026-03-29T14:19:32.593Z</time></trkpt><trkpt lat="45.6291504" lon="9.4921059"><ele>221.71428571428572</ele><time>2026-03-29T14:19:33.593Z</time></trkpt><trkpt lat="45.6290872" lon="9.4920558"><ele>221.57142857142858</ele><time>2026-03-29T14:19:34.593Z</time></trkpt><trkpt lat="45.6290177" lon="9.4920185"><ele>221.42857142857144</ele><time>2026-03-29T14:19:35.593Z</time></trkpt><trkpt lat="45.6289545" lon="9.4919756"><ele>221.28571428571428</ele><time>2026-03-29T14:19:36.592Z</time></trkpt><trkpt lat="45.6288903" lon="9.4919281"><ele>221.14285714285717</ele><time>2026-03-29T14:19:37.593Z</time></trkpt><trkpt lat="45.6288257" lon="9.4918807"><ele>221.0</ele><time>2026-03-29T14:19:38.593Z</time></trkpt><trkpt lat="45.6287553" lon="9.4918385"><ele>221.00000000000003</ele><time>2026-03-29T14:19:39.593Z</time></trkpt><trkpt lat="45.6286897" lon="9.4917955"><ele>221.0</ele><time>2026-03-29T14:19:40.593Z</time></trkpt><trkpt lat="45.6286247" lon="9.4917433"><ele>221.0</ele><time>2026-03-29T14:19:41.593Z</time></trkpt><trkpt lat="45.6285594" lon="9.4916986"><ele>221.0</ele><time>2026-03-29T14:19:42.593Z</time></trkpt><trkpt lat="45.628493" lon="9.4916515"><ele>221.00000000000003</ele><time>2026-03-29T14:19:43.593Z</time></trkpt><trkpt lat="45.6284216" lon="9.4916057"><ele>221.0</ele><time>2026-03-29T14:19:44.592Z</time></trkpt><trkpt lat="45.6283523" lon="9.4915543"><ele>220.83333333333334</ele><time>2026-03-29T14:19:45.593Z</time></trkpt><trkpt lat="45.6282835" lon="9.4915094"><ele>220.66666666666669</ele><time>2026-03-29T14:19:46.593Z</time></trkpt><trkpt lat="45.6282128" lon="9.4914575"><ele>220.5</ele><time>2026-03-29T14:19:47.593Z</time></trkpt><trkpt lat="45.6281419" lon="9.4914138"><ele>220.33333333333331</ele><time>2026-03-29T14:19:48.593Z</time></trkpt><trkpt lat="45.6280703" lon="9.4913681"><ele>220.16666666666666</ele><time>2026-03-29T14:19:49.593Z</time></trkpt><trkpt lat="45.6280019" lon="9.4913182"><ele>220.0</ele><time>2026-03-29T14:19:50.592Z</time></trkpt><trkpt lat="45.6279366" lon="9.4912733"><ele>220.16666666666666</ele><time>2026-03-29T14:19:51.593Z</time></trkpt><trkpt lat="45.6278628" lon="9.4912182"><ele>220.33333333333331</ele><time>2026-03-29T14:19:52.593Z</time></trkpt><trkpt lat="45.6277927" lon="9.4911723"><ele>220.5</ele><time>2026-03-29T14:19:53.592Z</time></trkpt><trkpt lat="45.6277234" lon="9.4911317"><ele>220.66666666666669</ele><time>2026-03-29T14:19:54.593Z</time></trkpt><trkpt lat="45.6276527" lon="9.4910824"><ele>220.83333333333334</ele><time>2026-03-29T14:19:55.593Z</time></trkpt><trkpt lat="45.6275789" lon="9.4910321"><ele>221.0</ele><time>2026-03-29T14:19:56.593Z</time></trkpt><trkpt lat="45.6275012" lon="9.4909802"><ele>220.50000000000003</ele><time>2026-03-29T14:19:57.593Z</time></trkpt><trkpt lat="45.6274277" lon="9.4909265"><ele>220.0</ele><time>2026-03-29T14:19:58.593Z</time></trkpt><trkpt lat="45.627353" lon="9.4908686"><ele>219.5</ele><time>2026-03-29T14:19:59.593Z</time></trkpt><trkpt lat="45.6272804" lon="9.4908217"><ele>219.0</ele><time>2026-03-29T14:20:00.593Z</time></trkpt><trkpt lat="45.627212" lon="9.4907784"><ele>218.50000000000003</ele><time>2026-03-29T14:20:01.593Z</time></trkpt><trkpt lat="45.6271352" lon="9.490726"><ele>218.0</ele><time>2026-03-29T14:20:02.592Z</time></trkpt><trkpt lat="45.627066" lon="9.4906767"><ele>218.0</ele><time>2026-03-29T14:20:03.593Z</time></trkpt><trkpt lat="45.6269961" lon="9.4906311"><ele>218.0</ele><time>2026-03-29T14:20:04.593Z</time></trkpt><trkpt lat="45.6269262" lon="9.4905804"><ele>218.0</ele><time>2026-03-29T14:20:05.593Z</time></trkpt><trkpt lat="45.6268574" lon="9.490532"><ele>218.0</ele><time>2026-03-29T14:20:06.592Z</time></trkpt><trkpt lat="45.6267912" lon="9.4904903"><ele>218.0</ele><time>2026-03-29T14:20:07.593Z</time></trkpt><trkpt lat="45.6267233" lon="9.490448"><ele>218.0</ele><time>2026-03-29T14:20:08.593Z</time></trkpt><trkpt lat="45.626661" lon="9.4904067"><ele>218.0</ele><time>2026-03-29T14:20:09.593Z</time></trkpt><trkpt lat="45.6265976" lon="9.4903639"><ele>218.0</ele><time>2026-03-29T14:20:10.593Z</time></trkpt><trkpt lat="45.6265369" lon="9.4903197"><ele>218.0</ele><time>2026-03-29T14:20:11.593Z</time></trkpt><trkpt lat="45.626477" lon="9.4902777"><ele>218.0</ele><time>2026-03-29T14:20:12.593Z</time></trkpt><trkpt lat="45.6264171" lon="9.4902379"><ele>218.0</ele><time>2026-03-29T14:20:13.593Z</time></trkpt><trkpt lat="45.6263552" lon="9.490204"><ele>218.0</ele><time>2026-03-29T14:20:14.593Z</time></trkpt><trkpt lat="45.6262955" lon="9.4901658"><ele>218.0</ele><time>2026-03-29T14:20:15.593Z</time></trkpt><trkpt lat="45.6262376" lon="9.4901127"><ele>218.0</ele><time>2026-03-29T14:20:16.593Z</time></trkpt><trkpt lat="45.6261788" lon="9.4900638"><ele>218.28571428571428</ele><time>2026-03-29T14:20:17.592Z</time></trkpt><trkpt lat="45.6261153" lon="9.4900138"><ele>218.57142857142858</ele><time>2026-03-29T14:20:18.593Z</time></trkpt><trkpt lat="45.6260521" lon="9.4899651"><ele>218.85714285714283</ele><time>2026-03-29T14:20:19.593Z</time></trkpt><trkpt lat="45.6259893" lon="9.4899254"><ele>219.14285714285714</ele><time>2026-03-29T14:20:20.593Z</time></trkpt><trkpt lat="45.625923" lon="9.4898804"><ele>219.42857142857142</ele><time>2026-03-29T14:20:21.593Z</time></trkpt><trkpt lat="45.6258568" lon="9.4898326"><ele>219.7142857142857</ele><time>2026-03-29T14:20:22.593Z</time></trkpt><trkpt lat="45.6257929" lon="9.4897929"><ele>220.0</ele><time>2026-03-29T14:20:23.593Z</time></trkpt><trkpt lat="45.6257252" lon="9.4897447"><ele>219.99999999999997</ele><time>2026-03-29T14:20:24.593Z</time></trkpt><trkpt lat="45.6256589" lon="9.4897012"><ele>220.0</ele><time>2026-03-29T14:20:25.593Z</time></trkpt><trkpt lat="45.6255867" lon="9.4896577"><ele>220.0</ele><time>2026-03-29T14:20:26.593Z</time></trkpt><trkpt lat="45.6255225" lon="9.4896137"><ele>220.0</ele><time>2026-03-29T14:20:27.593Z</time></trkpt><trkpt lat="45.6254551" lon="9.4895685"><ele>220.0</ele><time>2026-03-29T14:20:28.593Z</time></trkpt><trkpt lat="45.625386" lon="9.4895238"><ele>219.99999999999997</ele><time>2026-03-29T14:20:29.593Z</time></trkpt><trkpt lat="45.6253216" lon="9.4894786"><ele>220.0</ele><time>2026-03-29T14:20:30.593Z</time></trkpt><trkpt lat="45.6252539" lon="9.4894293"><ele>219.16666666666666</ele><time>2026-03-29T14:20:31.593Z</time></trkpt><trkpt lat="45.6251885" lon="9.4893832"><ele>218.33333333333331</ele><time>2026-03-29T14:20:32.593Z</time></trkpt><trkpt lat="45.6251183" lon="9.4893387"><ele>217.5</ele><time>2026-03-29T14:20:33.593Z</time></trkpt><trkpt lat="45.6250491" lon="9.4892895"><ele>216.66666666666669</ele><time>2026-03-29T14:20:34.593Z</time></trkpt><trkpt lat="45.6249813" lon="9.4892367"><ele>215.83333333333334</ele><time>2026-03-29T14:20:35.593Z</time></trkpt><trkpt lat="45.6249124" lon="9.4891883"><ele>215.0</ele><time>2026-03-29T14:20:36.593Z</time></trkpt><trkpt lat="45.6248443" lon="9.4891441"><ele>215.0</ele><time>2026-03-29T14:20:37.593Z</time></trkpt><trkpt lat="45.6247777" lon="9.4890975"><ele>215.0</ele><time>2026-03-29T14:20:38.593Z</time></trkpt><trkpt lat="45.6247092" lon="9.4890542"><ele>215.0</ele><time>2026-03-29T14:20:39.593Z</time></trkpt><trkpt lat="45.6246439" lon="9.489008"><ele>215.0</ele><time>2026-03-29T14:20:40.593Z</time></trkpt><trkpt lat="45.6245798" lon="9.4889613"><ele>215.0</ele><time>2026-03-29T14:20:41.593Z</time></trkpt><trkpt lat="45.6245136" lon="9.4889168"><ele>215.0</ele><time>2026-03-29T14:20:42.593Z</time></trkpt><trkpt lat="45.6244442" lon="9.488876"><ele>215.0</ele><time>2026-03-29T14:20:43.593Z</time></trkpt><trkpt lat="45.6243763" lon="9.4888336"><ele>215.0</ele><time>2026-03-29T14:20:44.593Z</time></trkpt><trkpt lat="45.6243103" lon="9.4887874"><ele>215.0</ele><time>2026-03-29T14:20:45.593Z</time></trkpt><trkpt lat="45.6242446" lon="9.4887385"><ele>215.0</ele><time>2026-03-29T14:20:46.593Z</time></trkpt><trkpt lat="45.6241786" lon="9.4886878"><ele>215.0</ele><time>2026-03-29T14:20:47.592Z</time></trkpt><trkpt lat="45.6241144" lon="9.4886468"><ele>215.0</ele><time>2026-03-29T14:20:48.593Z</time></trkpt><trkpt lat="45.6240489" lon="9.4886035"><ele>215.0</ele><time>2026-03-29T14:20:49.593Z</time></trkpt><trkpt lat="45.6239797" lon="9.4885592"><ele>215.0</ele><time>2026-03-29T14:20:50.593Z</time></trkpt><trkpt lat="45.6239169" lon="9.4885138"><ele>215.0</ele><time>2026-03-29T14:20:51.593Z</time></trkpt><trkpt lat="45.6238482" lon="9.4884733"><ele>215.0</ele><time>2026-03-29T14:20:52.593Z</time></trkpt><trkpt lat="45.6237829" lon="9.4884326"><ele>215.0</ele><time>2026-03-29T14:20:53.593Z</time></trkpt><trkpt lat="45.6237142" lon="9.4883895"><ele>215.0</ele><time>2026-03-29T14:20:54.593Z</time></trkpt><trkpt lat="45.6236506" lon="9.4883522"><ele>215.0</ele><time>2026-03-29T14:20:55.593Z</time></trkpt><trkpt lat="45.6235886" lon="9.4883003"><ele>215.0</ele><time>2026-03-29T14:20:56.593Z</time></trkpt><trkpt lat="45.6235245" lon="9.4882462"><ele>215.0</ele><time>2026-03-29T14:20:57.593Z</time></trkpt><trkpt lat="45.6234642" lon="9.4882084"><ele>215.28571428571428</ele><time>2026-03-29T14:20:58.592Z</time></trkpt><trkpt lat="45.6234019" lon="9.4881609"><ele>215.57142857142858</ele><time>2026-03-29T14:20:59.593Z</time></trkpt><trkpt lat="45.6233378" lon="9.4881186"><ele>215.85714285714286</ele><time>2026-03-29T14:21:00.593Z</time></trkpt><trkpt lat="45.6232745" lon="9.4880729"><ele>216.14285714285714</ele><time>2026-03-29T14:21:01.593Z</time></trkpt><trkpt lat="45.6232078" lon="9.4880294"><ele>216.42857142857144</ele><time>2026-03-29T14:21:02.593Z</time></trkpt><trkpt lat="45.6231448" lon="9.4879849"><ele>216.71428571428572</ele><time>2026-03-29T14:21:03.592Z</time></trkpt><trkpt lat="45.6230796" lon="9.487941"><ele>217.0</ele><time>2026-03-29T14:21:04.593Z</time></trkpt><trkpt lat="45.6230124" lon="9.4878957"><ele>217.14285714285714</ele><time>2026-03-29T14:21:05.593Z</time></trkpt><trkpt lat="45.6229482" lon="9.4878505"><ele>217.28571428571428</ele><time>2026-03-29T14:21:06.593Z</time></trkpt><trkpt lat="45.6228863" lon="9.4878075"><ele>217.42857142857144</ele><time>2026-03-29T14:21:07.593Z</time></trkpt><trkpt lat="45.6228217" lon="9.487767"><ele>217.57142857142856</ele><time>2026-03-29T14:21:08.593Z</time></trkpt><trkpt lat="45.6227568" lon="9.4877204"><ele>217.71428571428572</ele><time>2026-03-29T14:21:09.593Z</time></trkpt><trkpt lat="45.6226931" lon="9.4876724"><ele>217.85714285714286</ele><time>2026-03-29T14:21:10.593Z</time></trkpt><trkpt lat="45.6226253" lon="9.4876228"><ele>218.0</ele><time>2026-03-29T14:21:11.593Z</time></trkpt><trkpt lat="45.6225612" lon="9.4875784"><ele>217.28571428571428</ele><time>2026-03-29T14:21:12.593Z</time></trkpt><trkpt lat="45.6224941" lon="9.4875302"><ele>216.57142857142858</ele><time>2026-03-29T14:21:13.593Z</time></trkpt><trkpt lat="45.6224261" lon="9.4874789"><ele>215.85714285714283</ele><time>2026-03-29T14:21:14.593Z</time></trkpt><trkpt lat="45.6223587" lon="9.4874347"><ele>215.14285714285714</ele><time>2026-03-29T14:21:15.593Z</time></trkpt><trkpt lat="45.6222943" lon="9.4873899"><ele>214.42857142857142</ele><time>2026-03-29T14:21:16.593Z</time></trkpt><trkpt lat="45.6222289" lon="9.4873479"><ele>213.7142857142857</ele><time>2026-03-29T14:21:17.593Z</time></trkpt><trkpt lat="45.62216" lon="9.4873033"><ele>213.0</ele><time>2026-03-29T14:21:18.593Z</time></trkpt><trkpt lat="45.6220892" lon="9.4872529"><ele>213.0</ele><time>2026-03-29T14:21:19.593Z</time></trkpt><trkpt lat="45.6220225" lon="9.4871977"><ele>213.0</ele><time>2026-03-29T14:21:20.593Z</time></trkpt><trkpt lat="45.6219515" lon="9.4871472"><ele>213.0</ele><time>2026-03-29T14:21:21.593Z</time></trkpt><trkpt lat="45.621881" lon="9.4871024"><ele>213.0</ele><time>2026-03-29T14:21:22.593Z</time></trkpt><trkpt lat="45.6218125" lon="9.4870588"><ele>213.0</ele><time>2026-03-29T14:21:23.593Z</time></trkpt><trkpt lat="45.6217394" lon="9.4870051"><ele>213.0</ele><time>2026-03-29T14:21:24.593Z</time></trkpt><trkpt lat="45.6216716" lon="9.48696"><ele>213.0</ele><time>2026-03-29T14:21:25.592Z</time></trkpt><trkpt lat="45.621603" lon="9.4869103"><ele>213.0</ele><time>2026-03-29T14:21:26.593Z</time></trkpt><trkpt lat="45.6215364" lon="9.4868638"><ele>213.0</ele><time>2026-03-29T14:21:27.593Z</time></trkpt><trkpt lat="45.6214627" lon="9.4868214"><ele>213.0</ele><time>2026-03-29T14:21:28.593Z</time></trkpt><trkpt lat="45.6213912" lon="9.4867781"><ele>213.0</ele><time>2026-03-29T14:21:29.593Z</time></trkpt><trkpt lat="45.6213137" lon="9.4867395"><ele>213.0</ele><time>2026-03-29T14:21:30.593Z</time></trkpt><trkpt lat="45.6212375" lon="9.4867093"><ele>213.0</ele><time>2026-03-29T14:21:31.593Z</time></trkpt><trkpt lat="45.6211631" lon="9.4866871"><ele>213.0</ele><time>2026-03-29T14:21:32.593Z</time></trkpt><trkpt lat="45.6210849" lon="9.4866741"><ele>213.0</ele><time>2026-03-29T14:21:33.593Z</time></trkpt><trkpt lat="45.6210084" lon="9.4866626"><ele>213.0</ele><time>2026-03-29T14:21:34.593Z</time></trkpt><trkpt lat="45.6209245" lon="9.4866463"><ele>213.0</ele><time>2026-03-29T14:21:35.593Z</time></trkpt><trkpt lat="45.6208451" lon="9.4866384"><ele>213.0</ele><time>2026-03-29T14:21:36.593Z</time></trkpt><trkpt lat="45.6207687" lon="9.4866278"><ele>212.83333333333334</ele><time>2026-03-29T14:21:37.593Z</time></trkpt><trkpt lat="45.6206885" lon="9.4866253"><ele>212.66666666666669</ele><time>2026-03-29T14:21:38.593Z</time></trkpt><trkpt lat="45.6206125" lon="9.4866212"><ele>212.5</ele><time>2026-03-29T14:21:39.593Z</time></trkpt><trkpt lat="45.6205358" lon="9.4866082"><ele>212.33333333333334</ele><time>2026-03-29T14:21:40.593Z</time></trkpt><trkpt lat="45.6204648" lon="9.4865936"><ele>212.16666666666669</ele><time>2026-03-29T14:21:41.593Z</time></trkpt><trkpt lat="45.6203894" lon="9.4865835"><ele>212.0</ele><time>2026-03-29T14:21:42.593Z</time></trkpt><trkpt lat="45.6203106" lon="9.4865725"><ele>212.00000000000003</ele><time>2026-03-29T14:21:43.593Z</time></trkpt><trkpt lat="45.6202318" lon="9.4865636"><ele>212.0</ele><time>2026-03-29T14:21:44.593Z</time></trkpt><trkpt lat="45.6201535" lon="9.4865517"><ele>212.0</ele><time>2026-03-29T14:21:45.593Z</time></trkpt><trkpt lat="45.6200768" lon="9.4865436"><ele>212.0</ele><time>2026-03-29T14:21:46.593Z</time></trkpt><trkpt lat="45.6199972" lon="9.4865335"><ele>212.00000000000003</ele><time>2026-03-29T14:21:47.593Z</time></trkpt><trkpt lat="45.6199211" lon="9.4865243"><ele>212.0</ele><time>2026-03-29T14:21:48.593Z</time></trkpt><trkpt lat="45.6198452" lon="9.4865187"><ele>212.00000000000003</ele><time>2026-03-29T14:21:49.593Z</time></trkpt><trkpt lat="45.6197698" lon="9.4865122"><ele>212.0</ele><time>2026-03-29T14:21:50.593Z</time></trkpt><trkpt lat="45.6196933" lon="9.486502"><ele>212.0</ele><time>2026-03-29T14:21:51.593Z</time></trkpt><trkpt lat="45.6196158" lon="9.4864952"><ele>212.0</ele><time>2026-03-29T14:21:52.593Z</time></trkpt><trkpt lat="45.6195406" lon="9.4864811"><ele>212.00000000000003</ele><time>2026-03-29T14:21:53.593Z</time></trkpt><trkpt lat="45.6194593" lon="9.4864696"><ele>212.0</ele><time>2026-03-29T14:21:54.593Z</time></trkpt><trkpt lat="45.6193798" lon="9.4864566"><ele>211.50000000000003</ele><time>2026-03-29T14:21:55.593Z</time></trkpt><trkpt lat="45.6193016" lon="9.4864491"><ele>211.0</ele><time>2026-03-29T14:21:56.593Z</time></trkpt><trkpt lat="45.6192218" lon="9.4864355"><ele>210.5</ele><time>2026-03-29T14:21:57.593Z</time></trkpt><trkpt lat="45.619147" lon="9.4864232"><ele>210.0</ele><time>2026-03-29T14:21:58.593Z</time></trkpt><trkpt lat="45.6190645" lon="9.486404"><ele>209.50000000000003</ele><time>2026-03-29T14:21:59.593Z</time></trkpt><trkpt lat="45.6189871" lon="9.4863886"><ele>209.0</ele><time>2026-03-29T14:22:00.593Z</time></trkpt><trkpt lat="45.6189055" lon="9.4863779"><ele>209.00000000000003</ele><time>2026-03-29T14:22:01.593Z</time></trkpt><trkpt lat="45.6188298" lon="9.486368"><ele>209.0</ele><time>2026-03-29T14:22:02.593Z</time></trkpt><trkpt lat="45.6187497" lon="9.4863585"><ele>209.0</ele><time>2026-03-29T14:22:03.593Z</time></trkpt><trkpt lat="45.6186698" lon="9.4863396"><ele>209.0</ele><time>2026-03-29T14:22:04.593Z</time></trkpt><trkpt lat="45.6185915" lon="9.486326"><ele>209.00000000000003</ele><time>2026-03-29T14:22:05.593Z</time></trkpt><trkpt lat="45.6185164" lon="9.4863118"><ele>209.0</ele><time>2026-03-29T14:22:06.593Z</time></trkpt><trkpt lat="45.6184404" lon="9.4863021"><ele>208.83333333333334</ele><time>2026-03-29T14:22:07.593Z</time></trkpt><trkpt lat="45.6183699" lon="9.486294"><ele>208.66666666666669</ele><time>2026-03-29T14:22:08.593Z</time></trkpt><trkpt lat="45.6182929" lon="9.486286"><ele>208.5</ele><time>2026-03-29T14:22:09.593Z</time></trkpt><trkpt lat="45.6182211" lon="9.4862745"><ele>208.33333333333331</ele><time>2026-03-29T14:22:10.593Z</time></trkpt><trkpt lat="45.6181525" lon="9.4862707"><ele>208.16666666666666</ele><time>2026-03-29T14:22:11.593Z</time></trkpt><trkpt lat="45.6180856" lon="9.486269"><ele>208.0</ele><time>2026-03-29T14:22:12.593Z</time></trkpt><trkpt lat="45.617975" lon="9.48624"><ele>208.0</ele><time>2026-03-29T14:22:14.592Z</time></trkpt><trkpt lat="45.6179014" lon="9.4861752"><ele>208.0</ele><time>2026-03-29T14:22:16.593Z</time></trkpt><trkpt lat="45.6178618" lon="9.4860731"><ele>208.0</ele><time>2026-03-29T14:22:18.592Z</time></trkpt><trkpt lat="45.6178508" lon="9.4859226"><ele>208.0</ele><time>2026-03-29T14:22:20.593Z</time></trkpt><trkpt lat="45.6178695" lon="9.4857738"><ele>208.0</ele><time>2026-03-29T14:22:22.593Z</time></trkpt><trkpt lat="45.6178853" lon="9.4856177"><ele>208.0</ele><time>2026-03-29T14:22:24.593Z</time></trkpt><trkpt lat="45.6178361" lon="9.4854726"><ele>208.0</ele><time>2026-03-29T14:22:26.593Z</time></trkpt><trkpt lat="45.6177555" lon="9.4853413"><ele>208.0</ele><time>2026-03-29T14:22:28.593Z</time></trkpt><trkpt lat="45.617715" lon="9.4852722"><ele>208.0</ele><time>2026-03-29T14:22:29.593Z</time></trkpt><trkpt lat="45.6176636" lon="9.4851081"><ele>208.0</ele><time>2026-03-29T14:22:31.593Z</time></trkpt><trkpt lat="45.6176494" lon="9.4849368"><ele>208.2</ele><time>2026-03-29T14:22:33.593Z</time></trkpt><trkpt lat="45.6176379" lon="9.4848404"><ele>208.4</ele><time>2026-03-29T14:22:34.593Z</time></trkpt><trkpt lat="45.6176242" lon="9.4847471"><ele>208.6</ele><time>2026-03-29T14:22:35.592Z</time></trkpt><trkpt lat="45.6176124" lon="9.4845732"><ele>208.79999999999998</ele><time>2026-03-29T14:22:37.593Z</time></trkpt><trkpt lat="45.6176047" lon="9.4844807"><ele>209.0</ele><time>2026-03-29T14:22:38.593Z</time></trkpt><trkpt lat="45.6175887" lon="9.484299"><ele>209.00000000000003</ele><time>2026-03-29T14:22:40.593Z</time></trkpt><trkpt lat="45.6175788" lon="9.4842099"><ele>209.0</ele><time>2026-03-29T14:22:41.593Z</time></trkpt><trkpt lat="45.6175715" lon="9.4841188"><ele>209.0</ele><time>2026-03-29T14:22:42.593Z</time></trkpt><trkpt lat="45.6175639" lon="9.4839403"><ele>209.0</ele><time>2026-03-29T14:22:44.593Z</time></trkpt><trkpt lat="45.6175558" lon="9.4838499"><ele>209.00000000000003</ele><time>2026-03-29T14:22:45.593Z</time></trkpt><trkpt lat="45.6175347" lon="9.4836715"><ele>209.0</ele><time>2026-03-29T14:22:47.593Z</time></trkpt><trkpt lat="45.6175224" lon="9.4835795"><ele>209.0</ele><time>2026-03-29T14:22:48.593Z</time></trkpt><trkpt lat="45.6175176" lon="9.4834888"><ele>209.0</ele><time>2026-03-29T14:22:49.593Z</time></trkpt><trkpt lat="45.6175031" lon="9.4833059"><ele>209.0</ele><time>2026-03-29T14:22:51.593Z</time></trkpt><trkpt lat="45.6174909" lon="9.4831243"><ele>209.0</ele><time>2026-03-29T14:22:53.593Z</time></trkpt><trkpt lat="45.6174821" lon="9.4830297"><ele>209.0</ele><time>2026-03-29T14:22:54.593Z</time></trkpt><trkpt lat="45.6174714" lon="9.4829387"><ele>208.83333333333334</ele><time>2026-03-29T14:22:55.593Z</time></trkpt><trkpt lat="45.6174585" lon="9.4827577"><ele>208.66666666666669</ele><time>2026-03-29T14:22:57.593Z</time></trkpt><trkpt lat="45.61745" lon="9.4826585"><ele>208.5</ele><time>2026-03-29T14:22:58.593Z</time></trkpt><trkpt lat="45.6174423" lon="9.4825676"><ele>208.33333333333331</ele><time>2026-03-29T14:22:59.593Z</time></trkpt><trkpt lat="45.6174359" lon="9.4824738"><ele>208.16666666666666</ele><time>2026-03-29T14:23:00.593Z</time></trkpt><trkpt lat="45.6174301" lon="9.4823747"><ele>208.0</ele><time>2026-03-29T14:23:01.593Z</time></trkpt><trkpt lat="45.6174256" lon="9.4822794"><ele>208.0</ele><time>2026-03-29T14:23:02.593Z</time></trkpt><trkpt lat="45.6174151" lon="9.4821802"><ele>208.0</ele><time>2026-03-29T14:23:03.593Z</time></trkpt><trkpt lat="45.6174055" lon="9.4820788"><ele>208.0</ele><time>2026-03-29T14:23:04.593Z</time></trkpt><trkpt lat="45.6173977" lon="9.4819863"><ele>208.0</ele><time>2026-03-29T14:23:05.593Z</time></trkpt><trkpt lat="45.6173879" lon="9.4818911"><ele>208.0</ele><time>2026-03-29T14:23:06.593Z</time></trkpt><trkpt lat="45.6173778" lon="9.4817973"><ele>208.0</ele><time>2026-03-29T14:23:07.593Z</time></trkpt><trkpt lat="45.6173715" lon="9.4816975"><ele>208.0</ele><time>2026-03-29T14:23:08.593Z</time></trkpt><trkpt lat="45.6173605" lon="9.4815977"><ele>207.85714285714286</ele><time>2026-03-29T14:23:09.593Z</time></trkpt><trkpt lat="45.6173509" lon="9.481502"><ele>207.71428571428572</ele><time>2026-03-29T14:23:10.593Z</time></trkpt><trkpt lat="45.6173412" lon="9.4814074"><ele>207.57142857142858</ele><time>2026-03-29T14:23:11.593Z</time></trkpt><trkpt lat="45.617337" lon="9.4813084"><ele>207.42857142857144</ele><time>2026-03-29T14:23:12.593Z</time></trkpt><trkpt lat="45.6173287" lon="9.4812073"><ele>207.28571428571428</ele><time>2026-03-29T14:23:13.593Z</time></trkpt><trkpt lat="45.6173191" lon="9.4811097"><ele>207.14285714285717</ele><time>2026-03-29T14:23:14.593Z</time></trkpt><trkpt lat="45.617309" lon="9.481017"><ele>207.0</ele><time>2026-03-29T14:23:15.593Z</time></trkpt><trkpt lat="45.6173032" lon="9.4809173"><ele>207.00000000000003</ele><time>2026-03-29T14:23:16.593Z</time></trkpt><trkpt lat="45.617296" lon="9.4808153"><ele>207.0</ele><time>2026-03-29T14:23:17.593Z</time></trkpt><trkpt lat="45.617288" lon="9.4807215"><ele>207.0</ele><time>2026-03-29T14:23:18.593Z</time></trkpt><trkpt lat="45.617276" lon="9.4806223"><ele>207.0</ele><time>2026-03-29T14:23:19.593Z</time></trkpt><trkpt lat="45.6172656" lon="9.4805234"><ele>207.0</ele><time>2026-03-29T14:23:20.593Z</time></trkpt><trkpt lat="45.6172612" lon="9.4804203"><ele>207.00000000000003</ele><time>2026-03-29T14:23:21.593Z</time></trkpt><trkpt lat="45.6172513" lon="9.4803237"><ele>207.0</ele><time>2026-03-29T14:23:22.593Z</time></trkpt><trkpt lat="45.6172422" lon="9.4802222"><ele>207.00000000000003</ele><time>2026-03-29T14:23:23.593Z</time></trkpt><trkpt lat="45.617232" lon="9.4801283"><ele>207.0</ele><time>2026-03-29T14:23:24.593Z</time></trkpt><trkpt lat="45.6172247" lon="9.4800309"><ele>207.0</ele><time>2026-03-29T14:23:25.593Z</time></trkpt><trkpt lat="45.617212" lon="9.4799322"><ele>207.0</ele><time>2026-03-29T14:23:26.593Z</time></trkpt><trkpt lat="45.6171994" lon="9.4798326"><ele>207.0</ele><time>2026-03-29T14:23:27.593Z</time></trkpt><trkpt lat="45.6171919" lon="9.4797327"><ele>207.00000000000003</ele><time>2026-03-29T14:23:28.593Z</time></trkpt><trkpt lat="45.6171835" lon="9.4796363"><ele>207.0</ele><time>2026-03-29T14:23:29.593Z</time></trkpt><trkpt lat="45.6171787" lon="9.4795405"><ele>207.71428571428572</ele><time>2026-03-29T14:23:30.593Z</time></trkpt><trkpt lat="45.6171719" lon="9.4794441"><ele>208.42857142857144</ele><time>2026-03-29T14:23:31.593Z</time></trkpt><trkpt lat="45.6171645" lon="9.4793427"><ele>209.14285714285717</ele><time>2026-03-29T14:23:32.592Z</time></trkpt><trkpt lat="45.6171532" lon="9.479246"><ele>209.85714285714286</ele><time>2026-03-29T14:23:33.593Z</time></trkpt><trkpt lat="45.6171529" lon="9.4791485"><ele>210.57142857142856</ele><time>2026-03-29T14:23:34.593Z</time></trkpt><trkpt lat="45.6171483" lon="9.4790495"><ele>211.2857142857143</ele><time>2026-03-29T14:23:35.592Z</time></trkpt><trkpt lat="45.6171372" lon="9.4789519"><ele>212.0</ele><time>2026-03-29T14:23:36.593Z</time></trkpt><trkpt lat="45.6171232" lon="9.4788565"><ele>211.71428571428572</ele><time>2026-03-29T14:23:37.592Z</time></trkpt><trkpt lat="45.6171131" lon="9.4787633"><ele>211.42857142857142</ele><time>2026-03-29T14:23:38.593Z</time></trkpt><trkpt lat="45.6171048" lon="9.4786639"><ele>211.14285714285714</ele><time>2026-03-29T14:23:39.593Z</time></trkpt><trkpt lat="45.6170972" lon="9.4785611"><ele>210.85714285714286</ele><time>2026-03-29T14:23:40.593Z</time></trkpt><trkpt lat="45.6170911" lon="9.4784691"><ele>210.57142857142856</ele><time>2026-03-29T14:23:41.593Z</time></trkpt><trkpt lat="45.6170829" lon="9.4783755"><ele>210.28571428571428</ele><time>2026-03-29T14:23:42.593Z</time></trkpt><trkpt lat="45.6170697" lon="9.4782804"><ele>210.0</ele><time>2026-03-29T14:23:43.593Z</time></trkpt><trkpt lat="45.6170619" lon="9.4781827"><ele>210.0</ele><time>2026-03-29T14:23:44.593Z</time></trkpt><trkpt lat="45.6170516" lon="9.4780815"><ele>210.0</ele><time>2026-03-29T14:23:45.593Z</time></trkpt><trkpt lat="45.61704" lon="9.4779819"><ele>210.0</ele><time>2026-03-29T14:23:46.593Z</time></trkpt><trkpt lat="45.6170302" lon="9.4778791"><ele>210.0</ele><time>2026-03-29T14:23:47.593Z</time></trkpt><trkpt lat="45.6170188" lon="9.4777845"><ele>210.0</ele><time>2026-03-29T14:23:48.593Z</time></trkpt><trkpt lat="45.6170072" lon="9.4776833"><ele>210.0</ele><time>2026-03-29T14:23:49.592Z</time></trkpt><trkpt lat="45.617" lon="9.4775833"><ele>210.0</ele><time>2026-03-29T14:23:50.593Z</time></trkpt><trkpt lat="45.6169955" lon="9.4774831"><ele>210.0</ele><time>2026-03-29T14:23:51.593Z</time></trkpt><trkpt lat="45.6169921" lon="9.4773826"><ele>210.0</ele><time>2026-03-29T14:23:52.593Z</time></trkpt><trkpt lat="45.6169876" lon="9.4772789"><ele>210.0</ele><time>2026-03-29T14:23:53.593Z</time></trkpt><trkpt lat="45.6169772" lon="9.4771806"><ele>210.0</ele><time>2026-03-29T14:23:54.593Z</time></trkpt><trkpt lat="45.6169696" lon="9.4770803"><ele>210.0</ele><time>2026-03-29T14:23:55.593Z</time></trkpt><trkpt lat="45.616964" lon="9.476975"><ele>210.0</ele><time>2026-03-29T14:23:56.593Z</time></trkpt><trkpt lat="45.6169501" lon="9.4768794"><ele>210.0</ele><time>2026-03-29T14:23:57.593Z</time></trkpt><trkpt lat="45.6169434" lon="9.4767808"><ele>209.66666666666666</ele><time>2026-03-29T14:23:58.593Z</time></trkpt><trkpt lat="45.6169414" lon="9.4766864"><ele>209.33333333333331</ele><time>2026-03-29T14:23:59.592Z</time></trkpt><trkpt lat="45.6169457" lon="9.4765897"><ele>209.0</ele><time>2026-03-29T14:24:00.593Z</time></trkpt><trkpt lat="45.6169516" lon="9.4764976"><ele>208.66666666666666</ele><time>2026-03-29T14:24:01.593Z</time></trkpt><trkpt lat="45.6169493" lon="9.4763185"><ele>208.33333333333331</ele><time>2026-03-29T14:24:03.593Z</time></trkpt><trkpt lat="45.6168798" lon="9.4761955"><ele>208.0</ele><time>2026-03-29T14:24:05.593Z</time></trkpt><trkpt lat="45.6167705" lon="9.4761698"><ele>207.99999999999997</ele><time>2026-03-29T14:24:07.593Z</time></trkpt><trkpt lat="45.6166452" lon="9.4761712"><ele>208.0</ele><time>2026-03-29T14:24:09.593Z</time></trkpt><trkpt lat="45.6165769" lon="9.4761609"><ele>208.0</ele><time>2026-03-29T14:24:10.592Z</time></trkpt><trkpt lat="45.6165171" lon="9.4761327"><ele>208.0</ele><time>2026-03-29T14:24:11.593Z</time></trkpt><trkpt lat="45.6164515" lon="9.4761037"><ele>207.99999999999997</ele><time>2026-03-29T14:24:12.593Z</time></trkpt><trkpt lat="45.6163855" lon="9.4760742"><ele>208.0</ele><time>2026-03-29T14:24:13.593Z</time></trkpt><trkpt lat="45.6163204" lon="9.4760444"><ele>208.0</ele><time>2026-03-29T14:24:14.593Z</time></trkpt><trkpt lat="45.6162534" lon="9.4760166"><ele>208.0</ele><time>2026-03-29T14:24:15.593Z</time></trkpt><trkpt lat="45.6161873" lon="9.4759845"><ele>208.0</ele><time>2026-03-29T14:24:16.592Z</time></trkpt><trkpt lat="45.6161198" lon="9.475953"><ele>208.0</ele><time>2026-03-29T14:24:17.593Z</time></trkpt><trkpt lat="45.6160544" lon="9.4759165"><ele>208.0</ele><time>2026-03-29T14:24:18.592Z</time></trkpt><trkpt lat="45.6159875" lon="9.4758827"><ele>208.0</ele><time>2026-03-29T14:24:19.593Z</time></trkpt><trkpt lat="45.6159235" lon="9.4758521"><ele>208.0</ele><time>2026-03-29T14:24:20.593Z</time></trkpt><trkpt lat="45.6158602" lon="9.4758249"><ele>207.85714285714286</ele><time>2026-03-29T14:24:21.593Z</time></trkpt><trkpt lat="45.6157962" lon="9.4757963"><ele>207.71428571428572</ele><time>2026-03-29T14:24:22.593Z</time></trkpt><trkpt lat="45.6157322" lon="9.4757709"><ele>207.57142857142858</ele><time>2026-03-29T14:24:23.592Z</time></trkpt><trkpt lat="45.615667" lon="9.4757465"><ele>207.42857142857144</ele><time>2026-03-29T14:24:24.593Z</time></trkpt><trkpt lat="45.6156011" lon="9.4757173"><ele>207.28571428571428</ele><time>2026-03-29T14:24:25.593Z</time></trkpt><trkpt lat="45.6155304" lon="9.4756902"><ele>207.14285714285717</ele><time>2026-03-29T14:24:26.593Z</time></trkpt><trkpt lat="45.6154672" lon="9.4756593"><ele>207.0</ele><time>2026-03-29T14:24:27.593Z</time></trkpt><trkpt lat="45.6154004" lon="9.475631"><ele>207.0</ele><time>2026-03-29T14:24:28.593Z</time></trkpt><trkpt lat="45.6153355" lon="9.4756017"><ele>207.0</ele><time>2026-03-29T14:24:29.593Z</time></trkpt><trkpt lat="45.6152709" lon="9.4755718"><ele>207.0</ele><time>2026-03-29T14:24:30.593Z</time></trkpt><trkpt lat="45.6151484" lon="9.4755089"><ele>207.0</ele><time>2026-03-29T14:24:32.593Z</time></trkpt><trkpt lat="45.6150847" lon="9.4754826"><ele>207.0</ele><time>2026-03-29T14:24:33.593Z</time></trkpt><trkpt lat="45.6150164" lon="9.4754511"><ele>207.0</ele><time>2026-03-29T14:24:34.593Z</time></trkpt><trkpt lat="45.6149502" lon="9.4754183"><ele>206.85714285714286</ele><time>2026-03-29T14:24:35.593Z</time></trkpt><trkpt lat="45.6148845" lon="9.4753982"><ele>206.71428571428572</ele><time>2026-03-29T14:24:36.593Z</time></trkpt><trkpt lat="45.6148163" lon="9.4753748"><ele>206.57142857142856</ele><time>2026-03-29T14:24:37.593Z</time></trkpt><trkpt lat="45.6147514" lon="9.4753372"><ele>206.42857142857144</ele><time>2026-03-29T14:24:38.593Z</time></trkpt><trkpt lat="45.6146874" lon="9.4752992"><ele>206.28571428571428</ele><time>2026-03-29T14:24:39.593Z</time></trkpt><trkpt lat="45.6146243" lon="9.4752621"><ele>206.14285714285714</ele><time>2026-03-29T14:24:40.593Z</time></trkpt><trkpt lat="45.6145604" lon="9.4752359"><ele>206.0</ele><time>2026-03-29T14:24:41.593Z</time></trkpt><trkpt lat="45.6144954" lon="9.4752087"><ele>205.99999999999997</ele><time>2026-03-29T14:24:42.593Z</time></trkpt><trkpt lat="45.6144306" lon="9.4751822"><ele>206.0</ele><time>2026-03-29T14:24:43.593Z</time></trkpt><trkpt lat="45.6143633" lon="9.4751502"><ele>206.0</ele><time>2026-03-29T14:24:44.593Z</time></trkpt><trkpt lat="45.6142981" lon="9.4751182"><ele>206.0</ele><time>2026-03-29T14:24:45.593Z</time></trkpt><trkpt lat="45.6142325" lon="9.4750908"><ele>206.0</ele><time>2026-03-29T14:24:46.593Z</time></trkpt><trkpt lat="45.614164" lon="9.4750648"><ele>205.99999999999997</ele><time>2026-03-29T14:24:47.593Z</time></trkpt><trkpt lat="45.6140998" lon="9.4750291"><ele>206.0</ele><time>2026-03-29T14:24:48.593Z</time></trkpt><trkpt lat="45.614033" lon="9.4749921"><ele>205.99999999999997</ele><time>2026-03-29T14:24:49.593Z</time></trkpt><trkpt lat="45.613971" lon="9.4749547"><ele>206.0</ele><time>2026-03-29T14:24:50.593Z</time></trkpt><trkpt lat="45.6139048" lon="9.474913"><ele>206.0</ele><time>2026-03-29T14:24:51.593Z</time></trkpt><trkpt lat="45.61384" lon="9.4748634"><ele>206.0</ele><time>2026-03-29T14:24:52.593Z</time></trkpt><trkpt lat="45.6137805" lon="9.4748067"><ele>206.0</ele><time>2026-03-29T14:24:53.593Z</time></trkpt><trkpt lat="45.6137293" lon="9.4747494"><ele>205.99999999999997</ele><time>2026-03-29T14:24:54.593Z</time></trkpt><trkpt lat="45.613679" lon="9.4746833"><ele>206.0</ele><time>2026-03-29T14:24:55.593Z</time></trkpt><trkpt lat="45.6136329" lon="9.4746162"><ele>205.7142857142857</ele><time>2026-03-29T14:24:56.593Z</time></trkpt><trkpt lat="45.6135822" lon="9.4745395"><ele>205.42857142857142</ele><time>2026-03-29T14:24:57.593Z</time></trkpt><trkpt lat="45.6135277" lon="9.4744597"><ele>205.14285714285714</ele><time>2026-03-29T14:24:58.593Z</time></trkpt><trkpt lat="45.6134931" lon="9.4743785"><ele>204.85714285714283</ele><time>2026-03-29T14:24:59.593Z</time></trkpt><trkpt lat="45.6134611" lon="9.4742947"><ele>204.57142857142858</ele><time>2026-03-29T14:25:00.592Z</time></trkpt><trkpt lat="45.6134289" lon="9.4742037"><ele>204.28571428571428</ele><time>2026-03-29T14:25:01.593Z</time></trkpt><trkpt lat="45.6134003" lon="9.4741082"><ele>204.0</ele><time>2026-03-29T14:25:02.593Z</time></trkpt><trkpt lat="45.6133689" lon="9.4740199"><ele>204.0</ele><time>2026-03-29T14:25:03.593Z</time></trkpt><trkpt lat="45.6133457" lon="9.4739264"><ele>204.0</ele><time>2026-03-29T14:25:04.593Z</time></trkpt><trkpt lat="45.6133183" lon="9.4738344"><ele>204.0</ele><time>2026-03-29T14:25:05.593Z</time></trkpt><trkpt lat="45.6132873" lon="9.473744"><ele>204.0</ele><time>2026-03-29T14:25:06.593Z</time></trkpt><trkpt lat="45.6132619" lon="9.4736487"><ele>204.0</ele><time>2026-03-29T14:25:07.593Z</time></trkpt><trkpt lat="45.6132321" lon="9.4735552"><ele>204.0</ele><time>2026-03-29T14:25:08.593Z</time></trkpt><trkpt lat="45.6132059" lon="9.4734627"><ele>204.0</ele><time>2026-03-29T14:25:09.593Z</time></trkpt><trkpt lat="45.6131811" lon="9.4733714"><ele>204.0</ele><time>2026-03-29T14:25:10.593Z</time></trkpt><trkpt lat="45.6131532" lon="9.4732795"><ele>204.0</ele><time>2026-03-29T14:25:11.593Z</time></trkpt><trkpt lat="45.6131265" lon="9.4731859"><ele>204.0</ele><time>2026-03-29T14:25:12.593Z</time></trkpt><trkpt lat="45.6130952" lon="9.4730963"><ele>204.0</ele><time>2026-03-29T14:25:13.593Z</time></trkpt><trkpt lat="45.6130606" lon="9.4729997"><ele>204.0</ele><time>2026-03-29T14:25:14.593Z</time></trkpt><trkpt lat="45.6130333" lon="9.4729056"><ele>204.0</ele><time>2026-03-29T14:25:15.593Z</time></trkpt><trkpt lat="45.6130196" lon="9.4728088"><ele>204.0</ele><time>2026-03-29T14:25:16.593Z</time></trkpt><trkpt lat="45.6130091" lon="9.4727111"><ele>204.14285714285714</ele><time>2026-03-29T14:25:17.593Z</time></trkpt><trkpt lat="45.6130003" lon="9.4726069"><ele>204.28571428571428</ele><time>2026-03-29T14:25:18.593Z</time></trkpt><trkpt lat="45.6129974" lon="9.4725054"><ele>204.42857142857144</ele><time>2026-03-29T14:25:19.593Z</time></trkpt><trkpt lat="45.6129973" lon="9.4724034"><ele>204.57142857142856</ele><time>2026-03-29T14:25:20.592Z</time></trkpt><trkpt lat="45.6130059" lon="9.4723065"><ele>204.7142857142857</ele><time>2026-03-29T14:25:21.593Z</time></trkpt><trkpt lat="45.61302" lon="9.4722031"><ele>204.85714285714286</ele><time>2026-03-29T14:25:22.593Z</time></trkpt><trkpt lat="45.6130356" lon="9.4721029"><ele>205.0</ele><time>2026-03-29T14:25:23.592Z</time></trkpt><trkpt lat="45.613054" lon="9.4719989"><ele>205.0</ele><time>2026-03-29T14:25:24.593Z</time></trkpt><trkpt lat="45.6130691" lon="9.4718918"><ele>205.0</ele><time>2026-03-29T14:25:25.592Z</time></trkpt><trkpt lat="45.613082" lon="9.4717953"><ele>205.0</ele><time>2026-03-29T14:25:26.593Z</time></trkpt><trkpt lat="45.6130965" lon="9.4716919"><ele>205.0</ele><time>2026-03-29T14:25:27.593Z</time></trkpt><trkpt lat="45.6131148" lon="9.4715949"><ele>205.0</ele><time>2026-03-29T14:25:28.593Z</time></trkpt><trkpt lat="45.6131312" lon="9.4714959"><ele>205.0</ele><time>2026-03-29T14:25:29.593Z</time></trkpt><trkpt lat="45.6131502" lon="9.4713986"><ele>205.0</ele><time>2026-03-29T14:25:30.593Z</time></trkpt><trkpt lat="45.6131622" lon="9.4713022"><ele>205.16666666666666</ele><time>2026-03-29T14:25:31.593Z</time></trkpt><trkpt lat="45.6131736" lon="9.4712098"><ele>205.33333333333331</ele><time>2026-03-29T14:25:32.592Z</time></trkpt><trkpt lat="45.6131855" lon="9.4711124"><ele>205.5</ele><time>2026-03-29T14:25:33.593Z</time></trkpt><trkpt lat="45.6132013" lon="9.4710207"><ele>205.66666666666669</ele><time>2026-03-29T14:25:34.593Z</time></trkpt><trkpt lat="45.6132177" lon="9.4709192"><ele>205.83333333333334</ele><time>2026-03-29T14:25:35.593Z</time></trkpt><trkpt lat="45.6132299" lon="9.4708256"><ele>206.0</ele><time>2026-03-29T14:25:36.593Z</time></trkpt><trkpt lat="45.6132568" lon="9.4706253"><ele>205.99999999999997</ele><time>2026-03-29T14:25:38.593Z</time></trkpt><trkpt lat="45.6132734" lon="9.4705313"><ele>206.0</ele><time>2026-03-29T14:25:39.593Z</time></trkpt><trkpt lat="45.6132861" lon="9.4704376"><ele>206.0</ele><time>2026-03-29T14:25:40.593Z</time></trkpt><trkpt lat="45.613306" lon="9.4703432"><ele>206.0</ele><time>2026-03-29T14:25:41.593Z</time></trkpt><trkpt lat="45.6133185" lon="9.4702489"><ele>206.0</ele><time>2026-03-29T14:25:42.593Z</time></trkpt><trkpt lat="45.6133351" lon="9.4701557"><ele>205.99999999999997</ele><time>2026-03-29T14:25:43.593Z</time></trkpt><trkpt lat="45.6133536" lon="9.470056"><ele>206.0</ele><time>2026-03-29T14:25:44.593Z</time></trkpt><trkpt lat="45.6133713" lon="9.4699635"><ele>205.99999999999997</ele><time>2026-03-29T14:25:45.593Z</time></trkpt><trkpt lat="45.6133873" lon="9.4698635"><ele>206.0</ele><time>2026-03-29T14:25:46.593Z</time></trkpt><trkpt lat="45.613401" lon="9.4697624"><ele>206.0</ele><time>2026-03-29T14:25:47.593Z</time></trkpt><trkpt lat="45.6134058" lon="9.4696723"><ele>206.0</ele><time>2026-03-29T14:25:48.593Z</time></trkpt><trkpt lat="45.6134069" lon="9.4695803"><ele>206.0</ele><time>2026-03-29T14:25:49.593Z</time></trkpt><trkpt lat="45.6134046" lon="9.4694819"><ele>205.99999999999997</ele><time>2026-03-29T14:25:50.593Z</time></trkpt><trkpt lat="45.6133916" lon="9.4693889"><ele>206.0</ele><time>2026-03-29T14:25:51.592Z</time></trkpt><trkpt lat="45.6133785" lon="9.4692942"><ele>205.99999999999997</ele><time>2026-03-29T14:25:52.592Z</time></trkpt><trkpt lat="45.613361" lon="9.4692006"><ele>206.0</ele><time>2026-03-29T14:25:53.593Z</time></trkpt><trkpt lat="45.6133387" lon="9.4691117"><ele>206.0</ele><time>2026-03-29T14:25:54.593Z</time></trkpt><trkpt lat="45.6133061" lon="9.4690206"><ele>206.0</ele><time>2026-03-29T14:25:55.592Z</time></trkpt><trkpt lat="45.6132711" lon="9.4689331"><ele>206.0</ele><time>2026-03-29T14:25:56.593Z</time></trkpt><trkpt lat="45.6132282" lon="9.4688548"><ele>205.99999999999997</ele><time>2026-03-29T14:25:57.593Z</time></trkpt><trkpt lat="45.61318" lon="9.4687808"><ele>206.0</ele><time>2026-03-29T14:25:58.593Z</time></trkpt><trkpt lat="45.6131271" lon="9.4687187"><ele>205.99999999999997</ele><time>2026-03-29T14:25:59.593Z</time></trkpt><trkpt lat="45.6130656" lon="9.4686679"><ele>206.0</ele><time>2026-03-29T14:26:00.592Z</time></trkpt><trkpt lat="45.6130015" lon="9.4686234"><ele>206.0</ele><time>2026-03-29T14:26:01.593Z</time></trkpt><trkpt lat="45.6129366" lon="9.4685857"><ele>206.0</ele><time>2026-03-29T14:26:02.593Z</time></trkpt><trkpt lat="45.612866" lon="9.4685558"><ele>206.0</ele><time>2026-03-29T14:26:03.593Z</time></trkpt><trkpt lat="45.6127967" lon="9.4685283"><ele>205.99999999999997</ele><time>2026-03-29T14:26:04.593Z</time></trkpt><trkpt lat="45.6127259" lon="9.468516"><ele>206.0</ele><time>2026-03-29T14:26:05.593Z</time></trkpt><trkpt lat="45.6126532" lon="9.4684963"><ele>205.99999999999997</ele><time>2026-03-29T14:26:06.593Z</time></trkpt><trkpt lat="45.6125782" lon="9.4684757"><ele>206.0</ele><time>2026-03-29T14:26:07.593Z</time></trkpt><trkpt lat="45.6125041" lon="9.4684581"><ele>206.0</ele><time>2026-03-29T14:26:08.592Z</time></trkpt><trkpt lat="45.6124303" lon="9.4684456"><ele>206.0</ele><time>2026-03-29T14:26:09.593Z</time></trkpt><trkpt lat="45.6123577" lon="9.4684321"><ele>206.0</ele><time>2026-03-29T14:26:10.593Z</time></trkpt><trkpt lat="45.6122831" lon="9.4684215"><ele>205.99999999999997</ele><time>2026-03-29T14:26:11.593Z</time></trkpt><trkpt lat="45.6122113" lon="9.4684113"><ele>206.0</ele><time>2026-03-29T14:26:12.592Z</time></trkpt><trkpt lat="45.6121356" lon="9.4683979"><ele>205.99999999999997</ele><time>2026-03-29T14:26:13.592Z</time></trkpt><trkpt lat="45.6120633" lon="9.4683915"><ele>206.0</ele><time>2026-03-29T14:26:14.593Z</time></trkpt><trkpt lat="45.6119928" lon="9.4683836"><ele>206.0</ele><time>2026-03-29T14:26:15.593Z</time></trkpt><trkpt lat="45.6119213" lon="9.4683676"><ele>206.0</ele><time>2026-03-29T14:26:16.593Z</time></trkpt><trkpt lat="45.6118522" lon="9.4683587"><ele>206.0</ele><time>2026-03-29T14:26:17.593Z</time></trkpt><trkpt lat="45.6117825" lon="9.4683451"><ele>205.99999999999997</ele><time>2026-03-29T14:26:18.593Z</time></trkpt><trkpt lat="45.6117082" lon="9.4683263"><ele>206.0</ele><time>2026-03-29T14:26:19.593Z</time></trkpt><trkpt lat="45.611636" lon="9.4683146"><ele>205.7142857142857</ele><time>2026-03-29T14:26:20.593Z</time></trkpt><trkpt lat="45.6115598" lon="9.4682949"><ele>205.42857142857142</ele><time>2026-03-29T14:26:21.593Z</time></trkpt><trkpt lat="45.6114893" lon="9.4682869"><ele>205.14285714285714</ele><time>2026-03-29T14:26:22.593Z</time></trkpt><trkpt lat="45.6114134" lon="9.4682774"><ele>204.85714285714283</ele><time>2026-03-29T14:26:23.592Z</time></trkpt><trkpt lat="45.611339" lon="9.4682651"><ele>204.57142857142858</ele><time>2026-03-29T14:26:24.593Z</time></trkpt><trkpt lat="45.6112681" lon="9.4682544"><ele>204.28571428571428</ele><time>2026-03-29T14:26:25.593Z</time></trkpt><trkpt lat="45.6111938" lon="9.4682318"><ele>204.0</ele><time>2026-03-29T14:26:26.592Z</time></trkpt><trkpt lat="45.611123" lon="9.4681945"><ele>204.0</ele><time>2026-03-29T14:26:27.593Z</time></trkpt><trkpt lat="45.6110561" lon="9.4681411"><ele>204.0</ele><time>2026-03-29T14:26:28.593Z</time></trkpt><trkpt lat="45.610988" lon="9.4680865"><ele>204.0</ele><time>2026-03-29T14:26:29.593Z</time></trkpt><trkpt lat="45.6109272" lon="9.4680199"><ele>204.0</ele><time>2026-03-29T14:26:30.593Z</time></trkpt><trkpt lat="45.6108698" lon="9.4679467"><ele>204.0</ele><time>2026-03-29T14:26:31.593Z</time></trkpt><trkpt lat="45.6108197" lon="9.467874"><ele>204.0</ele><time>2026-03-29T14:26:32.592Z</time></trkpt><trkpt lat="45.6107748" lon="9.4677795"><ele>204.0</ele><time>2026-03-29T14:26:33.593Z</time></trkpt><trkpt lat="45.6107394" lon="9.4676903"><ele>204.0</ele><time>2026-03-29T14:26:34.592Z</time></trkpt><trkpt lat="45.6106996" lon="9.467594"><ele>204.0</ele><time>2026-03-29T14:26:35.593Z</time></trkpt><trkpt lat="45.6106711" lon="9.4675"><ele>204.0</ele><time>2026-03-29T14:26:36.593Z</time></trkpt><trkpt lat="45.6106474" lon="9.4673995"><ele>204.0</ele><time>2026-03-29T14:26:37.593Z</time></trkpt><trkpt lat="45.6106322" lon="9.4672953"><ele>204.0</ele><time>2026-03-29T14:26:38.593Z</time></trkpt><trkpt lat="45.6106152" lon="9.4671853"><ele>204.0</ele><time>2026-03-29T14:26:39.593Z</time></trkpt><trkpt lat="45.6106066" lon="9.4670813"><ele>203.83333333333334</ele><time>2026-03-29T14:26:40.593Z</time></trkpt><trkpt lat="45.6105972" lon="9.4669732"><ele>203.66666666666669</ele><time>2026-03-29T14:26:41.593Z</time></trkpt><trkpt lat="45.6105921" lon="9.466868"><ele>203.5</ele><time>2026-03-29T14:26:42.593Z</time></trkpt><trkpt lat="45.6105859" lon="9.4667578"><ele>203.33333333333334</ele><time>2026-03-29T14:26:43.593Z</time></trkpt><trkpt lat="45.6105775" lon="9.466651"><ele>203.16666666666669</ele><time>2026-03-29T14:26:44.592Z</time></trkpt><trkpt lat="45.6105674" lon="9.4665378"><ele>203.0</ele><time>2026-03-29T14:26:45.592Z</time></trkpt><trkpt lat="45.6105627" lon="9.4664315"><ele>203.00000000000003</ele><time>2026-03-29T14:26:46.593Z</time></trkpt><trkpt lat="45.6105547" lon="9.4663243"><ele>203.0</ele><time>2026-03-29T14:26:47.593Z</time></trkpt><trkpt lat="45.6105533" lon="9.4662101"><ele>203.0</ele><time>2026-03-29T14:26:48.593Z</time></trkpt><trkpt lat="45.6105462" lon="9.466099"><ele>203.0</ele><time>2026-03-29T14:26:49.592Z</time></trkpt><trkpt lat="45.610538" lon="9.4659949"><ele>203.00000000000003</ele><time>2026-03-29T14:26:50.593Z</time></trkpt><trkpt lat="45.6105357" lon="9.4658857"><ele>203.0</ele><time>2026-03-29T14:26:51.593Z</time></trkpt><trkpt lat="45.6105332" lon="9.4657791"><ele>203.14285714285714</ele><time>2026-03-29T14:26:52.593Z</time></trkpt><trkpt lat="45.6105275" lon="9.4656746"><ele>203.28571428571428</ele><time>2026-03-29T14:26:53.593Z</time></trkpt><trkpt lat="45.6105147" lon="9.4655678"><ele>203.42857142857144</ele><time>2026-03-29T14:26:54.593Z</time></trkpt><trkpt lat="45.6105094" lon="9.4654646"><ele>203.57142857142856</ele><time>2026-03-29T14:26:55.593Z</time></trkpt><trkpt lat="45.6105038" lon="9.4653663"><ele>203.71428571428572</ele><time>2026-03-29T14:26:56.593Z</time></trkpt><trkpt lat="45.6105005" lon="9.4652634"><ele>203.85714285714286</ele><time>2026-03-29T14:26:57.593Z</time></trkpt><trkpt lat="45.6104946" lon="9.4651624"><ele>204.0</ele><time>2026-03-29T14:26:58.593Z</time></trkpt><trkpt lat="45.6104913" lon="9.4650547"><ele>204.0</ele><time>2026-03-29T14:26:59.593Z</time></trkpt><trkpt lat="45.6104937" lon="9.4649561"><ele>204.0</ele><time>2026-03-29T14:27:00.593Z</time></trkpt><trkpt lat="45.6105057" lon="9.4648628"><ele>204.0</ele><time>2026-03-29T14:27:01.593Z</time></trkpt><trkpt lat="45.6105462" lon="9.4646958"><ele>204.0</ele><time>2026-03-29T14:27:03.593Z</time></trkpt><trkpt lat="45.6105237" lon="9.4645349"><ele>204.0</ele><time>2026-03-29T14:27:05.593Z</time></trkpt><trkpt lat="45.6104312" lon="9.4644307"><ele>204.0</ele><time>2026-03-29T14:27:07.593Z</time></trkpt><trkpt lat="45.6103684" lon="9.4644136"><ele>204.0</ele><time>2026-03-29T14:27:08.593Z</time></trkpt><trkpt lat="45.6103054" lon="9.4644046"><ele>204.0</ele><time>2026-03-29T14:27:09.593Z</time></trkpt><trkpt lat="45.6102441" lon="9.4643782"><ele>204.0</ele><time>2026-03-29T14:27:10.592Z</time></trkpt><trkpt lat="45.6101806" lon="9.4643342"><ele>204.0</ele><time>2026-03-29T14:27:11.593Z</time></trkpt><trkpt lat="45.6101212" lon="9.4642822"><ele>204.0</ele><time>2026-03-29T14:27:12.593Z</time></trkpt><trkpt lat="45.6100595" lon="9.464235"><ele>204.0</ele><time>2026-03-29T14:27:13.593Z</time></trkpt><trkpt lat="45.6099962" lon="9.4641852"><ele>204.28571428571428</ele><time>2026-03-29T14:27:14.592Z</time></trkpt><trkpt lat="45.6099288" lon="9.4641414"><ele>204.57142857142858</ele><time>2026-03-29T14:27:15.593Z</time></trkpt><trkpt lat="45.6098623" lon="9.4641091"><ele>204.85714285714283</ele><time>2026-03-29T14:27:16.593Z</time></trkpt><trkpt lat="45.6097971" lon="9.4640791"><ele>205.14285714285714</ele><time>2026-03-29T14:27:17.593Z</time></trkpt><trkpt lat="45.6097309" lon="9.4640415"><ele>205.42857142857142</ele><time>2026-03-29T14:27:18.593Z</time></trkpt><trkpt lat="45.6096623" lon="9.4640091"><ele>205.7142857142857</ele><time>2026-03-29T14:27:19.592Z</time></trkpt><trkpt lat="45.6095967" lon="9.4639698"><ele>206.0</ele><time>2026-03-29T14:27:20.593Z</time></trkpt><trkpt lat="45.6095263" lon="9.4639311"><ele>205.57142857142856</ele><time>2026-03-29T14:27:21.593Z</time></trkpt><trkpt lat="45.609457" lon="9.4639005"><ele>205.14285714285714</ele><time>2026-03-29T14:27:22.592Z</time></trkpt><trkpt lat="45.6093894" lon="9.4638684"><ele>204.71428571428572</ele><time>2026-03-29T14:27:23.593Z</time></trkpt><trkpt lat="45.6093229" lon="9.4638476"><ele>204.28571428571428</ele><time>2026-03-29T14:27:24.593Z</time></trkpt><trkpt lat="45.6092554" lon="9.4638157"><ele>203.85714285714286</ele><time>2026-03-29T14:27:25.593Z</time></trkpt><trkpt lat="45.6091829" lon="9.4637945"><ele>203.42857142857142</ele><time>2026-03-29T14:27:26.593Z</time></trkpt><trkpt lat="45.6091101" lon="9.4637691"><ele>203.0</ele><time>2026-03-29T14:27:27.593Z</time></trkpt><trkpt lat="45.6090366" lon="9.4637579"><ele>203.0</ele><time>2026-03-29T14:27:28.593Z</time></trkpt><trkpt lat="45.6089651" lon="9.4637373"><ele>203.0</ele><time>2026-03-29T14:27:29.593Z</time></trkpt><trkpt lat="45.6088953" lon="9.4637171"><ele>203.0</ele><time>2026-03-29T14:27:30.593Z</time></trkpt><trkpt lat="45.6088247" lon="9.4637071"><ele>203.0</ele><time>2026-03-29T14:27:31.593Z</time></trkpt><trkpt lat="45.608752" lon="9.4636897"><ele>203.0</ele><time>2026-03-29T14:27:32.593Z</time></trkpt><trkpt lat="45.6086728" lon="9.4636699"><ele>203.0</ele><time>2026-03-29T14:27:33.593Z</time></trkpt><trkpt lat="45.6085956" lon="9.4636443"><ele>203.0</ele><time>2026-03-29T14:27:34.593Z</time></trkpt><trkpt lat="45.6085248" lon="9.4636312"><ele>202.85714285714286</ele><time>2026-03-29T14:27:35.593Z</time></trkpt><trkpt lat="45.6084508" lon="9.4636135"><ele>202.71428571428572</ele><time>2026-03-29T14:27:36.593Z</time></trkpt><trkpt lat="45.6083775" lon="9.4635938"><ele>202.57142857142856</ele><time>2026-03-29T14:27:37.593Z</time></trkpt><trkpt lat="45.6083054" lon="9.4635875"><ele>202.42857142857144</ele><time>2026-03-29T14:27:38.593Z</time></trkpt><trkpt lat="45.608235" lon="9.4635821"><ele>202.28571428571428</ele><time>2026-03-29T14:27:39.593Z</time></trkpt><trkpt lat="45.6081668" lon="9.4635878"><ele>202.14285714285714</ele><time>2026-03-29T14:27:40.593Z</time></trkpt><trkpt lat="45.6081023" lon="9.4635917"><ele>202.0</ele><time>2026-03-29T14:27:41.593Z</time></trkpt><trkpt lat="45.6079811" lon="9.4635496"><ele>201.99999999999997</ele><time>2026-03-29T14:27:43.593Z</time></trkpt><trkpt lat="45.6079235" lon="9.4634925"><ele>202.0</ele><time>2026-03-29T14:27:44.593Z</time></trkpt><trkpt lat="45.6078674" lon="9.4633327"><ele>202.0</ele><time>2026-03-29T14:27:46.593Z</time></trkpt><trkpt lat="45.6078703" lon="9.4632375"><ele>202.0</ele><time>2026-03-29T14:27:47.593Z</time></trkpt><trkpt lat="45.6078827" lon="9.4631477"><ele>201.99999999999997</ele><time>2026-03-29T14:27:48.592Z</time></trkpt><trkpt lat="45.607893" lon="9.463054"><ele>202.0</ele><time>2026-03-29T14:27:49.593Z</time></trkpt><trkpt lat="45.6079071" lon="9.4629617"><ele>202.0</ele><time>2026-03-29T14:27:50.592Z</time></trkpt><trkpt lat="45.6079109" lon="9.4628696"><ele>202.0</ele><time>2026-03-29T14:27:51.593Z</time></trkpt><trkpt lat="45.6079207" lon="9.4627778"><ele>202.0</ele><time>2026-03-29T14:27:52.593Z</time></trkpt><trkpt lat="45.6079354" lon="9.4626838"><ele>202.0</ele><time>2026-03-29T14:27:53.593Z</time></trkpt><trkpt lat="45.6079459" lon="9.4625873"><ele>202.0</ele><time>2026-03-29T14:27:54.593Z</time></trkpt><trkpt lat="45.6079555" lon="9.4624841"><ele>202.0</ele><time>2026-03-29T14:27:55.593Z</time></trkpt><trkpt lat="45.6079664" lon="9.4623924"><ele>202.0</ele><time>2026-03-29T14:27:56.592Z</time></trkpt><trkpt lat="45.607982" lon="9.4622968"><ele>202.0</ele><time>2026-03-29T14:27:57.593Z</time></trkpt><trkpt lat="45.6079961" lon="9.462189"><ele>202.0</ele><time>2026-03-29T14:27:58.593Z</time></trkpt><trkpt lat="45.6080057" lon="9.4620953"><ele>202.0</ele><time>2026-03-29T14:27:59.592Z</time></trkpt><trkpt lat="45.6080204" lon="9.4620026"><ele>202.0</ele><time>2026-03-29T14:28:00.593Z</time></trkpt><trkpt lat="45.6080315" lon="9.4618899"><ele>202.0</ele><time>2026-03-29T14:28:01.593Z</time></trkpt><trkpt lat="45.6080445" lon="9.4617921"><ele>202.0</ele><time>2026-03-29T14:28:02.593Z</time></trkpt><trkpt lat="45.6080606" lon="9.4616962"><ele>202.0</ele><time>2026-03-29T14:28:03.593Z</time></trkpt><trkpt lat="45.6080719" lon="9.4616029"><ele>201.71428571428572</ele><time>2026-03-29T14:28:04.593Z</time></trkpt><trkpt lat="45.6080856" lon="9.4615042"><ele>201.42857142857142</ele><time>2026-03-29T14:28:05.592Z</time></trkpt><trkpt lat="45.6080973" lon="9.4614032"><ele>201.14285714285717</ele><time>2026-03-29T14:28:06.593Z</time></trkpt><trkpt lat="45.6081076" lon="9.4613089"><ele>200.85714285714286</ele><time>2026-03-29T14:28:07.593Z</time></trkpt><trkpt lat="45.6081249" lon="9.4612126"><ele>200.57142857142858</ele><time>2026-03-29T14:28:08.593Z</time></trkpt><trkpt lat="45.6081332" lon="9.4611149"><ele>200.2857142857143</ele><time>2026-03-29T14:28:09.593Z</time></trkpt><trkpt lat="45.6081465" lon="9.4610143"><ele>200.0</ele><time>2026-03-29T14:28:10.592Z</time></trkpt><trkpt lat="45.6081597" lon="9.4609223"><ele>200.00000000000003</ele><time>2026-03-29T14:28:11.592Z</time></trkpt><trkpt lat="45.6081689" lon="9.4608283"><ele>200.0</ele><time>2026-03-29T14:28:12.593Z</time></trkpt><trkpt lat="45.6081811" lon="9.4607308"><ele>200.0</ele><time>2026-03-29T14:28:13.593Z</time></trkpt><trkpt lat="45.6081933" lon="9.4606293"><ele>200.0</ele><time>2026-03-29T14:28:14.593Z</time></trkpt><trkpt lat="45.6082039" lon="9.4605398"><ele>200.0</ele><time>2026-03-29T14:28:15.593Z</time></trkpt><trkpt lat="45.6082167" lon="9.4604416"><ele>200.00000000000003</ele><time>2026-03-29T14:28:16.592Z</time></trkpt><trkpt lat="45.6082344" lon="9.4603476"><ele>200.0</ele><time>2026-03-29T14:28:17.593Z</time></trkpt><trkpt lat="45.6082534" lon="9.4601753"><ele>200.0</ele><time>2026-03-29T14:28:19.593Z</time></trkpt><trkpt lat="45.6082783" lon="9.460081"><ele>200.0</ele><time>2026-03-29T14:28:20.593Z</time></trkpt><trkpt lat="45.6083169" lon="9.4599171"><ele>200.0</ele><time>2026-03-29T14:28:22.593Z</time></trkpt><trkpt lat="45.6083402" lon="9.4598315"><ele>200.0</ele><time>2026-03-29T14:28:23.593Z</time></trkpt><trkpt lat="45.6083782" lon="9.4596802"><ele>200.0</ele><time>2026-03-29T14:28:25.592Z</time></trkpt><trkpt lat="45.6084032" lon="9.459561"><ele>200.0</ele><time>2026-03-29T14:28:27.593Z</time></trkpt><trkpt lat="45.6084027" lon="9.4594645"><ele>200.0</ele><time>2026-03-29T14:28:33.593Z</time></trkpt><trkpt lat="45.6083386" lon="9.4593667"><ele>200.0</ele><time>2026-03-29T14:28:36.592Z</time></trkpt><trkpt lat="45.6082431" lon="9.4593314"><ele>200.0</ele><time>2026-03-29T14:28:38.593Z</time></trkpt><trkpt lat="45.6081462" lon="9.459303"><ele>200.0</ele><time>2026-03-29T14:28:40.593Z</time></trkpt><trkpt lat="45.6080335" lon="9.4592643"><ele>200.0</ele><time>2026-03-29T14:28:42.593Z</time></trkpt><trkpt lat="45.6079136" lon="9.4592274"><ele>200.0</ele><time>2026-03-29T14:28:44.592Z</time></trkpt><trkpt lat="45.6077869" lon="9.4591913"><ele>200.0</ele><time>2026-03-29T14:28:46.593Z</time></trkpt><trkpt lat="45.6076624" lon="9.4591519"><ele>200.0</ele><time>2026-03-29T14:28:48.593Z</time></trkpt><trkpt lat="45.6075967" lon="9.4591351"><ele>200.0</ele><time>2026-03-29T14:28:49.593Z</time></trkpt><trkpt lat="45.6075299" lon="9.459119"><ele>200.00000000000003</ele><time>2026-03-29T14:28:50.593Z</time></trkpt><trkpt lat="45.6074594" lon="9.4591004"><ele>200.0</ele><time>2026-03-29T14:28:51.593Z</time></trkpt><trkpt lat="45.6073903" lon="9.4590781"><ele>200.0</ele><time>2026-03-29T14:28:52.593Z</time></trkpt><trkpt lat="45.6073231" lon="9.4590563"><ele>200.0</ele><time>2026-03-29T14:28:53.593Z</time></trkpt><trkpt lat="45.6072549" lon="9.4590361"><ele>200.0</ele><time>2026-03-29T14:28:54.593Z</time></trkpt><trkpt lat="45.6071866" lon="9.4590181"><ele>200.00000000000003</ele><time>2026-03-29T14:28:55.593Z</time></trkpt><trkpt lat="45.607116" lon="9.4590008"><ele>200.0</ele><time>2026-03-29T14:28:56.593Z</time></trkpt><trkpt lat="45.6070494" lon="9.458985"><ele>199.71428571428572</ele><time>2026-03-29T14:28:57.593Z</time></trkpt><trkpt lat="45.606979" lon="9.4589651"><ele>199.42857142857144</ele><time>2026-03-29T14:28:58.593Z</time></trkpt><trkpt lat="45.6069124" lon="9.4589408"><ele>199.14285714285717</ele><time>2026-03-29T14:28:59.593Z</time></trkpt><trkpt lat="45.6068465" lon="9.4589271"><ele>198.85714285714286</ele><time>2026-03-29T14:29:00.592Z</time></trkpt><trkpt lat="45.6067835" lon="9.4589104"><ele>198.57142857142856</ele><time>2026-03-29T14:29:01.593Z</time></trkpt><trkpt lat="45.606719" lon="9.4588846"><ele>198.2857142857143</ele><time>2026-03-29T14:29:02.593Z</time></trkpt><trkpt lat="45.6066539" lon="9.4588581"><ele>198.0</ele><time>2026-03-29T14:29:03.593Z</time></trkpt><trkpt lat="45.6065815" lon="9.4588316"><ele>198.0</ele><time>2026-03-29T14:29:04.593Z</time></trkpt><trkpt lat="45.6065128" lon="9.4588169"><ele>198.0</ele><time>2026-03-29T14:29:05.593Z</time></trkpt><trkpt lat="45.6064457" lon="9.4587896"><ele>198.0</ele><time>2026-03-29T14:29:06.593Z</time></trkpt><trkpt lat="45.6063773" lon="9.4587593"><ele>198.0</ele><time>2026-03-29T14:29:07.593Z</time></trkpt><trkpt lat="45.6063097" lon="9.4587257"><ele>198.0</ele><time>2026-03-29T14:29:08.593Z</time></trkpt><trkpt lat="45.6062436" lon="9.4586965"><ele>198.0</ele><time>2026-03-29T14:29:09.592Z</time></trkpt><trkpt lat="45.6061773" lon="9.4586554"><ele>198.0</ele><time>2026-03-29T14:29:10.593Z</time></trkpt><trkpt lat="45.6061115" lon="9.4586083"><ele>197.85714285714286</ele><time>2026-03-29T14:29:11.592Z</time></trkpt><trkpt lat="45.6060485" lon="9.4585581"><ele>197.7142857142857</ele><time>2026-03-29T14:29:12.593Z</time></trkpt><trkpt lat="45.6059912" lon="9.4584989"><ele>197.57142857142856</ele><time>2026-03-29T14:29:13.593Z</time></trkpt><trkpt lat="45.6059348" lon="9.4584324"><ele>197.42857142857144</ele><time>2026-03-29T14:29:14.593Z</time></trkpt><trkpt lat="45.6058841" lon="9.4583593"><ele>197.28571428571428</ele><time>2026-03-29T14:29:15.593Z</time></trkpt><trkpt lat="45.6058364" lon="9.4582703"><ele>197.14285714285714</ele><time>2026-03-29T14:29:16.593Z</time></trkpt><trkpt lat="45.6058022" lon="9.4581849"><ele>197.0</ele><time>2026-03-29T14:29:17.593Z</time></trkpt><trkpt lat="45.6057689" lon="9.4580961"><ele>197.0</ele><time>2026-03-29T14:29:18.593Z</time></trkpt><trkpt lat="45.6057422" lon="9.4580015"><ele>197.0</ele><time>2026-03-29T14:29:19.593Z</time></trkpt><trkpt lat="45.6057179" lon="9.4579002"><ele>197.0</ele><time>2026-03-29T14:29:20.593Z</time></trkpt><trkpt lat="45.6057033" lon="9.4578015"><ele>197.0</ele><time>2026-03-29T14:29:21.593Z</time></trkpt><trkpt lat="45.6056939" lon="9.4576991"><ele>197.0</ele><time>2026-03-29T14:29:22.593Z</time></trkpt><trkpt lat="45.6056926" lon="9.4575914"><ele>197.0</ele><time>2026-03-29T14:29:23.593Z</time></trkpt><trkpt lat="45.6056891" lon="9.4574872"><ele>197.0</ele><time>2026-03-29T14:29:24.593Z</time></trkpt><trkpt lat="45.6056841" lon="9.4573777"><ele>196.85714285714286</ele><time>2026-03-29T14:29:25.593Z</time></trkpt><trkpt lat="45.6056844" lon="9.4572797"><ele>196.71428571428572</ele><time>2026-03-29T14:29:26.593Z</time></trkpt><trkpt lat="45.6056867" lon="9.4571753"><ele>196.57142857142856</ele><time>2026-03-29T14:29:27.593Z</time></trkpt><trkpt lat="45.6056884" lon="9.4570698"><ele>196.42857142857144</ele><time>2026-03-29T14:29:28.593Z</time></trkpt><trkpt lat="45.6056902" lon="9.4569657"><ele>196.28571428571428</ele><time>2026-03-29T14:29:29.593Z</time></trkpt><trkpt lat="45.6056939" lon="9.4568611"><ele>196.14285714285714</ele><time>2026-03-29T14:29:30.593Z</time></trkpt><trkpt lat="45.6056945" lon="9.4567646"><ele>196.0</ele><time>2026-03-29T14:29:31.593Z</time></trkpt><trkpt lat="45.6057027" lon="9.4566596"><ele>196.0</ele><time>2026-03-29T14:29:32.593Z</time></trkpt><trkpt lat="45.605703" lon="9.4565602"><ele>196.0</ele><time>2026-03-29T14:29:33.592Z</time></trkpt><trkpt lat="45.6057036" lon="9.4564549"><ele>196.0</ele><time>2026-03-29T14:29:34.592Z</time></trkpt><trkpt lat="45.6057063" lon="9.4563595"><ele>196.0</ele><time>2026-03-29T14:29:35.593Z</time></trkpt><trkpt lat="45.6057109" lon="9.4562594"><ele>196.0</ele><time>2026-03-29T14:29:36.593Z</time></trkpt><trkpt lat="45.6057095" lon="9.4561649"><ele>196.0</ele><time>2026-03-29T14:29:37.593Z</time></trkpt><trkpt lat="45.6057124" lon="9.456063"><ele>196.0</ele><time>2026-03-29T14:29:38.592Z</time></trkpt><trkpt lat="45.6057172" lon="9.45596"><ele>196.14285714285714</ele><time>2026-03-29T14:29:39.593Z</time></trkpt><trkpt lat="45.6057185" lon="9.4558558"><ele>196.28571428571428</ele><time>2026-03-29T14:29:40.593Z</time></trkpt><trkpt lat="45.60572" lon="9.4557509"><ele>196.42857142857144</ele><time>2026-03-29T14:29:41.593Z</time></trkpt><trkpt lat="45.6057189" lon="9.4556485"><ele>196.57142857142856</ele><time>2026-03-29T14:29:42.593Z</time></trkpt><trkpt lat="45.6057198" lon="9.4555465"><ele>196.71428571428572</ele><time>2026-03-29T14:29:43.593Z</time></trkpt><trkpt lat="45.6057199" lon="9.4554421"><ele>196.85714285714286</ele><time>2026-03-29T14:29:44.593Z</time></trkpt><trkpt lat="45.6057209" lon="9.4553405"><ele>197.0</ele><time>2026-03-29T14:29:45.593Z</time></trkpt><trkpt lat="45.6057217" lon="9.455227"><ele>197.0</ele><time>2026-03-29T14:29:46.593Z</time></trkpt><trkpt lat="45.6057237" lon="9.4551238"><ele>197.0</ele><time>2026-03-29T14:29:47.593Z</time></trkpt><trkpt lat="45.605728" lon="9.4550169"><ele>197.0</ele><time>2026-03-29T14:29:48.593Z</time></trkpt><trkpt lat="45.605727" lon="9.454909"><ele>197.0</ele><time>2026-03-29T14:29:49.593Z</time></trkpt><trkpt lat="45.6057175" lon="9.454808"><ele>197.0</ele><time>2026-03-29T14:29:50.593Z</time></trkpt><trkpt lat="45.6057105" lon="9.4546987"><ele>197.0</ele><time>2026-03-29T14:29:51.593Z</time></trkpt><trkpt lat="45.6056984" lon="9.4546008"><ele>197.0</ele><time>2026-03-29T14:29:52.593Z</time></trkpt><trkpt lat="45.605679" lon="9.4545042"><ele>196.85714285714286</ele><time>2026-03-29T14:29:53.593Z</time></trkpt><trkpt lat="45.605654" lon="9.4544074"><ele>196.71428571428572</ele><time>2026-03-29T14:29:54.592Z</time></trkpt><trkpt lat="45.605632" lon="9.4543103"><ele>196.57142857142856</ele><time>2026-03-29T14:29:55.593Z</time></trkpt><trkpt lat="45.6056006" lon="9.4542112"><ele>196.42857142857144</ele><time>2026-03-29T14:29:56.593Z</time></trkpt><trkpt lat="45.6055573" lon="9.4541232"><ele>196.28571428571428</ele><time>2026-03-29T14:29:57.593Z</time></trkpt><trkpt lat="45.6055119" lon="9.45403"><ele>196.14285714285714</ele><time>2026-03-29T14:29:58.593Z</time></trkpt><trkpt lat="45.6054666" lon="9.453948"><ele>196.0</ele><time>2026-03-29T14:29:59.593Z</time></trkpt><trkpt lat="45.6054135" lon="9.4538645"><ele>195.83333333333331</ele><time>2026-03-29T14:30:00.592Z</time></trkpt><trkpt lat="45.6053614" lon="9.4537882"><ele>195.66666666666666</ele><time>2026-03-29T14:30:01.593Z</time></trkpt><trkpt lat="45.6053046" lon="9.4537211"><ele>195.5</ele><time>2026-03-29T14:30:02.593Z</time></trkpt><trkpt lat="45.6052439" lon="9.4536557"><ele>195.33333333333331</ele><time>2026-03-29T14:30:03.593Z</time></trkpt><trkpt lat="45.6051749" lon="9.453597"><ele>195.16666666666666</ele><time>2026-03-29T14:30:04.593Z</time></trkpt><trkpt lat="45.6051065" lon="9.4535508"><ele>195.0</ele><time>2026-03-29T14:30:05.592Z</time></trkpt><trkpt lat="45.6050391" lon="9.4535105"><ele>195.0</ele><time>2026-03-29T14:30:06.593Z</time></trkpt><trkpt lat="45.6049715" lon="9.4534694"><ele>195.0</ele><time>2026-03-29T14:30:07.593Z</time></trkpt><trkpt lat="45.6049003" lon="9.4534373"><ele>195.0</ele><time>2026-03-29T14:30:08.593Z</time></trkpt><trkpt lat="45.6048307" lon="9.453405"><ele>195.0</ele><time>2026-03-29T14:30:09.593Z</time></trkpt><trkpt lat="45.6047611" lon="9.4533892"><ele>195.0</ele><time>2026-03-29T14:30:10.593Z</time></trkpt><trkpt lat="45.6046885" lon="9.4533786"><ele>195.0</ele><time>2026-03-29T14:30:11.593Z</time></trkpt><trkpt lat="45.6046129" lon="9.4533627"><ele>195.0</ele><time>2026-03-29T14:30:12.593Z</time></trkpt><trkpt lat="45.6045465" lon="9.4533671"><ele>195.14285714285714</ele><time>2026-03-29T14:30:13.592Z</time></trkpt><trkpt lat="45.6044763" lon="9.4533645"><ele>195.28571428571428</ele><time>2026-03-29T14:30:14.593Z</time></trkpt><trkpt lat="45.6044085" lon="9.4533621"><ele>195.42857142857144</ele><time>2026-03-29T14:30:15.593Z</time></trkpt><trkpt lat="45.6043375" lon="9.4533587"><ele>195.57142857142856</ele><time>2026-03-29T14:30:16.593Z</time></trkpt><trkpt lat="45.6042672" lon="9.4533506"><ele>195.71428571428572</ele><time>2026-03-29T14:30:17.593Z</time></trkpt><trkpt lat="45.6041969" lon="9.4533419"><ele>195.85714285714286</ele><time>2026-03-29T14:30:18.593Z</time></trkpt><trkpt lat="45.6041252" lon="9.4533405"><ele>196.0</ele><time>2026-03-29T14:30:19.593Z</time></trkpt><trkpt lat="45.6040518" lon="9.453333"><ele>196.0</ele><time>2026-03-29T14:30:20.593Z</time></trkpt><trkpt lat="45.6039829" lon="9.4533272"><ele>196.0</ele><time>2026-03-29T14:30:21.593Z</time></trkpt><trkpt lat="45.6039103" lon="9.453331"><ele>196.0</ele><time>2026-03-29T14:30:22.593Z</time></trkpt><trkpt lat="45.6038373" lon="9.4533338"><ele>196.0</ele><time>2026-03-29T14:30:23.593Z</time></trkpt><trkpt lat="45.6037665" lon="9.453337"><ele>196.0</ele><time>2026-03-29T14:30:24.593Z</time></trkpt><trkpt lat="45.6036927" lon="9.4533363"><ele>196.0</ele><time>2026-03-29T14:30:25.593Z</time></trkpt><trkpt lat="45.6036223" lon="9.4533437"><ele>196.0</ele><time>2026-03-29T14:30:26.593Z</time></trkpt><trkpt lat="45.6035545" lon="9.4533612"><ele>195.8</ele><time>2026-03-29T14:30:27.593Z</time></trkpt><trkpt lat="45.6034874" lon="9.453388"><ele>195.60000000000002</ele><time>2026-03-29T14:30:28.593Z</time></trkpt><trkpt lat="45.603374" lon="9.453478"><ele>195.4</ele><time>2026-03-29T14:30:30.593Z</time></trkpt><trkpt lat="45.6033111" lon="9.4535138"><ele>195.2</ele><time>2026-03-29T14:30:31.593Z</time></trkpt><trkpt lat="45.6031977" lon="9.453518"><ele>195.0</ele><time>2026-03-29T14:30:33.593Z</time></trkpt><trkpt lat="45.6030853" lon="9.4534308"><ele>195.0</ele><time>2026-03-29T14:30:35.593Z</time></trkpt><trkpt lat="45.6030246" lon="9.4533918"><ele>195.0</ele><time>2026-03-29T14:30:36.593Z</time></trkpt><trkpt lat="45.6029585" lon="9.4533731"><ele>195.0</ele><time>2026-03-29T14:30:37.593Z</time></trkpt><trkpt lat="45.602893" lon="9.4533629"><ele>195.0</ele><time>2026-03-29T14:30:38.593Z</time></trkpt><trkpt lat="45.6028295" lon="9.4533733"><ele>195.0</ele><time>2026-03-29T14:30:39.593Z</time></trkpt><trkpt lat="45.602711" lon="9.4533952"><ele>195.0</ele><time>2026-03-29T14:30:41.593Z</time></trkpt><trkpt lat="45.6025959" lon="9.4533937"><ele>194.8</ele><time>2026-03-29T14:30:43.593Z</time></trkpt><trkpt lat="45.6025044" lon="9.4533275"><ele>194.6</ele><time>2026-03-29T14:30:45.593Z</time></trkpt><trkpt lat="45.6024209" lon="9.4532407"><ele>194.39999999999998</ele><time>2026-03-29T14:30:47.593Z</time></trkpt><trkpt lat="45.6023918" lon="9.4531057"><ele>194.2</ele><time>2026-03-29T14:30:49.593Z</time></trkpt><trkpt lat="45.6023648" lon="9.4529583"><ele>194.0</ele><time>2026-03-29T14:30:51.593Z</time></trkpt><trkpt lat="45.6023448" lon="9.4528011"><ele>194.0</ele><time>2026-03-29T14:30:53.593Z</time></trkpt><trkpt lat="45.6023299" lon="9.4526308"><ele>194.0</ele><time>2026-03-29T14:30:55.593Z</time></trkpt><trkpt lat="45.6023082" lon="9.4524534"><ele>194.0</ele><time>2026-03-29T14:30:57.593Z</time></trkpt><trkpt lat="45.602285" lon="9.4522866"><ele>194.0</ele><time>2026-03-29T14:30:59.593Z</time></trkpt><trkpt lat="45.6022697" lon="9.4521189"><ele>194.00000000000003</ele><time>2026-03-29T14:31:01.593Z</time></trkpt><trkpt lat="45.6022588" lon="9.4520295"><ele>194.0</ele><time>2026-03-29T14:31:02.593Z</time></trkpt><trkpt lat="45.6022331" lon="9.451855"><ele>194.0</ele><time>2026-03-29T14:31:04.592Z</time></trkpt><trkpt lat="45.6022089" lon="9.4516808"><ele>194.0</ele><time>2026-03-29T14:31:06.593Z</time></trkpt><trkpt lat="45.6021989" lon="9.4515846"><ele>194.00000000000003</ele><time>2026-03-29T14:31:07.593Z</time></trkpt><trkpt lat="45.6021877" lon="9.4514914"><ele>194.0</ele><time>2026-03-29T14:31:08.593Z</time></trkpt><trkpt lat="45.6021749" lon="9.4514027"><ele>193.66666666666669</ele><time>2026-03-29T14:31:09.593Z</time></trkpt><trkpt lat="45.6021541" lon="9.4512321"><ele>193.33333333333334</ele><time>2026-03-29T14:31:11.593Z</time></trkpt><trkpt lat="45.6021458" lon="9.4511385"><ele>193.0</ele><time>2026-03-29T14:31:12.593Z</time></trkpt><trkpt lat="45.6021343" lon="9.451046"><ele>192.66666666666669</ele><time>2026-03-29T14:31:13.593Z</time></trkpt><trkpt lat="45.6021226" lon="9.4509449"><ele>192.33333333333334</ele><time>2026-03-29T14:31:14.593Z</time></trkpt><trkpt lat="45.6021122" lon="9.4508449"><ele>192.0</ele><time>2026-03-29T14:31:15.593Z</time></trkpt><trkpt lat="45.6020979" lon="9.4507506"><ele>192.0</ele><time>2026-03-29T14:31:16.592Z</time></trkpt><trkpt lat="45.6020873" lon="9.4506526"><ele>192.0</ele><time>2026-03-29T14:31:17.593Z</time></trkpt><trkpt lat="45.6020701" lon="9.45056"><ele>192.0</ele><time>2026-03-29T14:31:18.593Z</time></trkpt><trkpt lat="45.6020557" lon="9.4504682"><ele>192.0</ele><time>2026-03-29T14:31:19.593Z</time></trkpt><trkpt lat="45.602045" lon="9.4503718"><ele>192.0</ele><time>2026-03-29T14:31:20.593Z</time></trkpt><trkpt lat="45.6020332" lon="9.4501898"><ele>192.0</ele><time>2026-03-29T14:31:22.593Z</time></trkpt><trkpt lat="45.6020164" lon="9.4500154"><ele>191.85714285714283</ele><time>2026-03-29T14:31:24.593Z</time></trkpt><trkpt lat="45.6020053" lon="9.4499203"><ele>191.71428571428572</ele><time>2026-03-29T14:31:25.593Z</time></trkpt><trkpt lat="45.6019953" lon="9.4498231"><ele>191.57142857142856</ele><time>2026-03-29T14:31:26.593Z</time></trkpt><trkpt lat="45.6019828" lon="9.4497347"><ele>191.42857142857142</ele><time>2026-03-29T14:31:27.593Z</time></trkpt><trkpt lat="45.6019729" lon="9.4496361"><ele>191.28571428571428</ele><time>2026-03-29T14:31:28.593Z</time></trkpt><trkpt lat="45.6019609" lon="9.4495464"><ele>191.14285714285714</ele><time>2026-03-29T14:31:29.593Z</time></trkpt><trkpt lat="45.6019457" lon="9.4494562"><ele>191.0</ele><time>2026-03-29T14:31:30.593Z</time></trkpt><trkpt lat="45.601934" lon="9.4493632"><ele>191.16666666666666</ele><time>2026-03-29T14:31:31.593Z</time></trkpt><trkpt lat="45.6019224" lon="9.4492724"><ele>191.33333333333331</ele><time>2026-03-29T14:31:32.592Z</time></trkpt><trkpt lat="45.6019098" lon="9.4491762"><ele>191.5</ele><time>2026-03-29T14:31:33.593Z</time></trkpt><trkpt lat="45.6018962" lon="9.4490817"><ele>191.66666666666666</ele><time>2026-03-29T14:31:34.592Z</time></trkpt><trkpt lat="45.6018845" lon="9.4489864"><ele>191.83333333333334</ele><time>2026-03-29T14:31:35.593Z</time></trkpt><trkpt lat="45.601846" lon="9.448825"><ele>192.0</ele><time>2026-03-29T14:31:37.593Z</time></trkpt><trkpt lat="45.6017836" lon="9.448697"><ele>192.0</ele><time>2026-03-29T14:31:39.593Z</time></trkpt><trkpt lat="45.6017004" lon="9.4485946"><ele>192.0</ele><time>2026-03-29T14:31:41.593Z</time></trkpt><trkpt lat="45.6016197" lon="9.448509"><ele>192.0</ele><time>2026-03-29T14:31:43.593Z</time></trkpt><trkpt lat="45.601525" lon="9.4484998"><ele>192.0</ele><time>2026-03-29T14:31:45.593Z</time></trkpt><trkpt lat="45.6014395" lon="9.448596"><ele>192.0</ele><time>2026-03-29T14:31:47.592Z</time></trkpt><trkpt lat="45.6013434" lon="9.448664"><ele>192.0</ele><time>2026-03-29T14:31:49.593Z</time></trkpt><trkpt lat="45.6012263" lon="9.4486883"><ele>192.0</ele><time>2026-03-29T14:31:51.593Z</time></trkpt><trkpt lat="45.6011627" lon="9.4486909"><ele>192.0</ele><time>2026-03-29T14:31:52.593Z</time></trkpt><trkpt lat="45.6010418" lon="9.448703"><ele>192.0</ele><time>2026-03-29T14:31:54.593Z</time></trkpt><trkpt lat="45.6009775" lon="9.4487075"><ele>192.0</ele><time>2026-03-29T14:31:55.593Z</time></trkpt><trkpt lat="45.6009132" lon="9.4487115"><ele>192.0</ele><time>2026-03-29T14:31:56.593Z</time></trkpt><trkpt lat="45.600789" lon="9.4487147"><ele>191.83333333333334</ele><time>2026-03-29T14:31:58.593Z</time></trkpt><trkpt lat="45.6007255" lon="9.4487148"><ele>191.66666666666666</ele><time>2026-03-29T14:31:59.593Z</time></trkpt><trkpt lat="45.600603" lon="9.4487128"><ele>191.5</ele><time>2026-03-29T14:32:01.593Z</time></trkpt><trkpt lat="45.6004821" lon="9.4486674"><ele>191.33333333333331</ele><time>2026-03-29T14:32:03.593Z</time></trkpt><trkpt lat="45.600425" lon="9.4486216"><ele>191.16666666666666</ele><time>2026-03-29T14:32:04.593Z</time></trkpt><trkpt lat="45.6003776" lon="9.4485593"><ele>191.0</ele><time>2026-03-29T14:32:05.592Z</time></trkpt><trkpt lat="45.6003363" lon="9.4484895"><ele>191.0</ele><time>2026-03-29T14:32:06.593Z</time></trkpt><trkpt lat="45.6002989" lon="9.4483989"><ele>191.0</ele><time>2026-03-29T14:32:07.593Z</time></trkpt><trkpt lat="45.6002793" lon="9.4483072"><ele>191.0</ele><time>2026-03-29T14:32:08.593Z</time></trkpt><trkpt lat="45.6002672" lon="9.4482169"><ele>191.0</ele><time>2026-03-29T14:32:09.592Z</time></trkpt><trkpt lat="45.6002537" lon="9.4481271"><ele>191.0</ele><time>2026-03-29T14:32:10.593Z</time></trkpt><trkpt lat="45.6002394" lon="9.448038"><ele>191.0</ele><time>2026-03-29T14:32:11.593Z</time></trkpt><trkpt lat="45.6002111" lon="9.447855"><ele>191.0</ele><time>2026-03-29T14:32:13.592Z</time></trkpt><trkpt lat="45.6001919" lon="9.4477663"><ele>191.0</ele><time>2026-03-29T14:32:14.593Z</time></trkpt><trkpt lat="45.6001723" lon="9.4476734"><ele>191.0</ele><time>2026-03-29T14:32:15.593Z</time></trkpt><trkpt lat="45.6001536" lon="9.4475794"><ele>191.0</ele><time>2026-03-29T14:32:16.593Z</time></trkpt><trkpt lat="45.6001391" lon="9.4474872"><ele>191.0</ele><time>2026-03-29T14:32:17.593Z</time></trkpt><trkpt lat="45.6001221" lon="9.4473963"><ele>191.0</ele><time>2026-03-29T14:32:18.593Z</time></trkpt><trkpt lat="45.600105" lon="9.4473035"><ele>191.0</ele><time>2026-03-29T14:32:19.593Z</time></trkpt><trkpt lat="45.6000828" lon="9.447214"><ele>191.14285714285714</ele><time>2026-03-29T14:32:20.592Z</time></trkpt><trkpt lat="45.6000641" lon="9.447124"><ele>191.28571428571428</ele><time>2026-03-29T14:32:21.593Z</time></trkpt><trkpt lat="45.6000467" lon="9.4470295"><ele>191.42857142857142</ele><time>2026-03-29T14:32:22.593Z</time></trkpt><trkpt lat="45.6000295" lon="9.4469308"><ele>191.57142857142856</ele><time>2026-03-29T14:32:23.593Z</time></trkpt><trkpt lat="45.6000109" lon="9.4468245"><ele>191.71428571428572</ele><time>2026-03-29T14:32:24.593Z</time></trkpt><trkpt lat="45.5999917" lon="9.4467312"><ele>191.85714285714283</ele><time>2026-03-29T14:32:25.593Z</time></trkpt><trkpt lat="45.5999721" lon="9.4466352"><ele>192.0</ele><time>2026-03-29T14:32:26.593Z</time></trkpt><trkpt lat="45.5999551" lon="9.4465412"><ele>192.0</ele><time>2026-03-29T14:32:27.592Z</time></trkpt><trkpt lat="45.5999335" lon="9.4464354"><ele>192.0</ele><time>2026-03-29T14:32:28.593Z</time></trkpt><trkpt lat="45.5999139" lon="9.4463314"><ele>192.0</ele><time>2026-03-29T14:32:29.592Z</time></trkpt><trkpt lat="45.5998925" lon="9.4462283"><ele>192.0</ele><time>2026-03-29T14:32:30.593Z</time></trkpt><trkpt lat="45.5998661" lon="9.4461201"><ele>192.0</ele><time>2026-03-29T14:32:31.593Z</time></trkpt><trkpt lat="45.5998476" lon="9.4460099"><ele>192.0</ele><time>2026-03-29T14:32:32.593Z</time></trkpt><trkpt lat="45.5998204" lon="9.4458994"><ele>191.5</ele><time>2026-03-29T14:32:33.593Z</time></trkpt><trkpt lat="45.5998037" lon="9.4457895"><ele>191.0</ele><time>2026-03-29T14:32:34.593Z</time></trkpt><trkpt lat="45.5997867" lon="9.4456708"><ele>190.5</ele><time>2026-03-29T14:32:35.593Z</time></trkpt><trkpt lat="45.5997696" lon="9.4455628"><ele>190.0</ele><time>2026-03-29T14:32:36.593Z</time></trkpt><trkpt lat="45.5997539" lon="9.445444"><ele>189.5</ele><time>2026-03-29T14:32:37.593Z</time></trkpt><trkpt lat="45.599736" lon="9.4453286"><ele>189.0</ele><time>2026-03-29T14:32:38.593Z</time></trkpt><trkpt lat="45.5997159" lon="9.4452184"><ele>188.85714285714286</ele><time>2026-03-29T14:32:39.593Z</time></trkpt><trkpt lat="45.5996973" lon="9.4451113"><ele>188.71428571428572</ele><time>2026-03-29T14:32:40.593Z</time></trkpt><trkpt lat="45.5996772" lon="9.4450065"><ele>188.57142857142856</ele><time>2026-03-29T14:32:41.593Z</time></trkpt><trkpt lat="45.5996622" lon="9.4449047"><ele>188.42857142857144</ele><time>2026-03-29T14:32:42.593Z</time></trkpt><trkpt lat="45.599649" lon="9.444802"><ele>188.28571428571428</ele><time>2026-03-29T14:32:43.593Z</time></trkpt><trkpt lat="45.599636" lon="9.4447104"><ele>188.14285714285714</ele><time>2026-03-29T14:32:44.593Z</time></trkpt><trkpt lat="45.5996247" lon="9.4446123"><ele>188.0</ele><time>2026-03-29T14:32:45.593Z</time></trkpt><trkpt lat="45.5996074" lon="9.4444694"><ele>188.0</ele><time>2026-03-29T14:32:47.593Z</time></trkpt><trkpt lat="45.5996769" lon="9.444434"><ele>188.0</ele><time>2026-03-29T14:32:55.592Z</time></trkpt><trkpt lat="45.5997577" lon="9.4444382"><ele>188.0</ele><time>2026-03-29T14:32:59.593Z</time></trkpt><trkpt lat="45.5998496" lon="9.4444004"><ele>188.0</ele><time>2026-03-29T14:33:02.592Z</time></trkpt><trkpt lat="45.5999311" lon="9.4443713"><ele>188.0</ele><time>2026-03-29T14:33:04.592Z</time></trkpt><trkpt lat="45.6000123" lon="9.4442978"><ele>188.0</ele><time>2026-03-29T14:33:07.593Z</time></trkpt><trkpt lat="45.6000734" lon="9.4442171"><ele>188.0</ele><time>2026-03-29T14:33:09.592Z</time></trkpt><trkpt lat="45.6001282" lon="9.4441128"><ele>188.0</ele><time>2026-03-29T14:33:11.593Z</time></trkpt><trkpt lat="45.6001746" lon="9.4439989"><ele>188.0</ele><time>2026-03-29T14:33:13.593Z</time></trkpt><trkpt lat="45.6001949" lon="9.4438719"><ele>188.0</ele><time>2026-03-29T14:33:15.593Z</time></trkpt><trkpt lat="45.6002139" lon="9.4437697"><ele>188.0</ele><time>2026-03-29T14:33:17.593Z</time></trkpt><trkpt lat="45.6002396" lon="9.4436706"><ele>188.0</ele><time>2026-03-29T14:33:19.593Z</time></trkpt><trkpt lat="45.6002783" lon="9.4435555"><ele>188.2</ele><time>2026-03-29T14:33:21.593Z</time></trkpt><trkpt lat="45.6003218" lon="9.4434617"><ele>188.4</ele><time>2026-03-29T14:33:23.593Z</time></trkpt><trkpt lat="45.6003642" lon="9.4433846"><ele>188.6</ele><time>2026-03-29T14:33:25.593Z</time></trkpt><trkpt lat="45.6004081" lon="9.4432714"><ele>188.79999999999998</ele><time>2026-03-29T14:33:27.592Z</time></trkpt><trkpt lat="45.600466" lon="9.4430969"><ele>189.0</ele><time>2026-03-29T14:33:29.593Z</time></trkpt><trkpt lat="45.6005086" lon="9.4429669"><ele>189.0</ele><time>2026-03-29T14:33:31.593Z</time></trkpt><trkpt lat="45.6005616" lon="9.4428524"><ele>189.0</ele><time>2026-03-29T14:33:33.593Z</time></trkpt><trkpt lat="45.6006038" lon="9.4427407"><ele>189.0</ele><time>2026-03-29T14:33:35.593Z</time></trkpt><trkpt lat="45.600663" lon="9.4426419"><ele>189.0</ele><time>2026-03-29T14:33:37.593Z</time></trkpt><trkpt lat="45.6007268" lon="9.4425902"><ele>189.0</ele><time>2026-03-29T14:33:39.593Z</time></trkpt><trkpt lat="45.6007961" lon="9.4425315"><ele>189.0</ele><time>2026-03-29T14:33:41.592Z</time></trkpt><trkpt lat="45.6008779" lon="9.4424769"><ele>189.0</ele><time>2026-03-29T14:33:43.592Z</time></trkpt><trkpt lat="45.6009685" lon="9.4424443"><ele>189.0</ele><time>2026-03-29T14:33:45.593Z</time></trkpt><trkpt lat="45.6010553" lon="9.4424409"><ele>189.0</ele><time>2026-03-29T14:33:47.593Z</time></trkpt><trkpt lat="45.6011262" lon="9.4424501"><ele>189.0</ele><time>2026-03-29T14:33:49.593Z</time></trkpt><trkpt lat="45.6012143" lon="9.4424622"><ele>189.0</ele><time>2026-03-29T14:33:51.593Z</time></trkpt><trkpt lat="45.6012881" lon="9.4424818"><ele>189.0</ele><time>2026-03-29T14:33:53.593Z</time></trkpt><trkpt lat="45.6013539" lon="9.4425561"><ele>189.39999999999998</ele><time>2026-03-29T14:33:57.593Z</time></trkpt><trkpt lat="45.6014252" lon="9.4425642"><ele>189.8</ele><time>2026-03-29T14:34:01.593Z</time></trkpt><trkpt lat="45.6015199" lon="9.4425738"><ele>190.2</ele><time>2026-03-29T14:34:04.593Z</time></trkpt><trkpt lat="45.6015819" lon="9.4425964"><ele>190.60000000000002</ele><time>2026-03-29T14:34:06.593Z</time></trkpt><trkpt lat="45.6017487" lon="9.4425957"><ele>191.0</ele><time>2026-03-29T14:34:16.593Z</time></trkpt><trkpt lat="45.60191" lon="9.4425691"><ele>191.0</ele><time>2026-03-29T14:34:26.593Z</time></trkpt><trkpt lat="45.6019884" lon="9.4425381"><ele>191.0</ele><time>2026-03-29T14:34:28.593Z</time></trkpt><trkpt lat="45.6020537" lon="9.4424976"><ele>191.0</ele><time>2026-03-29T14:34:30.593Z</time></trkpt><trkpt lat="45.6021121" lon="9.4424325"><ele>191.0</ele><time>2026-03-29T14:34:32.593Z</time></trkpt><trkpt lat="45.6021803" lon="9.4423913"><ele>191.0</ele><time>2026-03-29T14:34:35.592Z</time></trkpt><trkpt lat="45.6023097" lon="9.4423675"><ele>191.0</ele><time>2026-03-29T14:34:41.593Z</time></trkpt><trkpt lat="45.6023781" lon="9.4423407"><ele>191.0</ele><time>2026-03-29T14:34:43.593Z</time></trkpt><trkpt lat="45.6024669" lon="9.4423143"><ele>191.0</ele><time>2026-03-29T14:34:46.593Z</time></trkpt><trkpt lat="45.6025285" lon="9.4422802"><ele>191.0</ele><time>2026-03-29T14:34:48.593Z</time></trkpt><trkpt lat="45.6025871" lon="9.4422138"><ele>191.0</ele><time>2026-03-29T14:34:51.593Z</time></trkpt><trkpt lat="45.6026705" lon="9.4421571"><ele>191.0</ele><time>2026-03-29T14:34:53.593Z</time></trkpt><trkpt lat="45.6027606" lon="9.4420917"><ele>191.0</ele><time>2026-03-29T14:34:55.593Z</time></trkpt><trkpt lat="45.6028576" lon="9.4420373"><ele>191.16666666666666</ele><time>2026-03-29T14:34:57.593Z</time></trkpt><trkpt lat="45.6029469" lon="9.4419918"><ele>191.33333333333331</ele><time>2026-03-29T14:34:59.593Z</time></trkpt><trkpt lat="45.6030412" lon="9.4419524"><ele>191.5</ele><time>2026-03-29T14:35:01.593Z</time></trkpt><trkpt lat="45.6031282" lon="9.4419185"><ele>191.66666666666666</ele><time>2026-03-29T14:35:03.593Z</time></trkpt><trkpt lat="45.6032125" lon="9.4419155"><ele>191.83333333333334</ele><time>2026-03-29T14:35:05.593Z</time></trkpt><trkpt lat="45.6032925" lon="9.4419045"><ele>192.0</ele><time>2026-03-29T14:35:07.593Z</time></trkpt><trkpt lat="45.6033468" lon="9.441849"><ele>192.0</ele><time>2026-03-29T14:35:10.593Z</time></trkpt><trkpt lat="45.6034197" lon="9.4418035"><ele>192.0</ele><time>2026-03-29T14:35:15.593Z</time></trkpt><trkpt lat="45.6034875" lon="9.4417831"><ele>192.0</ele><time>2026-03-29T14:35:18.593Z</time></trkpt><trkpt lat="45.6035617" lon="9.4417187"><ele>192.0</ele><time>2026-03-29T14:35:20.592Z</time></trkpt><trkpt lat="45.6036236" lon="9.441668"><ele>192.0</ele><time>2026-03-29T14:35:22.593Z</time></trkpt><trkpt lat="45.603684" lon="9.4415638"><ele>192.0</ele><time>2026-03-29T14:35:25.593Z</time></trkpt><trkpt lat="45.6037219" lon="9.4414758"><ele>192.33333333333334</ele><time>2026-03-29T14:35:28.593Z</time></trkpt><trkpt lat="45.6037838" lon="9.441398"><ele>192.66666666666669</ele><time>2026-03-29T14:35:31.593Z</time></trkpt><trkpt lat="45.6038579" lon="9.4413339"><ele>193.0</ele><time>2026-03-29T14:35:34.593Z</time></trkpt><trkpt lat="45.6038934" lon="9.4412585"><ele>193.33333333333334</ele><time>2026-03-29T14:35:37.593Z</time></trkpt><trkpt lat="45.6039218" lon="9.4411693"><ele>193.66666666666669</ele><time>2026-03-29T14:35:39.593Z</time></trkpt><trkpt lat="45.6039658" lon="9.4410735"><ele>194.0</ele><time>2026-03-29T14:35:41.592Z</time></trkpt><trkpt lat="45.604002" lon="9.4409615"><ele>194.16666666666669</ele><time>2026-03-29T14:35:43.592Z</time></trkpt><trkpt lat="45.6040318" lon="9.4408455"><ele>194.33333333333334</ele><time>2026-03-29T14:35:45.593Z</time></trkpt><trkpt lat="45.6040646" lon="9.4407324"><ele>194.5</ele><time>2026-03-29T14:35:47.593Z</time></trkpt><trkpt lat="45.6041104" lon="9.4406293"><ele>194.66666666666669</ele><time>2026-03-29T14:35:49.593Z</time></trkpt><trkpt lat="45.6041742" lon="9.440546"><ele>194.83333333333334</ele><time>2026-03-29T14:35:51.593Z</time></trkpt><trkpt lat="45.6042414" lon="9.4405085"><ele>195.0</ele><time>2026-03-29T14:35:53.593Z</time></trkpt><trkpt lat="45.6043155" lon="9.4404673"><ele>194.66666666666666</ele><time>2026-03-29T14:35:55.593Z</time></trkpt><trkpt lat="45.6044145" lon="9.4404152"><ele>194.33333333333331</ele><time>2026-03-29T14:35:57.593Z</time></trkpt><trkpt lat="45.6044908" lon="9.4403782"><ele>194.0</ele><time>2026-03-29T14:35:59.593Z</time></trkpt><trkpt lat="45.604568" lon="9.4403486"><ele>193.66666666666666</ele><time>2026-03-29T14:36:01.593Z</time></trkpt><trkpt lat="45.6046612" lon="9.4403366"><ele>193.33333333333331</ele><time>2026-03-29T14:36:03.593Z</time></trkpt><trkpt lat="45.6047445" lon="9.4403205"><ele>193.0</ele><time>2026-03-29T14:36:05.593Z</time></trkpt><trkpt lat="45.604836" lon="9.4403036"><ele>193.0</ele><time>2026-03-29T14:36:07.592Z</time></trkpt><trkpt lat="45.6049404" lon="9.4402779"><ele>193.0</ele><time>2026-03-29T14:36:09.593Z</time></trkpt><trkpt lat="45.6050425" lon="9.4402601"><ele>193.0</ele><time>2026-03-29T14:36:11.593Z</time></trkpt><trkpt lat="45.6051368" lon="9.4402172"><ele>193.0</ele><time>2026-03-29T14:36:13.593Z</time></trkpt><trkpt lat="45.6052037" lon="9.4401099"><ele>193.0</ele><time>2026-03-29T14:36:15.593Z</time></trkpt><trkpt lat="45.6052515" lon="9.4400017"><ele>193.0</ele><time>2026-03-29T14:36:17.593Z</time></trkpt><trkpt lat="45.6052762" lon="9.4398888"><ele>193.0</ele><time>2026-03-29T14:36:19.593Z</time></trkpt><trkpt lat="45.6053096" lon="9.4397702"><ele>193.0</ele><time>2026-03-29T14:36:21.593Z</time></trkpt><trkpt lat="45.6053348" lon="9.439646"><ele>193.0</ele><time>2026-03-29T14:36:23.593Z</time></trkpt><trkpt lat="45.6053614" lon="9.4395073"><ele>193.0</ele><time>2026-03-29T14:36:25.592Z</time></trkpt><trkpt lat="45.6053804" lon="9.4393831"><ele>193.2</ele><time>2026-03-29T14:36:27.593Z</time></trkpt><trkpt lat="45.6053942" lon="9.4392713"><ele>193.4</ele><time>2026-03-29T14:36:29.593Z</time></trkpt><trkpt lat="45.6054074" lon="9.4391501"><ele>193.6</ele><time>2026-03-29T14:36:31.592Z</time></trkpt><trkpt lat="45.6054289" lon="9.4390292"><ele>193.79999999999998</ele><time>2026-03-29T14:36:33.592Z</time></trkpt><trkpt lat="45.6054436" lon="9.4389075"><ele>194.0</ele><time>2026-03-29T14:36:35.593Z</time></trkpt><trkpt lat="45.6054666" lon="9.438743"><ele>194.0</ele><time>2026-03-29T14:36:37.592Z</time></trkpt><trkpt lat="45.6054953" lon="9.4385744"><ele>194.0</ele><time>2026-03-29T14:36:39.593Z</time></trkpt><trkpt lat="45.605524" lon="9.4384069"><ele>194.0</ele><time>2026-03-29T14:36:41.593Z</time></trkpt><trkpt lat="45.6055552" lon="9.4382439"><ele>194.0</ele><time>2026-03-29T14:36:43.593Z</time></trkpt><trkpt lat="45.60559" lon="9.4380764"><ele>194.0</ele><time>2026-03-29T14:36:45.592Z</time></trkpt><trkpt lat="45.6056075" lon="9.4379883"><ele>194.0</ele><time>2026-03-29T14:36:46.592Z</time></trkpt><trkpt lat="45.6056682" lon="9.4378035"><ele>194.0</ele><time>2026-03-29T14:36:47.593Z</time></trkpt><trkpt lat="45.6056975" lon="9.4376366"><ele>194.0</ele><time>2026-03-29T14:36:49.593Z</time></trkpt><trkpt lat="45.6057309" lon="9.4374882"><ele>194.0</ele><time>2026-03-29T14:36:51.593Z</time></trkpt><trkpt lat="45.6057719" lon="9.4373355"><ele>194.2</ele><time>2026-03-29T14:36:53.593Z</time></trkpt><trkpt lat="45.6058434" lon="9.4372289"><ele>194.39999999999998</ele><time>2026-03-29T14:36:55.593Z</time></trkpt><trkpt lat="45.6059423" lon="9.4371872"><ele>194.6</ele><time>2026-03-29T14:36:57.593Z</time></trkpt><trkpt lat="45.6060306" lon="9.4371498"><ele>194.8</ele><time>2026-03-29T14:36:59.593Z</time></trkpt><trkpt lat="45.6061192" lon="9.4370719"><ele>195.0</ele><time>2026-03-29T14:37:01.592Z</time></trkpt><trkpt lat="45.6061801" lon="9.4369562"><ele>194.5</ele><time>2026-03-29T14:37:03.593Z</time></trkpt><trkpt lat="45.6062337" lon="9.4368295"><ele>194.0</ele><time>2026-03-29T14:37:05.593Z</time></trkpt><trkpt lat="45.6062935" lon="9.4367031"><ele>193.5</ele><time>2026-03-29T14:37:07.593Z</time></trkpt><trkpt lat="45.6063449" lon="9.4365353"><ele>193.0</ele><time>2026-03-29T14:37:09.593Z</time></trkpt><trkpt lat="45.6064039" lon="9.4363971"><ele>193.4</ele><time>2026-03-29T14:37:11.592Z</time></trkpt><trkpt lat="45.6064564" lon="9.4362782"><ele>193.8</ele><time>2026-03-29T14:37:13.593Z</time></trkpt><trkpt lat="45.6065081" lon="9.4361433"><ele>194.2</ele><time>2026-03-29T14:37:15.593Z</time></trkpt><trkpt lat="45.6065547" lon="9.4360263"><ele>194.6</ele><time>2026-03-29T14:37:17.593Z</time></trkpt><trkpt lat="45.6066083" lon="9.4358779"><ele>195.0</ele><time>2026-03-29T14:37:19.593Z</time></trkpt><trkpt lat="45.6066577" lon="9.4357278"><ele>195.0</ele><time>2026-03-29T14:37:21.593Z</time></trkpt><trkpt lat="45.6067092" lon="9.435587"><ele>195.0</ele><time>2026-03-29T14:37:23.593Z</time></trkpt><trkpt lat="45.6067684" lon="9.435442"><ele>195.0</ele><time>2026-03-29T14:37:25.593Z</time></trkpt><trkpt lat="45.6067964" lon="9.4353612"><ele>195.0</ele><time>2026-03-29T14:37:26.593Z</time></trkpt><trkpt lat="45.6068496" lon="9.4352336"><ele>195.0</ele><time>2026-03-29T14:37:28.593Z</time></trkpt><trkpt lat="45.6069221" lon="9.4350989"><ele>195.33333333333334</ele><time>2026-03-29T14:37:30.593Z</time></trkpt><trkpt lat="45.6069906" lon="9.4349806"><ele>195.66666666666669</ele><time>2026-03-29T14:37:32.592Z</time></trkpt><trkpt lat="45.6070569" lon="9.43491"><ele>196.0</ele><time>2026-03-29T14:37:34.593Z</time></trkpt><trkpt lat="45.6071116" lon="9.434851"><ele>196.33333333333334</ele><time>2026-03-29T14:37:36.593Z</time></trkpt><trkpt lat="45.6071768" lon="9.4347665"><ele>196.66666666666669</ele><time>2026-03-29T14:37:38.593Z</time></trkpt><trkpt lat="45.6072427" lon="9.4347031"><ele>197.0</ele><time>2026-03-29T14:37:40.593Z</time></trkpt><trkpt lat="45.6073241" lon="9.4346264"><ele>197.0</ele><time>2026-03-29T14:37:42.593Z</time></trkpt><trkpt lat="45.6074172" lon="9.4345449"><ele>197.0</ele><time>2026-03-29T14:37:44.593Z</time></trkpt><trkpt lat="45.607504" lon="9.4344514"><ele>197.0</ele><time>2026-03-29T14:37:46.593Z</time></trkpt><trkpt lat="45.6075786" lon="9.4343687"><ele>197.0</ele><time>2026-03-29T14:37:48.593Z</time></trkpt><trkpt lat="45.6076966" lon="9.4342329"><ele>197.00000000000003</ele><time>2026-03-29T14:37:50.593Z</time></trkpt><trkpt lat="45.6077779" lon="9.4341203"><ele>197.0</ele><time>2026-03-29T14:37:52.593Z</time></trkpt><trkpt lat="45.6078355" lon="9.4340566"><ele>197.0</ele><time>2026-03-29T14:37:53.593Z</time></trkpt><trkpt lat="45.6078803" lon="9.4339808"><ele>197.0</ele><time>2026-03-29T14:37:54.593Z</time></trkpt><trkpt lat="45.6079281" lon="9.4339187"><ele>197.00000000000003</ele><time>2026-03-29T14:37:55.593Z</time></trkpt><trkpt lat="45.6079642" lon="9.4338447"><ele>197.0</ele><time>2026-03-29T14:37:56.593Z</time></trkpt><trkpt lat="45.6080329" lon="9.4337328"><ele>197.0</ele><time>2026-03-29T14:37:58.593Z</time></trkpt><trkpt lat="45.6080707" lon="9.433598"><ele>197.0</ele><time>2026-03-29T14:38:00.593Z</time></trkpt><trkpt lat="45.6081049" lon="9.4334653"><ele>197.0</ele><time>2026-03-29T14:38:02.593Z</time></trkpt><trkpt lat="45.608141" lon="9.4332949"><ele>197.0</ele><time>2026-03-29T14:38:04.593Z</time></trkpt><trkpt lat="45.6081647" lon="9.433207"><ele>197.0</ele><time>2026-03-29T14:38:05.593Z</time></trkpt><trkpt lat="45.6081893" lon="9.433112"><ele>197.00000000000003</ele><time>2026-03-29T14:38:06.592Z</time></trkpt><trkpt lat="45.6082104" lon="9.4330209"><ele>197.0</ele><time>2026-03-29T14:38:07.592Z</time></trkpt><trkpt lat="45.6082408" lon="9.4328537"><ele>197.0</ele><time>2026-03-29T14:38:09.593Z</time></trkpt><trkpt lat="45.6082703" lon="9.4326912"><ele>197.0</ele><time>2026-03-29T14:38:11.593Z</time></trkpt><trkpt lat="45.6082926" lon="9.4325935"><ele>197.00000000000003</ele><time>2026-03-29T14:38:12.593Z</time></trkpt><trkpt lat="45.6083062" lon="9.4325013"><ele>197.0</ele><time>2026-03-29T14:38:13.592Z</time></trkpt><trkpt lat="45.608332" lon="9.4324004"><ele>197.0</ele><time>2026-03-29T14:38:14.593Z</time></trkpt><trkpt lat="45.6084027" lon="9.4322768"><ele>197.0</ele><time>2026-03-29T14:38:16.593Z</time></trkpt><trkpt lat="45.6085051" lon="9.4322219"><ele>197.0</ele><time>2026-03-29T14:38:18.593Z</time></trkpt><trkpt lat="45.6085716" lon="9.4321824"><ele>197.0</ele><time>2026-03-29T14:38:19.593Z</time></trkpt><trkpt lat="45.6086324" lon="9.4322061"><ele>197.0</ele><time>2026-03-29T14:38:20.593Z</time></trkpt><trkpt lat="45.6087433" lon="9.4322474"><ele>196.8</ele><time>2026-03-29T14:38:22.592Z</time></trkpt><trkpt lat="45.6088496" lon="9.4322695"><ele>196.6</ele><time>2026-03-29T14:38:24.593Z</time></trkpt><trkpt lat="45.6089153" lon="9.4322839"><ele>196.4</ele><time>2026-03-29T14:38:25.593Z</time></trkpt><trkpt lat="45.6089835" lon="9.4323251"><ele>196.20000000000002</ele><time>2026-03-29T14:38:26.593Z</time></trkpt><trkpt lat="45.6090986" lon="9.4323802"><ele>196.0</ele><time>2026-03-29T14:38:28.593Z</time></trkpt><trkpt lat="45.6092184" lon="9.4324195"><ele>196.0</ele><time>2026-03-29T14:38:30.593Z</time></trkpt><trkpt lat="45.6093257" lon="9.4324436"><ele>196.0</ele><time>2026-03-29T14:38:32.593Z</time></trkpt><trkpt lat="45.6094484" lon="9.432489"><ele>196.0</ele><time>2026-03-29T14:38:34.593Z</time></trkpt><trkpt lat="45.6095565" lon="9.4325319"><ele>196.0</ele><time>2026-03-29T14:38:36.593Z</time></trkpt><trkpt lat="45.6096759" lon="9.4325871"><ele>196.0</ele><time>2026-03-29T14:38:38.592Z</time></trkpt><trkpt lat="45.6097427" lon="9.4326041"><ele>196.0</ele><time>2026-03-29T14:38:39.592Z</time></trkpt><trkpt lat="45.6098167" lon="9.4326246"><ele>196.0</ele><time>2026-03-29T14:38:40.593Z</time></trkpt><trkpt lat="45.6099294" lon="9.4326175"><ele>196.0</ele><time>2026-03-29T14:38:42.593Z</time></trkpt><trkpt lat="45.6100339" lon="9.4325643"><ele>196.0</ele><time>2026-03-29T14:38:44.593Z</time></trkpt><trkpt lat="45.6101235" lon="9.4325029"><ele>195.99999999999997</ele><time>2026-03-29T14:38:46.593Z</time></trkpt><trkpt lat="45.6101949" lon="9.432421"><ele>196.0</ele><time>2026-03-29T14:38:48.593Z</time></trkpt><trkpt lat="45.6102158" lon="9.4323321"><ele>196.0</ele><time>2026-03-29T14:38:50.593Z</time></trkpt><trkpt lat="45.6101706" lon="9.4322568"><ele>196.0</ele><time>2026-03-29T14:38:52.593Z</time></trkpt><trkpt lat="45.6101038" lon="9.4322464"><ele>195.99999999999997</ele><time>2026-03-29T14:38:54.592Z</time></trkpt><trkpt lat="45.6100192" lon="9.4322883"><ele>196.0</ele><time>2026-03-29T14:38:56.593Z</time></trkpt><trkpt lat="45.6099185" lon="9.4323389"><ele>196.0</ele><time>2026-03-29T14:38:58.593Z</time></trkpt><trkpt lat="45.6098195" lon="9.4323399"><ele>196.0</ele><time>2026-03-29T14:39:00.593Z</time></trkpt><trkpt lat="45.6097079" lon="9.4323057"><ele>196.0</ele><time>2026-03-29T14:39:02.592Z</time></trkpt><trkpt lat="45.6095976" lon="9.4322772"><ele>196.0</ele><time>2026-03-29T14:39:04.592Z</time></trkpt><trkpt lat="45.6094905" lon="9.4322417"><ele>196.0</ele><time>2026-03-29T14:39:06.593Z</time></trkpt><trkpt lat="45.6093753" lon="9.4321919"><ele>196.0</ele><time>2026-03-29T14:39:08.593Z</time></trkpt><trkpt lat="45.609315" lon="9.432165"><ele>196.0</ele><time>2026-03-29T14:39:09.593Z</time></trkpt><trkpt lat="45.6092067" lon="9.4321101"><ele>196.0</ele><time>2026-03-29T14:39:11.593Z</time></trkpt><trkpt lat="45.6090906" lon="9.4320481"><ele>196.0</ele><time>2026-03-29T14:39:13.593Z</time></trkpt><trkpt lat="45.608986" lon="9.4319951"><ele>196.0</ele><time>2026-03-29T14:39:15.593Z</time></trkpt><trkpt lat="45.6088684" lon="9.4319477"><ele>195.8</ele><time>2026-03-29T14:39:17.593Z</time></trkpt><trkpt lat="45.6087573" lon="9.4318998"><ele>195.60000000000002</ele><time>2026-03-29T14:39:19.593Z</time></trkpt><trkpt lat="45.6086446" lon="9.4318624"><ele>195.4</ele><time>2026-03-29T14:39:21.593Z</time></trkpt><trkpt lat="45.6085311" lon="9.4318456"><ele>195.2</ele><time>2026-03-29T14:39:23.593Z</time></trkpt><trkpt lat="45.6084564" lon="9.4318511"><ele>195.0</ele><time>2026-03-29T14:39:24.592Z</time></trkpt><trkpt lat="45.6083926" lon="9.4318738"><ele>195.6</ele><time>2026-03-29T14:39:25.593Z</time></trkpt><trkpt lat="45.6082937" lon="9.4319483"><ele>196.2</ele><time>2026-03-29T14:39:27.592Z</time></trkpt><trkpt lat="45.6082028" lon="9.4320193"><ele>196.8</ele><time>2026-03-29T14:39:29.593Z</time></trkpt><trkpt lat="45.6080962" lon="9.432052"><ele>197.4</ele><time>2026-03-29T14:39:31.592Z</time></trkpt><trkpt lat="45.6079957" lon="9.4320686"><ele>198.0</ele><time>2026-03-29T14:39:33.593Z</time></trkpt><trkpt lat="45.6078847" lon="9.4320545"><ele>197.75</ele><time>2026-03-29T14:39:35.592Z</time></trkpt><trkpt lat="45.6077665" lon="9.4320141"><ele>197.5</ele><time>2026-03-29T14:39:37.593Z</time></trkpt><trkpt lat="45.6076494" lon="9.4319903"><ele>197.25</ele><time>2026-03-29T14:39:39.593Z</time></trkpt><trkpt lat="45.60754" lon="9.4319603"><ele>197.0</ele><time>2026-03-29T14:39:41.592Z</time></trkpt><trkpt lat="45.6074301" lon="9.4318971"><ele>197.0</ele><time>2026-03-29T14:39:43.592Z</time></trkpt><trkpt lat="45.6073802" lon="9.4317647"><ele>197.0</ele><time>2026-03-29T14:39:45.593Z</time></trkpt><trkpt lat="45.6073792" lon="9.431619"><ele>197.0</ele><time>2026-03-29T14:39:47.593Z</time></trkpt><trkpt lat="45.6073469" lon="9.4314689"><ele>197.0</ele><time>2026-03-29T14:39:49.593Z</time></trkpt><trkpt lat="45.6072568" lon="9.4313961"><ele>197.0</ele><time>2026-03-29T14:39:51.593Z</time></trkpt><trkpt lat="45.6071602" lon="9.431386"><ele>197.0</ele><time>2026-03-29T14:39:53.593Z</time></trkpt><trkpt lat="45.6070588" lon="9.431355"><ele>197.0</ele><time>2026-03-29T14:39:55.593Z</time></trkpt><trkpt lat="45.6069739" lon="9.4312812"><ele>197.0</ele><time>2026-03-29T14:39:57.593Z</time></trkpt><trkpt lat="45.6069492" lon="9.4311299"><ele>197.0</ele><time>2026-03-29T14:39:59.593Z</time></trkpt><trkpt lat="45.6069805" lon="9.4309926"><ele>197.0</ele><time>2026-03-29T14:40:01.593Z</time></trkpt><trkpt lat="45.606998" lon="9.4308302"><ele>197.0</ele><time>2026-03-29T14:40:03.593Z</time></trkpt><trkpt lat="45.6069906" lon="9.4307396"><ele>197.0</ele><time>2026-03-29T14:40:04.593Z</time></trkpt><trkpt lat="45.6069815" lon="9.4305798"><ele>197.0</ele><time>2026-03-29T14:40:06.593Z</time></trkpt><trkpt lat="45.6070106" lon="9.4304259"><ele>197.0</ele><time>2026-03-29T14:40:08.593Z</time></trkpt><trkpt lat="45.6070686" lon="9.4303358"><ele>197.0</ele><time>2026-03-29T14:40:10.593Z</time></trkpt><trkpt lat="45.607146" lon="9.4302355"><ele>196.8</ele><time>2026-03-29T14:40:13.593Z</time></trkpt><trkpt lat="45.6071775" lon="9.4300874"><ele>196.6</ele><time>2026-03-29T14:40:15.593Z</time></trkpt><trkpt lat="45.6072204" lon="9.4299434"><ele>196.4</ele><time>2026-03-29T14:40:17.593Z</time></trkpt><trkpt lat="45.607245" lon="9.4297952"><ele>196.20000000000002</ele><time>2026-03-29T14:40:19.593Z</time></trkpt><trkpt lat="45.6072578" lon="9.4296349"><ele>196.0</ele><time>2026-03-29T14:40:21.593Z</time></trkpt><trkpt lat="45.607255" lon="9.4294961"><ele>195.75</ele><time>2026-03-29T14:40:23.593Z</time></trkpt><trkpt lat="45.6072624" lon="9.4293423"><ele>195.5</ele><time>2026-03-29T14:40:25.593Z</time></trkpt><trkpt lat="45.6072614" lon="9.4291711"><ele>195.25</ele><time>2026-03-29T14:40:27.593Z</time></trkpt><trkpt lat="45.6072705" lon="9.4290004"><ele>195.0</ele><time>2026-03-29T14:40:29.593Z</time></trkpt><trkpt lat="45.6072791" lon="9.428834"><ele>195.0</ele><time>2026-03-29T14:40:31.593Z</time></trkpt><trkpt lat="45.6072863" lon="9.4287446"><ele>195.0</ele><time>2026-03-29T14:40:32.593Z</time></trkpt><trkpt lat="45.6072899" lon="9.4286501"><ele>195.0</ele><time>2026-03-29T14:40:33.593Z</time></trkpt><trkpt lat="45.6072935" lon="9.4284729"><ele>195.0</ele><time>2026-03-29T14:40:35.593Z</time></trkpt><trkpt lat="45.6072919" lon="9.4283765"><ele>195.0</ele><time>2026-03-29T14:40:36.593Z</time></trkpt><trkpt lat="45.6072914" lon="9.4282791"><ele>195.0</ele><time>2026-03-29T14:40:37.593Z</time></trkpt><trkpt lat="45.6073044" lon="9.4281768"><ele>195.0</ele><time>2026-03-29T14:40:38.593Z</time></trkpt><trkpt lat="45.6073034" lon="9.4280848"><ele>195.0</ele><time>2026-03-29T14:40:39.593Z</time></trkpt><trkpt lat="45.6073078" lon="9.4279119"><ele>195.0</ele><time>2026-03-29T14:40:41.593Z</time></trkpt><trkpt lat="45.6073189" lon="9.4277365"><ele>195.0</ele><time>2026-03-29T14:40:43.593Z</time></trkpt><trkpt lat="45.6073219" lon="9.4275563"><ele>195.0</ele><time>2026-03-29T14:40:45.592Z</time></trkpt><trkpt lat="45.6073159" lon="9.4273884"><ele>195.0</ele><time>2026-03-29T14:40:47.593Z</time></trkpt><trkpt lat="45.6073199" lon="9.4272013"><ele>195.0</ele><time>2026-03-29T14:40:49.593Z</time></trkpt><trkpt lat="45.6073182" lon="9.4270246"><ele>195.0</ele><time>2026-03-29T14:40:51.592Z</time></trkpt><trkpt lat="45.6073199" lon="9.42693"><ele>195.0</ele><time>2026-03-29T14:40:52.593Z</time></trkpt><trkpt lat="45.607327" lon="9.4267463"><ele>195.0</ele><time>2026-03-29T14:40:54.593Z</time></trkpt><trkpt lat="45.6073232" lon="9.4265572"><ele>195.0</ele><time>2026-03-29T14:40:56.593Z</time></trkpt><trkpt lat="45.6073271" lon="9.4264664"><ele>195.0</ele><time>2026-03-29T14:40:57.593Z</time></trkpt><trkpt lat="45.6073246" lon="9.4263046"><ele>195.0</ele><time>2026-03-29T14:40:59.593Z</time></trkpt><trkpt lat="45.6073296" lon="9.4262138"><ele>195.0</ele><time>2026-03-29T14:41:00.593Z</time></trkpt><trkpt lat="45.6073503" lon="9.4260756"><ele>195.0</ele><time>2026-03-29T14:41:02.593Z</time></trkpt><trkpt lat="45.6074174" lon="9.4260144"><ele>195.0</ele><time>2026-03-29T14:41:04.593Z</time></trkpt><trkpt lat="45.6075124" lon="9.4260006"><ele>195.0</ele><time>2026-03-29T14:41:06.593Z</time></trkpt><trkpt lat="45.6076097" lon="9.4259912"><ele>195.0</ele><time>2026-03-29T14:41:08.593Z</time></trkpt><trkpt lat="45.6077091" lon="9.4259867"><ele>195.0</ele><time>2026-03-29T14:41:10.592Z</time></trkpt><trkpt lat="45.6078132" lon="9.4259811"><ele>195.0</ele><time>2026-03-29T14:41:12.593Z</time></trkpt><trkpt lat="45.6079281" lon="9.4259933"><ele>195.0</ele><time>2026-03-29T14:41:14.593Z</time></trkpt><trkpt lat="45.6080397" lon="9.4259946"><ele>195.2</ele><time>2026-03-29T14:41:16.593Z</time></trkpt><trkpt lat="45.6081486" lon="9.426003"><ele>195.4</ele><time>2026-03-29T14:41:18.593Z</time></trkpt><trkpt lat="45.6082581" lon="9.4260025"><ele>195.60000000000002</ele><time>2026-03-29T14:41:20.593Z</time></trkpt><trkpt lat="45.6083744" lon="9.4260074"><ele>195.8</ele><time>2026-03-29T14:41:22.593Z</time></trkpt><trkpt lat="45.6084862" lon="9.4260081"><ele>196.0</ele><time>2026-03-29T14:41:24.593Z</time></trkpt><trkpt lat="45.6085935" lon="9.4260115"><ele>196.60000000000002</ele><time>2026-03-29T14:41:26.592Z</time></trkpt><trkpt lat="45.6086977" lon="9.4260129"><ele>197.2</ele><time>2026-03-29T14:41:28.593Z</time></trkpt><trkpt lat="45.6088081" lon="9.4260047"><ele>197.8</ele><time>2026-03-29T14:41:30.593Z</time></trkpt><trkpt lat="45.6089124" lon="9.4259786"><ele>198.39999999999998</ele><time>2026-03-29T14:41:32.593Z</time></trkpt><trkpt lat="45.6090199" lon="9.425968"><ele>199.0</ele><time>2026-03-29T14:41:34.593Z</time></trkpt><trkpt lat="45.6091374" lon="9.4259598"><ele>199.0</ele><time>2026-03-29T14:41:36.593Z</time></trkpt><trkpt lat="45.6092529" lon="9.4259612"><ele>199.0</ele><time>2026-03-29T14:41:38.592Z</time></trkpt><trkpt lat="45.6093714" lon="9.4259639"><ele>199.0</ele><time>2026-03-29T14:41:40.592Z</time></trkpt><trkpt lat="45.6094929" lon="9.4259608"><ele>199.0</ele><time>2026-03-29T14:41:42.592Z</time></trkpt><trkpt lat="45.6095952" lon="9.4259754"><ele>199.49999999999997</ele><time>2026-03-29T14:41:44.593Z</time></trkpt><trkpt lat="45.6096817" lon="9.4260121"><ele>200.0</ele><time>2026-03-29T14:42:25.593Z</time></trkpt><trkpt lat="45.6096814" lon="9.4261252"><ele>200.5</ele><time>2026-03-29T14:42:29.593Z</time></trkpt><trkpt lat="45.6096713" lon="9.4262365"><ele>201.0</ele><time>2026-03-29T14:42:31.593Z</time></trkpt><trkpt lat="45.6096602" lon="9.4263672"><ele>201.49999999999997</ele><time>2026-03-29T14:42:33.593Z</time></trkpt><trkpt lat="45.609659" lon="9.426512"><ele>202.0</ele><time>2026-03-29T14:42:35.593Z</time></trkpt><trkpt lat="45.6096504" lon="9.4266238"><ele>201.99999999999997</ele><time>2026-03-29T14:42:37.593Z</time></trkpt><trkpt lat="45.6096481" lon="9.4267544"><ele>202.0</ele><time>2026-03-29T14:42:39.593Z</time></trkpt><trkpt lat="45.6096655" lon="9.426869"><ele>202.0</ele><time>2026-03-29T14:42:41.593Z</time></trkpt><trkpt lat="45.6096654" lon="9.4269748"><ele>202.0</ele><time>2026-03-29T14:42:43.593Z</time></trkpt><trkpt lat="45.6096523" lon="9.4270864"><ele>201.99999999999997</ele><time>2026-03-29T14:42:45.592Z</time></trkpt><trkpt lat="45.6096533" lon="9.4271906"><ele>202.0</ele><time>2026-03-29T14:42:47.593Z</time></trkpt><trkpt lat="45.609679" lon="9.4273365"><ele>202.0</ele><time>2026-03-29T14:42:50.593Z</time></trkpt><trkpt lat="45.6096934" lon="9.4274405"><ele>202.0</ele><time>2026-03-29T14:42:53.593Z</time></trkpt><trkpt lat="45.6099264" lon="9.4272369"><ele>202.0</ele><time>2026-03-29T14:46:38.27Z</time></trkpt><trkpt lat="45.6099823" lon="9.427193"><ele>202.0</ele><time>2026-03-29T14:47:00.597Z</time></trkpt><trkpt lat="45.6099802" lon="9.4271028"><ele>202.0</ele><time>2026-03-29T14:47:11.597Z</time></trkpt></trkseg></trk></gpx>